<?xml version="1.0" encoding="UTF-8" standalone="no" ?>
<gpx xmlns="http://www.topografix.com/GPX/1/1" xmlns:xsi="http://www.w3.org/2001/XMLSchema-instance" xsi:schemaLocation="http://www.topografix.com/GPX/1/1 http://www.topografix.com/GPX/1/1/gpx.xsd" version="1.1" creator="VisuGPX - https://www.visugpx.com">
  <metadata>
    <name>Trail du Soleil Noir</name>
    <desc><![CDATA[Eclipse de Soleil du 12 Aout 2026
The best spot to be]]></desc>
  </metadata>
  <trk>
    <name><![CDATA[Grenoble Trail - Trail Du Soleil Noir]]></name>
    <trkseg>
      <trkpt lat="45.19668" lon="5.73958">
        <ele>220.19999694824</ele>
        <time>2026-08-12T12:56:50.000Z</time>
      </trkpt>
      <trkpt lat="45.19666" lon="5.73963">
        <ele>220.19999694824</ele>
        <time>2026-08-12T12:56:51.000Z</time>
      </trkpt>
      <trkpt lat="45.19664" lon="5.73964">
        <ele>220.19999694824</ele>
        <time>2026-08-12T12:56:52.000Z</time>
      </trkpt>
      <trkpt lat="45.19663" lon="5.73966">
        <ele>220.19999694824</ele>
        <time>2026-08-12T12:56:53.000Z</time>
      </trkpt>
      <trkpt lat="45.19661" lon="5.73967">
        <ele>220.39999389648</ele>
        <time>2026-08-12T12:56:54.000Z</time>
      </trkpt>
      <trkpt lat="45.19658" lon="5.73967">
        <ele>220.60000610352</ele>
        <time>2026-08-12T12:56:55.000Z</time>
      </trkpt>
      <trkpt lat="45.19656" lon="5.73967">
        <ele>220.60000610352</ele>
        <time>2026-08-12T12:56:56.000Z</time>
      </trkpt>
      <trkpt lat="45.19656" lon="5.73968">
        <ele>220.60000610352</ele>
        <time>2026-08-12T12:56:57.000Z</time>
      </trkpt>
      <trkpt lat="45.19655" lon="5.73968">
        <ele>220.60000610352</ele>
        <time>2026-08-12T12:56:58.000Z</time>
      </trkpt>
      <trkpt lat="45.19654" lon="5.73969">
        <ele>220.60000610352</ele>
        <time>2026-08-12T12:56:59.000Z</time>
      </trkpt>
      <trkpt lat="45.19653" lon="5.73969">
        <ele>220.80000305176</ele>
        <time>2026-08-12T12:57:00.000Z</time>
      </trkpt>
      <trkpt lat="45.19652" lon="5.73969">
        <ele>220.80000305176</ele>
        <time>2026-08-12T12:57:01.000Z</time>
      </trkpt>
      <trkpt lat="45.19651" lon="5.73969">
        <ele>220.80000305176</ele>
        <time>2026-08-12T12:57:02.000Z</time>
      </trkpt>
      <trkpt lat="45.1965" lon="5.73968">
        <ele>220.60000610352</ele>
        <time>2026-08-12T12:57:03.000Z</time>
      </trkpt>
      <trkpt lat="45.1965" lon="5.73967">
        <ele>220.60000610352</ele>
        <time>2026-08-12T12:57:04.000Z</time>
      </trkpt>
      <trkpt lat="45.1965" lon="5.73967">
        <ele>220.60000610352</ele>
        <time>2026-08-12T12:57:05.000Z</time>
      </trkpt>
      <trkpt lat="45.19649" lon="5.73967">
        <ele>220.39999389648</ele>
        <time>2026-08-12T12:57:06.000Z</time>
      </trkpt>
      <trkpt lat="45.19649" lon="5.73966">
        <ele>220.39999389648</ele>
        <time>2026-08-12T12:57:07.000Z</time>
      </trkpt>
      <trkpt lat="45.19649" lon="5.73965">
        <ele>220.39999389648</ele>
        <time>2026-08-12T12:57:08.000Z</time>
      </trkpt>
      <trkpt lat="45.19648" lon="5.73964">
        <ele>220.39999389648</ele>
        <time>2026-08-12T12:57:09.000Z</time>
      </trkpt>
      <trkpt lat="45.19648" lon="5.73963">
        <ele>220.39999389648</ele>
        <time>2026-08-12T12:57:10.000Z</time>
      </trkpt>
      <trkpt lat="45.19646" lon="5.73963">
        <ele>220.39999389648</ele>
        <time>2026-08-12T12:57:11.000Z</time>
      </trkpt>
      <trkpt lat="45.19645" lon="5.73963">
        <ele>220.39999389648</ele>
        <time>2026-08-12T12:57:12.000Z</time>
      </trkpt>
      <trkpt lat="45.19644" lon="5.73963">
        <ele>220.19999694824</ele>
        <time>2026-08-12T12:57:13.000Z</time>
      </trkpt>
      <trkpt lat="45.19644" lon="5.73963">
        <ele>220</ele>
        <time>2026-08-12T12:57:14.000Z</time>
      </trkpt>
      <trkpt lat="45.19643" lon="5.73963">
        <ele>219.80000305176</ele>
        <time>2026-08-12T12:57:15.000Z</time>
      </trkpt>
      <trkpt lat="45.19643" lon="5.73963">
        <ele>219.39999389648</ele>
        <time>2026-08-12T12:57:16.000Z</time>
      </trkpt>
      <trkpt lat="45.19642" lon="5.73963">
        <ele>218.80000305176</ele>
        <time>2026-08-12T12:57:17.000Z</time>
      </trkpt>
      <trkpt lat="45.19641" lon="5.73962">
        <ele>218.39999389648</ele>
        <time>2026-08-12T12:57:18.000Z</time>
      </trkpt>
      <trkpt lat="45.1964" lon="5.73963">
        <ele>218.19999694824</ele>
        <time>2026-08-12T12:57:19.000Z</time>
      </trkpt>
      <trkpt lat="45.1964" lon="5.73963">
        <ele>218</ele>
        <time>2026-08-12T12:57:20.000Z</time>
      </trkpt>
      <trkpt lat="45.19641" lon="5.73964">
        <ele>217.80000305176</ele>
        <time>2026-08-12T12:57:21.000Z</time>
      </trkpt>
      <trkpt lat="45.19641" lon="5.73966">
        <ele>217.80000305176</ele>
        <time>2026-08-12T12:57:22.000Z</time>
      </trkpt>
      <trkpt lat="45.19641" lon="5.73967">
        <ele>217.60000610352</ele>
        <time>2026-08-12T12:57:23.000Z</time>
      </trkpt>
      <trkpt lat="45.1964" lon="5.73967">
        <ele>217.60000610352</ele>
        <time>2026-08-12T12:57:24.000Z</time>
      </trkpt>
      <trkpt lat="45.19639" lon="5.73967">
        <ele>217.19999694824</ele>
        <time>2026-08-12T12:57:25.000Z</time>
      </trkpt>
      <trkpt lat="45.19638" lon="5.73967">
        <ele>217</ele>
        <time>2026-08-12T12:57:26.000Z</time>
      </trkpt>
      <trkpt lat="45.19638" lon="5.73967">
        <ele>216.60000610352</ele>
        <time>2026-08-12T12:57:27.000Z</time>
      </trkpt>
      <trkpt lat="45.19638" lon="5.73967">
        <ele>216.19999694824</ele>
        <time>2026-08-12T12:57:28.000Z</time>
      </trkpt>
      <trkpt lat="45.19637" lon="5.73966">
        <ele>215.80000305176</ele>
        <time>2026-08-12T12:57:29.000Z</time>
      </trkpt>
      <trkpt lat="45.19637" lon="5.73966">
        <ele>215.60000610352</ele>
        <time>2026-08-12T12:57:30.000Z</time>
      </trkpt>
      <trkpt lat="45.19637" lon="5.73966">
        <ele>215.19999694824</ele>
        <time>2026-08-12T12:57:31.000Z</time>
      </trkpt>
      <trkpt lat="45.19638" lon="5.73966">
        <ele>215.19999694824</ele>
        <time>2026-08-12T12:57:32.000Z</time>
      </trkpt>
      <trkpt lat="45.19638" lon="5.73967">
        <ele>215</ele>
        <time>2026-08-12T12:57:33.000Z</time>
      </trkpt>
      <trkpt lat="45.19638" lon="5.73967">
        <ele>214.80000305176</ele>
        <time>2026-08-12T12:57:34.000Z</time>
      </trkpt>
      <trkpt lat="45.19637" lon="5.73968">
        <ele>214.80000305176</ele>
        <time>2026-08-12T12:57:35.000Z</time>
      </trkpt>
      <trkpt lat="45.19637" lon="5.73968">
        <ele>214.60000610352</ele>
        <time>2026-08-12T12:57:36.000Z</time>
      </trkpt>
      <trkpt lat="45.19637" lon="5.73968">
        <ele>214.19999694824</ele>
        <time>2026-08-12T12:57:37.000Z</time>
      </trkpt>
      <trkpt lat="45.19635" lon="5.73968">
        <ele>214</ele>
        <time>2026-08-12T12:57:38.000Z</time>
      </trkpt>
      <trkpt lat="45.19635" lon="5.73968">
        <ele>213.60000610352</ele>
        <time>2026-08-12T12:57:39.000Z</time>
      </trkpt>
      <trkpt lat="45.19634" lon="5.73967">
        <ele>213.19999694824</ele>
        <time>2026-08-12T12:57:40.000Z</time>
      </trkpt>
      <trkpt lat="45.19634" lon="5.73968">
        <ele>212.80000305176</ele>
        <time>2026-08-12T12:57:41.000Z</time>
      </trkpt>
      <trkpt lat="45.19634" lon="5.73968">
        <ele>212.39999389648</ele>
        <time>2026-08-12T12:57:42.000Z</time>
      </trkpt>
      <trkpt lat="45.19633" lon="5.73968">
        <ele>212.19999694824</ele>
        <time>2026-08-12T12:57:43.000Z</time>
      </trkpt>
      <trkpt lat="45.19633" lon="5.73967">
        <ele>212.19999694824</ele>
        <time>2026-08-12T12:57:44.000Z</time>
      </trkpt>
      <trkpt lat="45.19633" lon="5.73967">
        <ele>212</ele>
        <time>2026-08-12T12:57:45.000Z</time>
      </trkpt>
      <trkpt lat="45.19632" lon="5.73967">
        <ele>212</ele>
        <time>2026-08-12T12:57:46.000Z</time>
      </trkpt>
      <trkpt lat="45.19632" lon="5.73968">
        <ele>212</ele>
        <time>2026-08-12T12:57:47.000Z</time>
      </trkpt>
      <trkpt lat="45.19631" lon="5.73969">
        <ele>212.19999694824</ele>
        <time>2026-08-12T12:57:48.000Z</time>
      </trkpt>
      <trkpt lat="45.1963" lon="5.73969">
        <ele>212.19999694824</ele>
        <time>2026-08-12T12:57:49.000Z</time>
      </trkpt>
      <trkpt lat="45.19633" lon="5.73968">
        <ele>212.39999389648</ele>
        <time>2026-08-12T12:57:50.000Z</time>
      </trkpt>
      <trkpt lat="45.19634" lon="5.73968">
        <ele>212.39999389648</ele>
        <time>2026-08-12T12:57:51.000Z</time>
      </trkpt>
      <trkpt lat="45.19636" lon="5.73967">
        <ele>212.60000610352</ele>
        <time>2026-08-12T12:57:52.000Z</time>
      </trkpt>
      <trkpt lat="45.19638" lon="5.73966">
        <ele>212.60000610352</ele>
        <time>2026-08-12T12:57:53.000Z</time>
      </trkpt>
      <trkpt lat="45.19639" lon="5.73966">
        <ele>212.39999389648</ele>
        <time>2026-08-12T12:57:54.000Z</time>
      </trkpt>
      <trkpt lat="45.19641" lon="5.73965">
        <ele>212.39999389648</ele>
        <time>2026-08-12T12:57:55.000Z</time>
      </trkpt>
      <trkpt lat="45.19643" lon="5.73963">
        <ele>212.39999389648</ele>
        <time>2026-08-12T12:57:56.000Z</time>
      </trkpt>
      <trkpt lat="45.19645" lon="5.73962">
        <ele>212.39999389648</ele>
        <time>2026-08-12T12:57:57.000Z</time>
      </trkpt>
      <trkpt lat="45.19647" lon="5.73961">
        <ele>212.39999389648</ele>
        <time>2026-08-12T12:57:58.000Z</time>
      </trkpt>
      <trkpt lat="45.19649" lon="5.7396">
        <ele>212.39999389648</ele>
        <time>2026-08-12T12:57:59.000Z</time>
      </trkpt>
      <trkpt lat="45.19652" lon="5.73958">
        <ele>212.39999389648</ele>
        <time>2026-08-12T12:58:00.000Z</time>
      </trkpt>
      <trkpt lat="45.19654" lon="5.73957">
        <ele>212.39999389648</ele>
        <time>2026-08-12T12:58:01.000Z</time>
      </trkpt>
      <trkpt lat="45.19657" lon="5.73955">
        <ele>212.39999389648</ele>
        <time>2026-08-12T12:58:02.000Z</time>
      </trkpt>
      <trkpt lat="45.1966" lon="5.73953">
        <ele>212.60000610352</ele>
        <time>2026-08-12T12:58:03.000Z</time>
      </trkpt>
      <trkpt lat="45.19661" lon="5.73952">
        <ele>212.39999389648</ele>
        <time>2026-08-12T12:58:04.000Z</time>
      </trkpt>
      <trkpt lat="45.19662" lon="5.73951">
        <ele>212.39999389648</ele>
        <time>2026-08-12T12:58:05.000Z</time>
      </trkpt>
      <trkpt lat="45.19663" lon="5.73951">
        <ele>212.19999694824</ele>
        <time>2026-08-12T12:58:06.000Z</time>
      </trkpt>
      <trkpt lat="45.19664" lon="5.73949">
        <ele>212.19999694824</ele>
        <time>2026-08-12T12:58:07.000Z</time>
      </trkpt>
      <trkpt lat="45.19666" lon="5.73948">
        <ele>212.19999694824</ele>
        <time>2026-08-12T12:58:08.000Z</time>
      </trkpt>
      <trkpt lat="45.19668" lon="5.73944">
        <ele>212.39999389648</ele>
        <time>2026-08-12T12:58:09.000Z</time>
      </trkpt>
      <trkpt lat="45.19669" lon="5.73944">
        <ele>212.39999389648</ele>
        <time>2026-08-12T12:58:10.000Z</time>
      </trkpt>
      <trkpt lat="45.19671" lon="5.73943">
        <ele>212.60000610352</ele>
        <time>2026-08-12T12:58:11.000Z</time>
      </trkpt>
      <trkpt lat="45.19673" lon="5.73943">
        <ele>212.80000305176</ele>
        <time>2026-08-12T12:58:12.000Z</time>
      </trkpt>
      <trkpt lat="45.19674" lon="5.73944">
        <ele>212.80000305176</ele>
        <time>2026-08-12T12:58:13.000Z</time>
      </trkpt>
      <trkpt lat="45.19675" lon="5.73945">
        <ele>212.60000610352</ele>
        <time>2026-08-12T12:58:14.000Z</time>
      </trkpt>
      <trkpt lat="45.19676" lon="5.73947">
        <ele>212.60000610352</ele>
        <time>2026-08-12T12:58:15.000Z</time>
      </trkpt>
      <trkpt lat="45.19677" lon="5.7395">
        <ele>212.60000610352</ele>
        <time>2026-08-12T12:58:16.000Z</time>
      </trkpt>
      <trkpt lat="45.19678" lon="5.73952">
        <ele>212.60000610352</ele>
        <time>2026-08-12T12:58:17.000Z</time>
      </trkpt>
      <trkpt lat="45.19679" lon="5.73956">
        <ele>212.60000610352</ele>
        <time>2026-08-12T12:58:18.000Z</time>
      </trkpt>
      <trkpt lat="45.1968" lon="5.73959">
        <ele>212.60000610352</ele>
        <time>2026-08-12T12:58:19.000Z</time>
      </trkpt>
      <trkpt lat="45.1968" lon="5.73962">
        <ele>212.60000610352</ele>
        <time>2026-08-12T12:58:20.000Z</time>
      </trkpt>
      <trkpt lat="45.19681" lon="5.73966">
        <ele>212.60000610352</ele>
        <time>2026-08-12T12:58:21.000Z</time>
      </trkpt>
      <trkpt lat="45.19682" lon="5.73969">
        <ele>212.60000610352</ele>
        <time>2026-08-12T12:58:22.000Z</time>
      </trkpt>
      <trkpt lat="45.19682" lon="5.73973">
        <ele>212.60000610352</ele>
        <time>2026-08-12T12:58:23.000Z</time>
      </trkpt>
      <trkpt lat="45.19684" lon="5.73976">
        <ele>212.60000610352</ele>
        <time>2026-08-12T12:58:24.000Z</time>
      </trkpt>
      <trkpt lat="45.19685" lon="5.73979">
        <ele>212.39999389648</ele>
        <time>2026-08-12T12:58:25.000Z</time>
      </trkpt>
      <trkpt lat="45.19686" lon="5.73982">
        <ele>212.39999389648</ele>
        <time>2026-08-12T12:58:26.000Z</time>
      </trkpt>
      <trkpt lat="45.19687" lon="5.73985">
        <ele>212.39999389648</ele>
        <time>2026-08-12T12:58:27.000Z</time>
      </trkpt>
      <trkpt lat="45.19687" lon="5.73988">
        <ele>212.60000610352</ele>
        <time>2026-08-12T12:58:28.000Z</time>
      </trkpt>
      <trkpt lat="45.19687" lon="5.73992">
        <ele>212.39999389648</ele>
        <time>2026-08-12T12:58:29.000Z</time>
      </trkpt>
      <trkpt lat="45.19688" lon="5.73995">
        <ele>212.39999389648</ele>
        <time>2026-08-12T12:58:30.000Z</time>
      </trkpt>
      <trkpt lat="45.19689" lon="5.73998">
        <ele>212.19999694824</ele>
        <time>2026-08-12T12:58:31.000Z</time>
      </trkpt>
      <trkpt lat="45.19689" lon="5.74001">
        <ele>212.19999694824</ele>
        <time>2026-08-12T12:58:32.000Z</time>
      </trkpt>
      <trkpt lat="45.1969" lon="5.74005">
        <ele>212.19999694824</ele>
        <time>2026-08-12T12:58:33.000Z</time>
      </trkpt>
      <trkpt lat="45.19691" lon="5.74008">
        <ele>212.39999389648</ele>
        <time>2026-08-12T12:58:34.000Z</time>
      </trkpt>
      <trkpt lat="45.19691" lon="5.74011">
        <ele>212.39999389648</ele>
        <time>2026-08-12T12:58:35.000Z</time>
      </trkpt>
      <trkpt lat="45.19692" lon="5.74014">
        <ele>212.60000610352</ele>
        <time>2026-08-12T12:58:36.000Z</time>
      </trkpt>
      <trkpt lat="45.19693" lon="5.74017">
        <ele>212.60000610352</ele>
        <time>2026-08-12T12:58:37.000Z</time>
      </trkpt>
      <trkpt lat="45.19694" lon="5.7402">
        <ele>212.39999389648</ele>
        <time>2026-08-12T12:58:38.000Z</time>
      </trkpt>
      <trkpt lat="45.19695" lon="5.74023">
        <ele>212.39999389648</ele>
        <time>2026-08-12T12:58:39.000Z</time>
      </trkpt>
      <trkpt lat="45.19696" lon="5.74026">
        <ele>212.39999389648</ele>
        <time>2026-08-12T12:58:40.000Z</time>
      </trkpt>
      <trkpt lat="45.19697" lon="5.74029">
        <ele>212.60000610352</ele>
        <time>2026-08-12T12:58:41.000Z</time>
      </trkpt>
      <trkpt lat="45.19697" lon="5.74032">
        <ele>212.60000610352</ele>
        <time>2026-08-12T12:58:42.000Z</time>
      </trkpt>
      <trkpt lat="45.19698" lon="5.74035">
        <ele>212.60000610352</ele>
        <time>2026-08-12T12:58:43.000Z</time>
      </trkpt>
      <trkpt lat="45.19698" lon="5.74038">
        <ele>212.39999389648</ele>
        <time>2026-08-12T12:58:44.000Z</time>
      </trkpt>
      <trkpt lat="45.19699" lon="5.74042">
        <ele>212.60000610352</ele>
        <time>2026-08-12T12:58:45.000Z</time>
      </trkpt>
      <trkpt lat="45.19699" lon="5.74044">
        <ele>212.60000610352</ele>
        <time>2026-08-12T12:58:46.000Z</time>
      </trkpt>
      <trkpt lat="45.197" lon="5.74047">
        <ele>212.60000610352</ele>
        <time>2026-08-12T12:58:47.000Z</time>
      </trkpt>
      <trkpt lat="45.19701" lon="5.7405">
        <ele>212.60000610352</ele>
        <time>2026-08-12T12:58:48.000Z</time>
      </trkpt>
      <trkpt lat="45.19701" lon="5.74054">
        <ele>212.60000610352</ele>
        <time>2026-08-12T12:58:49.000Z</time>
      </trkpt>
      <trkpt lat="45.19702" lon="5.74057">
        <ele>212.39999389648</ele>
        <time>2026-08-12T12:58:50.000Z</time>
      </trkpt>
      <trkpt lat="45.19702" lon="5.7406">
        <ele>212.39999389648</ele>
        <time>2026-08-12T12:58:51.000Z</time>
      </trkpt>
      <trkpt lat="45.19704" lon="5.74064">
        <ele>212.39999389648</ele>
        <time>2026-08-12T12:58:52.000Z</time>
      </trkpt>
      <trkpt lat="45.19704" lon="5.74067">
        <ele>212.39999389648</ele>
        <time>2026-08-12T12:58:53.000Z</time>
      </trkpt>
      <trkpt lat="45.19705" lon="5.7407">
        <ele>212.60000610352</ele>
        <time>2026-08-12T12:58:54.000Z</time>
      </trkpt>
      <trkpt lat="45.19706" lon="5.74073">
        <ele>212.60000610352</ele>
        <time>2026-08-12T12:58:55.000Z</time>
      </trkpt>
      <trkpt lat="45.19707" lon="5.74076">
        <ele>212.60000610352</ele>
        <time>2026-08-12T12:58:56.000Z</time>
      </trkpt>
      <trkpt lat="45.19707" lon="5.74079">
        <ele>212.60000610352</ele>
        <time>2026-08-12T12:58:57.000Z</time>
      </trkpt>
      <trkpt lat="45.19708" lon="5.74082">
        <ele>212.60000610352</ele>
        <time>2026-08-12T12:58:58.000Z</time>
      </trkpt>
      <trkpt lat="45.19709" lon="5.74085">
        <ele>212.60000610352</ele>
        <time>2026-08-12T12:58:59.000Z</time>
      </trkpt>
      <trkpt lat="45.19709" lon="5.74087">
        <ele>212.39999389648</ele>
        <time>2026-08-12T12:59:00.000Z</time>
      </trkpt>
      <trkpt lat="45.1971" lon="5.7409">
        <ele>212.39999389648</ele>
        <time>2026-08-12T12:59:01.000Z</time>
      </trkpt>
      <trkpt lat="45.1971" lon="5.74093">
        <ele>212.39999389648</ele>
        <time>2026-08-12T12:59:02.000Z</time>
      </trkpt>
      <trkpt lat="45.19711" lon="5.74096">
        <ele>212.39999389648</ele>
        <time>2026-08-12T12:59:03.000Z</time>
      </trkpt>
      <trkpt lat="45.19711" lon="5.741">
        <ele>212.39999389648</ele>
        <time>2026-08-12T12:59:04.000Z</time>
      </trkpt>
      <trkpt lat="45.19712" lon="5.74103">
        <ele>212.39999389648</ele>
        <time>2026-08-12T12:59:05.000Z</time>
      </trkpt>
      <trkpt lat="45.19713" lon="5.74106">
        <ele>212.60000610352</ele>
        <time>2026-08-12T12:59:06.000Z</time>
      </trkpt>
      <trkpt lat="45.19714" lon="5.7411">
        <ele>212.60000610352</ele>
        <time>2026-08-12T12:59:07.000Z</time>
      </trkpt>
      <trkpt lat="45.19714" lon="5.74112">
        <ele>212.60000610352</ele>
        <time>2026-08-12T12:59:08.000Z</time>
      </trkpt>
      <trkpt lat="45.19715" lon="5.74116">
        <ele>212.60000610352</ele>
        <time>2026-08-12T12:59:09.000Z</time>
      </trkpt>
      <trkpt lat="45.19715" lon="5.74119">
        <ele>212.60000610352</ele>
        <time>2026-08-12T12:59:10.000Z</time>
      </trkpt>
      <trkpt lat="45.19716" lon="5.74122">
        <ele>212.60000610352</ele>
        <time>2026-08-12T12:59:11.000Z</time>
      </trkpt>
      <trkpt lat="45.19716" lon="5.74125">
        <ele>212.39999389648</ele>
        <time>2026-08-12T12:59:12.000Z</time>
      </trkpt>
      <trkpt lat="45.19717" lon="5.74128">
        <ele>212.39999389648</ele>
        <time>2026-08-12T12:59:13.000Z</time>
      </trkpt>
      <trkpt lat="45.19718" lon="5.74131">
        <ele>212.39999389648</ele>
        <time>2026-08-12T12:59:14.000Z</time>
      </trkpt>
      <trkpt lat="45.19719" lon="5.74134">
        <ele>212.39999389648</ele>
        <time>2026-08-12T12:59:15.000Z</time>
      </trkpt>
      <trkpt lat="45.19719" lon="5.74138">
        <ele>212.19999694824</ele>
        <time>2026-08-12T12:59:16.000Z</time>
      </trkpt>
      <trkpt lat="45.1972" lon="5.74141">
        <ele>212.19999694824</ele>
        <time>2026-08-12T12:59:17.000Z</time>
      </trkpt>
      <trkpt lat="45.19721" lon="5.74144">
        <ele>212.39999389648</ele>
        <time>2026-08-12T12:59:18.000Z</time>
      </trkpt>
      <trkpt lat="45.19722" lon="5.74147">
        <ele>212.39999389648</ele>
        <time>2026-08-12T12:59:19.000Z</time>
      </trkpt>
      <trkpt lat="45.19722" lon="5.7415">
        <ele>212.39999389648</ele>
        <time>2026-08-12T12:59:20.000Z</time>
      </trkpt>
      <trkpt lat="45.19722" lon="5.74153">
        <ele>212.39999389648</ele>
        <time>2026-08-12T12:59:21.000Z</time>
      </trkpt>
      <trkpt lat="45.19722" lon="5.74156">
        <ele>212.39999389648</ele>
        <time>2026-08-12T12:59:22.000Z</time>
      </trkpt>
      <trkpt lat="45.19723" lon="5.74159">
        <ele>212.39999389648</ele>
        <time>2026-08-12T12:59:23.000Z</time>
      </trkpt>
      <trkpt lat="45.19723" lon="5.74162">
        <ele>212.39999389648</ele>
        <time>2026-08-12T12:59:24.000Z</time>
      </trkpt>
      <trkpt lat="45.19724" lon="5.74165">
        <ele>212.39999389648</ele>
        <time>2026-08-12T12:59:25.000Z</time>
      </trkpt>
      <trkpt lat="45.19724" lon="5.74169">
        <ele>212.39999389648</ele>
        <time>2026-08-12T12:59:26.000Z</time>
      </trkpt>
      <trkpt lat="45.19725" lon="5.74172">
        <ele>212.39999389648</ele>
        <time>2026-08-12T12:59:27.000Z</time>
      </trkpt>
      <trkpt lat="45.19725" lon="5.74175">
        <ele>212.39999389648</ele>
        <time>2026-08-12T12:59:28.000Z</time>
      </trkpt>
      <trkpt lat="45.19726" lon="5.74178">
        <ele>212.39999389648</ele>
        <time>2026-08-12T12:59:29.000Z</time>
      </trkpt>
      <trkpt lat="45.19727" lon="5.74182">
        <ele>212.39999389648</ele>
        <time>2026-08-12T12:59:30.000Z</time>
      </trkpt>
      <trkpt lat="45.19727" lon="5.74185">
        <ele>212.39999389648</ele>
        <time>2026-08-12T12:59:31.000Z</time>
      </trkpt>
      <trkpt lat="45.19728" lon="5.74187">
        <ele>212.39999389648</ele>
        <time>2026-08-12T12:59:32.000Z</time>
      </trkpt>
      <trkpt lat="45.19729" lon="5.7419">
        <ele>212.19999694824</ele>
        <time>2026-08-12T12:59:33.000Z</time>
      </trkpt>
      <trkpt lat="45.19729" lon="5.74193">
        <ele>212.19999694824</ele>
        <time>2026-08-12T12:59:34.000Z</time>
      </trkpt>
      <trkpt lat="45.1973" lon="5.74197">
        <ele>212.19999694824</ele>
        <time>2026-08-12T12:59:35.000Z</time>
      </trkpt>
      <trkpt lat="45.1973" lon="5.742">
        <ele>212.19999694824</ele>
        <time>2026-08-12T12:59:36.000Z</time>
      </trkpt>
      <trkpt lat="45.19731" lon="5.74203">
        <ele>212.19999694824</ele>
        <time>2026-08-12T12:59:37.000Z</time>
      </trkpt>
      <trkpt lat="45.19731" lon="5.74206">
        <ele>212.39999389648</ele>
        <time>2026-08-12T12:59:38.000Z</time>
      </trkpt>
      <trkpt lat="45.19732" lon="5.74209">
        <ele>212.39999389648</ele>
        <time>2026-08-12T12:59:39.000Z</time>
      </trkpt>
      <trkpt lat="45.19732" lon="5.74212">
        <ele>212.19999694824</ele>
        <time>2026-08-12T12:59:40.000Z</time>
      </trkpt>
      <trkpt lat="45.19733" lon="5.74216">
        <ele>212.19999694824</ele>
        <time>2026-08-12T12:59:41.000Z</time>
      </trkpt>
      <trkpt lat="45.19734" lon="5.7422">
        <ele>212.39999389648</ele>
        <time>2026-08-12T12:59:42.000Z</time>
      </trkpt>
      <trkpt lat="45.19734" lon="5.74223">
        <ele>212.39999389648</ele>
        <time>2026-08-12T12:59:43.000Z</time>
      </trkpt>
      <trkpt lat="45.19735" lon="5.74227">
        <ele>212.39999389648</ele>
        <time>2026-08-12T12:59:44.000Z</time>
      </trkpt>
      <trkpt lat="45.19735" lon="5.74231">
        <ele>212.39999389648</ele>
        <time>2026-08-12T12:59:45.000Z</time>
      </trkpt>
      <trkpt lat="45.19735" lon="5.74234">
        <ele>212.39999389648</ele>
        <time>2026-08-12T12:59:46.000Z</time>
      </trkpt>
      <trkpt lat="45.19734" lon="5.74238">
        <ele>212.39999389648</ele>
        <time>2026-08-12T12:59:47.000Z</time>
      </trkpt>
      <trkpt lat="45.19734" lon="5.74242">
        <ele>212.39999389648</ele>
        <time>2026-08-12T12:59:48.000Z</time>
      </trkpt>
      <trkpt lat="45.19733" lon="5.74244">
        <ele>212.39999389648</ele>
        <time>2026-08-12T12:59:49.000Z</time>
      </trkpt>
      <trkpt lat="45.19733" lon="5.74245">
        <ele>212.60000610352</ele>
        <time>2026-08-12T12:59:50.000Z</time>
      </trkpt>
      <trkpt lat="45.19733" lon="5.74245">
        <ele>213</ele>
        <time>2026-08-12T12:59:51.000Z</time>
      </trkpt>
      <trkpt lat="45.19735" lon="5.74246">
        <ele>213.39999389648</ele>
        <time>2026-08-12T12:59:52.000Z</time>
      </trkpt>
      <trkpt lat="45.19736" lon="5.74246">
        <ele>213.60000610352</ele>
        <time>2026-08-12T12:59:53.000Z</time>
      </trkpt>
      <trkpt lat="45.19738" lon="5.74246">
        <ele>214</ele>
        <time>2026-08-12T12:59:54.000Z</time>
      </trkpt>
      <trkpt lat="45.1974" lon="5.74245">
        <ele>214.19999694824</ele>
        <time>2026-08-12T12:59:55.000Z</time>
      </trkpt>
      <trkpt lat="45.19742" lon="5.74244">
        <ele>214.19999694824</ele>
        <time>2026-08-12T12:59:56.000Z</time>
      </trkpt>
      <trkpt lat="45.19745" lon="5.74244">
        <ele>214.39999389648</ele>
        <time>2026-08-12T12:59:57.000Z</time>
      </trkpt>
      <trkpt lat="45.19747" lon="5.74243">
        <ele>214.19999694824</ele>
        <time>2026-08-12T12:59:58.000Z</time>
      </trkpt>
      <trkpt lat="45.1975" lon="5.74243">
        <ele>214.19999694824</ele>
        <time>2026-08-12T12:59:59.000Z</time>
      </trkpt>
      <trkpt lat="45.19752" lon="5.74242">
        <ele>214.19999694824</ele>
        <time>2026-08-12T13:00:00.000Z</time>
      </trkpt>
      <trkpt lat="45.19755" lon="5.74242">
        <ele>214.19999694824</ele>
        <time>2026-08-12T13:00:01.000Z</time>
      </trkpt>
      <trkpt lat="45.19757" lon="5.74242">
        <ele>214.19999694824</ele>
        <time>2026-08-12T13:00:02.000Z</time>
      </trkpt>
      <trkpt lat="45.1976" lon="5.74241">
        <ele>214.19999694824</ele>
        <time>2026-08-12T13:00:03.000Z</time>
      </trkpt>
      <trkpt lat="45.19762" lon="5.74241">
        <ele>214.19999694824</ele>
        <time>2026-08-12T13:00:04.000Z</time>
      </trkpt>
      <trkpt lat="45.19764" lon="5.74241">
        <ele>214</ele>
        <time>2026-08-12T13:00:05.000Z</time>
      </trkpt>
      <trkpt lat="45.19767" lon="5.7424">
        <ele>214</ele>
        <time>2026-08-12T13:00:06.000Z</time>
      </trkpt>
      <trkpt lat="45.19769" lon="5.74241">
        <ele>214</ele>
        <time>2026-08-12T13:00:07.000Z</time>
      </trkpt>
      <trkpt lat="45.19772" lon="5.74241">
        <ele>214</ele>
        <time>2026-08-12T13:00:08.000Z</time>
      </trkpt>
      <trkpt lat="45.19774" lon="5.7424">
        <ele>214</ele>
        <time>2026-08-12T13:00:09.000Z</time>
      </trkpt>
      <trkpt lat="45.19776" lon="5.7424">
        <ele>214</ele>
        <time>2026-08-12T13:00:10.000Z</time>
      </trkpt>
      <trkpt lat="45.19779" lon="5.74239">
        <ele>214</ele>
        <time>2026-08-12T13:00:11.000Z</time>
      </trkpt>
      <trkpt lat="45.19781" lon="5.74238">
        <ele>214</ele>
        <time>2026-08-12T13:00:12.000Z</time>
      </trkpt>
      <trkpt lat="45.19784" lon="5.74238">
        <ele>214</ele>
        <time>2026-08-12T13:00:13.000Z</time>
      </trkpt>
      <trkpt lat="45.19786" lon="5.74237">
        <ele>214.19999694824</ele>
        <time>2026-08-12T13:00:14.000Z</time>
      </trkpt>
      <trkpt lat="45.19788" lon="5.74237">
        <ele>214.19999694824</ele>
        <time>2026-08-12T13:00:15.000Z</time>
      </trkpt>
      <trkpt lat="45.1979" lon="5.74236">
        <ele>214</ele>
        <time>2026-08-12T13:00:16.000Z</time>
      </trkpt>
      <trkpt lat="45.19792" lon="5.74235">
        <ele>214</ele>
        <time>2026-08-12T13:00:17.000Z</time>
      </trkpt>
      <trkpt lat="45.19795" lon="5.74234">
        <ele>214</ele>
        <time>2026-08-12T13:00:18.000Z</time>
      </trkpt>
      <trkpt lat="45.19796" lon="5.74233">
        <ele>214</ele>
        <time>2026-08-12T13:00:19.000Z</time>
      </trkpt>
      <trkpt lat="45.19799" lon="5.74232">
        <ele>214</ele>
        <time>2026-08-12T13:00:20.000Z</time>
      </trkpt>
      <trkpt lat="45.198" lon="5.74231">
        <ele>214</ele>
        <time>2026-08-12T13:00:21.000Z</time>
      </trkpt>
      <trkpt lat="45.19802" lon="5.74229">
        <ele>213.80000305176</ele>
        <time>2026-08-12T13:00:22.000Z</time>
      </trkpt>
      <trkpt lat="45.19804" lon="5.74228">
        <ele>213.80000305176</ele>
        <time>2026-08-12T13:00:23.000Z</time>
      </trkpt>
      <trkpt lat="45.19806" lon="5.74227">
        <ele>213.80000305176</ele>
        <time>2026-08-12T13:00:24.000Z</time>
      </trkpt>
      <trkpt lat="45.19809" lon="5.74226">
        <ele>213.80000305176</ele>
        <time>2026-08-12T13:00:25.000Z</time>
      </trkpt>
      <trkpt lat="45.19811" lon="5.74225">
        <ele>213.80000305176</ele>
        <time>2026-08-12T13:00:26.000Z</time>
      </trkpt>
      <trkpt lat="45.19814" lon="5.74223">
        <ele>213.80000305176</ele>
        <time>2026-08-12T13:00:27.000Z</time>
      </trkpt>
      <trkpt lat="45.19816" lon="5.74223">
        <ele>213.80000305176</ele>
        <time>2026-08-12T13:00:28.000Z</time>
      </trkpt>
      <trkpt lat="45.19819" lon="5.74222">
        <ele>213.80000305176</ele>
        <time>2026-08-12T13:00:29.000Z</time>
      </trkpt>
      <trkpt lat="45.19821" lon="5.74221">
        <ele>213.80000305176</ele>
        <time>2026-08-12T13:00:30.000Z</time>
      </trkpt>
      <trkpt lat="45.19823" lon="5.7422">
        <ele>213.80000305176</ele>
        <time>2026-08-12T13:00:31.000Z</time>
      </trkpt>
      <trkpt lat="45.19826" lon="5.74219">
        <ele>214</ele>
        <time>2026-08-12T13:00:32.000Z</time>
      </trkpt>
      <trkpt lat="45.19828" lon="5.74218">
        <ele>213.80000305176</ele>
        <time>2026-08-12T13:00:33.000Z</time>
      </trkpt>
      <trkpt lat="45.1983" lon="5.74217">
        <ele>213.80000305176</ele>
        <time>2026-08-12T13:00:34.000Z</time>
      </trkpt>
      <trkpt lat="45.19832" lon="5.74217">
        <ele>214</ele>
        <time>2026-08-12T13:00:35.000Z</time>
      </trkpt>
      <trkpt lat="45.19834" lon="5.74216">
        <ele>214</ele>
        <time>2026-08-12T13:00:36.000Z</time>
      </trkpt>
      <trkpt lat="45.19837" lon="5.74215">
        <ele>213.80000305176</ele>
        <time>2026-08-12T13:00:37.000Z</time>
      </trkpt>
      <trkpt lat="45.19839" lon="5.74215">
        <ele>214</ele>
        <time>2026-08-12T13:00:38.000Z</time>
      </trkpt>
      <trkpt lat="45.19842" lon="5.74214">
        <ele>213.80000305176</ele>
        <time>2026-08-12T13:00:39.000Z</time>
      </trkpt>
      <trkpt lat="45.19844" lon="5.74213">
        <ele>213.80000305176</ele>
        <time>2026-08-12T13:00:40.000Z</time>
      </trkpt>
      <trkpt lat="45.19847" lon="5.74212">
        <ele>213.80000305176</ele>
        <time>2026-08-12T13:00:41.000Z</time>
      </trkpt>
      <trkpt lat="45.19849" lon="5.74212">
        <ele>213.80000305176</ele>
        <time>2026-08-12T13:00:42.000Z</time>
      </trkpt>
      <trkpt lat="45.19852" lon="5.74211">
        <ele>214</ele>
        <time>2026-08-12T13:00:43.000Z</time>
      </trkpt>
      <trkpt lat="45.19855" lon="5.7421">
        <ele>214</ele>
        <time>2026-08-12T13:00:44.000Z</time>
      </trkpt>
      <trkpt lat="45.19857" lon="5.74209">
        <ele>214</ele>
        <time>2026-08-12T13:00:45.000Z</time>
      </trkpt>
      <trkpt lat="45.1986" lon="5.74208">
        <ele>214</ele>
        <time>2026-08-12T13:00:46.000Z</time>
      </trkpt>
      <trkpt lat="45.19863" lon="5.74207">
        <ele>214</ele>
        <time>2026-08-12T13:00:47.000Z</time>
      </trkpt>
      <trkpt lat="45.19866" lon="5.74206">
        <ele>214</ele>
        <time>2026-08-12T13:00:48.000Z</time>
      </trkpt>
      <trkpt lat="45.19868" lon="5.74206">
        <ele>214</ele>
        <time>2026-08-12T13:00:49.000Z</time>
      </trkpt>
      <trkpt lat="45.19871" lon="5.74205">
        <ele>214</ele>
        <time>2026-08-12T13:00:50.000Z</time>
      </trkpt>
      <trkpt lat="45.19873" lon="5.74204">
        <ele>214</ele>
        <time>2026-08-12T13:00:51.000Z</time>
      </trkpt>
      <trkpt lat="45.19876" lon="5.74204">
        <ele>214.19999694824</ele>
        <time>2026-08-12T13:00:52.000Z</time>
      </trkpt>
      <trkpt lat="45.19878" lon="5.74203">
        <ele>214</ele>
        <time>2026-08-12T13:00:53.000Z</time>
      </trkpt>
      <trkpt lat="45.19881" lon="5.74202">
        <ele>214</ele>
        <time>2026-08-12T13:00:54.000Z</time>
      </trkpt>
      <trkpt lat="45.19883" lon="5.74201">
        <ele>214</ele>
        <time>2026-08-12T13:00:55.000Z</time>
      </trkpt>
      <trkpt lat="45.19885" lon="5.742">
        <ele>214</ele>
        <time>2026-08-12T13:00:56.000Z</time>
      </trkpt>
      <trkpt lat="45.19888" lon="5.74199">
        <ele>213.80000305176</ele>
        <time>2026-08-12T13:00:57.000Z</time>
      </trkpt>
      <trkpt lat="45.1989" lon="5.74197">
        <ele>213.80000305176</ele>
        <time>2026-08-12T13:00:58.000Z</time>
      </trkpt>
      <trkpt lat="45.19893" lon="5.74196">
        <ele>213.80000305176</ele>
        <time>2026-08-12T13:00:59.000Z</time>
      </trkpt>
      <trkpt lat="45.19895" lon="5.74195">
        <ele>213.80000305176</ele>
        <time>2026-08-12T13:01:00.000Z</time>
      </trkpt>
      <trkpt lat="45.19897" lon="5.74194">
        <ele>213.80000305176</ele>
        <time>2026-08-12T13:01:01.000Z</time>
      </trkpt>
      <trkpt lat="45.199" lon="5.74192">
        <ele>213.80000305176</ele>
        <time>2026-08-12T13:01:02.000Z</time>
      </trkpt>
      <trkpt lat="45.19902" lon="5.74191">
        <ele>213.80000305176</ele>
        <time>2026-08-12T13:01:03.000Z</time>
      </trkpt>
      <trkpt lat="45.19904" lon="5.7419">
        <ele>213.80000305176</ele>
        <time>2026-08-12T13:01:04.000Z</time>
      </trkpt>
      <trkpt lat="45.19907" lon="5.74189">
        <ele>213.80000305176</ele>
        <time>2026-08-12T13:01:05.000Z</time>
      </trkpt>
      <trkpt lat="45.19909" lon="5.74188">
        <ele>213.80000305176</ele>
        <time>2026-08-12T13:01:06.000Z</time>
      </trkpt>
      <trkpt lat="45.19912" lon="5.74187">
        <ele>213.80000305176</ele>
        <time>2026-08-12T13:01:07.000Z</time>
      </trkpt>
      <trkpt lat="45.19914" lon="5.74186">
        <ele>213.80000305176</ele>
        <time>2026-08-12T13:01:08.000Z</time>
      </trkpt>
      <trkpt lat="45.19916" lon="5.74184">
        <ele>213.80000305176</ele>
        <time>2026-08-12T13:01:09.000Z</time>
      </trkpt>
      <trkpt lat="45.19919" lon="5.74183">
        <ele>213.80000305176</ele>
        <time>2026-08-12T13:01:10.000Z</time>
      </trkpt>
      <trkpt lat="45.19921" lon="5.74181">
        <ele>213.80000305176</ele>
        <time>2026-08-12T13:01:11.000Z</time>
      </trkpt>
      <trkpt lat="45.19923" lon="5.7418">
        <ele>213.80000305176</ele>
        <time>2026-08-12T13:01:12.000Z</time>
      </trkpt>
      <trkpt lat="45.19925" lon="5.74178">
        <ele>213.80000305176</ele>
        <time>2026-08-12T13:01:13.000Z</time>
      </trkpt>
      <trkpt lat="45.19928" lon="5.74177">
        <ele>213.80000305176</ele>
        <time>2026-08-12T13:01:14.000Z</time>
      </trkpt>
      <trkpt lat="45.1993" lon="5.74175">
        <ele>213.80000305176</ele>
        <time>2026-08-12T13:01:15.000Z</time>
      </trkpt>
      <trkpt lat="45.19933" lon="5.74174">
        <ele>213.80000305176</ele>
        <time>2026-08-12T13:01:16.000Z</time>
      </trkpt>
      <trkpt lat="45.19935" lon="5.74173">
        <ele>213.80000305176</ele>
        <time>2026-08-12T13:01:17.000Z</time>
      </trkpt>
      <trkpt lat="45.19937" lon="5.74171">
        <ele>213.80000305176</ele>
        <time>2026-08-12T13:01:18.000Z</time>
      </trkpt>
      <trkpt lat="45.19939" lon="5.74169">
        <ele>213.80000305176</ele>
        <time>2026-08-12T13:01:19.000Z</time>
      </trkpt>
      <trkpt lat="45.19941" lon="5.74168">
        <ele>213.80000305176</ele>
        <time>2026-08-12T13:01:20.000Z</time>
      </trkpt>
      <trkpt lat="45.19944" lon="5.74166">
        <ele>213.80000305176</ele>
        <time>2026-08-12T13:01:21.000Z</time>
      </trkpt>
      <trkpt lat="45.19946" lon="5.74165">
        <ele>213.80000305176</ele>
        <time>2026-08-12T13:01:22.000Z</time>
      </trkpt>
      <trkpt lat="45.19949" lon="5.74163">
        <ele>213.80000305176</ele>
        <time>2026-08-12T13:01:23.000Z</time>
      </trkpt>
      <trkpt lat="45.19951" lon="5.74162">
        <ele>213.80000305176</ele>
        <time>2026-08-12T13:01:24.000Z</time>
      </trkpt>
      <trkpt lat="45.19954" lon="5.7416">
        <ele>213.60000610352</ele>
        <time>2026-08-12T13:01:25.000Z</time>
      </trkpt>
      <trkpt lat="45.19956" lon="5.74158">
        <ele>213.39999389648</ele>
        <time>2026-08-12T13:01:26.000Z</time>
      </trkpt>
      <trkpt lat="45.19958" lon="5.74155">
        <ele>213.19999694824</ele>
        <time>2026-08-12T13:01:27.000Z</time>
      </trkpt>
      <trkpt lat="45.1996" lon="5.74153">
        <ele>213.19999694824</ele>
        <time>2026-08-12T13:01:28.000Z</time>
      </trkpt>
      <trkpt lat="45.19963" lon="5.74151">
        <ele>213.39999389648</ele>
        <time>2026-08-12T13:01:29.000Z</time>
      </trkpt>
      <trkpt lat="45.19965" lon="5.74149">
        <ele>213.60000610352</ele>
        <time>2026-08-12T13:01:30.000Z</time>
      </trkpt>
      <trkpt lat="45.19967" lon="5.74148">
        <ele>213.60000610352</ele>
        <time>2026-08-12T13:01:31.000Z</time>
      </trkpt>
      <trkpt lat="45.19969" lon="5.74145">
        <ele>213.80000305176</ele>
        <time>2026-08-12T13:01:32.000Z</time>
      </trkpt>
      <trkpt lat="45.19971" lon="5.74144">
        <ele>213.60000610352</ele>
        <time>2026-08-12T13:01:33.000Z</time>
      </trkpt>
      <trkpt lat="45.19973" lon="5.7414">
        <ele>213.60000610352</ele>
        <time>2026-08-12T13:01:34.000Z</time>
      </trkpt>
      <trkpt lat="45.19974" lon="5.74138">
        <ele>213.60000610352</ele>
        <time>2026-08-12T13:01:35.000Z</time>
      </trkpt>
      <trkpt lat="45.19976" lon="5.74135">
        <ele>213.60000610352</ele>
        <time>2026-08-12T13:01:36.000Z</time>
      </trkpt>
      <trkpt lat="45.19977" lon="5.74133">
        <ele>213.60000610352</ele>
        <time>2026-08-12T13:01:37.000Z</time>
      </trkpt>
      <trkpt lat="45.19979" lon="5.7413">
        <ele>213.60000610352</ele>
        <time>2026-08-12T13:01:38.000Z</time>
      </trkpt>
      <trkpt lat="45.19981" lon="5.74127">
        <ele>213.80000305176</ele>
        <time>2026-08-12T13:01:39.000Z</time>
      </trkpt>
      <trkpt lat="45.19982" lon="5.74124">
        <ele>214</ele>
        <time>2026-08-12T13:01:40.000Z</time>
      </trkpt>
      <trkpt lat="45.19984" lon="5.74121">
        <ele>214.19999694824</ele>
        <time>2026-08-12T13:01:41.000Z</time>
      </trkpt>
      <trkpt lat="45.19986" lon="5.74118">
        <ele>214.19999694824</ele>
        <time>2026-08-12T13:01:42.000Z</time>
      </trkpt>
      <trkpt lat="45.19987" lon="5.74116">
        <ele>214.60000610352</ele>
        <time>2026-08-12T13:01:43.000Z</time>
      </trkpt>
      <trkpt lat="45.19989" lon="5.74113">
        <ele>214.80000305176</ele>
        <time>2026-08-12T13:01:44.000Z</time>
      </trkpt>
      <trkpt lat="45.19991" lon="5.7411">
        <ele>215</ele>
        <time>2026-08-12T13:01:45.000Z</time>
      </trkpt>
      <trkpt lat="45.19993" lon="5.74108">
        <ele>215</ele>
        <time>2026-08-12T13:01:46.000Z</time>
      </trkpt>
      <trkpt lat="45.19994" lon="5.74105">
        <ele>215.19999694824</ele>
        <time>2026-08-12T13:01:47.000Z</time>
      </trkpt>
      <trkpt lat="45.19995" lon="5.74103">
        <ele>215.19999694824</ele>
        <time>2026-08-12T13:01:48.000Z</time>
      </trkpt>
      <trkpt lat="45.19997" lon="5.741">
        <ele>215.39999389648</ele>
        <time>2026-08-12T13:01:49.000Z</time>
      </trkpt>
      <trkpt lat="45.19999" lon="5.74098">
        <ele>215.60000610352</ele>
        <time>2026-08-12T13:01:50.000Z</time>
      </trkpt>
      <trkpt lat="45.2" lon="5.74095">
        <ele>215.80000305176</ele>
        <time>2026-08-12T13:01:51.000Z</time>
      </trkpt>
      <trkpt lat="45.20002" lon="5.74092">
        <ele>216.19999694824</ele>
        <time>2026-08-12T13:01:52.000Z</time>
      </trkpt>
      <trkpt lat="45.20004" lon="5.7409">
        <ele>216.39999389648</ele>
        <time>2026-08-12T13:01:53.000Z</time>
      </trkpt>
      <trkpt lat="45.20006" lon="5.74087">
        <ele>216.39999389648</ele>
        <time>2026-08-12T13:01:54.000Z</time>
      </trkpt>
      <trkpt lat="45.20007" lon="5.74084">
        <ele>216.60000610352</ele>
        <time>2026-08-12T13:01:55.000Z</time>
      </trkpt>
      <trkpt lat="45.20009" lon="5.74082">
        <ele>216.80000305176</ele>
        <time>2026-08-12T13:01:56.000Z</time>
      </trkpt>
      <trkpt lat="45.20011" lon="5.7408">
        <ele>217</ele>
        <time>2026-08-12T13:01:57.000Z</time>
      </trkpt>
      <trkpt lat="45.20014" lon="5.74078">
        <ele>217.19999694824</ele>
        <time>2026-08-12T13:01:58.000Z</time>
      </trkpt>
      <trkpt lat="45.20015" lon="5.74075">
        <ele>217.19999694824</ele>
        <time>2026-08-12T13:01:59.000Z</time>
      </trkpt>
      <trkpt lat="45.20017" lon="5.74072">
        <ele>217.39999389648</ele>
        <time>2026-08-12T13:02:00.000Z</time>
      </trkpt>
      <trkpt lat="45.20019" lon="5.74069">
        <ele>217.39999389648</ele>
        <time>2026-08-12T13:02:01.000Z</time>
      </trkpt>
      <trkpt lat="45.2002" lon="5.74067">
        <ele>217.39999389648</ele>
        <time>2026-08-12T13:02:02.000Z</time>
      </trkpt>
      <trkpt lat="45.20022" lon="5.74064">
        <ele>217.39999389648</ele>
        <time>2026-08-12T13:02:03.000Z</time>
      </trkpt>
      <trkpt lat="45.20024" lon="5.74062">
        <ele>217.39999389648</ele>
        <time>2026-08-12T13:02:04.000Z</time>
      </trkpt>
      <trkpt lat="45.20024" lon="5.74062">
        <ele>217.19999694824</ele>
        <time>2026-08-12T13:02:05.000Z</time>
      </trkpt>
      <trkpt lat="45.20026" lon="5.7406">
        <ele>217.19999694824</ele>
        <time>2026-08-12T13:02:06.000Z</time>
      </trkpt>
      <trkpt lat="45.20028" lon="5.74059">
        <ele>217.19999694824</ele>
        <time>2026-08-12T13:02:07.000Z</time>
      </trkpt>
      <trkpt lat="45.2003" lon="5.74059">
        <ele>217.19999694824</ele>
        <time>2026-08-12T13:02:08.000Z</time>
      </trkpt>
      <trkpt lat="45.20032" lon="5.7406">
        <ele>217.19999694824</ele>
        <time>2026-08-12T13:02:09.000Z</time>
      </trkpt>
      <trkpt lat="45.20034" lon="5.74062">
        <ele>217.19999694824</ele>
        <time>2026-08-12T13:02:10.000Z</time>
      </trkpt>
      <trkpt lat="45.20037" lon="5.74064">
        <ele>217.19999694824</ele>
        <time>2026-08-12T13:02:11.000Z</time>
      </trkpt>
      <trkpt lat="45.20039" lon="5.74066">
        <ele>217.39999389648</ele>
        <time>2026-08-12T13:02:12.000Z</time>
      </trkpt>
      <trkpt lat="45.20041" lon="5.74068">
        <ele>217.39999389648</ele>
        <time>2026-08-12T13:02:13.000Z</time>
      </trkpt>
      <trkpt lat="45.20043" lon="5.74071">
        <ele>217.60000610352</ele>
        <time>2026-08-12T13:02:14.000Z</time>
      </trkpt>
      <trkpt lat="45.20045" lon="5.74074">
        <ele>217.60000610352</ele>
        <time>2026-08-12T13:02:15.000Z</time>
      </trkpt>
      <trkpt lat="45.20047" lon="5.74077">
        <ele>217.60000610352</ele>
        <time>2026-08-12T13:02:16.000Z</time>
      </trkpt>
      <trkpt lat="45.20049" lon="5.74079">
        <ele>217.60000610352</ele>
        <time>2026-08-12T13:02:17.000Z</time>
      </trkpt>
      <trkpt lat="45.20051" lon="5.74082">
        <ele>217.60000610352</ele>
        <time>2026-08-12T13:02:18.000Z</time>
      </trkpt>
      <trkpt lat="45.20053" lon="5.74085">
        <ele>217.60000610352</ele>
        <time>2026-08-12T13:02:19.000Z</time>
      </trkpt>
      <trkpt lat="45.20055" lon="5.74087">
        <ele>217.80000305176</ele>
        <time>2026-08-12T13:02:20.000Z</time>
      </trkpt>
      <trkpt lat="45.20056" lon="5.7409">
        <ele>217.80000305176</ele>
        <time>2026-08-12T13:02:21.000Z</time>
      </trkpt>
      <trkpt lat="45.20059" lon="5.74092">
        <ele>217.80000305176</ele>
        <time>2026-08-12T13:02:22.000Z</time>
      </trkpt>
      <trkpt lat="45.2006" lon="5.74095">
        <ele>217.60000610352</ele>
        <time>2026-08-12T13:02:23.000Z</time>
      </trkpt>
      <trkpt lat="45.20062" lon="5.74098">
        <ele>217.60000610352</ele>
        <time>2026-08-12T13:02:24.000Z</time>
      </trkpt>
      <trkpt lat="45.20064" lon="5.741">
        <ele>217.60000610352</ele>
        <time>2026-08-12T13:02:25.000Z</time>
      </trkpt>
      <trkpt lat="45.20066" lon="5.74103">
        <ele>217.60000610352</ele>
        <time>2026-08-12T13:02:26.000Z</time>
      </trkpt>
      <trkpt lat="45.20069" lon="5.74106">
        <ele>217.80000305176</ele>
        <time>2026-08-12T13:02:27.000Z</time>
      </trkpt>
      <trkpt lat="45.2007" lon="5.74108">
        <ele>217.80000305176</ele>
        <time>2026-08-12T13:02:28.000Z</time>
      </trkpt>
      <trkpt lat="45.20072" lon="5.74111">
        <ele>217.80000305176</ele>
        <time>2026-08-12T13:02:29.000Z</time>
      </trkpt>
      <trkpt lat="45.20074" lon="5.74114">
        <ele>217.80000305176</ele>
        <time>2026-08-12T13:02:30.000Z</time>
      </trkpt>
      <trkpt lat="45.20076" lon="5.74116">
        <ele>217.80000305176</ele>
        <time>2026-08-12T13:02:31.000Z</time>
      </trkpt>
      <trkpt lat="45.20078" lon="5.74119">
        <ele>217.80000305176</ele>
        <time>2026-08-12T13:02:32.000Z</time>
      </trkpt>
      <trkpt lat="45.2008" lon="5.74121">
        <ele>218</ele>
        <time>2026-08-12T13:02:33.000Z</time>
      </trkpt>
      <trkpt lat="45.20081" lon="5.74124">
        <ele>218</ele>
        <time>2026-08-12T13:02:34.000Z</time>
      </trkpt>
      <trkpt lat="45.20083" lon="5.74126">
        <ele>218</ele>
        <time>2026-08-12T13:02:35.000Z</time>
      </trkpt>
      <trkpt lat="45.20085" lon="5.74129">
        <ele>218</ele>
        <time>2026-08-12T13:02:36.000Z</time>
      </trkpt>
      <trkpt lat="45.20087" lon="5.74131">
        <ele>218.19999694824</ele>
        <time>2026-08-12T13:02:37.000Z</time>
      </trkpt>
      <trkpt lat="45.20089" lon="5.74134">
        <ele>218</ele>
        <time>2026-08-12T13:02:38.000Z</time>
      </trkpt>
      <trkpt lat="45.20091" lon="5.74136">
        <ele>218</ele>
        <time>2026-08-12T13:02:39.000Z</time>
      </trkpt>
      <trkpt lat="45.20092" lon="5.74138">
        <ele>218</ele>
        <time>2026-08-12T13:02:40.000Z</time>
      </trkpt>
      <trkpt lat="45.20094" lon="5.74141">
        <ele>218</ele>
        <time>2026-08-12T13:02:41.000Z</time>
      </trkpt>
      <trkpt lat="45.20096" lon="5.74143">
        <ele>218</ele>
        <time>2026-08-12T13:02:42.000Z</time>
      </trkpt>
      <trkpt lat="45.20099" lon="5.74146">
        <ele>218</ele>
        <time>2026-08-12T13:02:43.000Z</time>
      </trkpt>
      <trkpt lat="45.201" lon="5.74148">
        <ele>218</ele>
        <time>2026-08-12T13:02:44.000Z</time>
      </trkpt>
      <trkpt lat="45.20102" lon="5.74151">
        <ele>217.80000305176</ele>
        <time>2026-08-12T13:02:45.000Z</time>
      </trkpt>
      <trkpt lat="45.20104" lon="5.74154">
        <ele>218</ele>
        <time>2026-08-12T13:02:46.000Z</time>
      </trkpt>
      <trkpt lat="45.20106" lon="5.74156">
        <ele>218</ele>
        <time>2026-08-12T13:02:47.000Z</time>
      </trkpt>
      <trkpt lat="45.20108" lon="5.74159">
        <ele>218</ele>
        <time>2026-08-12T13:02:48.000Z</time>
      </trkpt>
      <trkpt lat="45.2011" lon="5.74161">
        <ele>218</ele>
        <time>2026-08-12T13:02:49.000Z</time>
      </trkpt>
      <trkpt lat="45.20112" lon="5.74164">
        <ele>217.80000305176</ele>
        <time>2026-08-12T13:02:50.000Z</time>
      </trkpt>
      <trkpt lat="45.20114" lon="5.74166">
        <ele>217.80000305176</ele>
        <time>2026-08-12T13:02:51.000Z</time>
      </trkpt>
      <trkpt lat="45.20116" lon="5.74166">
        <ele>217.80000305176</ele>
        <time>2026-08-12T13:02:52.000Z</time>
      </trkpt>
      <trkpt lat="45.20118" lon="5.74164">
        <ele>217.60000610352</ele>
        <time>2026-08-12T13:02:53.000Z</time>
      </trkpt>
      <trkpt lat="45.20119" lon="5.74161">
        <ele>217.60000610352</ele>
        <time>2026-08-12T13:02:54.000Z</time>
      </trkpt>
      <trkpt lat="45.2012" lon="5.74157">
        <ele>217.39999389648</ele>
        <time>2026-08-12T13:02:55.000Z</time>
      </trkpt>
      <trkpt lat="45.20121" lon="5.74154">
        <ele>217.39999389648</ele>
        <time>2026-08-12T13:02:56.000Z</time>
      </trkpt>
      <trkpt lat="45.20123" lon="5.74151">
        <ele>217.19999694824</ele>
        <time>2026-08-12T13:02:57.000Z</time>
      </trkpt>
      <trkpt lat="45.20124" lon="5.74148">
        <ele>217.19999694824</ele>
        <time>2026-08-12T13:02:58.000Z</time>
      </trkpt>
      <trkpt lat="45.20126" lon="5.74145">
        <ele>217</ele>
        <time>2026-08-12T13:02:59.000Z</time>
      </trkpt>
      <trkpt lat="45.20128" lon="5.74142">
        <ele>216.80000305176</ele>
        <time>2026-08-12T13:03:00.000Z</time>
      </trkpt>
      <trkpt lat="45.20129" lon="5.74139">
        <ele>216.60000610352</ele>
        <time>2026-08-12T13:03:01.000Z</time>
      </trkpt>
      <trkpt lat="45.20131" lon="5.74135">
        <ele>216.19999694824</ele>
        <time>2026-08-12T13:03:02.000Z</time>
      </trkpt>
      <trkpt lat="45.20133" lon="5.74132">
        <ele>216.19999694824</ele>
        <time>2026-08-12T13:03:03.000Z</time>
      </trkpt>
      <trkpt lat="45.20134" lon="5.74129">
        <ele>216</ele>
        <time>2026-08-12T13:03:04.000Z</time>
      </trkpt>
      <trkpt lat="45.20136" lon="5.74126">
        <ele>215.80000305176</ele>
        <time>2026-08-12T13:03:05.000Z</time>
      </trkpt>
      <trkpt lat="45.20138" lon="5.74122">
        <ele>215.60000610352</ele>
        <time>2026-08-12T13:03:06.000Z</time>
      </trkpt>
      <trkpt lat="45.2014" lon="5.74118">
        <ele>215.39999389648</ele>
        <time>2026-08-12T13:03:07.000Z</time>
      </trkpt>
      <trkpt lat="45.20141" lon="5.74115">
        <ele>215.19999694824</ele>
        <time>2026-08-12T13:03:08.000Z</time>
      </trkpt>
      <trkpt lat="45.20143" lon="5.74112">
        <ele>215</ele>
        <time>2026-08-12T13:03:09.000Z</time>
      </trkpt>
      <trkpt lat="45.20145" lon="5.74109">
        <ele>214.80000305176</ele>
        <time>2026-08-12T13:03:10.000Z</time>
      </trkpt>
      <trkpt lat="45.20147" lon="5.74105">
        <ele>214.60000610352</ele>
        <time>2026-08-12T13:03:11.000Z</time>
      </trkpt>
      <trkpt lat="45.20148" lon="5.74102">
        <ele>214.39999389648</ele>
        <time>2026-08-12T13:03:12.000Z</time>
      </trkpt>
      <trkpt lat="45.2015" lon="5.74098">
        <ele>214.39999389648</ele>
        <time>2026-08-12T13:03:13.000Z</time>
      </trkpt>
      <trkpt lat="45.20152" lon="5.74095">
        <ele>214.19999694824</ele>
        <time>2026-08-12T13:03:14.000Z</time>
      </trkpt>
      <trkpt lat="45.20153" lon="5.74091">
        <ele>214.19999694824</ele>
        <time>2026-08-12T13:03:15.000Z</time>
      </trkpt>
      <trkpt lat="45.20155" lon="5.74088">
        <ele>214</ele>
        <time>2026-08-12T13:03:16.000Z</time>
      </trkpt>
      <trkpt lat="45.20157" lon="5.74085">
        <ele>214</ele>
        <time>2026-08-12T13:03:17.000Z</time>
      </trkpt>
      <trkpt lat="45.20159" lon="5.74081">
        <ele>214</ele>
        <time>2026-08-12T13:03:18.000Z</time>
      </trkpt>
      <trkpt lat="45.2016" lon="5.74078">
        <ele>213.80000305176</ele>
        <time>2026-08-12T13:03:19.000Z</time>
      </trkpt>
      <trkpt lat="45.20162" lon="5.74075">
        <ele>213.80000305176</ele>
        <time>2026-08-12T13:03:20.000Z</time>
      </trkpt>
      <trkpt lat="45.20164" lon="5.74072">
        <ele>213.60000610352</ele>
        <time>2026-08-12T13:03:21.000Z</time>
      </trkpt>
      <trkpt lat="45.20165" lon="5.74069">
        <ele>213.60000610352</ele>
        <time>2026-08-12T13:03:22.000Z</time>
      </trkpt>
      <trkpt lat="45.20167" lon="5.74066">
        <ele>213.39999389648</ele>
        <time>2026-08-12T13:03:23.000Z</time>
      </trkpt>
      <trkpt lat="45.20169" lon="5.74063">
        <ele>213.19999694824</ele>
        <time>2026-08-12T13:03:24.000Z</time>
      </trkpt>
      <trkpt lat="45.20171" lon="5.74061">
        <ele>213.19999694824</ele>
        <time>2026-08-12T13:03:25.000Z</time>
      </trkpt>
      <trkpt lat="45.20172" lon="5.74058">
        <ele>213</ele>
        <time>2026-08-12T13:03:26.000Z</time>
      </trkpt>
      <trkpt lat="45.20174" lon="5.74054">
        <ele>213</ele>
        <time>2026-08-12T13:03:27.000Z</time>
      </trkpt>
      <trkpt lat="45.20175" lon="5.74052">
        <ele>212.80000305176</ele>
        <time>2026-08-12T13:03:28.000Z</time>
      </trkpt>
      <trkpt lat="45.20177" lon="5.74048">
        <ele>213</ele>
        <time>2026-08-12T13:03:29.000Z</time>
      </trkpt>
      <trkpt lat="45.20178" lon="5.74045">
        <ele>213</ele>
        <time>2026-08-12T13:03:30.000Z</time>
      </trkpt>
      <trkpt lat="45.2018" lon="5.74042">
        <ele>213</ele>
        <time>2026-08-12T13:03:31.000Z</time>
      </trkpt>
      <trkpt lat="45.20182" lon="5.74039">
        <ele>213</ele>
        <time>2026-08-12T13:03:32.000Z</time>
      </trkpt>
      <trkpt lat="45.20184" lon="5.74036">
        <ele>213</ele>
        <time>2026-08-12T13:03:33.000Z</time>
      </trkpt>
      <trkpt lat="45.20185" lon="5.74032">
        <ele>213</ele>
        <time>2026-08-12T13:03:34.000Z</time>
      </trkpt>
      <trkpt lat="45.20187" lon="5.74029">
        <ele>212.80000305176</ele>
        <time>2026-08-12T13:03:35.000Z</time>
      </trkpt>
      <trkpt lat="45.20189" lon="5.74025">
        <ele>212.80000305176</ele>
        <time>2026-08-12T13:03:36.000Z</time>
      </trkpt>
      <trkpt lat="45.2019" lon="5.74022">
        <ele>212.80000305176</ele>
        <time>2026-08-12T13:03:37.000Z</time>
      </trkpt>
      <trkpt lat="45.20192" lon="5.74019">
        <ele>212.80000305176</ele>
        <time>2026-08-12T13:03:38.000Z</time>
      </trkpt>
      <trkpt lat="45.20193" lon="5.74016">
        <ele>213</ele>
        <time>2026-08-12T13:03:39.000Z</time>
      </trkpt>
      <trkpt lat="45.20195" lon="5.74012">
        <ele>213</ele>
        <time>2026-08-12T13:03:40.000Z</time>
      </trkpt>
      <trkpt lat="45.20197" lon="5.7401">
        <ele>213</ele>
        <time>2026-08-12T13:03:41.000Z</time>
      </trkpt>
      <trkpt lat="45.20199" lon="5.74006">
        <ele>213</ele>
        <time>2026-08-12T13:03:42.000Z</time>
      </trkpt>
      <trkpt lat="45.20201" lon="5.74003">
        <ele>213</ele>
        <time>2026-08-12T13:03:43.000Z</time>
      </trkpt>
      <trkpt lat="45.20202" lon="5.73999">
        <ele>213</ele>
        <time>2026-08-12T13:03:44.000Z</time>
      </trkpt>
      <trkpt lat="45.20204" lon="5.73996">
        <ele>212.80000305176</ele>
        <time>2026-08-12T13:03:45.000Z</time>
      </trkpt>
      <trkpt lat="45.20206" lon="5.73993">
        <ele>212.80000305176</ele>
        <time>2026-08-12T13:03:46.000Z</time>
      </trkpt>
      <trkpt lat="45.20207" lon="5.73989">
        <ele>212.80000305176</ele>
        <time>2026-08-12T13:03:47.000Z</time>
      </trkpt>
      <trkpt lat="45.20209" lon="5.73987">
        <ele>212.80000305176</ele>
        <time>2026-08-12T13:03:48.000Z</time>
      </trkpt>
      <trkpt lat="45.2021" lon="5.73983">
        <ele>212.80000305176</ele>
        <time>2026-08-12T13:03:49.000Z</time>
      </trkpt>
      <trkpt lat="45.20212" lon="5.7398">
        <ele>212.80000305176</ele>
        <time>2026-08-12T13:03:50.000Z</time>
      </trkpt>
      <trkpt lat="45.20213" lon="5.73976">
        <ele>213</ele>
        <time>2026-08-12T13:03:51.000Z</time>
      </trkpt>
      <trkpt lat="45.20214" lon="5.73973">
        <ele>213</ele>
        <time>2026-08-12T13:03:52.000Z</time>
      </trkpt>
      <trkpt lat="45.20216" lon="5.7397">
        <ele>213</ele>
        <time>2026-08-12T13:03:53.000Z</time>
      </trkpt>
      <trkpt lat="45.20217" lon="5.73966">
        <ele>213</ele>
        <time>2026-08-12T13:03:54.000Z</time>
      </trkpt>
      <trkpt lat="45.20218" lon="5.73963">
        <ele>213.19999694824</ele>
        <time>2026-08-12T13:03:55.000Z</time>
      </trkpt>
      <trkpt lat="45.2022" lon="5.73959">
        <ele>213.39999389648</ele>
        <time>2026-08-12T13:03:56.000Z</time>
      </trkpt>
      <trkpt lat="45.20221" lon="5.73956">
        <ele>214</ele>
        <time>2026-08-12T13:03:57.000Z</time>
      </trkpt>
      <trkpt lat="45.20222" lon="5.73952">
        <ele>214</ele>
        <time>2026-08-12T13:03:58.000Z</time>
      </trkpt>
      <trkpt lat="45.20223" lon="5.73948">
        <ele>214</ele>
        <time>2026-08-12T13:03:59.000Z</time>
      </trkpt>
      <trkpt lat="45.20225" lon="5.73945">
        <ele>214</ele>
        <time>2026-08-12T13:04:00.000Z</time>
      </trkpt>
      <trkpt lat="45.20226" lon="5.7394">
        <ele>214.19999694824</ele>
        <time>2026-08-12T13:04:01.000Z</time>
      </trkpt>
      <trkpt lat="45.20227" lon="5.73937">
        <ele>214</ele>
        <time>2026-08-12T13:04:02.000Z</time>
      </trkpt>
      <trkpt lat="45.20228" lon="5.73933">
        <ele>213.60000610352</ele>
        <time>2026-08-12T13:04:03.000Z</time>
      </trkpt>
      <trkpt lat="45.20228" lon="5.73929">
        <ele>213.39999389648</ele>
        <time>2026-08-12T13:04:04.000Z</time>
      </trkpt>
      <trkpt lat="45.20229" lon="5.73925">
        <ele>213</ele>
        <time>2026-08-12T13:04:05.000Z</time>
      </trkpt>
      <trkpt lat="45.2023" lon="5.73921">
        <ele>212.19999694824</ele>
        <time>2026-08-12T13:04:06.000Z</time>
      </trkpt>
      <trkpt lat="45.20231" lon="5.73918">
        <ele>211.19999694824</ele>
        <time>2026-08-12T13:04:07.000Z</time>
      </trkpt>
      <trkpt lat="45.20231" lon="5.73914">
        <ele>211</ele>
        <time>2026-08-12T13:04:08.000Z</time>
      </trkpt>
      <trkpt lat="45.20232" lon="5.73911">
        <ele>210.80000305176</ele>
        <time>2026-08-12T13:04:09.000Z</time>
      </trkpt>
      <trkpt lat="45.20233" lon="5.73907">
        <ele>210.60000610352</ele>
        <time>2026-08-12T13:04:10.000Z</time>
      </trkpt>
      <trkpt lat="45.20234" lon="5.73903">
        <ele>210.80000305176</ele>
        <time>2026-08-12T13:04:11.000Z</time>
      </trkpt>
      <trkpt lat="45.20235" lon="5.73899">
        <ele>210.80000305176</ele>
        <time>2026-08-12T13:04:12.000Z</time>
      </trkpt>
      <trkpt lat="45.20236" lon="5.73895">
        <ele>210.60000610352</ele>
        <time>2026-08-12T13:04:13.000Z</time>
      </trkpt>
      <trkpt lat="45.20236" lon="5.73891">
        <ele>210.39999389648</ele>
        <time>2026-08-12T13:04:14.000Z</time>
      </trkpt>
      <trkpt lat="45.20237" lon="5.73888">
        <ele>210.39999389648</ele>
        <time>2026-08-12T13:04:15.000Z</time>
      </trkpt>
      <trkpt lat="45.20238" lon="5.73884">
        <ele>210.19999694824</ele>
        <time>2026-08-12T13:04:16.000Z</time>
      </trkpt>
      <trkpt lat="45.20239" lon="5.7388">
        <ele>210.19999694824</ele>
        <time>2026-08-12T13:04:17.000Z</time>
      </trkpt>
      <trkpt lat="45.20239" lon="5.73877">
        <ele>210</ele>
        <time>2026-08-12T13:04:18.000Z</time>
      </trkpt>
      <trkpt lat="45.2024" lon="5.73873">
        <ele>210.19999694824</ele>
        <time>2026-08-12T13:04:19.000Z</time>
      </trkpt>
      <trkpt lat="45.20241" lon="5.73869">
        <ele>210.39999389648</ele>
        <time>2026-08-12T13:04:20.000Z</time>
      </trkpt>
      <trkpt lat="45.20242" lon="5.73865">
        <ele>211</ele>
        <time>2026-08-12T13:04:21.000Z</time>
      </trkpt>
      <trkpt lat="45.20243" lon="5.73862">
        <ele>211.39999389648</ele>
        <time>2026-08-12T13:04:22.000Z</time>
      </trkpt>
      <trkpt lat="45.20244" lon="5.73858">
        <ele>212</ele>
        <time>2026-08-12T13:04:23.000Z</time>
      </trkpt>
      <trkpt lat="45.20245" lon="5.73854">
        <ele>212</ele>
        <time>2026-08-12T13:04:24.000Z</time>
      </trkpt>
      <trkpt lat="45.20246" lon="5.7385">
        <ele>212</ele>
        <time>2026-08-12T13:04:25.000Z</time>
      </trkpt>
      <trkpt lat="45.20246" lon="5.73846">
        <ele>212</ele>
        <time>2026-08-12T13:04:26.000Z</time>
      </trkpt>
      <trkpt lat="45.20247" lon="5.73843">
        <ele>211.80000305176</ele>
        <time>2026-08-12T13:04:27.000Z</time>
      </trkpt>
      <trkpt lat="45.20248" lon="5.73839">
        <ele>211.80000305176</ele>
        <time>2026-08-12T13:04:28.000Z</time>
      </trkpt>
      <trkpt lat="45.20248" lon="5.73835">
        <ele>210.80000305176</ele>
        <time>2026-08-12T13:04:29.000Z</time>
      </trkpt>
      <trkpt lat="45.20249" lon="5.73831">
        <ele>209.80000305176</ele>
        <time>2026-08-12T13:04:30.000Z</time>
      </trkpt>
      <trkpt lat="45.20249" lon="5.73827">
        <ele>209.80000305176</ele>
        <time>2026-08-12T13:04:31.000Z</time>
      </trkpt>
      <trkpt lat="45.2025" lon="5.73824">
        <ele>209.60000610352</ele>
        <time>2026-08-12T13:04:32.000Z</time>
      </trkpt>
      <trkpt lat="45.20251" lon="5.7382">
        <ele>209.39999389648</ele>
        <time>2026-08-12T13:04:33.000Z</time>
      </trkpt>
      <trkpt lat="45.20252" lon="5.73817">
        <ele>209.39999389648</ele>
        <time>2026-08-12T13:04:34.000Z</time>
      </trkpt>
      <trkpt lat="45.20253" lon="5.73817">
        <ele>209.39999389648</ele>
        <time>2026-08-12T13:04:35.000Z</time>
      </trkpt>
      <trkpt lat="45.20256" lon="5.73816">
        <ele>209.39999389648</ele>
        <time>2026-08-12T13:04:36.000Z</time>
      </trkpt>
      <trkpt lat="45.20258" lon="5.73816">
        <ele>209.39999389648</ele>
        <time>2026-08-12T13:04:37.000Z</time>
      </trkpt>
      <trkpt lat="45.20261" lon="5.73815">
        <ele>209.39999389648</ele>
        <time>2026-08-12T13:04:38.000Z</time>
      </trkpt>
      <trkpt lat="45.20264" lon="5.73813">
        <ele>209.19999694824</ele>
        <time>2026-08-12T13:04:39.000Z</time>
      </trkpt>
      <trkpt lat="45.20266" lon="5.73812">
        <ele>208.39999389648</ele>
        <time>2026-08-12T13:04:40.000Z</time>
      </trkpt>
      <trkpt lat="45.20269" lon="5.73812">
        <ele>208</ele>
        <time>2026-08-12T13:04:41.000Z</time>
      </trkpt>
      <trkpt lat="45.20271" lon="5.73814">
        <ele>208</ele>
        <time>2026-08-12T13:04:42.000Z</time>
      </trkpt>
      <trkpt lat="45.20273" lon="5.73817">
        <ele>208.39999389648</ele>
        <time>2026-08-12T13:04:43.000Z</time>
      </trkpt>
      <trkpt lat="45.20275" lon="5.73821">
        <ele>208.60000610352</ele>
        <time>2026-08-12T13:04:44.000Z</time>
      </trkpt>
      <trkpt lat="45.20277" lon="5.73825">
        <ele>209.39999389648</ele>
        <time>2026-08-12T13:04:45.000Z</time>
      </trkpt>
      <trkpt lat="45.20278" lon="5.73828">
        <ele>209.60000610352</ele>
        <time>2026-08-12T13:04:46.000Z</time>
      </trkpt>
      <trkpt lat="45.20279" lon="5.73832">
        <ele>210.39999389648</ele>
        <time>2026-08-12T13:04:47.000Z</time>
      </trkpt>
      <trkpt lat="45.2028" lon="5.73835">
        <ele>210.60000610352</ele>
        <time>2026-08-12T13:04:48.000Z</time>
      </trkpt>
      <trkpt lat="45.20282" lon="5.73838">
        <ele>210.80000305176</ele>
        <time>2026-08-12T13:04:49.000Z</time>
      </trkpt>
      <trkpt lat="45.20283" lon="5.73841">
        <ele>211.39999389648</ele>
        <time>2026-08-12T13:04:50.000Z</time>
      </trkpt>
      <trkpt lat="45.20284" lon="5.73844">
        <ele>211.39999389648</ele>
        <time>2026-08-12T13:04:51.000Z</time>
      </trkpt>
      <trkpt lat="45.20285" lon="5.73847">
        <ele>211.60000610352</ele>
        <time>2026-08-12T13:04:52.000Z</time>
      </trkpt>
      <trkpt lat="45.20286" lon="5.7385">
        <ele>211.39999389648</ele>
        <time>2026-08-12T13:04:53.000Z</time>
      </trkpt>
      <trkpt lat="45.20288" lon="5.73853">
        <ele>211.39999389648</ele>
        <time>2026-08-12T13:04:54.000Z</time>
      </trkpt>
      <trkpt lat="45.20288" lon="5.73856">
        <ele>211</ele>
        <time>2026-08-12T13:04:55.000Z</time>
      </trkpt>
      <trkpt lat="45.2029" lon="5.73859">
        <ele>211.19999694824</ele>
        <time>2026-08-12T13:04:56.000Z</time>
      </trkpt>
      <trkpt lat="45.20291" lon="5.73862">
        <ele>211.39999389648</ele>
        <time>2026-08-12T13:04:57.000Z</time>
      </trkpt>
      <trkpt lat="45.20292" lon="5.73865">
        <ele>211.80000305176</ele>
        <time>2026-08-12T13:04:58.000Z</time>
      </trkpt>
      <trkpt lat="45.20293" lon="5.73868">
        <ele>212.19999694824</ele>
        <time>2026-08-12T13:04:59.000Z</time>
      </trkpt>
      <trkpt lat="45.20295" lon="5.7387">
        <ele>212.19999694824</ele>
        <time>2026-08-12T13:05:00.000Z</time>
      </trkpt>
      <trkpt lat="45.20296" lon="5.73873">
        <ele>212.39999389648</ele>
        <time>2026-08-12T13:05:01.000Z</time>
      </trkpt>
      <trkpt lat="45.20298" lon="5.73876">
        <ele>212.39999389648</ele>
        <time>2026-08-12T13:05:02.000Z</time>
      </trkpt>
      <trkpt lat="45.20299" lon="5.73878">
        <ele>212.19999694824</ele>
        <time>2026-08-12T13:05:03.000Z</time>
      </trkpt>
      <trkpt lat="45.203" lon="5.73881">
        <ele>212.39999389648</ele>
        <time>2026-08-12T13:05:04.000Z</time>
      </trkpt>
      <trkpt lat="45.20302" lon="5.73884">
        <ele>212.60000610352</ele>
        <time>2026-08-12T13:05:05.000Z</time>
      </trkpt>
      <trkpt lat="45.20303" lon="5.73886">
        <ele>213</ele>
        <time>2026-08-12T13:05:06.000Z</time>
      </trkpt>
      <trkpt lat="45.20305" lon="5.73889">
        <ele>213.39999389648</ele>
        <time>2026-08-12T13:05:07.000Z</time>
      </trkpt>
      <trkpt lat="45.20306" lon="5.73892">
        <ele>213.80000305176</ele>
        <time>2026-08-12T13:05:08.000Z</time>
      </trkpt>
      <trkpt lat="45.20308" lon="5.73895">
        <ele>214.19999694824</ele>
        <time>2026-08-12T13:05:09.000Z</time>
      </trkpt>
      <trkpt lat="45.2031" lon="5.73897">
        <ele>214.39999389648</ele>
        <time>2026-08-12T13:05:10.000Z</time>
      </trkpt>
      <trkpt lat="45.20312" lon="5.739">
        <ele>214.39999389648</ele>
        <time>2026-08-12T13:05:11.000Z</time>
      </trkpt>
      <trkpt lat="45.20313" lon="5.73903">
        <ele>214.60000610352</ele>
        <time>2026-08-12T13:05:12.000Z</time>
      </trkpt>
      <trkpt lat="45.20315" lon="5.73905">
        <ele>214.60000610352</ele>
        <time>2026-08-12T13:05:13.000Z</time>
      </trkpt>
      <trkpt lat="45.20316" lon="5.73908">
        <ele>214.39999389648</ele>
        <time>2026-08-12T13:05:14.000Z</time>
      </trkpt>
      <trkpt lat="45.20317" lon="5.7391">
        <ele>214</ele>
        <time>2026-08-12T13:05:15.000Z</time>
      </trkpt>
      <trkpt lat="45.20319" lon="5.73912">
        <ele>213.80000305176</ele>
        <time>2026-08-12T13:05:16.000Z</time>
      </trkpt>
      <trkpt lat="45.2032" lon="5.73914">
        <ele>213.60000610352</ele>
        <time>2026-08-12T13:05:17.000Z</time>
      </trkpt>
      <trkpt lat="45.20321" lon="5.73916">
        <ele>213.60000610352</ele>
        <time>2026-08-12T13:05:18.000Z</time>
      </trkpt>
      <trkpt lat="45.20323" lon="5.73917">
        <ele>212.80000305176</ele>
        <time>2026-08-12T13:05:19.000Z</time>
      </trkpt>
      <trkpt lat="45.20324" lon="5.73919">
        <ele>212.80000305176</ele>
        <time>2026-08-12T13:05:20.000Z</time>
      </trkpt>
      <trkpt lat="45.20326" lon="5.7392">
        <ele>213</ele>
        <time>2026-08-12T13:05:21.000Z</time>
      </trkpt>
      <trkpt lat="45.20328" lon="5.73921">
        <ele>213.19999694824</ele>
        <time>2026-08-12T13:05:22.000Z</time>
      </trkpt>
      <trkpt lat="45.20329" lon="5.73923">
        <ele>213.39999389648</ele>
        <time>2026-08-12T13:05:23.000Z</time>
      </trkpt>
      <trkpt lat="45.20331" lon="5.73925">
        <ele>214.39999389648</ele>
        <time>2026-08-12T13:05:24.000Z</time>
      </trkpt>
      <trkpt lat="45.20333" lon="5.73926">
        <ele>215.19999694824</ele>
        <time>2026-08-12T13:05:25.000Z</time>
      </trkpt>
      <trkpt lat="45.20335" lon="5.73927">
        <ele>215.60000610352</ele>
        <time>2026-08-12T13:05:26.000Z</time>
      </trkpt>
      <trkpt lat="45.20337" lon="5.73928">
        <ele>215.60000610352</ele>
        <time>2026-08-12T13:05:27.000Z</time>
      </trkpt>
      <trkpt lat="45.20338" lon="5.73929">
        <ele>215.80000305176</ele>
        <time>2026-08-12T13:05:28.000Z</time>
      </trkpt>
      <trkpt lat="45.2034" lon="5.7393">
        <ele>215.80000305176</ele>
        <time>2026-08-12T13:05:29.000Z</time>
      </trkpt>
      <trkpt lat="45.20342" lon="5.73931">
        <ele>216</ele>
        <time>2026-08-12T13:05:30.000Z</time>
      </trkpt>
      <trkpt lat="45.20344" lon="5.73932">
        <ele>217</ele>
        <time>2026-08-12T13:05:31.000Z</time>
      </trkpt>
      <trkpt lat="45.20346" lon="5.73933">
        <ele>217.39999389648</ele>
        <time>2026-08-12T13:05:32.000Z</time>
      </trkpt>
      <trkpt lat="45.20347" lon="5.73934">
        <ele>217.80000305176</ele>
        <time>2026-08-12T13:05:33.000Z</time>
      </trkpt>
      <trkpt lat="45.2035" lon="5.73935">
        <ele>218.19999694824</ele>
        <time>2026-08-12T13:05:34.000Z</time>
      </trkpt>
      <trkpt lat="45.20352" lon="5.73936">
        <ele>218.39999389648</ele>
        <time>2026-08-12T13:05:35.000Z</time>
      </trkpt>
      <trkpt lat="45.20354" lon="5.73937">
        <ele>218.80000305176</ele>
        <time>2026-08-12T13:05:36.000Z</time>
      </trkpt>
      <trkpt lat="45.20356" lon="5.73938">
        <ele>219</ele>
        <time>2026-08-12T13:05:37.000Z</time>
      </trkpt>
      <trkpt lat="45.20358" lon="5.7394">
        <ele>219.39999389648</ele>
        <time>2026-08-12T13:05:38.000Z</time>
      </trkpt>
      <trkpt lat="45.2036" lon="5.73942">
        <ele>219.39999389648</ele>
        <time>2026-08-12T13:05:39.000Z</time>
      </trkpt>
      <trkpt lat="45.20363" lon="5.73943">
        <ele>219.60000610352</ele>
        <time>2026-08-12T13:05:40.000Z</time>
      </trkpt>
      <trkpt lat="45.20365" lon="5.73945">
        <ele>219.60000610352</ele>
        <time>2026-08-12T13:05:41.000Z</time>
      </trkpt>
      <trkpt lat="45.20367" lon="5.73946">
        <ele>219.80000305176</ele>
        <time>2026-08-12T13:05:42.000Z</time>
      </trkpt>
      <trkpt lat="45.20369" lon="5.73948">
        <ele>219.80000305176</ele>
        <time>2026-08-12T13:05:43.000Z</time>
      </trkpt>
      <trkpt lat="45.20371" lon="5.73949">
        <ele>220</ele>
        <time>2026-08-12T13:05:44.000Z</time>
      </trkpt>
      <trkpt lat="45.20373" lon="5.73952">
        <ele>220</ele>
        <time>2026-08-12T13:05:45.000Z</time>
      </trkpt>
      <trkpt lat="45.20375" lon="5.73954">
        <ele>220.19999694824</ele>
        <time>2026-08-12T13:05:46.000Z</time>
      </trkpt>
      <trkpt lat="45.20377" lon="5.73956">
        <ele>220</ele>
        <time>2026-08-12T13:05:47.000Z</time>
      </trkpt>
      <trkpt lat="45.20379" lon="5.73958">
        <ele>220</ele>
        <time>2026-08-12T13:05:48.000Z</time>
      </trkpt>
      <trkpt lat="45.20381" lon="5.7396">
        <ele>220</ele>
        <time>2026-08-12T13:05:49.000Z</time>
      </trkpt>
      <trkpt lat="45.20382" lon="5.73962">
        <ele>220.19999694824</ele>
        <time>2026-08-12T13:05:50.000Z</time>
      </trkpt>
      <trkpt lat="45.20384" lon="5.73965">
        <ele>220.39999389648</ele>
        <time>2026-08-12T13:05:51.000Z</time>
      </trkpt>
      <trkpt lat="45.20386" lon="5.73968">
        <ele>221.19999694824</ele>
        <time>2026-08-12T13:05:52.000Z</time>
      </trkpt>
      <trkpt lat="45.20388" lon="5.7397">
        <ele>221.39999389648</ele>
        <time>2026-08-12T13:05:53.000Z</time>
      </trkpt>
      <trkpt lat="45.20389" lon="5.73972">
        <ele>221.60000610352</ele>
        <time>2026-08-12T13:05:54.000Z</time>
      </trkpt>
      <trkpt lat="45.20391" lon="5.73974">
        <ele>221.80000305176</ele>
        <time>2026-08-12T13:05:55.000Z</time>
      </trkpt>
      <trkpt lat="45.20393" lon="5.73977">
        <ele>221.60000610352</ele>
        <time>2026-08-12T13:05:56.000Z</time>
      </trkpt>
      <trkpt lat="45.20395" lon="5.7398">
        <ele>221.60000610352</ele>
        <time>2026-08-12T13:05:57.000Z</time>
      </trkpt>
      <trkpt lat="45.20398" lon="5.73982">
        <ele>221.39999389648</ele>
        <time>2026-08-12T13:05:58.000Z</time>
      </trkpt>
      <trkpt lat="45.20399" lon="5.73984">
        <ele>221.39999389648</ele>
        <time>2026-08-12T13:05:59.000Z</time>
      </trkpt>
      <trkpt lat="45.204" lon="5.73987">
        <ele>221.39999389648</ele>
        <time>2026-08-12T13:06:00.000Z</time>
      </trkpt>
      <trkpt lat="45.20402" lon="5.7399">
        <ele>221.39999389648</ele>
        <time>2026-08-12T13:06:01.000Z</time>
      </trkpt>
      <trkpt lat="45.20403" lon="5.73993">
        <ele>221.39999389648</ele>
        <time>2026-08-12T13:06:02.000Z</time>
      </trkpt>
      <trkpt lat="45.20404" lon="5.73996">
        <ele>221.39999389648</ele>
        <time>2026-08-12T13:06:03.000Z</time>
      </trkpt>
      <trkpt lat="45.20405" lon="5.73999">
        <ele>221.19999694824</ele>
        <time>2026-08-12T13:06:04.000Z</time>
      </trkpt>
      <trkpt lat="45.20407" lon="5.74002">
        <ele>221</ele>
        <time>2026-08-12T13:06:05.000Z</time>
      </trkpt>
      <trkpt lat="45.20408" lon="5.74005">
        <ele>221</ele>
        <time>2026-08-12T13:06:06.000Z</time>
      </trkpt>
      <trkpt lat="45.2041" lon="5.74008">
        <ele>221</ele>
        <time>2026-08-12T13:06:07.000Z</time>
      </trkpt>
      <trkpt lat="45.20411" lon="5.74011">
        <ele>220.80000305176</ele>
        <time>2026-08-12T13:06:08.000Z</time>
      </trkpt>
      <trkpt lat="45.20413" lon="5.74014">
        <ele>220.80000305176</ele>
        <time>2026-08-12T13:06:09.000Z</time>
      </trkpt>
      <trkpt lat="45.20415" lon="5.74016">
        <ele>221</ele>
        <time>2026-08-12T13:06:10.000Z</time>
      </trkpt>
      <trkpt lat="45.20416" lon="5.74018">
        <ele>221.19999694824</ele>
        <time>2026-08-12T13:06:11.000Z</time>
      </trkpt>
      <trkpt lat="45.20418" lon="5.7402">
        <ele>221.39999389648</ele>
        <time>2026-08-12T13:06:12.000Z</time>
      </trkpt>
      <trkpt lat="45.20419" lon="5.74022">
        <ele>222.19999694824</ele>
        <time>2026-08-12T13:06:13.000Z</time>
      </trkpt>
      <trkpt lat="45.2042" lon="5.74025">
        <ele>222.60000610352</ele>
        <time>2026-08-12T13:06:14.000Z</time>
      </trkpt>
      <trkpt lat="45.20421" lon="5.74027">
        <ele>223.19999694824</ele>
        <time>2026-08-12T13:06:15.000Z</time>
      </trkpt>
      <trkpt lat="45.20422" lon="5.7403">
        <ele>224.39999389648</ele>
        <time>2026-08-12T13:06:16.000Z</time>
      </trkpt>
      <trkpt lat="45.20423" lon="5.74033">
        <ele>224.80000305176</ele>
        <time>2026-08-12T13:06:17.000Z</time>
      </trkpt>
      <trkpt lat="45.20425" lon="5.74035">
        <ele>225.19999694824</ele>
        <time>2026-08-12T13:06:18.000Z</time>
      </trkpt>
      <trkpt lat="45.20426" lon="5.74038">
        <ele>225.19999694824</ele>
        <time>2026-08-12T13:06:19.000Z</time>
      </trkpt>
      <trkpt lat="45.20428" lon="5.74041">
        <ele>225.19999694824</ele>
        <time>2026-08-12T13:06:20.000Z</time>
      </trkpt>
      <trkpt lat="45.20429" lon="5.74044">
        <ele>225</ele>
        <time>2026-08-12T13:06:21.000Z</time>
      </trkpt>
      <trkpt lat="45.2043" lon="5.74046">
        <ele>225</ele>
        <time>2026-08-12T13:06:22.000Z</time>
      </trkpt>
      <trkpt lat="45.20432" lon="5.74049">
        <ele>224.80000305176</ele>
        <time>2026-08-12T13:06:23.000Z</time>
      </trkpt>
      <trkpt lat="45.20433" lon="5.74052">
        <ele>224.80000305176</ele>
        <time>2026-08-12T13:06:24.000Z</time>
      </trkpt>
      <trkpt lat="45.20434" lon="5.74054">
        <ele>225</ele>
        <time>2026-08-12T13:06:25.000Z</time>
      </trkpt>
      <trkpt lat="45.20435" lon="5.74057">
        <ele>224.60000610352</ele>
        <time>2026-08-12T13:06:26.000Z</time>
      </trkpt>
      <trkpt lat="45.20436" lon="5.74059">
        <ele>224.19999694824</ele>
        <time>2026-08-12T13:06:27.000Z</time>
      </trkpt>
      <trkpt lat="45.20437" lon="5.74062">
        <ele>224.19999694824</ele>
        <time>2026-08-12T13:06:28.000Z</time>
      </trkpt>
      <trkpt lat="45.20438" lon="5.74065">
        <ele>224</ele>
        <time>2026-08-12T13:06:29.000Z</time>
      </trkpt>
      <trkpt lat="45.20439" lon="5.74068">
        <ele>224.19999694824</ele>
        <time>2026-08-12T13:06:30.000Z</time>
      </trkpt>
      <trkpt lat="45.2044" lon="5.74071">
        <ele>224.19999694824</ele>
        <time>2026-08-12T13:06:31.000Z</time>
      </trkpt>
      <trkpt lat="45.20442" lon="5.74074">
        <ele>225</ele>
        <time>2026-08-12T13:06:32.000Z</time>
      </trkpt>
      <trkpt lat="45.20443" lon="5.74077">
        <ele>225.19999694824</ele>
        <time>2026-08-12T13:06:33.000Z</time>
      </trkpt>
      <trkpt lat="45.20445" lon="5.74079">
        <ele>225.60000610352</ele>
        <time>2026-08-12T13:06:34.000Z</time>
      </trkpt>
      <trkpt lat="45.20446" lon="5.74082">
        <ele>225.80000305176</ele>
        <time>2026-08-12T13:06:35.000Z</time>
      </trkpt>
      <trkpt lat="45.20448" lon="5.74085">
        <ele>226</ele>
        <time>2026-08-12T13:06:36.000Z</time>
      </trkpt>
      <trkpt lat="45.20448" lon="5.74088">
        <ele>226.60000610352</ele>
        <time>2026-08-12T13:06:37.000Z</time>
      </trkpt>
      <trkpt lat="45.2045" lon="5.74091">
        <ele>226.80000305176</ele>
        <time>2026-08-12T13:06:38.000Z</time>
      </trkpt>
      <trkpt lat="45.20451" lon="5.74094">
        <ele>227</ele>
        <time>2026-08-12T13:06:39.000Z</time>
      </trkpt>
      <trkpt lat="45.20452" lon="5.74096">
        <ele>227.60000610352</ele>
        <time>2026-08-12T13:06:40.000Z</time>
      </trkpt>
      <trkpt lat="45.20454" lon="5.74098">
        <ele>227.39999389648</ele>
        <time>2026-08-12T13:06:41.000Z</time>
      </trkpt>
      <trkpt lat="45.20455" lon="5.74098">
        <ele>227.19999694824</ele>
        <time>2026-08-12T13:06:42.000Z</time>
      </trkpt>
      <trkpt lat="45.20456" lon="5.74097">
        <ele>227.19999694824</ele>
        <time>2026-08-12T13:06:43.000Z</time>
      </trkpt>
      <trkpt lat="45.20458" lon="5.74096">
        <ele>227.19999694824</ele>
        <time>2026-08-12T13:06:44.000Z</time>
      </trkpt>
      <trkpt lat="45.20459" lon="5.74094">
        <ele>227.19999694824</ele>
        <time>2026-08-12T13:06:45.000Z</time>
      </trkpt>
      <trkpt lat="45.2046" lon="5.74091">
        <ele>227.19999694824</ele>
        <time>2026-08-12T13:06:46.000Z</time>
      </trkpt>
      <trkpt lat="45.20462" lon="5.74088">
        <ele>227.39999389648</ele>
        <time>2026-08-12T13:06:47.000Z</time>
      </trkpt>
      <trkpt lat="45.20462" lon="5.74085">
        <ele>227.60000610352</ele>
        <time>2026-08-12T13:06:48.000Z</time>
      </trkpt>
      <trkpt lat="45.20463" lon="5.74082">
        <ele>227.80000305176</ele>
        <time>2026-08-12T13:06:49.000Z</time>
      </trkpt>
      <trkpt lat="45.20464" lon="5.74078">
        <ele>227.80000305176</ele>
        <time>2026-08-12T13:06:50.000Z</time>
      </trkpt>
      <trkpt lat="45.20465" lon="5.74075">
        <ele>228</ele>
        <time>2026-08-12T13:06:51.000Z</time>
      </trkpt>
      <trkpt lat="45.20466" lon="5.74072">
        <ele>228</ele>
        <time>2026-08-12T13:06:52.000Z</time>
      </trkpt>
      <trkpt lat="45.20467" lon="5.74069">
        <ele>228.19999694824</ele>
        <time>2026-08-12T13:06:53.000Z</time>
      </trkpt>
      <trkpt lat="45.20469" lon="5.74065">
        <ele>228.60000610352</ele>
        <time>2026-08-12T13:06:54.000Z</time>
      </trkpt>
      <trkpt lat="45.20469" lon="5.74062">
        <ele>229</ele>
        <time>2026-08-12T13:06:55.000Z</time>
      </trkpt>
      <trkpt lat="45.2047" lon="5.74059">
        <ele>229.39999389648</ele>
        <time>2026-08-12T13:06:56.000Z</time>
      </trkpt>
      <trkpt lat="45.20471" lon="5.74055">
        <ele>229.39999389648</ele>
        <time>2026-08-12T13:06:57.000Z</time>
      </trkpt>
      <trkpt lat="45.20472" lon="5.74052">
        <ele>229.39999389648</ele>
        <time>2026-08-12T13:06:58.000Z</time>
      </trkpt>
      <trkpt lat="45.20473" lon="5.74048">
        <ele>229.19999694824</ele>
        <time>2026-08-12T13:06:59.000Z</time>
      </trkpt>
      <trkpt lat="45.20474" lon="5.74045">
        <ele>229.19999694824</ele>
        <time>2026-08-12T13:07:00.000Z</time>
      </trkpt>
      <trkpt lat="45.20474" lon="5.74041">
        <ele>229.19999694824</ele>
        <time>2026-08-12T13:07:01.000Z</time>
      </trkpt>
      <trkpt lat="45.20475" lon="5.74038">
        <ele>229</ele>
        <time>2026-08-12T13:07:02.000Z</time>
      </trkpt>
      <trkpt lat="45.20476" lon="5.74035">
        <ele>228.80000305176</ele>
        <time>2026-08-12T13:07:03.000Z</time>
      </trkpt>
      <trkpt lat="45.20476" lon="5.74031">
        <ele>228.60000610352</ele>
        <time>2026-08-12T13:07:04.000Z</time>
      </trkpt>
      <trkpt lat="45.20476" lon="5.74028">
        <ele>228.60000610352</ele>
        <time>2026-08-12T13:07:05.000Z</time>
      </trkpt>
      <trkpt lat="45.20477" lon="5.74025">
        <ele>228.39999389648</ele>
        <time>2026-08-12T13:07:06.000Z</time>
      </trkpt>
      <trkpt lat="45.20477" lon="5.74022">
        <ele>228.60000610352</ele>
        <time>2026-08-12T13:07:07.000Z</time>
      </trkpt>
      <trkpt lat="45.20478" lon="5.74019">
        <ele>228.80000305176</ele>
        <time>2026-08-12T13:07:08.000Z</time>
      </trkpt>
      <trkpt lat="45.20478" lon="5.74015">
        <ele>228.80000305176</ele>
        <time>2026-08-12T13:07:09.000Z</time>
      </trkpt>
      <trkpt lat="45.20478" lon="5.74012">
        <ele>229</ele>
        <time>2026-08-12T13:07:10.000Z</time>
      </trkpt>
      <trkpt lat="45.20478" lon="5.74008">
        <ele>229</ele>
        <time>2026-08-12T13:07:11.000Z</time>
      </trkpt>
      <trkpt lat="45.20478" lon="5.74004">
        <ele>229.19999694824</ele>
        <time>2026-08-12T13:07:12.000Z</time>
      </trkpt>
      <trkpt lat="45.20479" lon="5.74001">
        <ele>229.19999694824</ele>
        <time>2026-08-12T13:07:13.000Z</time>
      </trkpt>
      <trkpt lat="45.20479" lon="5.73997">
        <ele>229</ele>
        <time>2026-08-12T13:07:14.000Z</time>
      </trkpt>
      <trkpt lat="45.20479" lon="5.73994">
        <ele>228.80000305176</ele>
        <time>2026-08-12T13:07:15.000Z</time>
      </trkpt>
      <trkpt lat="45.20479" lon="5.7399">
        <ele>228.39999389648</ele>
        <time>2026-08-12T13:07:16.000Z</time>
      </trkpt>
      <trkpt lat="45.20479" lon="5.73987">
        <ele>228.19999694824</ele>
        <time>2026-08-12T13:07:17.000Z</time>
      </trkpt>
      <trkpt lat="45.20479" lon="5.73984">
        <ele>228.19999694824</ele>
        <time>2026-08-12T13:07:18.000Z</time>
      </trkpt>
      <trkpt lat="45.20479" lon="5.7398">
        <ele>227.80000305176</ele>
        <time>2026-08-12T13:07:19.000Z</time>
      </trkpt>
      <trkpt lat="45.20479" lon="5.73976">
        <ele>227.39999389648</ele>
        <time>2026-08-12T13:07:20.000Z</time>
      </trkpt>
      <trkpt lat="45.20478" lon="5.73973">
        <ele>227.19999694824</ele>
        <time>2026-08-12T13:07:21.000Z</time>
      </trkpt>
      <trkpt lat="45.20478" lon="5.73969">
        <ele>227.19999694824</ele>
        <time>2026-08-12T13:07:22.000Z</time>
      </trkpt>
      <trkpt lat="45.20478" lon="5.73965">
        <ele>227.39999389648</ele>
        <time>2026-08-12T13:07:23.000Z</time>
      </trkpt>
      <trkpt lat="45.20478" lon="5.73961">
        <ele>227.60000610352</ele>
        <time>2026-08-12T13:07:24.000Z</time>
      </trkpt>
      <trkpt lat="45.20478" lon="5.73958">
        <ele>228.80000305176</ele>
        <time>2026-08-12T13:07:25.000Z</time>
      </trkpt>
      <trkpt lat="45.20477" lon="5.73954">
        <ele>229.39999389648</ele>
        <time>2026-08-12T13:07:26.000Z</time>
      </trkpt>
      <trkpt lat="45.20478" lon="5.7395">
        <ele>229.39999389648</ele>
        <time>2026-08-12T13:07:27.000Z</time>
      </trkpt>
      <trkpt lat="45.20478" lon="5.73947">
        <ele>229.39999389648</ele>
        <time>2026-08-12T13:07:28.000Z</time>
      </trkpt>
      <trkpt lat="45.20478" lon="5.73943">
        <ele>229.60000610352</ele>
        <time>2026-08-12T13:07:29.000Z</time>
      </trkpt>
      <trkpt lat="45.20478" lon="5.7394">
        <ele>229.39999389648</ele>
        <time>2026-08-12T13:07:30.000Z</time>
      </trkpt>
      <trkpt lat="45.20478" lon="5.73935">
        <ele>229.39999389648</ele>
        <time>2026-08-12T13:07:31.000Z</time>
      </trkpt>
      <trkpt lat="45.20479" lon="5.73932">
        <ele>229.19999694824</ele>
        <time>2026-08-12T13:07:32.000Z</time>
      </trkpt>
      <trkpt lat="45.20479" lon="5.73928">
        <ele>228.80000305176</ele>
        <time>2026-08-12T13:07:33.000Z</time>
      </trkpt>
      <trkpt lat="45.2048" lon="5.73924">
        <ele>228.39999389648</ele>
        <time>2026-08-12T13:07:34.000Z</time>
      </trkpt>
      <trkpt lat="45.20481" lon="5.73921">
        <ele>228</ele>
        <time>2026-08-12T13:07:35.000Z</time>
      </trkpt>
      <trkpt lat="45.20483" lon="5.73918">
        <ele>227.39999389648</ele>
        <time>2026-08-12T13:07:36.000Z</time>
      </trkpt>
      <trkpt lat="45.20484" lon="5.73915">
        <ele>226.60000610352</ele>
        <time>2026-08-12T13:07:37.000Z</time>
      </trkpt>
      <trkpt lat="45.20485" lon="5.73912">
        <ele>226.19999694824</ele>
        <time>2026-08-12T13:07:38.000Z</time>
      </trkpt>
      <trkpt lat="45.20487" lon="5.73909">
        <ele>225.80000305176</ele>
        <time>2026-08-12T13:07:39.000Z</time>
      </trkpt>
      <trkpt lat="45.20489" lon="5.73907">
        <ele>225.39999389648</ele>
        <time>2026-08-12T13:07:40.000Z</time>
      </trkpt>
      <trkpt lat="45.20491" lon="5.73906">
        <ele>225.39999389648</ele>
        <time>2026-08-12T13:07:41.000Z</time>
      </trkpt>
      <trkpt lat="45.20494" lon="5.73905">
        <ele>225.39999389648</ele>
        <time>2026-08-12T13:07:42.000Z</time>
      </trkpt>
      <trkpt lat="45.20496" lon="5.73903">
        <ele>225.60000610352</ele>
        <time>2026-08-12T13:07:43.000Z</time>
      </trkpt>
      <trkpt lat="45.20498" lon="5.73902">
        <ele>225.60000610352</ele>
        <time>2026-08-12T13:07:44.000Z</time>
      </trkpt>
      <trkpt lat="45.205" lon="5.73901">
        <ele>226.39999389648</ele>
        <time>2026-08-12T13:07:45.000Z</time>
      </trkpt>
      <trkpt lat="45.20502" lon="5.739">
        <ele>227.60000610352</ele>
        <time>2026-08-12T13:07:46.000Z</time>
      </trkpt>
      <trkpt lat="45.20504" lon="5.73899">
        <ele>228.39999389648</ele>
        <time>2026-08-12T13:07:47.000Z</time>
      </trkpt>
      <trkpt lat="45.20506" lon="5.73897">
        <ele>228.80000305176</ele>
        <time>2026-08-12T13:07:48.000Z</time>
      </trkpt>
      <trkpt lat="45.20509" lon="5.73896">
        <ele>229.60000610352</ele>
        <time>2026-08-12T13:07:49.000Z</time>
      </trkpt>
      <trkpt lat="45.2051" lon="5.73895">
        <ele>230.19999694824</ele>
        <time>2026-08-12T13:07:50.000Z</time>
      </trkpt>
      <trkpt lat="45.20512" lon="5.73894">
        <ele>231</ele>
        <time>2026-08-12T13:07:51.000Z</time>
      </trkpt>
      <trkpt lat="45.20514" lon="5.73892">
        <ele>232.19999694824</ele>
        <time>2026-08-12T13:07:52.000Z</time>
      </trkpt>
      <trkpt lat="45.20516" lon="5.73889">
        <ele>233.39999389648</ele>
        <time>2026-08-12T13:07:53.000Z</time>
      </trkpt>
      <trkpt lat="45.20518" lon="5.73886">
        <ele>234</ele>
        <time>2026-08-12T13:07:54.000Z</time>
      </trkpt>
      <trkpt lat="45.20519" lon="5.73884">
        <ele>234.19999694824</ele>
        <time>2026-08-12T13:07:55.000Z</time>
      </trkpt>
      <trkpt lat="45.2052" lon="5.73881">
        <ele>234.19999694824</ele>
        <time>2026-08-12T13:07:56.000Z</time>
      </trkpt>
      <trkpt lat="45.20521" lon="5.73878">
        <ele>234</ele>
        <time>2026-08-12T13:07:57.000Z</time>
      </trkpt>
      <trkpt lat="45.20523" lon="5.73876">
        <ele>234</ele>
        <time>2026-08-12T13:07:58.000Z</time>
      </trkpt>
      <trkpt lat="45.20524" lon="5.73873">
        <ele>234</ele>
        <time>2026-08-12T13:07:59.000Z</time>
      </trkpt>
      <trkpt lat="45.20524" lon="5.73869">
        <ele>234</ele>
        <time>2026-08-12T13:08:00.000Z</time>
      </trkpt>
      <trkpt lat="45.20525" lon="5.73866">
        <ele>234.39999389648</ele>
        <time>2026-08-12T13:08:01.000Z</time>
      </trkpt>
      <trkpt lat="45.20525" lon="5.73863">
        <ele>234.60000610352</ele>
        <time>2026-08-12T13:08:02.000Z</time>
      </trkpt>
      <trkpt lat="45.20525" lon="5.7386">
        <ele>234.60000610352</ele>
        <time>2026-08-12T13:08:03.000Z</time>
      </trkpt>
      <trkpt lat="45.20524" lon="5.73858">
        <ele>234.80000305176</ele>
        <time>2026-08-12T13:08:04.000Z</time>
      </trkpt>
      <trkpt lat="45.20523" lon="5.73856">
        <ele>234.80000305176</ele>
        <time>2026-08-12T13:08:05.000Z</time>
      </trkpt>
      <trkpt lat="45.20521" lon="5.73853">
        <ele>234.80000305176</ele>
        <time>2026-08-12T13:08:06.000Z</time>
      </trkpt>
      <trkpt lat="45.20519" lon="5.73851">
        <ele>235.19999694824</ele>
        <time>2026-08-12T13:08:07.000Z</time>
      </trkpt>
      <trkpt lat="45.20517" lon="5.73849">
        <ele>235.39999389648</ele>
        <time>2026-08-12T13:08:08.000Z</time>
      </trkpt>
      <trkpt lat="45.20514" lon="5.73847">
        <ele>235.60000610352</ele>
        <time>2026-08-12T13:08:09.000Z</time>
      </trkpt>
      <trkpt lat="45.20512" lon="5.73845">
        <ele>235.60000610352</ele>
        <time>2026-08-12T13:08:10.000Z</time>
      </trkpt>
      <trkpt lat="45.20509" lon="5.73843">
        <ele>235.60000610352</ele>
        <time>2026-08-12T13:08:11.000Z</time>
      </trkpt>
      <trkpt lat="45.20506" lon="5.73841">
        <ele>235.39999389648</ele>
        <time>2026-08-12T13:08:12.000Z</time>
      </trkpt>
      <trkpt lat="45.20503" lon="5.73839">
        <ele>235.19999694824</ele>
        <time>2026-08-12T13:08:13.000Z</time>
      </trkpt>
      <trkpt lat="45.205" lon="5.73838">
        <ele>234.80000305176</ele>
        <time>2026-08-12T13:08:14.000Z</time>
      </trkpt>
      <trkpt lat="45.20497" lon="5.73835">
        <ele>234.60000610352</ele>
        <time>2026-08-12T13:08:15.000Z</time>
      </trkpt>
      <trkpt lat="45.20495" lon="5.73833">
        <ele>234.39999389648</ele>
        <time>2026-08-12T13:08:16.000Z</time>
      </trkpt>
      <trkpt lat="45.20493" lon="5.7383">
        <ele>234.19999694824</ele>
        <time>2026-08-12T13:08:17.000Z</time>
      </trkpt>
      <trkpt lat="45.20491" lon="5.73827">
        <ele>234</ele>
        <time>2026-08-12T13:08:18.000Z</time>
      </trkpt>
      <trkpt lat="45.20489" lon="5.73825">
        <ele>233.39999389648</ele>
        <time>2026-08-12T13:08:19.000Z</time>
      </trkpt>
      <trkpt lat="45.20487" lon="5.73822">
        <ele>233</ele>
        <time>2026-08-12T13:08:20.000Z</time>
      </trkpt>
      <trkpt lat="45.20485" lon="5.7382">
        <ele>233</ele>
        <time>2026-08-12T13:08:21.000Z</time>
      </trkpt>
      <trkpt lat="45.20483" lon="5.73817">
        <ele>232.19999694824</ele>
        <time>2026-08-12T13:08:22.000Z</time>
      </trkpt>
      <trkpt lat="45.20482" lon="5.73814">
        <ele>232.19999694824</ele>
        <time>2026-08-12T13:08:23.000Z</time>
      </trkpt>
      <trkpt lat="45.2048" lon="5.73812">
        <ele>232.19999694824</ele>
        <time>2026-08-12T13:08:24.000Z</time>
      </trkpt>
      <trkpt lat="45.20478" lon="5.7381">
        <ele>232</ele>
        <time>2026-08-12T13:08:25.000Z</time>
      </trkpt>
      <trkpt lat="45.20475" lon="5.73808">
        <ele>231.60000610352</ele>
        <time>2026-08-12T13:08:26.000Z</time>
      </trkpt>
      <trkpt lat="45.20471" lon="5.73806">
        <ele>231.19999694824</ele>
        <time>2026-08-12T13:08:27.000Z</time>
      </trkpt>
      <trkpt lat="45.20469" lon="5.73804">
        <ele>230.39999389648</ele>
        <time>2026-08-12T13:08:28.000Z</time>
      </trkpt>
      <trkpt lat="45.20467" lon="5.73802">
        <ele>229.60000610352</ele>
        <time>2026-08-12T13:08:29.000Z</time>
      </trkpt>
      <trkpt lat="45.20464" lon="5.73799">
        <ele>229</ele>
        <time>2026-08-12T13:08:30.000Z</time>
      </trkpt>
      <trkpt lat="45.20462" lon="5.73797">
        <ele>228.60000610352</ele>
        <time>2026-08-12T13:08:31.000Z</time>
      </trkpt>
      <trkpt lat="45.20459" lon="5.73794">
        <ele>228</ele>
        <time>2026-08-12T13:08:32.000Z</time>
      </trkpt>
      <trkpt lat="45.20457" lon="5.73792">
        <ele>227.60000610352</ele>
        <time>2026-08-12T13:08:33.000Z</time>
      </trkpt>
      <trkpt lat="45.20455" lon="5.73789">
        <ele>227.19999694824</ele>
        <time>2026-08-12T13:08:34.000Z</time>
      </trkpt>
      <trkpt lat="45.20452" lon="5.73787">
        <ele>226.80000305176</ele>
        <time>2026-08-12T13:08:35.000Z</time>
      </trkpt>
      <trkpt lat="45.2045" lon="5.73784">
        <ele>226.19999694824</ele>
        <time>2026-08-12T13:08:36.000Z</time>
      </trkpt>
      <trkpt lat="45.20448" lon="5.73782">
        <ele>226.19999694824</ele>
        <time>2026-08-12T13:08:37.000Z</time>
      </trkpt>
      <trkpt lat="45.20446" lon="5.73781">
        <ele>226</ele>
        <time>2026-08-12T13:08:38.000Z</time>
      </trkpt>
      <trkpt lat="45.20443" lon="5.73779">
        <ele>226.19999694824</ele>
        <time>2026-08-12T13:08:39.000Z</time>
      </trkpt>
      <trkpt lat="45.20441" lon="5.73777">
        <ele>226.80000305176</ele>
        <time>2026-08-12T13:08:40.000Z</time>
      </trkpt>
      <trkpt lat="45.20439" lon="5.73773">
        <ele>227.39999389648</ele>
        <time>2026-08-12T13:08:41.000Z</time>
      </trkpt>
      <trkpt lat="45.20436" lon="5.7377">
        <ele>227.19999694824</ele>
        <time>2026-08-12T13:08:42.000Z</time>
      </trkpt>
      <trkpt lat="45.20434" lon="5.73767">
        <ele>227.19999694824</ele>
        <time>2026-08-12T13:08:43.000Z</time>
      </trkpt>
      <trkpt lat="45.20432" lon="5.73765">
        <ele>227.19999694824</ele>
        <time>2026-08-12T13:08:44.000Z</time>
      </trkpt>
      <trkpt lat="45.2043" lon="5.73762">
        <ele>227.39999389648</ele>
        <time>2026-08-12T13:08:45.000Z</time>
      </trkpt>
      <trkpt lat="45.20428" lon="5.7376">
        <ele>227.39999389648</ele>
        <time>2026-08-12T13:08:46.000Z</time>
      </trkpt>
      <trkpt lat="45.20426" lon="5.73758">
        <ele>228</ele>
        <time>2026-08-12T13:08:47.000Z</time>
      </trkpt>
      <trkpt lat="45.20424" lon="5.73755">
        <ele>228.19999694824</ele>
        <time>2026-08-12T13:08:48.000Z</time>
      </trkpt>
      <trkpt lat="45.20422" lon="5.73753">
        <ele>228</ele>
        <time>2026-08-12T13:08:49.000Z</time>
      </trkpt>
      <trkpt lat="45.2042" lon="5.7375">
        <ele>228.19999694824</ele>
        <time>2026-08-12T13:08:50.000Z</time>
      </trkpt>
      <trkpt lat="45.20418" lon="5.73747">
        <ele>228.19999694824</ele>
        <time>2026-08-12T13:08:51.000Z</time>
      </trkpt>
      <trkpt lat="45.20417" lon="5.73745">
        <ele>228.39999389648</ele>
        <time>2026-08-12T13:08:52.000Z</time>
      </trkpt>
      <trkpt lat="45.20414" lon="5.73743">
        <ele>228.60000610352</ele>
        <time>2026-08-12T13:08:53.000Z</time>
      </trkpt>
      <trkpt lat="45.20412" lon="5.73741">
        <ele>228.80000305176</ele>
        <time>2026-08-12T13:08:54.000Z</time>
      </trkpt>
      <trkpt lat="45.2041" lon="5.73738">
        <ele>229</ele>
        <time>2026-08-12T13:08:55.000Z</time>
      </trkpt>
      <trkpt lat="45.20409" lon="5.73737">
        <ele>228.80000305176</ele>
        <time>2026-08-12T13:08:56.000Z</time>
      </trkpt>
      <trkpt lat="45.20408" lon="5.73736">
        <ele>228.19999694824</ele>
        <time>2026-08-12T13:08:57.000Z</time>
      </trkpt>
      <trkpt lat="45.20407" lon="5.73734">
        <ele>227.60000610352</ele>
        <time>2026-08-12T13:08:58.000Z</time>
      </trkpt>
      <trkpt lat="45.20406" lon="5.73734">
        <ele>227</ele>
        <time>2026-08-12T13:08:59.000Z</time>
      </trkpt>
      <trkpt lat="45.20405" lon="5.73733">
        <ele>226.39999389648</ele>
        <time>2026-08-12T13:09:00.000Z</time>
      </trkpt>
      <trkpt lat="45.20405" lon="5.73734">
        <ele>225</ele>
        <time>2026-08-12T13:09:01.000Z</time>
      </trkpt>
      <trkpt lat="45.20406" lon="5.73734">
        <ele>224.60000610352</ele>
        <time>2026-08-12T13:09:02.000Z</time>
      </trkpt>
      <trkpt lat="45.20406" lon="5.73735">
        <ele>222.60000610352</ele>
        <time>2026-08-12T13:09:03.000Z</time>
      </trkpt>
      <trkpt lat="45.20407" lon="5.73735">
        <ele>222.19999694824</ele>
        <time>2026-08-12T13:09:04.000Z</time>
      </trkpt>
      <trkpt lat="45.20408" lon="5.73738">
        <ele>221.60000610352</ele>
        <time>2026-08-12T13:09:05.000Z</time>
      </trkpt>
      <trkpt lat="45.20408" lon="5.73739">
        <ele>220.80000305176</ele>
        <time>2026-08-12T13:09:06.000Z</time>
      </trkpt>
      <trkpt lat="45.20409" lon="5.73741">
        <ele>220.19999694824</ele>
        <time>2026-08-12T13:09:07.000Z</time>
      </trkpt>
      <trkpt lat="45.20411" lon="5.73743">
        <ele>220</ele>
        <time>2026-08-12T13:09:08.000Z</time>
      </trkpt>
      <trkpt lat="45.20413" lon="5.73745">
        <ele>219.80000305176</ele>
        <time>2026-08-12T13:09:09.000Z</time>
      </trkpt>
      <trkpt lat="45.20414" lon="5.73748">
        <ele>219.39999389648</ele>
        <time>2026-08-12T13:09:10.000Z</time>
      </trkpt>
      <trkpt lat="45.20416" lon="5.73751">
        <ele>219.19999694824</ele>
        <time>2026-08-12T13:09:11.000Z</time>
      </trkpt>
      <trkpt lat="45.20417" lon="5.73755">
        <ele>220.39999389648</ele>
        <time>2026-08-12T13:09:12.000Z</time>
      </trkpt>
      <trkpt lat="45.20418" lon="5.7376">
        <ele>220.60000610352</ele>
        <time>2026-08-12T13:09:13.000Z</time>
      </trkpt>
      <trkpt lat="45.20418" lon="5.73763">
        <ele>220.80000305176</ele>
        <time>2026-08-12T13:09:14.000Z</time>
      </trkpt>
      <trkpt lat="45.20417" lon="5.73767">
        <ele>221.39999389648</ele>
        <time>2026-08-12T13:09:15.000Z</time>
      </trkpt>
      <trkpt lat="45.20417" lon="5.73771">
        <ele>222.80000305176</ele>
        <time>2026-08-12T13:09:16.000Z</time>
      </trkpt>
      <trkpt lat="45.20417" lon="5.73774">
        <ele>223.80000305176</ele>
        <time>2026-08-12T13:09:17.000Z</time>
      </trkpt>
      <trkpt lat="45.20416" lon="5.73778">
        <ele>224.19999694824</ele>
        <time>2026-08-12T13:09:18.000Z</time>
      </trkpt>
      <trkpt lat="45.20415" lon="5.73781">
        <ele>224.39999389648</ele>
        <time>2026-08-12T13:09:19.000Z</time>
      </trkpt>
      <trkpt lat="45.20414" lon="5.73784">
        <ele>224.60000610352</ele>
        <time>2026-08-12T13:09:20.000Z</time>
      </trkpt>
      <trkpt lat="45.20413" lon="5.73787">
        <ele>224.80000305176</ele>
        <time>2026-08-12T13:09:21.000Z</time>
      </trkpt>
      <trkpt lat="45.20411" lon="5.7379">
        <ele>224.80000305176</ele>
        <time>2026-08-12T13:09:22.000Z</time>
      </trkpt>
      <trkpt lat="45.20409" lon="5.73792">
        <ele>224.39999389648</ele>
        <time>2026-08-12T13:09:23.000Z</time>
      </trkpt>
      <trkpt lat="45.20408" lon="5.73795">
        <ele>224.39999389648</ele>
        <time>2026-08-12T13:09:24.000Z</time>
      </trkpt>
      <trkpt lat="45.20406" lon="5.73797">
        <ele>224.60000610352</ele>
        <time>2026-08-12T13:09:25.000Z</time>
      </trkpt>
      <trkpt lat="45.20405" lon="5.738">
        <ele>224.60000610352</ele>
        <time>2026-08-12T13:09:26.000Z</time>
      </trkpt>
      <trkpt lat="45.20403" lon="5.73803">
        <ele>224.60000610352</ele>
        <time>2026-08-12T13:09:27.000Z</time>
      </trkpt>
      <trkpt lat="45.20402" lon="5.73804">
        <ele>225</ele>
        <time>2026-08-12T13:09:28.000Z</time>
      </trkpt>
      <trkpt lat="45.204" lon="5.73807">
        <ele>225.19999694824</ele>
        <time>2026-08-12T13:09:29.000Z</time>
      </trkpt>
      <trkpt lat="45.20399" lon="5.7381">
        <ele>225.19999694824</ele>
        <time>2026-08-12T13:09:30.000Z</time>
      </trkpt>
      <trkpt lat="45.20397" lon="5.73812">
        <ele>225.39999389648</ele>
        <time>2026-08-12T13:09:31.000Z</time>
      </trkpt>
      <trkpt lat="45.20395" lon="5.73815">
        <ele>225.39999389648</ele>
        <time>2026-08-12T13:09:32.000Z</time>
      </trkpt>
      <trkpt lat="45.20394" lon="5.73817">
        <ele>225.60000610352</ele>
        <time>2026-08-12T13:09:33.000Z</time>
      </trkpt>
      <trkpt lat="45.20392" lon="5.73819">
        <ele>225.39999389648</ele>
        <time>2026-08-12T13:09:34.000Z</time>
      </trkpt>
      <trkpt lat="45.2039" lon="5.73822">
        <ele>225.39999389648</ele>
        <time>2026-08-12T13:09:35.000Z</time>
      </trkpt>
      <trkpt lat="45.20388" lon="5.73824">
        <ele>225.39999389648</ele>
        <time>2026-08-12T13:09:36.000Z</time>
      </trkpt>
      <trkpt lat="45.20386" lon="5.73827">
        <ele>225.19999694824</ele>
        <time>2026-08-12T13:09:37.000Z</time>
      </trkpt>
      <trkpt lat="45.20384" lon="5.73829">
        <ele>225.19999694824</ele>
        <time>2026-08-12T13:09:38.000Z</time>
      </trkpt>
      <trkpt lat="45.20382" lon="5.73832">
        <ele>225</ele>
        <time>2026-08-12T13:09:39.000Z</time>
      </trkpt>
      <trkpt lat="45.2038" lon="5.73834">
        <ele>225</ele>
        <time>2026-08-12T13:09:40.000Z</time>
      </trkpt>
      <trkpt lat="45.20378" lon="5.73836">
        <ele>225</ele>
        <time>2026-08-12T13:09:41.000Z</time>
      </trkpt>
      <trkpt lat="45.20376" lon="5.73838">
        <ele>225</ele>
        <time>2026-08-12T13:09:42.000Z</time>
      </trkpt>
      <trkpt lat="45.20374" lon="5.73841">
        <ele>225</ele>
        <time>2026-08-12T13:09:43.000Z</time>
      </trkpt>
      <trkpt lat="45.20372" lon="5.73843">
        <ele>225.19999694824</ele>
        <time>2026-08-12T13:09:44.000Z</time>
      </trkpt>
      <trkpt lat="45.2037" lon="5.73845">
        <ele>225.19999694824</ele>
        <time>2026-08-12T13:09:45.000Z</time>
      </trkpt>
      <trkpt lat="45.20368" lon="5.73848">
        <ele>225.19999694824</ele>
        <time>2026-08-12T13:09:46.000Z</time>
      </trkpt>
      <trkpt lat="45.20366" lon="5.7385">
        <ele>225.19999694824</ele>
        <time>2026-08-12T13:09:47.000Z</time>
      </trkpt>
      <trkpt lat="45.20364" lon="5.73852">
        <ele>225</ele>
        <time>2026-08-12T13:09:48.000Z</time>
      </trkpt>
      <trkpt lat="45.20361" lon="5.73854">
        <ele>225</ele>
        <time>2026-08-12T13:09:49.000Z</time>
      </trkpt>
      <trkpt lat="45.20359" lon="5.73856">
        <ele>224.80000305176</ele>
        <time>2026-08-12T13:09:50.000Z</time>
      </trkpt>
      <trkpt lat="45.20357" lon="5.73858">
        <ele>224.39999389648</ele>
        <time>2026-08-12T13:09:51.000Z</time>
      </trkpt>
      <trkpt lat="45.20354" lon="5.73861">
        <ele>223.39999389648</ele>
        <time>2026-08-12T13:09:52.000Z</time>
      </trkpt>
      <trkpt lat="45.20352" lon="5.73864">
        <ele>223.19999694824</ele>
        <time>2026-08-12T13:09:53.000Z</time>
      </trkpt>
      <trkpt lat="45.2035" lon="5.73866">
        <ele>223</ele>
        <time>2026-08-12T13:09:54.000Z</time>
      </trkpt>
      <trkpt lat="45.20347" lon="5.73868">
        <ele>222</ele>
        <time>2026-08-12T13:09:55.000Z</time>
      </trkpt>
      <trkpt lat="45.20345" lon="5.7387">
        <ele>221.39999389648</ele>
        <time>2026-08-12T13:09:56.000Z</time>
      </trkpt>
      <trkpt lat="45.20343" lon="5.73872">
        <ele>220.80000305176</ele>
        <time>2026-08-12T13:09:57.000Z</time>
      </trkpt>
      <trkpt lat="45.2034" lon="5.73874">
        <ele>220.19999694824</ele>
        <time>2026-08-12T13:09:58.000Z</time>
      </trkpt>
      <trkpt lat="45.20338" lon="5.73876">
        <ele>219.60000610352</ele>
        <time>2026-08-12T13:09:59.000Z</time>
      </trkpt>
      <trkpt lat="45.20336" lon="5.73879">
        <ele>218.80000305176</ele>
        <time>2026-08-12T13:10:00.000Z</time>
      </trkpt>
      <trkpt lat="45.20334" lon="5.73881">
        <ele>218.60000610352</ele>
        <time>2026-08-12T13:10:01.000Z</time>
      </trkpt>
      <trkpt lat="45.20331" lon="5.73883">
        <ele>218.19999694824</ele>
        <time>2026-08-12T13:10:02.000Z</time>
      </trkpt>
      <trkpt lat="45.20328" lon="5.73886">
        <ele>218.19999694824</ele>
        <time>2026-08-12T13:10:03.000Z</time>
      </trkpt>
      <trkpt lat="45.20325" lon="5.73889">
        <ele>217.39999389648</ele>
        <time>2026-08-12T13:10:04.000Z</time>
      </trkpt>
      <trkpt lat="45.20322" lon="5.73891">
        <ele>217.39999389648</ele>
        <time>2026-08-12T13:10:05.000Z</time>
      </trkpt>
      <trkpt lat="45.20318" lon="5.73891">
        <ele>217.80000305176</ele>
        <time>2026-08-12T13:10:06.000Z</time>
      </trkpt>
      <trkpt lat="45.20313" lon="5.73891">
        <ele>218</ele>
        <time>2026-08-12T13:10:07.000Z</time>
      </trkpt>
      <trkpt lat="45.20309" lon="5.7389">
        <ele>218.19999694824</ele>
        <time>2026-08-12T13:10:08.000Z</time>
      </trkpt>
      <trkpt lat="45.20305" lon="5.73887">
        <ele>218.60000610352</ele>
        <time>2026-08-12T13:10:09.000Z</time>
      </trkpt>
      <trkpt lat="45.20302" lon="5.73884">
        <ele>219.39999389648</ele>
        <time>2026-08-12T13:10:10.000Z</time>
      </trkpt>
      <trkpt lat="45.20299" lon="5.73879">
        <ele>219.60000610352</ele>
        <time>2026-08-12T13:10:11.000Z</time>
      </trkpt>
      <trkpt lat="45.20297" lon="5.73875">
        <ele>219.80000305176</ele>
        <time>2026-08-12T13:10:12.000Z</time>
      </trkpt>
      <trkpt lat="45.20296" lon="5.73871">
        <ele>220.39999389648</ele>
        <time>2026-08-12T13:10:13.000Z</time>
      </trkpt>
      <trkpt lat="45.20294" lon="5.73868">
        <ele>220.80000305176</ele>
        <time>2026-08-12T13:10:14.000Z</time>
      </trkpt>
      <trkpt lat="45.20293" lon="5.73865">
        <ele>221.19999694824</ele>
        <time>2026-08-12T13:10:15.000Z</time>
      </trkpt>
      <trkpt lat="45.20291" lon="5.73862">
        <ele>221.60000610352</ele>
        <time>2026-08-12T13:10:16.000Z</time>
      </trkpt>
      <trkpt lat="45.20289" lon="5.73858">
        <ele>221.39999389648</ele>
        <time>2026-08-12T13:10:17.000Z</time>
      </trkpt>
      <trkpt lat="45.20288" lon="5.73855">
        <ele>221.19999694824</ele>
        <time>2026-08-12T13:10:18.000Z</time>
      </trkpt>
      <trkpt lat="45.20287" lon="5.73851">
        <ele>221.19999694824</ele>
        <time>2026-08-12T13:10:19.000Z</time>
      </trkpt>
      <trkpt lat="45.20285" lon="5.73848">
        <ele>221.19999694824</ele>
        <time>2026-08-12T13:10:20.000Z</time>
      </trkpt>
      <trkpt lat="45.20284" lon="5.73844">
        <ele>221</ele>
        <time>2026-08-12T13:10:21.000Z</time>
      </trkpt>
      <trkpt lat="45.20283" lon="5.73842">
        <ele>220.80000305176</ele>
        <time>2026-08-12T13:10:22.000Z</time>
      </trkpt>
      <trkpt lat="45.20281" lon="5.73838">
        <ele>220.60000610352</ele>
        <time>2026-08-12T13:10:23.000Z</time>
      </trkpt>
      <trkpt lat="45.2028" lon="5.73834">
        <ele>220.60000610352</ele>
        <time>2026-08-12T13:10:24.000Z</time>
      </trkpt>
      <trkpt lat="45.20279" lon="5.73831">
        <ele>220.60000610352</ele>
        <time>2026-08-12T13:10:25.000Z</time>
      </trkpt>
      <trkpt lat="45.20278" lon="5.73828">
        <ele>220.60000610352</ele>
        <time>2026-08-12T13:10:26.000Z</time>
      </trkpt>
      <trkpt lat="45.20276" lon="5.73825">
        <ele>220.60000610352</ele>
        <time>2026-08-12T13:10:27.000Z</time>
      </trkpt>
      <trkpt lat="45.20274" lon="5.73822">
        <ele>220.60000610352</ele>
        <time>2026-08-12T13:10:28.000Z</time>
      </trkpt>
      <trkpt lat="45.20273" lon="5.73818">
        <ele>220.39999389648</ele>
        <time>2026-08-12T13:10:29.000Z</time>
      </trkpt>
      <trkpt lat="45.20273" lon="5.73815">
        <ele>219.80000305176</ele>
        <time>2026-08-12T13:10:30.000Z</time>
      </trkpt>
      <trkpt lat="45.20274" lon="5.7381">
        <ele>219.39999389648</ele>
        <time>2026-08-12T13:10:31.000Z</time>
      </trkpt>
      <trkpt lat="45.20275" lon="5.73807">
        <ele>218.80000305176</ele>
        <time>2026-08-12T13:10:32.000Z</time>
      </trkpt>
      <trkpt lat="45.20277" lon="5.73804">
        <ele>217.60000610352</ele>
        <time>2026-08-12T13:10:33.000Z</time>
      </trkpt>
      <trkpt lat="45.20279" lon="5.73802">
        <ele>217</ele>
        <time>2026-08-12T13:10:34.000Z</time>
      </trkpt>
      <trkpt lat="45.20281" lon="5.738">
        <ele>216.80000305176</ele>
        <time>2026-08-12T13:10:35.000Z</time>
      </trkpt>
      <trkpt lat="45.20283" lon="5.73798">
        <ele>216</ele>
        <time>2026-08-12T13:10:36.000Z</time>
      </trkpt>
      <trkpt lat="45.20284" lon="5.73797">
        <ele>215.60000610352</ele>
        <time>2026-08-12T13:10:37.000Z</time>
      </trkpt>
      <trkpt lat="45.20285" lon="5.73796">
        <ele>215.60000610352</ele>
        <time>2026-08-12T13:10:38.000Z</time>
      </trkpt>
      <trkpt lat="45.20287" lon="5.73794">
        <ele>215.39999389648</ele>
        <time>2026-08-12T13:10:39.000Z</time>
      </trkpt>
      <trkpt lat="45.20288" lon="5.73793">
        <ele>215.19999694824</ele>
        <time>2026-08-12T13:10:40.000Z</time>
      </trkpt>
      <trkpt lat="45.2029" lon="5.73791">
        <ele>216.19999694824</ele>
        <time>2026-08-12T13:10:41.000Z</time>
      </trkpt>
      <trkpt lat="45.20291" lon="5.7379">
        <ele>217.60000610352</ele>
        <time>2026-08-12T13:10:42.000Z</time>
      </trkpt>
      <trkpt lat="45.20293" lon="5.73789">
        <ele>219</ele>
        <time>2026-08-12T13:10:43.000Z</time>
      </trkpt>
      <trkpt lat="45.20294" lon="5.73787">
        <ele>219.60000610352</ele>
        <time>2026-08-12T13:10:44.000Z</time>
      </trkpt>
      <trkpt lat="45.20297" lon="5.73786">
        <ele>220.19999694824</ele>
        <time>2026-08-12T13:10:45.000Z</time>
      </trkpt>
      <trkpt lat="45.20299" lon="5.73786">
        <ele>220.39999389648</ele>
        <time>2026-08-12T13:10:46.000Z</time>
      </trkpt>
      <trkpt lat="45.203" lon="5.73786">
        <ele>220.60000610352</ele>
        <time>2026-08-12T13:10:47.000Z</time>
      </trkpt>
      <trkpt lat="45.20302" lon="5.73785">
        <ele>220.80000305176</ele>
        <time>2026-08-12T13:10:48.000Z</time>
      </trkpt>
      <trkpt lat="45.20304" lon="5.73784">
        <ele>221</ele>
        <time>2026-08-12T13:10:49.000Z</time>
      </trkpt>
      <trkpt lat="45.20305" lon="5.73782">
        <ele>221.60000610352</ele>
        <time>2026-08-12T13:10:50.000Z</time>
      </trkpt>
      <trkpt lat="45.20307" lon="5.73781">
        <ele>221.60000610352</ele>
        <time>2026-08-12T13:10:51.000Z</time>
      </trkpt>
      <trkpt lat="45.20309" lon="5.73779">
        <ele>221.60000610352</ele>
        <time>2026-08-12T13:10:52.000Z</time>
      </trkpt>
      <trkpt lat="45.20311" lon="5.73777">
        <ele>222</ele>
        <time>2026-08-12T13:10:53.000Z</time>
      </trkpt>
      <trkpt lat="45.20314" lon="5.73775">
        <ele>222.19999694824</ele>
        <time>2026-08-12T13:10:54.000Z</time>
      </trkpt>
      <trkpt lat="45.20315" lon="5.73773">
        <ele>222.80000305176</ele>
        <time>2026-08-12T13:10:55.000Z</time>
      </trkpt>
      <trkpt lat="45.20317" lon="5.73771">
        <ele>223.39999389648</ele>
        <time>2026-08-12T13:10:56.000Z</time>
      </trkpt>
      <trkpt lat="45.20319" lon="5.7377">
        <ele>223.80000305176</ele>
        <time>2026-08-12T13:10:57.000Z</time>
      </trkpt>
      <trkpt lat="45.20321" lon="5.73768">
        <ele>224.19999694824</ele>
        <time>2026-08-12T13:10:58.000Z</time>
      </trkpt>
      <trkpt lat="45.20323" lon="5.73766">
        <ele>224.39999389648</ele>
        <time>2026-08-12T13:10:59.000Z</time>
      </trkpt>
      <trkpt lat="45.20325" lon="5.73765">
        <ele>224.39999389648</ele>
        <time>2026-08-12T13:11:00.000Z</time>
      </trkpt>
      <trkpt lat="45.20327" lon="5.73762">
        <ele>224.39999389648</ele>
        <time>2026-08-12T13:11:01.000Z</time>
      </trkpt>
      <trkpt lat="45.20329" lon="5.7376">
        <ele>224.19999694824</ele>
        <time>2026-08-12T13:11:02.000Z</time>
      </trkpt>
      <trkpt lat="45.20331" lon="5.73758">
        <ele>224.19999694824</ele>
        <time>2026-08-12T13:11:03.000Z</time>
      </trkpt>
      <trkpt lat="45.20333" lon="5.73756">
        <ele>224.19999694824</ele>
        <time>2026-08-12T13:11:04.000Z</time>
      </trkpt>
      <trkpt lat="45.20335" lon="5.73754">
        <ele>224</ele>
        <time>2026-08-12T13:11:05.000Z</time>
      </trkpt>
      <trkpt lat="45.20337" lon="5.73753">
        <ele>223.80000305176</ele>
        <time>2026-08-12T13:11:06.000Z</time>
      </trkpt>
      <trkpt lat="45.20339" lon="5.73751">
        <ele>223.39999389648</ele>
        <time>2026-08-12T13:11:07.000Z</time>
      </trkpt>
      <trkpt lat="45.20341" lon="5.73749">
        <ele>222.60000610352</ele>
        <time>2026-08-12T13:11:08.000Z</time>
      </trkpt>
      <trkpt lat="45.20342" lon="5.73747">
        <ele>222.39999389648</ele>
        <time>2026-08-12T13:11:09.000Z</time>
      </trkpt>
      <trkpt lat="45.20345" lon="5.73746">
        <ele>222.39999389648</ele>
        <time>2026-08-12T13:11:10.000Z</time>
      </trkpt>
      <trkpt lat="45.20346" lon="5.73744">
        <ele>222.60000610352</ele>
        <time>2026-08-12T13:11:11.000Z</time>
      </trkpt>
      <trkpt lat="45.20349" lon="5.73742">
        <ele>222.60000610352</ele>
        <time>2026-08-12T13:11:12.000Z</time>
      </trkpt>
      <trkpt lat="45.20351" lon="5.7374">
        <ele>222.80000305176</ele>
        <time>2026-08-12T13:11:13.000Z</time>
      </trkpt>
      <trkpt lat="45.20352" lon="5.73738">
        <ele>222.60000610352</ele>
        <time>2026-08-12T13:11:14.000Z</time>
      </trkpt>
      <trkpt lat="45.20354" lon="5.73736">
        <ele>222.60000610352</ele>
        <time>2026-08-12T13:11:15.000Z</time>
      </trkpt>
      <trkpt lat="45.20355" lon="5.73734">
        <ele>222.39999389648</ele>
        <time>2026-08-12T13:11:16.000Z</time>
      </trkpt>
      <trkpt lat="45.20357" lon="5.73732">
        <ele>222.80000305176</ele>
        <time>2026-08-12T13:11:17.000Z</time>
      </trkpt>
      <trkpt lat="45.20359" lon="5.7373">
        <ele>223.39999389648</ele>
        <time>2026-08-12T13:11:18.000Z</time>
      </trkpt>
      <trkpt lat="45.2036" lon="5.73728">
        <ele>224.80000305176</ele>
        <time>2026-08-12T13:11:19.000Z</time>
      </trkpt>
      <trkpt lat="45.20363" lon="5.73726">
        <ele>225.80000305176</ele>
        <time>2026-08-12T13:11:20.000Z</time>
      </trkpt>
      <trkpt lat="45.20364" lon="5.73724">
        <ele>226.80000305176</ele>
        <time>2026-08-12T13:11:21.000Z</time>
      </trkpt>
      <trkpt lat="45.20367" lon="5.73722">
        <ele>227.19999694824</ele>
        <time>2026-08-12T13:11:22.000Z</time>
      </trkpt>
      <trkpt lat="45.20368" lon="5.7372">
        <ele>227.39999389648</ele>
        <time>2026-08-12T13:11:23.000Z</time>
      </trkpt>
      <trkpt lat="45.2037" lon="5.73718">
        <ele>226.80000305176</ele>
        <time>2026-08-12T13:11:24.000Z</time>
      </trkpt>
      <trkpt lat="45.20372" lon="5.73715">
        <ele>225.80000305176</ele>
        <time>2026-08-12T13:11:25.000Z</time>
      </trkpt>
      <trkpt lat="45.20373" lon="5.73713">
        <ele>225.39999389648</ele>
        <time>2026-08-12T13:11:26.000Z</time>
      </trkpt>
      <trkpt lat="45.20374" lon="5.7371">
        <ele>224.19999694824</ele>
        <time>2026-08-12T13:11:27.000Z</time>
      </trkpt>
      <trkpt lat="45.20376" lon="5.73707">
        <ele>224</ele>
        <time>2026-08-12T13:11:28.000Z</time>
      </trkpt>
      <trkpt lat="45.20377" lon="5.73705">
        <ele>223.60000610352</ele>
        <time>2026-08-12T13:11:29.000Z</time>
      </trkpt>
      <trkpt lat="45.20379" lon="5.73702">
        <ele>224.19999694824</ele>
        <time>2026-08-12T13:11:30.000Z</time>
      </trkpt>
      <trkpt lat="45.2038" lon="5.73699">
        <ele>224.60000610352</ele>
        <time>2026-08-12T13:11:31.000Z</time>
      </trkpt>
      <trkpt lat="45.20381" lon="5.73696">
        <ele>225.39999389648</ele>
        <time>2026-08-12T13:11:32.000Z</time>
      </trkpt>
      <trkpt lat="45.20382" lon="5.73693">
        <ele>226.19999694824</ele>
        <time>2026-08-12T13:11:33.000Z</time>
      </trkpt>
      <trkpt lat="45.20381" lon="5.73692">
        <ele>226.19999694824</ele>
        <time>2026-08-12T13:11:34.000Z</time>
      </trkpt>
      <trkpt lat="45.2038" lon="5.73691">
        <ele>226.19999694824</ele>
        <time>2026-08-12T13:11:35.000Z</time>
      </trkpt>
      <trkpt lat="45.20379" lon="5.73689">
        <ele>226.19999694824</ele>
        <time>2026-08-12T13:11:36.000Z</time>
      </trkpt>
      <trkpt lat="45.20377" lon="5.73688">
        <ele>226.39999389648</ele>
        <time>2026-08-12T13:11:37.000Z</time>
      </trkpt>
      <trkpt lat="45.20375" lon="5.73687">
        <ele>226.39999389648</ele>
        <time>2026-08-12T13:11:38.000Z</time>
      </trkpt>
      <trkpt lat="45.20373" lon="5.73685">
        <ele>226.80000305176</ele>
        <time>2026-08-12T13:11:39.000Z</time>
      </trkpt>
      <trkpt lat="45.20372" lon="5.73683">
        <ele>227.60000610352</ele>
        <time>2026-08-12T13:11:40.000Z</time>
      </trkpt>
      <trkpt lat="45.2037" lon="5.7368">
        <ele>228</ele>
        <time>2026-08-12T13:11:41.000Z</time>
      </trkpt>
      <trkpt lat="45.20368" lon="5.73678">
        <ele>228.19999694824</ele>
        <time>2026-08-12T13:11:42.000Z</time>
      </trkpt>
      <trkpt lat="45.20367" lon="5.73676">
        <ele>228.39999389648</ele>
        <time>2026-08-12T13:11:43.000Z</time>
      </trkpt>
      <trkpt lat="45.20365" lon="5.73674">
        <ele>228.80000305176</ele>
        <time>2026-08-12T13:11:44.000Z</time>
      </trkpt>
      <trkpt lat="45.20363" lon="5.73671">
        <ele>229.19999694824</ele>
        <time>2026-08-12T13:11:45.000Z</time>
      </trkpt>
      <trkpt lat="45.20361" lon="5.73668">
        <ele>229.19999694824</ele>
        <time>2026-08-12T13:11:46.000Z</time>
      </trkpt>
      <trkpt lat="45.20359" lon="5.73666">
        <ele>229.19999694824</ele>
        <time>2026-08-12T13:11:47.000Z</time>
      </trkpt>
      <trkpt lat="45.20357" lon="5.73663">
        <ele>229</ele>
        <time>2026-08-12T13:11:48.000Z</time>
      </trkpt>
      <trkpt lat="45.20355" lon="5.73661">
        <ele>228.80000305176</ele>
        <time>2026-08-12T13:11:49.000Z</time>
      </trkpt>
      <trkpt lat="45.20353" lon="5.73659">
        <ele>228</ele>
        <time>2026-08-12T13:11:50.000Z</time>
      </trkpt>
      <trkpt lat="45.20351" lon="5.73656">
        <ele>227.80000305176</ele>
        <time>2026-08-12T13:11:51.000Z</time>
      </trkpt>
      <trkpt lat="45.20349" lon="5.73654">
        <ele>227.60000610352</ele>
        <time>2026-08-12T13:11:52.000Z</time>
      </trkpt>
      <trkpt lat="45.20347" lon="5.73652">
        <ele>227.39999389648</ele>
        <time>2026-08-12T13:11:53.000Z</time>
      </trkpt>
      <trkpt lat="45.20346" lon="5.73649">
        <ele>227.19999694824</ele>
        <time>2026-08-12T13:11:54.000Z</time>
      </trkpt>
      <trkpt lat="45.20344" lon="5.73647">
        <ele>227.39999389648</ele>
        <time>2026-08-12T13:11:55.000Z</time>
      </trkpt>
      <trkpt lat="45.20342" lon="5.73644">
        <ele>227.60000610352</ele>
        <time>2026-08-12T13:11:56.000Z</time>
      </trkpt>
      <trkpt lat="45.20341" lon="5.73642">
        <ele>227.60000610352</ele>
        <time>2026-08-12T13:11:57.000Z</time>
      </trkpt>
      <trkpt lat="45.20339" lon="5.73639">
        <ele>227.60000610352</ele>
        <time>2026-08-12T13:11:58.000Z</time>
      </trkpt>
      <trkpt lat="45.20337" lon="5.73637">
        <ele>227.39999389648</ele>
        <time>2026-08-12T13:11:59.000Z</time>
      </trkpt>
      <trkpt lat="45.20336" lon="5.73634">
        <ele>227.19999694824</ele>
        <time>2026-08-12T13:12:00.000Z</time>
      </trkpt>
      <trkpt lat="45.20337" lon="5.73631">
        <ele>226.39999389648</ele>
        <time>2026-08-12T13:12:01.000Z</time>
      </trkpt>
      <trkpt lat="45.20337" lon="5.73628">
        <ele>225.80000305176</ele>
        <time>2026-08-12T13:12:02.000Z</time>
      </trkpt>
      <trkpt lat="45.20337" lon="5.73625">
        <ele>225.39999389648</ele>
        <time>2026-08-12T13:12:03.000Z</time>
      </trkpt>
      <trkpt lat="45.20336" lon="5.73622">
        <ele>225.39999389648</ele>
        <time>2026-08-12T13:12:04.000Z</time>
      </trkpt>
      <trkpt lat="45.20336" lon="5.73619">
        <ele>225.39999389648</ele>
        <time>2026-08-12T13:12:05.000Z</time>
      </trkpt>
      <trkpt lat="45.20335" lon="5.73616">
        <ele>225.60000610352</ele>
        <time>2026-08-12T13:12:06.000Z</time>
      </trkpt>
      <trkpt lat="45.20333" lon="5.73612">
        <ele>225.80000305176</ele>
        <time>2026-08-12T13:12:07.000Z</time>
      </trkpt>
      <trkpt lat="45.20331" lon="5.7361">
        <ele>226</ele>
        <time>2026-08-12T13:12:08.000Z</time>
      </trkpt>
      <trkpt lat="45.20329" lon="5.73608">
        <ele>226.39999389648</ele>
        <time>2026-08-12T13:12:09.000Z</time>
      </trkpt>
      <trkpt lat="45.20328" lon="5.73606">
        <ele>226.60000610352</ele>
        <time>2026-08-12T13:12:10.000Z</time>
      </trkpt>
      <trkpt lat="45.20326" lon="5.73603">
        <ele>227</ele>
        <time>2026-08-12T13:12:11.000Z</time>
      </trkpt>
      <trkpt lat="45.20324" lon="5.736">
        <ele>226.80000305176</ele>
        <time>2026-08-12T13:12:12.000Z</time>
      </trkpt>
      <trkpt lat="45.20322" lon="5.73598">
        <ele>226.39999389648</ele>
        <time>2026-08-12T13:12:13.000Z</time>
      </trkpt>
      <trkpt lat="45.20319" lon="5.73597">
        <ele>225.80000305176</ele>
        <time>2026-08-12T13:12:14.000Z</time>
      </trkpt>
      <trkpt lat="45.20317" lon="5.73597">
        <ele>225.19999694824</ele>
        <time>2026-08-12T13:12:15.000Z</time>
      </trkpt>
      <trkpt lat="45.20314" lon="5.73597">
        <ele>224.60000610352</ele>
        <time>2026-08-12T13:12:16.000Z</time>
      </trkpt>
      <trkpt lat="45.20312" lon="5.73599">
        <ele>224.60000610352</ele>
        <time>2026-08-12T13:12:17.000Z</time>
      </trkpt>
      <trkpt lat="45.20309" lon="5.73601">
        <ele>224.80000305176</ele>
        <time>2026-08-12T13:12:18.000Z</time>
      </trkpt>
      <trkpt lat="45.20307" lon="5.73603">
        <ele>225</ele>
        <time>2026-08-12T13:12:19.000Z</time>
      </trkpt>
      <trkpt lat="45.20305" lon="5.73607">
        <ele>225.19999694824</ele>
        <time>2026-08-12T13:12:20.000Z</time>
      </trkpt>
      <trkpt lat="45.20304" lon="5.73609">
        <ele>225.60000610352</ele>
        <time>2026-08-12T13:12:21.000Z</time>
      </trkpt>
      <trkpt lat="45.20301" lon="5.73612">
        <ele>225.80000305176</ele>
        <time>2026-08-12T13:12:22.000Z</time>
      </trkpt>
      <trkpt lat="45.20299" lon="5.73615">
        <ele>226</ele>
        <time>2026-08-12T13:12:23.000Z</time>
      </trkpt>
      <trkpt lat="45.20297" lon="5.73619">
        <ele>226</ele>
        <time>2026-08-12T13:12:24.000Z</time>
      </trkpt>
      <trkpt lat="45.20295" lon="5.73621">
        <ele>226.19999694824</ele>
        <time>2026-08-12T13:12:25.000Z</time>
      </trkpt>
      <trkpt lat="45.20294" lon="5.73623">
        <ele>226.19999694824</ele>
        <time>2026-08-12T13:12:26.000Z</time>
      </trkpt>
      <trkpt lat="45.20292" lon="5.73626">
        <ele>226</ele>
        <time>2026-08-12T13:12:27.000Z</time>
      </trkpt>
      <trkpt lat="45.2029" lon="5.73628">
        <ele>226</ele>
        <time>2026-08-12T13:12:28.000Z</time>
      </trkpt>
      <trkpt lat="45.20288" lon="5.7363">
        <ele>225.60000610352</ele>
        <time>2026-08-12T13:12:29.000Z</time>
      </trkpt>
      <trkpt lat="45.20286" lon="5.73632">
        <ele>225.60000610352</ele>
        <time>2026-08-12T13:12:30.000Z</time>
      </trkpt>
      <trkpt lat="45.20285" lon="5.73634">
        <ele>225.19999694824</ele>
        <time>2026-08-12T13:12:31.000Z</time>
      </trkpt>
      <trkpt lat="45.20282" lon="5.73637">
        <ele>224.60000610352</ele>
        <time>2026-08-12T13:12:32.000Z</time>
      </trkpt>
      <trkpt lat="45.20281" lon="5.73638">
        <ele>224.19999694824</ele>
        <time>2026-08-12T13:12:33.000Z</time>
      </trkpt>
      <trkpt lat="45.20279" lon="5.73641">
        <ele>224</ele>
        <time>2026-08-12T13:12:34.000Z</time>
      </trkpt>
      <trkpt lat="45.20277" lon="5.73643">
        <ele>223.60000610352</ele>
        <time>2026-08-12T13:12:35.000Z</time>
      </trkpt>
      <trkpt lat="45.20275" lon="5.73645">
        <ele>223.19999694824</ele>
        <time>2026-08-12T13:12:36.000Z</time>
      </trkpt>
      <trkpt lat="45.20273" lon="5.73647">
        <ele>223</ele>
        <time>2026-08-12T13:12:37.000Z</time>
      </trkpt>
      <trkpt lat="45.20271" lon="5.7365">
        <ele>222.60000610352</ele>
        <time>2026-08-12T13:12:38.000Z</time>
      </trkpt>
      <trkpt lat="45.20269" lon="5.73652">
        <ele>222.39999389648</ele>
        <time>2026-08-12T13:12:39.000Z</time>
      </trkpt>
      <trkpt lat="45.20267" lon="5.73655">
        <ele>222.39999389648</ele>
        <time>2026-08-12T13:12:40.000Z</time>
      </trkpt>
      <trkpt lat="45.20265" lon="5.73658">
        <ele>222</ele>
        <time>2026-08-12T13:12:41.000Z</time>
      </trkpt>
      <trkpt lat="45.20263" lon="5.73661">
        <ele>221.80000305176</ele>
        <time>2026-08-12T13:12:42.000Z</time>
      </trkpt>
      <trkpt lat="45.2026" lon="5.73663">
        <ele>221.60000610352</ele>
        <time>2026-08-12T13:12:43.000Z</time>
      </trkpt>
      <trkpt lat="45.20257" lon="5.73665">
        <ele>221</ele>
        <time>2026-08-12T13:12:44.000Z</time>
      </trkpt>
      <trkpt lat="45.20254" lon="5.73663">
        <ele>220.39999389648</ele>
        <time>2026-08-12T13:12:45.000Z</time>
      </trkpt>
      <trkpt lat="45.20253" lon="5.73659">
        <ele>220.19999694824</ele>
        <time>2026-08-12T13:12:46.000Z</time>
      </trkpt>
      <trkpt lat="45.20253" lon="5.73656">
        <ele>219.80000305176</ele>
        <time>2026-08-12T13:12:47.000Z</time>
      </trkpt>
      <trkpt lat="45.20252" lon="5.73652">
        <ele>219.80000305176</ele>
        <time>2026-08-12T13:12:48.000Z</time>
      </trkpt>
      <trkpt lat="45.20251" lon="5.73648">
        <ele>219.80000305176</ele>
        <time>2026-08-12T13:12:49.000Z</time>
      </trkpt>
      <trkpt lat="45.20251" lon="5.73644">
        <ele>219.80000305176</ele>
        <time>2026-08-12T13:12:50.000Z</time>
      </trkpt>
      <trkpt lat="45.2025" lon="5.73641">
        <ele>219.80000305176</ele>
        <time>2026-08-12T13:12:51.000Z</time>
      </trkpt>
      <trkpt lat="45.20249" lon="5.73637">
        <ele>219.80000305176</ele>
        <time>2026-08-12T13:12:52.000Z</time>
      </trkpt>
      <trkpt lat="45.20249" lon="5.73634">
        <ele>220</ele>
        <time>2026-08-12T13:12:53.000Z</time>
      </trkpt>
      <trkpt lat="45.20247" lon="5.73631">
        <ele>220.19999694824</ele>
        <time>2026-08-12T13:12:54.000Z</time>
      </trkpt>
      <trkpt lat="45.20247" lon="5.73628">
        <ele>220.19999694824</ele>
        <time>2026-08-12T13:12:55.000Z</time>
      </trkpt>
      <trkpt lat="45.20246" lon="5.73625">
        <ele>220.39999389648</ele>
        <time>2026-08-12T13:12:56.000Z</time>
      </trkpt>
      <trkpt lat="45.20245" lon="5.73622">
        <ele>220.39999389648</ele>
        <time>2026-08-12T13:12:57.000Z</time>
      </trkpt>
      <trkpt lat="45.20244" lon="5.73619">
        <ele>220.19999694824</ele>
        <time>2026-08-12T13:12:58.000Z</time>
      </trkpt>
      <trkpt lat="45.20242" lon="5.73616">
        <ele>220.19999694824</ele>
        <time>2026-08-12T13:12:59.000Z</time>
      </trkpt>
      <trkpt lat="45.20241" lon="5.73614">
        <ele>220</ele>
        <time>2026-08-12T13:13:00.000Z</time>
      </trkpt>
      <trkpt lat="45.2024" lon="5.7361">
        <ele>219</ele>
        <time>2026-08-12T13:13:01.000Z</time>
      </trkpt>
      <trkpt lat="45.20239" lon="5.73608">
        <ele>217.80000305176</ele>
        <time>2026-08-12T13:13:02.000Z</time>
      </trkpt>
      <trkpt lat="45.20237" lon="5.73605">
        <ele>216.39999389648</ele>
        <time>2026-08-12T13:13:03.000Z</time>
      </trkpt>
      <trkpt lat="45.20236" lon="5.73602">
        <ele>216</ele>
        <time>2026-08-12T13:13:04.000Z</time>
      </trkpt>
      <trkpt lat="45.20235" lon="5.73599">
        <ele>215.39999389648</ele>
        <time>2026-08-12T13:13:05.000Z</time>
      </trkpt>
      <trkpt lat="45.20234" lon="5.73595">
        <ele>214.39999389648</ele>
        <time>2026-08-12T13:13:06.000Z</time>
      </trkpt>
      <trkpt lat="45.20234" lon="5.73592">
        <ele>213.39999389648</ele>
        <time>2026-08-12T13:13:07.000Z</time>
      </trkpt>
      <trkpt lat="45.20233" lon="5.73589">
        <ele>212.39999389648</ele>
        <time>2026-08-12T13:13:08.000Z</time>
      </trkpt>
      <trkpt lat="45.20234" lon="5.73584">
        <ele>212.39999389648</ele>
        <time>2026-08-12T13:13:09.000Z</time>
      </trkpt>
      <trkpt lat="45.20235" lon="5.73582">
        <ele>212.60000610352</ele>
        <time>2026-08-12T13:13:10.000Z</time>
      </trkpt>
      <trkpt lat="45.20237" lon="5.73579">
        <ele>213.19999694824</ele>
        <time>2026-08-12T13:13:11.000Z</time>
      </trkpt>
      <trkpt lat="45.20239" lon="5.73577">
        <ele>213.80000305176</ele>
        <time>2026-08-12T13:13:12.000Z</time>
      </trkpt>
      <trkpt lat="45.2024" lon="5.73575">
        <ele>215.39999389648</ele>
        <time>2026-08-12T13:13:13.000Z</time>
      </trkpt>
      <trkpt lat="45.20242" lon="5.73573">
        <ele>216.80000305176</ele>
        <time>2026-08-12T13:13:14.000Z</time>
      </trkpt>
      <trkpt lat="45.20245" lon="5.73571">
        <ele>218</ele>
        <time>2026-08-12T13:13:15.000Z</time>
      </trkpt>
      <trkpt lat="45.20247" lon="5.7357">
        <ele>218.80000305176</ele>
        <time>2026-08-12T13:13:16.000Z</time>
      </trkpt>
      <trkpt lat="45.20249" lon="5.73569">
        <ele>219.19999694824</ele>
        <time>2026-08-12T13:13:17.000Z</time>
      </trkpt>
      <trkpt lat="45.20251" lon="5.73568">
        <ele>219.80000305176</ele>
        <time>2026-08-12T13:13:18.000Z</time>
      </trkpt>
      <trkpt lat="45.20253" lon="5.73568">
        <ele>220.39999389648</ele>
        <time>2026-08-12T13:13:19.000Z</time>
      </trkpt>
      <trkpt lat="45.20256" lon="5.73567">
        <ele>220.80000305176</ele>
        <time>2026-08-12T13:13:20.000Z</time>
      </trkpt>
      <trkpt lat="45.20257" lon="5.73567">
        <ele>221</ele>
        <time>2026-08-12T13:13:21.000Z</time>
      </trkpt>
      <trkpt lat="45.20259" lon="5.73566">
        <ele>221</ele>
        <time>2026-08-12T13:13:22.000Z</time>
      </trkpt>
      <trkpt lat="45.20261" lon="5.73565">
        <ele>221</ele>
        <time>2026-08-12T13:13:23.000Z</time>
      </trkpt>
      <trkpt lat="45.20262" lon="5.73564">
        <ele>221</ele>
        <time>2026-08-12T13:13:24.000Z</time>
      </trkpt>
      <trkpt lat="45.20263" lon="5.73564">
        <ele>221</ele>
        <time>2026-08-12T13:13:25.000Z</time>
      </trkpt>
      <trkpt lat="45.20265" lon="5.73562">
        <ele>221.19999694824</ele>
        <time>2026-08-12T13:13:26.000Z</time>
      </trkpt>
      <trkpt lat="45.20267" lon="5.73561">
        <ele>221.80000305176</ele>
        <time>2026-08-12T13:13:27.000Z</time>
      </trkpt>
      <trkpt lat="45.20269" lon="5.7356">
        <ele>222.80000305176</ele>
        <time>2026-08-12T13:13:28.000Z</time>
      </trkpt>
      <trkpt lat="45.2027" lon="5.73558">
        <ele>223.39999389648</ele>
        <time>2026-08-12T13:13:29.000Z</time>
      </trkpt>
      <trkpt lat="45.20272" lon="5.73557">
        <ele>223.60000610352</ele>
        <time>2026-08-12T13:13:30.000Z</time>
      </trkpt>
      <trkpt lat="45.20274" lon="5.73556">
        <ele>224.19999694824</ele>
        <time>2026-08-12T13:13:31.000Z</time>
      </trkpt>
      <trkpt lat="45.20277" lon="5.73554">
        <ele>224</ele>
        <time>2026-08-12T13:13:32.000Z</time>
      </trkpt>
      <trkpt lat="45.20278" lon="5.73553">
        <ele>223.80000305176</ele>
        <time>2026-08-12T13:13:33.000Z</time>
      </trkpt>
      <trkpt lat="45.20278" lon="5.7355">
        <ele>223</ele>
        <time>2026-08-12T13:13:34.000Z</time>
      </trkpt>
      <trkpt lat="45.20277" lon="5.73548">
        <ele>221.80000305176</ele>
        <time>2026-08-12T13:13:35.000Z</time>
      </trkpt>
      <trkpt lat="45.20276" lon="5.73545">
        <ele>220.60000610352</ele>
        <time>2026-08-12T13:13:36.000Z</time>
      </trkpt>
      <trkpt lat="45.20278" lon="5.73543">
        <ele>220.60000610352</ele>
        <time>2026-08-12T13:13:37.000Z</time>
      </trkpt>
      <trkpt lat="45.2028" lon="5.73542">
        <ele>220.80000305176</ele>
        <time>2026-08-12T13:13:38.000Z</time>
      </trkpt>
      <trkpt lat="45.20282" lon="5.73543">
        <ele>221</ele>
        <time>2026-08-12T13:13:39.000Z</time>
      </trkpt>
      <trkpt lat="45.20284" lon="5.73544">
        <ele>221.39999389648</ele>
        <time>2026-08-12T13:13:40.000Z</time>
      </trkpt>
      <trkpt lat="45.20286" lon="5.73545">
        <ele>221.60000610352</ele>
        <time>2026-08-12T13:13:41.000Z</time>
      </trkpt>
      <trkpt lat="45.20288" lon="5.73548">
        <ele>221.80000305176</ele>
        <time>2026-08-12T13:13:42.000Z</time>
      </trkpt>
      <trkpt lat="45.20289" lon="5.73551">
        <ele>222.60000610352</ele>
        <time>2026-08-12T13:13:43.000Z</time>
      </trkpt>
      <trkpt lat="45.2029" lon="5.73553">
        <ele>223.80000305176</ele>
        <time>2026-08-12T13:13:44.000Z</time>
      </trkpt>
      <trkpt lat="45.20292" lon="5.73555">
        <ele>224.39999389648</ele>
        <time>2026-08-12T13:13:45.000Z</time>
      </trkpt>
      <trkpt lat="45.20294" lon="5.73558">
        <ele>224.60000610352</ele>
        <time>2026-08-12T13:13:46.000Z</time>
      </trkpt>
      <trkpt lat="45.20295" lon="5.73559">
        <ele>224.80000305176</ele>
        <time>2026-08-12T13:13:47.000Z</time>
      </trkpt>
      <trkpt lat="45.20297" lon="5.73561">
        <ele>225.80000305176</ele>
        <time>2026-08-12T13:13:48.000Z</time>
      </trkpt>
      <trkpt lat="45.20298" lon="5.73562">
        <ele>226</ele>
        <time>2026-08-12T13:13:49.000Z</time>
      </trkpt>
      <trkpt lat="45.203" lon="5.73564">
        <ele>226</ele>
        <time>2026-08-12T13:13:50.000Z</time>
      </trkpt>
      <trkpt lat="45.20302" lon="5.73566">
        <ele>225.80000305176</ele>
        <time>2026-08-12T13:13:51.000Z</time>
      </trkpt>
      <trkpt lat="45.20303" lon="5.73567">
        <ele>225.60000610352</ele>
        <time>2026-08-12T13:13:52.000Z</time>
      </trkpt>
      <trkpt lat="45.20305" lon="5.73568">
        <ele>225.60000610352</ele>
        <time>2026-08-12T13:13:53.000Z</time>
      </trkpt>
      <trkpt lat="45.20307" lon="5.7357">
        <ele>225.60000610352</ele>
        <time>2026-08-12T13:13:54.000Z</time>
      </trkpt>
      <trkpt lat="45.20308" lon="5.73572">
        <ele>225.80000305176</ele>
        <time>2026-08-12T13:13:55.000Z</time>
      </trkpt>
      <trkpt lat="45.2031" lon="5.73574">
        <ele>226</ele>
        <time>2026-08-12T13:13:56.000Z</time>
      </trkpt>
      <trkpt lat="45.20312" lon="5.73576">
        <ele>226.19999694824</ele>
        <time>2026-08-12T13:13:57.000Z</time>
      </trkpt>
      <trkpt lat="45.20314" lon="5.73578">
        <ele>226.60000610352</ele>
        <time>2026-08-12T13:13:58.000Z</time>
      </trkpt>
      <trkpt lat="45.20315" lon="5.7358">
        <ele>227</ele>
        <time>2026-08-12T13:13:59.000Z</time>
      </trkpt>
      <trkpt lat="45.20317" lon="5.73582">
        <ele>227.19999694824</ele>
        <time>2026-08-12T13:14:00.000Z</time>
      </trkpt>
      <trkpt lat="45.20318" lon="5.73584">
        <ele>227.19999694824</ele>
        <time>2026-08-12T13:14:01.000Z</time>
      </trkpt>
      <trkpt lat="45.20319" lon="5.73585">
        <ele>227.39999389648</ele>
        <time>2026-08-12T13:14:02.000Z</time>
      </trkpt>
      <trkpt lat="45.20319" lon="5.73587">
        <ele>227.19999694824</ele>
        <time>2026-08-12T13:14:03.000Z</time>
      </trkpt>
      <trkpt lat="45.20318" lon="5.7359">
        <ele>227</ele>
        <time>2026-08-12T13:14:04.000Z</time>
      </trkpt>
      <trkpt lat="45.20317" lon="5.73592">
        <ele>226.60000610352</ele>
        <time>2026-08-12T13:14:05.000Z</time>
      </trkpt>
      <trkpt lat="45.20317" lon="5.73593">
        <ele>226.19999694824</ele>
        <time>2026-08-12T13:14:06.000Z</time>
      </trkpt>
      <trkpt lat="45.20317" lon="5.73594">
        <ele>225.39999389648</ele>
        <time>2026-08-12T13:14:07.000Z</time>
      </trkpt>
      <trkpt lat="45.20317" lon="5.73593">
        <ele>224.80000305176</ele>
        <time>2026-08-12T13:14:08.000Z</time>
      </trkpt>
      <trkpt lat="45.20317" lon="5.73593">
        <ele>224.19999694824</ele>
        <time>2026-08-12T13:14:09.000Z</time>
      </trkpt>
      <trkpt lat="45.20317" lon="5.73592">
        <ele>223.80000305176</ele>
        <time>2026-08-12T13:14:10.000Z</time>
      </trkpt>
      <trkpt lat="45.20317" lon="5.73592">
        <ele>223.39999389648</ele>
        <time>2026-08-12T13:14:11.000Z</time>
      </trkpt>
      <trkpt lat="45.20317" lon="5.73592">
        <ele>222.80000305176</ele>
        <time>2026-08-12T13:14:12.000Z</time>
      </trkpt>
      <trkpt lat="45.20317" lon="5.73592">
        <ele>222.19999694824</ele>
        <time>2026-08-12T13:14:13.000Z</time>
      </trkpt>
      <trkpt lat="45.20317" lon="5.73592">
        <ele>222</ele>
        <time>2026-08-12T13:14:14.000Z</time>
      </trkpt>
      <trkpt lat="45.20317" lon="5.73592">
        <ele>221.80000305176</ele>
        <time>2026-08-12T13:14:15.000Z</time>
      </trkpt>
      <trkpt lat="45.20316" lon="5.73591">
        <ele>221.80000305176</ele>
        <time>2026-08-12T13:14:16.000Z</time>
      </trkpt>
      <trkpt lat="45.20318" lon="5.73589">
        <ele>221.60000610352</ele>
        <time>2026-08-12T13:14:17.000Z</time>
      </trkpt>
      <trkpt lat="45.20318" lon="5.73587">
        <ele>221.60000610352</ele>
        <time>2026-08-12T13:14:18.000Z</time>
      </trkpt>
      <trkpt lat="45.2032" lon="5.73585">
        <ele>221.60000610352</ele>
        <time>2026-08-12T13:14:19.000Z</time>
      </trkpt>
      <trkpt lat="45.20321" lon="5.73584">
        <ele>221.80000305176</ele>
        <time>2026-08-12T13:14:20.000Z</time>
      </trkpt>
      <trkpt lat="45.20322" lon="5.73583">
        <ele>222.19999694824</ele>
        <time>2026-08-12T13:14:21.000Z</time>
      </trkpt>
      <trkpt lat="45.20323" lon="5.73582">
        <ele>222.80000305176</ele>
        <time>2026-08-12T13:14:22.000Z</time>
      </trkpt>
      <trkpt lat="45.20325" lon="5.73582">
        <ele>223.39999389648</ele>
        <time>2026-08-12T13:14:23.000Z</time>
      </trkpt>
      <trkpt lat="45.20326" lon="5.73581">
        <ele>223.39999389648</ele>
        <time>2026-08-12T13:14:24.000Z</time>
      </trkpt>
      <trkpt lat="45.20327" lon="5.73581">
        <ele>223.80000305176</ele>
        <time>2026-08-12T13:14:25.000Z</time>
      </trkpt>
      <trkpt lat="45.20328" lon="5.7358">
        <ele>224</ele>
        <time>2026-08-12T13:14:26.000Z</time>
      </trkpt>
      <trkpt lat="45.2033" lon="5.7358">
        <ele>224.19999694824</ele>
        <time>2026-08-12T13:14:27.000Z</time>
      </trkpt>
      <trkpt lat="45.20331" lon="5.7358">
        <ele>224.39999389648</ele>
        <time>2026-08-12T13:14:28.000Z</time>
      </trkpt>
      <trkpt lat="45.20333" lon="5.7358">
        <ele>224.60000610352</ele>
        <time>2026-08-12T13:14:29.000Z</time>
      </trkpt>
      <trkpt lat="45.20334" lon="5.73579">
        <ele>224.80000305176</ele>
        <time>2026-08-12T13:14:30.000Z</time>
      </trkpt>
      <trkpt lat="45.20336" lon="5.73577">
        <ele>224.80000305176</ele>
        <time>2026-08-12T13:14:31.000Z</time>
      </trkpt>
      <trkpt lat="45.20337" lon="5.73577">
        <ele>225</ele>
        <time>2026-08-12T13:14:32.000Z</time>
      </trkpt>
      <trkpt lat="45.20339" lon="5.73576">
        <ele>225.19999694824</ele>
        <time>2026-08-12T13:14:33.000Z</time>
      </trkpt>
      <trkpt lat="45.2034" lon="5.73575">
        <ele>225.39999389648</ele>
        <time>2026-08-12T13:14:34.000Z</time>
      </trkpt>
      <trkpt lat="45.20342" lon="5.73575">
        <ele>225.60000610352</ele>
        <time>2026-08-12T13:14:35.000Z</time>
      </trkpt>
      <trkpt lat="45.20343" lon="5.73574">
        <ele>225.80000305176</ele>
        <time>2026-08-12T13:14:36.000Z</time>
      </trkpt>
      <trkpt lat="45.20345" lon="5.73574">
        <ele>226.39999389648</ele>
        <time>2026-08-12T13:14:37.000Z</time>
      </trkpt>
      <trkpt lat="45.20346" lon="5.73574">
        <ele>226.80000305176</ele>
        <time>2026-08-12T13:14:38.000Z</time>
      </trkpt>
      <trkpt lat="45.20348" lon="5.73573">
        <ele>227.39999389648</ele>
        <time>2026-08-12T13:14:39.000Z</time>
      </trkpt>
      <trkpt lat="45.20349" lon="5.73573">
        <ele>228</ele>
        <time>2026-08-12T13:14:40.000Z</time>
      </trkpt>
      <trkpt lat="45.20351" lon="5.73573">
        <ele>229.39999389648</ele>
        <time>2026-08-12T13:14:41.000Z</time>
      </trkpt>
      <trkpt lat="45.20353" lon="5.73573">
        <ele>229.80000305176</ele>
        <time>2026-08-12T13:14:42.000Z</time>
      </trkpt>
      <trkpt lat="45.20355" lon="5.73572">
        <ele>230</ele>
        <time>2026-08-12T13:14:43.000Z</time>
      </trkpt>
      <trkpt lat="45.20356" lon="5.73572">
        <ele>230.19999694824</ele>
        <time>2026-08-12T13:14:44.000Z</time>
      </trkpt>
      <trkpt lat="45.20357" lon="5.73571">
        <ele>230.39999389648</ele>
        <time>2026-08-12T13:14:45.000Z</time>
      </trkpt>
      <trkpt lat="45.20359" lon="5.73569">
        <ele>230.39999389648</ele>
        <time>2026-08-12T13:14:46.000Z</time>
      </trkpt>
      <trkpt lat="45.2036" lon="5.73569">
        <ele>230.39999389648</ele>
        <time>2026-08-12T13:14:47.000Z</time>
      </trkpt>
      <trkpt lat="45.20362" lon="5.73568">
        <ele>230.39999389648</ele>
        <time>2026-08-12T13:14:48.000Z</time>
      </trkpt>
      <trkpt lat="45.20363" lon="5.73567">
        <ele>230.60000610352</ele>
        <time>2026-08-12T13:14:49.000Z</time>
      </trkpt>
      <trkpt lat="45.20365" lon="5.73566">
        <ele>230.80000305176</ele>
        <time>2026-08-12T13:14:50.000Z</time>
      </trkpt>
      <trkpt lat="45.20366" lon="5.73565">
        <ele>231.39999389648</ele>
        <time>2026-08-12T13:14:51.000Z</time>
      </trkpt>
      <trkpt lat="45.20367" lon="5.73564">
        <ele>232</ele>
        <time>2026-08-12T13:14:52.000Z</time>
      </trkpt>
      <trkpt lat="45.20369" lon="5.73564">
        <ele>233.19999694824</ele>
        <time>2026-08-12T13:14:53.000Z</time>
      </trkpt>
      <trkpt lat="45.2037" lon="5.73563">
        <ele>233.60000610352</ele>
        <time>2026-08-12T13:14:54.000Z</time>
      </trkpt>
      <trkpt lat="45.20371" lon="5.73562">
        <ele>234</ele>
        <time>2026-08-12T13:14:55.000Z</time>
      </trkpt>
      <trkpt lat="45.20373" lon="5.73561">
        <ele>234</ele>
        <time>2026-08-12T13:14:56.000Z</time>
      </trkpt>
      <trkpt lat="45.20374" lon="5.73561">
        <ele>234.80000305176</ele>
        <time>2026-08-12T13:14:57.000Z</time>
      </trkpt>
      <trkpt lat="45.20375" lon="5.7356">
        <ele>235.19999694824</ele>
        <time>2026-08-12T13:14:58.000Z</time>
      </trkpt>
      <trkpt lat="45.20376" lon="5.73559">
        <ele>235.39999389648</ele>
        <time>2026-08-12T13:14:59.000Z</time>
      </trkpt>
      <trkpt lat="45.20378" lon="5.73557">
        <ele>235.39999389648</ele>
        <time>2026-08-12T13:15:00.000Z</time>
      </trkpt>
      <trkpt lat="45.20379" lon="5.73556">
        <ele>235.39999389648</ele>
        <time>2026-08-12T13:15:01.000Z</time>
      </trkpt>
      <trkpt lat="45.20381" lon="5.73555">
        <ele>235.39999389648</ele>
        <time>2026-08-12T13:15:02.000Z</time>
      </trkpt>
      <trkpt lat="45.20382" lon="5.73554">
        <ele>235.39999389648</ele>
        <time>2026-08-12T13:15:03.000Z</time>
      </trkpt>
      <trkpt lat="45.20383" lon="5.73553">
        <ele>235.39999389648</ele>
        <time>2026-08-12T13:15:04.000Z</time>
      </trkpt>
      <trkpt lat="45.20385" lon="5.73552">
        <ele>235.39999389648</ele>
        <time>2026-08-12T13:15:05.000Z</time>
      </trkpt>
      <trkpt lat="45.20386" lon="5.73551">
        <ele>235.60000610352</ele>
        <time>2026-08-12T13:15:06.000Z</time>
      </trkpt>
      <trkpt lat="45.20387" lon="5.7355">
        <ele>236</ele>
        <time>2026-08-12T13:15:07.000Z</time>
      </trkpt>
      <trkpt lat="45.20388" lon="5.73549">
        <ele>236.19999694824</ele>
        <time>2026-08-12T13:15:08.000Z</time>
      </trkpt>
      <trkpt lat="45.2039" lon="5.73548">
        <ele>236.39999389648</ele>
        <time>2026-08-12T13:15:09.000Z</time>
      </trkpt>
      <trkpt lat="45.20391" lon="5.73547">
        <ele>236.39999389648</ele>
        <time>2026-08-12T13:15:10.000Z</time>
      </trkpt>
      <trkpt lat="45.20392" lon="5.73546">
        <ele>236.60000610352</ele>
        <time>2026-08-12T13:15:11.000Z</time>
      </trkpt>
      <trkpt lat="45.20393" lon="5.73545">
        <ele>236.60000610352</ele>
        <time>2026-08-12T13:15:12.000Z</time>
      </trkpt>
      <trkpt lat="45.20394" lon="5.73544">
        <ele>236.60000610352</ele>
        <time>2026-08-12T13:15:13.000Z</time>
      </trkpt>
      <trkpt lat="45.20395" lon="5.73543">
        <ele>236.60000610352</ele>
        <time>2026-08-12T13:15:14.000Z</time>
      </trkpt>
      <trkpt lat="45.20396" lon="5.73541">
        <ele>236.80000305176</ele>
        <time>2026-08-12T13:15:15.000Z</time>
      </trkpt>
      <trkpt lat="45.20398" lon="5.7354">
        <ele>237</ele>
        <time>2026-08-12T13:15:16.000Z</time>
      </trkpt>
      <trkpt lat="45.20398" lon="5.73539">
        <ele>237.39999389648</ele>
        <time>2026-08-12T13:15:17.000Z</time>
      </trkpt>
      <trkpt lat="45.20399" lon="5.73537">
        <ele>237.39999389648</ele>
        <time>2026-08-12T13:15:18.000Z</time>
      </trkpt>
      <trkpt lat="45.204" lon="5.73536">
        <ele>237.80000305176</ele>
        <time>2026-08-12T13:15:19.000Z</time>
      </trkpt>
      <trkpt lat="45.20401" lon="5.73535">
        <ele>237.80000305176</ele>
        <time>2026-08-12T13:15:20.000Z</time>
      </trkpt>
      <trkpt lat="45.20402" lon="5.73534">
        <ele>237.80000305176</ele>
        <time>2026-08-12T13:15:21.000Z</time>
      </trkpt>
      <trkpt lat="45.20403" lon="5.73532">
        <ele>237.80000305176</ele>
        <time>2026-08-12T13:15:22.000Z</time>
      </trkpt>
      <trkpt lat="45.20404" lon="5.73531">
        <ele>238</ele>
        <time>2026-08-12T13:15:23.000Z</time>
      </trkpt>
      <trkpt lat="45.20405" lon="5.7353">
        <ele>238</ele>
        <time>2026-08-12T13:15:24.000Z</time>
      </trkpt>
      <trkpt lat="45.20406" lon="5.73529">
        <ele>238.39999389648</ele>
        <time>2026-08-12T13:15:25.000Z</time>
      </trkpt>
      <trkpt lat="45.20407" lon="5.73528">
        <ele>238.39999389648</ele>
        <time>2026-08-12T13:15:26.000Z</time>
      </trkpt>
      <trkpt lat="45.20408" lon="5.73526">
        <ele>238.60000610352</ele>
        <time>2026-08-12T13:15:27.000Z</time>
      </trkpt>
      <trkpt lat="45.20409" lon="5.73525">
        <ele>238.80000305176</ele>
        <time>2026-08-12T13:15:28.000Z</time>
      </trkpt>
      <trkpt lat="45.2041" lon="5.73524">
        <ele>239</ele>
        <time>2026-08-12T13:15:29.000Z</time>
      </trkpt>
      <trkpt lat="45.2041" lon="5.73522">
        <ele>239.39999389648</ele>
        <time>2026-08-12T13:15:30.000Z</time>
      </trkpt>
      <trkpt lat="45.20411" lon="5.73521">
        <ele>239.60000610352</ele>
        <time>2026-08-12T13:15:31.000Z</time>
      </trkpt>
      <trkpt lat="45.20412" lon="5.7352">
        <ele>240</ele>
        <time>2026-08-12T13:15:32.000Z</time>
      </trkpt>
      <trkpt lat="45.20413" lon="5.73519">
        <ele>240</ele>
        <time>2026-08-12T13:15:33.000Z</time>
      </trkpt>
      <trkpt lat="45.20414" lon="5.73518">
        <ele>240</ele>
        <time>2026-08-12T13:15:34.000Z</time>
      </trkpt>
      <trkpt lat="45.20414" lon="5.73517">
        <ele>240</ele>
        <time>2026-08-12T13:15:35.000Z</time>
      </trkpt>
      <trkpt lat="45.20415" lon="5.73516">
        <ele>240</ele>
        <time>2026-08-12T13:15:36.000Z</time>
      </trkpt>
      <trkpt lat="45.20416" lon="5.73516">
        <ele>239.80000305176</ele>
        <time>2026-08-12T13:15:37.000Z</time>
      </trkpt>
      <trkpt lat="45.20416" lon="5.73515">
        <ele>239.60000610352</ele>
        <time>2026-08-12T13:15:38.000Z</time>
      </trkpt>
      <trkpt lat="45.20417" lon="5.73515">
        <ele>239.60000610352</ele>
        <time>2026-08-12T13:15:39.000Z</time>
      </trkpt>
      <trkpt lat="45.20418" lon="5.73515">
        <ele>239.39999389648</ele>
        <time>2026-08-12T13:15:40.000Z</time>
      </trkpt>
      <trkpt lat="45.20418" lon="5.73515">
        <ele>239.19999694824</ele>
        <time>2026-08-12T13:15:41.000Z</time>
      </trkpt>
      <trkpt lat="45.20419" lon="5.73515">
        <ele>239.19999694824</ele>
        <time>2026-08-12T13:15:42.000Z</time>
      </trkpt>
      <trkpt lat="45.2042" lon="5.73514">
        <ele>239.19999694824</ele>
        <time>2026-08-12T13:15:43.000Z</time>
      </trkpt>
      <trkpt lat="45.2042" lon="5.73514">
        <ele>239.19999694824</ele>
        <time>2026-08-12T13:15:44.000Z</time>
      </trkpt>
      <trkpt lat="45.20421" lon="5.73514">
        <ele>239.19999694824</ele>
        <time>2026-08-12T13:15:45.000Z</time>
      </trkpt>
      <trkpt lat="45.20422" lon="5.73513">
        <ele>239.19999694824</ele>
        <time>2026-08-12T13:15:46.000Z</time>
      </trkpt>
      <trkpt lat="45.20422" lon="5.73513">
        <ele>239</ele>
        <time>2026-08-12T13:15:47.000Z</time>
      </trkpt>
      <trkpt lat="45.20423" lon="5.73512">
        <ele>238.80000305176</ele>
        <time>2026-08-12T13:15:48.000Z</time>
      </trkpt>
      <trkpt lat="45.20424" lon="5.73511">
        <ele>238.60000610352</ele>
        <time>2026-08-12T13:15:49.000Z</time>
      </trkpt>
      <trkpt lat="45.20424" lon="5.73511">
        <ele>238.60000610352</ele>
        <time>2026-08-12T13:15:50.000Z</time>
      </trkpt>
      <trkpt lat="45.20425" lon="5.7351">
        <ele>238.39999389648</ele>
        <time>2026-08-12T13:15:51.000Z</time>
      </trkpt>
      <trkpt lat="45.20425" lon="5.7351">
        <ele>238.39999389648</ele>
        <time>2026-08-12T13:15:52.000Z</time>
      </trkpt>
      <trkpt lat="45.20426" lon="5.7351">
        <ele>238.39999389648</ele>
        <time>2026-08-12T13:15:53.000Z</time>
      </trkpt>
      <trkpt lat="45.20427" lon="5.73509">
        <ele>238.19999694824</ele>
        <time>2026-08-12T13:15:54.000Z</time>
      </trkpt>
      <trkpt lat="45.20427" lon="5.73508">
        <ele>238.19999694824</ele>
        <time>2026-08-12T13:15:55.000Z</time>
      </trkpt>
      <trkpt lat="45.20428" lon="5.73508">
        <ele>238.39999389648</ele>
        <time>2026-08-12T13:15:56.000Z</time>
      </trkpt>
      <trkpt lat="45.20429" lon="5.73507">
        <ele>240</ele>
        <time>2026-08-12T13:15:57.000Z</time>
      </trkpt>
      <trkpt lat="45.20429" lon="5.73507">
        <ele>241</ele>
        <time>2026-08-12T13:15:58.000Z</time>
      </trkpt>
      <trkpt lat="45.2043" lon="5.73506">
        <ele>241.39999389648</ele>
        <time>2026-08-12T13:15:59.000Z</time>
      </trkpt>
      <trkpt lat="45.20431" lon="5.73506">
        <ele>242.60000610352</ele>
        <time>2026-08-12T13:16:00.000Z</time>
      </trkpt>
      <trkpt lat="45.20432" lon="5.73506">
        <ele>243.39999389648</ele>
        <time>2026-08-12T13:16:01.000Z</time>
      </trkpt>
      <trkpt lat="45.20433" lon="5.73505">
        <ele>243.80000305176</ele>
        <time>2026-08-12T13:16:02.000Z</time>
      </trkpt>
      <trkpt lat="45.20434" lon="5.73506">
        <ele>244</ele>
        <time>2026-08-12T13:16:03.000Z</time>
      </trkpt>
      <trkpt lat="45.20435" lon="5.73507">
        <ele>244.39999389648</ele>
        <time>2026-08-12T13:16:04.000Z</time>
      </trkpt>
      <trkpt lat="45.20435" lon="5.73507">
        <ele>244.60000610352</ele>
        <time>2026-08-12T13:16:05.000Z</time>
      </trkpt>
      <trkpt lat="45.20437" lon="5.73508">
        <ele>245</ele>
        <time>2026-08-12T13:16:06.000Z</time>
      </trkpt>
      <trkpt lat="45.20438" lon="5.73509">
        <ele>245.80000305176</ele>
        <time>2026-08-12T13:16:07.000Z</time>
      </trkpt>
      <trkpt lat="45.2044" lon="5.7351">
        <ele>246.39999389648</ele>
        <time>2026-08-12T13:16:08.000Z</time>
      </trkpt>
      <trkpt lat="45.20441" lon="5.73511">
        <ele>246.60000610352</ele>
        <time>2026-08-12T13:16:09.000Z</time>
      </trkpt>
      <trkpt lat="45.20442" lon="5.73511">
        <ele>246.80000305176</ele>
        <time>2026-08-12T13:16:10.000Z</time>
      </trkpt>
      <trkpt lat="45.20442" lon="5.73512">
        <ele>247.19999694824</ele>
        <time>2026-08-12T13:16:11.000Z</time>
      </trkpt>
      <trkpt lat="45.20443" lon="5.73513">
        <ele>247.60000610352</ele>
        <time>2026-08-12T13:16:12.000Z</time>
      </trkpt>
      <trkpt lat="45.20444" lon="5.73514">
        <ele>247.60000610352</ele>
        <time>2026-08-12T13:16:13.000Z</time>
      </trkpt>
      <trkpt lat="45.20445" lon="5.73515">
        <ele>247.60000610352</ele>
        <time>2026-08-12T13:16:14.000Z</time>
      </trkpt>
      <trkpt lat="45.20446" lon="5.73517">
        <ele>247.60000610352</ele>
        <time>2026-08-12T13:16:15.000Z</time>
      </trkpt>
      <trkpt lat="45.20448" lon="5.73519">
        <ele>248.60000610352</ele>
        <time>2026-08-12T13:16:16.000Z</time>
      </trkpt>
      <trkpt lat="45.20449" lon="5.73521">
        <ele>249.80000305176</ele>
        <time>2026-08-12T13:16:17.000Z</time>
      </trkpt>
      <trkpt lat="45.2045" lon="5.73523">
        <ele>250.39999389648</ele>
        <time>2026-08-12T13:16:18.000Z</time>
      </trkpt>
      <trkpt lat="45.20452" lon="5.73525">
        <ele>251</ele>
        <time>2026-08-12T13:16:19.000Z</time>
      </trkpt>
      <trkpt lat="45.20453" lon="5.73528">
        <ele>251.19999694824</ele>
        <time>2026-08-12T13:16:20.000Z</time>
      </trkpt>
      <trkpt lat="45.20454" lon="5.73529">
        <ele>253</ele>
        <time>2026-08-12T13:16:21.000Z</time>
      </trkpt>
      <trkpt lat="45.20455" lon="5.73532">
        <ele>253.80000305176</ele>
        <time>2026-08-12T13:16:22.000Z</time>
      </trkpt>
      <trkpt lat="45.20456" lon="5.73534">
        <ele>255.19999694824</ele>
        <time>2026-08-12T13:16:23.000Z</time>
      </trkpt>
      <trkpt lat="45.20457" lon="5.73537">
        <ele>255.60000610352</ele>
        <time>2026-08-12T13:16:24.000Z</time>
      </trkpt>
      <trkpt lat="45.20458" lon="5.73539">
        <ele>255.39999389648</ele>
        <time>2026-08-12T13:16:25.000Z</time>
      </trkpt>
      <trkpt lat="45.20459" lon="5.73542">
        <ele>255</ele>
        <time>2026-08-12T13:16:26.000Z</time>
      </trkpt>
      <trkpt lat="45.20461" lon="5.73544">
        <ele>254.39999389648</ele>
        <time>2026-08-12T13:16:27.000Z</time>
      </trkpt>
      <trkpt lat="45.20462" lon="5.73546">
        <ele>254.19999694824</ele>
        <time>2026-08-12T13:16:28.000Z</time>
      </trkpt>
      <trkpt lat="45.20463" lon="5.73548">
        <ele>253.80000305176</ele>
        <time>2026-08-12T13:16:29.000Z</time>
      </trkpt>
      <trkpt lat="45.20464" lon="5.7355">
        <ele>253</ele>
        <time>2026-08-12T13:16:30.000Z</time>
      </trkpt>
      <trkpt lat="45.20466" lon="5.73553">
        <ele>253</ele>
        <time>2026-08-12T13:16:31.000Z</time>
      </trkpt>
      <trkpt lat="45.20468" lon="5.73554">
        <ele>252.60000610352</ele>
        <time>2026-08-12T13:16:32.000Z</time>
      </trkpt>
      <trkpt lat="45.20469" lon="5.73556">
        <ele>252.39999389648</ele>
        <time>2026-08-12T13:16:33.000Z</time>
      </trkpt>
      <trkpt lat="45.2047" lon="5.73556">
        <ele>252.19999694824</ele>
        <time>2026-08-12T13:16:34.000Z</time>
      </trkpt>
      <trkpt lat="45.20472" lon="5.73555">
        <ele>252</ele>
        <time>2026-08-12T13:16:35.000Z</time>
      </trkpt>
      <trkpt lat="45.20473" lon="5.73553">
        <ele>251.80000305176</ele>
        <time>2026-08-12T13:16:36.000Z</time>
      </trkpt>
      <trkpt lat="45.20474" lon="5.73552">
        <ele>251.60000610352</ele>
        <time>2026-08-12T13:16:37.000Z</time>
      </trkpt>
      <trkpt lat="45.20475" lon="5.73551">
        <ele>251.39999389648</ele>
        <time>2026-08-12T13:16:38.000Z</time>
      </trkpt>
      <trkpt lat="45.20475" lon="5.73549">
        <ele>251.39999389648</ele>
        <time>2026-08-12T13:16:39.000Z</time>
      </trkpt>
      <trkpt lat="45.20476" lon="5.73548">
        <ele>251.39999389648</ele>
        <time>2026-08-12T13:16:40.000Z</time>
      </trkpt>
      <trkpt lat="45.20477" lon="5.73547">
        <ele>251.39999389648</ele>
        <time>2026-08-12T13:16:41.000Z</time>
      </trkpt>
      <trkpt lat="45.20478" lon="5.73546">
        <ele>251.39999389648</ele>
        <time>2026-08-12T13:16:42.000Z</time>
      </trkpt>
      <trkpt lat="45.20479" lon="5.73545">
        <ele>251.39999389648</ele>
        <time>2026-08-12T13:16:43.000Z</time>
      </trkpt>
      <trkpt lat="45.20479" lon="5.73544">
        <ele>251.39999389648</ele>
        <time>2026-08-12T13:16:44.000Z</time>
      </trkpt>
      <trkpt lat="45.2048" lon="5.73544">
        <ele>251.39999389648</ele>
        <time>2026-08-12T13:16:45.000Z</time>
      </trkpt>
      <trkpt lat="45.20481" lon="5.73544">
        <ele>251.39999389648</ele>
        <time>2026-08-12T13:16:46.000Z</time>
      </trkpt>
      <trkpt lat="45.20482" lon="5.73543">
        <ele>251.60000610352</ele>
        <time>2026-08-12T13:16:47.000Z</time>
      </trkpt>
      <trkpt lat="45.20482" lon="5.73542">
        <ele>252.39999389648</ele>
        <time>2026-08-12T13:16:48.000Z</time>
      </trkpt>
      <trkpt lat="45.20483" lon="5.73541">
        <ele>252.80000305176</ele>
        <time>2026-08-12T13:16:49.000Z</time>
      </trkpt>
      <trkpt lat="45.20483" lon="5.73541">
        <ele>253</ele>
        <time>2026-08-12T13:16:50.000Z</time>
      </trkpt>
      <trkpt lat="45.20484" lon="5.7354">
        <ele>253.19999694824</ele>
        <time>2026-08-12T13:16:51.000Z</time>
      </trkpt>
      <trkpt lat="45.20484" lon="5.73539">
        <ele>253.60000610352</ele>
        <time>2026-08-12T13:16:52.000Z</time>
      </trkpt>
      <trkpt lat="45.20485" lon="5.73538">
        <ele>254.19999694824</ele>
        <time>2026-08-12T13:16:53.000Z</time>
      </trkpt>
      <trkpt lat="45.20486" lon="5.73537">
        <ele>254.60000610352</ele>
        <time>2026-08-12T13:16:54.000Z</time>
      </trkpt>
      <trkpt lat="45.20486" lon="5.73536">
        <ele>254.80000305176</ele>
        <time>2026-08-12T13:16:55.000Z</time>
      </trkpt>
      <trkpt lat="45.20487" lon="5.73535">
        <ele>255</ele>
        <time>2026-08-12T13:16:56.000Z</time>
      </trkpt>
      <trkpt lat="45.20488" lon="5.73534">
        <ele>255.19999694824</ele>
        <time>2026-08-12T13:16:57.000Z</time>
      </trkpt>
      <trkpt lat="45.20488" lon="5.73533">
        <ele>255.39999389648</ele>
        <time>2026-08-12T13:16:58.000Z</time>
      </trkpt>
      <trkpt lat="45.20489" lon="5.73533">
        <ele>255.39999389648</ele>
        <time>2026-08-12T13:16:59.000Z</time>
      </trkpt>
      <trkpt lat="45.2049" lon="5.73532">
        <ele>255.60000610352</ele>
        <time>2026-08-12T13:17:00.000Z</time>
      </trkpt>
      <trkpt lat="45.20491" lon="5.73531">
        <ele>255.80000305176</ele>
        <time>2026-08-12T13:17:01.000Z</time>
      </trkpt>
      <trkpt lat="45.20491" lon="5.7353">
        <ele>256</ele>
        <time>2026-08-12T13:17:02.000Z</time>
      </trkpt>
      <trkpt lat="45.20491" lon="5.7353">
        <ele>256</ele>
        <time>2026-08-12T13:17:03.000Z</time>
      </trkpt>
      <trkpt lat="45.20492" lon="5.7353">
        <ele>256.20001220703</ele>
        <time>2026-08-12T13:17:04.000Z</time>
      </trkpt>
      <trkpt lat="45.20493" lon="5.73529">
        <ele>256.39999389648</ele>
        <time>2026-08-12T13:17:05.000Z</time>
      </trkpt>
      <trkpt lat="45.20493" lon="5.73529">
        <ele>256.60000610352</ele>
        <time>2026-08-12T13:17:06.000Z</time>
      </trkpt>
      <trkpt lat="45.20493" lon="5.73529">
        <ele>256.79998779297</ele>
        <time>2026-08-12T13:17:07.000Z</time>
      </trkpt>
      <trkpt lat="45.20494" lon="5.73528">
        <ele>256.79998779297</ele>
        <time>2026-08-12T13:17:08.000Z</time>
      </trkpt>
      <trkpt lat="45.20495" lon="5.73527">
        <ele>257</ele>
        <time>2026-08-12T13:17:09.000Z</time>
      </trkpt>
      <trkpt lat="45.20495" lon="5.73527">
        <ele>257.20001220703</ele>
        <time>2026-08-12T13:17:10.000Z</time>
      </trkpt>
      <trkpt lat="45.20496" lon="5.73526">
        <ele>257.60000610352</ele>
        <time>2026-08-12T13:17:11.000Z</time>
      </trkpt>
      <trkpt lat="45.20496" lon="5.73525">
        <ele>257.79998779297</ele>
        <time>2026-08-12T13:17:12.000Z</time>
      </trkpt>
      <trkpt lat="45.20497" lon="5.73525">
        <ele>258.20001220703</ele>
        <time>2026-08-12T13:17:13.000Z</time>
      </trkpt>
      <trkpt lat="45.20498" lon="5.73524">
        <ele>258.39999389648</ele>
        <time>2026-08-12T13:17:14.000Z</time>
      </trkpt>
      <trkpt lat="45.20499" lon="5.73523">
        <ele>258.39999389648</ele>
        <time>2026-08-12T13:17:15.000Z</time>
      </trkpt>
      <trkpt lat="45.205" lon="5.73521">
        <ele>258.60000610352</ele>
        <time>2026-08-12T13:17:16.000Z</time>
      </trkpt>
      <trkpt lat="45.205" lon="5.73521">
        <ele>259</ele>
        <time>2026-08-12T13:17:17.000Z</time>
      </trkpt>
      <trkpt lat="45.205" lon="5.7352">
        <ele>259.39999389648</ele>
        <time>2026-08-12T13:17:18.000Z</time>
      </trkpt>
      <trkpt lat="45.20501" lon="5.73518">
        <ele>259.60000610352</ele>
        <time>2026-08-12T13:17:19.000Z</time>
      </trkpt>
      <trkpt lat="45.20501" lon="5.73518">
        <ele>259.79998779297</ele>
        <time>2026-08-12T13:17:20.000Z</time>
      </trkpt>
      <trkpt lat="45.20502" lon="5.73518">
        <ele>260.20001220703</ele>
        <time>2026-08-12T13:17:21.000Z</time>
      </trkpt>
      <trkpt lat="45.20502" lon="5.73517">
        <ele>260.39999389648</ele>
        <time>2026-08-12T13:17:22.000Z</time>
      </trkpt>
      <trkpt lat="45.20503" lon="5.73516">
        <ele>260.79998779297</ele>
        <time>2026-08-12T13:17:23.000Z</time>
      </trkpt>
      <trkpt lat="45.20503" lon="5.73516">
        <ele>261</ele>
        <time>2026-08-12T13:17:24.000Z</time>
      </trkpt>
      <trkpt lat="45.20504" lon="5.73515">
        <ele>261.60000610352</ele>
        <time>2026-08-12T13:17:25.000Z</time>
      </trkpt>
      <trkpt lat="45.20505" lon="5.73514">
        <ele>262</ele>
        <time>2026-08-12T13:17:26.000Z</time>
      </trkpt>
      <trkpt lat="45.20505" lon="5.73513">
        <ele>262.20001220703</ele>
        <time>2026-08-12T13:17:27.000Z</time>
      </trkpt>
      <trkpt lat="45.20506" lon="5.73513">
        <ele>262.39999389648</ele>
        <time>2026-08-12T13:17:28.000Z</time>
      </trkpt>
      <trkpt lat="45.20507" lon="5.73513">
        <ele>262.79998779297</ele>
        <time>2026-08-12T13:17:29.000Z</time>
      </trkpt>
      <trkpt lat="45.20508" lon="5.73513">
        <ele>262.79998779297</ele>
        <time>2026-08-12T13:17:30.000Z</time>
      </trkpt>
      <trkpt lat="45.20509" lon="5.73513">
        <ele>263.39999389648</ele>
        <time>2026-08-12T13:17:31.000Z</time>
      </trkpt>
      <trkpt lat="45.20511" lon="5.73514">
        <ele>263.79998779297</ele>
        <time>2026-08-12T13:17:32.000Z</time>
      </trkpt>
      <trkpt lat="45.20511" lon="5.73514">
        <ele>264.20001220703</ele>
        <time>2026-08-12T13:17:33.000Z</time>
      </trkpt>
      <trkpt lat="45.20512" lon="5.73514">
        <ele>264.60000610352</ele>
        <time>2026-08-12T13:17:34.000Z</time>
      </trkpt>
      <trkpt lat="45.20513" lon="5.73515">
        <ele>264.79998779297</ele>
        <time>2026-08-12T13:17:35.000Z</time>
      </trkpt>
      <trkpt lat="45.20514" lon="5.73515">
        <ele>265</ele>
        <time>2026-08-12T13:17:36.000Z</time>
      </trkpt>
      <trkpt lat="45.20515" lon="5.73515">
        <ele>265.20001220703</ele>
        <time>2026-08-12T13:17:37.000Z</time>
      </trkpt>
      <trkpt lat="45.20516" lon="5.73515">
        <ele>265.39999389648</ele>
        <time>2026-08-12T13:17:38.000Z</time>
      </trkpt>
      <trkpt lat="45.20516" lon="5.73516">
        <ele>265.60000610352</ele>
        <time>2026-08-12T13:17:39.000Z</time>
      </trkpt>
      <trkpt lat="45.20517" lon="5.73516">
        <ele>265.60000610352</ele>
        <time>2026-08-12T13:17:40.000Z</time>
      </trkpt>
      <trkpt lat="45.20518" lon="5.73516">
        <ele>265.60000610352</ele>
        <time>2026-08-12T13:17:41.000Z</time>
      </trkpt>
      <trkpt lat="45.20519" lon="5.73516">
        <ele>265.79998779297</ele>
        <time>2026-08-12T13:17:42.000Z</time>
      </trkpt>
      <trkpt lat="45.2052" lon="5.73517">
        <ele>265.79998779297</ele>
        <time>2026-08-12T13:17:43.000Z</time>
      </trkpt>
      <trkpt lat="45.20521" lon="5.73517">
        <ele>265.79998779297</ele>
        <time>2026-08-12T13:17:44.000Z</time>
      </trkpt>
      <trkpt lat="45.20522" lon="5.73517">
        <ele>266</ele>
        <time>2026-08-12T13:17:45.000Z</time>
      </trkpt>
      <trkpt lat="45.20522" lon="5.73517">
        <ele>266.39999389648</ele>
        <time>2026-08-12T13:17:46.000Z</time>
      </trkpt>
      <trkpt lat="45.20523" lon="5.73517">
        <ele>266.60000610352</ele>
        <time>2026-08-12T13:17:47.000Z</time>
      </trkpt>
      <trkpt lat="45.20523" lon="5.73517">
        <ele>267</ele>
        <time>2026-08-12T13:17:48.000Z</time>
      </trkpt>
      <trkpt lat="45.20524" lon="5.73517">
        <ele>267.20001220703</ele>
        <time>2026-08-12T13:17:49.000Z</time>
      </trkpt>
      <trkpt lat="45.20525" lon="5.73517">
        <ele>267.60000610352</ele>
        <time>2026-08-12T13:17:50.000Z</time>
      </trkpt>
      <trkpt lat="45.20526" lon="5.73517">
        <ele>268</ele>
        <time>2026-08-12T13:17:51.000Z</time>
      </trkpt>
      <trkpt lat="45.20526" lon="5.73517">
        <ele>268.20001220703</ele>
        <time>2026-08-12T13:17:52.000Z</time>
      </trkpt>
      <trkpt lat="45.20527" lon="5.73517">
        <ele>268.60000610352</ele>
        <time>2026-08-12T13:17:53.000Z</time>
      </trkpt>
      <trkpt lat="45.20527" lon="5.73516">
        <ele>269.20001220703</ele>
        <time>2026-08-12T13:17:54.000Z</time>
      </trkpt>
      <trkpt lat="45.20528" lon="5.73517">
        <ele>269.60000610352</ele>
        <time>2026-08-12T13:17:55.000Z</time>
      </trkpt>
      <trkpt lat="45.20528" lon="5.73517">
        <ele>270</ele>
        <time>2026-08-12T13:17:56.000Z</time>
      </trkpt>
      <trkpt lat="45.20529" lon="5.73516">
        <ele>270.39999389648</ele>
        <time>2026-08-12T13:17:57.000Z</time>
      </trkpt>
      <trkpt lat="45.2053" lon="5.73516">
        <ele>270.79998779297</ele>
        <time>2026-08-12T13:17:58.000Z</time>
      </trkpt>
      <trkpt lat="45.20531" lon="5.73517">
        <ele>271</ele>
        <time>2026-08-12T13:17:59.000Z</time>
      </trkpt>
      <trkpt lat="45.20531" lon="5.73517">
        <ele>271.20001220703</ele>
        <time>2026-08-12T13:18:00.000Z</time>
      </trkpt>
      <trkpt lat="45.20532" lon="5.73517">
        <ele>271.39999389648</ele>
        <time>2026-08-12T13:18:01.000Z</time>
      </trkpt>
      <trkpt lat="45.20533" lon="5.73517">
        <ele>271.79998779297</ele>
        <time>2026-08-12T13:18:02.000Z</time>
      </trkpt>
      <trkpt lat="45.20534" lon="5.73517">
        <ele>272.79998779297</ele>
        <time>2026-08-12T13:18:03.000Z</time>
      </trkpt>
      <trkpt lat="45.20535" lon="5.73517">
        <ele>273.20001220703</ele>
        <time>2026-08-12T13:18:04.000Z</time>
      </trkpt>
      <trkpt lat="45.20535" lon="5.73517">
        <ele>273.60000610352</ele>
        <time>2026-08-12T13:18:05.000Z</time>
      </trkpt>
      <trkpt lat="45.20536" lon="5.73517">
        <ele>273.79998779297</ele>
        <time>2026-08-12T13:18:06.000Z</time>
      </trkpt>
      <trkpt lat="45.20537" lon="5.73517">
        <ele>274</ele>
        <time>2026-08-12T13:18:07.000Z</time>
      </trkpt>
      <trkpt lat="45.20538" lon="5.73517">
        <ele>274</ele>
        <time>2026-08-12T13:18:08.000Z</time>
      </trkpt>
      <trkpt lat="45.20538" lon="5.73517">
        <ele>274.20001220703</ele>
        <time>2026-08-12T13:18:09.000Z</time>
      </trkpt>
      <trkpt lat="45.20539" lon="5.73517">
        <ele>274</ele>
        <time>2026-08-12T13:18:10.000Z</time>
      </trkpt>
      <trkpt lat="45.2054" lon="5.73517">
        <ele>274</ele>
        <time>2026-08-12T13:18:11.000Z</time>
      </trkpt>
      <trkpt lat="45.20541" lon="5.73517">
        <ele>274</ele>
        <time>2026-08-12T13:18:12.000Z</time>
      </trkpt>
      <trkpt lat="45.20542" lon="5.73517">
        <ele>274</ele>
        <time>2026-08-12T13:18:13.000Z</time>
      </trkpt>
      <trkpt lat="45.20543" lon="5.73517">
        <ele>273.79998779297</ele>
        <time>2026-08-12T13:18:14.000Z</time>
      </trkpt>
      <trkpt lat="45.20544" lon="5.73517">
        <ele>274</ele>
        <time>2026-08-12T13:18:15.000Z</time>
      </trkpt>
      <trkpt lat="45.20545" lon="5.73517">
        <ele>274.20001220703</ele>
        <time>2026-08-12T13:18:16.000Z</time>
      </trkpt>
      <trkpt lat="45.20545" lon="5.73517">
        <ele>274.39999389648</ele>
        <time>2026-08-12T13:18:17.000Z</time>
      </trkpt>
      <trkpt lat="45.20546" lon="5.73517">
        <ele>274.60000610352</ele>
        <time>2026-08-12T13:18:18.000Z</time>
      </trkpt>
      <trkpt lat="45.20547" lon="5.73518">
        <ele>274.79998779297</ele>
        <time>2026-08-12T13:18:19.000Z</time>
      </trkpt>
      <trkpt lat="45.20547" lon="5.73518">
        <ele>274.79998779297</ele>
        <time>2026-08-12T13:18:20.000Z</time>
      </trkpt>
      <trkpt lat="45.20548" lon="5.73518">
        <ele>275</ele>
        <time>2026-08-12T13:18:21.000Z</time>
      </trkpt>
      <trkpt lat="45.20549" lon="5.73517">
        <ele>275</ele>
        <time>2026-08-12T13:18:22.000Z</time>
      </trkpt>
      <trkpt lat="45.2055" lon="5.73517">
        <ele>275</ele>
        <time>2026-08-12T13:18:23.000Z</time>
      </trkpt>
      <trkpt lat="45.2055" lon="5.73517">
        <ele>274.79998779297</ele>
        <time>2026-08-12T13:18:24.000Z</time>
      </trkpt>
      <trkpt lat="45.20551" lon="5.73517">
        <ele>275</ele>
        <time>2026-08-12T13:18:25.000Z</time>
      </trkpt>
      <trkpt lat="45.20552" lon="5.73518">
        <ele>275</ele>
        <time>2026-08-12T13:18:26.000Z</time>
      </trkpt>
      <trkpt lat="45.20553" lon="5.73518">
        <ele>274.79998779297</ele>
        <time>2026-08-12T13:18:27.000Z</time>
      </trkpt>
      <trkpt lat="45.20554" lon="5.73518">
        <ele>274.79998779297</ele>
        <time>2026-08-12T13:18:28.000Z</time>
      </trkpt>
      <trkpt lat="45.20554" lon="5.73518">
        <ele>274.79998779297</ele>
        <time>2026-08-12T13:18:29.000Z</time>
      </trkpt>
      <trkpt lat="45.20555" lon="5.73518">
        <ele>274.60000610352</ele>
        <time>2026-08-12T13:18:30.000Z</time>
      </trkpt>
      <trkpt lat="45.20556" lon="5.73518">
        <ele>274.60000610352</ele>
        <time>2026-08-12T13:18:31.000Z</time>
      </trkpt>
      <trkpt lat="45.20556" lon="5.73518">
        <ele>274.39999389648</ele>
        <time>2026-08-12T13:18:32.000Z</time>
      </trkpt>
      <trkpt lat="45.20557" lon="5.73518">
        <ele>274.39999389648</ele>
        <time>2026-08-12T13:18:33.000Z</time>
      </trkpt>
      <trkpt lat="45.20558" lon="5.73519">
        <ele>274.39999389648</ele>
        <time>2026-08-12T13:18:34.000Z</time>
      </trkpt>
      <trkpt lat="45.20559" lon="5.73519">
        <ele>274.39999389648</ele>
        <time>2026-08-12T13:18:35.000Z</time>
      </trkpt>
      <trkpt lat="45.20559" lon="5.7352">
        <ele>275.20001220703</ele>
        <time>2026-08-12T13:18:36.000Z</time>
      </trkpt>
      <trkpt lat="45.2056" lon="5.73521">
        <ele>275.60000610352</ele>
        <time>2026-08-12T13:18:37.000Z</time>
      </trkpt>
      <trkpt lat="45.20561" lon="5.73521">
        <ele>276.20001220703</ele>
        <time>2026-08-12T13:18:38.000Z</time>
      </trkpt>
      <trkpt lat="45.20562" lon="5.73521">
        <ele>276.60000610352</ele>
        <time>2026-08-12T13:18:39.000Z</time>
      </trkpt>
      <trkpt lat="45.20562" lon="5.73521">
        <ele>276.79998779297</ele>
        <time>2026-08-12T13:18:40.000Z</time>
      </trkpt>
      <trkpt lat="45.20563" lon="5.73521">
        <ele>277.60000610352</ele>
        <time>2026-08-12T13:18:41.000Z</time>
      </trkpt>
      <trkpt lat="45.20564" lon="5.73521">
        <ele>278</ele>
        <time>2026-08-12T13:18:42.000Z</time>
      </trkpt>
      <trkpt lat="45.20564" lon="5.73521">
        <ele>278.39999389648</ele>
        <time>2026-08-12T13:18:43.000Z</time>
      </trkpt>
      <trkpt lat="45.20565" lon="5.73521">
        <ele>278.79998779297</ele>
        <time>2026-08-12T13:18:44.000Z</time>
      </trkpt>
      <trkpt lat="45.20565" lon="5.73521">
        <ele>278.79998779297</ele>
        <time>2026-08-12T13:18:45.000Z</time>
      </trkpt>
      <trkpt lat="45.20566" lon="5.73522">
        <ele>278.60000610352</ele>
        <time>2026-08-12T13:18:46.000Z</time>
      </trkpt>
      <trkpt lat="45.20566" lon="5.73522">
        <ele>278.60000610352</ele>
        <time>2026-08-12T13:18:47.000Z</time>
      </trkpt>
      <trkpt lat="45.20567" lon="5.73522">
        <ele>278.60000610352</ele>
        <time>2026-08-12T13:18:48.000Z</time>
      </trkpt>
      <trkpt lat="45.20568" lon="5.73522">
        <ele>278.39999389648</ele>
        <time>2026-08-12T13:18:49.000Z</time>
      </trkpt>
      <trkpt lat="45.20568" lon="5.73522">
        <ele>278.79998779297</ele>
        <time>2026-08-12T13:18:50.000Z</time>
      </trkpt>
      <trkpt lat="45.20569" lon="5.73522">
        <ele>279</ele>
        <time>2026-08-12T13:18:51.000Z</time>
      </trkpt>
      <trkpt lat="45.20569" lon="5.73522">
        <ele>279.60000610352</ele>
        <time>2026-08-12T13:18:52.000Z</time>
      </trkpt>
      <trkpt lat="45.20569" lon="5.73522">
        <ele>279.79998779297</ele>
        <time>2026-08-12T13:18:53.000Z</time>
      </trkpt>
      <trkpt lat="45.20569" lon="5.73523">
        <ele>280</ele>
        <time>2026-08-12T13:18:54.000Z</time>
      </trkpt>
      <trkpt lat="45.2057" lon="5.73523">
        <ele>280.60000610352</ele>
        <time>2026-08-12T13:18:55.000Z</time>
      </trkpt>
      <trkpt lat="45.2057" lon="5.73523">
        <ele>281</ele>
        <time>2026-08-12T13:18:56.000Z</time>
      </trkpt>
      <trkpt lat="45.20571" lon="5.73523">
        <ele>281.39999389648</ele>
        <time>2026-08-12T13:18:57.000Z</time>
      </trkpt>
      <trkpt lat="45.20571" lon="5.73524">
        <ele>281.60000610352</ele>
        <time>2026-08-12T13:18:58.000Z</time>
      </trkpt>
      <trkpt lat="45.20572" lon="5.73524">
        <ele>282</ele>
        <time>2026-08-12T13:18:59.000Z</time>
      </trkpt>
      <trkpt lat="45.20573" lon="5.73524">
        <ele>282.20001220703</ele>
        <time>2026-08-12T13:19:00.000Z</time>
      </trkpt>
      <trkpt lat="45.20574" lon="5.73524">
        <ele>282.60000610352</ele>
        <time>2026-08-12T13:19:01.000Z</time>
      </trkpt>
      <trkpt lat="45.20575" lon="5.73523">
        <ele>282.79998779297</ele>
        <time>2026-08-12T13:19:02.000Z</time>
      </trkpt>
      <trkpt lat="45.20576" lon="5.73523">
        <ele>282.60000610352</ele>
        <time>2026-08-12T13:19:03.000Z</time>
      </trkpt>
      <trkpt lat="45.20577" lon="5.73523">
        <ele>282.60000610352</ele>
        <time>2026-08-12T13:19:04.000Z</time>
      </trkpt>
      <trkpt lat="45.20577" lon="5.73523">
        <ele>282.60000610352</ele>
        <time>2026-08-12T13:19:05.000Z</time>
      </trkpt>
      <trkpt lat="45.20578" lon="5.73523">
        <ele>282.60000610352</ele>
        <time>2026-08-12T13:19:06.000Z</time>
      </trkpt>
      <trkpt lat="45.20579" lon="5.73523">
        <ele>282.79998779297</ele>
        <time>2026-08-12T13:19:07.000Z</time>
      </trkpt>
      <trkpt lat="45.20579" lon="5.73523">
        <ele>283.20001220703</ele>
        <time>2026-08-12T13:19:08.000Z</time>
      </trkpt>
      <trkpt lat="45.2058" lon="5.73523">
        <ele>283.39999389648</ele>
        <time>2026-08-12T13:19:09.000Z</time>
      </trkpt>
      <trkpt lat="45.20581" lon="5.73523">
        <ele>283.79998779297</ele>
        <time>2026-08-12T13:19:10.000Z</time>
      </trkpt>
      <trkpt lat="45.20582" lon="5.73522">
        <ele>285.20001220703</ele>
        <time>2026-08-12T13:19:11.000Z</time>
      </trkpt>
      <trkpt lat="45.20583" lon="5.73523">
        <ele>287</ele>
        <time>2026-08-12T13:19:12.000Z</time>
      </trkpt>
      <trkpt lat="45.20583" lon="5.73523">
        <ele>287.20001220703</ele>
        <time>2026-08-12T13:19:13.000Z</time>
      </trkpt>
      <trkpt lat="45.20584" lon="5.73523">
        <ele>287.39999389648</ele>
        <time>2026-08-12T13:19:14.000Z</time>
      </trkpt>
      <trkpt lat="45.20586" lon="5.73522">
        <ele>287.79998779297</ele>
        <time>2026-08-12T13:19:15.000Z</time>
      </trkpt>
      <trkpt lat="45.20587" lon="5.73522">
        <ele>288.60000610352</ele>
        <time>2026-08-12T13:19:16.000Z</time>
      </trkpt>
      <trkpt lat="45.20588" lon="5.73522">
        <ele>289.20001220703</ele>
        <time>2026-08-12T13:19:17.000Z</time>
      </trkpt>
      <trkpt lat="45.20589" lon="5.73522">
        <ele>289.60000610352</ele>
        <time>2026-08-12T13:19:18.000Z</time>
      </trkpt>
      <trkpt lat="45.20589" lon="5.73522">
        <ele>290</ele>
        <time>2026-08-12T13:19:19.000Z</time>
      </trkpt>
      <trkpt lat="45.2059" lon="5.73522">
        <ele>290.60000610352</ele>
        <time>2026-08-12T13:19:20.000Z</time>
      </trkpt>
      <trkpt lat="45.20591" lon="5.73522">
        <ele>291</ele>
        <time>2026-08-12T13:19:21.000Z</time>
      </trkpt>
      <trkpt lat="45.20592" lon="5.73522">
        <ele>291.39999389648</ele>
        <time>2026-08-12T13:19:22.000Z</time>
      </trkpt>
      <trkpt lat="45.20592" lon="5.73522">
        <ele>291.79998779297</ele>
        <time>2026-08-12T13:19:23.000Z</time>
      </trkpt>
      <trkpt lat="45.20593" lon="5.73522">
        <ele>292.20001220703</ele>
        <time>2026-08-12T13:19:24.000Z</time>
      </trkpt>
      <trkpt lat="45.20594" lon="5.73522">
        <ele>292.39999389648</ele>
        <time>2026-08-12T13:19:25.000Z</time>
      </trkpt>
      <trkpt lat="45.20594" lon="5.73522">
        <ele>292.60000610352</ele>
        <time>2026-08-12T13:19:26.000Z</time>
      </trkpt>
      <trkpt lat="45.20595" lon="5.73521">
        <ele>293</ele>
        <time>2026-08-12T13:19:27.000Z</time>
      </trkpt>
      <trkpt lat="45.20595" lon="5.73522">
        <ele>293.20001220703</ele>
        <time>2026-08-12T13:19:28.000Z</time>
      </trkpt>
      <trkpt lat="45.20596" lon="5.73522">
        <ele>293.39999389648</ele>
        <time>2026-08-12T13:19:29.000Z</time>
      </trkpt>
      <trkpt lat="45.20597" lon="5.73522">
        <ele>293.39999389648</ele>
        <time>2026-08-12T13:19:30.000Z</time>
      </trkpt>
      <trkpt lat="45.20597" lon="5.73522">
        <ele>293.60000610352</ele>
        <time>2026-08-12T13:19:31.000Z</time>
      </trkpt>
      <trkpt lat="45.20598" lon="5.73522">
        <ele>293.79998779297</ele>
        <time>2026-08-12T13:19:32.000Z</time>
      </trkpt>
      <trkpt lat="45.20599" lon="5.73522">
        <ele>294</ele>
        <time>2026-08-12T13:19:33.000Z</time>
      </trkpt>
      <trkpt lat="45.20599" lon="5.73522">
        <ele>294</ele>
        <time>2026-08-12T13:19:34.000Z</time>
      </trkpt>
      <trkpt lat="45.206" lon="5.73522">
        <ele>294</ele>
        <time>2026-08-12T13:19:35.000Z</time>
      </trkpt>
      <trkpt lat="45.20601" lon="5.73521">
        <ele>294</ele>
        <time>2026-08-12T13:19:36.000Z</time>
      </trkpt>
      <trkpt lat="45.20602" lon="5.73521">
        <ele>294</ele>
        <time>2026-08-12T13:19:37.000Z</time>
      </trkpt>
      <trkpt lat="45.20603" lon="5.73521">
        <ele>294</ele>
        <time>2026-08-12T13:19:38.000Z</time>
      </trkpt>
      <trkpt lat="45.20604" lon="5.7352">
        <ele>293.79998779297</ele>
        <time>2026-08-12T13:19:39.000Z</time>
      </trkpt>
      <trkpt lat="45.20604" lon="5.7352">
        <ele>293.79998779297</ele>
        <time>2026-08-12T13:19:40.000Z</time>
      </trkpt>
      <trkpt lat="45.20605" lon="5.7352">
        <ele>294</ele>
        <time>2026-08-12T13:19:41.000Z</time>
      </trkpt>
      <trkpt lat="45.20605" lon="5.7352">
        <ele>294</ele>
        <time>2026-08-12T13:19:42.000Z</time>
      </trkpt>
      <trkpt lat="45.20606" lon="5.7352">
        <ele>294.79998779297</ele>
        <time>2026-08-12T13:19:43.000Z</time>
      </trkpt>
      <trkpt lat="45.20606" lon="5.73519">
        <ele>295.39999389648</ele>
        <time>2026-08-12T13:19:44.000Z</time>
      </trkpt>
      <trkpt lat="45.20607" lon="5.73519">
        <ele>295.60000610352</ele>
        <time>2026-08-12T13:19:45.000Z</time>
      </trkpt>
      <trkpt lat="45.20608" lon="5.73519">
        <ele>295.79998779297</ele>
        <time>2026-08-12T13:19:46.000Z</time>
      </trkpt>
      <trkpt lat="45.20609" lon="5.7352">
        <ele>296.20001220703</ele>
        <time>2026-08-12T13:19:47.000Z</time>
      </trkpt>
      <trkpt lat="45.2061" lon="5.7352">
        <ele>296.39999389648</ele>
        <time>2026-08-12T13:19:48.000Z</time>
      </trkpt>
      <trkpt lat="45.20611" lon="5.73521">
        <ele>296.60000610352</ele>
        <time>2026-08-12T13:19:49.000Z</time>
      </trkpt>
      <trkpt lat="45.20612" lon="5.73521">
        <ele>297</ele>
        <time>2026-08-12T13:19:50.000Z</time>
      </trkpt>
      <trkpt lat="45.20613" lon="5.73521">
        <ele>297.20001220703</ele>
        <time>2026-08-12T13:19:51.000Z</time>
      </trkpt>
      <trkpt lat="45.20614" lon="5.73521">
        <ele>297</ele>
        <time>2026-08-12T13:19:52.000Z</time>
      </trkpt>
      <trkpt lat="45.20616" lon="5.73521">
        <ele>297</ele>
        <time>2026-08-12T13:19:53.000Z</time>
      </trkpt>
      <trkpt lat="45.20617" lon="5.73521">
        <ele>297</ele>
        <time>2026-08-12T13:19:54.000Z</time>
      </trkpt>
      <trkpt lat="45.20617" lon="5.73521">
        <ele>297.20001220703</ele>
        <time>2026-08-12T13:19:55.000Z</time>
      </trkpt>
      <trkpt lat="45.20618" lon="5.73521">
        <ele>297.20001220703</ele>
        <time>2026-08-12T13:19:56.000Z</time>
      </trkpt>
      <trkpt lat="45.20619" lon="5.73522">
        <ele>297.39999389648</ele>
        <time>2026-08-12T13:19:57.000Z</time>
      </trkpt>
      <trkpt lat="45.2062" lon="5.73522">
        <ele>297.60000610352</ele>
        <time>2026-08-12T13:19:58.000Z</time>
      </trkpt>
      <trkpt lat="45.20622" lon="5.73522">
        <ele>298.20001220703</ele>
        <time>2026-08-12T13:19:59.000Z</time>
      </trkpt>
      <trkpt lat="45.20623" lon="5.73522">
        <ele>298.20001220703</ele>
        <time>2026-08-12T13:20:00.000Z</time>
      </trkpt>
      <trkpt lat="45.20623" lon="5.73522">
        <ele>298.20001220703</ele>
        <time>2026-08-12T13:20:01.000Z</time>
      </trkpt>
      <trkpt lat="45.20624" lon="5.73522">
        <ele>298.60000610352</ele>
        <time>2026-08-12T13:20:02.000Z</time>
      </trkpt>
      <trkpt lat="45.20625" lon="5.73522">
        <ele>299</ele>
        <time>2026-08-12T13:20:03.000Z</time>
      </trkpt>
      <trkpt lat="45.20626" lon="5.73522">
        <ele>299.60000610352</ele>
        <time>2026-08-12T13:20:04.000Z</time>
      </trkpt>
      <trkpt lat="45.20627" lon="5.73522">
        <ele>299.60000610352</ele>
        <time>2026-08-12T13:20:05.000Z</time>
      </trkpt>
      <trkpt lat="45.20628" lon="5.73522">
        <ele>299.79998779297</ele>
        <time>2026-08-12T13:20:06.000Z</time>
      </trkpt>
      <trkpt lat="45.20629" lon="5.73522">
        <ele>299.79998779297</ele>
        <time>2026-08-12T13:20:07.000Z</time>
      </trkpt>
      <trkpt lat="45.2063" lon="5.73522">
        <ele>299.60000610352</ele>
        <time>2026-08-12T13:20:08.000Z</time>
      </trkpt>
      <trkpt lat="45.20631" lon="5.73522">
        <ele>299.60000610352</ele>
        <time>2026-08-12T13:20:09.000Z</time>
      </trkpt>
      <trkpt lat="45.20632" lon="5.73522">
        <ele>299.39999389648</ele>
        <time>2026-08-12T13:20:10.000Z</time>
      </trkpt>
      <trkpt lat="45.20633" lon="5.73523">
        <ele>299.79998779297</ele>
        <time>2026-08-12T13:20:11.000Z</time>
      </trkpt>
      <trkpt lat="45.20634" lon="5.73523">
        <ele>300.79998779297</ele>
        <time>2026-08-12T13:20:12.000Z</time>
      </trkpt>
      <trkpt lat="45.20636" lon="5.73523">
        <ele>301.79998779297</ele>
        <time>2026-08-12T13:20:13.000Z</time>
      </trkpt>
      <trkpt lat="45.20637" lon="5.73523">
        <ele>302.39999389648</ele>
        <time>2026-08-12T13:20:14.000Z</time>
      </trkpt>
      <trkpt lat="45.20638" lon="5.73523">
        <ele>303</ele>
        <time>2026-08-12T13:20:15.000Z</time>
      </trkpt>
      <trkpt lat="45.20639" lon="5.73524">
        <ele>303.39999389648</ele>
        <time>2026-08-12T13:20:16.000Z</time>
      </trkpt>
      <trkpt lat="45.2064" lon="5.73524">
        <ele>303.79998779297</ele>
        <time>2026-08-12T13:20:17.000Z</time>
      </trkpt>
      <trkpt lat="45.20641" lon="5.73525">
        <ele>304.20001220703</ele>
        <time>2026-08-12T13:20:18.000Z</time>
      </trkpt>
      <trkpt lat="45.20642" lon="5.73525">
        <ele>304.60000610352</ele>
        <time>2026-08-12T13:20:19.000Z</time>
      </trkpt>
      <trkpt lat="45.20643" lon="5.73525">
        <ele>304.60000610352</ele>
        <time>2026-08-12T13:20:20.000Z</time>
      </trkpt>
      <trkpt lat="45.20644" lon="5.73526">
        <ele>304.39999389648</ele>
        <time>2026-08-12T13:20:21.000Z</time>
      </trkpt>
      <trkpt lat="45.20644" lon="5.73526">
        <ele>304.20001220703</ele>
        <time>2026-08-12T13:20:22.000Z</time>
      </trkpt>
      <trkpt lat="45.20645" lon="5.73527">
        <ele>304.20001220703</ele>
        <time>2026-08-12T13:20:23.000Z</time>
      </trkpt>
      <trkpt lat="45.20646" lon="5.73527">
        <ele>304.79998779297</ele>
        <time>2026-08-12T13:20:24.000Z</time>
      </trkpt>
      <trkpt lat="45.20646" lon="5.73527">
        <ele>305</ele>
        <time>2026-08-12T13:20:25.000Z</time>
      </trkpt>
      <trkpt lat="45.20647" lon="5.73528">
        <ele>305.20001220703</ele>
        <time>2026-08-12T13:20:26.000Z</time>
      </trkpt>
      <trkpt lat="45.20649" lon="5.73528">
        <ele>305.60000610352</ele>
        <time>2026-08-12T13:20:27.000Z</time>
      </trkpt>
      <trkpt lat="45.20649" lon="5.73528">
        <ele>305.79998779297</ele>
        <time>2026-08-12T13:20:28.000Z</time>
      </trkpt>
      <trkpt lat="45.2065" lon="5.73529">
        <ele>306</ele>
        <time>2026-08-12T13:20:29.000Z</time>
      </trkpt>
      <trkpt lat="45.20651" lon="5.7353">
        <ele>306</ele>
        <time>2026-08-12T13:20:30.000Z</time>
      </trkpt>
      <trkpt lat="45.20651" lon="5.7353">
        <ele>306.20001220703</ele>
        <time>2026-08-12T13:20:31.000Z</time>
      </trkpt>
      <trkpt lat="45.20652" lon="5.7353">
        <ele>306.20001220703</ele>
        <time>2026-08-12T13:20:32.000Z</time>
      </trkpt>
      <trkpt lat="45.20653" lon="5.73531">
        <ele>305.79998779297</ele>
        <time>2026-08-12T13:20:33.000Z</time>
      </trkpt>
      <trkpt lat="45.20653" lon="5.73531">
        <ele>305.20001220703</ele>
        <time>2026-08-12T13:20:34.000Z</time>
      </trkpt>
      <trkpt lat="45.20654" lon="5.73531">
        <ele>305.20001220703</ele>
        <time>2026-08-12T13:20:35.000Z</time>
      </trkpt>
      <trkpt lat="45.20655" lon="5.73531">
        <ele>305</ele>
        <time>2026-08-12T13:20:36.000Z</time>
      </trkpt>
      <trkpt lat="45.20656" lon="5.73531">
        <ele>304.79998779297</ele>
        <time>2026-08-12T13:20:37.000Z</time>
      </trkpt>
      <trkpt lat="45.20657" lon="5.73531">
        <ele>304.79998779297</ele>
        <time>2026-08-12T13:20:38.000Z</time>
      </trkpt>
      <trkpt lat="45.20658" lon="5.73531">
        <ele>305</ele>
        <time>2026-08-12T13:20:39.000Z</time>
      </trkpt>
      <trkpt lat="45.2066" lon="5.73531">
        <ele>305.20001220703</ele>
        <time>2026-08-12T13:20:40.000Z</time>
      </trkpt>
      <trkpt lat="45.20661" lon="5.73531">
        <ele>305.39999389648</ele>
        <time>2026-08-12T13:20:41.000Z</time>
      </trkpt>
      <trkpt lat="45.20662" lon="5.73531">
        <ele>305.79998779297</ele>
        <time>2026-08-12T13:20:42.000Z</time>
      </trkpt>
      <trkpt lat="45.20662" lon="5.73531">
        <ele>306</ele>
        <time>2026-08-12T13:20:43.000Z</time>
      </trkpt>
      <trkpt lat="45.20663" lon="5.73532">
        <ele>306.39999389648</ele>
        <time>2026-08-12T13:20:44.000Z</time>
      </trkpt>
      <trkpt lat="45.20665" lon="5.73533">
        <ele>306.79998779297</ele>
        <time>2026-08-12T13:20:45.000Z</time>
      </trkpt>
      <trkpt lat="45.20666" lon="5.73535">
        <ele>307.20001220703</ele>
        <time>2026-08-12T13:20:46.000Z</time>
      </trkpt>
      <trkpt lat="45.20668" lon="5.73537">
        <ele>307.60000610352</ele>
        <time>2026-08-12T13:20:47.000Z</time>
      </trkpt>
      <trkpt lat="45.20669" lon="5.73539">
        <ele>309.20001220703</ele>
        <time>2026-08-12T13:20:48.000Z</time>
      </trkpt>
      <trkpt lat="45.20671" lon="5.73541">
        <ele>310.60000610352</ele>
        <time>2026-08-12T13:20:49.000Z</time>
      </trkpt>
      <trkpt lat="45.20673" lon="5.73542">
        <ele>310.79998779297</ele>
        <time>2026-08-12T13:20:50.000Z</time>
      </trkpt>
      <trkpt lat="45.20674" lon="5.73543">
        <ele>311.20001220703</ele>
        <time>2026-08-12T13:20:51.000Z</time>
      </trkpt>
      <trkpt lat="45.20676" lon="5.73544">
        <ele>311.39999389648</ele>
        <time>2026-08-12T13:20:52.000Z</time>
      </trkpt>
      <trkpt lat="45.20678" lon="5.73546">
        <ele>311.60000610352</ele>
        <time>2026-08-12T13:20:53.000Z</time>
      </trkpt>
      <trkpt lat="45.2068" lon="5.73547">
        <ele>311.79998779297</ele>
        <time>2026-08-12T13:20:54.000Z</time>
      </trkpt>
      <trkpt lat="45.20682" lon="5.73548">
        <ele>313</ele>
        <time>2026-08-12T13:20:55.000Z</time>
      </trkpt>
      <trkpt lat="45.20684" lon="5.7355">
        <ele>313.60000610352</ele>
        <time>2026-08-12T13:20:56.000Z</time>
      </trkpt>
      <trkpt lat="45.20686" lon="5.73551">
        <ele>314.20001220703</ele>
        <time>2026-08-12T13:20:57.000Z</time>
      </trkpt>
      <trkpt lat="45.20688" lon="5.73552">
        <ele>314.39999389648</ele>
        <time>2026-08-12T13:20:58.000Z</time>
      </trkpt>
      <trkpt lat="45.2069" lon="5.73553">
        <ele>314.20001220703</ele>
        <time>2026-08-12T13:20:59.000Z</time>
      </trkpt>
      <trkpt lat="45.20692" lon="5.73555">
        <ele>314</ele>
        <time>2026-08-12T13:21:00.000Z</time>
      </trkpt>
      <trkpt lat="45.20694" lon="5.73556">
        <ele>314</ele>
        <time>2026-08-12T13:21:01.000Z</time>
      </trkpt>
      <trkpt lat="45.20696" lon="5.73557">
        <ele>314</ele>
        <time>2026-08-12T13:21:02.000Z</time>
      </trkpt>
      <trkpt lat="45.20698" lon="5.73558">
        <ele>314</ele>
        <time>2026-08-12T13:21:03.000Z</time>
      </trkpt>
      <trkpt lat="45.20701" lon="5.7356">
        <ele>313.79998779297</ele>
        <time>2026-08-12T13:21:04.000Z</time>
      </trkpt>
      <trkpt lat="45.20703" lon="5.7356">
        <ele>313.60000610352</ele>
        <time>2026-08-12T13:21:05.000Z</time>
      </trkpt>
      <trkpt lat="45.20705" lon="5.7356">
        <ele>313.20001220703</ele>
        <time>2026-08-12T13:21:06.000Z</time>
      </trkpt>
      <trkpt lat="45.20707" lon="5.73561">
        <ele>312.20001220703</ele>
        <time>2026-08-12T13:21:07.000Z</time>
      </trkpt>
      <trkpt lat="45.20709" lon="5.73562">
        <ele>312.20001220703</ele>
        <time>2026-08-12T13:21:08.000Z</time>
      </trkpt>
      <trkpt lat="45.20711" lon="5.73564">
        <ele>312</ele>
        <time>2026-08-12T13:21:09.000Z</time>
      </trkpt>
      <trkpt lat="45.20713" lon="5.73564">
        <ele>311.60000610352</ele>
        <time>2026-08-12T13:21:10.000Z</time>
      </trkpt>
      <trkpt lat="45.20715" lon="5.73565">
        <ele>311.20001220703</ele>
        <time>2026-08-12T13:21:11.000Z</time>
      </trkpt>
      <trkpt lat="45.20717" lon="5.73567">
        <ele>311</ele>
        <time>2026-08-12T13:21:12.000Z</time>
      </trkpt>
      <trkpt lat="45.20719" lon="5.73567">
        <ele>311</ele>
        <time>2026-08-12T13:21:13.000Z</time>
      </trkpt>
      <trkpt lat="45.20722" lon="5.73569">
        <ele>311</ele>
        <time>2026-08-12T13:21:14.000Z</time>
      </trkpt>
      <trkpt lat="45.20724" lon="5.7357">
        <ele>310.79998779297</ele>
        <time>2026-08-12T13:21:15.000Z</time>
      </trkpt>
      <trkpt lat="45.20726" lon="5.73572">
        <ele>310.79998779297</ele>
        <time>2026-08-12T13:21:16.000Z</time>
      </trkpt>
      <trkpt lat="45.20728" lon="5.73573">
        <ele>310.79998779297</ele>
        <time>2026-08-12T13:21:17.000Z</time>
      </trkpt>
      <trkpt lat="45.2073" lon="5.73575">
        <ele>310.60000610352</ele>
        <time>2026-08-12T13:21:18.000Z</time>
      </trkpt>
      <trkpt lat="45.20733" lon="5.73577">
        <ele>310.60000610352</ele>
        <time>2026-08-12T13:21:19.000Z</time>
      </trkpt>
      <trkpt lat="45.20735" lon="5.73578">
        <ele>310.20001220703</ele>
        <time>2026-08-12T13:21:20.000Z</time>
      </trkpt>
      <trkpt lat="45.20737" lon="5.73581">
        <ele>310.20001220703</ele>
        <time>2026-08-12T13:21:21.000Z</time>
      </trkpt>
      <trkpt lat="45.20739" lon="5.73583">
        <ele>310</ele>
        <time>2026-08-12T13:21:22.000Z</time>
      </trkpt>
      <trkpt lat="45.20741" lon="5.73585">
        <ele>309.60000610352</ele>
        <time>2026-08-12T13:21:23.000Z</time>
      </trkpt>
      <trkpt lat="45.20743" lon="5.73588">
        <ele>309.39999389648</ele>
        <time>2026-08-12T13:21:24.000Z</time>
      </trkpt>
      <trkpt lat="45.20744" lon="5.7359">
        <ele>309</ele>
        <time>2026-08-12T13:21:25.000Z</time>
      </trkpt>
      <trkpt lat="45.20746" lon="5.73593">
        <ele>308.60000610352</ele>
        <time>2026-08-12T13:21:26.000Z</time>
      </trkpt>
      <trkpt lat="45.20748" lon="5.73595">
        <ele>308.20001220703</ele>
        <time>2026-08-12T13:21:27.000Z</time>
      </trkpt>
      <trkpt lat="45.20749" lon="5.73599">
        <ele>307.79998779297</ele>
        <time>2026-08-12T13:21:28.000Z</time>
      </trkpt>
      <trkpt lat="45.20751" lon="5.73602">
        <ele>307.79998779297</ele>
        <time>2026-08-12T13:21:29.000Z</time>
      </trkpt>
      <trkpt lat="45.20752" lon="5.73605">
        <ele>307.79998779297</ele>
        <time>2026-08-12T13:21:30.000Z</time>
      </trkpt>
      <trkpt lat="45.20754" lon="5.73608">
        <ele>307.79998779297</ele>
        <time>2026-08-12T13:21:31.000Z</time>
      </trkpt>
      <trkpt lat="45.20755" lon="5.7361">
        <ele>307.79998779297</ele>
        <time>2026-08-12T13:21:32.000Z</time>
      </trkpt>
      <trkpt lat="45.20757" lon="5.73613">
        <ele>308</ele>
        <time>2026-08-12T13:21:33.000Z</time>
      </trkpt>
      <trkpt lat="45.20758" lon="5.73616">
        <ele>308</ele>
        <time>2026-08-12T13:21:34.000Z</time>
      </trkpt>
      <trkpt lat="45.2076" lon="5.73619">
        <ele>307.79998779297</ele>
        <time>2026-08-12T13:21:35.000Z</time>
      </trkpt>
      <trkpt lat="45.20761" lon="5.73623">
        <ele>307.39999389648</ele>
        <time>2026-08-12T13:21:36.000Z</time>
      </trkpt>
      <trkpt lat="45.20761" lon="5.73627">
        <ele>306.60000610352</ele>
        <time>2026-08-12T13:21:37.000Z</time>
      </trkpt>
      <trkpt lat="45.20762" lon="5.73631">
        <ele>306</ele>
        <time>2026-08-12T13:21:38.000Z</time>
      </trkpt>
      <trkpt lat="45.20764" lon="5.73634">
        <ele>305.60000610352</ele>
        <time>2026-08-12T13:21:39.000Z</time>
      </trkpt>
      <trkpt lat="45.20764" lon="5.73638">
        <ele>305.20001220703</ele>
        <time>2026-08-12T13:21:40.000Z</time>
      </trkpt>
      <trkpt lat="45.20765" lon="5.73641">
        <ele>305</ele>
        <time>2026-08-12T13:21:41.000Z</time>
      </trkpt>
      <trkpt lat="45.20765" lon="5.73644">
        <ele>304.39999389648</ele>
        <time>2026-08-12T13:21:42.000Z</time>
      </trkpt>
      <trkpt lat="45.20766" lon="5.73648">
        <ele>304.39999389648</ele>
        <time>2026-08-12T13:21:43.000Z</time>
      </trkpt>
      <trkpt lat="45.20767" lon="5.73652">
        <ele>304.20001220703</ele>
        <time>2026-08-12T13:21:44.000Z</time>
      </trkpt>
      <trkpt lat="45.20767" lon="5.73656">
        <ele>304.20001220703</ele>
        <time>2026-08-12T13:21:45.000Z</time>
      </trkpt>
      <trkpt lat="45.20768" lon="5.73659">
        <ele>304.79998779297</ele>
        <time>2026-08-12T13:21:46.000Z</time>
      </trkpt>
      <trkpt lat="45.20768" lon="5.73663">
        <ele>305.20001220703</ele>
        <time>2026-08-12T13:21:47.000Z</time>
      </trkpt>
      <trkpt lat="45.20769" lon="5.73666">
        <ele>305.79998779297</ele>
        <time>2026-08-12T13:21:48.000Z</time>
      </trkpt>
      <trkpt lat="45.20769" lon="5.73669">
        <ele>306.20001220703</ele>
        <time>2026-08-12T13:21:49.000Z</time>
      </trkpt>
      <trkpt lat="45.20769" lon="5.73673">
        <ele>307</ele>
        <time>2026-08-12T13:21:50.000Z</time>
      </trkpt>
      <trkpt lat="45.2077" lon="5.73676">
        <ele>307.20001220703</ele>
        <time>2026-08-12T13:21:51.000Z</time>
      </trkpt>
      <trkpt lat="45.2077" lon="5.73679">
        <ele>307.20001220703</ele>
        <time>2026-08-12T13:21:52.000Z</time>
      </trkpt>
      <trkpt lat="45.2077" lon="5.73683">
        <ele>307.39999389648</ele>
        <time>2026-08-12T13:21:53.000Z</time>
      </trkpt>
      <trkpt lat="45.2077" lon="5.73686">
        <ele>307.39999389648</ele>
        <time>2026-08-12T13:21:54.000Z</time>
      </trkpt>
      <trkpt lat="45.2077" lon="5.7369">
        <ele>307.60000610352</ele>
        <time>2026-08-12T13:21:55.000Z</time>
      </trkpt>
      <trkpt lat="45.2077" lon="5.73693">
        <ele>307.60000610352</ele>
        <time>2026-08-12T13:21:56.000Z</time>
      </trkpt>
      <trkpt lat="45.2077" lon="5.73697">
        <ele>307.20001220703</ele>
        <time>2026-08-12T13:21:57.000Z</time>
      </trkpt>
      <trkpt lat="45.2077" lon="5.73701">
        <ele>307.20001220703</ele>
        <time>2026-08-12T13:21:58.000Z</time>
      </trkpt>
      <trkpt lat="45.2077" lon="5.73704">
        <ele>307.20001220703</ele>
        <time>2026-08-12T13:21:59.000Z</time>
      </trkpt>
      <trkpt lat="45.20771" lon="5.73707">
        <ele>307</ele>
        <time>2026-08-12T13:22:00.000Z</time>
      </trkpt>
      <trkpt lat="45.20772" lon="5.73709">
        <ele>306.79998779297</ele>
        <time>2026-08-12T13:22:01.000Z</time>
      </trkpt>
      <trkpt lat="45.20773" lon="5.73712">
        <ele>306.20001220703</ele>
        <time>2026-08-12T13:22:02.000Z</time>
      </trkpt>
      <trkpt lat="45.20773" lon="5.73715">
        <ele>306.20001220703</ele>
        <time>2026-08-12T13:22:03.000Z</time>
      </trkpt>
      <trkpt lat="45.20774" lon="5.73717">
        <ele>306</ele>
        <time>2026-08-12T13:22:04.000Z</time>
      </trkpt>
      <trkpt lat="45.20776" lon="5.7372">
        <ele>306</ele>
        <time>2026-08-12T13:22:05.000Z</time>
      </trkpt>
      <trkpt lat="45.20777" lon="5.73723">
        <ele>305.60000610352</ele>
        <time>2026-08-12T13:22:06.000Z</time>
      </trkpt>
      <trkpt lat="45.20778" lon="5.73726">
        <ele>305.60000610352</ele>
        <time>2026-08-12T13:22:07.000Z</time>
      </trkpt>
      <trkpt lat="45.20779" lon="5.73728">
        <ele>305.60000610352</ele>
        <time>2026-08-12T13:22:08.000Z</time>
      </trkpt>
      <trkpt lat="45.2078" lon="5.7373">
        <ele>305.39999389648</ele>
        <time>2026-08-12T13:22:09.000Z</time>
      </trkpt>
      <trkpt lat="45.20781" lon="5.73732">
        <ele>305.39999389648</ele>
        <time>2026-08-12T13:22:10.000Z</time>
      </trkpt>
      <trkpt lat="45.20781" lon="5.73733">
        <ele>305.39999389648</ele>
        <time>2026-08-12T13:22:11.000Z</time>
      </trkpt>
      <trkpt lat="45.20782" lon="5.73734">
        <ele>304.79998779297</ele>
        <time>2026-08-12T13:22:12.000Z</time>
      </trkpt>
      <trkpt lat="45.20783" lon="5.73735">
        <ele>304.39999389648</ele>
        <time>2026-08-12T13:22:13.000Z</time>
      </trkpt>
      <trkpt lat="45.20784" lon="5.73735">
        <ele>304</ele>
        <time>2026-08-12T13:22:14.000Z</time>
      </trkpt>
      <trkpt lat="45.20785" lon="5.73735">
        <ele>303.79998779297</ele>
        <time>2026-08-12T13:22:15.000Z</time>
      </trkpt>
      <trkpt lat="45.20785" lon="5.73734">
        <ele>303.20001220703</ele>
        <time>2026-08-12T13:22:16.000Z</time>
      </trkpt>
      <trkpt lat="45.20786" lon="5.73734">
        <ele>303</ele>
        <time>2026-08-12T13:22:17.000Z</time>
      </trkpt>
      <trkpt lat="45.20786" lon="5.73733">
        <ele>303</ele>
        <time>2026-08-12T13:22:18.000Z</time>
      </trkpt>
      <trkpt lat="45.20787" lon="5.73733">
        <ele>302.79998779297</ele>
        <time>2026-08-12T13:22:19.000Z</time>
      </trkpt>
      <trkpt lat="45.20788" lon="5.73732">
        <ele>302.79998779297</ele>
        <time>2026-08-12T13:22:20.000Z</time>
      </trkpt>
      <trkpt lat="45.20789" lon="5.73732">
        <ele>302.79998779297</ele>
        <time>2026-08-12T13:22:21.000Z</time>
      </trkpt>
      <trkpt lat="45.2079" lon="5.73731">
        <ele>302.60000610352</ele>
        <time>2026-08-12T13:22:22.000Z</time>
      </trkpt>
      <trkpt lat="45.2079" lon="5.73731">
        <ele>302.60000610352</ele>
        <time>2026-08-12T13:22:23.000Z</time>
      </trkpt>
      <trkpt lat="45.20791" lon="5.7373">
        <ele>302.39999389648</ele>
        <time>2026-08-12T13:22:24.000Z</time>
      </trkpt>
      <trkpt lat="45.20791" lon="5.7373">
        <ele>302.39999389648</ele>
        <time>2026-08-12T13:22:25.000Z</time>
      </trkpt>
      <trkpt lat="45.20792" lon="5.73729">
        <ele>302.20001220703</ele>
        <time>2026-08-12T13:22:26.000Z</time>
      </trkpt>
      <trkpt lat="45.20793" lon="5.73729">
        <ele>302.20001220703</ele>
        <time>2026-08-12T13:22:27.000Z</time>
      </trkpt>
      <trkpt lat="45.20794" lon="5.73728">
        <ele>302</ele>
        <time>2026-08-12T13:22:28.000Z</time>
      </trkpt>
      <trkpt lat="45.20795" lon="5.73728">
        <ele>302</ele>
        <time>2026-08-12T13:22:29.000Z</time>
      </trkpt>
      <trkpt lat="45.20796" lon="5.73727">
        <ele>302</ele>
        <time>2026-08-12T13:22:30.000Z</time>
      </trkpt>
      <trkpt lat="45.20797" lon="5.73726">
        <ele>302</ele>
        <time>2026-08-12T13:22:31.000Z</time>
      </trkpt>
      <trkpt lat="45.20798" lon="5.73726">
        <ele>302.39999389648</ele>
        <time>2026-08-12T13:22:32.000Z</time>
      </trkpt>
      <trkpt lat="45.20799" lon="5.73725">
        <ele>302.60000610352</ele>
        <time>2026-08-12T13:22:33.000Z</time>
      </trkpt>
      <trkpt lat="45.20799" lon="5.73726">
        <ele>302.60000610352</ele>
        <time>2026-08-12T13:22:34.000Z</time>
      </trkpt>
      <trkpt lat="45.208" lon="5.73725">
        <ele>302.79998779297</ele>
        <time>2026-08-12T13:22:35.000Z</time>
      </trkpt>
      <trkpt lat="45.20801" lon="5.73726">
        <ele>302.79998779297</ele>
        <time>2026-08-12T13:22:36.000Z</time>
      </trkpt>
      <trkpt lat="45.20802" lon="5.73725">
        <ele>302.79998779297</ele>
        <time>2026-08-12T13:22:37.000Z</time>
      </trkpt>
      <trkpt lat="45.20803" lon="5.73725">
        <ele>302.60000610352</ele>
        <time>2026-08-12T13:22:38.000Z</time>
      </trkpt>
      <trkpt lat="45.20804" lon="5.73724">
        <ele>302.39999389648</ele>
        <time>2026-08-12T13:22:39.000Z</time>
      </trkpt>
      <trkpt lat="45.20805" lon="5.73724">
        <ele>302.20001220703</ele>
        <time>2026-08-12T13:22:40.000Z</time>
      </trkpt>
      <trkpt lat="45.20805" lon="5.73724">
        <ele>302.20001220703</ele>
        <time>2026-08-12T13:22:41.000Z</time>
      </trkpt>
      <trkpt lat="45.20806" lon="5.73723">
        <ele>302.20001220703</ele>
        <time>2026-08-12T13:22:42.000Z</time>
      </trkpt>
      <trkpt lat="45.20806" lon="5.73723">
        <ele>302</ele>
        <time>2026-08-12T13:22:43.000Z</time>
      </trkpt>
      <trkpt lat="45.20807" lon="5.73723">
        <ele>302</ele>
        <time>2026-08-12T13:22:44.000Z</time>
      </trkpt>
      <trkpt lat="45.20808" lon="5.73723">
        <ele>301.79998779297</ele>
        <time>2026-08-12T13:22:45.000Z</time>
      </trkpt>
      <trkpt lat="45.20808" lon="5.73722">
        <ele>301.79998779297</ele>
        <time>2026-08-12T13:22:46.000Z</time>
      </trkpt>
      <trkpt lat="45.20809" lon="5.73722">
        <ele>301.60000610352</ele>
        <time>2026-08-12T13:22:47.000Z</time>
      </trkpt>
      <trkpt lat="45.2081" lon="5.73722">
        <ele>301.39999389648</ele>
        <time>2026-08-12T13:22:48.000Z</time>
      </trkpt>
      <trkpt lat="45.20811" lon="5.73721">
        <ele>301.60000610352</ele>
        <time>2026-08-12T13:22:49.000Z</time>
      </trkpt>
      <trkpt lat="45.20812" lon="5.73721">
        <ele>302</ele>
        <time>2026-08-12T13:22:50.000Z</time>
      </trkpt>
      <trkpt lat="45.20812" lon="5.73722">
        <ele>302.20001220703</ele>
        <time>2026-08-12T13:22:51.000Z</time>
      </trkpt>
      <trkpt lat="45.20813" lon="5.73723">
        <ele>302.39999389648</ele>
        <time>2026-08-12T13:22:52.000Z</time>
      </trkpt>
      <trkpt lat="45.20814" lon="5.73723">
        <ele>302.79998779297</ele>
        <time>2026-08-12T13:22:53.000Z</time>
      </trkpt>
      <trkpt lat="45.20815" lon="5.73725">
        <ele>303</ele>
        <time>2026-08-12T13:22:54.000Z</time>
      </trkpt>
      <trkpt lat="45.20815" lon="5.73726">
        <ele>303.39999389648</ele>
        <time>2026-08-12T13:22:55.000Z</time>
      </trkpt>
      <trkpt lat="45.20816" lon="5.73728">
        <ele>303.60000610352</ele>
        <time>2026-08-12T13:22:56.000Z</time>
      </trkpt>
      <trkpt lat="45.20817" lon="5.73729">
        <ele>305</ele>
        <time>2026-08-12T13:22:57.000Z</time>
      </trkpt>
      <trkpt lat="45.20818" lon="5.73731">
        <ele>305.60000610352</ele>
        <time>2026-08-12T13:22:58.000Z</time>
      </trkpt>
      <trkpt lat="45.20818" lon="5.73732">
        <ele>306</ele>
        <time>2026-08-12T13:22:59.000Z</time>
      </trkpt>
      <trkpt lat="45.20819" lon="5.73734">
        <ele>307</ele>
        <time>2026-08-12T13:23:00.000Z</time>
      </trkpt>
      <trkpt lat="45.2082" lon="5.73735">
        <ele>307.60000610352</ele>
        <time>2026-08-12T13:23:01.000Z</time>
      </trkpt>
      <trkpt lat="45.2082" lon="5.73737">
        <ele>308.39999389648</ele>
        <time>2026-08-12T13:23:02.000Z</time>
      </trkpt>
      <trkpt lat="45.20821" lon="5.73737">
        <ele>308.79998779297</ele>
        <time>2026-08-12T13:23:03.000Z</time>
      </trkpt>
      <trkpt lat="45.20822" lon="5.73738">
        <ele>309.20001220703</ele>
        <time>2026-08-12T13:23:04.000Z</time>
      </trkpt>
      <trkpt lat="45.20823" lon="5.73738">
        <ele>309.79998779297</ele>
        <time>2026-08-12T13:23:05.000Z</time>
      </trkpt>
      <trkpt lat="45.20824" lon="5.73738">
        <ele>309.79998779297</ele>
        <time>2026-08-12T13:23:06.000Z</time>
      </trkpt>
      <trkpt lat="45.20825" lon="5.73738">
        <ele>310.39999389648</ele>
        <time>2026-08-12T13:23:07.000Z</time>
      </trkpt>
      <trkpt lat="45.20826" lon="5.73737">
        <ele>310.60000610352</ele>
        <time>2026-08-12T13:23:08.000Z</time>
      </trkpt>
      <trkpt lat="45.20827" lon="5.73738">
        <ele>310.79998779297</ele>
        <time>2026-08-12T13:23:09.000Z</time>
      </trkpt>
      <trkpt lat="45.20827" lon="5.73738">
        <ele>311</ele>
        <time>2026-08-12T13:23:10.000Z</time>
      </trkpt>
      <trkpt lat="45.20828" lon="5.73738">
        <ele>311</ele>
        <time>2026-08-12T13:23:11.000Z</time>
      </trkpt>
      <trkpt lat="45.20829" lon="5.73738">
        <ele>311.20001220703</ele>
        <time>2026-08-12T13:23:12.000Z</time>
      </trkpt>
      <trkpt lat="45.2083" lon="5.73738">
        <ele>311.20001220703</ele>
        <time>2026-08-12T13:23:13.000Z</time>
      </trkpt>
      <trkpt lat="45.2083" lon="5.73738">
        <ele>311.39999389648</ele>
        <time>2026-08-12T13:23:14.000Z</time>
      </trkpt>
      <trkpt lat="45.2083" lon="5.73738">
        <ele>311.39999389648</ele>
        <time>2026-08-12T13:23:15.000Z</time>
      </trkpt>
      <trkpt lat="45.20831" lon="5.73739">
        <ele>311.60000610352</ele>
        <time>2026-08-12T13:23:16.000Z</time>
      </trkpt>
      <trkpt lat="45.20831" lon="5.73738">
        <ele>311.60000610352</ele>
        <time>2026-08-12T13:23:17.000Z</time>
      </trkpt>
      <trkpt lat="45.20831" lon="5.73738">
        <ele>311.79998779297</ele>
        <time>2026-08-12T13:23:18.000Z</time>
      </trkpt>
      <trkpt lat="45.20832" lon="5.73738">
        <ele>312</ele>
        <time>2026-08-12T13:23:19.000Z</time>
      </trkpt>
      <trkpt lat="45.20834" lon="5.73738">
        <ele>312</ele>
        <time>2026-08-12T13:23:20.000Z</time>
      </trkpt>
      <trkpt lat="45.20835" lon="5.73737">
        <ele>312.39999389648</ele>
        <time>2026-08-12T13:23:21.000Z</time>
      </trkpt>
      <trkpt lat="45.20836" lon="5.73737">
        <ele>312.60000610352</ele>
        <time>2026-08-12T13:23:22.000Z</time>
      </trkpt>
      <trkpt lat="45.20837" lon="5.73737">
        <ele>313</ele>
        <time>2026-08-12T13:23:23.000Z</time>
      </trkpt>
      <trkpt lat="45.20838" lon="5.73735">
        <ele>313.20001220703</ele>
        <time>2026-08-12T13:23:24.000Z</time>
      </trkpt>
      <trkpt lat="45.20838" lon="5.73734">
        <ele>313.39999389648</ele>
        <time>2026-08-12T13:23:25.000Z</time>
      </trkpt>
      <trkpt lat="45.20838" lon="5.73733">
        <ele>313.60000610352</ele>
        <time>2026-08-12T13:23:26.000Z</time>
      </trkpt>
      <trkpt lat="45.20839" lon="5.73731">
        <ele>313.79998779297</ele>
        <time>2026-08-12T13:23:27.000Z</time>
      </trkpt>
      <trkpt lat="45.20839" lon="5.7373">
        <ele>314.20001220703</ele>
        <time>2026-08-12T13:23:28.000Z</time>
      </trkpt>
      <trkpt lat="45.2084" lon="5.73728">
        <ele>314.60000610352</ele>
        <time>2026-08-12T13:23:29.000Z</time>
      </trkpt>
      <trkpt lat="45.2084" lon="5.73728">
        <ele>315.20001220703</ele>
        <time>2026-08-12T13:23:30.000Z</time>
      </trkpt>
      <trkpt lat="45.20841" lon="5.73727">
        <ele>315.60000610352</ele>
        <time>2026-08-12T13:23:31.000Z</time>
      </trkpt>
      <trkpt lat="45.20841" lon="5.73726">
        <ele>316.20001220703</ele>
        <time>2026-08-12T13:23:32.000Z</time>
      </trkpt>
      <trkpt lat="45.20842" lon="5.73725">
        <ele>316.60000610352</ele>
        <time>2026-08-12T13:23:33.000Z</time>
      </trkpt>
      <trkpt lat="45.20843" lon="5.73724">
        <ele>317.20001220703</ele>
        <time>2026-08-12T13:23:34.000Z</time>
      </trkpt>
      <trkpt lat="45.20844" lon="5.73724">
        <ele>317.39999389648</ele>
        <time>2026-08-12T13:23:35.000Z</time>
      </trkpt>
      <trkpt lat="45.20844" lon="5.73725">
        <ele>317.60000610352</ele>
        <time>2026-08-12T13:23:36.000Z</time>
      </trkpt>
      <trkpt lat="45.20845" lon="5.73727">
        <ele>317.79998779297</ele>
        <time>2026-08-12T13:23:37.000Z</time>
      </trkpt>
      <trkpt lat="45.20846" lon="5.73729">
        <ele>318.20001220703</ele>
        <time>2026-08-12T13:23:38.000Z</time>
      </trkpt>
      <trkpt lat="45.20847" lon="5.7373">
        <ele>318.39999389648</ele>
        <time>2026-08-12T13:23:39.000Z</time>
      </trkpt>
      <trkpt lat="45.20847" lon="5.73732">
        <ele>318</ele>
        <time>2026-08-12T13:23:40.000Z</time>
      </trkpt>
      <trkpt lat="45.20848" lon="5.73732">
        <ele>317.60000610352</ele>
        <time>2026-08-12T13:23:41.000Z</time>
      </trkpt>
      <trkpt lat="45.20849" lon="5.73732">
        <ele>317.60000610352</ele>
        <time>2026-08-12T13:23:42.000Z</time>
      </trkpt>
      <trkpt lat="45.2085" lon="5.73733">
        <ele>317.60000610352</ele>
        <time>2026-08-12T13:23:43.000Z</time>
      </trkpt>
      <trkpt lat="45.20851" lon="5.73733">
        <ele>317.60000610352</ele>
        <time>2026-08-12T13:23:44.000Z</time>
      </trkpt>
      <trkpt lat="45.20852" lon="5.73733">
        <ele>317.60000610352</ele>
        <time>2026-08-12T13:23:45.000Z</time>
      </trkpt>
      <trkpt lat="45.20852" lon="5.73733">
        <ele>317.79998779297</ele>
        <time>2026-08-12T13:23:46.000Z</time>
      </trkpt>
      <trkpt lat="45.20852" lon="5.73733">
        <ele>318</ele>
        <time>2026-08-12T13:23:47.000Z</time>
      </trkpt>
      <trkpt lat="45.20853" lon="5.73733">
        <ele>318</ele>
        <time>2026-08-12T13:23:48.000Z</time>
      </trkpt>
      <trkpt lat="45.20854" lon="5.73732">
        <ele>318.20001220703</ele>
        <time>2026-08-12T13:23:49.000Z</time>
      </trkpt>
      <trkpt lat="45.20855" lon="5.73732">
        <ele>318.20001220703</ele>
        <time>2026-08-12T13:23:50.000Z</time>
      </trkpt>
      <trkpt lat="45.20856" lon="5.73731">
        <ele>319</ele>
        <time>2026-08-12T13:23:51.000Z</time>
      </trkpt>
      <trkpt lat="45.20858" lon="5.7373">
        <ele>319.79998779297</ele>
        <time>2026-08-12T13:23:52.000Z</time>
      </trkpt>
      <trkpt lat="45.20859" lon="5.7373">
        <ele>320.60000610352</ele>
        <time>2026-08-12T13:23:53.000Z</time>
      </trkpt>
      <trkpt lat="45.20859" lon="5.73728">
        <ele>320.79998779297</ele>
        <time>2026-08-12T13:23:54.000Z</time>
      </trkpt>
      <trkpt lat="45.20859" lon="5.73727">
        <ele>321.20001220703</ele>
        <time>2026-08-12T13:23:55.000Z</time>
      </trkpt>
      <trkpt lat="45.20857" lon="5.73726">
        <ele>321.39999389648</ele>
        <time>2026-08-12T13:23:56.000Z</time>
      </trkpt>
      <trkpt lat="45.20856" lon="5.73724">
        <ele>322</ele>
        <time>2026-08-12T13:23:57.000Z</time>
      </trkpt>
      <trkpt lat="45.20856" lon="5.73722">
        <ele>323.79998779297</ele>
        <time>2026-08-12T13:23:58.000Z</time>
      </trkpt>
      <trkpt lat="45.20856" lon="5.7372">
        <ele>324.60000610352</ele>
        <time>2026-08-12T13:23:59.000Z</time>
      </trkpt>
      <trkpt lat="45.20857" lon="5.73718">
        <ele>324.79998779297</ele>
        <time>2026-08-12T13:24:00.000Z</time>
      </trkpt>
      <trkpt lat="45.20858" lon="5.73718">
        <ele>325.20001220703</ele>
        <time>2026-08-12T13:24:01.000Z</time>
      </trkpt>
      <trkpt lat="45.20858" lon="5.73719">
        <ele>325.39999389648</ele>
        <time>2026-08-12T13:24:02.000Z</time>
      </trkpt>
      <trkpt lat="45.20859" lon="5.73719">
        <ele>325.39999389648</ele>
        <time>2026-08-12T13:24:03.000Z</time>
      </trkpt>
      <trkpt lat="45.2086" lon="5.73718">
        <ele>325.39999389648</ele>
        <time>2026-08-12T13:24:04.000Z</time>
      </trkpt>
      <trkpt lat="45.20862" lon="5.73718">
        <ele>325.39999389648</ele>
        <time>2026-08-12T13:24:05.000Z</time>
      </trkpt>
      <trkpt lat="45.20863" lon="5.73718">
        <ele>325.39999389648</ele>
        <time>2026-08-12T13:24:06.000Z</time>
      </trkpt>
      <trkpt lat="45.20864" lon="5.73719">
        <ele>325.39999389648</ele>
        <time>2026-08-12T13:24:07.000Z</time>
      </trkpt>
      <trkpt lat="45.20865" lon="5.73719">
        <ele>325.60000610352</ele>
        <time>2026-08-12T13:24:08.000Z</time>
      </trkpt>
      <trkpt lat="45.20866" lon="5.73719">
        <ele>325.60000610352</ele>
        <time>2026-08-12T13:24:09.000Z</time>
      </trkpt>
      <trkpt lat="45.20866" lon="5.7372">
        <ele>325.60000610352</ele>
        <time>2026-08-12T13:24:10.000Z</time>
      </trkpt>
      <trkpt lat="45.20867" lon="5.73721">
        <ele>325.60000610352</ele>
        <time>2026-08-12T13:24:11.000Z</time>
      </trkpt>
      <trkpt lat="45.20868" lon="5.73721">
        <ele>325.20001220703</ele>
        <time>2026-08-12T13:24:12.000Z</time>
      </trkpt>
      <trkpt lat="45.20868" lon="5.73722">
        <ele>324.60000610352</ele>
        <time>2026-08-12T13:24:13.000Z</time>
      </trkpt>
      <trkpt lat="45.20869" lon="5.73723">
        <ele>324.39999389648</ele>
        <time>2026-08-12T13:24:14.000Z</time>
      </trkpt>
      <trkpt lat="45.2087" lon="5.73723">
        <ele>324</ele>
        <time>2026-08-12T13:24:15.000Z</time>
      </trkpt>
      <trkpt lat="45.20871" lon="5.73724">
        <ele>323.60000610352</ele>
        <time>2026-08-12T13:24:16.000Z</time>
      </trkpt>
      <trkpt lat="45.20872" lon="5.73725">
        <ele>323.39999389648</ele>
        <time>2026-08-12T13:24:17.000Z</time>
      </trkpt>
      <trkpt lat="45.20872" lon="5.73726">
        <ele>323</ele>
        <time>2026-08-12T13:24:18.000Z</time>
      </trkpt>
      <trkpt lat="45.20872" lon="5.73727">
        <ele>321.79998779297</ele>
        <time>2026-08-12T13:24:19.000Z</time>
      </trkpt>
      <trkpt lat="45.20873" lon="5.73727">
        <ele>321.60000610352</ele>
        <time>2026-08-12T13:24:20.000Z</time>
      </trkpt>
      <trkpt lat="45.20874" lon="5.73727">
        <ele>321.20001220703</ele>
        <time>2026-08-12T13:24:21.000Z</time>
      </trkpt>
      <trkpt lat="45.20875" lon="5.73728">
        <ele>321.60000610352</ele>
        <time>2026-08-12T13:24:22.000Z</time>
      </trkpt>
      <trkpt lat="45.20875" lon="5.73728">
        <ele>321.60000610352</ele>
        <time>2026-08-12T13:24:23.000Z</time>
      </trkpt>
      <trkpt lat="45.20876" lon="5.73729">
        <ele>321.60000610352</ele>
        <time>2026-08-12T13:24:24.000Z</time>
      </trkpt>
      <trkpt lat="45.20877" lon="5.73729">
        <ele>322.20001220703</ele>
        <time>2026-08-12T13:24:25.000Z</time>
      </trkpt>
      <trkpt lat="45.20878" lon="5.7373">
        <ele>322.60000610352</ele>
        <time>2026-08-12T13:24:26.000Z</time>
      </trkpt>
      <trkpt lat="45.20879" lon="5.7373">
        <ele>323.20001220703</ele>
        <time>2026-08-12T13:24:27.000Z</time>
      </trkpt>
      <trkpt lat="45.2088" lon="5.73731">
        <ele>323.20001220703</ele>
        <time>2026-08-12T13:24:28.000Z</time>
      </trkpt>
      <trkpt lat="45.2088" lon="5.73731">
        <ele>323.20001220703</ele>
        <time>2026-08-12T13:24:29.000Z</time>
      </trkpt>
      <trkpt lat="45.20881" lon="5.7373">
        <ele>323.20001220703</ele>
        <time>2026-08-12T13:24:30.000Z</time>
      </trkpt>
      <trkpt lat="45.20882" lon="5.73729">
        <ele>323.20001220703</ele>
        <time>2026-08-12T13:24:31.000Z</time>
      </trkpt>
      <trkpt lat="45.20883" lon="5.73729">
        <ele>323.39999389648</ele>
        <time>2026-08-12T13:24:32.000Z</time>
      </trkpt>
      <trkpt lat="45.20884" lon="5.73729">
        <ele>323.39999389648</ele>
        <time>2026-08-12T13:24:33.000Z</time>
      </trkpt>
      <trkpt lat="45.20885" lon="5.73729">
        <ele>324</ele>
        <time>2026-08-12T13:24:34.000Z</time>
      </trkpt>
      <trkpt lat="45.20885" lon="5.73728">
        <ele>324.39999389648</ele>
        <time>2026-08-12T13:24:35.000Z</time>
      </trkpt>
      <trkpt lat="45.20885" lon="5.73727">
        <ele>325</ele>
        <time>2026-08-12T13:24:36.000Z</time>
      </trkpt>
      <trkpt lat="45.20886" lon="5.73726">
        <ele>325</ele>
        <time>2026-08-12T13:24:37.000Z</time>
      </trkpt>
      <trkpt lat="45.20887" lon="5.73725">
        <ele>325.20001220703</ele>
        <time>2026-08-12T13:24:38.000Z</time>
      </trkpt>
      <trkpt lat="45.20887" lon="5.73725">
        <ele>325.20001220703</ele>
        <time>2026-08-12T13:24:39.000Z</time>
      </trkpt>
      <trkpt lat="45.20888" lon="5.73724">
        <ele>325.20001220703</ele>
        <time>2026-08-12T13:24:40.000Z</time>
      </trkpt>
      <trkpt lat="45.20888" lon="5.73724">
        <ele>325.20001220703</ele>
        <time>2026-08-12T13:24:41.000Z</time>
      </trkpt>
      <trkpt lat="45.20888" lon="5.73723">
        <ele>325.20001220703</ele>
        <time>2026-08-12T13:24:42.000Z</time>
      </trkpt>
      <trkpt lat="45.20889" lon="5.73722">
        <ele>325.79998779297</ele>
        <time>2026-08-12T13:24:43.000Z</time>
      </trkpt>
      <trkpt lat="45.2089" lon="5.73722">
        <ele>326.39999389648</ele>
        <time>2026-08-12T13:24:44.000Z</time>
      </trkpt>
      <trkpt lat="45.2089" lon="5.73721">
        <ele>326.39999389648</ele>
        <time>2026-08-12T13:24:45.000Z</time>
      </trkpt>
      <trkpt lat="45.2089" lon="5.73721">
        <ele>326.60000610352</ele>
        <time>2026-08-12T13:24:46.000Z</time>
      </trkpt>
      <trkpt lat="45.20891" lon="5.7372">
        <ele>326.79998779297</ele>
        <time>2026-08-12T13:24:47.000Z</time>
      </trkpt>
      <trkpt lat="45.20891" lon="5.7372">
        <ele>327</ele>
        <time>2026-08-12T13:24:48.000Z</time>
      </trkpt>
      <trkpt lat="45.20892" lon="5.73719">
        <ele>327.39999389648</ele>
        <time>2026-08-12T13:24:49.000Z</time>
      </trkpt>
      <trkpt lat="45.20892" lon="5.73719">
        <ele>328</ele>
        <time>2026-08-12T13:24:50.000Z</time>
      </trkpt>
      <trkpt lat="45.20893" lon="5.73719">
        <ele>328.39999389648</ele>
        <time>2026-08-12T13:24:51.000Z</time>
      </trkpt>
      <trkpt lat="45.20893" lon="5.73719">
        <ele>329</ele>
        <time>2026-08-12T13:24:52.000Z</time>
      </trkpt>
      <trkpt lat="45.20893" lon="5.73718">
        <ele>329.39999389648</ele>
        <time>2026-08-12T13:24:53.000Z</time>
      </trkpt>
      <trkpt lat="45.20893" lon="5.73717">
        <ele>330.79998779297</ele>
        <time>2026-08-12T13:24:54.000Z</time>
      </trkpt>
      <trkpt lat="45.20894" lon="5.73716">
        <ele>332.20001220703</ele>
        <time>2026-08-12T13:24:55.000Z</time>
      </trkpt>
      <trkpt lat="45.20895" lon="5.73716">
        <ele>333.39999389648</ele>
        <time>2026-08-12T13:24:56.000Z</time>
      </trkpt>
      <trkpt lat="45.20895" lon="5.73716">
        <ele>334</ele>
        <time>2026-08-12T13:24:57.000Z</time>
      </trkpt>
      <trkpt lat="45.20895" lon="5.73715">
        <ele>334.39999389648</ele>
        <time>2026-08-12T13:24:58.000Z</time>
      </trkpt>
      <trkpt lat="45.20896" lon="5.73714">
        <ele>335.39999389648</ele>
        <time>2026-08-12T13:24:59.000Z</time>
      </trkpt>
      <trkpt lat="45.20897" lon="5.73714">
        <ele>336.20001220703</ele>
        <time>2026-08-12T13:25:00.000Z</time>
      </trkpt>
      <trkpt lat="45.20897" lon="5.73714">
        <ele>336.79998779297</ele>
        <time>2026-08-12T13:25:01.000Z</time>
      </trkpt>
      <trkpt lat="45.20898" lon="5.73713">
        <ele>337</ele>
        <time>2026-08-12T13:25:02.000Z</time>
      </trkpt>
      <trkpt lat="45.20899" lon="5.73713">
        <ele>337.39999389648</ele>
        <time>2026-08-12T13:25:03.000Z</time>
      </trkpt>
      <trkpt lat="45.20899" lon="5.73713">
        <ele>337.60000610352</ele>
        <time>2026-08-12T13:25:04.000Z</time>
      </trkpt>
      <trkpt lat="45.209" lon="5.73713">
        <ele>337.79998779297</ele>
        <time>2026-08-12T13:25:05.000Z</time>
      </trkpt>
      <trkpt lat="45.20901" lon="5.73713">
        <ele>338</ele>
        <time>2026-08-12T13:25:06.000Z</time>
      </trkpt>
      <trkpt lat="45.20901" lon="5.73713">
        <ele>338.20001220703</ele>
        <time>2026-08-12T13:25:07.000Z</time>
      </trkpt>
      <trkpt lat="45.20902" lon="5.73712">
        <ele>338.39999389648</ele>
        <time>2026-08-12T13:25:08.000Z</time>
      </trkpt>
      <trkpt lat="45.20902" lon="5.73712">
        <ele>338.79998779297</ele>
        <time>2026-08-12T13:25:09.000Z</time>
      </trkpt>
      <trkpt lat="45.20903" lon="5.73711">
        <ele>339</ele>
        <time>2026-08-12T13:25:10.000Z</time>
      </trkpt>
      <trkpt lat="45.20904" lon="5.73711">
        <ele>339.20001220703</ele>
        <time>2026-08-12T13:25:11.000Z</time>
      </trkpt>
      <trkpt lat="45.20905" lon="5.7371">
        <ele>339.39999389648</ele>
        <time>2026-08-12T13:25:12.000Z</time>
      </trkpt>
      <trkpt lat="45.20906" lon="5.7371">
        <ele>339.60000610352</ele>
        <time>2026-08-12T13:25:13.000Z</time>
      </trkpt>
      <trkpt lat="45.20907" lon="5.73709">
        <ele>339.79998779297</ele>
        <time>2026-08-12T13:25:14.000Z</time>
      </trkpt>
      <trkpt lat="45.20908" lon="5.73709">
        <ele>338.79998779297</ele>
        <time>2026-08-12T13:25:15.000Z</time>
      </trkpt>
      <trkpt lat="45.20909" lon="5.73709">
        <ele>338.60000610352</ele>
        <time>2026-08-12T13:25:16.000Z</time>
      </trkpt>
      <trkpt lat="45.2091" lon="5.73709">
        <ele>338.39999389648</ele>
        <time>2026-08-12T13:25:17.000Z</time>
      </trkpt>
      <trkpt lat="45.2091" lon="5.73709">
        <ele>338.20001220703</ele>
        <time>2026-08-12T13:25:18.000Z</time>
      </trkpt>
      <trkpt lat="45.20911" lon="5.73708">
        <ele>337.39999389648</ele>
        <time>2026-08-12T13:25:19.000Z</time>
      </trkpt>
      <trkpt lat="45.20912" lon="5.73708">
        <ele>337.20001220703</ele>
        <time>2026-08-12T13:25:20.000Z</time>
      </trkpt>
      <trkpt lat="45.20913" lon="5.73708">
        <ele>337</ele>
        <time>2026-08-12T13:25:21.000Z</time>
      </trkpt>
      <trkpt lat="45.20914" lon="5.73707">
        <ele>336.79998779297</ele>
        <time>2026-08-12T13:25:22.000Z</time>
      </trkpt>
      <trkpt lat="45.20915" lon="5.73706">
        <ele>336.60000610352</ele>
        <time>2026-08-12T13:25:23.000Z</time>
      </trkpt>
      <trkpt lat="45.20915" lon="5.73705">
        <ele>336.60000610352</ele>
        <time>2026-08-12T13:25:24.000Z</time>
      </trkpt>
      <trkpt lat="45.20916" lon="5.73704">
        <ele>336.79998779297</ele>
        <time>2026-08-12T13:25:25.000Z</time>
      </trkpt>
      <trkpt lat="45.20917" lon="5.73704">
        <ele>336.79998779297</ele>
        <time>2026-08-12T13:25:26.000Z</time>
      </trkpt>
      <trkpt lat="45.20918" lon="5.73703">
        <ele>337</ele>
        <time>2026-08-12T13:25:27.000Z</time>
      </trkpt>
      <trkpt lat="45.20919" lon="5.73703">
        <ele>337.79998779297</ele>
        <time>2026-08-12T13:25:28.000Z</time>
      </trkpt>
      <trkpt lat="45.2092" lon="5.73703">
        <ele>338</ele>
        <time>2026-08-12T13:25:29.000Z</time>
      </trkpt>
      <trkpt lat="45.20921" lon="5.73703">
        <ele>338.39999389648</ele>
        <time>2026-08-12T13:25:30.000Z</time>
      </trkpt>
      <trkpt lat="45.20921" lon="5.73703">
        <ele>338.60000610352</ele>
        <time>2026-08-12T13:25:31.000Z</time>
      </trkpt>
      <trkpt lat="45.20922" lon="5.73703">
        <ele>338.79998779297</ele>
        <time>2026-08-12T13:25:32.000Z</time>
      </trkpt>
      <trkpt lat="45.20923" lon="5.73703">
        <ele>338.60000610352</ele>
        <time>2026-08-12T13:25:33.000Z</time>
      </trkpt>
      <trkpt lat="45.20923" lon="5.73702">
        <ele>338.60000610352</ele>
        <time>2026-08-12T13:25:34.000Z</time>
      </trkpt>
      <trkpt lat="45.20924" lon="5.73702">
        <ele>338.39999389648</ele>
        <time>2026-08-12T13:25:35.000Z</time>
      </trkpt>
      <trkpt lat="45.20925" lon="5.73702">
        <ele>338.39999389648</ele>
        <time>2026-08-12T13:25:36.000Z</time>
      </trkpt>
      <trkpt lat="45.20925" lon="5.73702">
        <ele>338.39999389648</ele>
        <time>2026-08-12T13:25:37.000Z</time>
      </trkpt>
      <trkpt lat="45.20926" lon="5.73701">
        <ele>338.60000610352</ele>
        <time>2026-08-12T13:25:38.000Z</time>
      </trkpt>
      <trkpt lat="45.20927" lon="5.73701">
        <ele>338.79998779297</ele>
        <time>2026-08-12T13:25:39.000Z</time>
      </trkpt>
      <trkpt lat="45.20928" lon="5.73701">
        <ele>339.60000610352</ele>
        <time>2026-08-12T13:25:40.000Z</time>
      </trkpt>
      <trkpt lat="45.20928" lon="5.73701">
        <ele>340.60000610352</ele>
        <time>2026-08-12T13:25:41.000Z</time>
      </trkpt>
      <trkpt lat="45.20929" lon="5.73701">
        <ele>340.79998779297</ele>
        <time>2026-08-12T13:25:42.000Z</time>
      </trkpt>
      <trkpt lat="45.2093" lon="5.73701">
        <ele>341.79998779297</ele>
        <time>2026-08-12T13:25:43.000Z</time>
      </trkpt>
      <trkpt lat="45.20931" lon="5.737">
        <ele>342.60000610352</ele>
        <time>2026-08-12T13:25:44.000Z</time>
      </trkpt>
      <trkpt lat="45.20932" lon="5.737">
        <ele>343.20001220703</ele>
        <time>2026-08-12T13:25:45.000Z</time>
      </trkpt>
      <trkpt lat="45.20932" lon="5.737">
        <ele>343.79998779297</ele>
        <time>2026-08-12T13:25:46.000Z</time>
      </trkpt>
      <trkpt lat="45.20933" lon="5.737">
        <ele>344.39999389648</ele>
        <time>2026-08-12T13:25:47.000Z</time>
      </trkpt>
      <trkpt lat="45.20934" lon="5.737">
        <ele>344.60000610352</ele>
        <time>2026-08-12T13:25:48.000Z</time>
      </trkpt>
      <trkpt lat="45.20934" lon="5.737">
        <ele>344.60000610352</ele>
        <time>2026-08-12T13:25:49.000Z</time>
      </trkpt>
      <trkpt lat="45.20935" lon="5.737">
        <ele>345</ele>
        <time>2026-08-12T13:25:50.000Z</time>
      </trkpt>
      <trkpt lat="45.20936" lon="5.737">
        <ele>345</ele>
        <time>2026-08-12T13:25:51.000Z</time>
      </trkpt>
      <trkpt lat="45.20936" lon="5.737">
        <ele>345</ele>
        <time>2026-08-12T13:25:52.000Z</time>
      </trkpt>
      <trkpt lat="45.20937" lon="5.737">
        <ele>345.20001220703</ele>
        <time>2026-08-12T13:25:53.000Z</time>
      </trkpt>
      <trkpt lat="45.20938" lon="5.737">
        <ele>345.39999389648</ele>
        <time>2026-08-12T13:25:54.000Z</time>
      </trkpt>
      <trkpt lat="45.20939" lon="5.73699">
        <ele>346</ele>
        <time>2026-08-12T13:25:55.000Z</time>
      </trkpt>
      <trkpt lat="45.2094" lon="5.73699">
        <ele>346.20001220703</ele>
        <time>2026-08-12T13:25:56.000Z</time>
      </trkpt>
      <trkpt lat="45.2094" lon="5.73698">
        <ele>346.39999389648</ele>
        <time>2026-08-12T13:25:57.000Z</time>
      </trkpt>
      <trkpt lat="45.20941" lon="5.73698">
        <ele>346.60000610352</ele>
        <time>2026-08-12T13:25:58.000Z</time>
      </trkpt>
      <trkpt lat="45.20941" lon="5.73697">
        <ele>346.79998779297</ele>
        <time>2026-08-12T13:25:59.000Z</time>
      </trkpt>
      <trkpt lat="45.20942" lon="5.73696">
        <ele>347</ele>
        <time>2026-08-12T13:26:00.000Z</time>
      </trkpt>
      <trkpt lat="45.20943" lon="5.73696">
        <ele>347.20001220703</ele>
        <time>2026-08-12T13:26:01.000Z</time>
      </trkpt>
      <trkpt lat="45.20944" lon="5.73696">
        <ele>347.60000610352</ele>
        <time>2026-08-12T13:26:02.000Z</time>
      </trkpt>
      <trkpt lat="45.20945" lon="5.73695">
        <ele>348</ele>
        <time>2026-08-12T13:26:03.000Z</time>
      </trkpt>
      <trkpt lat="45.20945" lon="5.73695">
        <ele>348.39999389648</ele>
        <time>2026-08-12T13:26:04.000Z</time>
      </trkpt>
      <trkpt lat="45.20946" lon="5.73695">
        <ele>348.79998779297</ele>
        <time>2026-08-12T13:26:05.000Z</time>
      </trkpt>
      <trkpt lat="45.20946" lon="5.73695">
        <ele>349</ele>
        <time>2026-08-12T13:26:06.000Z</time>
      </trkpt>
      <trkpt lat="45.20947" lon="5.73694">
        <ele>349.20001220703</ele>
        <time>2026-08-12T13:26:07.000Z</time>
      </trkpt>
      <trkpt lat="45.20948" lon="5.73695">
        <ele>349.60000610352</ele>
        <time>2026-08-12T13:26:08.000Z</time>
      </trkpt>
      <trkpt lat="45.20948" lon="5.73698">
        <ele>349.79998779297</ele>
        <time>2026-08-12T13:26:09.000Z</time>
      </trkpt>
      <trkpt lat="45.20948" lon="5.737">
        <ele>350.20001220703</ele>
        <time>2026-08-12T13:26:10.000Z</time>
      </trkpt>
      <trkpt lat="45.20949" lon="5.73703">
        <ele>350.79998779297</ele>
        <time>2026-08-12T13:26:11.000Z</time>
      </trkpt>
      <trkpt lat="45.20949" lon="5.73705">
        <ele>351.20001220703</ele>
        <time>2026-08-12T13:26:12.000Z</time>
      </trkpt>
      <trkpt lat="45.2095" lon="5.73707">
        <ele>351.79998779297</ele>
        <time>2026-08-12T13:26:13.000Z</time>
      </trkpt>
      <trkpt lat="45.2095" lon="5.7371">
        <ele>352.60000610352</ele>
        <time>2026-08-12T13:26:14.000Z</time>
      </trkpt>
      <trkpt lat="45.20951" lon="5.73713">
        <ele>353.39999389648</ele>
        <time>2026-08-12T13:26:15.000Z</time>
      </trkpt>
      <trkpt lat="45.20952" lon="5.73716">
        <ele>354.20001220703</ele>
        <time>2026-08-12T13:26:16.000Z</time>
      </trkpt>
      <trkpt lat="45.20952" lon="5.7372">
        <ele>355</ele>
        <time>2026-08-12T13:26:17.000Z</time>
      </trkpt>
      <trkpt lat="45.20953" lon="5.73723">
        <ele>355.20001220703</ele>
        <time>2026-08-12T13:26:18.000Z</time>
      </trkpt>
      <trkpt lat="45.20954" lon="5.73726">
        <ele>355.39999389648</ele>
        <time>2026-08-12T13:26:19.000Z</time>
      </trkpt>
      <trkpt lat="45.20954" lon="5.7373">
        <ele>355.39999389648</ele>
        <time>2026-08-12T13:26:20.000Z</time>
      </trkpt>
      <trkpt lat="45.20955" lon="5.73733">
        <ele>356</ele>
        <time>2026-08-12T13:26:21.000Z</time>
      </trkpt>
      <trkpt lat="45.20956" lon="5.73737">
        <ele>356</ele>
        <time>2026-08-12T13:26:22.000Z</time>
      </trkpt>
      <trkpt lat="45.20958" lon="5.73739">
        <ele>356.39999389648</ele>
        <time>2026-08-12T13:26:23.000Z</time>
      </trkpt>
      <trkpt lat="45.20959" lon="5.73742">
        <ele>356.60000610352</ele>
        <time>2026-08-12T13:26:24.000Z</time>
      </trkpt>
      <trkpt lat="45.2096" lon="5.73745">
        <ele>357</ele>
        <time>2026-08-12T13:26:25.000Z</time>
      </trkpt>
      <trkpt lat="45.20962" lon="5.73748">
        <ele>356.79998779297</ele>
        <time>2026-08-12T13:26:26.000Z</time>
      </trkpt>
      <trkpt lat="45.20963" lon="5.73751">
        <ele>356.20001220703</ele>
        <time>2026-08-12T13:26:27.000Z</time>
      </trkpt>
      <trkpt lat="45.20964" lon="5.73754">
        <ele>356.20001220703</ele>
        <time>2026-08-12T13:26:28.000Z</time>
      </trkpt>
      <trkpt lat="45.20966" lon="5.73757">
        <ele>356</ele>
        <time>2026-08-12T13:26:29.000Z</time>
      </trkpt>
      <trkpt lat="45.20967" lon="5.7376">
        <ele>355.79998779297</ele>
        <time>2026-08-12T13:26:30.000Z</time>
      </trkpt>
      <trkpt lat="45.20969" lon="5.73762">
        <ele>355.39999389648</ele>
        <time>2026-08-12T13:26:31.000Z</time>
      </trkpt>
      <trkpt lat="45.2097" lon="5.73766">
        <ele>355.39999389648</ele>
        <time>2026-08-12T13:26:32.000Z</time>
      </trkpt>
      <trkpt lat="45.20972" lon="5.73768">
        <ele>355.39999389648</ele>
        <time>2026-08-12T13:26:33.000Z</time>
      </trkpt>
      <trkpt lat="45.20973" lon="5.73771">
        <ele>355.39999389648</ele>
        <time>2026-08-12T13:26:34.000Z</time>
      </trkpt>
      <trkpt lat="45.20974" lon="5.73775">
        <ele>355.20001220703</ele>
        <time>2026-08-12T13:26:35.000Z</time>
      </trkpt>
      <trkpt lat="45.20975" lon="5.73778">
        <ele>354.79998779297</ele>
        <time>2026-08-12T13:26:36.000Z</time>
      </trkpt>
      <trkpt lat="45.20975" lon="5.73781">
        <ele>354.39999389648</ele>
        <time>2026-08-12T13:26:37.000Z</time>
      </trkpt>
      <trkpt lat="45.20975" lon="5.73785">
        <ele>354</ele>
        <time>2026-08-12T13:26:38.000Z</time>
      </trkpt>
      <trkpt lat="45.20976" lon="5.73788">
        <ele>353.60000610352</ele>
        <time>2026-08-12T13:26:39.000Z</time>
      </trkpt>
      <trkpt lat="45.20976" lon="5.73791">
        <ele>353.60000610352</ele>
        <time>2026-08-12T13:26:40.000Z</time>
      </trkpt>
      <trkpt lat="45.20976" lon="5.73794">
        <ele>353</ele>
        <time>2026-08-12T13:26:41.000Z</time>
      </trkpt>
      <trkpt lat="45.20977" lon="5.73798">
        <ele>352.79998779297</ele>
        <time>2026-08-12T13:26:42.000Z</time>
      </trkpt>
      <trkpt lat="45.20977" lon="5.73801">
        <ele>352.39999389648</ele>
        <time>2026-08-12T13:26:43.000Z</time>
      </trkpt>
      <trkpt lat="45.20978" lon="5.73804">
        <ele>352</ele>
        <time>2026-08-12T13:26:44.000Z</time>
      </trkpt>
      <trkpt lat="45.20978" lon="5.73807">
        <ele>351.60000610352</ele>
        <time>2026-08-12T13:26:45.000Z</time>
      </trkpt>
      <trkpt lat="45.20978" lon="5.7381">
        <ele>351.20001220703</ele>
        <time>2026-08-12T13:26:46.000Z</time>
      </trkpt>
      <trkpt lat="45.20979" lon="5.73813">
        <ele>351</ele>
        <time>2026-08-12T13:26:47.000Z</time>
      </trkpt>
      <trkpt lat="45.20979" lon="5.73817">
        <ele>350</ele>
        <time>2026-08-12T13:26:48.000Z</time>
      </trkpt>
      <trkpt lat="45.20979" lon="5.7382">
        <ele>349.60000610352</ele>
        <time>2026-08-12T13:26:49.000Z</time>
      </trkpt>
      <trkpt lat="45.2098" lon="5.73824">
        <ele>349</ele>
        <time>2026-08-12T13:26:50.000Z</time>
      </trkpt>
      <trkpt lat="45.20981" lon="5.73827">
        <ele>348.39999389648</ele>
        <time>2026-08-12T13:26:51.000Z</time>
      </trkpt>
      <trkpt lat="45.20982" lon="5.7383">
        <ele>347.60000610352</ele>
        <time>2026-08-12T13:26:52.000Z</time>
      </trkpt>
      <trkpt lat="45.20984" lon="5.73833">
        <ele>347</ele>
        <time>2026-08-12T13:26:53.000Z</time>
      </trkpt>
      <trkpt lat="45.20985" lon="5.73835">
        <ele>346.20001220703</ele>
        <time>2026-08-12T13:26:54.000Z</time>
      </trkpt>
      <trkpt lat="45.20986" lon="5.73838">
        <ele>345.39999389648</ele>
        <time>2026-08-12T13:26:55.000Z</time>
      </trkpt>
      <trkpt lat="45.20987" lon="5.73841">
        <ele>345.60000610352</ele>
        <time>2026-08-12T13:26:56.000Z</time>
      </trkpt>
      <trkpt lat="45.20988" lon="5.73844">
        <ele>345.60000610352</ele>
        <time>2026-08-12T13:26:57.000Z</time>
      </trkpt>
      <trkpt lat="45.2099" lon="5.73848">
        <ele>345.79998779297</ele>
        <time>2026-08-12T13:26:58.000Z</time>
      </trkpt>
      <trkpt lat="45.20991" lon="5.7385">
        <ele>345.79998779297</ele>
        <time>2026-08-12T13:26:59.000Z</time>
      </trkpt>
      <trkpt lat="45.20992" lon="5.73853">
        <ele>346</ele>
        <time>2026-08-12T13:27:00.000Z</time>
      </trkpt>
      <trkpt lat="45.20994" lon="5.73856">
        <ele>346.39999389648</ele>
        <time>2026-08-12T13:27:01.000Z</time>
      </trkpt>
      <trkpt lat="45.20995" lon="5.73859">
        <ele>346.60000610352</ele>
        <time>2026-08-12T13:27:02.000Z</time>
      </trkpt>
      <trkpt lat="45.20996" lon="5.73862">
        <ele>346.79998779297</ele>
        <time>2026-08-12T13:27:03.000Z</time>
      </trkpt>
      <trkpt lat="45.20997" lon="5.73865">
        <ele>347</ele>
        <time>2026-08-12T13:27:04.000Z</time>
      </trkpt>
      <trkpt lat="45.20998" lon="5.73868">
        <ele>347.20001220703</ele>
        <time>2026-08-12T13:27:05.000Z</time>
      </trkpt>
      <trkpt lat="45.20999" lon="5.73871">
        <ele>347.39999389648</ele>
        <time>2026-08-12T13:27:06.000Z</time>
      </trkpt>
      <trkpt lat="45.21" lon="5.73874">
        <ele>347.39999389648</ele>
        <time>2026-08-12T13:27:07.000Z</time>
      </trkpt>
      <trkpt lat="45.21002" lon="5.73878">
        <ele>347.39999389648</ele>
        <time>2026-08-12T13:27:08.000Z</time>
      </trkpt>
      <trkpt lat="45.21002" lon="5.73881">
        <ele>347.60000610352</ele>
        <time>2026-08-12T13:27:09.000Z</time>
      </trkpt>
      <trkpt lat="45.21003" lon="5.73884">
        <ele>347.60000610352</ele>
        <time>2026-08-12T13:27:10.000Z</time>
      </trkpt>
      <trkpt lat="45.21004" lon="5.73888">
        <ele>346.79998779297</ele>
        <time>2026-08-12T13:27:11.000Z</time>
      </trkpt>
      <trkpt lat="45.21005" lon="5.7389">
        <ele>345.79998779297</ele>
        <time>2026-08-12T13:27:12.000Z</time>
      </trkpt>
      <trkpt lat="45.21006" lon="5.73893">
        <ele>345.39999389648</ele>
        <time>2026-08-12T13:27:13.000Z</time>
      </trkpt>
      <trkpt lat="45.21007" lon="5.73896">
        <ele>345</ele>
        <time>2026-08-12T13:27:14.000Z</time>
      </trkpt>
      <trkpt lat="45.21007" lon="5.739">
        <ele>344.20001220703</ele>
        <time>2026-08-12T13:27:15.000Z</time>
      </trkpt>
      <trkpt lat="45.21008" lon="5.73903">
        <ele>343.20001220703</ele>
        <time>2026-08-12T13:27:16.000Z</time>
      </trkpt>
      <trkpt lat="45.2101" lon="5.73906">
        <ele>342.39999389648</ele>
        <time>2026-08-12T13:27:17.000Z</time>
      </trkpt>
      <trkpt lat="45.21011" lon="5.73908">
        <ele>342.39999389648</ele>
        <time>2026-08-12T13:27:18.000Z</time>
      </trkpt>
      <trkpt lat="45.21012" lon="5.7391">
        <ele>342.39999389648</ele>
        <time>2026-08-12T13:27:19.000Z</time>
      </trkpt>
      <trkpt lat="45.21013" lon="5.73911">
        <ele>342.20001220703</ele>
        <time>2026-08-12T13:27:20.000Z</time>
      </trkpt>
      <trkpt lat="45.21015" lon="5.73912">
        <ele>342.20001220703</ele>
        <time>2026-08-12T13:27:21.000Z</time>
      </trkpt>
      <trkpt lat="45.21017" lon="5.73912">
        <ele>342.20001220703</ele>
        <time>2026-08-12T13:27:22.000Z</time>
      </trkpt>
      <trkpt lat="45.21019" lon="5.73913">
        <ele>342.60000610352</ele>
        <time>2026-08-12T13:27:23.000Z</time>
      </trkpt>
      <trkpt lat="45.21021" lon="5.73914">
        <ele>342.79998779297</ele>
        <time>2026-08-12T13:27:24.000Z</time>
      </trkpt>
      <trkpt lat="45.21023" lon="5.73914">
        <ele>343.20001220703</ele>
        <time>2026-08-12T13:27:25.000Z</time>
      </trkpt>
      <trkpt lat="45.21026" lon="5.73915">
        <ele>343.60000610352</ele>
        <time>2026-08-12T13:27:26.000Z</time>
      </trkpt>
      <trkpt lat="45.21028" lon="5.73916">
        <ele>343.79998779297</ele>
        <time>2026-08-12T13:27:27.000Z</time>
      </trkpt>
      <trkpt lat="45.21029" lon="5.73916">
        <ele>344.39999389648</ele>
        <time>2026-08-12T13:27:28.000Z</time>
      </trkpt>
      <trkpt lat="45.21032" lon="5.73916">
        <ele>344.79998779297</ele>
        <time>2026-08-12T13:27:29.000Z</time>
      </trkpt>
      <trkpt lat="45.21033" lon="5.73917">
        <ele>344.60000610352</ele>
        <time>2026-08-12T13:27:30.000Z</time>
      </trkpt>
      <trkpt lat="45.21035" lon="5.73917">
        <ele>344.39999389648</ele>
        <time>2026-08-12T13:27:31.000Z</time>
      </trkpt>
      <trkpt lat="45.21037" lon="5.73918">
        <ele>344.20001220703</ele>
        <time>2026-08-12T13:27:32.000Z</time>
      </trkpt>
      <trkpt lat="45.21038" lon="5.73919">
        <ele>344</ele>
        <time>2026-08-12T13:27:33.000Z</time>
      </trkpt>
      <trkpt lat="45.2104" lon="5.7392">
        <ele>344</ele>
        <time>2026-08-12T13:27:34.000Z</time>
      </trkpt>
      <trkpt lat="45.21041" lon="5.7392">
        <ele>344</ele>
        <time>2026-08-12T13:27:35.000Z</time>
      </trkpt>
      <trkpt lat="45.21043" lon="5.7392">
        <ele>344.20001220703</ele>
        <time>2026-08-12T13:27:36.000Z</time>
      </trkpt>
      <trkpt lat="45.21045" lon="5.7392">
        <ele>345</ele>
        <time>2026-08-12T13:27:37.000Z</time>
      </trkpt>
      <trkpt lat="45.21047" lon="5.7392">
        <ele>345.39999389648</ele>
        <time>2026-08-12T13:27:38.000Z</time>
      </trkpt>
      <trkpt lat="45.21049" lon="5.73921">
        <ele>345.79998779297</ele>
        <time>2026-08-12T13:27:39.000Z</time>
      </trkpt>
      <trkpt lat="45.21051" lon="5.73921">
        <ele>346.39999389648</ele>
        <time>2026-08-12T13:27:40.000Z</time>
      </trkpt>
      <trkpt lat="45.21053" lon="5.73922">
        <ele>347</ele>
        <time>2026-08-12T13:27:41.000Z</time>
      </trkpt>
      <trkpt lat="45.21055" lon="5.73923">
        <ele>347.39999389648</ele>
        <time>2026-08-12T13:27:42.000Z</time>
      </trkpt>
      <trkpt lat="45.21056" lon="5.73924">
        <ele>348</ele>
        <time>2026-08-12T13:27:43.000Z</time>
      </trkpt>
      <trkpt lat="45.21058" lon="5.73925">
        <ele>348.39999389648</ele>
        <time>2026-08-12T13:27:44.000Z</time>
      </trkpt>
      <trkpt lat="45.2106" lon="5.73927">
        <ele>348.39999389648</ele>
        <time>2026-08-12T13:27:45.000Z</time>
      </trkpt>
      <trkpt lat="45.21062" lon="5.73929">
        <ele>348.39999389648</ele>
        <time>2026-08-12T13:27:46.000Z</time>
      </trkpt>
      <trkpt lat="45.21063" lon="5.7393">
        <ele>348.20001220703</ele>
        <time>2026-08-12T13:27:47.000Z</time>
      </trkpt>
      <trkpt lat="45.21065" lon="5.73931">
        <ele>348.20001220703</ele>
        <time>2026-08-12T13:27:48.000Z</time>
      </trkpt>
      <trkpt lat="45.21067" lon="5.73932">
        <ele>348</ele>
        <time>2026-08-12T13:27:49.000Z</time>
      </trkpt>
      <trkpt lat="45.21068" lon="5.73934">
        <ele>347.79998779297</ele>
        <time>2026-08-12T13:27:50.000Z</time>
      </trkpt>
      <trkpt lat="45.2107" lon="5.73935">
        <ele>347.79998779297</ele>
        <time>2026-08-12T13:27:51.000Z</time>
      </trkpt>
      <trkpt lat="45.21071" lon="5.73937">
        <ele>347.79998779297</ele>
        <time>2026-08-12T13:27:52.000Z</time>
      </trkpt>
      <trkpt lat="45.21073" lon="5.73938">
        <ele>347.79998779297</ele>
        <time>2026-08-12T13:27:53.000Z</time>
      </trkpt>
      <trkpt lat="45.21074" lon="5.7394">
        <ele>348</ele>
        <time>2026-08-12T13:27:54.000Z</time>
      </trkpt>
      <trkpt lat="45.21076" lon="5.73941">
        <ele>348.20001220703</ele>
        <time>2026-08-12T13:27:55.000Z</time>
      </trkpt>
      <trkpt lat="45.21077" lon="5.73942">
        <ele>349.20001220703</ele>
        <time>2026-08-12T13:27:56.000Z</time>
      </trkpt>
      <trkpt lat="45.21078" lon="5.73943">
        <ele>349.39999389648</ele>
        <time>2026-08-12T13:27:57.000Z</time>
      </trkpt>
      <trkpt lat="45.2108" lon="5.73945">
        <ele>349.60000610352</ele>
        <time>2026-08-12T13:27:58.000Z</time>
      </trkpt>
      <trkpt lat="45.21081" lon="5.73947">
        <ele>350</ele>
        <time>2026-08-12T13:27:59.000Z</time>
      </trkpt>
      <trkpt lat="45.21082" lon="5.73949">
        <ele>350</ele>
        <time>2026-08-12T13:28:00.000Z</time>
      </trkpt>
      <trkpt lat="45.21084" lon="5.73951">
        <ele>350</ele>
        <time>2026-08-12T13:28:01.000Z</time>
      </trkpt>
      <trkpt lat="45.21085" lon="5.73953">
        <ele>350</ele>
        <time>2026-08-12T13:28:02.000Z</time>
      </trkpt>
      <trkpt lat="45.21086" lon="5.73954">
        <ele>350.39999389648</ele>
        <time>2026-08-12T13:28:03.000Z</time>
      </trkpt>
      <trkpt lat="45.21087" lon="5.73957">
        <ele>350.39999389648</ele>
        <time>2026-08-12T13:28:04.000Z</time>
      </trkpt>
      <trkpt lat="45.21089" lon="5.73959">
        <ele>350.79998779297</ele>
        <time>2026-08-12T13:28:05.000Z</time>
      </trkpt>
      <trkpt lat="45.2109" lon="5.7396">
        <ele>351.20001220703</ele>
        <time>2026-08-12T13:28:06.000Z</time>
      </trkpt>
      <trkpt lat="45.21091" lon="5.73962">
        <ele>351.60000610352</ele>
        <time>2026-08-12T13:28:07.000Z</time>
      </trkpt>
      <trkpt lat="45.21092" lon="5.73964">
        <ele>350.39999389648</ele>
        <time>2026-08-12T13:28:08.000Z</time>
      </trkpt>
      <trkpt lat="45.21093" lon="5.73966">
        <ele>350</ele>
        <time>2026-08-12T13:28:09.000Z</time>
      </trkpt>
      <trkpt lat="45.21094" lon="5.73968">
        <ele>349.79998779297</ele>
        <time>2026-08-12T13:28:10.000Z</time>
      </trkpt>
      <trkpt lat="45.21095" lon="5.73971">
        <ele>349.79998779297</ele>
        <time>2026-08-12T13:28:11.000Z</time>
      </trkpt>
      <trkpt lat="45.21096" lon="5.73973">
        <ele>349.79998779297</ele>
        <time>2026-08-12T13:28:12.000Z</time>
      </trkpt>
      <trkpt lat="45.21097" lon="5.73975">
        <ele>349.60000610352</ele>
        <time>2026-08-12T13:28:13.000Z</time>
      </trkpt>
      <trkpt lat="45.21099" lon="5.73978">
        <ele>350.60000610352</ele>
        <time>2026-08-12T13:28:14.000Z</time>
      </trkpt>
      <trkpt lat="45.211" lon="5.7398">
        <ele>351.39999389648</ele>
        <time>2026-08-12T13:28:15.000Z</time>
      </trkpt>
      <trkpt lat="45.21101" lon="5.73982">
        <ele>351.39999389648</ele>
        <time>2026-08-12T13:28:16.000Z</time>
      </trkpt>
      <trkpt lat="45.21102" lon="5.73985">
        <ele>352</ele>
        <time>2026-08-12T13:28:17.000Z</time>
      </trkpt>
      <trkpt lat="45.21104" lon="5.73987">
        <ele>352.20001220703</ele>
        <time>2026-08-12T13:28:18.000Z</time>
      </trkpt>
      <trkpt lat="45.21104" lon="5.73989">
        <ele>352.79998779297</ele>
        <time>2026-08-12T13:28:19.000Z</time>
      </trkpt>
      <trkpt lat="45.21106" lon="5.73991">
        <ele>353.39999389648</ele>
        <time>2026-08-12T13:28:20.000Z</time>
      </trkpt>
      <trkpt lat="45.21106" lon="5.73994">
        <ele>354</ele>
        <time>2026-08-12T13:28:21.000Z</time>
      </trkpt>
      <trkpt lat="45.21107" lon="5.73996">
        <ele>354</ele>
        <time>2026-08-12T13:28:22.000Z</time>
      </trkpt>
      <trkpt lat="45.21108" lon="5.73999">
        <ele>353.79998779297</ele>
        <time>2026-08-12T13:28:23.000Z</time>
      </trkpt>
      <trkpt lat="45.21109" lon="5.74001">
        <ele>353.60000610352</ele>
        <time>2026-08-12T13:28:24.000Z</time>
      </trkpt>
      <trkpt lat="45.21109" lon="5.74004">
        <ele>353.39999389648</ele>
        <time>2026-08-12T13:28:25.000Z</time>
      </trkpt>
      <trkpt lat="45.2111" lon="5.74006">
        <ele>353</ele>
        <time>2026-08-12T13:28:26.000Z</time>
      </trkpt>
      <trkpt lat="45.21111" lon="5.74009">
        <ele>353</ele>
        <time>2026-08-12T13:28:27.000Z</time>
      </trkpt>
      <trkpt lat="45.21112" lon="5.74011">
        <ele>352.79998779297</ele>
        <time>2026-08-12T13:28:28.000Z</time>
      </trkpt>
      <trkpt lat="45.21113" lon="5.74012">
        <ele>352.79998779297</ele>
        <time>2026-08-12T13:28:29.000Z</time>
      </trkpt>
      <trkpt lat="45.21114" lon="5.74015">
        <ele>353</ele>
        <time>2026-08-12T13:28:30.000Z</time>
      </trkpt>
      <trkpt lat="45.21115" lon="5.74017">
        <ele>353.20001220703</ele>
        <time>2026-08-12T13:28:31.000Z</time>
      </trkpt>
      <trkpt lat="45.21115" lon="5.74019">
        <ele>353.39999389648</ele>
        <time>2026-08-12T13:28:32.000Z</time>
      </trkpt>
      <trkpt lat="45.21116" lon="5.74022">
        <ele>353.20001220703</ele>
        <time>2026-08-12T13:28:33.000Z</time>
      </trkpt>
      <trkpt lat="45.21117" lon="5.74024">
        <ele>353</ele>
        <time>2026-08-12T13:28:34.000Z</time>
      </trkpt>
      <trkpt lat="45.21118" lon="5.74027">
        <ele>352.79998779297</ele>
        <time>2026-08-12T13:28:35.000Z</time>
      </trkpt>
      <trkpt lat="45.21118" lon="5.74029">
        <ele>352</ele>
        <time>2026-08-12T13:28:36.000Z</time>
      </trkpt>
      <trkpt lat="45.21119" lon="5.74032">
        <ele>351.39999389648</ele>
        <time>2026-08-12T13:28:37.000Z</time>
      </trkpt>
      <trkpt lat="45.2112" lon="5.74034">
        <ele>351.20001220703</ele>
        <time>2026-08-12T13:28:38.000Z</time>
      </trkpt>
      <trkpt lat="45.2112" lon="5.74036">
        <ele>351.20001220703</ele>
        <time>2026-08-12T13:28:39.000Z</time>
      </trkpt>
      <trkpt lat="45.21121" lon="5.74039">
        <ele>351.20001220703</ele>
        <time>2026-08-12T13:28:40.000Z</time>
      </trkpt>
      <trkpt lat="45.21122" lon="5.74042">
        <ele>351</ele>
        <time>2026-08-12T13:28:41.000Z</time>
      </trkpt>
      <trkpt lat="45.21122" lon="5.74044">
        <ele>350.60000610352</ele>
        <time>2026-08-12T13:28:42.000Z</time>
      </trkpt>
      <trkpt lat="45.21122" lon="5.74047">
        <ele>350.39999389648</ele>
        <time>2026-08-12T13:28:43.000Z</time>
      </trkpt>
      <trkpt lat="45.21122" lon="5.7405">
        <ele>350.79998779297</ele>
        <time>2026-08-12T13:28:44.000Z</time>
      </trkpt>
      <trkpt lat="45.21123" lon="5.74052">
        <ele>351</ele>
        <time>2026-08-12T13:28:45.000Z</time>
      </trkpt>
      <trkpt lat="45.21123" lon="5.74055">
        <ele>351.39999389648</ele>
        <time>2026-08-12T13:28:46.000Z</time>
      </trkpt>
      <trkpt lat="45.21123" lon="5.74058">
        <ele>351.79998779297</ele>
        <time>2026-08-12T13:28:47.000Z</time>
      </trkpt>
      <trkpt lat="45.21123" lon="5.7406">
        <ele>352</ele>
        <time>2026-08-12T13:28:48.000Z</time>
      </trkpt>
      <trkpt lat="45.21124" lon="5.74062">
        <ele>352.20001220703</ele>
        <time>2026-08-12T13:28:49.000Z</time>
      </trkpt>
      <trkpt lat="45.21124" lon="5.74065">
        <ele>352.60000610352</ele>
        <time>2026-08-12T13:28:50.000Z</time>
      </trkpt>
      <trkpt lat="45.21125" lon="5.74068">
        <ele>353</ele>
        <time>2026-08-12T13:28:51.000Z</time>
      </trkpt>
      <trkpt lat="45.21125" lon="5.7407">
        <ele>353.39999389648</ele>
        <time>2026-08-12T13:28:52.000Z</time>
      </trkpt>
      <trkpt lat="45.21125" lon="5.74072">
        <ele>353.39999389648</ele>
        <time>2026-08-12T13:28:53.000Z</time>
      </trkpt>
      <trkpt lat="45.21125" lon="5.74075">
        <ele>353.39999389648</ele>
        <time>2026-08-12T13:28:54.000Z</time>
      </trkpt>
      <trkpt lat="45.21125" lon="5.74077">
        <ele>353.60000610352</ele>
        <time>2026-08-12T13:28:55.000Z</time>
      </trkpt>
      <trkpt lat="45.21125" lon="5.74079">
        <ele>353.79998779297</ele>
        <time>2026-08-12T13:28:56.000Z</time>
      </trkpt>
      <trkpt lat="45.21125" lon="5.74082">
        <ele>354.39999389648</ele>
        <time>2026-08-12T13:28:57.000Z</time>
      </trkpt>
      <trkpt lat="45.21125" lon="5.74084">
        <ele>354.79998779297</ele>
        <time>2026-08-12T13:28:58.000Z</time>
      </trkpt>
      <trkpt lat="45.21125" lon="5.74086">
        <ele>355.39999389648</ele>
        <time>2026-08-12T13:28:59.000Z</time>
      </trkpt>
      <trkpt lat="45.21125" lon="5.74089">
        <ele>355.79998779297</ele>
        <time>2026-08-12T13:29:00.000Z</time>
      </trkpt>
      <trkpt lat="45.21125" lon="5.74091">
        <ele>355.60000610352</ele>
        <time>2026-08-12T13:29:01.000Z</time>
      </trkpt>
      <trkpt lat="45.21125" lon="5.74094">
        <ele>355.60000610352</ele>
        <time>2026-08-12T13:29:02.000Z</time>
      </trkpt>
      <trkpt lat="45.21126" lon="5.74096">
        <ele>355.79998779297</ele>
        <time>2026-08-12T13:29:03.000Z</time>
      </trkpt>
      <trkpt lat="45.21126" lon="5.74098">
        <ele>355.79998779297</ele>
        <time>2026-08-12T13:29:04.000Z</time>
      </trkpt>
      <trkpt lat="45.21125" lon="5.74101">
        <ele>355.79998779297</ele>
        <time>2026-08-12T13:29:05.000Z</time>
      </trkpt>
      <trkpt lat="45.21125" lon="5.74103">
        <ele>356.20001220703</ele>
        <time>2026-08-12T13:29:06.000Z</time>
      </trkpt>
      <trkpt lat="45.21125" lon="5.74106">
        <ele>356</ele>
        <time>2026-08-12T13:29:07.000Z</time>
      </trkpt>
      <trkpt lat="45.21125" lon="5.74108">
        <ele>356</ele>
        <time>2026-08-12T13:29:08.000Z</time>
      </trkpt>
      <trkpt lat="45.21125" lon="5.7411">
        <ele>356</ele>
        <time>2026-08-12T13:29:09.000Z</time>
      </trkpt>
      <trkpt lat="45.21125" lon="5.74113">
        <ele>356.20001220703</ele>
        <time>2026-08-12T13:29:10.000Z</time>
      </trkpt>
      <trkpt lat="45.21125" lon="5.74115">
        <ele>356.60000610352</ele>
        <time>2026-08-12T13:29:11.000Z</time>
      </trkpt>
      <trkpt lat="45.21125" lon="5.74117">
        <ele>357.79998779297</ele>
        <time>2026-08-12T13:29:12.000Z</time>
      </trkpt>
      <trkpt lat="45.21125" lon="5.74119">
        <ele>358</ele>
        <time>2026-08-12T13:29:13.000Z</time>
      </trkpt>
      <trkpt lat="45.21125" lon="5.74121">
        <ele>358</ele>
        <time>2026-08-12T13:29:14.000Z</time>
      </trkpt>
      <trkpt lat="45.21125" lon="5.74124">
        <ele>358.20001220703</ele>
        <time>2026-08-12T13:29:15.000Z</time>
      </trkpt>
      <trkpt lat="45.21125" lon="5.74127">
        <ele>358.39999389648</ele>
        <time>2026-08-12T13:29:16.000Z</time>
      </trkpt>
      <trkpt lat="45.21125" lon="5.74129">
        <ele>358.39999389648</ele>
        <time>2026-08-12T13:29:17.000Z</time>
      </trkpt>
      <trkpt lat="45.21125" lon="5.74131">
        <ele>358.60000610352</ele>
        <time>2026-08-12T13:29:18.000Z</time>
      </trkpt>
      <trkpt lat="45.21125" lon="5.74133">
        <ele>358.79998779297</ele>
        <time>2026-08-12T13:29:19.000Z</time>
      </trkpt>
      <trkpt lat="45.21125" lon="5.74135">
        <ele>359</ele>
        <time>2026-08-12T13:29:20.000Z</time>
      </trkpt>
      <trkpt lat="45.21125" lon="5.74137">
        <ele>358.79998779297</ele>
        <time>2026-08-12T13:29:21.000Z</time>
      </trkpt>
      <trkpt lat="45.21125" lon="5.74139">
        <ele>358.79998779297</ele>
        <time>2026-08-12T13:29:22.000Z</time>
      </trkpt>
      <trkpt lat="45.21126" lon="5.7414">
        <ele>358.79998779297</ele>
        <time>2026-08-12T13:29:23.000Z</time>
      </trkpt>
      <trkpt lat="45.21126" lon="5.74143">
        <ele>358.60000610352</ele>
        <time>2026-08-12T13:29:24.000Z</time>
      </trkpt>
      <trkpt lat="45.21126" lon="5.74145">
        <ele>358.39999389648</ele>
        <time>2026-08-12T13:29:25.000Z</time>
      </trkpt>
      <trkpt lat="45.21127" lon="5.74148">
        <ele>358.39999389648</ele>
        <time>2026-08-12T13:29:26.000Z</time>
      </trkpt>
      <trkpt lat="45.21127" lon="5.7415">
        <ele>358.20001220703</ele>
        <time>2026-08-12T13:29:27.000Z</time>
      </trkpt>
      <trkpt lat="45.21128" lon="5.74152">
        <ele>358</ele>
        <time>2026-08-12T13:29:28.000Z</time>
      </trkpt>
      <trkpt lat="45.21128" lon="5.74154">
        <ele>357.79998779297</ele>
        <time>2026-08-12T13:29:29.000Z</time>
      </trkpt>
      <trkpt lat="45.21128" lon="5.74156">
        <ele>357.60000610352</ele>
        <time>2026-08-12T13:29:30.000Z</time>
      </trkpt>
      <trkpt lat="45.21129" lon="5.74158">
        <ele>357.60000610352</ele>
        <time>2026-08-12T13:29:31.000Z</time>
      </trkpt>
      <trkpt lat="45.21129" lon="5.74161">
        <ele>357.39999389648</ele>
        <time>2026-08-12T13:29:32.000Z</time>
      </trkpt>
      <trkpt lat="45.2113" lon="5.74163">
        <ele>357.79998779297</ele>
        <time>2026-08-12T13:29:33.000Z</time>
      </trkpt>
      <trkpt lat="45.2113" lon="5.74165">
        <ele>358.60000610352</ele>
        <time>2026-08-12T13:29:34.000Z</time>
      </trkpt>
      <trkpt lat="45.21131" lon="5.74167">
        <ele>359</ele>
        <time>2026-08-12T13:29:35.000Z</time>
      </trkpt>
      <trkpt lat="45.21132" lon="5.74168">
        <ele>359.20001220703</ele>
        <time>2026-08-12T13:29:36.000Z</time>
      </trkpt>
      <trkpt lat="45.21133" lon="5.7417">
        <ele>359.60000610352</ele>
        <time>2026-08-12T13:29:37.000Z</time>
      </trkpt>
      <trkpt lat="45.21134" lon="5.74172">
        <ele>360</ele>
        <time>2026-08-12T13:29:38.000Z</time>
      </trkpt>
      <trkpt lat="45.21136" lon="5.74174">
        <ele>360</ele>
        <time>2026-08-12T13:29:39.000Z</time>
      </trkpt>
      <trkpt lat="45.21137" lon="5.74175">
        <ele>360.20001220703</ele>
        <time>2026-08-12T13:29:40.000Z</time>
      </trkpt>
      <trkpt lat="45.21138" lon="5.74176">
        <ele>360.39999389648</ele>
        <time>2026-08-12T13:29:41.000Z</time>
      </trkpt>
      <trkpt lat="45.2114" lon="5.74177">
        <ele>360.39999389648</ele>
        <time>2026-08-12T13:29:42.000Z</time>
      </trkpt>
      <trkpt lat="45.21142" lon="5.74178">
        <ele>360.39999389648</ele>
        <time>2026-08-12T13:29:43.000Z</time>
      </trkpt>
      <trkpt lat="45.21143" lon="5.7418">
        <ele>360.20001220703</ele>
        <time>2026-08-12T13:29:44.000Z</time>
      </trkpt>
      <trkpt lat="45.21145" lon="5.74181">
        <ele>360</ele>
        <time>2026-08-12T13:29:45.000Z</time>
      </trkpt>
      <trkpt lat="45.21147" lon="5.74181">
        <ele>359.79998779297</ele>
        <time>2026-08-12T13:29:46.000Z</time>
      </trkpt>
      <trkpt lat="45.21148" lon="5.74182">
        <ele>359.79998779297</ele>
        <time>2026-08-12T13:29:47.000Z</time>
      </trkpt>
      <trkpt lat="45.2115" lon="5.74183">
        <ele>359.79998779297</ele>
        <time>2026-08-12T13:29:48.000Z</time>
      </trkpt>
      <trkpt lat="45.21152" lon="5.74184">
        <ele>360.20001220703</ele>
        <time>2026-08-12T13:29:49.000Z</time>
      </trkpt>
      <trkpt lat="45.21154" lon="5.74185">
        <ele>360.60000610352</ele>
        <time>2026-08-12T13:29:50.000Z</time>
      </trkpt>
      <trkpt lat="45.21155" lon="5.74187">
        <ele>361.79998779297</ele>
        <time>2026-08-12T13:29:51.000Z</time>
      </trkpt>
      <trkpt lat="45.21157" lon="5.74188">
        <ele>362</ele>
        <time>2026-08-12T13:29:52.000Z</time>
      </trkpt>
      <trkpt lat="45.21159" lon="5.74189">
        <ele>362.60000610352</ele>
        <time>2026-08-12T13:29:53.000Z</time>
      </trkpt>
      <trkpt lat="45.2116" lon="5.74189">
        <ele>364</ele>
        <time>2026-08-12T13:29:54.000Z</time>
      </trkpt>
      <trkpt lat="45.21162" lon="5.7419">
        <ele>365</ele>
        <time>2026-08-12T13:29:55.000Z</time>
      </trkpt>
      <trkpt lat="45.21164" lon="5.74191">
        <ele>365.79998779297</ele>
        <time>2026-08-12T13:29:56.000Z</time>
      </trkpt>
      <trkpt lat="45.21165" lon="5.74192">
        <ele>366.60000610352</ele>
        <time>2026-08-12T13:29:57.000Z</time>
      </trkpt>
      <trkpt lat="45.21167" lon="5.74194">
        <ele>367.20001220703</ele>
        <time>2026-08-12T13:29:58.000Z</time>
      </trkpt>
      <trkpt lat="45.21168" lon="5.74195">
        <ele>367.60000610352</ele>
        <time>2026-08-12T13:29:59.000Z</time>
      </trkpt>
      <trkpt lat="45.2117" lon="5.74196">
        <ele>367.20001220703</ele>
        <time>2026-08-12T13:30:00.000Z</time>
      </trkpt>
      <trkpt lat="45.21172" lon="5.74198">
        <ele>366.79998779297</ele>
        <time>2026-08-12T13:30:01.000Z</time>
      </trkpt>
      <trkpt lat="45.21174" lon="5.74199">
        <ele>366.60000610352</ele>
        <time>2026-08-12T13:30:02.000Z</time>
      </trkpt>
      <trkpt lat="45.21176" lon="5.74201">
        <ele>366.20001220703</ele>
        <time>2026-08-12T13:30:03.000Z</time>
      </trkpt>
      <trkpt lat="45.21178" lon="5.74203">
        <ele>365.79998779297</ele>
        <time>2026-08-12T13:30:04.000Z</time>
      </trkpt>
      <trkpt lat="45.2118" lon="5.74204">
        <ele>365.39999389648</ele>
        <time>2026-08-12T13:30:05.000Z</time>
      </trkpt>
      <trkpt lat="45.21181" lon="5.74205">
        <ele>365</ele>
        <time>2026-08-12T13:30:06.000Z</time>
      </trkpt>
      <trkpt lat="45.21183" lon="5.74207">
        <ele>364.39999389648</ele>
        <time>2026-08-12T13:30:07.000Z</time>
      </trkpt>
      <trkpt lat="45.21185" lon="5.74208">
        <ele>364</ele>
        <time>2026-08-12T13:30:08.000Z</time>
      </trkpt>
      <trkpt lat="45.21186" lon="5.74209">
        <ele>363.60000610352</ele>
        <time>2026-08-12T13:30:09.000Z</time>
      </trkpt>
      <trkpt lat="45.21188" lon="5.74211">
        <ele>363.20001220703</ele>
        <time>2026-08-12T13:30:10.000Z</time>
      </trkpt>
      <trkpt lat="45.21189" lon="5.74212">
        <ele>363.39999389648</ele>
        <time>2026-08-12T13:30:11.000Z</time>
      </trkpt>
      <trkpt lat="45.21191" lon="5.74213">
        <ele>363.60000610352</ele>
        <time>2026-08-12T13:30:12.000Z</time>
      </trkpt>
      <trkpt lat="45.21193" lon="5.74214">
        <ele>363.60000610352</ele>
        <time>2026-08-12T13:30:13.000Z</time>
      </trkpt>
      <trkpt lat="45.21195" lon="5.74215">
        <ele>364</ele>
        <time>2026-08-12T13:30:14.000Z</time>
      </trkpt>
      <trkpt lat="45.21196" lon="5.74217">
        <ele>366</ele>
        <time>2026-08-12T13:30:15.000Z</time>
      </trkpt>
      <trkpt lat="45.21198" lon="5.74218">
        <ele>367.60000610352</ele>
        <time>2026-08-12T13:30:16.000Z</time>
      </trkpt>
      <trkpt lat="45.212" lon="5.74219">
        <ele>368</ele>
        <time>2026-08-12T13:30:17.000Z</time>
      </trkpt>
      <trkpt lat="45.21202" lon="5.7422">
        <ele>369.20001220703</ele>
        <time>2026-08-12T13:30:18.000Z</time>
      </trkpt>
      <trkpt lat="45.21204" lon="5.74221">
        <ele>370</ele>
        <time>2026-08-12T13:30:19.000Z</time>
      </trkpt>
      <trkpt lat="45.21206" lon="5.74223">
        <ele>371.20001220703</ele>
        <time>2026-08-12T13:30:20.000Z</time>
      </trkpt>
      <trkpt lat="45.21207" lon="5.74224">
        <ele>372.20001220703</ele>
        <time>2026-08-12T13:30:21.000Z</time>
      </trkpt>
      <trkpt lat="45.21209" lon="5.74225">
        <ele>372.60000610352</ele>
        <time>2026-08-12T13:30:22.000Z</time>
      </trkpt>
      <trkpt lat="45.21211" lon="5.74226">
        <ele>372.79998779297</ele>
        <time>2026-08-12T13:30:23.000Z</time>
      </trkpt>
      <trkpt lat="45.21213" lon="5.74227">
        <ele>373.20001220703</ele>
        <time>2026-08-12T13:30:24.000Z</time>
      </trkpt>
      <trkpt lat="45.21215" lon="5.74228">
        <ele>373.39999389648</ele>
        <time>2026-08-12T13:30:25.000Z</time>
      </trkpt>
      <trkpt lat="45.21217" lon="5.74229">
        <ele>373.39999389648</ele>
        <time>2026-08-12T13:30:26.000Z</time>
      </trkpt>
      <trkpt lat="45.21218" lon="5.74229">
        <ele>373.39999389648</ele>
        <time>2026-08-12T13:30:27.000Z</time>
      </trkpt>
      <trkpt lat="45.2122" lon="5.7423">
        <ele>373.20001220703</ele>
        <time>2026-08-12T13:30:28.000Z</time>
      </trkpt>
      <trkpt lat="45.21222" lon="5.74231">
        <ele>373</ele>
        <time>2026-08-12T13:30:29.000Z</time>
      </trkpt>
      <trkpt lat="45.21224" lon="5.74232">
        <ele>372.79998779297</ele>
        <time>2026-08-12T13:30:30.000Z</time>
      </trkpt>
      <trkpt lat="45.21226" lon="5.74233">
        <ele>372.60000610352</ele>
        <time>2026-08-12T13:30:31.000Z</time>
      </trkpt>
      <trkpt lat="45.21228" lon="5.74234">
        <ele>372.39999389648</ele>
        <time>2026-08-12T13:30:32.000Z</time>
      </trkpt>
      <trkpt lat="45.2123" lon="5.74235">
        <ele>372.39999389648</ele>
        <time>2026-08-12T13:30:33.000Z</time>
      </trkpt>
      <trkpt lat="45.21232" lon="5.74235">
        <ele>372.39999389648</ele>
        <time>2026-08-12T13:30:34.000Z</time>
      </trkpt>
      <trkpt lat="45.21234" lon="5.74236">
        <ele>372.20001220703</ele>
        <time>2026-08-12T13:30:35.000Z</time>
      </trkpt>
      <trkpt lat="45.21236" lon="5.74236">
        <ele>372.39999389648</ele>
        <time>2026-08-12T13:30:36.000Z</time>
      </trkpt>
      <trkpt lat="45.21238" lon="5.74237">
        <ele>372.60000610352</ele>
        <time>2026-08-12T13:30:37.000Z</time>
      </trkpt>
      <trkpt lat="45.2124" lon="5.74238">
        <ele>372.60000610352</ele>
        <time>2026-08-12T13:30:38.000Z</time>
      </trkpt>
      <trkpt lat="45.21242" lon="5.74239">
        <ele>373</ele>
        <time>2026-08-12T13:30:39.000Z</time>
      </trkpt>
      <trkpt lat="45.21244" lon="5.7424">
        <ele>373</ele>
        <time>2026-08-12T13:30:40.000Z</time>
      </trkpt>
      <trkpt lat="45.21246" lon="5.74241">
        <ele>373.39999389648</ele>
        <time>2026-08-12T13:30:41.000Z</time>
      </trkpt>
      <trkpt lat="45.21248" lon="5.74242">
        <ele>373.60000610352</ele>
        <time>2026-08-12T13:30:42.000Z</time>
      </trkpt>
      <trkpt lat="45.2125" lon="5.74242">
        <ele>373.39999389648</ele>
        <time>2026-08-12T13:30:43.000Z</time>
      </trkpt>
      <trkpt lat="45.21252" lon="5.74244">
        <ele>373.39999389648</ele>
        <time>2026-08-12T13:30:44.000Z</time>
      </trkpt>
      <trkpt lat="45.21254" lon="5.74245">
        <ele>373.20001220703</ele>
        <time>2026-08-12T13:30:45.000Z</time>
      </trkpt>
      <trkpt lat="45.21256" lon="5.74247">
        <ele>372.79998779297</ele>
        <time>2026-08-12T13:30:46.000Z</time>
      </trkpt>
      <trkpt lat="45.21258" lon="5.74248">
        <ele>371.79998779297</ele>
        <time>2026-08-12T13:30:47.000Z</time>
      </trkpt>
      <trkpt lat="45.2126" lon="5.7425">
        <ele>371.79998779297</ele>
        <time>2026-08-12T13:30:48.000Z</time>
      </trkpt>
      <trkpt lat="45.21262" lon="5.74253">
        <ele>372</ele>
        <time>2026-08-12T13:30:49.000Z</time>
      </trkpt>
      <trkpt lat="45.21264" lon="5.74255">
        <ele>372.20001220703</ele>
        <time>2026-08-12T13:30:50.000Z</time>
      </trkpt>
      <trkpt lat="45.21266" lon="5.74256">
        <ele>372.60000610352</ele>
        <time>2026-08-12T13:30:51.000Z</time>
      </trkpt>
      <trkpt lat="45.21268" lon="5.74258">
        <ele>372.79998779297</ele>
        <time>2026-08-12T13:30:52.000Z</time>
      </trkpt>
      <trkpt lat="45.21269" lon="5.7426">
        <ele>373</ele>
        <time>2026-08-12T13:30:53.000Z</time>
      </trkpt>
      <trkpt lat="45.21271" lon="5.74262">
        <ele>373.20001220703</ele>
        <time>2026-08-12T13:30:54.000Z</time>
      </trkpt>
      <trkpt lat="45.21272" lon="5.74264">
        <ele>373.20001220703</ele>
        <time>2026-08-12T13:30:55.000Z</time>
      </trkpt>
      <trkpt lat="45.21273" lon="5.74266">
        <ele>373.20001220703</ele>
        <time>2026-08-12T13:30:56.000Z</time>
      </trkpt>
      <trkpt lat="45.21275" lon="5.74268">
        <ele>373.20001220703</ele>
        <time>2026-08-12T13:30:57.000Z</time>
      </trkpt>
      <trkpt lat="45.21276" lon="5.7427">
        <ele>373.20001220703</ele>
        <time>2026-08-12T13:30:58.000Z</time>
      </trkpt>
      <trkpt lat="45.21277" lon="5.74272">
        <ele>373</ele>
        <time>2026-08-12T13:30:59.000Z</time>
      </trkpt>
      <trkpt lat="45.21279" lon="5.74274">
        <ele>373</ele>
        <time>2026-08-12T13:31:00.000Z</time>
      </trkpt>
      <trkpt lat="45.2128" lon="5.74277">
        <ele>373.20001220703</ele>
        <time>2026-08-12T13:31:01.000Z</time>
      </trkpt>
      <trkpt lat="45.21282" lon="5.74279">
        <ele>373.39999389648</ele>
        <time>2026-08-12T13:31:02.000Z</time>
      </trkpt>
      <trkpt lat="45.21283" lon="5.74282">
        <ele>373.60000610352</ele>
        <time>2026-08-12T13:31:03.000Z</time>
      </trkpt>
      <trkpt lat="45.21284" lon="5.74285">
        <ele>373.79998779297</ele>
        <time>2026-08-12T13:31:04.000Z</time>
      </trkpt>
      <trkpt lat="45.21286" lon="5.74288">
        <ele>374</ele>
        <time>2026-08-12T13:31:05.000Z</time>
      </trkpt>
      <trkpt lat="45.21287" lon="5.74291">
        <ele>374.20001220703</ele>
        <time>2026-08-12T13:31:06.000Z</time>
      </trkpt>
      <trkpt lat="45.21288" lon="5.74294">
        <ele>374.20001220703</ele>
        <time>2026-08-12T13:31:07.000Z</time>
      </trkpt>
      <trkpt lat="45.2129" lon="5.74297">
        <ele>374.20001220703</ele>
        <time>2026-08-12T13:31:08.000Z</time>
      </trkpt>
      <trkpt lat="45.21291" lon="5.743">
        <ele>374.39999389648</ele>
        <time>2026-08-12T13:31:09.000Z</time>
      </trkpt>
      <trkpt lat="45.21292" lon="5.74303">
        <ele>375</ele>
        <time>2026-08-12T13:31:10.000Z</time>
      </trkpt>
      <trkpt lat="45.21294" lon="5.74306">
        <ele>375.20001220703</ele>
        <time>2026-08-12T13:31:11.000Z</time>
      </trkpt>
      <trkpt lat="45.21295" lon="5.74308">
        <ele>375.20001220703</ele>
        <time>2026-08-12T13:31:12.000Z</time>
      </trkpt>
      <trkpt lat="45.21296" lon="5.74311">
        <ele>375.20001220703</ele>
        <time>2026-08-12T13:31:13.000Z</time>
      </trkpt>
      <trkpt lat="45.21298" lon="5.74314">
        <ele>375.20001220703</ele>
        <time>2026-08-12T13:31:14.000Z</time>
      </trkpt>
      <trkpt lat="45.21299" lon="5.74316">
        <ele>375.20001220703</ele>
        <time>2026-08-12T13:31:15.000Z</time>
      </trkpt>
      <trkpt lat="45.213" lon="5.74319">
        <ele>375.39999389648</ele>
        <time>2026-08-12T13:31:16.000Z</time>
      </trkpt>
      <trkpt lat="45.21302" lon="5.74321">
        <ele>375.79998779297</ele>
        <time>2026-08-12T13:31:17.000Z</time>
      </trkpt>
      <trkpt lat="45.21303" lon="5.74323">
        <ele>376</ele>
        <time>2026-08-12T13:31:18.000Z</time>
      </trkpt>
      <trkpt lat="45.21304" lon="5.74326">
        <ele>376</ele>
        <time>2026-08-12T13:31:19.000Z</time>
      </trkpt>
      <trkpt lat="45.21306" lon="5.74328">
        <ele>376.20001220703</ele>
        <time>2026-08-12T13:31:20.000Z</time>
      </trkpt>
      <trkpt lat="45.21308" lon="5.74331">
        <ele>376.39999389648</ele>
        <time>2026-08-12T13:31:21.000Z</time>
      </trkpt>
      <trkpt lat="45.2131" lon="5.74334">
        <ele>376.39999389648</ele>
        <time>2026-08-12T13:31:22.000Z</time>
      </trkpt>
      <trkpt lat="45.21311" lon="5.74336">
        <ele>377.20001220703</ele>
        <time>2026-08-12T13:31:23.000Z</time>
      </trkpt>
      <trkpt lat="45.21313" lon="5.74339">
        <ele>377.39999389648</ele>
        <time>2026-08-12T13:31:24.000Z</time>
      </trkpt>
      <trkpt lat="45.21315" lon="5.74342">
        <ele>377.20001220703</ele>
        <time>2026-08-12T13:31:25.000Z</time>
      </trkpt>
      <trkpt lat="45.21316" lon="5.74344">
        <ele>377.20001220703</ele>
        <time>2026-08-12T13:31:26.000Z</time>
      </trkpt>
      <trkpt lat="45.21318" lon="5.74346">
        <ele>377</ele>
        <time>2026-08-12T13:31:27.000Z</time>
      </trkpt>
      <trkpt lat="45.2132" lon="5.74348">
        <ele>376.79998779297</ele>
        <time>2026-08-12T13:31:28.000Z</time>
      </trkpt>
      <trkpt lat="45.21321" lon="5.7435">
        <ele>376.79998779297</ele>
        <time>2026-08-12T13:31:29.000Z</time>
      </trkpt>
      <trkpt lat="45.21323" lon="5.74353">
        <ele>376.60000610352</ele>
        <time>2026-08-12T13:31:30.000Z</time>
      </trkpt>
      <trkpt lat="45.21325" lon="5.74355">
        <ele>376.79998779297</ele>
        <time>2026-08-12T13:31:31.000Z</time>
      </trkpt>
      <trkpt lat="45.21326" lon="5.74358">
        <ele>376.60000610352</ele>
        <time>2026-08-12T13:31:32.000Z</time>
      </trkpt>
      <trkpt lat="45.21327" lon="5.7436">
        <ele>376.60000610352</ele>
        <time>2026-08-12T13:31:33.000Z</time>
      </trkpt>
      <trkpt lat="45.21329" lon="5.74362">
        <ele>376.60000610352</ele>
        <time>2026-08-12T13:31:34.000Z</time>
      </trkpt>
      <trkpt lat="45.2133" lon="5.74365">
        <ele>376.39999389648</ele>
        <time>2026-08-12T13:31:35.000Z</time>
      </trkpt>
      <trkpt lat="45.21332" lon="5.74368">
        <ele>376.79998779297</ele>
        <time>2026-08-12T13:31:36.000Z</time>
      </trkpt>
      <trkpt lat="45.21334" lon="5.74371">
        <ele>377</ele>
        <time>2026-08-12T13:31:37.000Z</time>
      </trkpt>
      <trkpt lat="45.21335" lon="5.74373">
        <ele>377.60000610352</ele>
        <time>2026-08-12T13:31:38.000Z</time>
      </trkpt>
      <trkpt lat="45.21336" lon="5.74376">
        <ele>377.39999389648</ele>
        <time>2026-08-12T13:31:39.000Z</time>
      </trkpt>
      <trkpt lat="45.21338" lon="5.74377">
        <ele>377.39999389648</ele>
        <time>2026-08-12T13:31:40.000Z</time>
      </trkpt>
      <trkpt lat="45.21339" lon="5.74377">
        <ele>377.20001220703</ele>
        <time>2026-08-12T13:31:41.000Z</time>
      </trkpt>
      <trkpt lat="45.21339" lon="5.74377">
        <ele>377</ele>
        <time>2026-08-12T13:31:42.000Z</time>
      </trkpt>
      <trkpt lat="45.21339" lon="5.74377">
        <ele>376.79998779297</ele>
        <time>2026-08-12T13:31:43.000Z</time>
      </trkpt>
      <trkpt lat="45.21339" lon="5.74377">
        <ele>376.60000610352</ele>
        <time>2026-08-12T13:31:44.000Z</time>
      </trkpt>
      <trkpt lat="45.21338" lon="5.74377">
        <ele>376.20001220703</ele>
        <time>2026-08-12T13:31:45.000Z</time>
      </trkpt>
      <trkpt lat="45.21338" lon="5.74377">
        <ele>375.79998779297</ele>
        <time>2026-08-12T13:31:46.000Z</time>
      </trkpt>
      <trkpt lat="45.21338" lon="5.74377">
        <ele>375</ele>
        <time>2026-08-12T13:31:47.000Z</time>
      </trkpt>
      <trkpt lat="45.21338" lon="5.74377">
        <ele>374.39999389648</ele>
        <time>2026-08-12T13:31:48.000Z</time>
      </trkpt>
      <trkpt lat="45.21338" lon="5.74377">
        <ele>373.60000610352</ele>
        <time>2026-08-12T13:31:49.000Z</time>
      </trkpt>
      <trkpt lat="45.21338" lon="5.74377">
        <ele>372.79998779297</ele>
        <time>2026-08-12T13:31:50.000Z</time>
      </trkpt>
      <trkpt lat="45.21338" lon="5.74377">
        <ele>372.39999389648</ele>
        <time>2026-08-12T13:31:51.000Z</time>
      </trkpt>
      <trkpt lat="45.21338" lon="5.74377">
        <ele>371.79998779297</ele>
        <time>2026-08-12T13:31:52.000Z</time>
      </trkpt>
      <trkpt lat="45.21338" lon="5.74377">
        <ele>371.20001220703</ele>
        <time>2026-08-12T13:31:53.000Z</time>
      </trkpt>
      <trkpt lat="45.21338" lon="5.74377">
        <ele>370.79998779297</ele>
        <time>2026-08-12T13:31:54.000Z</time>
      </trkpt>
      <trkpt lat="45.21338" lon="5.74377">
        <ele>370.60000610352</ele>
        <time>2026-08-12T13:31:55.000Z</time>
      </trkpt>
      <trkpt lat="45.21338" lon="5.74377">
        <ele>370.39999389648</ele>
        <time>2026-08-12T13:31:56.000Z</time>
      </trkpt>
      <trkpt lat="45.21338" lon="5.74377">
        <ele>370.20001220703</ele>
        <time>2026-08-12T13:31:57.000Z</time>
      </trkpt>
      <trkpt lat="45.21338" lon="5.74377">
        <ele>370</ele>
        <time>2026-08-12T13:31:58.000Z</time>
      </trkpt>
      <trkpt lat="45.21338" lon="5.74377">
        <ele>369.79998779297</ele>
        <time>2026-08-12T13:31:59.000Z</time>
      </trkpt>
      <trkpt lat="45.21338" lon="5.74377">
        <ele>370.20001220703</ele>
        <time>2026-08-12T13:32:00.000Z</time>
      </trkpt>
      <trkpt lat="45.21338" lon="5.74377">
        <ele>370.39999389648</ele>
        <time>2026-08-12T13:32:01.000Z</time>
      </trkpt>
      <trkpt lat="45.21338" lon="5.74377">
        <ele>370.60000610352</ele>
        <time>2026-08-12T13:32:02.000Z</time>
      </trkpt>
      <trkpt lat="45.21338" lon="5.74377">
        <ele>371</ele>
        <time>2026-08-12T13:32:03.000Z</time>
      </trkpt>
      <trkpt lat="45.21339" lon="5.74376">
        <ele>371.39999389648</ele>
        <time>2026-08-12T13:32:04.000Z</time>
      </trkpt>
      <trkpt lat="45.21338" lon="5.74376">
        <ele>371.60000610352</ele>
        <time>2026-08-12T13:32:05.000Z</time>
      </trkpt>
      <trkpt lat="45.21338" lon="5.74376">
        <ele>371.60000610352</ele>
        <time>2026-08-12T13:32:06.000Z</time>
      </trkpt>
      <trkpt lat="45.21338" lon="5.74377">
        <ele>371.60000610352</ele>
        <time>2026-08-12T13:32:07.000Z</time>
      </trkpt>
      <trkpt lat="45.21338" lon="5.74377">
        <ele>371.60000610352</ele>
        <time>2026-08-12T13:32:08.000Z</time>
      </trkpt>
      <trkpt lat="45.21338" lon="5.74378">
        <ele>371.79998779297</ele>
        <time>2026-08-12T13:32:09.000Z</time>
      </trkpt>
      <trkpt lat="45.21338" lon="5.74377">
        <ele>371.79998779297</ele>
        <time>2026-08-12T13:32:10.000Z</time>
      </trkpt>
      <trkpt lat="45.21338" lon="5.74377">
        <ele>371.79998779297</ele>
        <time>2026-08-12T13:32:11.000Z</time>
      </trkpt>
      <trkpt lat="45.21338" lon="5.74377">
        <ele>371.79998779297</ele>
        <time>2026-08-12T13:32:12.000Z</time>
      </trkpt>
      <trkpt lat="45.21338" lon="5.74378">
        <ele>371.60000610352</ele>
        <time>2026-08-12T13:32:13.000Z</time>
      </trkpt>
      <trkpt lat="45.21337" lon="5.74378">
        <ele>371.20001220703</ele>
        <time>2026-08-12T13:32:14.000Z</time>
      </trkpt>
      <trkpt lat="45.21337" lon="5.74378">
        <ele>370.79998779297</ele>
        <time>2026-08-12T13:32:15.000Z</time>
      </trkpt>
      <trkpt lat="45.21338" lon="5.74377">
        <ele>370.79998779297</ele>
        <time>2026-08-12T13:32:16.000Z</time>
      </trkpt>
      <trkpt lat="45.21338" lon="5.74377">
        <ele>370.79998779297</ele>
        <time>2026-08-12T13:32:17.000Z</time>
      </trkpt>
      <trkpt lat="45.21338" lon="5.74377">
        <ele>370.79998779297</ele>
        <time>2026-08-12T13:32:18.000Z</time>
      </trkpt>
      <trkpt lat="45.21338" lon="5.74377">
        <ele>371</ele>
        <time>2026-08-12T13:32:19.000Z</time>
      </trkpt>
      <trkpt lat="45.21338" lon="5.74377">
        <ele>371</ele>
        <time>2026-08-12T13:32:20.000Z</time>
      </trkpt>
      <trkpt lat="45.21338" lon="5.74377">
        <ele>371.20001220703</ele>
        <time>2026-08-12T13:32:21.000Z</time>
      </trkpt>
      <trkpt lat="45.21338" lon="5.74379">
        <ele>371.20001220703</ele>
        <time>2026-08-12T13:32:22.000Z</time>
      </trkpt>
      <trkpt lat="45.21339" lon="5.74381">
        <ele>371.79998779297</ele>
        <time>2026-08-12T13:32:23.000Z</time>
      </trkpt>
      <trkpt lat="45.21339" lon="5.74383">
        <ele>372.20001220703</ele>
        <time>2026-08-12T13:32:24.000Z</time>
      </trkpt>
      <trkpt lat="45.21339" lon="5.74385">
        <ele>372.79998779297</ele>
        <time>2026-08-12T13:32:25.000Z</time>
      </trkpt>
      <trkpt lat="45.2134" lon="5.74387">
        <ele>373.39999389648</ele>
        <time>2026-08-12T13:32:26.000Z</time>
      </trkpt>
      <trkpt lat="45.21341" lon="5.74389">
        <ele>373.79998779297</ele>
        <time>2026-08-12T13:32:27.000Z</time>
      </trkpt>
      <trkpt lat="45.21342" lon="5.74389">
        <ele>374</ele>
        <time>2026-08-12T13:32:28.000Z</time>
      </trkpt>
      <trkpt lat="45.21343" lon="5.74388">
        <ele>374.20001220703</ele>
        <time>2026-08-12T13:32:29.000Z</time>
      </trkpt>
      <trkpt lat="45.21344" lon="5.74385">
        <ele>374.39999389648</ele>
        <time>2026-08-12T13:32:30.000Z</time>
      </trkpt>
      <trkpt lat="45.21344" lon="5.74384">
        <ele>374.60000610352</ele>
        <time>2026-08-12T13:32:31.000Z</time>
      </trkpt>
      <trkpt lat="45.21343" lon="5.74381">
        <ele>374.79998779297</ele>
        <time>2026-08-12T13:32:32.000Z</time>
      </trkpt>
      <trkpt lat="45.21343" lon="5.74379">
        <ele>374.79998779297</ele>
        <time>2026-08-12T13:32:33.000Z</time>
      </trkpt>
      <trkpt lat="45.21342" lon="5.74377">
        <ele>374.60000610352</ele>
        <time>2026-08-12T13:32:34.000Z</time>
      </trkpt>
      <trkpt lat="45.21342" lon="5.74374">
        <ele>374.60000610352</ele>
        <time>2026-08-12T13:32:35.000Z</time>
      </trkpt>
      <trkpt lat="45.21341" lon="5.74372">
        <ele>374.39999389648</ele>
        <time>2026-08-12T13:32:36.000Z</time>
      </trkpt>
      <trkpt lat="45.21341" lon="5.74369">
        <ele>374.39999389648</ele>
        <time>2026-08-12T13:32:37.000Z</time>
      </trkpt>
      <trkpt lat="45.2134" lon="5.74367">
        <ele>374.39999389648</ele>
        <time>2026-08-12T13:32:38.000Z</time>
      </trkpt>
      <trkpt lat="45.21339" lon="5.74365">
        <ele>374.79998779297</ele>
        <time>2026-08-12T13:32:39.000Z</time>
      </trkpt>
      <trkpt lat="45.21339" lon="5.74363">
        <ele>375</ele>
        <time>2026-08-12T13:32:40.000Z</time>
      </trkpt>
      <trkpt lat="45.21338" lon="5.74361">
        <ele>375</ele>
        <time>2026-08-12T13:32:41.000Z</time>
      </trkpt>
      <trkpt lat="45.21337" lon="5.74358">
        <ele>375</ele>
        <time>2026-08-12T13:32:42.000Z</time>
      </trkpt>
      <trkpt lat="45.21337" lon="5.74357">
        <ele>375.39999389648</ele>
        <time>2026-08-12T13:32:43.000Z</time>
      </trkpt>
      <trkpt lat="45.21336" lon="5.74355">
        <ele>375.79998779297</ele>
        <time>2026-08-12T13:32:44.000Z</time>
      </trkpt>
      <trkpt lat="45.21336" lon="5.74353">
        <ele>376</ele>
        <time>2026-08-12T13:32:45.000Z</time>
      </trkpt>
      <trkpt lat="45.21335" lon="5.74351">
        <ele>376.20001220703</ele>
        <time>2026-08-12T13:32:46.000Z</time>
      </trkpt>
      <trkpt lat="45.21334" lon="5.74348">
        <ele>376.39999389648</ele>
        <time>2026-08-12T13:32:47.000Z</time>
      </trkpt>
      <trkpt lat="45.21334" lon="5.74346">
        <ele>376.60000610352</ele>
        <time>2026-08-12T13:32:48.000Z</time>
      </trkpt>
      <trkpt lat="45.21333" lon="5.74343">
        <ele>376.60000610352</ele>
        <time>2026-08-12T13:32:49.000Z</time>
      </trkpt>
      <trkpt lat="45.21332" lon="5.7434">
        <ele>377.39999389648</ele>
        <time>2026-08-12T13:32:50.000Z</time>
      </trkpt>
      <trkpt lat="45.21332" lon="5.74338">
        <ele>378</ele>
        <time>2026-08-12T13:32:51.000Z</time>
      </trkpt>
      <trkpt lat="45.21331" lon="5.74335">
        <ele>378.60000610352</ele>
        <time>2026-08-12T13:32:52.000Z</time>
      </trkpt>
      <trkpt lat="45.2133" lon="5.74332">
        <ele>379.20001220703</ele>
        <time>2026-08-12T13:32:53.000Z</time>
      </trkpt>
      <trkpt lat="45.2133" lon="5.7433">
        <ele>379.79998779297</ele>
        <time>2026-08-12T13:32:54.000Z</time>
      </trkpt>
      <trkpt lat="45.21329" lon="5.74327">
        <ele>380.20001220703</ele>
        <time>2026-08-12T13:32:55.000Z</time>
      </trkpt>
      <trkpt lat="45.21328" lon="5.74324">
        <ele>380.79998779297</ele>
        <time>2026-08-12T13:32:56.000Z</time>
      </trkpt>
      <trkpt lat="45.21327" lon="5.74322">
        <ele>381.60000610352</ele>
        <time>2026-08-12T13:32:57.000Z</time>
      </trkpt>
      <trkpt lat="45.21327" lon="5.74319">
        <ele>381.60000610352</ele>
        <time>2026-08-12T13:32:58.000Z</time>
      </trkpt>
      <trkpt lat="45.21326" lon="5.74316">
        <ele>381.60000610352</ele>
        <time>2026-08-12T13:32:59.000Z</time>
      </trkpt>
      <trkpt lat="45.21325" lon="5.74313">
        <ele>381.79998779297</ele>
        <time>2026-08-12T13:33:00.000Z</time>
      </trkpt>
      <trkpt lat="45.21324" lon="5.74311">
        <ele>381.79998779297</ele>
        <time>2026-08-12T13:33:01.000Z</time>
      </trkpt>
      <trkpt lat="45.21323" lon="5.74308">
        <ele>381.79998779297</ele>
        <time>2026-08-12T13:33:02.000Z</time>
      </trkpt>
      <trkpt lat="45.21322" lon="5.74306">
        <ele>381.79998779297</ele>
        <time>2026-08-12T13:33:03.000Z</time>
      </trkpt>
      <trkpt lat="45.21322" lon="5.74303">
        <ele>381.79998779297</ele>
        <time>2026-08-12T13:33:04.000Z</time>
      </trkpt>
      <trkpt lat="45.21321" lon="5.74301">
        <ele>381.79998779297</ele>
        <time>2026-08-12T13:33:05.000Z</time>
      </trkpt>
      <trkpt lat="45.2132" lon="5.74298">
        <ele>382</ele>
        <time>2026-08-12T13:33:06.000Z</time>
      </trkpt>
      <trkpt lat="45.2132" lon="5.74295">
        <ele>382</ele>
        <time>2026-08-12T13:33:07.000Z</time>
      </trkpt>
      <trkpt lat="45.21319" lon="5.74292">
        <ele>382.20001220703</ele>
        <time>2026-08-12T13:33:08.000Z</time>
      </trkpt>
      <trkpt lat="45.21318" lon="5.7429">
        <ele>382.20001220703</ele>
        <time>2026-08-12T13:33:09.000Z</time>
      </trkpt>
      <trkpt lat="45.21317" lon="5.74286">
        <ele>382</ele>
        <time>2026-08-12T13:33:10.000Z</time>
      </trkpt>
      <trkpt lat="45.21317" lon="5.74284">
        <ele>381.79998779297</ele>
        <time>2026-08-12T13:33:11.000Z</time>
      </trkpt>
      <trkpt lat="45.21316" lon="5.74281">
        <ele>381.60000610352</ele>
        <time>2026-08-12T13:33:12.000Z</time>
      </trkpt>
      <trkpt lat="45.21316" lon="5.74278">
        <ele>380.79998779297</ele>
        <time>2026-08-12T13:33:13.000Z</time>
      </trkpt>
      <trkpt lat="45.21315" lon="5.74276">
        <ele>379.79998779297</ele>
        <time>2026-08-12T13:33:14.000Z</time>
      </trkpt>
      <trkpt lat="45.21315" lon="5.74274">
        <ele>379.79998779297</ele>
        <time>2026-08-12T13:33:15.000Z</time>
      </trkpt>
      <trkpt lat="45.21314" lon="5.7427">
        <ele>379.79998779297</ele>
        <time>2026-08-12T13:33:16.000Z</time>
      </trkpt>
      <trkpt lat="45.21313" lon="5.74268">
        <ele>379.60000610352</ele>
        <time>2026-08-12T13:33:17.000Z</time>
      </trkpt>
      <trkpt lat="45.21313" lon="5.74265">
        <ele>379.79998779297</ele>
        <time>2026-08-12T13:33:18.000Z</time>
      </trkpt>
      <trkpt lat="45.21312" lon="5.74262">
        <ele>380</ele>
        <time>2026-08-12T13:33:19.000Z</time>
      </trkpt>
      <trkpt lat="45.21311" lon="5.7426">
        <ele>380</ele>
        <time>2026-08-12T13:33:20.000Z</time>
      </trkpt>
      <trkpt lat="45.21311" lon="5.74257">
        <ele>380.20001220703</ele>
        <time>2026-08-12T13:33:21.000Z</time>
      </trkpt>
      <trkpt lat="45.21309" lon="5.74255">
        <ele>380</ele>
        <time>2026-08-12T13:33:22.000Z</time>
      </trkpt>
      <trkpt lat="45.21309" lon="5.74252">
        <ele>380.20001220703</ele>
        <time>2026-08-12T13:33:23.000Z</time>
      </trkpt>
      <trkpt lat="45.21308" lon="5.7425">
        <ele>380.60000610352</ele>
        <time>2026-08-12T13:33:24.000Z</time>
      </trkpt>
      <trkpt lat="45.21307" lon="5.74246">
        <ele>381.20001220703</ele>
        <time>2026-08-12T13:33:25.000Z</time>
      </trkpt>
      <trkpt lat="45.21306" lon="5.74244">
        <ele>382</ele>
        <time>2026-08-12T13:33:26.000Z</time>
      </trkpt>
      <trkpt lat="45.21304" lon="5.74241">
        <ele>382.60000610352</ele>
        <time>2026-08-12T13:33:27.000Z</time>
      </trkpt>
      <trkpt lat="45.21303" lon="5.74239">
        <ele>383</ele>
        <time>2026-08-12T13:33:28.000Z</time>
      </trkpt>
      <trkpt lat="45.21302" lon="5.74237">
        <ele>383</ele>
        <time>2026-08-12T13:33:29.000Z</time>
      </trkpt>
      <trkpt lat="45.21301" lon="5.74235">
        <ele>383.39999389648</ele>
        <time>2026-08-12T13:33:30.000Z</time>
      </trkpt>
      <trkpt lat="45.21299" lon="5.74233">
        <ele>383.79998779297</ele>
        <time>2026-08-12T13:33:31.000Z</time>
      </trkpt>
      <trkpt lat="45.21298" lon="5.74231">
        <ele>384</ele>
        <time>2026-08-12T13:33:32.000Z</time>
      </trkpt>
      <trkpt lat="45.21296" lon="5.74228">
        <ele>384.20001220703</ele>
        <time>2026-08-12T13:33:33.000Z</time>
      </trkpt>
      <trkpt lat="45.21294" lon="5.74227">
        <ele>384.39999389648</ele>
        <time>2026-08-12T13:33:34.000Z</time>
      </trkpt>
      <trkpt lat="45.21293" lon="5.74224">
        <ele>384.39999389648</ele>
        <time>2026-08-12T13:33:35.000Z</time>
      </trkpt>
      <trkpt lat="45.21291" lon="5.74222">
        <ele>384.60000610352</ele>
        <time>2026-08-12T13:33:36.000Z</time>
      </trkpt>
      <trkpt lat="45.21289" lon="5.7422">
        <ele>384.60000610352</ele>
        <time>2026-08-12T13:33:37.000Z</time>
      </trkpt>
      <trkpt lat="45.21287" lon="5.74218">
        <ele>384.20001220703</ele>
        <time>2026-08-12T13:33:38.000Z</time>
      </trkpt>
      <trkpt lat="45.21285" lon="5.74216">
        <ele>384.20001220703</ele>
        <time>2026-08-12T13:33:39.000Z</time>
      </trkpt>
      <trkpt lat="45.21283" lon="5.74214">
        <ele>384</ele>
        <time>2026-08-12T13:33:40.000Z</time>
      </trkpt>
      <trkpt lat="45.21281" lon="5.74212">
        <ele>383.79998779297</ele>
        <time>2026-08-12T13:33:41.000Z</time>
      </trkpt>
      <trkpt lat="45.21279" lon="5.7421">
        <ele>383.39999389648</ele>
        <time>2026-08-12T13:33:42.000Z</time>
      </trkpt>
      <trkpt lat="45.21277" lon="5.74209">
        <ele>382.79998779297</ele>
        <time>2026-08-12T13:33:43.000Z</time>
      </trkpt>
      <trkpt lat="45.21275" lon="5.74208">
        <ele>382.60000610352</ele>
        <time>2026-08-12T13:33:44.000Z</time>
      </trkpt>
      <trkpt lat="45.21273" lon="5.74207">
        <ele>382.60000610352</ele>
        <time>2026-08-12T13:33:45.000Z</time>
      </trkpt>
      <trkpt lat="45.2127" lon="5.74205">
        <ele>382.39999389648</ele>
        <time>2026-08-12T13:33:46.000Z</time>
      </trkpt>
      <trkpt lat="45.21268" lon="5.74204">
        <ele>382.20001220703</ele>
        <time>2026-08-12T13:33:47.000Z</time>
      </trkpt>
      <trkpt lat="45.21266" lon="5.74203">
        <ele>382.20001220703</ele>
        <time>2026-08-12T13:33:48.000Z</time>
      </trkpt>
      <trkpt lat="45.21264" lon="5.74202">
        <ele>382.39999389648</ele>
        <time>2026-08-12T13:33:49.000Z</time>
      </trkpt>
      <trkpt lat="45.21262" lon="5.74202">
        <ele>382.39999389648</ele>
        <time>2026-08-12T13:33:50.000Z</time>
      </trkpt>
      <trkpt lat="45.21259" lon="5.74201">
        <ele>382.39999389648</ele>
        <time>2026-08-12T13:33:51.000Z</time>
      </trkpt>
      <trkpt lat="45.21257" lon="5.742">
        <ele>382.60000610352</ele>
        <time>2026-08-12T13:33:52.000Z</time>
      </trkpt>
      <trkpt lat="45.21255" lon="5.742">
        <ele>382.60000610352</ele>
        <time>2026-08-12T13:33:53.000Z</time>
      </trkpt>
      <trkpt lat="45.21253" lon="5.74199">
        <ele>382.60000610352</ele>
        <time>2026-08-12T13:33:54.000Z</time>
      </trkpt>
      <trkpt lat="45.21251" lon="5.74198">
        <ele>382.60000610352</ele>
        <time>2026-08-12T13:33:55.000Z</time>
      </trkpt>
      <trkpt lat="45.21248" lon="5.74198">
        <ele>382.60000610352</ele>
        <time>2026-08-12T13:33:56.000Z</time>
      </trkpt>
      <trkpt lat="45.21246" lon="5.74197">
        <ele>382.39999389648</ele>
        <time>2026-08-12T13:33:57.000Z</time>
      </trkpt>
      <trkpt lat="45.21244" lon="5.74196">
        <ele>382.20001220703</ele>
        <time>2026-08-12T13:33:58.000Z</time>
      </trkpt>
      <trkpt lat="45.21242" lon="5.74195">
        <ele>382.20001220703</ele>
        <time>2026-08-12T13:33:59.000Z</time>
      </trkpt>
      <trkpt lat="45.2124" lon="5.74194">
        <ele>382</ele>
        <time>2026-08-12T13:34:00.000Z</time>
      </trkpt>
      <trkpt lat="45.21238" lon="5.74194">
        <ele>381.79998779297</ele>
        <time>2026-08-12T13:34:01.000Z</time>
      </trkpt>
      <trkpt lat="45.21236" lon="5.74193">
        <ele>381.60000610352</ele>
        <time>2026-08-12T13:34:02.000Z</time>
      </trkpt>
      <trkpt lat="45.21234" lon="5.74192">
        <ele>381.60000610352</ele>
        <time>2026-08-12T13:34:03.000Z</time>
      </trkpt>
      <trkpt lat="45.21232" lon="5.74191">
        <ele>381.20001220703</ele>
        <time>2026-08-12T13:34:04.000Z</time>
      </trkpt>
      <trkpt lat="45.2123" lon="5.7419">
        <ele>380.60000610352</ele>
        <time>2026-08-12T13:34:05.000Z</time>
      </trkpt>
      <trkpt lat="45.21228" lon="5.74189">
        <ele>379.79998779297</ele>
        <time>2026-08-12T13:34:06.000Z</time>
      </trkpt>
      <trkpt lat="45.21226" lon="5.74188">
        <ele>379.20001220703</ele>
        <time>2026-08-12T13:34:07.000Z</time>
      </trkpt>
      <trkpt lat="45.21224" lon="5.74188">
        <ele>378.60000610352</ele>
        <time>2026-08-12T13:34:08.000Z</time>
      </trkpt>
      <trkpt lat="45.21222" lon="5.74186">
        <ele>377.20001220703</ele>
        <time>2026-08-12T13:34:09.000Z</time>
      </trkpt>
      <trkpt lat="45.2122" lon="5.74185">
        <ele>376.39999389648</ele>
        <time>2026-08-12T13:34:10.000Z</time>
      </trkpt>
      <trkpt lat="45.21218" lon="5.74184">
        <ele>376.20001220703</ele>
        <time>2026-08-12T13:34:11.000Z</time>
      </trkpt>
      <trkpt lat="45.21216" lon="5.74183">
        <ele>376.20001220703</ele>
        <time>2026-08-12T13:34:12.000Z</time>
      </trkpt>
      <trkpt lat="45.21215" lon="5.74182">
        <ele>376.39999389648</ele>
        <time>2026-08-12T13:34:13.000Z</time>
      </trkpt>
      <trkpt lat="45.21213" lon="5.74182">
        <ele>376.60000610352</ele>
        <time>2026-08-12T13:34:14.000Z</time>
      </trkpt>
      <trkpt lat="45.21212" lon="5.7418">
        <ele>377</ele>
        <time>2026-08-12T13:34:15.000Z</time>
      </trkpt>
      <trkpt lat="45.2121" lon="5.74179">
        <ele>377.20001220703</ele>
        <time>2026-08-12T13:34:16.000Z</time>
      </trkpt>
      <trkpt lat="45.21209" lon="5.74178">
        <ele>377.20001220703</ele>
        <time>2026-08-12T13:34:17.000Z</time>
      </trkpt>
      <trkpt lat="45.21207" lon="5.74177">
        <ele>377.39999389648</ele>
        <time>2026-08-12T13:34:18.000Z</time>
      </trkpt>
      <trkpt lat="45.21205" lon="5.74175">
        <ele>377.60000610352</ele>
        <time>2026-08-12T13:34:19.000Z</time>
      </trkpt>
      <trkpt lat="45.21204" lon="5.74173">
        <ele>377.60000610352</ele>
        <time>2026-08-12T13:34:20.000Z</time>
      </trkpt>
      <trkpt lat="45.21203" lon="5.74172">
        <ele>378.20001220703</ele>
        <time>2026-08-12T13:34:21.000Z</time>
      </trkpt>
      <trkpt lat="45.21201" lon="5.7417">
        <ele>378.39999389648</ele>
        <time>2026-08-12T13:34:22.000Z</time>
      </trkpt>
      <trkpt lat="45.212" lon="5.74169">
        <ele>378.79998779297</ele>
        <time>2026-08-12T13:34:23.000Z</time>
      </trkpt>
      <trkpt lat="45.21198" lon="5.74167">
        <ele>379.79998779297</ele>
        <time>2026-08-12T13:34:24.000Z</time>
      </trkpt>
      <trkpt lat="45.21197" lon="5.74166">
        <ele>380.20001220703</ele>
        <time>2026-08-12T13:34:25.000Z</time>
      </trkpt>
      <trkpt lat="45.21196" lon="5.74163">
        <ele>381.39999389648</ele>
        <time>2026-08-12T13:34:26.000Z</time>
      </trkpt>
      <trkpt lat="45.21195" lon="5.74161">
        <ele>382.39999389648</ele>
        <time>2026-08-12T13:34:27.000Z</time>
      </trkpt>
      <trkpt lat="45.21194" lon="5.74159">
        <ele>383.39999389648</ele>
        <time>2026-08-12T13:34:28.000Z</time>
      </trkpt>
      <trkpt lat="45.21193" lon="5.74157">
        <ele>384.39999389648</ele>
        <time>2026-08-12T13:34:29.000Z</time>
      </trkpt>
      <trkpt lat="45.21191" lon="5.74155">
        <ele>385.79998779297</ele>
        <time>2026-08-12T13:34:30.000Z</time>
      </trkpt>
      <trkpt lat="45.2119" lon="5.74153">
        <ele>385.79998779297</ele>
        <time>2026-08-12T13:34:31.000Z</time>
      </trkpt>
      <trkpt lat="45.21189" lon="5.74151">
        <ele>385.79998779297</ele>
        <time>2026-08-12T13:34:32.000Z</time>
      </trkpt>
      <trkpt lat="45.21187" lon="5.74149">
        <ele>386</ele>
        <time>2026-08-12T13:34:33.000Z</time>
      </trkpt>
      <trkpt lat="45.21186" lon="5.74147">
        <ele>386</ele>
        <time>2026-08-12T13:34:34.000Z</time>
      </trkpt>
      <trkpt lat="45.21185" lon="5.74145">
        <ele>385.79998779297</ele>
        <time>2026-08-12T13:34:35.000Z</time>
      </trkpt>
      <trkpt lat="45.21183" lon="5.74143">
        <ele>385.60000610352</ele>
        <time>2026-08-12T13:34:36.000Z</time>
      </trkpt>
      <trkpt lat="45.21182" lon="5.74141">
        <ele>385.60000610352</ele>
        <time>2026-08-12T13:34:37.000Z</time>
      </trkpt>
      <trkpt lat="45.21181" lon="5.74139">
        <ele>385.60000610352</ele>
        <time>2026-08-12T13:34:38.000Z</time>
      </trkpt>
      <trkpt lat="45.21179" lon="5.74137">
        <ele>385.60000610352</ele>
        <time>2026-08-12T13:34:39.000Z</time>
      </trkpt>
      <trkpt lat="45.21178" lon="5.74135">
        <ele>385.60000610352</ele>
        <time>2026-08-12T13:34:40.000Z</time>
      </trkpt>
      <trkpt lat="45.21177" lon="5.74133">
        <ele>385.39999389648</ele>
        <time>2026-08-12T13:34:41.000Z</time>
      </trkpt>
      <trkpt lat="45.21177" lon="5.74131">
        <ele>384</ele>
        <time>2026-08-12T13:34:42.000Z</time>
      </trkpt>
      <trkpt lat="45.21176" lon="5.74128">
        <ele>383.60000610352</ele>
        <time>2026-08-12T13:34:43.000Z</time>
      </trkpt>
      <trkpt lat="45.21175" lon="5.74126">
        <ele>383.20001220703</ele>
        <time>2026-08-12T13:34:44.000Z</time>
      </trkpt>
      <trkpt lat="45.21175" lon="5.74124">
        <ele>382.79998779297</ele>
        <time>2026-08-12T13:34:45.000Z</time>
      </trkpt>
      <trkpt lat="45.21175" lon="5.74122">
        <ele>382.39999389648</ele>
        <time>2026-08-12T13:34:46.000Z</time>
      </trkpt>
      <trkpt lat="45.21176" lon="5.74119">
        <ele>382.20001220703</ele>
        <time>2026-08-12T13:34:47.000Z</time>
      </trkpt>
      <trkpt lat="45.21177" lon="5.74118">
        <ele>382.20001220703</ele>
        <time>2026-08-12T13:34:48.000Z</time>
      </trkpt>
      <trkpt lat="45.21178" lon="5.74116">
        <ele>382.20001220703</ele>
        <time>2026-08-12T13:34:49.000Z</time>
      </trkpt>
      <trkpt lat="45.21179" lon="5.74114">
        <ele>382.60000610352</ele>
        <time>2026-08-12T13:34:50.000Z</time>
      </trkpt>
      <trkpt lat="45.21179" lon="5.74113">
        <ele>382.79998779297</ele>
        <time>2026-08-12T13:34:51.000Z</time>
      </trkpt>
      <trkpt lat="45.2118" lon="5.74111">
        <ele>382.79998779297</ele>
        <time>2026-08-12T13:34:52.000Z</time>
      </trkpt>
      <trkpt lat="45.2118" lon="5.7411">
        <ele>383</ele>
        <time>2026-08-12T13:34:53.000Z</time>
      </trkpt>
      <trkpt lat="45.21181" lon="5.74109">
        <ele>383</ele>
        <time>2026-08-12T13:34:54.000Z</time>
      </trkpt>
      <trkpt lat="45.21181" lon="5.74107">
        <ele>382.79998779297</ele>
        <time>2026-08-12T13:34:55.000Z</time>
      </trkpt>
      <trkpt lat="45.21181" lon="5.74106">
        <ele>382.79998779297</ele>
        <time>2026-08-12T13:34:56.000Z</time>
      </trkpt>
      <trkpt lat="45.21182" lon="5.74104">
        <ele>382.79998779297</ele>
        <time>2026-08-12T13:34:57.000Z</time>
      </trkpt>
      <trkpt lat="45.21182" lon="5.74103">
        <ele>382.79998779297</ele>
        <time>2026-08-12T13:34:58.000Z</time>
      </trkpt>
      <trkpt lat="45.21182" lon="5.74102">
        <ele>383</ele>
        <time>2026-08-12T13:34:59.000Z</time>
      </trkpt>
      <trkpt lat="45.21183" lon="5.74101">
        <ele>383</ele>
        <time>2026-08-12T13:35:00.000Z</time>
      </trkpt>
      <trkpt lat="45.21183" lon="5.74099">
        <ele>383.20001220703</ele>
        <time>2026-08-12T13:35:01.000Z</time>
      </trkpt>
      <trkpt lat="45.21184" lon="5.74098">
        <ele>383.20001220703</ele>
        <time>2026-08-12T13:35:02.000Z</time>
      </trkpt>
      <trkpt lat="45.21184" lon="5.74096">
        <ele>383.39999389648</ele>
        <time>2026-08-12T13:35:03.000Z</time>
      </trkpt>
      <trkpt lat="45.21184" lon="5.74095">
        <ele>383.39999389648</ele>
        <time>2026-08-12T13:35:04.000Z</time>
      </trkpt>
      <trkpt lat="45.21185" lon="5.74094">
        <ele>383.39999389648</ele>
        <time>2026-08-12T13:35:05.000Z</time>
      </trkpt>
      <trkpt lat="45.21185" lon="5.74093">
        <ele>383.60000610352</ele>
        <time>2026-08-12T13:35:06.000Z</time>
      </trkpt>
      <trkpt lat="45.21185" lon="5.74092">
        <ele>383.60000610352</ele>
        <time>2026-08-12T13:35:07.000Z</time>
      </trkpt>
      <trkpt lat="45.21185" lon="5.74091">
        <ele>383.79998779297</ele>
        <time>2026-08-12T13:35:08.000Z</time>
      </trkpt>
      <trkpt lat="45.21185" lon="5.7409">
        <ele>383.79998779297</ele>
        <time>2026-08-12T13:35:09.000Z</time>
      </trkpt>
      <trkpt lat="45.21185" lon="5.74088">
        <ele>383.39999389648</ele>
        <time>2026-08-12T13:35:10.000Z</time>
      </trkpt>
      <trkpt lat="45.21186" lon="5.74086">
        <ele>383</ele>
        <time>2026-08-12T13:35:11.000Z</time>
      </trkpt>
      <trkpt lat="45.21186" lon="5.74085">
        <ele>382.60000610352</ele>
        <time>2026-08-12T13:35:12.000Z</time>
      </trkpt>
      <trkpt lat="45.21186" lon="5.74084">
        <ele>382</ele>
        <time>2026-08-12T13:35:13.000Z</time>
      </trkpt>
      <trkpt lat="45.21186" lon="5.74083">
        <ele>381.39999389648</ele>
        <time>2026-08-12T13:35:14.000Z</time>
      </trkpt>
      <trkpt lat="45.21186" lon="5.74082">
        <ele>380.79998779297</ele>
        <time>2026-08-12T13:35:15.000Z</time>
      </trkpt>
      <trkpt lat="45.21186" lon="5.74081">
        <ele>380.60000610352</ele>
        <time>2026-08-12T13:35:16.000Z</time>
      </trkpt>
      <trkpt lat="45.21186" lon="5.7408">
        <ele>380.60000610352</ele>
        <time>2026-08-12T13:35:17.000Z</time>
      </trkpt>
      <trkpt lat="45.21186" lon="5.74079">
        <ele>380.39999389648</ele>
        <time>2026-08-12T13:35:18.000Z</time>
      </trkpt>
      <trkpt lat="45.21186" lon="5.74078">
        <ele>380.20001220703</ele>
        <time>2026-08-12T13:35:19.000Z</time>
      </trkpt>
      <trkpt lat="45.21186" lon="5.74077">
        <ele>380.60000610352</ele>
        <time>2026-08-12T13:35:20.000Z</time>
      </trkpt>
      <trkpt lat="45.21186" lon="5.74075">
        <ele>381</ele>
        <time>2026-08-12T13:35:21.000Z</time>
      </trkpt>
      <trkpt lat="45.21186" lon="5.74074">
        <ele>380.79998779297</ele>
        <time>2026-08-12T13:35:22.000Z</time>
      </trkpt>
      <trkpt lat="45.21186" lon="5.74072">
        <ele>380.60000610352</ele>
        <time>2026-08-12T13:35:23.000Z</time>
      </trkpt>
      <trkpt lat="45.21186" lon="5.74071">
        <ele>380.60000610352</ele>
        <time>2026-08-12T13:35:24.000Z</time>
      </trkpt>
      <trkpt lat="45.21186" lon="5.74069">
        <ele>380.39999389648</ele>
        <time>2026-08-12T13:35:25.000Z</time>
      </trkpt>
      <trkpt lat="45.21186" lon="5.74068">
        <ele>380.60000610352</ele>
        <time>2026-08-12T13:35:26.000Z</time>
      </trkpt>
      <trkpt lat="45.21186" lon="5.74066">
        <ele>380.79998779297</ele>
        <time>2026-08-12T13:35:27.000Z</time>
      </trkpt>
      <trkpt lat="45.21185" lon="5.74065">
        <ele>381</ele>
        <time>2026-08-12T13:35:28.000Z</time>
      </trkpt>
      <trkpt lat="45.21185" lon="5.74064">
        <ele>381.20001220703</ele>
        <time>2026-08-12T13:35:29.000Z</time>
      </trkpt>
      <trkpt lat="45.21185" lon="5.74063">
        <ele>382</ele>
        <time>2026-08-12T13:35:30.000Z</time>
      </trkpt>
      <trkpt lat="45.21184" lon="5.74061">
        <ele>382</ele>
        <time>2026-08-12T13:35:31.000Z</time>
      </trkpt>
      <trkpt lat="45.21184" lon="5.7406">
        <ele>382.39999389648</ele>
        <time>2026-08-12T13:35:32.000Z</time>
      </trkpt>
      <trkpt lat="45.21185" lon="5.74059">
        <ele>383.39999389648</ele>
        <time>2026-08-12T13:35:33.000Z</time>
      </trkpt>
      <trkpt lat="45.21185" lon="5.74058">
        <ele>384.20001220703</ele>
        <time>2026-08-12T13:35:34.000Z</time>
      </trkpt>
      <trkpt lat="45.21185" lon="5.74057">
        <ele>384.79998779297</ele>
        <time>2026-08-12T13:35:35.000Z</time>
      </trkpt>
      <trkpt lat="45.21186" lon="5.74056">
        <ele>385.39999389648</ele>
        <time>2026-08-12T13:35:36.000Z</time>
      </trkpt>
      <trkpt lat="45.21186" lon="5.74055">
        <ele>387.20001220703</ele>
        <time>2026-08-12T13:35:37.000Z</time>
      </trkpt>
      <trkpt lat="45.21186" lon="5.74053">
        <ele>387.60000610352</ele>
        <time>2026-08-12T13:35:38.000Z</time>
      </trkpt>
      <trkpt lat="45.21187" lon="5.74052">
        <ele>388.20001220703</ele>
        <time>2026-08-12T13:35:39.000Z</time>
      </trkpt>
      <trkpt lat="45.21187" lon="5.74051">
        <ele>388.39999389648</ele>
        <time>2026-08-12T13:35:40.000Z</time>
      </trkpt>
      <trkpt lat="45.21187" lon="5.7405">
        <ele>389.20001220703</ele>
        <time>2026-08-12T13:35:41.000Z</time>
      </trkpt>
      <trkpt lat="45.21188" lon="5.74048">
        <ele>390.20001220703</ele>
        <time>2026-08-12T13:35:42.000Z</time>
      </trkpt>
      <trkpt lat="45.21188" lon="5.74047">
        <ele>391</ele>
        <time>2026-08-12T13:35:43.000Z</time>
      </trkpt>
      <trkpt lat="45.21188" lon="5.74046">
        <ele>391.79998779297</ele>
        <time>2026-08-12T13:35:44.000Z</time>
      </trkpt>
      <trkpt lat="45.21189" lon="5.74044">
        <ele>392.20001220703</ele>
        <time>2026-08-12T13:35:45.000Z</time>
      </trkpt>
      <trkpt lat="45.2119" lon="5.74043">
        <ele>392.60000610352</ele>
        <time>2026-08-12T13:35:46.000Z</time>
      </trkpt>
      <trkpt lat="45.21191" lon="5.74042">
        <ele>393</ele>
        <time>2026-08-12T13:35:47.000Z</time>
      </trkpt>
      <trkpt lat="45.21192" lon="5.74041">
        <ele>393.20001220703</ele>
        <time>2026-08-12T13:35:48.000Z</time>
      </trkpt>
      <trkpt lat="45.21193" lon="5.7404">
        <ele>393.20001220703</ele>
        <time>2026-08-12T13:35:49.000Z</time>
      </trkpt>
      <trkpt lat="45.21194" lon="5.7404">
        <ele>393.39999389648</ele>
        <time>2026-08-12T13:35:50.000Z</time>
      </trkpt>
      <trkpt lat="45.21194" lon="5.74039">
        <ele>393.39999389648</ele>
        <time>2026-08-12T13:35:51.000Z</time>
      </trkpt>
      <trkpt lat="45.21194" lon="5.74038">
        <ele>393.60000610352</ele>
        <time>2026-08-12T13:35:52.000Z</time>
      </trkpt>
      <trkpt lat="45.21194" lon="5.74037">
        <ele>393.60000610352</ele>
        <time>2026-08-12T13:35:53.000Z</time>
      </trkpt>
      <trkpt lat="45.21194" lon="5.74036">
        <ele>393.79998779297</ele>
        <time>2026-08-12T13:35:54.000Z</time>
      </trkpt>
      <trkpt lat="45.21194" lon="5.74035">
        <ele>393.60000610352</ele>
        <time>2026-08-12T13:35:55.000Z</time>
      </trkpt>
      <trkpt lat="45.21194" lon="5.74034">
        <ele>393.39999389648</ele>
        <time>2026-08-12T13:35:56.000Z</time>
      </trkpt>
      <trkpt lat="45.21194" lon="5.74033">
        <ele>393.20001220703</ele>
        <time>2026-08-12T13:35:57.000Z</time>
      </trkpt>
      <trkpt lat="45.21194" lon="5.74032">
        <ele>393</ele>
        <time>2026-08-12T13:35:58.000Z</time>
      </trkpt>
      <trkpt lat="45.21193" lon="5.7403">
        <ele>391.60000610352</ele>
        <time>2026-08-12T13:35:59.000Z</time>
      </trkpt>
      <trkpt lat="45.21192" lon="5.74029">
        <ele>390.79998779297</ele>
        <time>2026-08-12T13:36:00.000Z</time>
      </trkpt>
      <trkpt lat="45.21192" lon="5.74027">
        <ele>391</ele>
        <time>2026-08-12T13:36:01.000Z</time>
      </trkpt>
      <trkpt lat="45.21191" lon="5.74025">
        <ele>390.79998779297</ele>
        <time>2026-08-12T13:36:02.000Z</time>
      </trkpt>
      <trkpt lat="45.21191" lon="5.74024">
        <ele>390.60000610352</ele>
        <time>2026-08-12T13:36:03.000Z</time>
      </trkpt>
      <trkpt lat="45.2119" lon="5.74023">
        <ele>390.39999389648</ele>
        <time>2026-08-12T13:36:04.000Z</time>
      </trkpt>
      <trkpt lat="45.2119" lon="5.74021">
        <ele>390.20001220703</ele>
        <time>2026-08-12T13:36:05.000Z</time>
      </trkpt>
      <trkpt lat="45.21189" lon="5.7402">
        <ele>390</ele>
        <time>2026-08-12T13:36:06.000Z</time>
      </trkpt>
      <trkpt lat="45.21189" lon="5.74019">
        <ele>389.79998779297</ele>
        <time>2026-08-12T13:36:07.000Z</time>
      </trkpt>
      <trkpt lat="45.21188" lon="5.74017">
        <ele>389.60000610352</ele>
        <time>2026-08-12T13:36:08.000Z</time>
      </trkpt>
      <trkpt lat="45.21187" lon="5.74016">
        <ele>390</ele>
        <time>2026-08-12T13:36:09.000Z</time>
      </trkpt>
      <trkpt lat="45.21186" lon="5.74014">
        <ele>390.20001220703</ele>
        <time>2026-08-12T13:36:10.000Z</time>
      </trkpt>
      <trkpt lat="45.21185" lon="5.74013">
        <ele>390.20001220703</ele>
        <time>2026-08-12T13:36:11.000Z</time>
      </trkpt>
      <trkpt lat="45.21184" lon="5.74011">
        <ele>390.20001220703</ele>
        <time>2026-08-12T13:36:12.000Z</time>
      </trkpt>
      <trkpt lat="45.21183" lon="5.7401">
        <ele>390.20001220703</ele>
        <time>2026-08-12T13:36:13.000Z</time>
      </trkpt>
      <trkpt lat="45.21182" lon="5.74008">
        <ele>390.60000610352</ele>
        <time>2026-08-12T13:36:14.000Z</time>
      </trkpt>
      <trkpt lat="45.21181" lon="5.74007">
        <ele>391</ele>
        <time>2026-08-12T13:36:15.000Z</time>
      </trkpt>
      <trkpt lat="45.2118" lon="5.74005">
        <ele>392</ele>
        <time>2026-08-12T13:36:16.000Z</time>
      </trkpt>
      <trkpt lat="45.21179" lon="5.74003">
        <ele>392.79998779297</ele>
        <time>2026-08-12T13:36:17.000Z</time>
      </trkpt>
      <trkpt lat="45.21178" lon="5.74002">
        <ele>393.79998779297</ele>
        <time>2026-08-12T13:36:18.000Z</time>
      </trkpt>
      <trkpt lat="45.21177" lon="5.74">
        <ele>394.79998779297</ele>
        <time>2026-08-12T13:36:19.000Z</time>
      </trkpt>
      <trkpt lat="45.21176" lon="5.73998">
        <ele>395.60000610352</ele>
        <time>2026-08-12T13:36:20.000Z</time>
      </trkpt>
      <trkpt lat="45.21175" lon="5.73996">
        <ele>397.60000610352</ele>
        <time>2026-08-12T13:36:21.000Z</time>
      </trkpt>
      <trkpt lat="45.21174" lon="5.73994">
        <ele>398</ele>
        <time>2026-08-12T13:36:22.000Z</time>
      </trkpt>
      <trkpt lat="45.21173" lon="5.73992">
        <ele>398.79998779297</ele>
        <time>2026-08-12T13:36:23.000Z</time>
      </trkpt>
      <trkpt lat="45.21173" lon="5.73989">
        <ele>399.79998779297</ele>
        <time>2026-08-12T13:36:24.000Z</time>
      </trkpt>
      <trkpt lat="45.21173" lon="5.73987">
        <ele>400.20001220703</ele>
        <time>2026-08-12T13:36:25.000Z</time>
      </trkpt>
      <trkpt lat="45.21173" lon="5.73985">
        <ele>401</ele>
        <time>2026-08-12T13:36:26.000Z</time>
      </trkpt>
      <trkpt lat="45.21173" lon="5.73983">
        <ele>401.20001220703</ele>
        <time>2026-08-12T13:36:27.000Z</time>
      </trkpt>
      <trkpt lat="45.21173" lon="5.73981">
        <ele>401.20001220703</ele>
        <time>2026-08-12T13:36:28.000Z</time>
      </trkpt>
      <trkpt lat="45.21173" lon="5.73979">
        <ele>401.39999389648</ele>
        <time>2026-08-12T13:36:29.000Z</time>
      </trkpt>
      <trkpt lat="45.21173" lon="5.73977">
        <ele>401.60000610352</ele>
        <time>2026-08-12T13:36:30.000Z</time>
      </trkpt>
      <trkpt lat="45.21173" lon="5.73975">
        <ele>401.60000610352</ele>
        <time>2026-08-12T13:36:31.000Z</time>
      </trkpt>
      <trkpt lat="45.21174" lon="5.73973">
        <ele>401.79998779297</ele>
        <time>2026-08-12T13:36:32.000Z</time>
      </trkpt>
      <trkpt lat="45.21174" lon="5.73971">
        <ele>401.79998779297</ele>
        <time>2026-08-12T13:36:33.000Z</time>
      </trkpt>
      <trkpt lat="45.21174" lon="5.73969">
        <ele>401.79998779297</ele>
        <time>2026-08-12T13:36:34.000Z</time>
      </trkpt>
      <trkpt lat="45.21174" lon="5.73967">
        <ele>401.79998779297</ele>
        <time>2026-08-12T13:36:35.000Z</time>
      </trkpt>
      <trkpt lat="45.21174" lon="5.73966">
        <ele>401.79998779297</ele>
        <time>2026-08-12T13:36:36.000Z</time>
      </trkpt>
      <trkpt lat="45.21174" lon="5.73964">
        <ele>401.79998779297</ele>
        <time>2026-08-12T13:36:37.000Z</time>
      </trkpt>
      <trkpt lat="45.21173" lon="5.73962">
        <ele>401.79998779297</ele>
        <time>2026-08-12T13:36:38.000Z</time>
      </trkpt>
      <trkpt lat="45.21173" lon="5.7396">
        <ele>401.79998779297</ele>
        <time>2026-08-12T13:36:39.000Z</time>
      </trkpt>
      <trkpt lat="45.21172" lon="5.73959">
        <ele>401.79998779297</ele>
        <time>2026-08-12T13:36:40.000Z</time>
      </trkpt>
      <trkpt lat="45.21172" lon="5.73958">
        <ele>402</ele>
        <time>2026-08-12T13:36:41.000Z</time>
      </trkpt>
      <trkpt lat="45.21171" lon="5.73957">
        <ele>402</ele>
        <time>2026-08-12T13:36:42.000Z</time>
      </trkpt>
      <trkpt lat="45.21171" lon="5.73956">
        <ele>402</ele>
        <time>2026-08-12T13:36:43.000Z</time>
      </trkpt>
      <trkpt lat="45.21171" lon="5.73954">
        <ele>402</ele>
        <time>2026-08-12T13:36:44.000Z</time>
      </trkpt>
      <trkpt lat="45.2117" lon="5.73952">
        <ele>402.20001220703</ele>
        <time>2026-08-12T13:36:45.000Z</time>
      </trkpt>
      <trkpt lat="45.2117" lon="5.7395">
        <ele>402.20001220703</ele>
        <time>2026-08-12T13:36:46.000Z</time>
      </trkpt>
      <trkpt lat="45.21169" lon="5.73949">
        <ele>402.39999389648</ele>
        <time>2026-08-12T13:36:47.000Z</time>
      </trkpt>
      <trkpt lat="45.21169" lon="5.73947">
        <ele>402.60000610352</ele>
        <time>2026-08-12T13:36:48.000Z</time>
      </trkpt>
      <trkpt lat="45.21168" lon="5.73946">
        <ele>402.79998779297</ele>
        <time>2026-08-12T13:36:49.000Z</time>
      </trkpt>
      <trkpt lat="45.21168" lon="5.73944">
        <ele>403</ele>
        <time>2026-08-12T13:36:50.000Z</time>
      </trkpt>
      <trkpt lat="45.21167" lon="5.73943">
        <ele>403.20001220703</ele>
        <time>2026-08-12T13:36:51.000Z</time>
      </trkpt>
      <trkpt lat="45.21167" lon="5.73943">
        <ele>403.20001220703</ele>
        <time>2026-08-12T13:36:52.000Z</time>
      </trkpt>
      <trkpt lat="45.21166" lon="5.73942">
        <ele>403.20001220703</ele>
        <time>2026-08-12T13:36:53.000Z</time>
      </trkpt>
      <trkpt lat="45.21166" lon="5.73941">
        <ele>403.39999389648</ele>
        <time>2026-08-12T13:36:54.000Z</time>
      </trkpt>
      <trkpt lat="45.21165" lon="5.73939">
        <ele>403.39999389648</ele>
        <time>2026-08-12T13:36:55.000Z</time>
      </trkpt>
      <trkpt lat="45.21164" lon="5.73938">
        <ele>403.60000610352</ele>
        <time>2026-08-12T13:36:56.000Z</time>
      </trkpt>
      <trkpt lat="45.21164" lon="5.73937">
        <ele>403.60000610352</ele>
        <time>2026-08-12T13:36:57.000Z</time>
      </trkpt>
      <trkpt lat="45.21163" lon="5.73936">
        <ele>403.79998779297</ele>
        <time>2026-08-12T13:36:58.000Z</time>
      </trkpt>
      <trkpt lat="45.21163" lon="5.73935">
        <ele>403.79998779297</ele>
        <time>2026-08-12T13:36:59.000Z</time>
      </trkpt>
      <trkpt lat="45.21163" lon="5.73933">
        <ele>404.20001220703</ele>
        <time>2026-08-12T13:37:00.000Z</time>
      </trkpt>
      <trkpt lat="45.21163" lon="5.73932">
        <ele>404.39999389648</ele>
        <time>2026-08-12T13:37:01.000Z</time>
      </trkpt>
      <trkpt lat="45.21162" lon="5.7393">
        <ele>404.79998779297</ele>
        <time>2026-08-12T13:37:02.000Z</time>
      </trkpt>
      <trkpt lat="45.21162" lon="5.73929">
        <ele>405</ele>
        <time>2026-08-12T13:37:03.000Z</time>
      </trkpt>
      <trkpt lat="45.21162" lon="5.73928">
        <ele>405.20001220703</ele>
        <time>2026-08-12T13:37:04.000Z</time>
      </trkpt>
      <trkpt lat="45.21162" lon="5.73927">
        <ele>405.20001220703</ele>
        <time>2026-08-12T13:37:05.000Z</time>
      </trkpt>
      <trkpt lat="45.21162" lon="5.73926">
        <ele>405.39999389648</ele>
        <time>2026-08-12T13:37:06.000Z</time>
      </trkpt>
      <trkpt lat="45.21161" lon="5.73925">
        <ele>405.39999389648</ele>
        <time>2026-08-12T13:37:07.000Z</time>
      </trkpt>
      <trkpt lat="45.21161" lon="5.73923">
        <ele>405.60000610352</ele>
        <time>2026-08-12T13:37:08.000Z</time>
      </trkpt>
      <trkpt lat="45.21161" lon="5.73922">
        <ele>405.39999389648</ele>
        <time>2026-08-12T13:37:09.000Z</time>
      </trkpt>
      <trkpt lat="45.21161" lon="5.73921">
        <ele>405.39999389648</ele>
        <time>2026-08-12T13:37:10.000Z</time>
      </trkpt>
      <trkpt lat="45.21161" lon="5.7392">
        <ele>405.20001220703</ele>
        <time>2026-08-12T13:37:11.000Z</time>
      </trkpt>
      <trkpt lat="45.2116" lon="5.73919">
        <ele>405</ele>
        <time>2026-08-12T13:37:12.000Z</time>
      </trkpt>
      <trkpt lat="45.2116" lon="5.73917">
        <ele>405.20001220703</ele>
        <time>2026-08-12T13:37:13.000Z</time>
      </trkpt>
      <trkpt lat="45.2116" lon="5.73916">
        <ele>405.20001220703</ele>
        <time>2026-08-12T13:37:14.000Z</time>
      </trkpt>
      <trkpt lat="45.21161" lon="5.73915">
        <ele>405.39999389648</ele>
        <time>2026-08-12T13:37:15.000Z</time>
      </trkpt>
      <trkpt lat="45.2116" lon="5.73914">
        <ele>405.60000610352</ele>
        <time>2026-08-12T13:37:16.000Z</time>
      </trkpt>
      <trkpt lat="45.2116" lon="5.73913">
        <ele>405.79998779297</ele>
        <time>2026-08-12T13:37:17.000Z</time>
      </trkpt>
      <trkpt lat="45.2116" lon="5.73912">
        <ele>406</ele>
        <time>2026-08-12T13:37:18.000Z</time>
      </trkpt>
      <trkpt lat="45.2116" lon="5.73911">
        <ele>406.20001220703</ele>
        <time>2026-08-12T13:37:19.000Z</time>
      </trkpt>
      <trkpt lat="45.2116" lon="5.7391">
        <ele>406.39999389648</ele>
        <time>2026-08-12T13:37:20.000Z</time>
      </trkpt>
      <trkpt lat="45.21159" lon="5.7391">
        <ele>407.39999389648</ele>
        <time>2026-08-12T13:37:21.000Z</time>
      </trkpt>
      <trkpt lat="45.21159" lon="5.73909">
        <ele>407.60000610352</ele>
        <time>2026-08-12T13:37:22.000Z</time>
      </trkpt>
      <trkpt lat="45.21159" lon="5.73907">
        <ele>408</ele>
        <time>2026-08-12T13:37:23.000Z</time>
      </trkpt>
      <trkpt lat="45.21159" lon="5.73906">
        <ele>408.20001220703</ele>
        <time>2026-08-12T13:37:24.000Z</time>
      </trkpt>
      <trkpt lat="45.21159" lon="5.73905">
        <ele>408.60000610352</ele>
        <time>2026-08-12T13:37:25.000Z</time>
      </trkpt>
      <trkpt lat="45.21159" lon="5.73903">
        <ele>408.79998779297</ele>
        <time>2026-08-12T13:37:26.000Z</time>
      </trkpt>
      <trkpt lat="45.21159" lon="5.73902">
        <ele>409.20001220703</ele>
        <time>2026-08-12T13:37:27.000Z</time>
      </trkpt>
      <trkpt lat="45.2116" lon="5.739">
        <ele>409.39999389648</ele>
        <time>2026-08-12T13:37:28.000Z</time>
      </trkpt>
      <trkpt lat="45.2116" lon="5.73899">
        <ele>409.79998779297</ele>
        <time>2026-08-12T13:37:29.000Z</time>
      </trkpt>
      <trkpt lat="45.2116" lon="5.73898">
        <ele>410</ele>
        <time>2026-08-12T13:37:30.000Z</time>
      </trkpt>
      <trkpt lat="45.2116" lon="5.73897">
        <ele>410.20001220703</ele>
        <time>2026-08-12T13:37:31.000Z</time>
      </trkpt>
      <trkpt lat="45.2116" lon="5.73897">
        <ele>410.39999389648</ele>
        <time>2026-08-12T13:37:32.000Z</time>
      </trkpt>
      <trkpt lat="45.21159" lon="5.73895">
        <ele>412.39999389648</ele>
        <time>2026-08-12T13:37:33.000Z</time>
      </trkpt>
      <trkpt lat="45.21159" lon="5.73894">
        <ele>412.60000610352</ele>
        <time>2026-08-12T13:37:34.000Z</time>
      </trkpt>
      <trkpt lat="45.21159" lon="5.73893">
        <ele>412.60000610352</ele>
        <time>2026-08-12T13:37:35.000Z</time>
      </trkpt>
      <trkpt lat="45.21159" lon="5.73892">
        <ele>412.79998779297</ele>
        <time>2026-08-12T13:37:36.000Z</time>
      </trkpt>
      <trkpt lat="45.2116" lon="5.73892">
        <ele>413</ele>
        <time>2026-08-12T13:37:37.000Z</time>
      </trkpt>
      <trkpt lat="45.21159" lon="5.73891">
        <ele>413</ele>
        <time>2026-08-12T13:37:38.000Z</time>
      </trkpt>
      <trkpt lat="45.21159" lon="5.73891">
        <ele>412.79998779297</ele>
        <time>2026-08-12T13:37:39.000Z</time>
      </trkpt>
      <trkpt lat="45.2116" lon="5.7389">
        <ele>412.79998779297</ele>
        <time>2026-08-12T13:37:40.000Z</time>
      </trkpt>
      <trkpt lat="45.2116" lon="5.73889">
        <ele>412.60000610352</ele>
        <time>2026-08-12T13:37:41.000Z</time>
      </trkpt>
      <trkpt lat="45.2116" lon="5.73887">
        <ele>412.79998779297</ele>
        <time>2026-08-12T13:37:42.000Z</time>
      </trkpt>
      <trkpt lat="45.21159" lon="5.73886">
        <ele>413</ele>
        <time>2026-08-12T13:37:43.000Z</time>
      </trkpt>
      <trkpt lat="45.21159" lon="5.73885">
        <ele>413</ele>
        <time>2026-08-12T13:37:44.000Z</time>
      </trkpt>
      <trkpt lat="45.21159" lon="5.73884">
        <ele>413.20001220703</ele>
        <time>2026-08-12T13:37:45.000Z</time>
      </trkpt>
      <trkpt lat="45.21159" lon="5.73883">
        <ele>413.39999389648</ele>
        <time>2026-08-12T13:37:46.000Z</time>
      </trkpt>
      <trkpt lat="45.21159" lon="5.73881">
        <ele>414</ele>
        <time>2026-08-12T13:37:47.000Z</time>
      </trkpt>
      <trkpt lat="45.21158" lon="5.7388">
        <ele>414.20001220703</ele>
        <time>2026-08-12T13:37:48.000Z</time>
      </trkpt>
      <trkpt lat="45.21158" lon="5.73879">
        <ele>414.20001220703</ele>
        <time>2026-08-12T13:37:49.000Z</time>
      </trkpt>
      <trkpt lat="45.21158" lon="5.73878">
        <ele>414.39999389648</ele>
        <time>2026-08-12T13:37:50.000Z</time>
      </trkpt>
      <trkpt lat="45.21158" lon="5.73877">
        <ele>414.60000610352</ele>
        <time>2026-08-12T13:37:51.000Z</time>
      </trkpt>
      <trkpt lat="45.21158" lon="5.73876">
        <ele>414.60000610352</ele>
        <time>2026-08-12T13:37:52.000Z</time>
      </trkpt>
      <trkpt lat="45.21157" lon="5.73875">
        <ele>414.39999389648</ele>
        <time>2026-08-12T13:37:53.000Z</time>
      </trkpt>
      <trkpt lat="45.21157" lon="5.73874">
        <ele>414</ele>
        <time>2026-08-12T13:37:54.000Z</time>
      </trkpt>
      <trkpt lat="45.21157" lon="5.73872">
        <ele>413.39999389648</ele>
        <time>2026-08-12T13:37:55.000Z</time>
      </trkpt>
      <trkpt lat="45.21157" lon="5.73871">
        <ele>413</ele>
        <time>2026-08-12T13:37:56.000Z</time>
      </trkpt>
      <trkpt lat="45.21156" lon="5.7387">
        <ele>412.39999389648</ele>
        <time>2026-08-12T13:37:57.000Z</time>
      </trkpt>
      <trkpt lat="45.21156" lon="5.73868">
        <ele>412.20001220703</ele>
        <time>2026-08-12T13:37:58.000Z</time>
      </trkpt>
      <trkpt lat="45.21156" lon="5.73867">
        <ele>411.60000610352</ele>
        <time>2026-08-12T13:37:59.000Z</time>
      </trkpt>
      <trkpt lat="45.21156" lon="5.73866">
        <ele>411.60000610352</ele>
        <time>2026-08-12T13:38:00.000Z</time>
      </trkpt>
      <trkpt lat="45.21156" lon="5.73864">
        <ele>411.39999389648</ele>
        <time>2026-08-12T13:38:01.000Z</time>
      </trkpt>
      <trkpt lat="45.21156" lon="5.73862">
        <ele>411.60000610352</ele>
        <time>2026-08-12T13:38:02.000Z</time>
      </trkpt>
      <trkpt lat="45.21156" lon="5.7386">
        <ele>411.60000610352</ele>
        <time>2026-08-12T13:38:03.000Z</time>
      </trkpt>
      <trkpt lat="45.21156" lon="5.73859">
        <ele>411.60000610352</ele>
        <time>2026-08-12T13:38:04.000Z</time>
      </trkpt>
      <trkpt lat="45.21156" lon="5.73857">
        <ele>411.60000610352</ele>
        <time>2026-08-12T13:38:05.000Z</time>
      </trkpt>
      <trkpt lat="45.21156" lon="5.73856">
        <ele>411.79998779297</ele>
        <time>2026-08-12T13:38:06.000Z</time>
      </trkpt>
      <trkpt lat="45.21156" lon="5.73855">
        <ele>412</ele>
        <time>2026-08-12T13:38:07.000Z</time>
      </trkpt>
      <trkpt lat="45.21157" lon="5.73854">
        <ele>412.20001220703</ele>
        <time>2026-08-12T13:38:08.000Z</time>
      </trkpt>
      <trkpt lat="45.21157" lon="5.73853">
        <ele>413.39999389648</ele>
        <time>2026-08-12T13:38:09.000Z</time>
      </trkpt>
      <trkpt lat="45.21157" lon="5.73852">
        <ele>414</ele>
        <time>2026-08-12T13:38:10.000Z</time>
      </trkpt>
      <trkpt lat="45.21157" lon="5.73851">
        <ele>414.60000610352</ele>
        <time>2026-08-12T13:38:11.000Z</time>
      </trkpt>
      <trkpt lat="45.21157" lon="5.7385">
        <ele>415.20001220703</ele>
        <time>2026-08-12T13:38:12.000Z</time>
      </trkpt>
      <trkpt lat="45.21157" lon="5.73849">
        <ele>415.79998779297</ele>
        <time>2026-08-12T13:38:13.000Z</time>
      </trkpt>
      <trkpt lat="45.21158" lon="5.73848">
        <ele>417</ele>
        <time>2026-08-12T13:38:14.000Z</time>
      </trkpt>
      <trkpt lat="45.21159" lon="5.73847">
        <ele>417.79998779297</ele>
        <time>2026-08-12T13:38:15.000Z</time>
      </trkpt>
      <trkpt lat="45.21159" lon="5.73846">
        <ele>418.39999389648</ele>
        <time>2026-08-12T13:38:16.000Z</time>
      </trkpt>
      <trkpt lat="45.2116" lon="5.73845">
        <ele>418.39999389648</ele>
        <time>2026-08-12T13:38:17.000Z</time>
      </trkpt>
      <trkpt lat="45.2116" lon="5.73844">
        <ele>418.79998779297</ele>
        <time>2026-08-12T13:38:18.000Z</time>
      </trkpt>
      <trkpt lat="45.21161" lon="5.73843">
        <ele>418.79998779297</ele>
        <time>2026-08-12T13:38:19.000Z</time>
      </trkpt>
      <trkpt lat="45.21161" lon="5.73842">
        <ele>418.79998779297</ele>
        <time>2026-08-12T13:38:20.000Z</time>
      </trkpt>
      <trkpt lat="45.21161" lon="5.73842">
        <ele>419</ele>
        <time>2026-08-12T13:38:21.000Z</time>
      </trkpt>
      <trkpt lat="45.21162" lon="5.73841">
        <ele>419</ele>
        <time>2026-08-12T13:38:22.000Z</time>
      </trkpt>
      <trkpt lat="45.21162" lon="5.7384">
        <ele>419.39999389648</ele>
        <time>2026-08-12T13:38:23.000Z</time>
      </trkpt>
      <trkpt lat="45.21163" lon="5.73839">
        <ele>419.79998779297</ele>
        <time>2026-08-12T13:38:24.000Z</time>
      </trkpt>
      <trkpt lat="45.21163" lon="5.73838">
        <ele>420.79998779297</ele>
        <time>2026-08-12T13:38:25.000Z</time>
      </trkpt>
      <trkpt lat="45.21165" lon="5.73837">
        <ele>421.39999389648</ele>
        <time>2026-08-12T13:38:26.000Z</time>
      </trkpt>
      <trkpt lat="45.21166" lon="5.73837">
        <ele>421.79998779297</ele>
        <time>2026-08-12T13:38:27.000Z</time>
      </trkpt>
      <trkpt lat="45.21167" lon="5.73836">
        <ele>422.39999389648</ele>
        <time>2026-08-12T13:38:28.000Z</time>
      </trkpt>
      <trkpt lat="45.21168" lon="5.73836">
        <ele>422.79998779297</ele>
        <time>2026-08-12T13:38:29.000Z</time>
      </trkpt>
      <trkpt lat="45.21168" lon="5.73836">
        <ele>423</ele>
        <time>2026-08-12T13:38:30.000Z</time>
      </trkpt>
      <trkpt lat="45.21169" lon="5.73836">
        <ele>423.20001220703</ele>
        <time>2026-08-12T13:38:31.000Z</time>
      </trkpt>
      <trkpt lat="45.2117" lon="5.73837">
        <ele>423.39999389648</ele>
        <time>2026-08-12T13:38:32.000Z</time>
      </trkpt>
      <trkpt lat="45.21171" lon="5.73839">
        <ele>423.39999389648</ele>
        <time>2026-08-12T13:38:33.000Z</time>
      </trkpt>
      <trkpt lat="45.21171" lon="5.7384">
        <ele>423.39999389648</ele>
        <time>2026-08-12T13:38:34.000Z</time>
      </trkpt>
      <trkpt lat="45.21172" lon="5.73841">
        <ele>423.39999389648</ele>
        <time>2026-08-12T13:38:35.000Z</time>
      </trkpt>
      <trkpt lat="45.21172" lon="5.73842">
        <ele>422.79998779297</ele>
        <time>2026-08-12T13:38:36.000Z</time>
      </trkpt>
      <trkpt lat="45.21172" lon="5.73843">
        <ele>422.39999389648</ele>
        <time>2026-08-12T13:38:37.000Z</time>
      </trkpt>
      <trkpt lat="45.21173" lon="5.73844">
        <ele>422.39999389648</ele>
        <time>2026-08-12T13:38:38.000Z</time>
      </trkpt>
      <trkpt lat="45.21173" lon="5.73845">
        <ele>422.20001220703</ele>
        <time>2026-08-12T13:38:39.000Z</time>
      </trkpt>
      <trkpt lat="45.21173" lon="5.73845">
        <ele>422</ele>
        <time>2026-08-12T13:38:40.000Z</time>
      </trkpt>
      <trkpt lat="45.21174" lon="5.73846">
        <ele>421.79998779297</ele>
        <time>2026-08-12T13:38:41.000Z</time>
      </trkpt>
      <trkpt lat="45.21175" lon="5.73846">
        <ele>422.39999389648</ele>
        <time>2026-08-12T13:38:42.000Z</time>
      </trkpt>
      <trkpt lat="45.21175" lon="5.73846">
        <ele>423</ele>
        <time>2026-08-12T13:38:43.000Z</time>
      </trkpt>
      <trkpt lat="45.21176" lon="5.73847">
        <ele>423.20001220703</ele>
        <time>2026-08-12T13:38:44.000Z</time>
      </trkpt>
      <trkpt lat="45.21176" lon="5.73847">
        <ele>423.39999389648</ele>
        <time>2026-08-12T13:38:45.000Z</time>
      </trkpt>
      <trkpt lat="45.21177" lon="5.73848">
        <ele>423.79998779297</ele>
        <time>2026-08-12T13:38:46.000Z</time>
      </trkpt>
      <trkpt lat="45.21177" lon="5.73848">
        <ele>424</ele>
        <time>2026-08-12T13:38:47.000Z</time>
      </trkpt>
      <trkpt lat="45.21178" lon="5.73849">
        <ele>424</ele>
        <time>2026-08-12T13:38:48.000Z</time>
      </trkpt>
      <trkpt lat="45.21178" lon="5.73849">
        <ele>424</ele>
        <time>2026-08-12T13:38:49.000Z</time>
      </trkpt>
      <trkpt lat="45.21178" lon="5.73849">
        <ele>424</ele>
        <time>2026-08-12T13:38:50.000Z</time>
      </trkpt>
      <trkpt lat="45.21179" lon="5.73849">
        <ele>424.20001220703</ele>
        <time>2026-08-12T13:38:51.000Z</time>
      </trkpt>
      <trkpt lat="45.2118" lon="5.73849">
        <ele>424.20001220703</ele>
        <time>2026-08-12T13:38:52.000Z</time>
      </trkpt>
      <trkpt lat="45.2118" lon="5.73849">
        <ele>424.39999389648</ele>
        <time>2026-08-12T13:38:53.000Z</time>
      </trkpt>
      <trkpt lat="45.21181" lon="5.73849">
        <ele>424.39999389648</ele>
        <time>2026-08-12T13:38:54.000Z</time>
      </trkpt>
      <trkpt lat="45.21181" lon="5.73849">
        <ele>424.39999389648</ele>
        <time>2026-08-12T13:38:55.000Z</time>
      </trkpt>
      <trkpt lat="45.21182" lon="5.73848">
        <ele>424.60000610352</ele>
        <time>2026-08-12T13:38:56.000Z</time>
      </trkpt>
      <trkpt lat="45.21183" lon="5.73847">
        <ele>424.60000610352</ele>
        <time>2026-08-12T13:38:57.000Z</time>
      </trkpt>
      <trkpt lat="45.21183" lon="5.73846">
        <ele>424.60000610352</ele>
        <time>2026-08-12T13:38:58.000Z</time>
      </trkpt>
      <trkpt lat="45.21183" lon="5.73845">
        <ele>424.60000610352</ele>
        <time>2026-08-12T13:38:59.000Z</time>
      </trkpt>
      <trkpt lat="45.21183" lon="5.73845">
        <ele>424.60000610352</ele>
        <time>2026-08-12T13:39:00.000Z</time>
      </trkpt>
      <trkpt lat="45.21183" lon="5.73844">
        <ele>424.60000610352</ele>
        <time>2026-08-12T13:39:01.000Z</time>
      </trkpt>
      <trkpt lat="45.21183" lon="5.73844">
        <ele>424.60000610352</ele>
        <time>2026-08-12T13:39:02.000Z</time>
      </trkpt>
      <trkpt lat="45.21183" lon="5.73843">
        <ele>424.60000610352</ele>
        <time>2026-08-12T13:39:03.000Z</time>
      </trkpt>
      <trkpt lat="45.21184" lon="5.73842">
        <ele>424.60000610352</ele>
        <time>2026-08-12T13:39:04.000Z</time>
      </trkpt>
      <trkpt lat="45.21185" lon="5.73841">
        <ele>424.79998779297</ele>
        <time>2026-08-12T13:39:05.000Z</time>
      </trkpt>
      <trkpt lat="45.21186" lon="5.7384">
        <ele>425</ele>
        <time>2026-08-12T13:39:06.000Z</time>
      </trkpt>
      <trkpt lat="45.21186" lon="5.73839">
        <ele>425</ele>
        <time>2026-08-12T13:39:07.000Z</time>
      </trkpt>
      <trkpt lat="45.21186" lon="5.73838">
        <ele>425.20001220703</ele>
        <time>2026-08-12T13:39:08.000Z</time>
      </trkpt>
      <trkpt lat="45.21187" lon="5.73838">
        <ele>425.20001220703</ele>
        <time>2026-08-12T13:39:09.000Z</time>
      </trkpt>
      <trkpt lat="45.21187" lon="5.73837">
        <ele>425.39999389648</ele>
        <time>2026-08-12T13:39:10.000Z</time>
      </trkpt>
      <trkpt lat="45.21187" lon="5.73837">
        <ele>425.60000610352</ele>
        <time>2026-08-12T13:39:11.000Z</time>
      </trkpt>
      <trkpt lat="45.21187" lon="5.73836">
        <ele>425.60000610352</ele>
        <time>2026-08-12T13:39:12.000Z</time>
      </trkpt>
      <trkpt lat="45.21188" lon="5.73836">
        <ele>425.79998779297</ele>
        <time>2026-08-12T13:39:13.000Z</time>
      </trkpt>
      <trkpt lat="45.21188" lon="5.73835">
        <ele>426</ele>
        <time>2026-08-12T13:39:14.000Z</time>
      </trkpt>
      <trkpt lat="45.21189" lon="5.73835">
        <ele>426.39999389648</ele>
        <time>2026-08-12T13:39:15.000Z</time>
      </trkpt>
      <trkpt lat="45.21189" lon="5.73834">
        <ele>426.79998779297</ele>
        <time>2026-08-12T13:39:16.000Z</time>
      </trkpt>
      <trkpt lat="45.2119" lon="5.73833">
        <ele>427</ele>
        <time>2026-08-12T13:39:17.000Z</time>
      </trkpt>
      <trkpt lat="45.2119" lon="5.73832">
        <ele>427.39999389648</ele>
        <time>2026-08-12T13:39:18.000Z</time>
      </trkpt>
      <trkpt lat="45.21189" lon="5.73832">
        <ele>427.79998779297</ele>
        <time>2026-08-12T13:39:19.000Z</time>
      </trkpt>
      <trkpt lat="45.21189" lon="5.73831">
        <ele>428</ele>
        <time>2026-08-12T13:39:20.000Z</time>
      </trkpt>
      <trkpt lat="45.21188" lon="5.7383">
        <ele>428.39999389648</ele>
        <time>2026-08-12T13:39:21.000Z</time>
      </trkpt>
      <trkpt lat="45.21189" lon="5.7383">
        <ele>428.79998779297</ele>
        <time>2026-08-12T13:39:22.000Z</time>
      </trkpt>
      <trkpt lat="45.2119" lon="5.73829">
        <ele>429.39999389648</ele>
        <time>2026-08-12T13:39:23.000Z</time>
      </trkpt>
      <trkpt lat="45.2119" lon="5.73829">
        <ele>430</ele>
        <time>2026-08-12T13:39:24.000Z</time>
      </trkpt>
      <trkpt lat="45.2119" lon="5.73829">
        <ele>430.39999389648</ele>
        <time>2026-08-12T13:39:25.000Z</time>
      </trkpt>
      <trkpt lat="45.21191" lon="5.73828">
        <ele>430.60000610352</ele>
        <time>2026-08-12T13:39:26.000Z</time>
      </trkpt>
      <trkpt lat="45.21192" lon="5.73827">
        <ele>431.20001220703</ele>
        <time>2026-08-12T13:39:27.000Z</time>
      </trkpt>
      <trkpt lat="45.21192" lon="5.73826">
        <ele>431.60000610352</ele>
        <time>2026-08-12T13:39:28.000Z</time>
      </trkpt>
      <trkpt lat="45.21193" lon="5.73825">
        <ele>431.79998779297</ele>
        <time>2026-08-12T13:39:29.000Z</time>
      </trkpt>
      <trkpt lat="45.21193" lon="5.73824">
        <ele>432.20001220703</ele>
        <time>2026-08-12T13:39:30.000Z</time>
      </trkpt>
      <trkpt lat="45.21194" lon="5.73823">
        <ele>432.60000610352</ele>
        <time>2026-08-12T13:39:31.000Z</time>
      </trkpt>
      <trkpt lat="45.21194" lon="5.73822">
        <ele>432.79998779297</ele>
        <time>2026-08-12T13:39:32.000Z</time>
      </trkpt>
      <trkpt lat="45.21195" lon="5.73821">
        <ele>432.79998779297</ele>
        <time>2026-08-12T13:39:33.000Z</time>
      </trkpt>
      <trkpt lat="45.21196" lon="5.73821">
        <ele>432.79998779297</ele>
        <time>2026-08-12T13:39:34.000Z</time>
      </trkpt>
      <trkpt lat="45.21196" lon="5.7382">
        <ele>432.79998779297</ele>
        <time>2026-08-12T13:39:35.000Z</time>
      </trkpt>
      <trkpt lat="45.21197" lon="5.7382">
        <ele>433</ele>
        <time>2026-08-12T13:39:36.000Z</time>
      </trkpt>
      <trkpt lat="45.21198" lon="5.7382">
        <ele>433.20001220703</ele>
        <time>2026-08-12T13:39:37.000Z</time>
      </trkpt>
      <trkpt lat="45.21198" lon="5.73819">
        <ele>433.39999389648</ele>
        <time>2026-08-12T13:39:38.000Z</time>
      </trkpt>
      <trkpt lat="45.21199" lon="5.73819">
        <ele>433.79998779297</ele>
        <time>2026-08-12T13:39:39.000Z</time>
      </trkpt>
      <trkpt lat="45.21199" lon="5.73819">
        <ele>434</ele>
        <time>2026-08-12T13:39:40.000Z</time>
      </trkpt>
      <trkpt lat="45.212" lon="5.73818">
        <ele>434.20001220703</ele>
        <time>2026-08-12T13:39:41.000Z</time>
      </trkpt>
      <trkpt lat="45.212" lon="5.73817">
        <ele>434.39999389648</ele>
        <time>2026-08-12T13:39:42.000Z</time>
      </trkpt>
      <trkpt lat="45.21201" lon="5.73817">
        <ele>434.39999389648</ele>
        <time>2026-08-12T13:39:43.000Z</time>
      </trkpt>
      <trkpt lat="45.21201" lon="5.73816">
        <ele>434.60000610352</ele>
        <time>2026-08-12T13:39:44.000Z</time>
      </trkpt>
      <trkpt lat="45.21201" lon="5.73815">
        <ele>434.60000610352</ele>
        <time>2026-08-12T13:39:45.000Z</time>
      </trkpt>
      <trkpt lat="45.21201" lon="5.73815">
        <ele>434.79998779297</ele>
        <time>2026-08-12T13:39:46.000Z</time>
      </trkpt>
      <trkpt lat="45.21201" lon="5.73814">
        <ele>435</ele>
        <time>2026-08-12T13:39:47.000Z</time>
      </trkpt>
      <trkpt lat="45.21201" lon="5.73813">
        <ele>435.20001220703</ele>
        <time>2026-08-12T13:39:48.000Z</time>
      </trkpt>
      <trkpt lat="45.212" lon="5.73812">
        <ele>435.39999389648</ele>
        <time>2026-08-12T13:39:49.000Z</time>
      </trkpt>
      <trkpt lat="45.212" lon="5.73811">
        <ele>435.79998779297</ele>
        <time>2026-08-12T13:39:50.000Z</time>
      </trkpt>
      <trkpt lat="45.212" lon="5.7381">
        <ele>436</ele>
        <time>2026-08-12T13:39:51.000Z</time>
      </trkpt>
      <trkpt lat="45.21201" lon="5.73809">
        <ele>436.60000610352</ele>
        <time>2026-08-12T13:39:52.000Z</time>
      </trkpt>
      <trkpt lat="45.21201" lon="5.73807">
        <ele>436.79998779297</ele>
        <time>2026-08-12T13:39:53.000Z</time>
      </trkpt>
      <trkpt lat="45.21201" lon="5.73806">
        <ele>436.79998779297</ele>
        <time>2026-08-12T13:39:54.000Z</time>
      </trkpt>
      <trkpt lat="45.21201" lon="5.73805">
        <ele>437</ele>
        <time>2026-08-12T13:39:55.000Z</time>
      </trkpt>
      <trkpt lat="45.21201" lon="5.73803">
        <ele>437</ele>
        <time>2026-08-12T13:39:56.000Z</time>
      </trkpt>
      <trkpt lat="45.21202" lon="5.73802">
        <ele>437.39999389648</ele>
        <time>2026-08-12T13:39:57.000Z</time>
      </trkpt>
      <trkpt lat="45.21202" lon="5.738">
        <ele>438</ele>
        <time>2026-08-12T13:39:58.000Z</time>
      </trkpt>
      <trkpt lat="45.21202" lon="5.73799">
        <ele>438.39999389648</ele>
        <time>2026-08-12T13:39:59.000Z</time>
      </trkpt>
      <trkpt lat="45.21202" lon="5.73797">
        <ele>439</ele>
        <time>2026-08-12T13:40:00.000Z</time>
      </trkpt>
      <trkpt lat="45.21202" lon="5.73796">
        <ele>439.39999389648</ele>
        <time>2026-08-12T13:40:01.000Z</time>
      </trkpt>
      <trkpt lat="45.21202" lon="5.73795">
        <ele>439.79998779297</ele>
        <time>2026-08-12T13:40:02.000Z</time>
      </trkpt>
      <trkpt lat="45.21202" lon="5.73794">
        <ele>440.39999389648</ele>
        <time>2026-08-12T13:40:03.000Z</time>
      </trkpt>
      <trkpt lat="45.21202" lon="5.73792">
        <ele>440.60000610352</ele>
        <time>2026-08-12T13:40:04.000Z</time>
      </trkpt>
      <trkpt lat="45.21202" lon="5.73791">
        <ele>440.60000610352</ele>
        <time>2026-08-12T13:40:05.000Z</time>
      </trkpt>
      <trkpt lat="45.21202" lon="5.7379">
        <ele>441</ele>
        <time>2026-08-12T13:40:06.000Z</time>
      </trkpt>
      <trkpt lat="45.21202" lon="5.73789">
        <ele>441.20001220703</ele>
        <time>2026-08-12T13:40:07.000Z</time>
      </trkpt>
      <trkpt lat="45.21203" lon="5.73788">
        <ele>441.60000610352</ele>
        <time>2026-08-12T13:40:08.000Z</time>
      </trkpt>
      <trkpt lat="45.21203" lon="5.73787">
        <ele>442.20001220703</ele>
        <time>2026-08-12T13:40:09.000Z</time>
      </trkpt>
      <trkpt lat="45.21203" lon="5.73786">
        <ele>442.60000610352</ele>
        <time>2026-08-12T13:40:10.000Z</time>
      </trkpt>
      <trkpt lat="45.21202" lon="5.73785">
        <ele>443</ele>
        <time>2026-08-12T13:40:11.000Z</time>
      </trkpt>
      <trkpt lat="45.21202" lon="5.73784">
        <ele>443.79998779297</ele>
        <time>2026-08-12T13:40:12.000Z</time>
      </trkpt>
      <trkpt lat="45.21202" lon="5.73783">
        <ele>443.79998779297</ele>
        <time>2026-08-12T13:40:13.000Z</time>
      </trkpt>
      <trkpt lat="45.21202" lon="5.73781">
        <ele>444</ele>
        <time>2026-08-12T13:40:14.000Z</time>
      </trkpt>
      <trkpt lat="45.21201" lon="5.7378">
        <ele>444</ele>
        <time>2026-08-12T13:40:15.000Z</time>
      </trkpt>
      <trkpt lat="45.21201" lon="5.73779">
        <ele>444.20001220703</ele>
        <time>2026-08-12T13:40:16.000Z</time>
      </trkpt>
      <trkpt lat="45.21201" lon="5.73778">
        <ele>444.20001220703</ele>
        <time>2026-08-12T13:40:17.000Z</time>
      </trkpt>
      <trkpt lat="45.21201" lon="5.73776">
        <ele>444.39999389648</ele>
        <time>2026-08-12T13:40:18.000Z</time>
      </trkpt>
      <trkpt lat="45.21201" lon="5.73775">
        <ele>444.39999389648</ele>
        <time>2026-08-12T13:40:19.000Z</time>
      </trkpt>
      <trkpt lat="45.21201" lon="5.73774">
        <ele>444.79998779297</ele>
        <time>2026-08-12T13:40:20.000Z</time>
      </trkpt>
      <trkpt lat="45.212" lon="5.73773">
        <ele>445.20001220703</ele>
        <time>2026-08-12T13:40:21.000Z</time>
      </trkpt>
      <trkpt lat="45.212" lon="5.73772">
        <ele>445.39999389648</ele>
        <time>2026-08-12T13:40:22.000Z</time>
      </trkpt>
      <trkpt lat="45.212" lon="5.73771">
        <ele>445.79998779297</ele>
        <time>2026-08-12T13:40:23.000Z</time>
      </trkpt>
      <trkpt lat="45.212" lon="5.7377">
        <ele>446.60000610352</ele>
        <time>2026-08-12T13:40:24.000Z</time>
      </trkpt>
      <trkpt lat="45.212" lon="5.73768">
        <ele>447.39999389648</ele>
        <time>2026-08-12T13:40:25.000Z</time>
      </trkpt>
      <trkpt lat="45.212" lon="5.73767">
        <ele>447.60000610352</ele>
        <time>2026-08-12T13:40:26.000Z</time>
      </trkpt>
      <trkpt lat="45.212" lon="5.73765">
        <ele>447.79998779297</ele>
        <time>2026-08-12T13:40:27.000Z</time>
      </trkpt>
      <trkpt lat="45.212" lon="5.73763">
        <ele>447.79998779297</ele>
        <time>2026-08-12T13:40:28.000Z</time>
      </trkpt>
      <trkpt lat="45.21199" lon="5.73762">
        <ele>448</ele>
        <time>2026-08-12T13:40:29.000Z</time>
      </trkpt>
      <trkpt lat="45.21199" lon="5.7376">
        <ele>448.39999389648</ele>
        <time>2026-08-12T13:40:30.000Z</time>
      </trkpt>
      <trkpt lat="45.21199" lon="5.73759">
        <ele>448.79998779297</ele>
        <time>2026-08-12T13:40:31.000Z</time>
      </trkpt>
      <trkpt lat="45.21198" lon="5.73758">
        <ele>449</ele>
        <time>2026-08-12T13:40:32.000Z</time>
      </trkpt>
      <trkpt lat="45.21198" lon="5.73757">
        <ele>449.60000610352</ele>
        <time>2026-08-12T13:40:33.000Z</time>
      </trkpt>
      <trkpt lat="45.21198" lon="5.73755">
        <ele>449.79998779297</ele>
        <time>2026-08-12T13:40:34.000Z</time>
      </trkpt>
      <trkpt lat="45.21197" lon="5.73753">
        <ele>450.20001220703</ele>
        <time>2026-08-12T13:40:35.000Z</time>
      </trkpt>
      <trkpt lat="45.21197" lon="5.73751">
        <ele>450.60000610352</ele>
        <time>2026-08-12T13:40:36.000Z</time>
      </trkpt>
      <trkpt lat="45.21197" lon="5.7375">
        <ele>450.79998779297</ele>
        <time>2026-08-12T13:40:37.000Z</time>
      </trkpt>
      <trkpt lat="45.21197" lon="5.73748">
        <ele>451</ele>
        <time>2026-08-12T13:40:38.000Z</time>
      </trkpt>
      <trkpt lat="45.21197" lon="5.73746">
        <ele>451.20001220703</ele>
        <time>2026-08-12T13:40:39.000Z</time>
      </trkpt>
      <trkpt lat="45.21196" lon="5.73745">
        <ele>451.20001220703</ele>
        <time>2026-08-12T13:40:40.000Z</time>
      </trkpt>
      <trkpt lat="45.21196" lon="5.73743">
        <ele>451.20001220703</ele>
        <time>2026-08-12T13:40:41.000Z</time>
      </trkpt>
      <trkpt lat="45.21196" lon="5.73741">
        <ele>451.39999389648</ele>
        <time>2026-08-12T13:40:42.000Z</time>
      </trkpt>
      <trkpt lat="45.21197" lon="5.7374">
        <ele>451.39999389648</ele>
        <time>2026-08-12T13:40:43.000Z</time>
      </trkpt>
      <trkpt lat="45.21197" lon="5.73739">
        <ele>451.39999389648</ele>
        <time>2026-08-12T13:40:44.000Z</time>
      </trkpt>
      <trkpt lat="45.21197" lon="5.73738">
        <ele>451.39999389648</ele>
        <time>2026-08-12T13:40:45.000Z</time>
      </trkpt>
      <trkpt lat="45.21198" lon="5.73736">
        <ele>451.39999389648</ele>
        <time>2026-08-12T13:40:46.000Z</time>
      </trkpt>
      <trkpt lat="45.21198" lon="5.73735">
        <ele>451.79998779297</ele>
        <time>2026-08-12T13:40:47.000Z</time>
      </trkpt>
      <trkpt lat="45.21198" lon="5.73735">
        <ele>452</ele>
        <time>2026-08-12T13:40:48.000Z</time>
      </trkpt>
      <trkpt lat="45.21198" lon="5.73733">
        <ele>452.39999389648</ele>
        <time>2026-08-12T13:40:49.000Z</time>
      </trkpt>
      <trkpt lat="45.21198" lon="5.73732">
        <ele>452.60000610352</ele>
        <time>2026-08-12T13:40:50.000Z</time>
      </trkpt>
      <trkpt lat="45.21199" lon="5.7373">
        <ele>454.60000610352</ele>
        <time>2026-08-12T13:40:51.000Z</time>
      </trkpt>
      <trkpt lat="45.21199" lon="5.73729">
        <ele>455.20001220703</ele>
        <time>2026-08-12T13:40:52.000Z</time>
      </trkpt>
      <trkpt lat="45.21199" lon="5.73727">
        <ele>456.20001220703</ele>
        <time>2026-08-12T13:40:53.000Z</time>
      </trkpt>
      <trkpt lat="45.212" lon="5.73725">
        <ele>456.79998779297</ele>
        <time>2026-08-12T13:40:54.000Z</time>
      </trkpt>
      <trkpt lat="45.212" lon="5.73723">
        <ele>457.39999389648</ele>
        <time>2026-08-12T13:40:55.000Z</time>
      </trkpt>
      <trkpt lat="45.212" lon="5.73722">
        <ele>458</ele>
        <time>2026-08-12T13:40:56.000Z</time>
      </trkpt>
      <trkpt lat="45.21201" lon="5.7372">
        <ele>458.39999389648</ele>
        <time>2026-08-12T13:40:57.000Z</time>
      </trkpt>
      <trkpt lat="45.21201" lon="5.73718">
        <ele>458.79998779297</ele>
        <time>2026-08-12T13:40:58.000Z</time>
      </trkpt>
      <trkpt lat="45.21201" lon="5.73717">
        <ele>458.79998779297</ele>
        <time>2026-08-12T13:40:59.000Z</time>
      </trkpt>
      <trkpt lat="45.21201" lon="5.73715">
        <ele>458.79998779297</ele>
        <time>2026-08-12T13:41:00.000Z</time>
      </trkpt>
      <trkpt lat="45.21202" lon="5.73714">
        <ele>458.60000610352</ele>
        <time>2026-08-12T13:41:01.000Z</time>
      </trkpt>
      <trkpt lat="45.21202" lon="5.73713">
        <ele>458.39999389648</ele>
        <time>2026-08-12T13:41:02.000Z</time>
      </trkpt>
      <trkpt lat="45.21202" lon="5.73711">
        <ele>458.20001220703</ele>
        <time>2026-08-12T13:41:03.000Z</time>
      </trkpt>
      <trkpt lat="45.21202" lon="5.7371">
        <ele>457.60000610352</ele>
        <time>2026-08-12T13:41:04.000Z</time>
      </trkpt>
      <trkpt lat="45.21202" lon="5.73709">
        <ele>456.79998779297</ele>
        <time>2026-08-12T13:41:05.000Z</time>
      </trkpt>
      <trkpt lat="45.21202" lon="5.73707">
        <ele>456.60000610352</ele>
        <time>2026-08-12T13:41:06.000Z</time>
      </trkpt>
      <trkpt lat="45.21203" lon="5.73706">
        <ele>456.60000610352</ele>
        <time>2026-08-12T13:41:07.000Z</time>
      </trkpt>
      <trkpt lat="45.21203" lon="5.73704">
        <ele>456.60000610352</ele>
        <time>2026-08-12T13:41:08.000Z</time>
      </trkpt>
      <trkpt lat="45.21203" lon="5.73703">
        <ele>456.39999389648</ele>
        <time>2026-08-12T13:41:09.000Z</time>
      </trkpt>
      <trkpt lat="45.21203" lon="5.73701">
        <ele>456.20001220703</ele>
        <time>2026-08-12T13:41:10.000Z</time>
      </trkpt>
      <trkpt lat="45.21203" lon="5.737">
        <ele>456.20001220703</ele>
        <time>2026-08-12T13:41:11.000Z</time>
      </trkpt>
      <trkpt lat="45.21203" lon="5.73699">
        <ele>456</ele>
        <time>2026-08-12T13:41:12.000Z</time>
      </trkpt>
      <trkpt lat="45.21203" lon="5.73698">
        <ele>455.60000610352</ele>
        <time>2026-08-12T13:41:13.000Z</time>
      </trkpt>
      <trkpt lat="45.21203" lon="5.73697">
        <ele>455</ele>
        <time>2026-08-12T13:41:14.000Z</time>
      </trkpt>
      <trkpt lat="45.21202" lon="5.73695">
        <ele>455</ele>
        <time>2026-08-12T13:41:15.000Z</time>
      </trkpt>
      <trkpt lat="45.21202" lon="5.73694">
        <ele>454.79998779297</ele>
        <time>2026-08-12T13:41:16.000Z</time>
      </trkpt>
      <trkpt lat="45.21202" lon="5.73694">
        <ele>454.79998779297</ele>
        <time>2026-08-12T13:41:17.000Z</time>
      </trkpt>
      <trkpt lat="45.21201" lon="5.73692">
        <ele>454.79998779297</ele>
        <time>2026-08-12T13:41:18.000Z</time>
      </trkpt>
      <trkpt lat="45.21201" lon="5.73691">
        <ele>454.60000610352</ele>
        <time>2026-08-12T13:41:19.000Z</time>
      </trkpt>
      <trkpt lat="45.21201" lon="5.7369">
        <ele>454.60000610352</ele>
        <time>2026-08-12T13:41:20.000Z</time>
      </trkpt>
      <trkpt lat="45.212" lon="5.73688">
        <ele>454.79998779297</ele>
        <time>2026-08-12T13:41:21.000Z</time>
      </trkpt>
      <trkpt lat="45.212" lon="5.73687">
        <ele>455.20001220703</ele>
        <time>2026-08-12T13:41:22.000Z</time>
      </trkpt>
      <trkpt lat="45.21199" lon="5.73685">
        <ele>455.39999389648</ele>
        <time>2026-08-12T13:41:23.000Z</time>
      </trkpt>
      <trkpt lat="45.21199" lon="5.73684">
        <ele>455.60000610352</ele>
        <time>2026-08-12T13:41:24.000Z</time>
      </trkpt>
      <trkpt lat="45.21198" lon="5.73683">
        <ele>456</ele>
        <time>2026-08-12T13:41:25.000Z</time>
      </trkpt>
      <trkpt lat="45.21197" lon="5.73682">
        <ele>456.20001220703</ele>
        <time>2026-08-12T13:41:26.000Z</time>
      </trkpt>
      <trkpt lat="45.21196" lon="5.73681">
        <ele>456.39999389648</ele>
        <time>2026-08-12T13:41:27.000Z</time>
      </trkpt>
      <trkpt lat="45.21196" lon="5.7368">
        <ele>456.60000610352</ele>
        <time>2026-08-12T13:41:28.000Z</time>
      </trkpt>
      <trkpt lat="45.21195" lon="5.73679">
        <ele>457</ele>
        <time>2026-08-12T13:41:29.000Z</time>
      </trkpt>
      <trkpt lat="45.21195" lon="5.73677">
        <ele>457.20001220703</ele>
        <time>2026-08-12T13:41:30.000Z</time>
      </trkpt>
      <trkpt lat="45.21195" lon="5.73675">
        <ele>457.60000610352</ele>
        <time>2026-08-12T13:41:31.000Z</time>
      </trkpt>
      <trkpt lat="45.21195" lon="5.73674">
        <ele>458</ele>
        <time>2026-08-12T13:41:32.000Z</time>
      </trkpt>
      <trkpt lat="45.21195" lon="5.73672">
        <ele>458.79998779297</ele>
        <time>2026-08-12T13:41:33.000Z</time>
      </trkpt>
      <trkpt lat="45.21195" lon="5.7367">
        <ele>459.79998779297</ele>
        <time>2026-08-12T13:41:34.000Z</time>
      </trkpt>
      <trkpt lat="45.21196" lon="5.73669">
        <ele>459.79998779297</ele>
        <time>2026-08-12T13:41:35.000Z</time>
      </trkpt>
      <trkpt lat="45.21197" lon="5.73668">
        <ele>459.79998779297</ele>
        <time>2026-08-12T13:41:36.000Z</time>
      </trkpt>
      <trkpt lat="45.21198" lon="5.73667">
        <ele>459.79998779297</ele>
        <time>2026-08-12T13:41:37.000Z</time>
      </trkpt>
      <trkpt lat="45.21198" lon="5.73666">
        <ele>459.79998779297</ele>
        <time>2026-08-12T13:41:38.000Z</time>
      </trkpt>
      <trkpt lat="45.21199" lon="5.73664">
        <ele>459.79998779297</ele>
        <time>2026-08-12T13:41:39.000Z</time>
      </trkpt>
      <trkpt lat="45.212" lon="5.73663">
        <ele>459.79998779297</ele>
        <time>2026-08-12T13:41:40.000Z</time>
      </trkpt>
      <trkpt lat="45.212" lon="5.73662">
        <ele>460</ele>
        <time>2026-08-12T13:41:41.000Z</time>
      </trkpt>
      <trkpt lat="45.212" lon="5.73661">
        <ele>460</ele>
        <time>2026-08-12T13:41:42.000Z</time>
      </trkpt>
      <trkpt lat="45.212" lon="5.73659">
        <ele>460.20001220703</ele>
        <time>2026-08-12T13:41:43.000Z</time>
      </trkpt>
      <trkpt lat="45.21201" lon="5.73658">
        <ele>460.79998779297</ele>
        <time>2026-08-12T13:41:44.000Z</time>
      </trkpt>
      <trkpt lat="45.21201" lon="5.73657">
        <ele>461.39999389648</ele>
        <time>2026-08-12T13:41:45.000Z</time>
      </trkpt>
      <trkpt lat="45.21201" lon="5.73656">
        <ele>462</ele>
        <time>2026-08-12T13:41:46.000Z</time>
      </trkpt>
      <trkpt lat="45.21201" lon="5.73655">
        <ele>462.39999389648</ele>
        <time>2026-08-12T13:41:47.000Z</time>
      </trkpt>
      <trkpt lat="45.212" lon="5.73654">
        <ele>463</ele>
        <time>2026-08-12T13:41:48.000Z</time>
      </trkpt>
      <trkpt lat="45.212" lon="5.73653">
        <ele>463.79998779297</ele>
        <time>2026-08-12T13:41:49.000Z</time>
      </trkpt>
      <trkpt lat="45.21199" lon="5.73653">
        <ele>464.39999389648</ele>
        <time>2026-08-12T13:41:50.000Z</time>
      </trkpt>
      <trkpt lat="45.21197" lon="5.73652">
        <ele>465</ele>
        <time>2026-08-12T13:41:51.000Z</time>
      </trkpt>
      <trkpt lat="45.21196" lon="5.73652">
        <ele>465.39999389648</ele>
        <time>2026-08-12T13:41:52.000Z</time>
      </trkpt>
      <trkpt lat="45.21194" lon="5.73652">
        <ele>466</ele>
        <time>2026-08-12T13:41:53.000Z</time>
      </trkpt>
      <trkpt lat="45.21193" lon="5.73651">
        <ele>466.79998779297</ele>
        <time>2026-08-12T13:41:54.000Z</time>
      </trkpt>
      <trkpt lat="45.21191" lon="5.7365">
        <ele>467.60000610352</ele>
        <time>2026-08-12T13:41:55.000Z</time>
      </trkpt>
      <trkpt lat="45.2119" lon="5.73649">
        <ele>468.20001220703</ele>
        <time>2026-08-12T13:41:56.000Z</time>
      </trkpt>
      <trkpt lat="45.21189" lon="5.73647">
        <ele>468.60000610352</ele>
        <time>2026-08-12T13:41:57.000Z</time>
      </trkpt>
      <trkpt lat="45.21189" lon="5.73646">
        <ele>469.39999389648</ele>
        <time>2026-08-12T13:41:58.000Z</time>
      </trkpt>
      <trkpt lat="45.21188" lon="5.73644">
        <ele>469.60000610352</ele>
        <time>2026-08-12T13:41:59.000Z</time>
      </trkpt>
      <trkpt lat="45.21188" lon="5.73641">
        <ele>469.79998779297</ele>
        <time>2026-08-12T13:42:00.000Z</time>
      </trkpt>
      <trkpt lat="45.21187" lon="5.7364">
        <ele>470</ele>
        <time>2026-08-12T13:42:01.000Z</time>
      </trkpt>
      <trkpt lat="45.21186" lon="5.73639">
        <ele>470</ele>
        <time>2026-08-12T13:42:02.000Z</time>
      </trkpt>
      <trkpt lat="45.21186" lon="5.73638">
        <ele>470.20001220703</ele>
        <time>2026-08-12T13:42:03.000Z</time>
      </trkpt>
      <trkpt lat="45.21185" lon="5.73636">
        <ele>470.39999389648</ele>
        <time>2026-08-12T13:42:04.000Z</time>
      </trkpt>
      <trkpt lat="45.21184" lon="5.73634">
        <ele>470.60000610352</ele>
        <time>2026-08-12T13:42:05.000Z</time>
      </trkpt>
      <trkpt lat="45.21183" lon="5.73632">
        <ele>471</ele>
        <time>2026-08-12T13:42:06.000Z</time>
      </trkpt>
      <trkpt lat="45.21183" lon="5.73631">
        <ele>471.60000610352</ele>
        <time>2026-08-12T13:42:07.000Z</time>
      </trkpt>
      <trkpt lat="45.21182" lon="5.73629">
        <ele>473.20001220703</ele>
        <time>2026-08-12T13:42:08.000Z</time>
      </trkpt>
      <trkpt lat="45.21182" lon="5.73627">
        <ele>473.39999389648</ele>
        <time>2026-08-12T13:42:09.000Z</time>
      </trkpt>
      <trkpt lat="45.21181" lon="5.73625">
        <ele>473.60000610352</ele>
        <time>2026-08-12T13:42:10.000Z</time>
      </trkpt>
      <trkpt lat="45.2118" lon="5.73624">
        <ele>474</ele>
        <time>2026-08-12T13:42:11.000Z</time>
      </trkpt>
      <trkpt lat="45.2118" lon="5.73622">
        <ele>474.39999389648</ele>
        <time>2026-08-12T13:42:12.000Z</time>
      </trkpt>
      <trkpt lat="45.21179" lon="5.73621">
        <ele>474.39999389648</ele>
        <time>2026-08-12T13:42:13.000Z</time>
      </trkpt>
      <trkpt lat="45.21178" lon="5.73619">
        <ele>474.20001220703</ele>
        <time>2026-08-12T13:42:14.000Z</time>
      </trkpt>
      <trkpt lat="45.21177" lon="5.73617">
        <ele>474</ele>
        <time>2026-08-12T13:42:15.000Z</time>
      </trkpt>
      <trkpt lat="45.21176" lon="5.73615">
        <ele>474</ele>
        <time>2026-08-12T13:42:16.000Z</time>
      </trkpt>
      <trkpt lat="45.21175" lon="5.73614">
        <ele>473.79998779297</ele>
        <time>2026-08-12T13:42:17.000Z</time>
      </trkpt>
      <trkpt lat="45.21173" lon="5.73612">
        <ele>473.60000610352</ele>
        <time>2026-08-12T13:42:18.000Z</time>
      </trkpt>
      <trkpt lat="45.21172" lon="5.7361">
        <ele>473.39999389648</ele>
        <time>2026-08-12T13:42:19.000Z</time>
      </trkpt>
      <trkpt lat="45.21172" lon="5.73608">
        <ele>473.20001220703</ele>
        <time>2026-08-12T13:42:20.000Z</time>
      </trkpt>
      <trkpt lat="45.2117" lon="5.73606">
        <ele>473.20001220703</ele>
        <time>2026-08-12T13:42:21.000Z</time>
      </trkpt>
      <trkpt lat="45.21169" lon="5.73604">
        <ele>473</ele>
        <time>2026-08-12T13:42:22.000Z</time>
      </trkpt>
      <trkpt lat="45.21168" lon="5.73602">
        <ele>473</ele>
        <time>2026-08-12T13:42:23.000Z</time>
      </trkpt>
      <trkpt lat="45.21167" lon="5.736">
        <ele>472.79998779297</ele>
        <time>2026-08-12T13:42:24.000Z</time>
      </trkpt>
      <trkpt lat="45.21167" lon="5.73599">
        <ele>472.60000610352</ele>
        <time>2026-08-12T13:42:25.000Z</time>
      </trkpt>
      <trkpt lat="45.21166" lon="5.73597">
        <ele>472.39999389648</ele>
        <time>2026-08-12T13:42:26.000Z</time>
      </trkpt>
      <trkpt lat="45.21165" lon="5.73595">
        <ele>472.20001220703</ele>
        <time>2026-08-12T13:42:27.000Z</time>
      </trkpt>
      <trkpt lat="45.21164" lon="5.73593">
        <ele>472</ele>
        <time>2026-08-12T13:42:28.000Z</time>
      </trkpt>
      <trkpt lat="45.21163" lon="5.73591">
        <ele>472</ele>
        <time>2026-08-12T13:42:29.000Z</time>
      </trkpt>
      <trkpt lat="45.21162" lon="5.73589">
        <ele>472</ele>
        <time>2026-08-12T13:42:30.000Z</time>
      </trkpt>
      <trkpt lat="45.2116" lon="5.73587">
        <ele>472.20001220703</ele>
        <time>2026-08-12T13:42:31.000Z</time>
      </trkpt>
      <trkpt lat="45.2116" lon="5.73586">
        <ele>472.39999389648</ele>
        <time>2026-08-12T13:42:32.000Z</time>
      </trkpt>
      <trkpt lat="45.21159" lon="5.73584">
        <ele>472.60000610352</ele>
        <time>2026-08-12T13:42:33.000Z</time>
      </trkpt>
      <trkpt lat="45.21157" lon="5.73582">
        <ele>472.79998779297</ele>
        <time>2026-08-12T13:42:34.000Z</time>
      </trkpt>
      <trkpt lat="45.21156" lon="5.73581">
        <ele>473.20001220703</ele>
        <time>2026-08-12T13:42:35.000Z</time>
      </trkpt>
      <trkpt lat="45.21155" lon="5.7358">
        <ele>473.60000610352</ele>
        <time>2026-08-12T13:42:36.000Z</time>
      </trkpt>
      <trkpt lat="45.21154" lon="5.73579">
        <ele>474.20001220703</ele>
        <time>2026-08-12T13:42:37.000Z</time>
      </trkpt>
      <trkpt lat="45.21153" lon="5.73577">
        <ele>474.79998779297</ele>
        <time>2026-08-12T13:42:38.000Z</time>
      </trkpt>
      <trkpt lat="45.21151" lon="5.73576">
        <ele>475</ele>
        <time>2026-08-12T13:42:39.000Z</time>
      </trkpt>
      <trkpt lat="45.2115" lon="5.73575">
        <ele>475</ele>
        <time>2026-08-12T13:42:40.000Z</time>
      </trkpt>
      <trkpt lat="45.21148" lon="5.73574">
        <ele>475</ele>
        <time>2026-08-12T13:42:41.000Z</time>
      </trkpt>
      <trkpt lat="45.21146" lon="5.73573">
        <ele>475</ele>
        <time>2026-08-12T13:42:42.000Z</time>
      </trkpt>
      <trkpt lat="45.21145" lon="5.73572">
        <ele>474.79998779297</ele>
        <time>2026-08-12T13:42:43.000Z</time>
      </trkpt>
      <trkpt lat="45.21144" lon="5.73571">
        <ele>474.60000610352</ele>
        <time>2026-08-12T13:42:44.000Z</time>
      </trkpt>
      <trkpt lat="45.21143" lon="5.73571">
        <ele>474</ele>
        <time>2026-08-12T13:42:45.000Z</time>
      </trkpt>
      <trkpt lat="45.21141" lon="5.7357">
        <ele>473.79998779297</ele>
        <time>2026-08-12T13:42:46.000Z</time>
      </trkpt>
      <trkpt lat="45.21139" lon="5.7357">
        <ele>473.60000610352</ele>
        <time>2026-08-12T13:42:47.000Z</time>
      </trkpt>
      <trkpt lat="45.21138" lon="5.73569">
        <ele>473.39999389648</ele>
        <time>2026-08-12T13:42:48.000Z</time>
      </trkpt>
      <trkpt lat="45.21136" lon="5.73568">
        <ele>473.60000610352</ele>
        <time>2026-08-12T13:42:49.000Z</time>
      </trkpt>
      <trkpt lat="45.21134" lon="5.73568">
        <ele>473.79998779297</ele>
        <time>2026-08-12T13:42:50.000Z</time>
      </trkpt>
      <trkpt lat="45.21133" lon="5.73567">
        <ele>473.79998779297</ele>
        <time>2026-08-12T13:42:51.000Z</time>
      </trkpt>
      <trkpt lat="45.21131" lon="5.73566">
        <ele>473.60000610352</ele>
        <time>2026-08-12T13:42:52.000Z</time>
      </trkpt>
      <trkpt lat="45.21129" lon="5.73566">
        <ele>473.60000610352</ele>
        <time>2026-08-12T13:42:53.000Z</time>
      </trkpt>
      <trkpt lat="45.21128" lon="5.73565">
        <ele>473.60000610352</ele>
        <time>2026-08-12T13:42:54.000Z</time>
      </trkpt>
      <trkpt lat="45.21126" lon="5.73565">
        <ele>473.60000610352</ele>
        <time>2026-08-12T13:42:55.000Z</time>
      </trkpt>
      <trkpt lat="45.21124" lon="5.73565">
        <ele>473.60000610352</ele>
        <time>2026-08-12T13:42:56.000Z</time>
      </trkpt>
      <trkpt lat="45.21123" lon="5.73563">
        <ele>473.60000610352</ele>
        <time>2026-08-12T13:42:57.000Z</time>
      </trkpt>
      <trkpt lat="45.21121" lon="5.73562">
        <ele>473.79998779297</ele>
        <time>2026-08-12T13:42:58.000Z</time>
      </trkpt>
      <trkpt lat="45.2112" lon="5.7356">
        <ele>474</ele>
        <time>2026-08-12T13:42:59.000Z</time>
      </trkpt>
      <trkpt lat="45.21118" lon="5.73558">
        <ele>474</ele>
        <time>2026-08-12T13:43:00.000Z</time>
      </trkpt>
      <trkpt lat="45.21117" lon="5.73557">
        <ele>474.20001220703</ele>
        <time>2026-08-12T13:43:01.000Z</time>
      </trkpt>
      <trkpt lat="45.21116" lon="5.73555">
        <ele>474.79998779297</ele>
        <time>2026-08-12T13:43:02.000Z</time>
      </trkpt>
      <trkpt lat="45.21115" lon="5.73553">
        <ele>475.20001220703</ele>
        <time>2026-08-12T13:43:03.000Z</time>
      </trkpt>
      <trkpt lat="45.21113" lon="5.73551">
        <ele>475.39999389648</ele>
        <time>2026-08-12T13:43:04.000Z</time>
      </trkpt>
      <trkpt lat="45.21112" lon="5.73549">
        <ele>475.39999389648</ele>
        <time>2026-08-12T13:43:05.000Z</time>
      </trkpt>
      <trkpt lat="45.21111" lon="5.73548">
        <ele>475.60000610352</ele>
        <time>2026-08-12T13:43:06.000Z</time>
      </trkpt>
      <trkpt lat="45.2111" lon="5.73545">
        <ele>475.79998779297</ele>
        <time>2026-08-12T13:43:07.000Z</time>
      </trkpt>
      <trkpt lat="45.21109" lon="5.73543">
        <ele>476</ele>
        <time>2026-08-12T13:43:08.000Z</time>
      </trkpt>
      <trkpt lat="45.21107" lon="5.73541">
        <ele>476</ele>
        <time>2026-08-12T13:43:09.000Z</time>
      </trkpt>
      <trkpt lat="45.21106" lon="5.73538">
        <ele>476.20001220703</ele>
        <time>2026-08-12T13:43:10.000Z</time>
      </trkpt>
      <trkpt lat="45.21105" lon="5.73535">
        <ele>476.39999389648</ele>
        <time>2026-08-12T13:43:11.000Z</time>
      </trkpt>
      <trkpt lat="45.21105" lon="5.73532">
        <ele>476.20001220703</ele>
        <time>2026-08-12T13:43:12.000Z</time>
      </trkpt>
      <trkpt lat="45.21105" lon="5.73528">
        <ele>476</ele>
        <time>2026-08-12T13:43:13.000Z</time>
      </trkpt>
      <trkpt lat="45.21105" lon="5.73526">
        <ele>475.79998779297</ele>
        <time>2026-08-12T13:43:14.000Z</time>
      </trkpt>
      <trkpt lat="45.21105" lon="5.73523">
        <ele>475.60000610352</ele>
        <time>2026-08-12T13:43:15.000Z</time>
      </trkpt>
      <trkpt lat="45.21105" lon="5.7352">
        <ele>475.20001220703</ele>
        <time>2026-08-12T13:43:16.000Z</time>
      </trkpt>
      <trkpt lat="45.21105" lon="5.73518">
        <ele>475</ele>
        <time>2026-08-12T13:43:17.000Z</time>
      </trkpt>
      <trkpt lat="45.21106" lon="5.73515">
        <ele>474.79998779297</ele>
        <time>2026-08-12T13:43:18.000Z</time>
      </trkpt>
      <trkpt lat="45.21106" lon="5.73512">
        <ele>474.60000610352</ele>
        <time>2026-08-12T13:43:19.000Z</time>
      </trkpt>
      <trkpt lat="45.21107" lon="5.7351">
        <ele>474.39999389648</ele>
        <time>2026-08-12T13:43:20.000Z</time>
      </trkpt>
      <trkpt lat="45.21107" lon="5.73508">
        <ele>474.39999389648</ele>
        <time>2026-08-12T13:43:21.000Z</time>
      </trkpt>
      <trkpt lat="45.21108" lon="5.73506">
        <ele>474.20001220703</ele>
        <time>2026-08-12T13:43:22.000Z</time>
      </trkpt>
      <trkpt lat="45.21108" lon="5.73504">
        <ele>474.39999389648</ele>
        <time>2026-08-12T13:43:23.000Z</time>
      </trkpt>
      <trkpt lat="45.21108" lon="5.73501">
        <ele>474.39999389648</ele>
        <time>2026-08-12T13:43:24.000Z</time>
      </trkpt>
      <trkpt lat="45.21108" lon="5.73499">
        <ele>474.60000610352</ele>
        <time>2026-08-12T13:43:25.000Z</time>
      </trkpt>
      <trkpt lat="45.21109" lon="5.73497">
        <ele>474.60000610352</ele>
        <time>2026-08-12T13:43:26.000Z</time>
      </trkpt>
      <trkpt lat="45.2111" lon="5.73495">
        <ele>475.20001220703</ele>
        <time>2026-08-12T13:43:27.000Z</time>
      </trkpt>
      <trkpt lat="45.2111" lon="5.73493">
        <ele>475.60000610352</ele>
        <time>2026-08-12T13:43:28.000Z</time>
      </trkpt>
      <trkpt lat="45.21111" lon="5.73491">
        <ele>475.60000610352</ele>
        <time>2026-08-12T13:43:29.000Z</time>
      </trkpt>
      <trkpt lat="45.21111" lon="5.73489">
        <ele>475.60000610352</ele>
        <time>2026-08-12T13:43:30.000Z</time>
      </trkpt>
      <trkpt lat="45.21112" lon="5.73488">
        <ele>475.60000610352</ele>
        <time>2026-08-12T13:43:31.000Z</time>
      </trkpt>
      <trkpt lat="45.21112" lon="5.73486">
        <ele>475.60000610352</ele>
        <time>2026-08-12T13:43:32.000Z</time>
      </trkpt>
      <trkpt lat="45.21113" lon="5.73484">
        <ele>475.79998779297</ele>
        <time>2026-08-12T13:43:33.000Z</time>
      </trkpt>
      <trkpt lat="45.21114" lon="5.73483">
        <ele>476</ele>
        <time>2026-08-12T13:43:34.000Z</time>
      </trkpt>
      <trkpt lat="45.21114" lon="5.73482">
        <ele>476.39999389648</ele>
        <time>2026-08-12T13:43:35.000Z</time>
      </trkpt>
      <trkpt lat="45.21115" lon="5.7348">
        <ele>476.60000610352</ele>
        <time>2026-08-12T13:43:36.000Z</time>
      </trkpt>
      <trkpt lat="45.21115" lon="5.73479">
        <ele>477</ele>
        <time>2026-08-12T13:43:37.000Z</time>
      </trkpt>
      <trkpt lat="45.21116" lon="5.73477">
        <ele>477.20001220703</ele>
        <time>2026-08-12T13:43:38.000Z</time>
      </trkpt>
      <trkpt lat="45.21116" lon="5.73476">
        <ele>477.60000610352</ele>
        <time>2026-08-12T13:43:39.000Z</time>
      </trkpt>
      <trkpt lat="45.21116" lon="5.73475">
        <ele>478</ele>
        <time>2026-08-12T13:43:40.000Z</time>
      </trkpt>
      <trkpt lat="45.21116" lon="5.73473">
        <ele>478.20001220703</ele>
        <time>2026-08-12T13:43:41.000Z</time>
      </trkpt>
      <trkpt lat="45.21116" lon="5.73473">
        <ele>478.39999389648</ele>
        <time>2026-08-12T13:43:42.000Z</time>
      </trkpt>
      <trkpt lat="45.21116" lon="5.73473">
        <ele>478.60000610352</ele>
        <time>2026-08-12T13:43:43.000Z</time>
      </trkpt>
      <trkpt lat="45.21116" lon="5.73472">
        <ele>478.79998779297</ele>
        <time>2026-08-12T13:43:44.000Z</time>
      </trkpt>
      <trkpt lat="45.21116" lon="5.73471">
        <ele>479</ele>
        <time>2026-08-12T13:43:45.000Z</time>
      </trkpt>
      <trkpt lat="45.21115" lon="5.7347">
        <ele>479.20001220703</ele>
        <time>2026-08-12T13:43:46.000Z</time>
      </trkpt>
      <trkpt lat="45.21113" lon="5.7347">
        <ele>479.60000610352</ele>
        <time>2026-08-12T13:43:47.000Z</time>
      </trkpt>
      <trkpt lat="45.21112" lon="5.7347">
        <ele>480.20001220703</ele>
        <time>2026-08-12T13:43:48.000Z</time>
      </trkpt>
      <trkpt lat="45.21111" lon="5.73469">
        <ele>480.60000610352</ele>
        <time>2026-08-12T13:43:49.000Z</time>
      </trkpt>
      <trkpt lat="45.2111" lon="5.73469">
        <ele>481</ele>
        <time>2026-08-12T13:43:50.000Z</time>
      </trkpt>
      <trkpt lat="45.21109" lon="5.73468">
        <ele>481.39999389648</ele>
        <time>2026-08-12T13:43:51.000Z</time>
      </trkpt>
      <trkpt lat="45.21107" lon="5.73468">
        <ele>482</ele>
        <time>2026-08-12T13:43:52.000Z</time>
      </trkpt>
      <trkpt lat="45.21106" lon="5.73467">
        <ele>482.39999389648</ele>
        <time>2026-08-12T13:43:53.000Z</time>
      </trkpt>
      <trkpt lat="45.21105" lon="5.73465">
        <ele>482.79998779297</ele>
        <time>2026-08-12T13:43:54.000Z</time>
      </trkpt>
      <trkpt lat="45.21103" lon="5.73463">
        <ele>482.79998779297</ele>
        <time>2026-08-12T13:43:55.000Z</time>
      </trkpt>
      <trkpt lat="45.21101" lon="5.73462">
        <ele>482.60000610352</ele>
        <time>2026-08-12T13:43:56.000Z</time>
      </trkpt>
      <trkpt lat="45.211" lon="5.73461">
        <ele>481.60000610352</ele>
        <time>2026-08-12T13:43:57.000Z</time>
      </trkpt>
      <trkpt lat="45.21098" lon="5.73459">
        <ele>481.20001220703</ele>
        <time>2026-08-12T13:43:58.000Z</time>
      </trkpt>
      <trkpt lat="45.21096" lon="5.73458">
        <ele>481</ele>
        <time>2026-08-12T13:43:59.000Z</time>
      </trkpt>
      <trkpt lat="45.21095" lon="5.73457">
        <ele>480.79998779297</ele>
        <time>2026-08-12T13:44:00.000Z</time>
      </trkpt>
      <trkpt lat="45.21093" lon="5.73455">
        <ele>480.60000610352</ele>
        <time>2026-08-12T13:44:01.000Z</time>
      </trkpt>
      <trkpt lat="45.21092" lon="5.73453">
        <ele>480</ele>
        <time>2026-08-12T13:44:02.000Z</time>
      </trkpt>
      <trkpt lat="45.2109" lon="5.73452">
        <ele>479.60000610352</ele>
        <time>2026-08-12T13:44:03.000Z</time>
      </trkpt>
      <trkpt lat="45.21089" lon="5.73451">
        <ele>479.20001220703</ele>
        <time>2026-08-12T13:44:04.000Z</time>
      </trkpt>
      <trkpt lat="45.21086" lon="5.7345">
        <ele>479</ele>
        <time>2026-08-12T13:44:05.000Z</time>
      </trkpt>
      <trkpt lat="45.21085" lon="5.7345">
        <ele>478.60000610352</ele>
        <time>2026-08-12T13:44:06.000Z</time>
      </trkpt>
      <trkpt lat="45.21083" lon="5.73449">
        <ele>478.60000610352</ele>
        <time>2026-08-12T13:44:07.000Z</time>
      </trkpt>
      <trkpt lat="45.2108" lon="5.73448">
        <ele>478.60000610352</ele>
        <time>2026-08-12T13:44:08.000Z</time>
      </trkpt>
      <trkpt lat="45.21079" lon="5.73448">
        <ele>479.39999389648</ele>
        <time>2026-08-12T13:44:09.000Z</time>
      </trkpt>
      <trkpt lat="45.21077" lon="5.73447">
        <ele>479.79998779297</ele>
        <time>2026-08-12T13:44:10.000Z</time>
      </trkpt>
      <trkpt lat="45.21075" lon="5.73446">
        <ele>480.20001220703</ele>
        <time>2026-08-12T13:44:11.000Z</time>
      </trkpt>
      <trkpt lat="45.21073" lon="5.73445">
        <ele>480.39999389648</ele>
        <time>2026-08-12T13:44:12.000Z</time>
      </trkpt>
      <trkpt lat="45.21072" lon="5.73444">
        <ele>480.79998779297</ele>
        <time>2026-08-12T13:44:13.000Z</time>
      </trkpt>
      <trkpt lat="45.21071" lon="5.73443">
        <ele>481</ele>
        <time>2026-08-12T13:44:14.000Z</time>
      </trkpt>
      <trkpt lat="45.2107" lon="5.73442">
        <ele>480.60000610352</ele>
        <time>2026-08-12T13:44:15.000Z</time>
      </trkpt>
      <trkpt lat="45.21068" lon="5.7344">
        <ele>480.20001220703</ele>
        <time>2026-08-12T13:44:16.000Z</time>
      </trkpt>
      <trkpt lat="45.21068" lon="5.73439">
        <ele>479.60000610352</ele>
        <time>2026-08-12T13:44:17.000Z</time>
      </trkpt>
      <trkpt lat="45.21067" lon="5.73437">
        <ele>479.20001220703</ele>
        <time>2026-08-12T13:44:18.000Z</time>
      </trkpt>
      <trkpt lat="45.21066" lon="5.73435">
        <ele>478.79998779297</ele>
        <time>2026-08-12T13:44:19.000Z</time>
      </trkpt>
      <trkpt lat="45.21066" lon="5.73433">
        <ele>478.79998779297</ele>
        <time>2026-08-12T13:44:20.000Z</time>
      </trkpt>
      <trkpt lat="45.21065" lon="5.73431">
        <ele>478.79998779297</ele>
        <time>2026-08-12T13:44:21.000Z</time>
      </trkpt>
      <trkpt lat="45.21064" lon="5.73429">
        <ele>478.60000610352</ele>
        <time>2026-08-12T13:44:22.000Z</time>
      </trkpt>
      <trkpt lat="45.21064" lon="5.73427">
        <ele>478.20001220703</ele>
        <time>2026-08-12T13:44:23.000Z</time>
      </trkpt>
      <trkpt lat="45.21064" lon="5.73423">
        <ele>478</ele>
        <time>2026-08-12T13:44:24.000Z</time>
      </trkpt>
      <trkpt lat="45.21064" lon="5.7342">
        <ele>477.60000610352</ele>
        <time>2026-08-12T13:44:25.000Z</time>
      </trkpt>
      <trkpt lat="45.21064" lon="5.73417">
        <ele>477.39999389648</ele>
        <time>2026-08-12T13:44:26.000Z</time>
      </trkpt>
      <trkpt lat="45.21065" lon="5.73414">
        <ele>477</ele>
        <time>2026-08-12T13:44:27.000Z</time>
      </trkpt>
      <trkpt lat="45.21065" lon="5.73412">
        <ele>476.39999389648</ele>
        <time>2026-08-12T13:44:28.000Z</time>
      </trkpt>
      <trkpt lat="45.21066" lon="5.7341">
        <ele>476</ele>
        <time>2026-08-12T13:44:29.000Z</time>
      </trkpt>
      <trkpt lat="45.21066" lon="5.73409">
        <ele>476.39999389648</ele>
        <time>2026-08-12T13:44:30.000Z</time>
      </trkpt>
      <trkpt lat="45.21067" lon="5.73407">
        <ele>476.79998779297</ele>
        <time>2026-08-12T13:44:31.000Z</time>
      </trkpt>
      <trkpt lat="45.21067" lon="5.73404">
        <ele>477</ele>
        <time>2026-08-12T13:44:32.000Z</time>
      </trkpt>
      <trkpt lat="45.21067" lon="5.73402">
        <ele>477.60000610352</ele>
        <time>2026-08-12T13:44:33.000Z</time>
      </trkpt>
      <trkpt lat="45.21067" lon="5.73402">
        <ele>479.39999389648</ele>
        <time>2026-08-12T13:44:34.000Z</time>
      </trkpt>
      <trkpt lat="45.21066" lon="5.73401">
        <ele>480.20001220703</ele>
        <time>2026-08-12T13:44:35.000Z</time>
      </trkpt>
      <trkpt lat="45.21065" lon="5.73401">
        <ele>480.60000610352</ele>
        <time>2026-08-12T13:44:36.000Z</time>
      </trkpt>
      <trkpt lat="45.21064" lon="5.734">
        <ele>481</ele>
        <time>2026-08-12T13:44:37.000Z</time>
      </trkpt>
      <trkpt lat="45.21063" lon="5.734">
        <ele>481.39999389648</ele>
        <time>2026-08-12T13:44:38.000Z</time>
      </trkpt>
      <trkpt lat="45.21061" lon="5.73399">
        <ele>481.60000610352</ele>
        <time>2026-08-12T13:44:39.000Z</time>
      </trkpt>
      <trkpt lat="45.2106" lon="5.73398">
        <ele>481.60000610352</ele>
        <time>2026-08-12T13:44:40.000Z</time>
      </trkpt>
      <trkpt lat="45.21059" lon="5.73396">
        <ele>481.60000610352</ele>
        <time>2026-08-12T13:44:41.000Z</time>
      </trkpt>
      <trkpt lat="45.21059" lon="5.73395">
        <ele>481.60000610352</ele>
        <time>2026-08-12T13:44:42.000Z</time>
      </trkpt>
      <trkpt lat="45.21058" lon="5.73393">
        <ele>481.39999389648</ele>
        <time>2026-08-12T13:44:43.000Z</time>
      </trkpt>
      <trkpt lat="45.21058" lon="5.73391">
        <ele>481.20001220703</ele>
        <time>2026-08-12T13:44:44.000Z</time>
      </trkpt>
      <trkpt lat="45.21058" lon="5.7339">
        <ele>481</ele>
        <time>2026-08-12T13:44:45.000Z</time>
      </trkpt>
      <trkpt lat="45.21058" lon="5.73388">
        <ele>481</ele>
        <time>2026-08-12T13:44:46.000Z</time>
      </trkpt>
      <trkpt lat="45.21058" lon="5.73386">
        <ele>480.79998779297</ele>
        <time>2026-08-12T13:44:47.000Z</time>
      </trkpt>
      <trkpt lat="45.21057" lon="5.73385">
        <ele>481</ele>
        <time>2026-08-12T13:44:48.000Z</time>
      </trkpt>
      <trkpt lat="45.21057" lon="5.73384">
        <ele>480.79998779297</ele>
        <time>2026-08-12T13:44:49.000Z</time>
      </trkpt>
      <trkpt lat="45.21057" lon="5.73382">
        <ele>480.79998779297</ele>
        <time>2026-08-12T13:44:50.000Z</time>
      </trkpt>
      <trkpt lat="45.21057" lon="5.7338">
        <ele>480.79998779297</ele>
        <time>2026-08-12T13:44:51.000Z</time>
      </trkpt>
      <trkpt lat="45.21056" lon="5.73379">
        <ele>480.79998779297</ele>
        <time>2026-08-12T13:44:52.000Z</time>
      </trkpt>
      <trkpt lat="45.21056" lon="5.73378">
        <ele>480.60000610352</ele>
        <time>2026-08-12T13:44:53.000Z</time>
      </trkpt>
      <trkpt lat="45.21056" lon="5.73378">
        <ele>480.39999389648</ele>
        <time>2026-08-12T13:44:54.000Z</time>
      </trkpt>
      <trkpt lat="45.21055" lon="5.73377">
        <ele>480.39999389648</ele>
        <time>2026-08-12T13:44:55.000Z</time>
      </trkpt>
      <trkpt lat="45.21054" lon="5.73378">
        <ele>480.20001220703</ele>
        <time>2026-08-12T13:44:56.000Z</time>
      </trkpt>
      <trkpt lat="45.21053" lon="5.73378">
        <ele>479.79998779297</ele>
        <time>2026-08-12T13:44:57.000Z</time>
      </trkpt>
      <trkpt lat="45.21051" lon="5.73379">
        <ele>479.39999389648</ele>
        <time>2026-08-12T13:44:58.000Z</time>
      </trkpt>
      <trkpt lat="45.2105" lon="5.73379">
        <ele>479</ele>
        <time>2026-08-12T13:44:59.000Z</time>
      </trkpt>
      <trkpt lat="45.21048" lon="5.73379">
        <ele>479.20001220703</ele>
        <time>2026-08-12T13:45:00.000Z</time>
      </trkpt>
      <trkpt lat="45.21047" lon="5.73379">
        <ele>479.20001220703</ele>
        <time>2026-08-12T13:45:01.000Z</time>
      </trkpt>
      <trkpt lat="45.21045" lon="5.73379">
        <ele>479.79998779297</ele>
        <time>2026-08-12T13:45:02.000Z</time>
      </trkpt>
      <trkpt lat="45.21044" lon="5.73378">
        <ele>480.20001220703</ele>
        <time>2026-08-12T13:45:03.000Z</time>
      </trkpt>
      <trkpt lat="45.21042" lon="5.73377">
        <ele>480.39999389648</ele>
        <time>2026-08-12T13:45:04.000Z</time>
      </trkpt>
      <trkpt lat="45.21041" lon="5.73376">
        <ele>480.60000610352</ele>
        <time>2026-08-12T13:45:05.000Z</time>
      </trkpt>
      <trkpt lat="45.21039" lon="5.73375">
        <ele>480.79998779297</ele>
        <time>2026-08-12T13:45:06.000Z</time>
      </trkpt>
      <trkpt lat="45.21038" lon="5.73375">
        <ele>481</ele>
        <time>2026-08-12T13:45:07.000Z</time>
      </trkpt>
      <trkpt lat="45.21037" lon="5.73374">
        <ele>481.20001220703</ele>
        <time>2026-08-12T13:45:08.000Z</time>
      </trkpt>
      <trkpt lat="45.21035" lon="5.73373">
        <ele>481.20001220703</ele>
        <time>2026-08-12T13:45:09.000Z</time>
      </trkpt>
      <trkpt lat="45.21033" lon="5.73372">
        <ele>481.20001220703</ele>
        <time>2026-08-12T13:45:10.000Z</time>
      </trkpt>
      <trkpt lat="45.21031" lon="5.73371">
        <ele>481.20001220703</ele>
        <time>2026-08-12T13:45:11.000Z</time>
      </trkpt>
      <trkpt lat="45.21029" lon="5.73371">
        <ele>481.39999389648</ele>
        <time>2026-08-12T13:45:12.000Z</time>
      </trkpt>
      <trkpt lat="45.21028" lon="5.7337">
        <ele>482</ele>
        <time>2026-08-12T13:45:13.000Z</time>
      </trkpt>
      <trkpt lat="45.21026" lon="5.73369">
        <ele>482.20001220703</ele>
        <time>2026-08-12T13:45:14.000Z</time>
      </trkpt>
      <trkpt lat="45.21024" lon="5.73368">
        <ele>483</ele>
        <time>2026-08-12T13:45:15.000Z</time>
      </trkpt>
      <trkpt lat="45.21022" lon="5.73367">
        <ele>483.39999389648</ele>
        <time>2026-08-12T13:45:16.000Z</time>
      </trkpt>
      <trkpt lat="45.2102" lon="5.73366">
        <ele>484.20001220703</ele>
        <time>2026-08-12T13:45:17.000Z</time>
      </trkpt>
      <trkpt lat="45.21019" lon="5.73365">
        <ele>484.39999389648</ele>
        <time>2026-08-12T13:45:18.000Z</time>
      </trkpt>
      <trkpt lat="45.21017" lon="5.73364">
        <ele>485</ele>
        <time>2026-08-12T13:45:19.000Z</time>
      </trkpt>
      <trkpt lat="45.21016" lon="5.73362">
        <ele>485.20001220703</ele>
        <time>2026-08-12T13:45:20.000Z</time>
      </trkpt>
      <trkpt lat="45.21014" lon="5.73361">
        <ele>485.60000610352</ele>
        <time>2026-08-12T13:45:21.000Z</time>
      </trkpt>
      <trkpt lat="45.21013" lon="5.73359">
        <ele>485.79998779297</ele>
        <time>2026-08-12T13:45:22.000Z</time>
      </trkpt>
      <trkpt lat="45.21011" lon="5.73357">
        <ele>486.20001220703</ele>
        <time>2026-08-12T13:45:23.000Z</time>
      </trkpt>
      <trkpt lat="45.21009" lon="5.73356">
        <ele>487</ele>
        <time>2026-08-12T13:45:24.000Z</time>
      </trkpt>
      <trkpt lat="45.21007" lon="5.73355">
        <ele>487.39999389648</ele>
        <time>2026-08-12T13:45:25.000Z</time>
      </trkpt>
      <trkpt lat="45.21005" lon="5.73355">
        <ele>487.39999389648</ele>
        <time>2026-08-12T13:45:26.000Z</time>
      </trkpt>
      <trkpt lat="45.21003" lon="5.73356">
        <ele>487.20001220703</ele>
        <time>2026-08-12T13:45:27.000Z</time>
      </trkpt>
      <trkpt lat="45.21002" lon="5.73356">
        <ele>487.20001220703</ele>
        <time>2026-08-12T13:45:28.000Z</time>
      </trkpt>
      <trkpt lat="45.21" lon="5.73357">
        <ele>487</ele>
        <time>2026-08-12T13:45:29.000Z</time>
      </trkpt>
      <trkpt lat="45.20999" lon="5.73358">
        <ele>487</ele>
        <time>2026-08-12T13:45:30.000Z</time>
      </trkpt>
      <trkpt lat="45.20997" lon="5.73359">
        <ele>486.79998779297</ele>
        <time>2026-08-12T13:45:31.000Z</time>
      </trkpt>
      <trkpt lat="45.20996" lon="5.7336">
        <ele>486.79998779297</ele>
        <time>2026-08-12T13:45:32.000Z</time>
      </trkpt>
      <trkpt lat="45.20994" lon="5.73361">
        <ele>486.60000610352</ele>
        <time>2026-08-12T13:45:33.000Z</time>
      </trkpt>
      <trkpt lat="45.20992" lon="5.73362">
        <ele>486.60000610352</ele>
        <time>2026-08-12T13:45:34.000Z</time>
      </trkpt>
      <trkpt lat="45.20991" lon="5.73363">
        <ele>486.39999389648</ele>
        <time>2026-08-12T13:45:35.000Z</time>
      </trkpt>
      <trkpt lat="45.20989" lon="5.73364">
        <ele>486.39999389648</ele>
        <time>2026-08-12T13:45:36.000Z</time>
      </trkpt>
      <trkpt lat="45.20988" lon="5.73365">
        <ele>486.39999389648</ele>
        <time>2026-08-12T13:45:37.000Z</time>
      </trkpt>
      <trkpt lat="45.20987" lon="5.73366">
        <ele>486.39999389648</ele>
        <time>2026-08-12T13:45:38.000Z</time>
      </trkpt>
      <trkpt lat="45.20986" lon="5.73367">
        <ele>486.39999389648</ele>
        <time>2026-08-12T13:45:39.000Z</time>
      </trkpt>
      <trkpt lat="45.20984" lon="5.73368">
        <ele>486.60000610352</ele>
        <time>2026-08-12T13:45:40.000Z</time>
      </trkpt>
      <trkpt lat="45.20983" lon="5.73368">
        <ele>486.79998779297</ele>
        <time>2026-08-12T13:45:41.000Z</time>
      </trkpt>
      <trkpt lat="45.20981" lon="5.73368">
        <ele>487</ele>
        <time>2026-08-12T13:45:42.000Z</time>
      </trkpt>
      <trkpt lat="45.20979" lon="5.73369">
        <ele>487</ele>
        <time>2026-08-12T13:45:43.000Z</time>
      </trkpt>
      <trkpt lat="45.20978" lon="5.73369">
        <ele>487.20001220703</ele>
        <time>2026-08-12T13:45:44.000Z</time>
      </trkpt>
      <trkpt lat="45.20977" lon="5.73368">
        <ele>487.20001220703</ele>
        <time>2026-08-12T13:45:45.000Z</time>
      </trkpt>
      <trkpt lat="45.20975" lon="5.73369">
        <ele>487.20001220703</ele>
        <time>2026-08-12T13:45:46.000Z</time>
      </trkpt>
      <trkpt lat="45.20974" lon="5.73368">
        <ele>487.20001220703</ele>
        <time>2026-08-12T13:45:47.000Z</time>
      </trkpt>
      <trkpt lat="45.20973" lon="5.73367">
        <ele>487</ele>
        <time>2026-08-12T13:45:48.000Z</time>
      </trkpt>
      <trkpt lat="45.20971" lon="5.73366">
        <ele>487</ele>
        <time>2026-08-12T13:45:49.000Z</time>
      </trkpt>
      <trkpt lat="45.20969" lon="5.73365">
        <ele>487</ele>
        <time>2026-08-12T13:45:50.000Z</time>
      </trkpt>
      <trkpt lat="45.20967" lon="5.73364">
        <ele>486.79998779297</ele>
        <time>2026-08-12T13:45:51.000Z</time>
      </trkpt>
      <trkpt lat="45.20966" lon="5.73364">
        <ele>487</ele>
        <time>2026-08-12T13:45:52.000Z</time>
      </trkpt>
      <trkpt lat="45.20963" lon="5.73363">
        <ele>487.79998779297</ele>
        <time>2026-08-12T13:45:53.000Z</time>
      </trkpt>
      <trkpt lat="45.20962" lon="5.73363">
        <ele>488.20001220703</ele>
        <time>2026-08-12T13:45:54.000Z</time>
      </trkpt>
      <trkpt lat="45.2096" lon="5.73362">
        <ele>488.39999389648</ele>
        <time>2026-08-12T13:45:55.000Z</time>
      </trkpt>
      <trkpt lat="45.20958" lon="5.73362">
        <ele>488.39999389648</ele>
        <time>2026-08-12T13:45:56.000Z</time>
      </trkpt>
      <trkpt lat="45.20956" lon="5.73362">
        <ele>488.60000610352</ele>
        <time>2026-08-12T13:45:57.000Z</time>
      </trkpt>
      <trkpt lat="45.20954" lon="5.73361">
        <ele>488.79998779297</ele>
        <time>2026-08-12T13:45:58.000Z</time>
      </trkpt>
      <trkpt lat="45.20952" lon="5.73361">
        <ele>489</ele>
        <time>2026-08-12T13:45:59.000Z</time>
      </trkpt>
      <trkpt lat="45.2095" lon="5.73361">
        <ele>489.60000610352</ele>
        <time>2026-08-12T13:46:00.000Z</time>
      </trkpt>
      <trkpt lat="45.20949" lon="5.73362">
        <ele>490</ele>
        <time>2026-08-12T13:46:01.000Z</time>
      </trkpt>
      <trkpt lat="45.20947" lon="5.73362">
        <ele>490.79998779297</ele>
        <time>2026-08-12T13:46:02.000Z</time>
      </trkpt>
      <trkpt lat="45.20945" lon="5.73361">
        <ele>491.20001220703</ele>
        <time>2026-08-12T13:46:03.000Z</time>
      </trkpt>
      <trkpt lat="45.20943" lon="5.73361">
        <ele>491.20001220703</ele>
        <time>2026-08-12T13:46:04.000Z</time>
      </trkpt>
      <trkpt lat="45.20941" lon="5.73361">
        <ele>491.20001220703</ele>
        <time>2026-08-12T13:46:05.000Z</time>
      </trkpt>
      <trkpt lat="45.2094" lon="5.7336">
        <ele>491</ele>
        <time>2026-08-12T13:46:06.000Z</time>
      </trkpt>
      <trkpt lat="45.20938" lon="5.73359">
        <ele>491</ele>
        <time>2026-08-12T13:46:07.000Z</time>
      </trkpt>
      <trkpt lat="45.20936" lon="5.73359">
        <ele>490.79998779297</ele>
        <time>2026-08-12T13:46:08.000Z</time>
      </trkpt>
      <trkpt lat="45.20934" lon="5.73359">
        <ele>490.60000610352</ele>
        <time>2026-08-12T13:46:09.000Z</time>
      </trkpt>
      <trkpt lat="45.20932" lon="5.73358">
        <ele>490.79998779297</ele>
        <time>2026-08-12T13:46:10.000Z</time>
      </trkpt>
      <trkpt lat="45.20931" lon="5.73358">
        <ele>490.79998779297</ele>
        <time>2026-08-12T13:46:11.000Z</time>
      </trkpt>
      <trkpt lat="45.20929" lon="5.73357">
        <ele>490.60000610352</ele>
        <time>2026-08-12T13:46:12.000Z</time>
      </trkpt>
      <trkpt lat="45.20927" lon="5.73357">
        <ele>490.60000610352</ele>
        <time>2026-08-12T13:46:13.000Z</time>
      </trkpt>
      <trkpt lat="45.20925" lon="5.73356">
        <ele>490.39999389648</ele>
        <time>2026-08-12T13:46:14.000Z</time>
      </trkpt>
      <trkpt lat="45.20924" lon="5.73356">
        <ele>490.39999389648</ele>
        <time>2026-08-12T13:46:15.000Z</time>
      </trkpt>
      <trkpt lat="45.20922" lon="5.73355">
        <ele>490.20001220703</ele>
        <time>2026-08-12T13:46:16.000Z</time>
      </trkpt>
      <trkpt lat="45.20921" lon="5.73354">
        <ele>490.20001220703</ele>
        <time>2026-08-12T13:46:17.000Z</time>
      </trkpt>
      <trkpt lat="45.20919" lon="5.73354">
        <ele>490.20001220703</ele>
        <time>2026-08-12T13:46:18.000Z</time>
      </trkpt>
      <trkpt lat="45.20917" lon="5.73354">
        <ele>490.20001220703</ele>
        <time>2026-08-12T13:46:19.000Z</time>
      </trkpt>
      <trkpt lat="45.20916" lon="5.73353">
        <ele>490</ele>
        <time>2026-08-12T13:46:20.000Z</time>
      </trkpt>
      <trkpt lat="45.20914" lon="5.73353">
        <ele>489.79998779297</ele>
        <time>2026-08-12T13:46:21.000Z</time>
      </trkpt>
      <trkpt lat="45.20913" lon="5.73352">
        <ele>489.60000610352</ele>
        <time>2026-08-12T13:46:22.000Z</time>
      </trkpt>
      <trkpt lat="45.20911" lon="5.73351">
        <ele>489.39999389648</ele>
        <time>2026-08-12T13:46:23.000Z</time>
      </trkpt>
      <trkpt lat="45.2091" lon="5.7335">
        <ele>489.20001220703</ele>
        <time>2026-08-12T13:46:24.000Z</time>
      </trkpt>
      <trkpt lat="45.20908" lon="5.73349">
        <ele>488.79998779297</ele>
        <time>2026-08-12T13:46:25.000Z</time>
      </trkpt>
      <trkpt lat="45.20907" lon="5.73348">
        <ele>488.60000610352</ele>
        <time>2026-08-12T13:46:26.000Z</time>
      </trkpt>
      <trkpt lat="45.20906" lon="5.73347">
        <ele>488.39999389648</ele>
        <time>2026-08-12T13:46:27.000Z</time>
      </trkpt>
      <trkpt lat="45.20904" lon="5.73347">
        <ele>488.20001220703</ele>
        <time>2026-08-12T13:46:28.000Z</time>
      </trkpt>
      <trkpt lat="45.20903" lon="5.73346">
        <ele>488.20001220703</ele>
        <time>2026-08-12T13:46:29.000Z</time>
      </trkpt>
      <trkpt lat="45.20901" lon="5.73345">
        <ele>488.39999389648</ele>
        <time>2026-08-12T13:46:30.000Z</time>
      </trkpt>
      <trkpt lat="45.209" lon="5.73344">
        <ele>488.60000610352</ele>
        <time>2026-08-12T13:46:31.000Z</time>
      </trkpt>
      <trkpt lat="45.20899" lon="5.73344">
        <ele>488.79998779297</ele>
        <time>2026-08-12T13:46:32.000Z</time>
      </trkpt>
      <trkpt lat="45.20898" lon="5.73343">
        <ele>489</ele>
        <time>2026-08-12T13:46:33.000Z</time>
      </trkpt>
      <trkpt lat="45.20897" lon="5.73342">
        <ele>488.79998779297</ele>
        <time>2026-08-12T13:46:34.000Z</time>
      </trkpt>
      <trkpt lat="45.20895" lon="5.73342">
        <ele>488.60000610352</ele>
        <time>2026-08-12T13:46:35.000Z</time>
      </trkpt>
      <trkpt lat="45.20894" lon="5.73341">
        <ele>488.39999389648</ele>
        <time>2026-08-12T13:46:36.000Z</time>
      </trkpt>
      <trkpt lat="45.20893" lon="5.73341">
        <ele>487.60000610352</ele>
        <time>2026-08-12T13:46:37.000Z</time>
      </trkpt>
      <trkpt lat="45.20892" lon="5.73341">
        <ele>487.39999389648</ele>
        <time>2026-08-12T13:46:38.000Z</time>
      </trkpt>
      <trkpt lat="45.20891" lon="5.7334">
        <ele>487.20001220703</ele>
        <time>2026-08-12T13:46:39.000Z</time>
      </trkpt>
      <trkpt lat="45.2089" lon="5.73339">
        <ele>487.20001220703</ele>
        <time>2026-08-12T13:46:40.000Z</time>
      </trkpt>
      <trkpt lat="45.20888" lon="5.73339">
        <ele>487</ele>
        <time>2026-08-12T13:46:41.000Z</time>
      </trkpt>
      <trkpt lat="45.20887" lon="5.73339">
        <ele>486.79998779297</ele>
        <time>2026-08-12T13:46:42.000Z</time>
      </trkpt>
      <trkpt lat="45.20886" lon="5.73339">
        <ele>486.79998779297</ele>
        <time>2026-08-12T13:46:43.000Z</time>
      </trkpt>
      <trkpt lat="45.20885" lon="5.73338">
        <ele>486.79998779297</ele>
        <time>2026-08-12T13:46:44.000Z</time>
      </trkpt>
      <trkpt lat="45.20885" lon="5.73337">
        <ele>486.79998779297</ele>
        <time>2026-08-12T13:46:45.000Z</time>
      </trkpt>
      <trkpt lat="45.20884" lon="5.73337">
        <ele>486.79998779297</ele>
        <time>2026-08-12T13:46:46.000Z</time>
      </trkpt>
      <trkpt lat="45.20883" lon="5.73336">
        <ele>486.60000610352</ele>
        <time>2026-08-12T13:46:47.000Z</time>
      </trkpt>
      <trkpt lat="45.20882" lon="5.73336">
        <ele>486.79998779297</ele>
        <time>2026-08-12T13:46:48.000Z</time>
      </trkpt>
      <trkpt lat="45.20881" lon="5.73335">
        <ele>486.79998779297</ele>
        <time>2026-08-12T13:46:49.000Z</time>
      </trkpt>
      <trkpt lat="45.2088" lon="5.73335">
        <ele>486.79998779297</ele>
        <time>2026-08-12T13:46:50.000Z</time>
      </trkpt>
      <trkpt lat="45.20879" lon="5.73334">
        <ele>486.79998779297</ele>
        <time>2026-08-12T13:46:51.000Z</time>
      </trkpt>
      <trkpt lat="45.20879" lon="5.73334">
        <ele>487</ele>
        <time>2026-08-12T13:46:52.000Z</time>
      </trkpt>
      <trkpt lat="45.20878" lon="5.73333">
        <ele>486.60000610352</ele>
        <time>2026-08-12T13:46:53.000Z</time>
      </trkpt>
      <trkpt lat="45.20877" lon="5.73332">
        <ele>486.39999389648</ele>
        <time>2026-08-12T13:46:54.000Z</time>
      </trkpt>
      <trkpt lat="45.20877" lon="5.73332">
        <ele>486.20001220703</ele>
        <time>2026-08-12T13:46:55.000Z</time>
      </trkpt>
      <trkpt lat="45.20876" lon="5.73332">
        <ele>485.79998779297</ele>
        <time>2026-08-12T13:46:56.000Z</time>
      </trkpt>
      <trkpt lat="45.20875" lon="5.73331">
        <ele>485.79998779297</ele>
        <time>2026-08-12T13:46:57.000Z</time>
      </trkpt>
      <trkpt lat="45.20874" lon="5.73331">
        <ele>485.60000610352</ele>
        <time>2026-08-12T13:46:58.000Z</time>
      </trkpt>
      <trkpt lat="45.20874" lon="5.7333">
        <ele>485.60000610352</ele>
        <time>2026-08-12T13:46:59.000Z</time>
      </trkpt>
      <trkpt lat="45.20873" lon="5.73329">
        <ele>485.60000610352</ele>
        <time>2026-08-12T13:47:00.000Z</time>
      </trkpt>
      <trkpt lat="45.20873" lon="5.73329">
        <ele>485.60000610352</ele>
        <time>2026-08-12T13:47:01.000Z</time>
      </trkpt>
      <trkpt lat="45.20872" lon="5.73328">
        <ele>485.39999389648</ele>
        <time>2026-08-12T13:47:02.000Z</time>
      </trkpt>
      <trkpt lat="45.20871" lon="5.73328">
        <ele>485</ele>
        <time>2026-08-12T13:47:03.000Z</time>
      </trkpt>
      <trkpt lat="45.2087" lon="5.73327">
        <ele>485.20001220703</ele>
        <time>2026-08-12T13:47:04.000Z</time>
      </trkpt>
      <trkpt lat="45.20869" lon="5.73326">
        <ele>485.39999389648</ele>
        <time>2026-08-12T13:47:05.000Z</time>
      </trkpt>
      <trkpt lat="45.20868" lon="5.73325">
        <ele>485.39999389648</ele>
        <time>2026-08-12T13:47:06.000Z</time>
      </trkpt>
      <trkpt lat="45.20867" lon="5.73325">
        <ele>485.39999389648</ele>
        <time>2026-08-12T13:47:07.000Z</time>
      </trkpt>
      <trkpt lat="45.20866" lon="5.73324">
        <ele>485.60000610352</ele>
        <time>2026-08-12T13:47:08.000Z</time>
      </trkpt>
      <trkpt lat="45.20866" lon="5.73324">
        <ele>485.79998779297</ele>
        <time>2026-08-12T13:47:09.000Z</time>
      </trkpt>
      <trkpt lat="45.20865" lon="5.73324">
        <ele>485.79998779297</ele>
        <time>2026-08-12T13:47:10.000Z</time>
      </trkpt>
      <trkpt lat="45.20864" lon="5.73324">
        <ele>486</ele>
        <time>2026-08-12T13:47:11.000Z</time>
      </trkpt>
      <trkpt lat="45.20863" lon="5.73323">
        <ele>486</ele>
        <time>2026-08-12T13:47:12.000Z</time>
      </trkpt>
      <trkpt lat="45.20862" lon="5.73323">
        <ele>486.60000610352</ele>
        <time>2026-08-12T13:47:13.000Z</time>
      </trkpt>
      <trkpt lat="45.2086" lon="5.73323">
        <ele>487</ele>
        <time>2026-08-12T13:47:14.000Z</time>
      </trkpt>
      <trkpt lat="45.20859" lon="5.73321">
        <ele>487.20001220703</ele>
        <time>2026-08-12T13:47:15.000Z</time>
      </trkpt>
      <trkpt lat="45.20858" lon="5.73319">
        <ele>487.60000610352</ele>
        <time>2026-08-12T13:47:16.000Z</time>
      </trkpt>
      <trkpt lat="45.20856" lon="5.73318">
        <ele>487.79998779297</ele>
        <time>2026-08-12T13:47:17.000Z</time>
      </trkpt>
      <trkpt lat="45.20855" lon="5.73316">
        <ele>487.79998779297</ele>
        <time>2026-08-12T13:47:18.000Z</time>
      </trkpt>
      <trkpt lat="45.20854" lon="5.73315">
        <ele>488</ele>
        <time>2026-08-12T13:47:19.000Z</time>
      </trkpt>
      <trkpt lat="45.20854" lon="5.73313">
        <ele>488</ele>
        <time>2026-08-12T13:47:20.000Z</time>
      </trkpt>
      <trkpt lat="45.20853" lon="5.73311">
        <ele>488.20001220703</ele>
        <time>2026-08-12T13:47:21.000Z</time>
      </trkpt>
      <trkpt lat="45.20854" lon="5.73309">
        <ele>488.60000610352</ele>
        <time>2026-08-12T13:47:22.000Z</time>
      </trkpt>
      <trkpt lat="45.20855" lon="5.73307">
        <ele>489</ele>
        <time>2026-08-12T13:47:23.000Z</time>
      </trkpt>
      <trkpt lat="45.20857" lon="5.73307">
        <ele>489.20001220703</ele>
        <time>2026-08-12T13:47:24.000Z</time>
      </trkpt>
      <trkpt lat="45.20858" lon="5.73307">
        <ele>489.79998779297</ele>
        <time>2026-08-12T13:47:25.000Z</time>
      </trkpt>
      <trkpt lat="45.20859" lon="5.73308">
        <ele>490.79998779297</ele>
        <time>2026-08-12T13:47:26.000Z</time>
      </trkpt>
      <trkpt lat="45.2086" lon="5.73309">
        <ele>491</ele>
        <time>2026-08-12T13:47:27.000Z</time>
      </trkpt>
      <trkpt lat="45.20861" lon="5.73309">
        <ele>491.20001220703</ele>
        <time>2026-08-12T13:47:28.000Z</time>
      </trkpt>
      <trkpt lat="45.20861" lon="5.7331">
        <ele>491.20001220703</ele>
        <time>2026-08-12T13:47:29.000Z</time>
      </trkpt>
      <trkpt lat="45.20862" lon="5.7331">
        <ele>491.39999389648</ele>
        <time>2026-08-12T13:47:30.000Z</time>
      </trkpt>
      <trkpt lat="45.20863" lon="5.7331">
        <ele>491.39999389648</ele>
        <time>2026-08-12T13:47:31.000Z</time>
      </trkpt>
      <trkpt lat="45.20863" lon="5.7331">
        <ele>491.39999389648</ele>
        <time>2026-08-12T13:47:32.000Z</time>
      </trkpt>
      <trkpt lat="45.20864" lon="5.7331">
        <ele>491.20001220703</ele>
        <time>2026-08-12T13:47:33.000Z</time>
      </trkpt>
      <trkpt lat="45.20865" lon="5.73309">
        <ele>491.60000610352</ele>
        <time>2026-08-12T13:47:34.000Z</time>
      </trkpt>
      <trkpt lat="45.20865" lon="5.73309">
        <ele>491.79998779297</ele>
        <time>2026-08-12T13:47:35.000Z</time>
      </trkpt>
      <trkpt lat="45.20866" lon="5.73309">
        <ele>491.79998779297</ele>
        <time>2026-08-12T13:47:36.000Z</time>
      </trkpt>
      <trkpt lat="45.20867" lon="5.73309">
        <ele>492</ele>
        <time>2026-08-12T13:47:37.000Z</time>
      </trkpt>
      <trkpt lat="45.20868" lon="5.7331">
        <ele>492</ele>
        <time>2026-08-12T13:47:38.000Z</time>
      </trkpt>
      <trkpt lat="45.20869" lon="5.73311">
        <ele>492.20001220703</ele>
        <time>2026-08-12T13:47:39.000Z</time>
      </trkpt>
      <trkpt lat="45.2087" lon="5.73312">
        <ele>492.39999389648</ele>
        <time>2026-08-12T13:47:40.000Z</time>
      </trkpt>
      <trkpt lat="45.20871" lon="5.73312">
        <ele>492.39999389648</ele>
        <time>2026-08-12T13:47:41.000Z</time>
      </trkpt>
      <trkpt lat="45.20872" lon="5.73313">
        <ele>492.79998779297</ele>
        <time>2026-08-12T13:47:42.000Z</time>
      </trkpt>
      <trkpt lat="45.20873" lon="5.73312">
        <ele>493.20001220703</ele>
        <time>2026-08-12T13:47:43.000Z</time>
      </trkpt>
      <trkpt lat="45.20874" lon="5.73312">
        <ele>493.60000610352</ele>
        <time>2026-08-12T13:47:44.000Z</time>
      </trkpt>
      <trkpt lat="45.20875" lon="5.73312">
        <ele>493.79998779297</ele>
        <time>2026-08-12T13:47:45.000Z</time>
      </trkpt>
      <trkpt lat="45.20875" lon="5.73311">
        <ele>494.20001220703</ele>
        <time>2026-08-12T13:47:46.000Z</time>
      </trkpt>
      <trkpt lat="45.20876" lon="5.73311">
        <ele>494.79998779297</ele>
        <time>2026-08-12T13:47:47.000Z</time>
      </trkpt>
      <trkpt lat="45.20878" lon="5.7331">
        <ele>495.20001220703</ele>
        <time>2026-08-12T13:47:48.000Z</time>
      </trkpt>
      <trkpt lat="45.20879" lon="5.73309">
        <ele>495.60000610352</ele>
        <time>2026-08-12T13:47:49.000Z</time>
      </trkpt>
      <trkpt lat="45.2088" lon="5.73309">
        <ele>497.20001220703</ele>
        <time>2026-08-12T13:47:50.000Z</time>
      </trkpt>
      <trkpt lat="45.20881" lon="5.73309">
        <ele>497.20001220703</ele>
        <time>2026-08-12T13:47:51.000Z</time>
      </trkpt>
      <trkpt lat="45.20882" lon="5.73309">
        <ele>497</ele>
        <time>2026-08-12T13:47:52.000Z</time>
      </trkpt>
      <trkpt lat="45.20882" lon="5.73308">
        <ele>496.60000610352</ele>
        <time>2026-08-12T13:47:53.000Z</time>
      </trkpt>
      <trkpt lat="45.20883" lon="5.73308">
        <ele>496.60000610352</ele>
        <time>2026-08-12T13:47:54.000Z</time>
      </trkpt>
      <trkpt lat="45.20884" lon="5.73308">
        <ele>496.39999389648</ele>
        <time>2026-08-12T13:47:55.000Z</time>
      </trkpt>
      <trkpt lat="45.20884" lon="5.73308">
        <ele>496.39999389648</ele>
        <time>2026-08-12T13:47:56.000Z</time>
      </trkpt>
      <trkpt lat="45.20885" lon="5.73308">
        <ele>496.39999389648</ele>
        <time>2026-08-12T13:47:57.000Z</time>
      </trkpt>
      <trkpt lat="45.20886" lon="5.73307">
        <ele>496.20001220703</ele>
        <time>2026-08-12T13:47:58.000Z</time>
      </trkpt>
      <trkpt lat="45.20887" lon="5.73307">
        <ele>496.20001220703</ele>
        <time>2026-08-12T13:47:59.000Z</time>
      </trkpt>
      <trkpt lat="45.20888" lon="5.73307">
        <ele>496</ele>
        <time>2026-08-12T13:48:00.000Z</time>
      </trkpt>
      <trkpt lat="45.20889" lon="5.73307">
        <ele>495.79998779297</ele>
        <time>2026-08-12T13:48:01.000Z</time>
      </trkpt>
      <trkpt lat="45.2089" lon="5.73307">
        <ele>495.60000610352</ele>
        <time>2026-08-12T13:48:02.000Z</time>
      </trkpt>
      <trkpt lat="45.20891" lon="5.73307">
        <ele>495.39999389648</ele>
        <time>2026-08-12T13:48:03.000Z</time>
      </trkpt>
      <trkpt lat="45.20892" lon="5.73306">
        <ele>495.20001220703</ele>
        <time>2026-08-12T13:48:04.000Z</time>
      </trkpt>
      <trkpt lat="45.20893" lon="5.73306">
        <ele>496</ele>
        <time>2026-08-12T13:48:05.000Z</time>
      </trkpt>
      <trkpt lat="45.20894" lon="5.73306">
        <ele>496.20001220703</ele>
        <time>2026-08-12T13:48:06.000Z</time>
      </trkpt>
      <trkpt lat="45.20895" lon="5.73305">
        <ele>496.39999389648</ele>
        <time>2026-08-12T13:48:07.000Z</time>
      </trkpt>
      <trkpt lat="45.20897" lon="5.73305">
        <ele>496.60000610352</ele>
        <time>2026-08-12T13:48:08.000Z</time>
      </trkpt>
      <trkpt lat="45.20898" lon="5.73305">
        <ele>496.79998779297</ele>
        <time>2026-08-12T13:48:09.000Z</time>
      </trkpt>
      <trkpt lat="45.20899" lon="5.73304">
        <ele>497</ele>
        <time>2026-08-12T13:48:10.000Z</time>
      </trkpt>
      <trkpt lat="45.209" lon="5.73304">
        <ele>497</ele>
        <time>2026-08-12T13:48:11.000Z</time>
      </trkpt>
      <trkpt lat="45.20901" lon="5.73305">
        <ele>497.20001220703</ele>
        <time>2026-08-12T13:48:12.000Z</time>
      </trkpt>
      <trkpt lat="45.20902" lon="5.73305">
        <ele>497.20001220703</ele>
        <time>2026-08-12T13:48:13.000Z</time>
      </trkpt>
      <trkpt lat="45.20903" lon="5.73304">
        <ele>497.20001220703</ele>
        <time>2026-08-12T13:48:14.000Z</time>
      </trkpt>
      <trkpt lat="45.20905" lon="5.73304">
        <ele>497.39999389648</ele>
        <time>2026-08-12T13:48:15.000Z</time>
      </trkpt>
      <trkpt lat="45.20905" lon="5.73303">
        <ele>497.39999389648</ele>
        <time>2026-08-12T13:48:16.000Z</time>
      </trkpt>
      <trkpt lat="45.20906" lon="5.73303">
        <ele>497.60000610352</ele>
        <time>2026-08-12T13:48:17.000Z</time>
      </trkpt>
      <trkpt lat="45.20908" lon="5.73302">
        <ele>497.60000610352</ele>
        <time>2026-08-12T13:48:18.000Z</time>
      </trkpt>
      <trkpt lat="45.20909" lon="5.73302">
        <ele>497.79998779297</ele>
        <time>2026-08-12T13:48:19.000Z</time>
      </trkpt>
      <trkpt lat="45.2091" lon="5.73302">
        <ele>497.79998779297</ele>
        <time>2026-08-12T13:48:20.000Z</time>
      </trkpt>
      <trkpt lat="45.20912" lon="5.73302">
        <ele>497.79998779297</ele>
        <time>2026-08-12T13:48:21.000Z</time>
      </trkpt>
      <trkpt lat="45.20913" lon="5.73301">
        <ele>497.60000610352</ele>
        <time>2026-08-12T13:48:22.000Z</time>
      </trkpt>
      <trkpt lat="45.20914" lon="5.73301">
        <ele>497.60000610352</ele>
        <time>2026-08-12T13:48:23.000Z</time>
      </trkpt>
      <trkpt lat="45.20915" lon="5.73301">
        <ele>497.60000610352</ele>
        <time>2026-08-12T13:48:24.000Z</time>
      </trkpt>
      <trkpt lat="45.20916" lon="5.73301">
        <ele>497.60000610352</ele>
        <time>2026-08-12T13:48:25.000Z</time>
      </trkpt>
      <trkpt lat="45.20916" lon="5.73301">
        <ele>497.60000610352</ele>
        <time>2026-08-12T13:48:26.000Z</time>
      </trkpt>
      <trkpt lat="45.20917" lon="5.73301">
        <ele>497.60000610352</ele>
        <time>2026-08-12T13:48:27.000Z</time>
      </trkpt>
      <trkpt lat="45.20918" lon="5.73301">
        <ele>497.79998779297</ele>
        <time>2026-08-12T13:48:28.000Z</time>
      </trkpt>
      <trkpt lat="45.20919" lon="5.73301">
        <ele>498.39999389648</ele>
        <time>2026-08-12T13:48:29.000Z</time>
      </trkpt>
      <trkpt lat="45.2092" lon="5.73301">
        <ele>499</ele>
        <time>2026-08-12T13:48:30.000Z</time>
      </trkpt>
      <trkpt lat="45.20921" lon="5.73302">
        <ele>501.39999389648</ele>
        <time>2026-08-12T13:48:31.000Z</time>
      </trkpt>
      <trkpt lat="45.20923" lon="5.73302">
        <ele>502.60000610352</ele>
        <time>2026-08-12T13:48:32.000Z</time>
      </trkpt>
      <trkpt lat="45.20924" lon="5.73303">
        <ele>503.39999389648</ele>
        <time>2026-08-12T13:48:33.000Z</time>
      </trkpt>
      <trkpt lat="45.20925" lon="5.73303">
        <ele>504.20001220703</ele>
        <time>2026-08-12T13:48:34.000Z</time>
      </trkpt>
      <trkpt lat="45.20926" lon="5.73304">
        <ele>505.20001220703</ele>
        <time>2026-08-12T13:48:35.000Z</time>
      </trkpt>
      <trkpt lat="45.20927" lon="5.73304">
        <ele>507</ele>
        <time>2026-08-12T13:48:36.000Z</time>
      </trkpt>
      <trkpt lat="45.20928" lon="5.73304">
        <ele>507.39999389648</ele>
        <time>2026-08-12T13:48:37.000Z</time>
      </trkpt>
      <trkpt lat="45.20929" lon="5.73305">
        <ele>508.39999389648</ele>
        <time>2026-08-12T13:48:38.000Z</time>
      </trkpt>
      <trkpt lat="45.2093" lon="5.73305">
        <ele>509.39999389648</ele>
        <time>2026-08-12T13:48:39.000Z</time>
      </trkpt>
      <trkpt lat="45.20932" lon="5.73305">
        <ele>510</ele>
        <time>2026-08-12T13:48:40.000Z</time>
      </trkpt>
      <trkpt lat="45.20933" lon="5.73305">
        <ele>510.60000610352</ele>
        <time>2026-08-12T13:48:41.000Z</time>
      </trkpt>
      <trkpt lat="45.20934" lon="5.73306">
        <ele>511.20001220703</ele>
        <time>2026-08-12T13:48:42.000Z</time>
      </trkpt>
      <trkpt lat="45.20935" lon="5.73307">
        <ele>511.60000610352</ele>
        <time>2026-08-12T13:48:43.000Z</time>
      </trkpt>
      <trkpt lat="45.20936" lon="5.73307">
        <ele>512</ele>
        <time>2026-08-12T13:48:44.000Z</time>
      </trkpt>
      <trkpt lat="45.20937" lon="5.73308">
        <ele>512.40002441406</ele>
        <time>2026-08-12T13:48:45.000Z</time>
      </trkpt>
      <trkpt lat="45.20938" lon="5.73308">
        <ele>512.40002441406</ele>
        <time>2026-08-12T13:48:46.000Z</time>
      </trkpt>
      <trkpt lat="45.20939" lon="5.73309">
        <ele>512.40002441406</ele>
        <time>2026-08-12T13:48:47.000Z</time>
      </trkpt>
      <trkpt lat="45.2094" lon="5.73309">
        <ele>512.40002441406</ele>
        <time>2026-08-12T13:48:48.000Z</time>
      </trkpt>
      <trkpt lat="45.20941" lon="5.73309">
        <ele>512.40002441406</ele>
        <time>2026-08-12T13:48:49.000Z</time>
      </trkpt>
      <trkpt lat="45.20942" lon="5.73309">
        <ele>512.40002441406</ele>
        <time>2026-08-12T13:48:50.000Z</time>
      </trkpt>
      <trkpt lat="45.20944" lon="5.73309">
        <ele>512.20001220703</ele>
        <time>2026-08-12T13:48:51.000Z</time>
      </trkpt>
      <trkpt lat="45.20945" lon="5.73309">
        <ele>511.39999389648</ele>
        <time>2026-08-12T13:48:52.000Z</time>
      </trkpt>
      <trkpt lat="45.20946" lon="5.73309">
        <ele>511.39999389648</ele>
        <time>2026-08-12T13:48:53.000Z</time>
      </trkpt>
      <trkpt lat="45.20947" lon="5.73309">
        <ele>511.39999389648</ele>
        <time>2026-08-12T13:48:54.000Z</time>
      </trkpt>
      <trkpt lat="45.20948" lon="5.73309">
        <ele>511</ele>
        <time>2026-08-12T13:48:55.000Z</time>
      </trkpt>
      <trkpt lat="45.20949" lon="5.73309">
        <ele>511.20001220703</ele>
        <time>2026-08-12T13:48:56.000Z</time>
      </trkpt>
      <trkpt lat="45.2095" lon="5.73308">
        <ele>511.60000610352</ele>
        <time>2026-08-12T13:48:57.000Z</time>
      </trkpt>
      <trkpt lat="45.2095" lon="5.73308">
        <ele>511.79998779297</ele>
        <time>2026-08-12T13:48:58.000Z</time>
      </trkpt>
      <trkpt lat="45.20951" lon="5.73308">
        <ele>512.20001220703</ele>
        <time>2026-08-12T13:48:59.000Z</time>
      </trkpt>
      <trkpt lat="45.20951" lon="5.73308">
        <ele>512.40002441406</ele>
        <time>2026-08-12T13:49:00.000Z</time>
      </trkpt>
      <trkpt lat="45.20952" lon="5.73307">
        <ele>512.79998779297</ele>
        <time>2026-08-12T13:49:01.000Z</time>
      </trkpt>
      <trkpt lat="45.20954" lon="5.73306">
        <ele>513</ele>
        <time>2026-08-12T13:49:02.000Z</time>
      </trkpt>
      <trkpt lat="45.20955" lon="5.73306">
        <ele>513.40002441406</ele>
        <time>2026-08-12T13:49:03.000Z</time>
      </trkpt>
      <trkpt lat="45.20956" lon="5.73305">
        <ele>513.79998779297</ele>
        <time>2026-08-12T13:49:04.000Z</time>
      </trkpt>
      <trkpt lat="45.20956" lon="5.73305">
        <ele>514</ele>
        <time>2026-08-12T13:49:05.000Z</time>
      </trkpt>
      <trkpt lat="45.20957" lon="5.73305">
        <ele>514.40002441406</ele>
        <time>2026-08-12T13:49:06.000Z</time>
      </trkpt>
      <trkpt lat="45.20959" lon="5.73304">
        <ele>514.59997558594</ele>
        <time>2026-08-12T13:49:07.000Z</time>
      </trkpt>
      <trkpt lat="45.2096" lon="5.73303">
        <ele>515</ele>
        <time>2026-08-12T13:49:08.000Z</time>
      </trkpt>
      <trkpt lat="45.20961" lon="5.73302">
        <ele>514.59997558594</ele>
        <time>2026-08-12T13:49:09.000Z</time>
      </trkpt>
      <trkpt lat="45.20962" lon="5.73301">
        <ele>514.20001220703</ele>
        <time>2026-08-12T13:49:10.000Z</time>
      </trkpt>
      <trkpt lat="45.20963" lon="5.73301">
        <ele>514.40002441406</ele>
        <time>2026-08-12T13:49:11.000Z</time>
      </trkpt>
      <trkpt lat="45.20964" lon="5.733">
        <ele>513.59997558594</ele>
        <time>2026-08-12T13:49:12.000Z</time>
      </trkpt>
      <trkpt lat="45.20965" lon="5.73299">
        <ele>513.40002441406</ele>
        <time>2026-08-12T13:49:13.000Z</time>
      </trkpt>
      <trkpt lat="45.20967" lon="5.73298">
        <ele>513.40002441406</ele>
        <time>2026-08-12T13:49:14.000Z</time>
      </trkpt>
      <trkpt lat="45.20968" lon="5.73298">
        <ele>513.40002441406</ele>
        <time>2026-08-12T13:49:15.000Z</time>
      </trkpt>
      <trkpt lat="45.20969" lon="5.73298">
        <ele>513.40002441406</ele>
        <time>2026-08-12T13:49:16.000Z</time>
      </trkpt>
      <trkpt lat="45.20969" lon="5.73297">
        <ele>513.40002441406</ele>
        <time>2026-08-12T13:49:17.000Z</time>
      </trkpt>
      <trkpt lat="45.2097" lon="5.73297">
        <ele>513.40002441406</ele>
        <time>2026-08-12T13:49:18.000Z</time>
      </trkpt>
      <trkpt lat="45.20971" lon="5.73297">
        <ele>514.20001220703</ele>
        <time>2026-08-12T13:49:19.000Z</time>
      </trkpt>
      <trkpt lat="45.20972" lon="5.73296">
        <ele>514.40002441406</ele>
        <time>2026-08-12T13:49:20.000Z</time>
      </trkpt>
      <trkpt lat="45.20973" lon="5.73296">
        <ele>514.59997558594</ele>
        <time>2026-08-12T13:49:21.000Z</time>
      </trkpt>
      <trkpt lat="45.20974" lon="5.73296">
        <ele>514.59997558594</ele>
        <time>2026-08-12T13:49:22.000Z</time>
      </trkpt>
      <trkpt lat="45.20975" lon="5.73297">
        <ele>514.79998779297</ele>
        <time>2026-08-12T13:49:23.000Z</time>
      </trkpt>
      <trkpt lat="45.20976" lon="5.73298">
        <ele>515.20001220703</ele>
        <time>2026-08-12T13:49:24.000Z</time>
      </trkpt>
      <trkpt lat="45.20977" lon="5.73298">
        <ele>515.20001220703</ele>
        <time>2026-08-12T13:49:25.000Z</time>
      </trkpt>
      <trkpt lat="45.20978" lon="5.73298">
        <ele>515.40002441406</ele>
        <time>2026-08-12T13:49:26.000Z</time>
      </trkpt>
      <trkpt lat="45.20979" lon="5.73298">
        <ele>515.40002441406</ele>
        <time>2026-08-12T13:49:27.000Z</time>
      </trkpt>
      <trkpt lat="45.2098" lon="5.73298">
        <ele>515.59997558594</ele>
        <time>2026-08-12T13:49:28.000Z</time>
      </trkpt>
      <trkpt lat="45.20981" lon="5.73298">
        <ele>515.59997558594</ele>
        <time>2026-08-12T13:49:29.000Z</time>
      </trkpt>
      <trkpt lat="45.20983" lon="5.73298">
        <ele>515.20001220703</ele>
        <time>2026-08-12T13:49:30.000Z</time>
      </trkpt>
      <trkpt lat="45.20984" lon="5.73298">
        <ele>515.20001220703</ele>
        <time>2026-08-12T13:49:31.000Z</time>
      </trkpt>
      <trkpt lat="45.20985" lon="5.73298">
        <ele>515.20001220703</ele>
        <time>2026-08-12T13:49:32.000Z</time>
      </trkpt>
      <trkpt lat="45.20986" lon="5.73298">
        <ele>515.40002441406</ele>
        <time>2026-08-12T13:49:33.000Z</time>
      </trkpt>
      <trkpt lat="45.20987" lon="5.73298">
        <ele>515.79998779297</ele>
        <time>2026-08-12T13:49:34.000Z</time>
      </trkpt>
      <trkpt lat="45.20989" lon="5.73298">
        <ele>516.40002441406</ele>
        <time>2026-08-12T13:49:35.000Z</time>
      </trkpt>
      <trkpt lat="45.2099" lon="5.73298">
        <ele>517.40002441406</ele>
        <time>2026-08-12T13:49:36.000Z</time>
      </trkpt>
      <trkpt lat="45.2099" lon="5.73298">
        <ele>518</ele>
        <time>2026-08-12T13:49:37.000Z</time>
      </trkpt>
      <trkpt lat="45.20991" lon="5.73297">
        <ele>518.59997558594</ele>
        <time>2026-08-12T13:49:38.000Z</time>
      </trkpt>
      <trkpt lat="45.2099" lon="5.73297">
        <ele>519.20001220703</ele>
        <time>2026-08-12T13:49:39.000Z</time>
      </trkpt>
      <trkpt lat="45.20989" lon="5.73296">
        <ele>519.79998779297</ele>
        <time>2026-08-12T13:49:40.000Z</time>
      </trkpt>
      <trkpt lat="45.20988" lon="5.73297">
        <ele>520.20001220703</ele>
        <time>2026-08-12T13:49:41.000Z</time>
      </trkpt>
      <trkpt lat="45.20988" lon="5.73297">
        <ele>521.59997558594</ele>
        <time>2026-08-12T13:49:42.000Z</time>
      </trkpt>
      <trkpt lat="45.20987" lon="5.73297">
        <ele>521.79998779297</ele>
        <time>2026-08-12T13:49:43.000Z</time>
      </trkpt>
      <trkpt lat="45.20986" lon="5.73298">
        <ele>522.20001220703</ele>
        <time>2026-08-12T13:49:44.000Z</time>
      </trkpt>
      <trkpt lat="45.20985" lon="5.73297">
        <ele>522.40002441406</ele>
        <time>2026-08-12T13:49:45.000Z</time>
      </trkpt>
      <trkpt lat="45.20984" lon="5.73297">
        <ele>523</ele>
        <time>2026-08-12T13:49:46.000Z</time>
      </trkpt>
      <trkpt lat="45.20983" lon="5.73296">
        <ele>523.40002441406</ele>
        <time>2026-08-12T13:49:47.000Z</time>
      </trkpt>
      <trkpt lat="45.20982" lon="5.73296">
        <ele>523.59997558594</ele>
        <time>2026-08-12T13:49:48.000Z</time>
      </trkpt>
      <trkpt lat="45.20981" lon="5.73296">
        <ele>524</ele>
        <time>2026-08-12T13:49:49.000Z</time>
      </trkpt>
      <trkpt lat="45.20981" lon="5.73296">
        <ele>524</ele>
        <time>2026-08-12T13:49:50.000Z</time>
      </trkpt>
      <trkpt lat="45.2098" lon="5.73296">
        <ele>524.20001220703</ele>
        <time>2026-08-12T13:49:51.000Z</time>
      </trkpt>
      <trkpt lat="45.20979" lon="5.73296">
        <ele>524.20001220703</ele>
        <time>2026-08-12T13:49:52.000Z</time>
      </trkpt>
      <trkpt lat="45.20979" lon="5.73296">
        <ele>524.40002441406</ele>
        <time>2026-08-12T13:49:53.000Z</time>
      </trkpt>
      <trkpt lat="45.20978" lon="5.73295">
        <ele>524.40002441406</ele>
        <time>2026-08-12T13:49:54.000Z</time>
      </trkpt>
      <trkpt lat="45.20977" lon="5.73295">
        <ele>524.59997558594</ele>
        <time>2026-08-12T13:49:55.000Z</time>
      </trkpt>
      <trkpt lat="45.20975" lon="5.73295">
        <ele>524.59997558594</ele>
        <time>2026-08-12T13:49:56.000Z</time>
      </trkpt>
      <trkpt lat="45.20974" lon="5.73295">
        <ele>524.79998779297</ele>
        <time>2026-08-12T13:49:57.000Z</time>
      </trkpt>
      <trkpt lat="45.20973" lon="5.73294">
        <ele>525</ele>
        <time>2026-08-12T13:49:58.000Z</time>
      </trkpt>
      <trkpt lat="45.20973" lon="5.73294">
        <ele>525.20001220703</ele>
        <time>2026-08-12T13:49:59.000Z</time>
      </trkpt>
      <trkpt lat="45.20972" lon="5.73294">
        <ele>525.40002441406</ele>
        <time>2026-08-12T13:50:00.000Z</time>
      </trkpt>
      <trkpt lat="45.20971" lon="5.73293">
        <ele>525.59997558594</ele>
        <time>2026-08-12T13:50:01.000Z</time>
      </trkpt>
      <trkpt lat="45.2097" lon="5.73292">
        <ele>525.79998779297</ele>
        <time>2026-08-12T13:50:02.000Z</time>
      </trkpt>
      <trkpt lat="45.20969" lon="5.73292">
        <ele>526</ele>
        <time>2026-08-12T13:50:03.000Z</time>
      </trkpt>
      <trkpt lat="45.20968" lon="5.73292">
        <ele>526.20001220703</ele>
        <time>2026-08-12T13:50:04.000Z</time>
      </trkpt>
      <trkpt lat="45.20967" lon="5.73291">
        <ele>526.40002441406</ele>
        <time>2026-08-12T13:50:05.000Z</time>
      </trkpt>
      <trkpt lat="45.20965" lon="5.7329">
        <ele>526.59997558594</ele>
        <time>2026-08-12T13:50:06.000Z</time>
      </trkpt>
      <trkpt lat="45.20964" lon="5.73289">
        <ele>526.40002441406</ele>
        <time>2026-08-12T13:50:07.000Z</time>
      </trkpt>
      <trkpt lat="45.20964" lon="5.73289">
        <ele>526.40002441406</ele>
        <time>2026-08-12T13:50:08.000Z</time>
      </trkpt>
      <trkpt lat="45.20963" lon="5.73289">
        <ele>526.59997558594</ele>
        <time>2026-08-12T13:50:09.000Z</time>
      </trkpt>
      <trkpt lat="45.20962" lon="5.73289">
        <ele>526.59997558594</ele>
        <time>2026-08-12T13:50:10.000Z</time>
      </trkpt>
      <trkpt lat="45.20961" lon="5.7329">
        <ele>526.79998779297</ele>
        <time>2026-08-12T13:50:11.000Z</time>
      </trkpt>
      <trkpt lat="45.2096" lon="5.7329">
        <ele>527</ele>
        <time>2026-08-12T13:50:12.000Z</time>
      </trkpt>
      <trkpt lat="45.20959" lon="5.7329">
        <ele>527.20001220703</ele>
        <time>2026-08-12T13:50:13.000Z</time>
      </trkpt>
      <trkpt lat="45.20958" lon="5.7329">
        <ele>527.20001220703</ele>
        <time>2026-08-12T13:50:14.000Z</time>
      </trkpt>
      <trkpt lat="45.20957" lon="5.7329">
        <ele>527</ele>
        <time>2026-08-12T13:50:15.000Z</time>
      </trkpt>
      <trkpt lat="45.20956" lon="5.7329">
        <ele>527</ele>
        <time>2026-08-12T13:50:16.000Z</time>
      </trkpt>
      <trkpt lat="45.20955" lon="5.7329">
        <ele>526.79998779297</ele>
        <time>2026-08-12T13:50:17.000Z</time>
      </trkpt>
      <trkpt lat="45.20955" lon="5.73291">
        <ele>526</ele>
        <time>2026-08-12T13:50:18.000Z</time>
      </trkpt>
      <trkpt lat="45.20954" lon="5.73291">
        <ele>524.79998779297</ele>
        <time>2026-08-12T13:50:19.000Z</time>
      </trkpt>
      <trkpt lat="45.20952" lon="5.73291">
        <ele>524.59997558594</ele>
        <time>2026-08-12T13:50:20.000Z</time>
      </trkpt>
      <trkpt lat="45.20951" lon="5.73291">
        <ele>524.20001220703</ele>
        <time>2026-08-12T13:50:21.000Z</time>
      </trkpt>
      <trkpt lat="45.2095" lon="5.73291">
        <ele>524</ele>
        <time>2026-08-12T13:50:22.000Z</time>
      </trkpt>
      <trkpt lat="45.20949" lon="5.73292">
        <ele>523.59997558594</ele>
        <time>2026-08-12T13:50:23.000Z</time>
      </trkpt>
      <trkpt lat="45.20948" lon="5.73291">
        <ele>523.59997558594</ele>
        <time>2026-08-12T13:50:24.000Z</time>
      </trkpt>
      <trkpt lat="45.20948" lon="5.73291">
        <ele>523.59997558594</ele>
        <time>2026-08-12T13:50:25.000Z</time>
      </trkpt>
      <trkpt lat="45.20946" lon="5.73291">
        <ele>523.79998779297</ele>
        <time>2026-08-12T13:50:26.000Z</time>
      </trkpt>
      <trkpt lat="45.20945" lon="5.7329">
        <ele>524</ele>
        <time>2026-08-12T13:50:27.000Z</time>
      </trkpt>
      <trkpt lat="45.20944" lon="5.73289">
        <ele>524.40002441406</ele>
        <time>2026-08-12T13:50:28.000Z</time>
      </trkpt>
      <trkpt lat="45.20944" lon="5.73288">
        <ele>524.59997558594</ele>
        <time>2026-08-12T13:50:29.000Z</time>
      </trkpt>
      <trkpt lat="45.20943" lon="5.73287">
        <ele>524.79998779297</ele>
        <time>2026-08-12T13:50:30.000Z</time>
      </trkpt>
      <trkpt lat="45.20943" lon="5.73286">
        <ele>525</ele>
        <time>2026-08-12T13:50:31.000Z</time>
      </trkpt>
      <trkpt lat="45.20942" lon="5.73286">
        <ele>525.20001220703</ele>
        <time>2026-08-12T13:50:32.000Z</time>
      </trkpt>
      <trkpt lat="45.2094" lon="5.73285">
        <ele>525.20001220703</ele>
        <time>2026-08-12T13:50:33.000Z</time>
      </trkpt>
      <trkpt lat="45.20939" lon="5.73284">
        <ele>525.40002441406</ele>
        <time>2026-08-12T13:50:34.000Z</time>
      </trkpt>
      <trkpt lat="45.20938" lon="5.73283">
        <ele>526.79998779297</ele>
        <time>2026-08-12T13:50:35.000Z</time>
      </trkpt>
      <trkpt lat="45.20937" lon="5.73282">
        <ele>527</ele>
        <time>2026-08-12T13:50:36.000Z</time>
      </trkpt>
      <trkpt lat="45.20937" lon="5.73281">
        <ele>527</ele>
        <time>2026-08-12T13:50:37.000Z</time>
      </trkpt>
      <trkpt lat="45.20936" lon="5.7328">
        <ele>527.20001220703</ele>
        <time>2026-08-12T13:50:38.000Z</time>
      </trkpt>
      <trkpt lat="45.20935" lon="5.7328">
        <ele>527.79998779297</ele>
        <time>2026-08-12T13:50:39.000Z</time>
      </trkpt>
      <trkpt lat="45.20934" lon="5.73279">
        <ele>528.20001220703</ele>
        <time>2026-08-12T13:50:40.000Z</time>
      </trkpt>
      <trkpt lat="45.20934" lon="5.73278">
        <ele>528.79998779297</ele>
        <time>2026-08-12T13:50:41.000Z</time>
      </trkpt>
      <trkpt lat="45.20933" lon="5.73277">
        <ele>529.40002441406</ele>
        <time>2026-08-12T13:50:42.000Z</time>
      </trkpt>
      <trkpt lat="45.20932" lon="5.73276">
        <ele>530</ele>
        <time>2026-08-12T13:50:43.000Z</time>
      </trkpt>
      <trkpt lat="45.20931" lon="5.73276">
        <ele>530.40002441406</ele>
        <time>2026-08-12T13:50:44.000Z</time>
      </trkpt>
      <trkpt lat="45.2093" lon="5.73274">
        <ele>531</ele>
        <time>2026-08-12T13:50:45.000Z</time>
      </trkpt>
      <trkpt lat="45.2093" lon="5.73274">
        <ele>531.20001220703</ele>
        <time>2026-08-12T13:50:46.000Z</time>
      </trkpt>
      <trkpt lat="45.20929" lon="5.73273">
        <ele>531.40002441406</ele>
        <time>2026-08-12T13:50:47.000Z</time>
      </trkpt>
      <trkpt lat="45.20928" lon="5.73273">
        <ele>531.40002441406</ele>
        <time>2026-08-12T13:50:48.000Z</time>
      </trkpt>
      <trkpt lat="45.20927" lon="5.73273">
        <ele>531.40002441406</ele>
        <time>2026-08-12T13:50:49.000Z</time>
      </trkpt>
      <trkpt lat="45.20926" lon="5.73272">
        <ele>531.59997558594</ele>
        <time>2026-08-12T13:50:50.000Z</time>
      </trkpt>
      <trkpt lat="45.20925" lon="5.73272">
        <ele>532</ele>
        <time>2026-08-12T13:50:51.000Z</time>
      </trkpt>
      <trkpt lat="45.20924" lon="5.73272">
        <ele>532</ele>
        <time>2026-08-12T13:50:52.000Z</time>
      </trkpt>
      <trkpt lat="45.20923" lon="5.73271">
        <ele>532.20001220703</ele>
        <time>2026-08-12T13:50:53.000Z</time>
      </trkpt>
      <trkpt lat="45.20922" lon="5.7327">
        <ele>532.40002441406</ele>
        <time>2026-08-12T13:50:54.000Z</time>
      </trkpt>
      <trkpt lat="45.20921" lon="5.7327">
        <ele>532.59997558594</ele>
        <time>2026-08-12T13:50:55.000Z</time>
      </trkpt>
      <trkpt lat="45.20921" lon="5.73269">
        <ele>532.59997558594</ele>
        <time>2026-08-12T13:50:56.000Z</time>
      </trkpt>
      <trkpt lat="45.2092" lon="5.73269">
        <ele>532.79998779297</ele>
        <time>2026-08-12T13:50:57.000Z</time>
      </trkpt>
      <trkpt lat="45.20919" lon="5.73269">
        <ele>533</ele>
        <time>2026-08-12T13:50:58.000Z</time>
      </trkpt>
      <trkpt lat="45.20918" lon="5.73268">
        <ele>533.20001220703</ele>
        <time>2026-08-12T13:50:59.000Z</time>
      </trkpt>
      <trkpt lat="45.20917" lon="5.73268">
        <ele>533.59997558594</ele>
        <time>2026-08-12T13:51:00.000Z</time>
      </trkpt>
      <trkpt lat="45.20915" lon="5.73267">
        <ele>533.79998779297</ele>
        <time>2026-08-12T13:51:01.000Z</time>
      </trkpt>
      <trkpt lat="45.20914" lon="5.73267">
        <ele>534.20001220703</ele>
        <time>2026-08-12T13:51:02.000Z</time>
      </trkpt>
      <trkpt lat="45.20914" lon="5.73266">
        <ele>534.59997558594</ele>
        <time>2026-08-12T13:51:03.000Z</time>
      </trkpt>
      <trkpt lat="45.20913" lon="5.73265">
        <ele>535</ele>
        <time>2026-08-12T13:51:04.000Z</time>
      </trkpt>
      <trkpt lat="45.20912" lon="5.73265">
        <ele>535.40002441406</ele>
        <time>2026-08-12T13:51:05.000Z</time>
      </trkpt>
      <trkpt lat="45.20911" lon="5.73264">
        <ele>535.59997558594</ele>
        <time>2026-08-12T13:51:06.000Z</time>
      </trkpt>
      <trkpt lat="45.20909" lon="5.73263">
        <ele>536</ele>
        <time>2026-08-12T13:51:07.000Z</time>
      </trkpt>
      <trkpt lat="45.20909" lon="5.73261">
        <ele>535.79998779297</ele>
        <time>2026-08-12T13:51:08.000Z</time>
      </trkpt>
      <trkpt lat="45.20909" lon="5.7326">
        <ele>535.59997558594</ele>
        <time>2026-08-12T13:51:09.000Z</time>
      </trkpt>
      <trkpt lat="45.2091" lon="5.73258">
        <ele>535.20001220703</ele>
        <time>2026-08-12T13:51:10.000Z</time>
      </trkpt>
      <trkpt lat="45.20911" lon="5.73258">
        <ele>534.79998779297</ele>
        <time>2026-08-12T13:51:11.000Z</time>
      </trkpt>
      <trkpt lat="45.20911" lon="5.73258">
        <ele>534.79998779297</ele>
        <time>2026-08-12T13:51:12.000Z</time>
      </trkpt>
      <trkpt lat="45.20912" lon="5.73258">
        <ele>534.20001220703</ele>
        <time>2026-08-12T13:51:13.000Z</time>
      </trkpt>
      <trkpt lat="45.20913" lon="5.73258">
        <ele>533.79998779297</ele>
        <time>2026-08-12T13:51:14.000Z</time>
      </trkpt>
      <trkpt lat="45.20915" lon="5.73257">
        <ele>533.59997558594</ele>
        <time>2026-08-12T13:51:15.000Z</time>
      </trkpt>
      <trkpt lat="45.20916" lon="5.73258">
        <ele>533.20001220703</ele>
        <time>2026-08-12T13:51:16.000Z</time>
      </trkpt>
      <trkpt lat="45.20917" lon="5.73258">
        <ele>533</ele>
        <time>2026-08-12T13:51:17.000Z</time>
      </trkpt>
      <trkpt lat="45.20918" lon="5.73258">
        <ele>533.20001220703</ele>
        <time>2026-08-12T13:51:18.000Z</time>
      </trkpt>
      <trkpt lat="45.20919" lon="5.73258">
        <ele>533.40002441406</ele>
        <time>2026-08-12T13:51:19.000Z</time>
      </trkpt>
      <trkpt lat="45.2092" lon="5.73258">
        <ele>533.40002441406</ele>
        <time>2026-08-12T13:51:20.000Z</time>
      </trkpt>
      <trkpt lat="45.20922" lon="5.73257">
        <ele>533.59997558594</ele>
        <time>2026-08-12T13:51:21.000Z</time>
      </trkpt>
      <trkpt lat="45.20923" lon="5.73258">
        <ele>533.79998779297</ele>
        <time>2026-08-12T13:51:22.000Z</time>
      </trkpt>
      <trkpt lat="45.20923" lon="5.73257">
        <ele>534</ele>
        <time>2026-08-12T13:51:23.000Z</time>
      </trkpt>
      <trkpt lat="45.20924" lon="5.73257">
        <ele>534.20001220703</ele>
        <time>2026-08-12T13:51:24.000Z</time>
      </trkpt>
      <trkpt lat="45.20925" lon="5.73256">
        <ele>534.20001220703</ele>
        <time>2026-08-12T13:51:25.000Z</time>
      </trkpt>
      <trkpt lat="45.20926" lon="5.73256">
        <ele>534.40002441406</ele>
        <time>2026-08-12T13:51:26.000Z</time>
      </trkpt>
      <trkpt lat="45.20927" lon="5.73256">
        <ele>535.40002441406</ele>
        <time>2026-08-12T13:51:27.000Z</time>
      </trkpt>
      <trkpt lat="45.20928" lon="5.73256">
        <ele>536.20001220703</ele>
        <time>2026-08-12T13:51:28.000Z</time>
      </trkpt>
      <trkpt lat="45.20929" lon="5.73256">
        <ele>536.59997558594</ele>
        <time>2026-08-12T13:51:29.000Z</time>
      </trkpt>
      <trkpt lat="45.2093" lon="5.73256">
        <ele>536.79998779297</ele>
        <time>2026-08-12T13:51:30.000Z</time>
      </trkpt>
      <trkpt lat="45.20931" lon="5.73256">
        <ele>537.20001220703</ele>
        <time>2026-08-12T13:51:31.000Z</time>
      </trkpt>
      <trkpt lat="45.20932" lon="5.73256">
        <ele>537.40002441406</ele>
        <time>2026-08-12T13:51:32.000Z</time>
      </trkpt>
      <trkpt lat="45.20933" lon="5.73257">
        <ele>537.79998779297</ele>
        <time>2026-08-12T13:51:33.000Z</time>
      </trkpt>
      <trkpt lat="45.20934" lon="5.73256">
        <ele>538</ele>
        <time>2026-08-12T13:51:34.000Z</time>
      </trkpt>
      <trkpt lat="45.20935" lon="5.73257">
        <ele>538.40002441406</ele>
        <time>2026-08-12T13:51:35.000Z</time>
      </trkpt>
      <trkpt lat="45.20936" lon="5.73257">
        <ele>538.59997558594</ele>
        <time>2026-08-12T13:51:36.000Z</time>
      </trkpt>
      <trkpt lat="45.20937" lon="5.73258">
        <ele>539</ele>
        <time>2026-08-12T13:51:37.000Z</time>
      </trkpt>
      <trkpt lat="45.20938" lon="5.73258">
        <ele>539.20001220703</ele>
        <time>2026-08-12T13:51:38.000Z</time>
      </trkpt>
      <trkpt lat="45.20939" lon="5.73258">
        <ele>539.59997558594</ele>
        <time>2026-08-12T13:51:39.000Z</time>
      </trkpt>
      <trkpt lat="45.2094" lon="5.73258">
        <ele>539.79998779297</ele>
        <time>2026-08-12T13:51:40.000Z</time>
      </trkpt>
      <trkpt lat="45.20942" lon="5.73258">
        <ele>540.20001220703</ele>
        <time>2026-08-12T13:51:41.000Z</time>
      </trkpt>
      <trkpt lat="45.20943" lon="5.73258">
        <ele>540.40002441406</ele>
        <time>2026-08-12T13:51:42.000Z</time>
      </trkpt>
      <trkpt lat="45.20944" lon="5.73258">
        <ele>540.79998779297</ele>
        <time>2026-08-12T13:51:43.000Z</time>
      </trkpt>
      <trkpt lat="45.20944" lon="5.73259">
        <ele>541</ele>
        <time>2026-08-12T13:51:44.000Z</time>
      </trkpt>
      <trkpt lat="45.20945" lon="5.73259">
        <ele>541.20001220703</ele>
        <time>2026-08-12T13:51:45.000Z</time>
      </trkpt>
      <trkpt lat="45.20946" lon="5.73259">
        <ele>541.59997558594</ele>
        <time>2026-08-12T13:51:46.000Z</time>
      </trkpt>
      <trkpt lat="45.20947" lon="5.73259">
        <ele>541.79998779297</ele>
        <time>2026-08-12T13:51:47.000Z</time>
      </trkpt>
      <trkpt lat="45.20948" lon="5.73259">
        <ele>542.20001220703</ele>
        <time>2026-08-12T13:51:48.000Z</time>
      </trkpt>
      <trkpt lat="45.20949" lon="5.73258">
        <ele>542.40002441406</ele>
        <time>2026-08-12T13:51:49.000Z</time>
      </trkpt>
      <trkpt lat="45.20949" lon="5.73258">
        <ele>542.20001220703</ele>
        <time>2026-08-12T13:51:50.000Z</time>
      </trkpt>
      <trkpt lat="45.2095" lon="5.73258">
        <ele>542</ele>
        <time>2026-08-12T13:51:51.000Z</time>
      </trkpt>
      <trkpt lat="45.20951" lon="5.73257">
        <ele>541.79998779297</ele>
        <time>2026-08-12T13:51:52.000Z</time>
      </trkpt>
      <trkpt lat="45.20951" lon="5.73256">
        <ele>541.40002441406</ele>
        <time>2026-08-12T13:51:53.000Z</time>
      </trkpt>
      <trkpt lat="45.20952" lon="5.73256">
        <ele>541.20001220703</ele>
        <time>2026-08-12T13:51:54.000Z</time>
      </trkpt>
      <trkpt lat="45.20952" lon="5.73256">
        <ele>541</ele>
        <time>2026-08-12T13:51:55.000Z</time>
      </trkpt>
      <trkpt lat="45.20953" lon="5.73256">
        <ele>540.79998779297</ele>
        <time>2026-08-12T13:51:56.000Z</time>
      </trkpt>
      <trkpt lat="45.20954" lon="5.73255">
        <ele>540.59997558594</ele>
        <time>2026-08-12T13:51:57.000Z</time>
      </trkpt>
      <trkpt lat="45.20955" lon="5.73255">
        <ele>540.20001220703</ele>
        <time>2026-08-12T13:51:58.000Z</time>
      </trkpt>
      <trkpt lat="45.20956" lon="5.73254">
        <ele>540</ele>
        <time>2026-08-12T13:51:59.000Z</time>
      </trkpt>
      <trkpt lat="45.20958" lon="5.73254">
        <ele>539.79998779297</ele>
        <time>2026-08-12T13:52:00.000Z</time>
      </trkpt>
      <trkpt lat="45.20959" lon="5.73252">
        <ele>539.79998779297</ele>
        <time>2026-08-12T13:52:01.000Z</time>
      </trkpt>
      <trkpt lat="45.2096" lon="5.73252">
        <ele>539.40002441406</ele>
        <time>2026-08-12T13:52:02.000Z</time>
      </trkpt>
      <trkpt lat="45.20961" lon="5.73251">
        <ele>539.40002441406</ele>
        <time>2026-08-12T13:52:03.000Z</time>
      </trkpt>
      <trkpt lat="45.20962" lon="5.73251">
        <ele>539.59997558594</ele>
        <time>2026-08-12T13:52:04.000Z</time>
      </trkpt>
      <trkpt lat="45.20963" lon="5.73251">
        <ele>539.59997558594</ele>
        <time>2026-08-12T13:52:05.000Z</time>
      </trkpt>
      <trkpt lat="45.20964" lon="5.73251">
        <ele>539.79998779297</ele>
        <time>2026-08-12T13:52:06.000Z</time>
      </trkpt>
      <trkpt lat="45.20965" lon="5.73251">
        <ele>540</ele>
        <time>2026-08-12T13:52:07.000Z</time>
      </trkpt>
      <trkpt lat="45.20966" lon="5.73251">
        <ele>540.40002441406</ele>
        <time>2026-08-12T13:52:08.000Z</time>
      </trkpt>
      <trkpt lat="45.20967" lon="5.73251">
        <ele>540.79998779297</ele>
        <time>2026-08-12T13:52:09.000Z</time>
      </trkpt>
      <trkpt lat="45.20967" lon="5.73251">
        <ele>541.40002441406</ele>
        <time>2026-08-12T13:52:10.000Z</time>
      </trkpt>
      <trkpt lat="45.20968" lon="5.7325">
        <ele>541.59997558594</ele>
        <time>2026-08-12T13:52:11.000Z</time>
      </trkpt>
      <trkpt lat="45.20969" lon="5.7325">
        <ele>541.79998779297</ele>
        <time>2026-08-12T13:52:12.000Z</time>
      </trkpt>
      <trkpt lat="45.20971" lon="5.7325">
        <ele>542.20001220703</ele>
        <time>2026-08-12T13:52:13.000Z</time>
      </trkpt>
      <trkpt lat="45.20972" lon="5.73251">
        <ele>542.40002441406</ele>
        <time>2026-08-12T13:52:14.000Z</time>
      </trkpt>
      <trkpt lat="45.20973" lon="5.73252">
        <ele>543</ele>
        <time>2026-08-12T13:52:15.000Z</time>
      </trkpt>
      <trkpt lat="45.20974" lon="5.73252">
        <ele>545</ele>
        <time>2026-08-12T13:52:16.000Z</time>
      </trkpt>
      <trkpt lat="45.20975" lon="5.73253">
        <ele>545.20001220703</ele>
        <time>2026-08-12T13:52:17.000Z</time>
      </trkpt>
      <trkpt lat="45.20976" lon="5.73253">
        <ele>545.40002441406</ele>
        <time>2026-08-12T13:52:18.000Z</time>
      </trkpt>
      <trkpt lat="45.20978" lon="5.73253">
        <ele>546</ele>
        <time>2026-08-12T13:52:19.000Z</time>
      </trkpt>
      <trkpt lat="45.20979" lon="5.73252">
        <ele>546.59997558594</ele>
        <time>2026-08-12T13:52:20.000Z</time>
      </trkpt>
      <trkpt lat="45.20979" lon="5.73252">
        <ele>547.20001220703</ele>
        <time>2026-08-12T13:52:21.000Z</time>
      </trkpt>
      <trkpt lat="45.2098" lon="5.7325">
        <ele>547.59997558594</ele>
        <time>2026-08-12T13:52:22.000Z</time>
      </trkpt>
      <trkpt lat="45.2098" lon="5.7325">
        <ele>548.20001220703</ele>
        <time>2026-08-12T13:52:23.000Z</time>
      </trkpt>
      <trkpt lat="45.20981" lon="5.7325">
        <ele>548.79998779297</ele>
        <time>2026-08-12T13:52:24.000Z</time>
      </trkpt>
      <trkpt lat="45.20982" lon="5.73249">
        <ele>549.40002441406</ele>
        <time>2026-08-12T13:52:25.000Z</time>
      </trkpt>
      <trkpt lat="45.20983" lon="5.73249">
        <ele>549.59997558594</ele>
        <time>2026-08-12T13:52:26.000Z</time>
      </trkpt>
      <trkpt lat="45.20983" lon="5.73249">
        <ele>549.59997558594</ele>
        <time>2026-08-12T13:52:27.000Z</time>
      </trkpt>
      <trkpt lat="45.20984" lon="5.73248">
        <ele>549.79998779297</ele>
        <time>2026-08-12T13:52:28.000Z</time>
      </trkpt>
      <trkpt lat="45.20985" lon="5.73248">
        <ele>549.79998779297</ele>
        <time>2026-08-12T13:52:29.000Z</time>
      </trkpt>
      <trkpt lat="45.20986" lon="5.73248">
        <ele>550</ele>
        <time>2026-08-12T13:52:30.000Z</time>
      </trkpt>
      <trkpt lat="45.20987" lon="5.73248">
        <ele>550.20001220703</ele>
        <time>2026-08-12T13:52:31.000Z</time>
      </trkpt>
      <trkpt lat="45.20987" lon="5.73248">
        <ele>550.20001220703</ele>
        <time>2026-08-12T13:52:32.000Z</time>
      </trkpt>
      <trkpt lat="45.20987" lon="5.73247">
        <ele>550.40002441406</ele>
        <time>2026-08-12T13:52:33.000Z</time>
      </trkpt>
      <trkpt lat="45.20987" lon="5.73247">
        <ele>550.40002441406</ele>
        <time>2026-08-12T13:52:34.000Z</time>
      </trkpt>
      <trkpt lat="45.20986" lon="5.73248">
        <ele>550.40002441406</ele>
        <time>2026-08-12T13:52:35.000Z</time>
      </trkpt>
      <trkpt lat="45.20985" lon="5.73247">
        <ele>550.40002441406</ele>
        <time>2026-08-12T13:52:36.000Z</time>
      </trkpt>
      <trkpt lat="45.20984" lon="5.73248">
        <ele>550.40002441406</ele>
        <time>2026-08-12T13:52:37.000Z</time>
      </trkpt>
      <trkpt lat="45.20984" lon="5.73248">
        <ele>550.40002441406</ele>
        <time>2026-08-12T13:52:38.000Z</time>
      </trkpt>
      <trkpt lat="45.20983" lon="5.73248">
        <ele>550</ele>
        <time>2026-08-12T13:52:39.000Z</time>
      </trkpt>
      <trkpt lat="45.20982" lon="5.73248">
        <ele>549.40002441406</ele>
        <time>2026-08-12T13:52:40.000Z</time>
      </trkpt>
      <trkpt lat="45.20981" lon="5.73248">
        <ele>549</ele>
        <time>2026-08-12T13:52:41.000Z</time>
      </trkpt>
      <trkpt lat="45.2098" lon="5.73247">
        <ele>548.59997558594</ele>
        <time>2026-08-12T13:52:42.000Z</time>
      </trkpt>
      <trkpt lat="45.20979" lon="5.73247">
        <ele>547.79998779297</ele>
        <time>2026-08-12T13:52:43.000Z</time>
      </trkpt>
      <trkpt lat="45.20978" lon="5.73247">
        <ele>547.59997558594</ele>
        <time>2026-08-12T13:52:44.000Z</time>
      </trkpt>
      <trkpt lat="45.20977" lon="5.73247">
        <ele>547.59997558594</ele>
        <time>2026-08-12T13:52:45.000Z</time>
      </trkpt>
      <trkpt lat="45.20976" lon="5.73247">
        <ele>547.59997558594</ele>
        <time>2026-08-12T13:52:46.000Z</time>
      </trkpt>
      <trkpt lat="45.20975" lon="5.73246">
        <ele>547.79998779297</ele>
        <time>2026-08-12T13:52:47.000Z</time>
      </trkpt>
      <trkpt lat="45.20974" lon="5.73246">
        <ele>547.79998779297</ele>
        <time>2026-08-12T13:52:48.000Z</time>
      </trkpt>
      <trkpt lat="45.20973" lon="5.73246">
        <ele>549</ele>
        <time>2026-08-12T13:52:49.000Z</time>
      </trkpt>
      <trkpt lat="45.20972" lon="5.73245">
        <ele>550</ele>
        <time>2026-08-12T13:52:50.000Z</time>
      </trkpt>
      <trkpt lat="45.20972" lon="5.73244">
        <ele>550.20001220703</ele>
        <time>2026-08-12T13:52:51.000Z</time>
      </trkpt>
      <trkpt lat="45.2097" lon="5.73244">
        <ele>550.40002441406</ele>
        <time>2026-08-12T13:52:52.000Z</time>
      </trkpt>
      <trkpt lat="45.20969" lon="5.73243">
        <ele>550.79998779297</ele>
        <time>2026-08-12T13:52:53.000Z</time>
      </trkpt>
      <trkpt lat="45.20968" lon="5.73242">
        <ele>551.59997558594</ele>
        <time>2026-08-12T13:52:54.000Z</time>
      </trkpt>
      <trkpt lat="45.20967" lon="5.73242">
        <ele>552.20001220703</ele>
        <time>2026-08-12T13:52:55.000Z</time>
      </trkpt>
      <trkpt lat="45.20966" lon="5.73241">
        <ele>553.40002441406</ele>
        <time>2026-08-12T13:52:56.000Z</time>
      </trkpt>
      <trkpt lat="45.20965" lon="5.7324">
        <ele>554</ele>
        <time>2026-08-12T13:52:57.000Z</time>
      </trkpt>
      <trkpt lat="45.20964" lon="5.7324">
        <ele>554.79998779297</ele>
        <time>2026-08-12T13:52:58.000Z</time>
      </trkpt>
      <trkpt lat="45.20963" lon="5.7324">
        <ele>555</ele>
        <time>2026-08-12T13:52:59.000Z</time>
      </trkpt>
      <trkpt lat="45.20963" lon="5.7324">
        <ele>555.20001220703</ele>
        <time>2026-08-12T13:53:00.000Z</time>
      </trkpt>
      <trkpt lat="45.20962" lon="5.7324">
        <ele>555.40002441406</ele>
        <time>2026-08-12T13:53:01.000Z</time>
      </trkpt>
      <trkpt lat="45.2096" lon="5.7324">
        <ele>556.59997558594</ele>
        <time>2026-08-12T13:53:02.000Z</time>
      </trkpt>
      <trkpt lat="45.20959" lon="5.7324">
        <ele>558</ele>
        <time>2026-08-12T13:53:03.000Z</time>
      </trkpt>
      <trkpt lat="45.20959" lon="5.73241">
        <ele>558.59997558594</ele>
        <time>2026-08-12T13:53:04.000Z</time>
      </trkpt>
      <trkpt lat="45.20958" lon="5.73241">
        <ele>559.20001220703</ele>
        <time>2026-08-12T13:53:05.000Z</time>
      </trkpt>
      <trkpt lat="45.20957" lon="5.73241">
        <ele>559.59997558594</ele>
        <time>2026-08-12T13:53:06.000Z</time>
      </trkpt>
      <trkpt lat="45.20955" lon="5.73241">
        <ele>560.20001220703</ele>
        <time>2026-08-12T13:53:07.000Z</time>
      </trkpt>
      <trkpt lat="45.20954" lon="5.7324">
        <ele>560.40002441406</ele>
        <time>2026-08-12T13:53:08.000Z</time>
      </trkpt>
      <trkpt lat="45.20953" lon="5.7324">
        <ele>560.59997558594</ele>
        <time>2026-08-12T13:53:09.000Z</time>
      </trkpt>
      <trkpt lat="45.20952" lon="5.7324">
        <ele>560.59997558594</ele>
        <time>2026-08-12T13:53:10.000Z</time>
      </trkpt>
      <trkpt lat="45.20951" lon="5.73239">
        <ele>560.79998779297</ele>
        <time>2026-08-12T13:53:11.000Z</time>
      </trkpt>
      <trkpt lat="45.2095" lon="5.73239">
        <ele>561</ele>
        <time>2026-08-12T13:53:12.000Z</time>
      </trkpt>
      <trkpt lat="45.20949" lon="5.73239">
        <ele>560.20001220703</ele>
        <time>2026-08-12T13:53:13.000Z</time>
      </trkpt>
      <trkpt lat="45.20948" lon="5.73239">
        <ele>559.79998779297</ele>
        <time>2026-08-12T13:53:14.000Z</time>
      </trkpt>
      <trkpt lat="45.20947" lon="5.73238">
        <ele>559.20001220703</ele>
        <time>2026-08-12T13:53:15.000Z</time>
      </trkpt>
      <trkpt lat="45.20946" lon="5.73238">
        <ele>558.59997558594</ele>
        <time>2026-08-12T13:53:16.000Z</time>
      </trkpt>
      <trkpt lat="45.20945" lon="5.73238">
        <ele>557.79998779297</ele>
        <time>2026-08-12T13:53:17.000Z</time>
      </trkpt>
      <trkpt lat="45.20944" lon="5.73238">
        <ele>557.20001220703</ele>
        <time>2026-08-12T13:53:18.000Z</time>
      </trkpt>
      <trkpt lat="45.20943" lon="5.73237">
        <ele>555.59997558594</ele>
        <time>2026-08-12T13:53:19.000Z</time>
      </trkpt>
      <trkpt lat="45.20942" lon="5.73237">
        <ele>555.20001220703</ele>
        <time>2026-08-12T13:53:20.000Z</time>
      </trkpt>
      <trkpt lat="45.20941" lon="5.73237">
        <ele>555.20001220703</ele>
        <time>2026-08-12T13:53:21.000Z</time>
      </trkpt>
      <trkpt lat="45.20941" lon="5.73236">
        <ele>555.20001220703</ele>
        <time>2026-08-12T13:53:22.000Z</time>
      </trkpt>
      <trkpt lat="45.2094" lon="5.73236">
        <ele>555.40002441406</ele>
        <time>2026-08-12T13:53:23.000Z</time>
      </trkpt>
      <trkpt lat="45.20939" lon="5.73235">
        <ele>555.59997558594</ele>
        <time>2026-08-12T13:53:24.000Z</time>
      </trkpt>
      <trkpt lat="45.20938" lon="5.73234">
        <ele>555.79998779297</ele>
        <time>2026-08-12T13:53:25.000Z</time>
      </trkpt>
      <trkpt lat="45.20937" lon="5.73233">
        <ele>556</ele>
        <time>2026-08-12T13:53:26.000Z</time>
      </trkpt>
      <trkpt lat="45.20936" lon="5.73232">
        <ele>556.20001220703</ele>
        <time>2026-08-12T13:53:27.000Z</time>
      </trkpt>
      <trkpt lat="45.20936" lon="5.73231">
        <ele>556.20001220703</ele>
        <time>2026-08-12T13:53:28.000Z</time>
      </trkpt>
      <trkpt lat="45.20934" lon="5.73231">
        <ele>556.40002441406</ele>
        <time>2026-08-12T13:53:29.000Z</time>
      </trkpt>
      <trkpt lat="45.20933" lon="5.7323">
        <ele>556.59997558594</ele>
        <time>2026-08-12T13:53:30.000Z</time>
      </trkpt>
      <trkpt lat="45.20932" lon="5.73229">
        <ele>556.79998779297</ele>
        <time>2026-08-12T13:53:31.000Z</time>
      </trkpt>
      <trkpt lat="45.20931" lon="5.73227">
        <ele>557</ele>
        <time>2026-08-12T13:53:32.000Z</time>
      </trkpt>
      <trkpt lat="45.20932" lon="5.73225">
        <ele>557.20001220703</ele>
        <time>2026-08-12T13:53:33.000Z</time>
      </trkpt>
      <trkpt lat="45.20932" lon="5.73223">
        <ele>557.20001220703</ele>
        <time>2026-08-12T13:53:34.000Z</time>
      </trkpt>
      <trkpt lat="45.20933" lon="5.73223">
        <ele>557.20001220703</ele>
        <time>2026-08-12T13:53:35.000Z</time>
      </trkpt>
      <trkpt lat="45.20934" lon="5.73224">
        <ele>557</ele>
        <time>2026-08-12T13:53:36.000Z</time>
      </trkpt>
      <trkpt lat="45.20934" lon="5.73224">
        <ele>557</ele>
        <time>2026-08-12T13:53:37.000Z</time>
      </trkpt>
      <trkpt lat="45.20935" lon="5.73224">
        <ele>556.79998779297</ele>
        <time>2026-08-12T13:53:38.000Z</time>
      </trkpt>
      <trkpt lat="45.20936" lon="5.73224">
        <ele>556.79998779297</ele>
        <time>2026-08-12T13:53:39.000Z</time>
      </trkpt>
      <trkpt lat="45.20937" lon="5.73224">
        <ele>556.59997558594</ele>
        <time>2026-08-12T13:53:40.000Z</time>
      </trkpt>
      <trkpt lat="45.20938" lon="5.73225">
        <ele>556.59997558594</ele>
        <time>2026-08-12T13:53:41.000Z</time>
      </trkpt>
      <trkpt lat="45.20939" lon="5.73225">
        <ele>556.79998779297</ele>
        <time>2026-08-12T13:53:42.000Z</time>
      </trkpt>
      <trkpt lat="45.2094" lon="5.73226">
        <ele>556.79998779297</ele>
        <time>2026-08-12T13:53:43.000Z</time>
      </trkpt>
      <trkpt lat="45.20941" lon="5.73226">
        <ele>557</ele>
        <time>2026-08-12T13:53:44.000Z</time>
      </trkpt>
      <trkpt lat="45.20942" lon="5.73226">
        <ele>557.20001220703</ele>
        <time>2026-08-12T13:53:45.000Z</time>
      </trkpt>
      <trkpt lat="45.20943" lon="5.73225">
        <ele>557.59997558594</ele>
        <time>2026-08-12T13:53:46.000Z</time>
      </trkpt>
      <trkpt lat="45.20944" lon="5.73225">
        <ele>558</ele>
        <time>2026-08-12T13:53:47.000Z</time>
      </trkpt>
      <trkpt lat="45.20945" lon="5.73225">
        <ele>558.59997558594</ele>
        <time>2026-08-12T13:53:48.000Z</time>
      </trkpt>
      <trkpt lat="45.20946" lon="5.73225">
        <ele>559</ele>
        <time>2026-08-12T13:53:49.000Z</time>
      </trkpt>
      <trkpt lat="45.20947" lon="5.73224">
        <ele>559.40002441406</ele>
        <time>2026-08-12T13:53:50.000Z</time>
      </trkpt>
      <trkpt lat="45.20948" lon="5.73224">
        <ele>559.59997558594</ele>
        <time>2026-08-12T13:53:51.000Z</time>
      </trkpt>
      <trkpt lat="45.20949" lon="5.73224">
        <ele>559.59997558594</ele>
        <time>2026-08-12T13:53:52.000Z</time>
      </trkpt>
      <trkpt lat="45.2095" lon="5.73223">
        <ele>559.79998779297</ele>
        <time>2026-08-12T13:53:53.000Z</time>
      </trkpt>
      <trkpt lat="45.2095" lon="5.73222">
        <ele>559.79998779297</ele>
        <time>2026-08-12T13:53:54.000Z</time>
      </trkpt>
      <trkpt lat="45.20951" lon="5.73222">
        <ele>560</ele>
        <time>2026-08-12T13:53:55.000Z</time>
      </trkpt>
      <trkpt lat="45.20952" lon="5.73221">
        <ele>560.20001220703</ele>
        <time>2026-08-12T13:53:56.000Z</time>
      </trkpt>
      <trkpt lat="45.20952" lon="5.73221">
        <ele>560.20001220703</ele>
        <time>2026-08-12T13:53:57.000Z</time>
      </trkpt>
      <trkpt lat="45.20954" lon="5.7322">
        <ele>560.40002441406</ele>
        <time>2026-08-12T13:53:58.000Z</time>
      </trkpt>
      <trkpt lat="45.20954" lon="5.73219">
        <ele>560.59997558594</ele>
        <time>2026-08-12T13:53:59.000Z</time>
      </trkpt>
      <trkpt lat="45.20955" lon="5.73219">
        <ele>560.59997558594</ele>
        <time>2026-08-12T13:54:00.000Z</time>
      </trkpt>
      <trkpt lat="45.20956" lon="5.73219">
        <ele>560.79998779297</ele>
        <time>2026-08-12T13:54:01.000Z</time>
      </trkpt>
      <trkpt lat="45.20957" lon="5.73218">
        <ele>560.59997558594</ele>
        <time>2026-08-12T13:54:02.000Z</time>
      </trkpt>
      <trkpt lat="45.20958" lon="5.73217">
        <ele>560.40002441406</ele>
        <time>2026-08-12T13:54:03.000Z</time>
      </trkpt>
      <trkpt lat="45.20959" lon="5.73217">
        <ele>560.40002441406</ele>
        <time>2026-08-12T13:54:04.000Z</time>
      </trkpt>
      <trkpt lat="45.2096" lon="5.73216">
        <ele>560.20001220703</ele>
        <time>2026-08-12T13:54:05.000Z</time>
      </trkpt>
      <trkpt lat="45.20961" lon="5.73215">
        <ele>560</ele>
        <time>2026-08-12T13:54:06.000Z</time>
      </trkpt>
      <trkpt lat="45.20962" lon="5.73215">
        <ele>560</ele>
        <time>2026-08-12T13:54:07.000Z</time>
      </trkpt>
      <trkpt lat="45.20963" lon="5.73215">
        <ele>560.20001220703</ele>
        <time>2026-08-12T13:54:08.000Z</time>
      </trkpt>
      <trkpt lat="45.20964" lon="5.73216">
        <ele>560.20001220703</ele>
        <time>2026-08-12T13:54:09.000Z</time>
      </trkpt>
      <trkpt lat="45.20965" lon="5.73216">
        <ele>560.40002441406</ele>
        <time>2026-08-12T13:54:10.000Z</time>
      </trkpt>
      <trkpt lat="45.20966" lon="5.73217">
        <ele>560.40002441406</ele>
        <time>2026-08-12T13:54:11.000Z</time>
      </trkpt>
      <trkpt lat="45.20967" lon="5.73217">
        <ele>561.40002441406</ele>
        <time>2026-08-12T13:54:12.000Z</time>
      </trkpt>
      <trkpt lat="45.20968" lon="5.73216">
        <ele>561.59997558594</ele>
        <time>2026-08-12T13:54:13.000Z</time>
      </trkpt>
      <trkpt lat="45.20969" lon="5.73216">
        <ele>561.59997558594</ele>
        <time>2026-08-12T13:54:14.000Z</time>
      </trkpt>
      <trkpt lat="45.2097" lon="5.73216">
        <ele>561.79998779297</ele>
        <time>2026-08-12T13:54:15.000Z</time>
      </trkpt>
      <trkpt lat="45.20972" lon="5.73216">
        <ele>561.79998779297</ele>
        <time>2026-08-12T13:54:16.000Z</time>
      </trkpt>
      <trkpt lat="45.20973" lon="5.73217">
        <ele>562.40002441406</ele>
        <time>2026-08-12T13:54:17.000Z</time>
      </trkpt>
      <trkpt lat="45.20974" lon="5.73217">
        <ele>563</ele>
        <time>2026-08-12T13:54:18.000Z</time>
      </trkpt>
      <trkpt lat="45.20975" lon="5.73218">
        <ele>563.40002441406</ele>
        <time>2026-08-12T13:54:19.000Z</time>
      </trkpt>
      <trkpt lat="45.20976" lon="5.73217">
        <ele>564</ele>
        <time>2026-08-12T13:54:20.000Z</time>
      </trkpt>
      <trkpt lat="45.20977" lon="5.73217">
        <ele>564.40002441406</ele>
        <time>2026-08-12T13:54:21.000Z</time>
      </trkpt>
      <trkpt lat="45.20978" lon="5.73216">
        <ele>565</ele>
        <time>2026-08-12T13:54:22.000Z</time>
      </trkpt>
      <trkpt lat="45.20979" lon="5.73216">
        <ele>565.40002441406</ele>
        <time>2026-08-12T13:54:23.000Z</time>
      </trkpt>
      <trkpt lat="45.2098" lon="5.73215">
        <ele>565.59997558594</ele>
        <time>2026-08-12T13:54:24.000Z</time>
      </trkpt>
      <trkpt lat="45.20981" lon="5.73215">
        <ele>565.79998779297</ele>
        <time>2026-08-12T13:54:25.000Z</time>
      </trkpt>
      <trkpt lat="45.20982" lon="5.73214">
        <ele>566.20001220703</ele>
        <time>2026-08-12T13:54:26.000Z</time>
      </trkpt>
      <trkpt lat="45.20983" lon="5.73214">
        <ele>566.40002441406</ele>
        <time>2026-08-12T13:54:27.000Z</time>
      </trkpt>
      <trkpt lat="45.20984" lon="5.73214">
        <ele>566.59997558594</ele>
        <time>2026-08-12T13:54:28.000Z</time>
      </trkpt>
      <trkpt lat="45.20985" lon="5.73214">
        <ele>566.79998779297</ele>
        <time>2026-08-12T13:54:29.000Z</time>
      </trkpt>
      <trkpt lat="45.20986" lon="5.73214">
        <ele>567.20001220703</ele>
        <time>2026-08-12T13:54:30.000Z</time>
      </trkpt>
      <trkpt lat="45.20987" lon="5.73214">
        <ele>567.40002441406</ele>
        <time>2026-08-12T13:54:31.000Z</time>
      </trkpt>
      <trkpt lat="45.20988" lon="5.73214">
        <ele>567.59997558594</ele>
        <time>2026-08-12T13:54:32.000Z</time>
      </trkpt>
      <trkpt lat="45.20989" lon="5.73214">
        <ele>567.79998779297</ele>
        <time>2026-08-12T13:54:33.000Z</time>
      </trkpt>
      <trkpt lat="45.20989" lon="5.73212">
        <ele>568.20001220703</ele>
        <time>2026-08-12T13:54:34.000Z</time>
      </trkpt>
      <trkpt lat="45.20989" lon="5.73211">
        <ele>568.40002441406</ele>
        <time>2026-08-12T13:54:35.000Z</time>
      </trkpt>
      <trkpt lat="45.20988" lon="5.73211">
        <ele>568.59997558594</ele>
        <time>2026-08-12T13:54:36.000Z</time>
      </trkpt>
      <trkpt lat="45.20987" lon="5.73212">
        <ele>568.20001220703</ele>
        <time>2026-08-12T13:54:37.000Z</time>
      </trkpt>
      <trkpt lat="45.20986" lon="5.73212">
        <ele>567.59997558594</ele>
        <time>2026-08-12T13:54:38.000Z</time>
      </trkpt>
      <trkpt lat="45.20985" lon="5.73212">
        <ele>567.40002441406</ele>
        <time>2026-08-12T13:54:39.000Z</time>
      </trkpt>
      <trkpt lat="45.20984" lon="5.73212">
        <ele>567</ele>
        <time>2026-08-12T13:54:40.000Z</time>
      </trkpt>
      <trkpt lat="45.20983" lon="5.73212">
        <ele>566.59997558594</ele>
        <time>2026-08-12T13:54:41.000Z</time>
      </trkpt>
      <trkpt lat="45.20983" lon="5.73213">
        <ele>566.20001220703</ele>
        <time>2026-08-12T13:54:42.000Z</time>
      </trkpt>
      <trkpt lat="45.20982" lon="5.73213">
        <ele>566.20001220703</ele>
        <time>2026-08-12T13:54:43.000Z</time>
      </trkpt>
      <trkpt lat="45.2098" lon="5.73214">
        <ele>566.40002441406</ele>
        <time>2026-08-12T13:54:44.000Z</time>
      </trkpt>
      <trkpt lat="45.20979" lon="5.73214">
        <ele>566.40002441406</ele>
        <time>2026-08-12T13:54:45.000Z</time>
      </trkpt>
      <trkpt lat="45.20977" lon="5.73214">
        <ele>566.40002441406</ele>
        <time>2026-08-12T13:54:46.000Z</time>
      </trkpt>
      <trkpt lat="45.20976" lon="5.73214">
        <ele>566.59997558594</ele>
        <time>2026-08-12T13:54:47.000Z</time>
      </trkpt>
      <trkpt lat="45.20975" lon="5.73214">
        <ele>566.79998779297</ele>
        <time>2026-08-12T13:54:48.000Z</time>
      </trkpt>
      <trkpt lat="45.20974" lon="5.73213">
        <ele>567.20001220703</ele>
        <time>2026-08-12T13:54:49.000Z</time>
      </trkpt>
      <trkpt lat="45.20974" lon="5.73212">
        <ele>567.40002441406</ele>
        <time>2026-08-12T13:54:50.000Z</time>
      </trkpt>
      <trkpt lat="45.20975" lon="5.73211">
        <ele>567.59997558594</ele>
        <time>2026-08-12T13:54:51.000Z</time>
      </trkpt>
      <trkpt lat="45.20976" lon="5.73211">
        <ele>567.79998779297</ele>
        <time>2026-08-12T13:54:52.000Z</time>
      </trkpt>
      <trkpt lat="45.20976" lon="5.73211">
        <ele>568.20001220703</ele>
        <time>2026-08-12T13:54:53.000Z</time>
      </trkpt>
      <trkpt lat="45.20977" lon="5.73211">
        <ele>568.40002441406</ele>
        <time>2026-08-12T13:54:54.000Z</time>
      </trkpt>
      <trkpt lat="45.20977" lon="5.73211">
        <ele>568.59997558594</ele>
        <time>2026-08-12T13:54:55.000Z</time>
      </trkpt>
      <trkpt lat="45.20978" lon="5.7321">
        <ele>568.79998779297</ele>
        <time>2026-08-12T13:54:56.000Z</time>
      </trkpt>
      <trkpt lat="45.20979" lon="5.7321">
        <ele>568.59997558594</ele>
        <time>2026-08-12T13:54:57.000Z</time>
      </trkpt>
      <trkpt lat="45.2098" lon="5.73209">
        <ele>568.59997558594</ele>
        <time>2026-08-12T13:54:58.000Z</time>
      </trkpt>
      <trkpt lat="45.20981" lon="5.73209">
        <ele>568.79998779297</ele>
        <time>2026-08-12T13:54:59.000Z</time>
      </trkpt>
      <trkpt lat="45.20982" lon="5.73208">
        <ele>568.79998779297</ele>
        <time>2026-08-12T13:55:00.000Z</time>
      </trkpt>
      <trkpt lat="45.20983" lon="5.73208">
        <ele>569</ele>
        <time>2026-08-12T13:55:01.000Z</time>
      </trkpt>
      <trkpt lat="45.20984" lon="5.73207">
        <ele>569.20001220703</ele>
        <time>2026-08-12T13:55:02.000Z</time>
      </trkpt>
      <trkpt lat="45.20985" lon="5.73206">
        <ele>569.79998779297</ele>
        <time>2026-08-12T13:55:03.000Z</time>
      </trkpt>
      <trkpt lat="45.20986" lon="5.73205">
        <ele>569.79998779297</ele>
        <time>2026-08-12T13:55:04.000Z</time>
      </trkpt>
      <trkpt lat="45.20987" lon="5.73204">
        <ele>569.79998779297</ele>
        <time>2026-08-12T13:55:05.000Z</time>
      </trkpt>
      <trkpt lat="45.20987" lon="5.73202">
        <ele>570</ele>
        <time>2026-08-12T13:55:06.000Z</time>
      </trkpt>
      <trkpt lat="45.20988" lon="5.73201">
        <ele>570.20001220703</ele>
        <time>2026-08-12T13:55:07.000Z</time>
      </trkpt>
      <trkpt lat="45.20988" lon="5.732">
        <ele>570.59997558594</ele>
        <time>2026-08-12T13:55:08.000Z</time>
      </trkpt>
      <trkpt lat="45.20988" lon="5.73198">
        <ele>570.79998779297</ele>
        <time>2026-08-12T13:55:09.000Z</time>
      </trkpt>
      <trkpt lat="45.20989" lon="5.73197">
        <ele>571.20001220703</ele>
        <time>2026-08-12T13:55:10.000Z</time>
      </trkpt>
      <trkpt lat="45.2099" lon="5.73197">
        <ele>571.59997558594</ele>
        <time>2026-08-12T13:55:11.000Z</time>
      </trkpt>
      <trkpt lat="45.2099" lon="5.73196">
        <ele>571.79998779297</ele>
        <time>2026-08-12T13:55:12.000Z</time>
      </trkpt>
      <trkpt lat="45.20991" lon="5.73195">
        <ele>572.20001220703</ele>
        <time>2026-08-12T13:55:13.000Z</time>
      </trkpt>
      <trkpt lat="45.20991" lon="5.73194">
        <ele>572.59997558594</ele>
        <time>2026-08-12T13:55:14.000Z</time>
      </trkpt>
      <trkpt lat="45.20992" lon="5.73193">
        <ele>572.79998779297</ele>
        <time>2026-08-12T13:55:15.000Z</time>
      </trkpt>
      <trkpt lat="45.20993" lon="5.73192">
        <ele>573</ele>
        <time>2026-08-12T13:55:16.000Z</time>
      </trkpt>
      <trkpt lat="45.20994" lon="5.73191">
        <ele>573.20001220703</ele>
        <time>2026-08-12T13:55:17.000Z</time>
      </trkpt>
      <trkpt lat="45.20995" lon="5.7319">
        <ele>573.40002441406</ele>
        <time>2026-08-12T13:55:18.000Z</time>
      </trkpt>
      <trkpt lat="45.20995" lon="5.73189">
        <ele>573.59997558594</ele>
        <time>2026-08-12T13:55:19.000Z</time>
      </trkpt>
      <trkpt lat="45.20996" lon="5.73188">
        <ele>574.59997558594</ele>
        <time>2026-08-12T13:55:20.000Z</time>
      </trkpt>
      <trkpt lat="45.20997" lon="5.73187">
        <ele>574.59997558594</ele>
        <time>2026-08-12T13:55:21.000Z</time>
      </trkpt>
      <trkpt lat="45.20998" lon="5.73186">
        <ele>574.79998779297</ele>
        <time>2026-08-12T13:55:22.000Z</time>
      </trkpt>
      <trkpt lat="45.20999" lon="5.73185">
        <ele>574.79998779297</ele>
        <time>2026-08-12T13:55:23.000Z</time>
      </trkpt>
      <trkpt lat="45.21" lon="5.73185">
        <ele>575</ele>
        <time>2026-08-12T13:55:24.000Z</time>
      </trkpt>
      <trkpt lat="45.21" lon="5.73184">
        <ele>575</ele>
        <time>2026-08-12T13:55:25.000Z</time>
      </trkpt>
      <trkpt lat="45.21001" lon="5.73182">
        <ele>575.40002441406</ele>
        <time>2026-08-12T13:55:26.000Z</time>
      </trkpt>
      <trkpt lat="45.21002" lon="5.73182">
        <ele>575.59997558594</ele>
        <time>2026-08-12T13:55:27.000Z</time>
      </trkpt>
      <trkpt lat="45.21003" lon="5.73181">
        <ele>575.79998779297</ele>
        <time>2026-08-12T13:55:28.000Z</time>
      </trkpt>
      <trkpt lat="45.21003" lon="5.73179">
        <ele>576.20001220703</ele>
        <time>2026-08-12T13:55:29.000Z</time>
      </trkpt>
      <trkpt lat="45.21004" lon="5.73178">
        <ele>576.79998779297</ele>
        <time>2026-08-12T13:55:30.000Z</time>
      </trkpt>
      <trkpt lat="45.21005" lon="5.73177">
        <ele>577</ele>
        <time>2026-08-12T13:55:31.000Z</time>
      </trkpt>
      <trkpt lat="45.21005" lon="5.73176">
        <ele>577</ele>
        <time>2026-08-12T13:55:32.000Z</time>
      </trkpt>
      <trkpt lat="45.21006" lon="5.73175">
        <ele>577.20001220703</ele>
        <time>2026-08-12T13:55:33.000Z</time>
      </trkpt>
      <trkpt lat="45.21007" lon="5.73174">
        <ele>577.20001220703</ele>
        <time>2026-08-12T13:55:34.000Z</time>
      </trkpt>
      <trkpt lat="45.21007" lon="5.73173">
        <ele>577.40002441406</ele>
        <time>2026-08-12T13:55:35.000Z</time>
      </trkpt>
      <trkpt lat="45.21008" lon="5.73171">
        <ele>577.40002441406</ele>
        <time>2026-08-12T13:55:36.000Z</time>
      </trkpt>
      <trkpt lat="45.21009" lon="5.7317">
        <ele>577.59997558594</ele>
        <time>2026-08-12T13:55:37.000Z</time>
      </trkpt>
      <trkpt lat="45.2101" lon="5.73169">
        <ele>577.79998779297</ele>
        <time>2026-08-12T13:55:38.000Z</time>
      </trkpt>
      <trkpt lat="45.21011" lon="5.73169">
        <ele>577.79998779297</ele>
        <time>2026-08-12T13:55:39.000Z</time>
      </trkpt>
      <trkpt lat="45.21012" lon="5.73168">
        <ele>578</ele>
        <time>2026-08-12T13:55:40.000Z</time>
      </trkpt>
      <trkpt lat="45.21013" lon="5.73168">
        <ele>578</ele>
        <time>2026-08-12T13:55:41.000Z</time>
      </trkpt>
      <trkpt lat="45.21014" lon="5.73167">
        <ele>578.20001220703</ele>
        <time>2026-08-12T13:55:42.000Z</time>
      </trkpt>
      <trkpt lat="45.21015" lon="5.73167">
        <ele>578</ele>
        <time>2026-08-12T13:55:43.000Z</time>
      </trkpt>
      <trkpt lat="45.21016" lon="5.73166">
        <ele>577.79998779297</ele>
        <time>2026-08-12T13:55:44.000Z</time>
      </trkpt>
      <trkpt lat="45.21017" lon="5.73166">
        <ele>577.59997558594</ele>
        <time>2026-08-12T13:55:45.000Z</time>
      </trkpt>
      <trkpt lat="45.21018" lon="5.73166">
        <ele>577.40002441406</ele>
        <time>2026-08-12T13:55:46.000Z</time>
      </trkpt>
      <trkpt lat="45.21019" lon="5.73165">
        <ele>577.20001220703</ele>
        <time>2026-08-12T13:55:47.000Z</time>
      </trkpt>
      <trkpt lat="45.2102" lon="5.73165">
        <ele>577</ele>
        <time>2026-08-12T13:55:48.000Z</time>
      </trkpt>
      <trkpt lat="45.21021" lon="5.73166">
        <ele>576.79998779297</ele>
        <time>2026-08-12T13:55:49.000Z</time>
      </trkpt>
      <trkpt lat="45.21022" lon="5.73167">
        <ele>576.59997558594</ele>
        <time>2026-08-12T13:55:50.000Z</time>
      </trkpt>
      <trkpt lat="45.21024" lon="5.73169">
        <ele>576.40002441406</ele>
        <time>2026-08-12T13:55:51.000Z</time>
      </trkpt>
      <trkpt lat="45.21024" lon="5.73171">
        <ele>577.20001220703</ele>
        <time>2026-08-12T13:55:52.000Z</time>
      </trkpt>
      <trkpt lat="45.21025" lon="5.73172">
        <ele>578</ele>
        <time>2026-08-12T13:55:53.000Z</time>
      </trkpt>
      <trkpt lat="45.21026" lon="5.73173">
        <ele>579</ele>
        <time>2026-08-12T13:55:54.000Z</time>
      </trkpt>
      <trkpt lat="45.21028" lon="5.73174">
        <ele>579.79998779297</ele>
        <time>2026-08-12T13:55:55.000Z</time>
      </trkpt>
      <trkpt lat="45.21029" lon="5.73175">
        <ele>580.59997558594</ele>
        <time>2026-08-12T13:55:56.000Z</time>
      </trkpt>
      <trkpt lat="45.2103" lon="5.73176">
        <ele>581.40002441406</ele>
        <time>2026-08-12T13:55:57.000Z</time>
      </trkpt>
      <trkpt lat="45.21031" lon="5.73177">
        <ele>581.79998779297</ele>
        <time>2026-08-12T13:55:58.000Z</time>
      </trkpt>
      <trkpt lat="45.21031" lon="5.73177">
        <ele>582</ele>
        <time>2026-08-12T13:55:59.000Z</time>
      </trkpt>
      <trkpt lat="45.21032" lon="5.73177">
        <ele>582.40002441406</ele>
        <time>2026-08-12T13:56:00.000Z</time>
      </trkpt>
      <trkpt lat="45.21033" lon="5.73178">
        <ele>583.40002441406</ele>
        <time>2026-08-12T13:56:01.000Z</time>
      </trkpt>
      <trkpt lat="45.21034" lon="5.73178">
        <ele>584.20001220703</ele>
        <time>2026-08-12T13:56:02.000Z</time>
      </trkpt>
      <trkpt lat="45.21034" lon="5.73178">
        <ele>584.59997558594</ele>
        <time>2026-08-12T13:56:03.000Z</time>
      </trkpt>
      <trkpt lat="45.21036" lon="5.73179">
        <ele>584.79998779297</ele>
        <time>2026-08-12T13:56:04.000Z</time>
      </trkpt>
      <trkpt lat="45.21037" lon="5.73179">
        <ele>585</ele>
        <time>2026-08-12T13:56:05.000Z</time>
      </trkpt>
      <trkpt lat="45.21038" lon="5.73179">
        <ele>585.20001220703</ele>
        <time>2026-08-12T13:56:06.000Z</time>
      </trkpt>
      <trkpt lat="45.21039" lon="5.7318">
        <ele>585.40002441406</ele>
        <time>2026-08-12T13:56:07.000Z</time>
      </trkpt>
      <trkpt lat="45.2104" lon="5.7318">
        <ele>585.40002441406</ele>
        <time>2026-08-12T13:56:08.000Z</time>
      </trkpt>
      <trkpt lat="45.21041" lon="5.73181">
        <ele>585.79998779297</ele>
        <time>2026-08-12T13:56:09.000Z</time>
      </trkpt>
      <trkpt lat="45.21042" lon="5.73181">
        <ele>586.20001220703</ele>
        <time>2026-08-12T13:56:10.000Z</time>
      </trkpt>
      <trkpt lat="45.21042" lon="5.73182">
        <ele>586.59997558594</ele>
        <time>2026-08-12T13:56:11.000Z</time>
      </trkpt>
      <trkpt lat="45.21043" lon="5.73182">
        <ele>587</ele>
        <time>2026-08-12T13:56:12.000Z</time>
      </trkpt>
      <trkpt lat="45.21044" lon="5.73182">
        <ele>587.40002441406</ele>
        <time>2026-08-12T13:56:13.000Z</time>
      </trkpt>
      <trkpt lat="45.21046" lon="5.73182">
        <ele>589</ele>
        <time>2026-08-12T13:56:14.000Z</time>
      </trkpt>
      <trkpt lat="45.21047" lon="5.73182">
        <ele>588.79998779297</ele>
        <time>2026-08-12T13:56:15.000Z</time>
      </trkpt>
      <trkpt lat="45.21048" lon="5.73181">
        <ele>588.59997558594</ele>
        <time>2026-08-12T13:56:16.000Z</time>
      </trkpt>
      <trkpt lat="45.21048" lon="5.73181">
        <ele>588.40002441406</ele>
        <time>2026-08-12T13:56:17.000Z</time>
      </trkpt>
      <trkpt lat="45.21049" lon="5.73181">
        <ele>588.40002441406</ele>
        <time>2026-08-12T13:56:18.000Z</time>
      </trkpt>
      <trkpt lat="45.2105" lon="5.7318">
        <ele>588.20001220703</ele>
        <time>2026-08-12T13:56:19.000Z</time>
      </trkpt>
      <trkpt lat="45.21051" lon="5.7318">
        <ele>588</ele>
        <time>2026-08-12T13:56:20.000Z</time>
      </trkpt>
      <trkpt lat="45.21052" lon="5.73179">
        <ele>587.79998779297</ele>
        <time>2026-08-12T13:56:21.000Z</time>
      </trkpt>
      <trkpt lat="45.21053" lon="5.73178">
        <ele>587.59997558594</ele>
        <time>2026-08-12T13:56:22.000Z</time>
      </trkpt>
      <trkpt lat="45.21054" lon="5.73178">
        <ele>587.40002441406</ele>
        <time>2026-08-12T13:56:23.000Z</time>
      </trkpt>
      <trkpt lat="45.21055" lon="5.73178">
        <ele>587.20001220703</ele>
        <time>2026-08-12T13:56:24.000Z</time>
      </trkpt>
      <trkpt lat="45.21055" lon="5.73178">
        <ele>587.20001220703</ele>
        <time>2026-08-12T13:56:25.000Z</time>
      </trkpt>
      <trkpt lat="45.21056" lon="5.73178">
        <ele>587</ele>
        <time>2026-08-12T13:56:26.000Z</time>
      </trkpt>
      <trkpt lat="45.21057" lon="5.73179">
        <ele>586.79998779297</ele>
        <time>2026-08-12T13:56:27.000Z</time>
      </trkpt>
      <trkpt lat="45.21058" lon="5.73179">
        <ele>586.59997558594</ele>
        <time>2026-08-12T13:56:28.000Z</time>
      </trkpt>
      <trkpt lat="45.21059" lon="5.7318">
        <ele>585.20001220703</ele>
        <time>2026-08-12T13:56:29.000Z</time>
      </trkpt>
      <trkpt lat="45.2106" lon="5.73181">
        <ele>585.20001220703</ele>
        <time>2026-08-12T13:56:30.000Z</time>
      </trkpt>
      <trkpt lat="45.21061" lon="5.73182">
        <ele>585.20001220703</ele>
        <time>2026-08-12T13:56:31.000Z</time>
      </trkpt>
      <trkpt lat="45.21062" lon="5.73183">
        <ele>585</ele>
        <time>2026-08-12T13:56:32.000Z</time>
      </trkpt>
      <trkpt lat="45.21063" lon="5.73184">
        <ele>585</ele>
        <time>2026-08-12T13:56:33.000Z</time>
      </trkpt>
      <trkpt lat="45.21063" lon="5.73186">
        <ele>585</ele>
        <time>2026-08-12T13:56:34.000Z</time>
      </trkpt>
      <trkpt lat="45.21064" lon="5.73187">
        <ele>585</ele>
        <time>2026-08-12T13:56:35.000Z</time>
      </trkpt>
      <trkpt lat="45.21065" lon="5.73188">
        <ele>585</ele>
        <time>2026-08-12T13:56:36.000Z</time>
      </trkpt>
      <trkpt lat="45.21066" lon="5.73189">
        <ele>585.20001220703</ele>
        <time>2026-08-12T13:56:37.000Z</time>
      </trkpt>
      <trkpt lat="45.21066" lon="5.7319">
        <ele>585.20001220703</ele>
        <time>2026-08-12T13:56:38.000Z</time>
      </trkpt>
      <trkpt lat="45.21067" lon="5.73191">
        <ele>585.20001220703</ele>
        <time>2026-08-12T13:56:39.000Z</time>
      </trkpt>
      <trkpt lat="45.21067" lon="5.73192">
        <ele>585.20001220703</ele>
        <time>2026-08-12T13:56:40.000Z</time>
      </trkpt>
      <trkpt lat="45.21068" lon="5.73192">
        <ele>585.20001220703</ele>
        <time>2026-08-12T13:56:41.000Z</time>
      </trkpt>
      <trkpt lat="45.21069" lon="5.73193">
        <ele>585.79998779297</ele>
        <time>2026-08-12T13:56:42.000Z</time>
      </trkpt>
      <trkpt lat="45.2107" lon="5.73194">
        <ele>586.40002441406</ele>
        <time>2026-08-12T13:56:43.000Z</time>
      </trkpt>
      <trkpt lat="45.21071" lon="5.73195">
        <ele>587</ele>
        <time>2026-08-12T13:56:44.000Z</time>
      </trkpt>
      <trkpt lat="45.21072" lon="5.73196">
        <ele>587.59997558594</ele>
        <time>2026-08-12T13:56:45.000Z</time>
      </trkpt>
      <trkpt lat="45.21073" lon="5.73196">
        <ele>590</ele>
        <time>2026-08-12T13:56:46.000Z</time>
      </trkpt>
      <trkpt lat="45.21074" lon="5.73197">
        <ele>590.79998779297</ele>
        <time>2026-08-12T13:56:47.000Z</time>
      </trkpt>
      <trkpt lat="45.21075" lon="5.73198">
        <ele>591.20001220703</ele>
        <time>2026-08-12T13:56:48.000Z</time>
      </trkpt>
      <trkpt lat="45.21076" lon="5.732">
        <ele>591.59997558594</ele>
        <time>2026-08-12T13:56:49.000Z</time>
      </trkpt>
      <trkpt lat="45.21077" lon="5.73201">
        <ele>592</ele>
        <time>2026-08-12T13:56:50.000Z</time>
      </trkpt>
      <trkpt lat="45.21078" lon="5.73202">
        <ele>592.40002441406</ele>
        <time>2026-08-12T13:56:51.000Z</time>
      </trkpt>
      <trkpt lat="45.21078" lon="5.73203">
        <ele>592.59997558594</ele>
        <time>2026-08-12T13:56:52.000Z</time>
      </trkpt>
      <trkpt lat="45.21079" lon="5.73204">
        <ele>592.59997558594</ele>
        <time>2026-08-12T13:56:53.000Z</time>
      </trkpt>
      <trkpt lat="45.2108" lon="5.73204">
        <ele>592.79998779297</ele>
        <time>2026-08-12T13:56:54.000Z</time>
      </trkpt>
      <trkpt lat="45.21081" lon="5.73205">
        <ele>593</ele>
        <time>2026-08-12T13:56:55.000Z</time>
      </trkpt>
      <trkpt lat="45.21082" lon="5.73206">
        <ele>593.40002441406</ele>
        <time>2026-08-12T13:56:56.000Z</time>
      </trkpt>
      <trkpt lat="45.21082" lon="5.73207">
        <ele>593.59997558594</ele>
        <time>2026-08-12T13:56:57.000Z</time>
      </trkpt>
      <trkpt lat="45.21083" lon="5.73207">
        <ele>594.40002441406</ele>
        <time>2026-08-12T13:56:58.000Z</time>
      </trkpt>
      <trkpt lat="45.21084" lon="5.73208">
        <ele>595.40002441406</ele>
        <time>2026-08-12T13:56:59.000Z</time>
      </trkpt>
      <trkpt lat="45.21085" lon="5.73209">
        <ele>596.20001220703</ele>
        <time>2026-08-12T13:57:00.000Z</time>
      </trkpt>
      <trkpt lat="45.21086" lon="5.7321">
        <ele>596.40002441406</ele>
        <time>2026-08-12T13:57:01.000Z</time>
      </trkpt>
      <trkpt lat="45.21086" lon="5.73211">
        <ele>596.79998779297</ele>
        <time>2026-08-12T13:57:02.000Z</time>
      </trkpt>
      <trkpt lat="45.21087" lon="5.73212">
        <ele>597.40002441406</ele>
        <time>2026-08-12T13:57:03.000Z</time>
      </trkpt>
      <trkpt lat="45.21088" lon="5.73212">
        <ele>597.79998779297</ele>
        <time>2026-08-12T13:57:04.000Z</time>
      </trkpt>
      <trkpt lat="45.21089" lon="5.73213">
        <ele>598.20001220703</ele>
        <time>2026-08-12T13:57:05.000Z</time>
      </trkpt>
      <trkpt lat="45.2109" lon="5.73213">
        <ele>598.40002441406</ele>
        <time>2026-08-12T13:57:06.000Z</time>
      </trkpt>
      <trkpt lat="45.2109" lon="5.73213">
        <ele>598.59997558594</ele>
        <time>2026-08-12T13:57:07.000Z</time>
      </trkpt>
      <trkpt lat="45.2109" lon="5.73213">
        <ele>598.59997558594</ele>
        <time>2026-08-12T13:57:08.000Z</time>
      </trkpt>
      <trkpt lat="45.2109" lon="5.73213">
        <ele>598.79998779297</ele>
        <time>2026-08-12T13:57:09.000Z</time>
      </trkpt>
      <trkpt lat="45.21089" lon="5.73213">
        <ele>598.79998779297</ele>
        <time>2026-08-12T13:57:10.000Z</time>
      </trkpt>
      <trkpt lat="45.21088" lon="5.73213">
        <ele>599</ele>
        <time>2026-08-12T13:57:11.000Z</time>
      </trkpt>
      <trkpt lat="45.21088" lon="5.73212">
        <ele>599</ele>
        <time>2026-08-12T13:57:12.000Z</time>
      </trkpt>
      <trkpt lat="45.21087" lon="5.73211">
        <ele>599.40002441406</ele>
        <time>2026-08-12T13:57:13.000Z</time>
      </trkpt>
      <trkpt lat="45.21086" lon="5.7321">
        <ele>599.79998779297</ele>
        <time>2026-08-12T13:57:14.000Z</time>
      </trkpt>
      <trkpt lat="45.21085" lon="5.73209">
        <ele>600.20001220703</ele>
        <time>2026-08-12T13:57:15.000Z</time>
      </trkpt>
      <trkpt lat="45.21084" lon="5.73208">
        <ele>600.59997558594</ele>
        <time>2026-08-12T13:57:16.000Z</time>
      </trkpt>
      <trkpt lat="45.21084" lon="5.73207">
        <ele>601</ele>
        <time>2026-08-12T13:57:17.000Z</time>
      </trkpt>
      <trkpt lat="45.21083" lon="5.73206">
        <ele>601.20001220703</ele>
        <time>2026-08-12T13:57:18.000Z</time>
      </trkpt>
      <trkpt lat="45.21083" lon="5.73204">
        <ele>600.79998779297</ele>
        <time>2026-08-12T13:57:19.000Z</time>
      </trkpt>
      <trkpt lat="45.21082" lon="5.73204">
        <ele>600.40002441406</ele>
        <time>2026-08-12T13:57:20.000Z</time>
      </trkpt>
      <trkpt lat="45.21082" lon="5.73203">
        <ele>600.40002441406</ele>
        <time>2026-08-12T13:57:21.000Z</time>
      </trkpt>
      <trkpt lat="45.21081" lon="5.73202">
        <ele>600.40002441406</ele>
        <time>2026-08-12T13:57:22.000Z</time>
      </trkpt>
      <trkpt lat="45.21081" lon="5.73202">
        <ele>600.20001220703</ele>
        <time>2026-08-12T13:57:23.000Z</time>
      </trkpt>
      <trkpt lat="45.2108" lon="5.73201">
        <ele>600.20001220703</ele>
        <time>2026-08-12T13:57:24.000Z</time>
      </trkpt>
      <trkpt lat="45.2108" lon="5.732">
        <ele>600.20001220703</ele>
        <time>2026-08-12T13:57:25.000Z</time>
      </trkpt>
      <trkpt lat="45.21079" lon="5.73199">
        <ele>600.20001220703</ele>
        <time>2026-08-12T13:57:26.000Z</time>
      </trkpt>
      <trkpt lat="45.21079" lon="5.73197">
        <ele>600</ele>
        <time>2026-08-12T13:57:27.000Z</time>
      </trkpt>
      <trkpt lat="45.21078" lon="5.73197">
        <ele>600</ele>
        <time>2026-08-12T13:57:28.000Z</time>
      </trkpt>
      <trkpt lat="45.21078" lon="5.73196">
        <ele>599.79998779297</ele>
        <time>2026-08-12T13:57:29.000Z</time>
      </trkpt>
      <trkpt lat="45.21077" lon="5.73195">
        <ele>600</ele>
        <time>2026-08-12T13:57:30.000Z</time>
      </trkpt>
      <trkpt lat="45.21076" lon="5.73195">
        <ele>600</ele>
        <time>2026-08-12T13:57:31.000Z</time>
      </trkpt>
      <trkpt lat="45.21076" lon="5.73194">
        <ele>600.20001220703</ele>
        <time>2026-08-12T13:57:32.000Z</time>
      </trkpt>
      <trkpt lat="45.21075" lon="5.73193">
        <ele>600.79998779297</ele>
        <time>2026-08-12T13:57:33.000Z</time>
      </trkpt>
      <trkpt lat="45.21074" lon="5.73192">
        <ele>601.20001220703</ele>
        <time>2026-08-12T13:57:34.000Z</time>
      </trkpt>
      <trkpt lat="45.21074" lon="5.73191">
        <ele>601.79998779297</ele>
        <time>2026-08-12T13:57:35.000Z</time>
      </trkpt>
      <trkpt lat="45.21073" lon="5.7319">
        <ele>602.20001220703</ele>
        <time>2026-08-12T13:57:36.000Z</time>
      </trkpt>
      <trkpt lat="45.21072" lon="5.73188">
        <ele>602.79998779297</ele>
        <time>2026-08-12T13:57:37.000Z</time>
      </trkpt>
      <trkpt lat="45.21071" lon="5.73188">
        <ele>603</ele>
        <time>2026-08-12T13:57:38.000Z</time>
      </trkpt>
      <trkpt lat="45.21071" lon="5.73187">
        <ele>603.40002441406</ele>
        <time>2026-08-12T13:57:39.000Z</time>
      </trkpt>
      <trkpt lat="45.2107" lon="5.73186">
        <ele>603.59997558594</ele>
        <time>2026-08-12T13:57:40.000Z</time>
      </trkpt>
      <trkpt lat="45.21069" lon="5.73185">
        <ele>604</ele>
        <time>2026-08-12T13:57:41.000Z</time>
      </trkpt>
      <trkpt lat="45.21069" lon="5.73184">
        <ele>604</ele>
        <time>2026-08-12T13:57:42.000Z</time>
      </trkpt>
      <trkpt lat="45.21068" lon="5.73183">
        <ele>604.40002441406</ele>
        <time>2026-08-12T13:57:43.000Z</time>
      </trkpt>
      <trkpt lat="45.21067" lon="5.73183">
        <ele>605</ele>
        <time>2026-08-12T13:57:44.000Z</time>
      </trkpt>
      <trkpt lat="45.21067" lon="5.73182">
        <ele>605.40002441406</ele>
        <time>2026-08-12T13:57:45.000Z</time>
      </trkpt>
      <trkpt lat="45.21066" lon="5.7318">
        <ele>605.79998779297</ele>
        <time>2026-08-12T13:57:46.000Z</time>
      </trkpt>
      <trkpt lat="45.21065" lon="5.73178">
        <ele>606.40002441406</ele>
        <time>2026-08-12T13:57:47.000Z</time>
      </trkpt>
      <trkpt lat="45.21065" lon="5.73177">
        <ele>607</ele>
        <time>2026-08-12T13:57:48.000Z</time>
      </trkpt>
      <trkpt lat="45.21064" lon="5.73175">
        <ele>607.20001220703</ele>
        <time>2026-08-12T13:57:49.000Z</time>
      </trkpt>
      <trkpt lat="45.21064" lon="5.73174">
        <ele>607.20001220703</ele>
        <time>2026-08-12T13:57:50.000Z</time>
      </trkpt>
      <trkpt lat="45.21064" lon="5.73172">
        <ele>607.40002441406</ele>
        <time>2026-08-12T13:57:51.000Z</time>
      </trkpt>
      <trkpt lat="45.21064" lon="5.73171">
        <ele>607.40002441406</ele>
        <time>2026-08-12T13:57:52.000Z</time>
      </trkpt>
      <trkpt lat="45.21063" lon="5.7317">
        <ele>606.79998779297</ele>
        <time>2026-08-12T13:57:53.000Z</time>
      </trkpt>
      <trkpt lat="45.21063" lon="5.73169">
        <ele>606.20001220703</ele>
        <time>2026-08-12T13:57:54.000Z</time>
      </trkpt>
      <trkpt lat="45.21063" lon="5.73169">
        <ele>605.79998779297</ele>
        <time>2026-08-12T13:57:55.000Z</time>
      </trkpt>
      <trkpt lat="45.21063" lon="5.73168">
        <ele>605.59997558594</ele>
        <time>2026-08-12T13:57:56.000Z</time>
      </trkpt>
      <trkpt lat="45.21062" lon="5.73167">
        <ele>605.20001220703</ele>
        <time>2026-08-12T13:57:57.000Z</time>
      </trkpt>
      <trkpt lat="45.21061" lon="5.73166">
        <ele>604.79998779297</ele>
        <time>2026-08-12T13:57:58.000Z</time>
      </trkpt>
      <trkpt lat="45.2106" lon="5.73166">
        <ele>604.40002441406</ele>
        <time>2026-08-12T13:57:59.000Z</time>
      </trkpt>
      <trkpt lat="45.21059" lon="5.73166">
        <ele>604.20001220703</ele>
        <time>2026-08-12T13:58:00.000Z</time>
      </trkpt>
      <trkpt lat="45.21059" lon="5.73167">
        <ele>603.79998779297</ele>
        <time>2026-08-12T13:58:01.000Z</time>
      </trkpt>
      <trkpt lat="45.21058" lon="5.73166">
        <ele>603.59997558594</ele>
        <time>2026-08-12T13:58:02.000Z</time>
      </trkpt>
      <trkpt lat="45.21057" lon="5.73167">
        <ele>603.79998779297</ele>
        <time>2026-08-12T13:58:03.000Z</time>
      </trkpt>
      <trkpt lat="45.21056" lon="5.73167">
        <ele>604</ele>
        <time>2026-08-12T13:58:04.000Z</time>
      </trkpt>
      <trkpt lat="45.21055" lon="5.73167">
        <ele>604.40002441406</ele>
        <time>2026-08-12T13:58:05.000Z</time>
      </trkpt>
      <trkpt lat="45.21054" lon="5.73167">
        <ele>604.59997558594</ele>
        <time>2026-08-12T13:58:06.000Z</time>
      </trkpt>
      <trkpt lat="45.21052" lon="5.73166">
        <ele>604.79998779297</ele>
        <time>2026-08-12T13:58:07.000Z</time>
      </trkpt>
      <trkpt lat="45.21051" lon="5.73166">
        <ele>605</ele>
        <time>2026-08-12T13:58:08.000Z</time>
      </trkpt>
      <trkpt lat="45.2105" lon="5.73165">
        <ele>605.20001220703</ele>
        <time>2026-08-12T13:58:09.000Z</time>
      </trkpt>
      <trkpt lat="45.21049" lon="5.73164">
        <ele>605</ele>
        <time>2026-08-12T13:58:10.000Z</time>
      </trkpt>
      <trkpt lat="45.21048" lon="5.73164">
        <ele>605</ele>
        <time>2026-08-12T13:58:11.000Z</time>
      </trkpt>
      <trkpt lat="45.21047" lon="5.73163">
        <ele>605</ele>
        <time>2026-08-12T13:58:12.000Z</time>
      </trkpt>
      <trkpt lat="45.21046" lon="5.73162">
        <ele>605</ele>
        <time>2026-08-12T13:58:13.000Z</time>
      </trkpt>
      <trkpt lat="45.21046" lon="5.73162">
        <ele>605</ele>
        <time>2026-08-12T13:58:14.000Z</time>
      </trkpt>
      <trkpt lat="45.21045" lon="5.73161">
        <ele>605</ele>
        <time>2026-08-12T13:58:15.000Z</time>
      </trkpt>
      <trkpt lat="45.21045" lon="5.7316">
        <ele>605.20001220703</ele>
        <time>2026-08-12T13:58:16.000Z</time>
      </trkpt>
      <trkpt lat="45.21044" lon="5.7316">
        <ele>605.40002441406</ele>
        <time>2026-08-12T13:58:17.000Z</time>
      </trkpt>
      <trkpt lat="45.21043" lon="5.73159">
        <ele>605.59997558594</ele>
        <time>2026-08-12T13:58:18.000Z</time>
      </trkpt>
      <trkpt lat="45.21042" lon="5.73158">
        <ele>606</ele>
        <time>2026-08-12T13:58:19.000Z</time>
      </trkpt>
      <trkpt lat="45.21042" lon="5.73157">
        <ele>606.20001220703</ele>
        <time>2026-08-12T13:58:20.000Z</time>
      </trkpt>
      <trkpt lat="45.21041" lon="5.73157">
        <ele>606.40002441406</ele>
        <time>2026-08-12T13:58:21.000Z</time>
      </trkpt>
      <trkpt lat="45.2104" lon="5.73156">
        <ele>606.59997558594</ele>
        <time>2026-08-12T13:58:22.000Z</time>
      </trkpt>
      <trkpt lat="45.2104" lon="5.73155">
        <ele>607.20001220703</ele>
        <time>2026-08-12T13:58:23.000Z</time>
      </trkpt>
      <trkpt lat="45.21039" lon="5.73155">
        <ele>607.59997558594</ele>
        <time>2026-08-12T13:58:24.000Z</time>
      </trkpt>
      <trkpt lat="45.21038" lon="5.73154">
        <ele>608</ele>
        <time>2026-08-12T13:58:25.000Z</time>
      </trkpt>
      <trkpt lat="45.21037" lon="5.73153">
        <ele>608.40002441406</ele>
        <time>2026-08-12T13:58:26.000Z</time>
      </trkpt>
      <trkpt lat="45.21036" lon="5.73153">
        <ele>608.79998779297</ele>
        <time>2026-08-12T13:58:27.000Z</time>
      </trkpt>
      <trkpt lat="45.21035" lon="5.73152">
        <ele>609.20001220703</ele>
        <time>2026-08-12T13:58:28.000Z</time>
      </trkpt>
      <trkpt lat="45.21035" lon="5.73151">
        <ele>609.59997558594</ele>
        <time>2026-08-12T13:58:29.000Z</time>
      </trkpt>
      <trkpt lat="45.21034" lon="5.73151">
        <ele>610</ele>
        <time>2026-08-12T13:58:30.000Z</time>
      </trkpt>
      <trkpt lat="45.21034" lon="5.7315">
        <ele>610.40002441406</ele>
        <time>2026-08-12T13:58:31.000Z</time>
      </trkpt>
      <trkpt lat="45.21033" lon="5.73149">
        <ele>610.40002441406</ele>
        <time>2026-08-12T13:58:32.000Z</time>
      </trkpt>
      <trkpt lat="45.21032" lon="5.73148">
        <ele>610.59997558594</ele>
        <time>2026-08-12T13:58:33.000Z</time>
      </trkpt>
      <trkpt lat="45.21031" lon="5.73147">
        <ele>610.79998779297</ele>
        <time>2026-08-12T13:58:34.000Z</time>
      </trkpt>
      <trkpt lat="45.21031" lon="5.73146">
        <ele>611.20001220703</ele>
        <time>2026-08-12T13:58:35.000Z</time>
      </trkpt>
      <trkpt lat="45.2103" lon="5.73145">
        <ele>612</ele>
        <time>2026-08-12T13:58:36.000Z</time>
      </trkpt>
      <trkpt lat="45.21029" lon="5.73144">
        <ele>612.40002441406</ele>
        <time>2026-08-12T13:58:37.000Z</time>
      </trkpt>
      <trkpt lat="45.21028" lon="5.73143">
        <ele>613</ele>
        <time>2026-08-12T13:58:38.000Z</time>
      </trkpt>
      <trkpt lat="45.21028" lon="5.73141">
        <ele>613.59997558594</ele>
        <time>2026-08-12T13:58:39.000Z</time>
      </trkpt>
      <trkpt lat="45.21027" lon="5.7314">
        <ele>614.40002441406</ele>
        <time>2026-08-12T13:58:40.000Z</time>
      </trkpt>
      <trkpt lat="45.21027" lon="5.73139">
        <ele>615</ele>
        <time>2026-08-12T13:58:41.000Z</time>
      </trkpt>
      <trkpt lat="45.21027" lon="5.73137">
        <ele>615.59997558594</ele>
        <time>2026-08-12T13:58:42.000Z</time>
      </trkpt>
      <trkpt lat="45.21027" lon="5.73136">
        <ele>616.20001220703</ele>
        <time>2026-08-12T13:58:43.000Z</time>
      </trkpt>
      <trkpt lat="45.21027" lon="5.73135">
        <ele>616</ele>
        <time>2026-08-12T13:58:44.000Z</time>
      </trkpt>
      <trkpt lat="45.21026" lon="5.73134">
        <ele>615.79998779297</ele>
        <time>2026-08-12T13:58:45.000Z</time>
      </trkpt>
      <trkpt lat="45.21026" lon="5.73133">
        <ele>615.59997558594</ele>
        <time>2026-08-12T13:58:46.000Z</time>
      </trkpt>
      <trkpt lat="45.21025" lon="5.73132">
        <ele>615.20001220703</ele>
        <time>2026-08-12T13:58:47.000Z</time>
      </trkpt>
      <trkpt lat="45.21024" lon="5.7313">
        <ele>615</ele>
        <time>2026-08-12T13:58:48.000Z</time>
      </trkpt>
      <trkpt lat="45.21024" lon="5.73129">
        <ele>614.79998779297</ele>
        <time>2026-08-12T13:58:49.000Z</time>
      </trkpt>
      <trkpt lat="45.21023" lon="5.7313">
        <ele>613.79998779297</ele>
        <time>2026-08-12T13:58:50.000Z</time>
      </trkpt>
      <trkpt lat="45.21022" lon="5.7313">
        <ele>613.79998779297</ele>
        <time>2026-08-12T13:58:51.000Z</time>
      </trkpt>
      <trkpt lat="45.21022" lon="5.7313">
        <ele>614</ele>
        <time>2026-08-12T13:58:52.000Z</time>
      </trkpt>
      <trkpt lat="45.21021" lon="5.73131">
        <ele>614</ele>
        <time>2026-08-12T13:58:53.000Z</time>
      </trkpt>
      <trkpt lat="45.2102" lon="5.73131">
        <ele>613.20001220703</ele>
        <time>2026-08-12T13:58:54.000Z</time>
      </trkpt>
      <trkpt lat="45.21019" lon="5.7313">
        <ele>613</ele>
        <time>2026-08-12T13:58:55.000Z</time>
      </trkpt>
      <trkpt lat="45.21018" lon="5.73129">
        <ele>613.20001220703</ele>
        <time>2026-08-12T13:58:56.000Z</time>
      </trkpt>
      <trkpt lat="45.21018" lon="5.73128">
        <ele>614</ele>
        <time>2026-08-12T13:58:57.000Z</time>
      </trkpt>
      <trkpt lat="45.21017" lon="5.73127">
        <ele>614.20001220703</ele>
        <time>2026-08-12T13:58:58.000Z</time>
      </trkpt>
      <trkpt lat="45.21016" lon="5.73126">
        <ele>614.79998779297</ele>
        <time>2026-08-12T13:58:59.000Z</time>
      </trkpt>
      <trkpt lat="45.21015" lon="5.73126">
        <ele>615.40002441406</ele>
        <time>2026-08-12T13:59:00.000Z</time>
      </trkpt>
      <trkpt lat="45.21015" lon="5.73126">
        <ele>616.20001220703</ele>
        <time>2026-08-12T13:59:01.000Z</time>
      </trkpt>
      <trkpt lat="45.21014" lon="5.73127">
        <ele>616.79998779297</ele>
        <time>2026-08-12T13:59:02.000Z</time>
      </trkpt>
      <trkpt lat="45.21014" lon="5.73128">
        <ele>617.40002441406</ele>
        <time>2026-08-12T13:59:03.000Z</time>
      </trkpt>
      <trkpt lat="45.21014" lon="5.73129">
        <ele>617.20001220703</ele>
        <time>2026-08-12T13:59:04.000Z</time>
      </trkpt>
      <trkpt lat="45.21014" lon="5.7313">
        <ele>616.79998779297</ele>
        <time>2026-08-12T13:59:05.000Z</time>
      </trkpt>
      <trkpt lat="45.21013" lon="5.73131">
        <ele>617</ele>
        <time>2026-08-12T13:59:06.000Z</time>
      </trkpt>
      <trkpt lat="45.21012" lon="5.73132">
        <ele>617</ele>
        <time>2026-08-12T13:59:07.000Z</time>
      </trkpt>
      <trkpt lat="45.21011" lon="5.73133">
        <ele>617.20001220703</ele>
        <time>2026-08-12T13:59:08.000Z</time>
      </trkpt>
      <trkpt lat="45.2101" lon="5.73134">
        <ele>617.40002441406</ele>
        <time>2026-08-12T13:59:09.000Z</time>
      </trkpt>
      <trkpt lat="45.21009" lon="5.73134">
        <ele>618.20001220703</ele>
        <time>2026-08-12T13:59:10.000Z</time>
      </trkpt>
      <trkpt lat="45.21007" lon="5.73134">
        <ele>618.79998779297</ele>
        <time>2026-08-12T13:59:11.000Z</time>
      </trkpt>
      <trkpt lat="45.21006" lon="5.73135">
        <ele>619.59997558594</ele>
        <time>2026-08-12T13:59:12.000Z</time>
      </trkpt>
      <trkpt lat="45.21005" lon="5.73135">
        <ele>620.20001220703</ele>
        <time>2026-08-12T13:59:13.000Z</time>
      </trkpt>
      <trkpt lat="45.21004" lon="5.73135">
        <ele>620.79998779297</ele>
        <time>2026-08-12T13:59:14.000Z</time>
      </trkpt>
      <trkpt lat="45.21003" lon="5.73135">
        <ele>621.40002441406</ele>
        <time>2026-08-12T13:59:15.000Z</time>
      </trkpt>
      <trkpt lat="45.21002" lon="5.73136">
        <ele>622.20001220703</ele>
        <time>2026-08-12T13:59:16.000Z</time>
      </trkpt>
      <trkpt lat="45.21001" lon="5.73136">
        <ele>622.79998779297</ele>
        <time>2026-08-12T13:59:17.000Z</time>
      </trkpt>
      <trkpt lat="45.21001" lon="5.73136">
        <ele>623.40002441406</ele>
        <time>2026-08-12T13:59:18.000Z</time>
      </trkpt>
      <trkpt lat="45.21" lon="5.73137">
        <ele>624</ele>
        <time>2026-08-12T13:59:19.000Z</time>
      </trkpt>
      <trkpt lat="45.20999" lon="5.73137">
        <ele>624</ele>
        <time>2026-08-12T13:59:20.000Z</time>
      </trkpt>
      <trkpt lat="45.20998" lon="5.73138">
        <ele>624.20001220703</ele>
        <time>2026-08-12T13:59:21.000Z</time>
      </trkpt>
      <trkpt lat="45.20997" lon="5.73138">
        <ele>624.20001220703</ele>
        <time>2026-08-12T13:59:22.000Z</time>
      </trkpt>
      <trkpt lat="45.20997" lon="5.73138">
        <ele>624.40002441406</ele>
        <time>2026-08-12T13:59:23.000Z</time>
      </trkpt>
      <trkpt lat="45.20996" lon="5.73139">
        <ele>624.40002441406</ele>
        <time>2026-08-12T13:59:24.000Z</time>
      </trkpt>
      <trkpt lat="45.20995" lon="5.73139">
        <ele>624.40002441406</ele>
        <time>2026-08-12T13:59:25.000Z</time>
      </trkpt>
      <trkpt lat="45.20995" lon="5.7314">
        <ele>624.40002441406</ele>
        <time>2026-08-12T13:59:26.000Z</time>
      </trkpt>
      <trkpt lat="45.20994" lon="5.7314">
        <ele>624.20001220703</ele>
        <time>2026-08-12T13:59:27.000Z</time>
      </trkpt>
      <trkpt lat="45.20993" lon="5.73141">
        <ele>624.20001220703</ele>
        <time>2026-08-12T13:59:28.000Z</time>
      </trkpt>
      <trkpt lat="45.20992" lon="5.73143">
        <ele>623.79998779297</ele>
        <time>2026-08-12T13:59:29.000Z</time>
      </trkpt>
      <trkpt lat="45.20991" lon="5.73143">
        <ele>624</ele>
        <time>2026-08-12T13:59:30.000Z</time>
      </trkpt>
      <trkpt lat="45.20989" lon="5.73144">
        <ele>624.20001220703</ele>
        <time>2026-08-12T13:59:31.000Z</time>
      </trkpt>
      <trkpt lat="45.20987" lon="5.73145">
        <ele>624.20001220703</ele>
        <time>2026-08-12T13:59:32.000Z</time>
      </trkpt>
      <trkpt lat="45.20986" lon="5.73144">
        <ele>624.40002441406</ele>
        <time>2026-08-12T13:59:33.000Z</time>
      </trkpt>
      <trkpt lat="45.20986" lon="5.73142">
        <ele>625.59997558594</ele>
        <time>2026-08-12T13:59:34.000Z</time>
      </trkpt>
      <trkpt lat="45.20986" lon="5.7314">
        <ele>625.59997558594</ele>
        <time>2026-08-12T13:59:35.000Z</time>
      </trkpt>
      <trkpt lat="45.20987" lon="5.73139">
        <ele>625.59997558594</ele>
        <time>2026-08-12T13:59:36.000Z</time>
      </trkpt>
      <trkpt lat="45.20988" lon="5.73139">
        <ele>625.40002441406</ele>
        <time>2026-08-12T13:59:37.000Z</time>
      </trkpt>
      <trkpt lat="45.20988" lon="5.73138">
        <ele>625.40002441406</ele>
        <time>2026-08-12T13:59:38.000Z</time>
      </trkpt>
      <trkpt lat="45.20989" lon="5.73137">
        <ele>624.40002441406</ele>
        <time>2026-08-12T13:59:39.000Z</time>
      </trkpt>
      <trkpt lat="45.20989" lon="5.73137">
        <ele>623.40002441406</ele>
        <time>2026-08-12T13:59:40.000Z</time>
      </trkpt>
      <trkpt lat="45.20989" lon="5.73136">
        <ele>623.20001220703</ele>
        <time>2026-08-12T13:59:41.000Z</time>
      </trkpt>
      <trkpt lat="45.2099" lon="5.73135">
        <ele>623</ele>
        <time>2026-08-12T13:59:42.000Z</time>
      </trkpt>
      <trkpt lat="45.2099" lon="5.73134">
        <ele>622.40002441406</ele>
        <time>2026-08-12T13:59:43.000Z</time>
      </trkpt>
      <trkpt lat="45.2099" lon="5.73134">
        <ele>622.40002441406</ele>
        <time>2026-08-12T13:59:44.000Z</time>
      </trkpt>
      <trkpt lat="45.20992" lon="5.73133">
        <ele>622.40002441406</ele>
        <time>2026-08-12T13:59:45.000Z</time>
      </trkpt>
      <trkpt lat="45.20993" lon="5.73131">
        <ele>622.40002441406</ele>
        <time>2026-08-12T13:59:46.000Z</time>
      </trkpt>
      <trkpt lat="45.20994" lon="5.7313">
        <ele>622.40002441406</ele>
        <time>2026-08-12T13:59:47.000Z</time>
      </trkpt>
      <trkpt lat="45.20994" lon="5.73129">
        <ele>622.40002441406</ele>
        <time>2026-08-12T13:59:48.000Z</time>
      </trkpt>
      <trkpt lat="45.20995" lon="5.73129">
        <ele>622.20001220703</ele>
        <time>2026-08-12T13:59:49.000Z</time>
      </trkpt>
      <trkpt lat="45.20996" lon="5.73128">
        <ele>622.20001220703</ele>
        <time>2026-08-12T13:59:50.000Z</time>
      </trkpt>
      <trkpt lat="45.20996" lon="5.73127">
        <ele>622</ele>
        <time>2026-08-12T13:59:51.000Z</time>
      </trkpt>
      <trkpt lat="45.20997" lon="5.73126">
        <ele>622</ele>
        <time>2026-08-12T13:59:52.000Z</time>
      </trkpt>
      <trkpt lat="45.20998" lon="5.73126">
        <ele>622.40002441406</ele>
        <time>2026-08-12T13:59:53.000Z</time>
      </trkpt>
      <trkpt lat="45.20999" lon="5.73125">
        <ele>622.59997558594</ele>
        <time>2026-08-12T13:59:54.000Z</time>
      </trkpt>
      <trkpt lat="45.21" lon="5.73124">
        <ele>622.79998779297</ele>
        <time>2026-08-12T13:59:55.000Z</time>
      </trkpt>
      <trkpt lat="45.21001" lon="5.73123">
        <ele>622.79998779297</ele>
        <time>2026-08-12T13:59:56.000Z</time>
      </trkpt>
      <trkpt lat="45.21002" lon="5.73123">
        <ele>623.20001220703</ele>
        <time>2026-08-12T13:59:57.000Z</time>
      </trkpt>
      <trkpt lat="45.21003" lon="5.73122">
        <ele>623.79998779297</ele>
        <time>2026-08-12T13:59:58.000Z</time>
      </trkpt>
      <trkpt lat="45.21004" lon="5.73121">
        <ele>624.20001220703</ele>
        <time>2026-08-12T13:59:59.000Z</time>
      </trkpt>
      <trkpt lat="45.21005" lon="5.7312">
        <ele>624.40002441406</ele>
        <time>2026-08-12T14:00:00.000Z</time>
      </trkpt>
      <trkpt lat="45.21006" lon="5.73119">
        <ele>624.40002441406</ele>
        <time>2026-08-12T14:00:01.000Z</time>
      </trkpt>
      <trkpt lat="45.21006" lon="5.73118">
        <ele>625</ele>
        <time>2026-08-12T14:00:02.000Z</time>
      </trkpt>
      <trkpt lat="45.21006" lon="5.73116">
        <ele>625.79998779297</ele>
        <time>2026-08-12T14:00:03.000Z</time>
      </trkpt>
      <trkpt lat="45.21006" lon="5.73115">
        <ele>626.40002441406</ele>
        <time>2026-08-12T14:00:04.000Z</time>
      </trkpt>
      <trkpt lat="45.21006" lon="5.73114">
        <ele>626.59997558594</ele>
        <time>2026-08-12T14:00:05.000Z</time>
      </trkpt>
      <trkpt lat="45.21006" lon="5.73113">
        <ele>627</ele>
        <time>2026-08-12T14:00:06.000Z</time>
      </trkpt>
      <trkpt lat="45.21006" lon="5.73111">
        <ele>627</ele>
        <time>2026-08-12T14:00:07.000Z</time>
      </trkpt>
      <trkpt lat="45.21007" lon="5.7311">
        <ele>627.20001220703</ele>
        <time>2026-08-12T14:00:08.000Z</time>
      </trkpt>
      <trkpt lat="45.21008" lon="5.73109">
        <ele>627.59997558594</ele>
        <time>2026-08-12T14:00:09.000Z</time>
      </trkpt>
      <trkpt lat="45.21009" lon="5.73108">
        <ele>628</ele>
        <time>2026-08-12T14:00:10.000Z</time>
      </trkpt>
      <trkpt lat="45.21009" lon="5.73108">
        <ele>628.40002441406</ele>
        <time>2026-08-12T14:00:11.000Z</time>
      </trkpt>
      <trkpt lat="45.21009" lon="5.73107">
        <ele>628.59997558594</ele>
        <time>2026-08-12T14:00:12.000Z</time>
      </trkpt>
      <trkpt lat="45.2101" lon="5.73106">
        <ele>628.79998779297</ele>
        <time>2026-08-12T14:00:13.000Z</time>
      </trkpt>
      <trkpt lat="45.21011" lon="5.73105">
        <ele>628.79998779297</ele>
        <time>2026-08-12T14:00:14.000Z</time>
      </trkpt>
      <trkpt lat="45.21012" lon="5.73104">
        <ele>628.79998779297</ele>
        <time>2026-08-12T14:00:15.000Z</time>
      </trkpt>
      <trkpt lat="45.21012" lon="5.73103">
        <ele>628.59997558594</ele>
        <time>2026-08-12T14:00:16.000Z</time>
      </trkpt>
      <trkpt lat="45.21013" lon="5.73102">
        <ele>628.79998779297</ele>
        <time>2026-08-12T14:00:17.000Z</time>
      </trkpt>
      <trkpt lat="45.21014" lon="5.73101">
        <ele>628.79998779297</ele>
        <time>2026-08-12T14:00:18.000Z</time>
      </trkpt>
      <trkpt lat="45.21015" lon="5.731">
        <ele>629.59997558594</ele>
        <time>2026-08-12T14:00:19.000Z</time>
      </trkpt>
      <trkpt lat="45.21016" lon="5.73099">
        <ele>630.40002441406</ele>
        <time>2026-08-12T14:00:20.000Z</time>
      </trkpt>
      <trkpt lat="45.21017" lon="5.73099">
        <ele>631</ele>
        <time>2026-08-12T14:00:21.000Z</time>
      </trkpt>
      <trkpt lat="45.21018" lon="5.73098">
        <ele>631.40002441406</ele>
        <time>2026-08-12T14:00:22.000Z</time>
      </trkpt>
      <trkpt lat="45.21019" lon="5.73098">
        <ele>632</ele>
        <time>2026-08-12T14:00:23.000Z</time>
      </trkpt>
      <trkpt lat="45.2102" lon="5.73097">
        <ele>632.59997558594</ele>
        <time>2026-08-12T14:00:24.000Z</time>
      </trkpt>
      <trkpt lat="45.21021" lon="5.73097">
        <ele>633.20001220703</ele>
        <time>2026-08-12T14:00:25.000Z</time>
      </trkpt>
      <trkpt lat="45.21023" lon="5.73097">
        <ele>633.79998779297</ele>
        <time>2026-08-12T14:00:26.000Z</time>
      </trkpt>
      <trkpt lat="45.21024" lon="5.73098">
        <ele>634.40002441406</ele>
        <time>2026-08-12T14:00:27.000Z</time>
      </trkpt>
      <trkpt lat="45.21025" lon="5.73099">
        <ele>634.59997558594</ele>
        <time>2026-08-12T14:00:28.000Z</time>
      </trkpt>
      <trkpt lat="45.21027" lon="5.73101">
        <ele>635</ele>
        <time>2026-08-12T14:00:29.000Z</time>
      </trkpt>
      <trkpt lat="45.21028" lon="5.73102">
        <ele>635.40002441406</ele>
        <time>2026-08-12T14:00:30.000Z</time>
      </trkpt>
      <trkpt lat="45.21029" lon="5.73103">
        <ele>635.40002441406</ele>
        <time>2026-08-12T14:00:31.000Z</time>
      </trkpt>
      <trkpt lat="45.2103" lon="5.73104">
        <ele>635.20001220703</ele>
        <time>2026-08-12T14:00:32.000Z</time>
      </trkpt>
      <trkpt lat="45.21031" lon="5.73105">
        <ele>635.20001220703</ele>
        <time>2026-08-12T14:00:33.000Z</time>
      </trkpt>
      <trkpt lat="45.21031" lon="5.73105">
        <ele>635</ele>
        <time>2026-08-12T14:00:34.000Z</time>
      </trkpt>
      <trkpt lat="45.21032" lon="5.73106">
        <ele>633</ele>
        <time>2026-08-12T14:00:35.000Z</time>
      </trkpt>
      <trkpt lat="45.21033" lon="5.73106">
        <ele>632.40002441406</ele>
        <time>2026-08-12T14:00:36.000Z</time>
      </trkpt>
      <trkpt lat="45.21034" lon="5.73107">
        <ele>632.40002441406</ele>
        <time>2026-08-12T14:00:37.000Z</time>
      </trkpt>
      <trkpt lat="45.21035" lon="5.73107">
        <ele>632.40002441406</ele>
        <time>2026-08-12T14:00:38.000Z</time>
      </trkpt>
      <trkpt lat="45.21035" lon="5.73107">
        <ele>632</ele>
        <time>2026-08-12T14:00:39.000Z</time>
      </trkpt>
      <trkpt lat="45.21037" lon="5.73108">
        <ele>632</ele>
        <time>2026-08-12T14:00:40.000Z</time>
      </trkpt>
      <trkpt lat="45.21038" lon="5.73108">
        <ele>632</ele>
        <time>2026-08-12T14:00:41.000Z</time>
      </trkpt>
      <trkpt lat="45.21039" lon="5.73109">
        <ele>632.20001220703</ele>
        <time>2026-08-12T14:00:42.000Z</time>
      </trkpt>
      <trkpt lat="45.2104" lon="5.73109">
        <ele>632.40002441406</ele>
        <time>2026-08-12T14:00:43.000Z</time>
      </trkpt>
      <trkpt lat="45.21042" lon="5.73109">
        <ele>633</ele>
        <time>2026-08-12T14:00:44.000Z</time>
      </trkpt>
      <trkpt lat="45.21043" lon="5.73109">
        <ele>633.20001220703</ele>
        <time>2026-08-12T14:00:45.000Z</time>
      </trkpt>
      <trkpt lat="45.21043" lon="5.7311">
        <ele>633.79998779297</ele>
        <time>2026-08-12T14:00:46.000Z</time>
      </trkpt>
      <trkpt lat="45.21044" lon="5.7311">
        <ele>634.40002441406</ele>
        <time>2026-08-12T14:00:47.000Z</time>
      </trkpt>
      <trkpt lat="45.21045" lon="5.73111">
        <ele>634.79998779297</ele>
        <time>2026-08-12T14:00:48.000Z</time>
      </trkpt>
      <trkpt lat="45.21046" lon="5.73111">
        <ele>635.59997558594</ele>
        <time>2026-08-12T14:00:49.000Z</time>
      </trkpt>
      <trkpt lat="45.21047" lon="5.73112">
        <ele>636.20001220703</ele>
        <time>2026-08-12T14:00:50.000Z</time>
      </trkpt>
      <trkpt lat="45.21048" lon="5.73112">
        <ele>637</ele>
        <time>2026-08-12T14:00:51.000Z</time>
      </trkpt>
      <trkpt lat="45.21048" lon="5.73113">
        <ele>638.20001220703</ele>
        <time>2026-08-12T14:00:52.000Z</time>
      </trkpt>
      <trkpt lat="45.21049" lon="5.73113">
        <ele>638.79998779297</ele>
        <time>2026-08-12T14:00:53.000Z</time>
      </trkpt>
      <trkpt lat="45.21051" lon="5.73114">
        <ele>639.20001220703</ele>
        <time>2026-08-12T14:00:54.000Z</time>
      </trkpt>
      <trkpt lat="45.21052" lon="5.73114">
        <ele>639.59997558594</ele>
        <time>2026-08-12T14:00:55.000Z</time>
      </trkpt>
      <trkpt lat="45.21053" lon="5.73115">
        <ele>639.79998779297</ele>
        <time>2026-08-12T14:00:56.000Z</time>
      </trkpt>
      <trkpt lat="45.21054" lon="5.73116">
        <ele>640.20001220703</ele>
        <time>2026-08-12T14:00:57.000Z</time>
      </trkpt>
      <trkpt lat="45.21055" lon="5.73117">
        <ele>640.59997558594</ele>
        <time>2026-08-12T14:00:58.000Z</time>
      </trkpt>
      <trkpt lat="45.21056" lon="5.73117">
        <ele>640.59997558594</ele>
        <time>2026-08-12T14:00:59.000Z</time>
      </trkpt>
      <trkpt lat="45.21057" lon="5.73118">
        <ele>640.40002441406</ele>
        <time>2026-08-12T14:01:00.000Z</time>
      </trkpt>
      <trkpt lat="45.21059" lon="5.73118">
        <ele>639.79998779297</ele>
        <time>2026-08-12T14:01:01.000Z</time>
      </trkpt>
      <trkpt lat="45.2106" lon="5.73118">
        <ele>639.40002441406</ele>
        <time>2026-08-12T14:01:02.000Z</time>
      </trkpt>
      <trkpt lat="45.2106" lon="5.73118">
        <ele>638.79998779297</ele>
        <time>2026-08-12T14:01:03.000Z</time>
      </trkpt>
      <trkpt lat="45.21061" lon="5.73118">
        <ele>638.79998779297</ele>
        <time>2026-08-12T14:01:04.000Z</time>
      </trkpt>
      <trkpt lat="45.21062" lon="5.73118">
        <ele>638.79998779297</ele>
        <time>2026-08-12T14:01:05.000Z</time>
      </trkpt>
      <trkpt lat="45.21063" lon="5.73117">
        <ele>638.79998779297</ele>
        <time>2026-08-12T14:01:06.000Z</time>
      </trkpt>
      <trkpt lat="45.21064" lon="5.73117">
        <ele>638.79998779297</ele>
        <time>2026-08-12T14:01:07.000Z</time>
      </trkpt>
      <trkpt lat="45.21065" lon="5.73117">
        <ele>638.79998779297</ele>
        <time>2026-08-12T14:01:08.000Z</time>
      </trkpt>
      <trkpt lat="45.21066" lon="5.73117">
        <ele>638.79998779297</ele>
        <time>2026-08-12T14:01:09.000Z</time>
      </trkpt>
      <trkpt lat="45.21066" lon="5.73116">
        <ele>639</ele>
        <time>2026-08-12T14:01:10.000Z</time>
      </trkpt>
      <trkpt lat="45.21068" lon="5.73116">
        <ele>639.40002441406</ele>
        <time>2026-08-12T14:01:11.000Z</time>
      </trkpt>
      <trkpt lat="45.21068" lon="5.73115">
        <ele>639.79998779297</ele>
        <time>2026-08-12T14:01:12.000Z</time>
      </trkpt>
      <trkpt lat="45.21069" lon="5.73115">
        <ele>640.20001220703</ele>
        <time>2026-08-12T14:01:13.000Z</time>
      </trkpt>
      <trkpt lat="45.2107" lon="5.73114">
        <ele>640.40002441406</ele>
        <time>2026-08-12T14:01:14.000Z</time>
      </trkpt>
      <trkpt lat="45.21071" lon="5.73114">
        <ele>640.59997558594</ele>
        <time>2026-08-12T14:01:15.000Z</time>
      </trkpt>
      <trkpt lat="45.21072" lon="5.73113">
        <ele>641</ele>
        <time>2026-08-12T14:01:16.000Z</time>
      </trkpt>
      <trkpt lat="45.21073" lon="5.73112">
        <ele>641.40002441406</ele>
        <time>2026-08-12T14:01:17.000Z</time>
      </trkpt>
      <trkpt lat="45.21074" lon="5.73111">
        <ele>641.79998779297</ele>
        <time>2026-08-12T14:01:18.000Z</time>
      </trkpt>
      <trkpt lat="45.21075" lon="5.7311">
        <ele>642</ele>
        <time>2026-08-12T14:01:19.000Z</time>
      </trkpt>
      <trkpt lat="45.21077" lon="5.73111">
        <ele>642.59997558594</ele>
        <time>2026-08-12T14:01:20.000Z</time>
      </trkpt>
      <trkpt lat="45.21077" lon="5.73111">
        <ele>643</ele>
        <time>2026-08-12T14:01:21.000Z</time>
      </trkpt>
      <trkpt lat="45.21078" lon="5.73111">
        <ele>643.59997558594</ele>
        <time>2026-08-12T14:01:22.000Z</time>
      </trkpt>
      <trkpt lat="45.21079" lon="5.73112">
        <ele>644</ele>
        <time>2026-08-12T14:01:23.000Z</time>
      </trkpt>
      <trkpt lat="45.2108" lon="5.73114">
        <ele>644.59997558594</ele>
        <time>2026-08-12T14:01:24.000Z</time>
      </trkpt>
      <trkpt lat="45.21081" lon="5.73116">
        <ele>644.40002441406</ele>
        <time>2026-08-12T14:01:25.000Z</time>
      </trkpt>
      <trkpt lat="45.21082" lon="5.73118">
        <ele>644.20001220703</ele>
        <time>2026-08-12T14:01:26.000Z</time>
      </trkpt>
      <trkpt lat="45.21083" lon="5.7312">
        <ele>643.79998779297</ele>
        <time>2026-08-12T14:01:27.000Z</time>
      </trkpt>
      <trkpt lat="45.21083" lon="5.73121">
        <ele>643.40002441406</ele>
        <time>2026-08-12T14:01:28.000Z</time>
      </trkpt>
      <trkpt lat="45.21084" lon="5.73122">
        <ele>643</ele>
        <time>2026-08-12T14:01:29.000Z</time>
      </trkpt>
      <trkpt lat="45.21085" lon="5.73123">
        <ele>642.79998779297</ele>
        <time>2026-08-12T14:01:30.000Z</time>
      </trkpt>
      <trkpt lat="45.21085" lon="5.73124">
        <ele>642.59997558594</ele>
        <time>2026-08-12T14:01:31.000Z</time>
      </trkpt>
      <trkpt lat="45.21086" lon="5.73124">
        <ele>642.20001220703</ele>
        <time>2026-08-12T14:01:32.000Z</time>
      </trkpt>
      <trkpt lat="45.21086" lon="5.73125">
        <ele>642</ele>
        <time>2026-08-12T14:01:33.000Z</time>
      </trkpt>
      <trkpt lat="45.21087" lon="5.73125">
        <ele>641.59997558594</ele>
        <time>2026-08-12T14:01:34.000Z</time>
      </trkpt>
      <trkpt lat="45.21088" lon="5.73126">
        <ele>641.79998779297</ele>
        <time>2026-08-12T14:01:35.000Z</time>
      </trkpt>
      <trkpt lat="45.21089" lon="5.73127">
        <ele>642</ele>
        <time>2026-08-12T14:01:36.000Z</time>
      </trkpt>
      <trkpt lat="45.2109" lon="5.73128">
        <ele>642.40002441406</ele>
        <time>2026-08-12T14:01:37.000Z</time>
      </trkpt>
      <trkpt lat="45.21091" lon="5.73129">
        <ele>642.40002441406</ele>
        <time>2026-08-12T14:01:38.000Z</time>
      </trkpt>
      <trkpt lat="45.21092" lon="5.7313">
        <ele>642.59997558594</ele>
        <time>2026-08-12T14:01:39.000Z</time>
      </trkpt>
      <trkpt lat="45.21092" lon="5.73131">
        <ele>642.59997558594</ele>
        <time>2026-08-12T14:01:40.000Z</time>
      </trkpt>
      <trkpt lat="45.21093" lon="5.73132">
        <ele>642.59997558594</ele>
        <time>2026-08-12T14:01:41.000Z</time>
      </trkpt>
      <trkpt lat="45.21094" lon="5.73133">
        <ele>642</ele>
        <time>2026-08-12T14:01:42.000Z</time>
      </trkpt>
      <trkpt lat="45.21095" lon="5.73134">
        <ele>641</ele>
        <time>2026-08-12T14:01:43.000Z</time>
      </trkpt>
      <trkpt lat="45.21096" lon="5.73136">
        <ele>640.79998779297</ele>
        <time>2026-08-12T14:01:44.000Z</time>
      </trkpt>
      <trkpt lat="45.21097" lon="5.73136">
        <ele>640.59997558594</ele>
        <time>2026-08-12T14:01:45.000Z</time>
      </trkpt>
      <trkpt lat="45.21098" lon="5.73137">
        <ele>640.20001220703</ele>
        <time>2026-08-12T14:01:46.000Z</time>
      </trkpt>
      <trkpt lat="45.21099" lon="5.73138">
        <ele>640</ele>
        <time>2026-08-12T14:01:47.000Z</time>
      </trkpt>
      <trkpt lat="45.21099" lon="5.73139">
        <ele>640.40002441406</ele>
        <time>2026-08-12T14:01:48.000Z</time>
      </trkpt>
      <trkpt lat="45.211" lon="5.7314">
        <ele>640.79998779297</ele>
        <time>2026-08-12T14:01:49.000Z</time>
      </trkpt>
      <trkpt lat="45.21101" lon="5.73141">
        <ele>641</ele>
        <time>2026-08-12T14:01:50.000Z</time>
      </trkpt>
      <trkpt lat="45.21102" lon="5.73142">
        <ele>641</ele>
        <time>2026-08-12T14:01:51.000Z</time>
      </trkpt>
      <trkpt lat="45.21102" lon="5.73142">
        <ele>641.40002441406</ele>
        <time>2026-08-12T14:01:52.000Z</time>
      </trkpt>
      <trkpt lat="45.21103" lon="5.73143">
        <ele>642</ele>
        <time>2026-08-12T14:01:53.000Z</time>
      </trkpt>
      <trkpt lat="45.21104" lon="5.73143">
        <ele>642.79998779297</ele>
        <time>2026-08-12T14:01:54.000Z</time>
      </trkpt>
      <trkpt lat="45.21104" lon="5.73144">
        <ele>643.20001220703</ele>
        <time>2026-08-12T14:01:55.000Z</time>
      </trkpt>
      <trkpt lat="45.21105" lon="5.73145">
        <ele>643.79998779297</ele>
        <time>2026-08-12T14:01:56.000Z</time>
      </trkpt>
      <trkpt lat="45.21105" lon="5.73146">
        <ele>644.40002441406</ele>
        <time>2026-08-12T14:01:57.000Z</time>
      </trkpt>
      <trkpt lat="45.21106" lon="5.73146">
        <ele>644.79998779297</ele>
        <time>2026-08-12T14:01:58.000Z</time>
      </trkpt>
      <trkpt lat="45.21107" lon="5.73147">
        <ele>645.79998779297</ele>
        <time>2026-08-12T14:01:59.000Z</time>
      </trkpt>
      <trkpt lat="45.21108" lon="5.73148">
        <ele>646.40002441406</ele>
        <time>2026-08-12T14:02:00.000Z</time>
      </trkpt>
      <trkpt lat="45.21109" lon="5.73149">
        <ele>646.79998779297</ele>
        <time>2026-08-12T14:02:01.000Z</time>
      </trkpt>
      <trkpt lat="45.2111" lon="5.7315">
        <ele>647.40002441406</ele>
        <time>2026-08-12T14:02:02.000Z</time>
      </trkpt>
      <trkpt lat="45.2111" lon="5.73149">
        <ele>648</ele>
        <time>2026-08-12T14:02:03.000Z</time>
      </trkpt>
      <trkpt lat="45.21111" lon="5.73149">
        <ele>648.59997558594</ele>
        <time>2026-08-12T14:02:04.000Z</time>
      </trkpt>
      <trkpt lat="45.21111" lon="5.73149">
        <ele>649.20001220703</ele>
        <time>2026-08-12T14:02:05.000Z</time>
      </trkpt>
      <trkpt lat="45.21112" lon="5.73148">
        <ele>650.20001220703</ele>
        <time>2026-08-12T14:02:06.000Z</time>
      </trkpt>
      <trkpt lat="45.21113" lon="5.73148">
        <ele>651</ele>
        <time>2026-08-12T14:02:07.000Z</time>
      </trkpt>
      <trkpt lat="45.21114" lon="5.73147">
        <ele>651</ele>
        <time>2026-08-12T14:02:08.000Z</time>
      </trkpt>
      <trkpt lat="45.21114" lon="5.73147">
        <ele>650.79998779297</ele>
        <time>2026-08-12T14:02:09.000Z</time>
      </trkpt>
      <trkpt lat="45.21115" lon="5.73147">
        <ele>650.79998779297</ele>
        <time>2026-08-12T14:02:10.000Z</time>
      </trkpt>
      <trkpt lat="45.21115" lon="5.73146">
        <ele>650.59997558594</ele>
        <time>2026-08-12T14:02:11.000Z</time>
      </trkpt>
      <trkpt lat="45.21116" lon="5.73146">
        <ele>650.40002441406</ele>
        <time>2026-08-12T14:02:12.000Z</time>
      </trkpt>
      <trkpt lat="45.21116" lon="5.73145">
        <ele>650.20001220703</ele>
        <time>2026-08-12T14:02:13.000Z</time>
      </trkpt>
      <trkpt lat="45.21117" lon="5.73145">
        <ele>650.20001220703</ele>
        <time>2026-08-12T14:02:14.000Z</time>
      </trkpt>
      <trkpt lat="45.21118" lon="5.73144">
        <ele>650</ele>
        <time>2026-08-12T14:02:15.000Z</time>
      </trkpt>
      <trkpt lat="45.21119" lon="5.73144">
        <ele>649.79998779297</ele>
        <time>2026-08-12T14:02:16.000Z</time>
      </trkpt>
      <trkpt lat="45.2112" lon="5.73143">
        <ele>649.59997558594</ele>
        <time>2026-08-12T14:02:17.000Z</time>
      </trkpt>
      <trkpt lat="45.21121" lon="5.73142">
        <ele>649.20001220703</ele>
        <time>2026-08-12T14:02:18.000Z</time>
      </trkpt>
      <trkpt lat="45.21123" lon="5.73142">
        <ele>649</ele>
        <time>2026-08-12T14:02:19.000Z</time>
      </trkpt>
      <trkpt lat="45.21124" lon="5.73142">
        <ele>649</ele>
        <time>2026-08-12T14:02:20.000Z</time>
      </trkpt>
      <trkpt lat="45.21125" lon="5.73142">
        <ele>649</ele>
        <time>2026-08-12T14:02:21.000Z</time>
      </trkpt>
      <trkpt lat="45.21125" lon="5.73141">
        <ele>649.20001220703</ele>
        <time>2026-08-12T14:02:22.000Z</time>
      </trkpt>
      <trkpt lat="45.21127" lon="5.73141">
        <ele>649.59997558594</ele>
        <time>2026-08-12T14:02:23.000Z</time>
      </trkpt>
      <trkpt lat="45.21128" lon="5.73141">
        <ele>650.20001220703</ele>
        <time>2026-08-12T14:02:24.000Z</time>
      </trkpt>
      <trkpt lat="45.21129" lon="5.73141">
        <ele>650.59997558594</ele>
        <time>2026-08-12T14:02:25.000Z</time>
      </trkpt>
      <trkpt lat="45.2113" lon="5.73141">
        <ele>651.40002441406</ele>
        <time>2026-08-12T14:02:26.000Z</time>
      </trkpt>
      <trkpt lat="45.21132" lon="5.73141">
        <ele>652</ele>
        <time>2026-08-12T14:02:27.000Z</time>
      </trkpt>
      <trkpt lat="45.21133" lon="5.73141">
        <ele>652.79998779297</ele>
        <time>2026-08-12T14:02:28.000Z</time>
      </trkpt>
      <trkpt lat="45.21134" lon="5.7314">
        <ele>653.20001220703</ele>
        <time>2026-08-12T14:02:29.000Z</time>
      </trkpt>
      <trkpt lat="45.21135" lon="5.7314">
        <ele>653.40002441406</ele>
        <time>2026-08-12T14:02:30.000Z</time>
      </trkpt>
      <trkpt lat="45.21136" lon="5.7314">
        <ele>653.79998779297</ele>
        <time>2026-08-12T14:02:31.000Z</time>
      </trkpt>
      <trkpt lat="45.21137" lon="5.73139">
        <ele>654</ele>
        <time>2026-08-12T14:02:32.000Z</time>
      </trkpt>
      <trkpt lat="45.21138" lon="5.73139">
        <ele>654.40002441406</ele>
        <time>2026-08-12T14:02:33.000Z</time>
      </trkpt>
      <trkpt lat="45.21139" lon="5.73139">
        <ele>654.59997558594</ele>
        <time>2026-08-12T14:02:34.000Z</time>
      </trkpt>
      <trkpt lat="45.21138" lon="5.73139">
        <ele>655.20001220703</ele>
        <time>2026-08-12T14:02:35.000Z</time>
      </trkpt>
      <trkpt lat="45.21137" lon="5.73139">
        <ele>655.40002441406</ele>
        <time>2026-08-12T14:02:36.000Z</time>
      </trkpt>
      <trkpt lat="45.21136" lon="5.73139">
        <ele>656</ele>
        <time>2026-08-12T14:02:37.000Z</time>
      </trkpt>
      <trkpt lat="45.21136" lon="5.73139">
        <ele>656.40002441406</ele>
        <time>2026-08-12T14:02:38.000Z</time>
      </trkpt>
      <trkpt lat="45.21135" lon="5.73139">
        <ele>656.79998779297</ele>
        <time>2026-08-12T14:02:39.000Z</time>
      </trkpt>
      <trkpt lat="45.21134" lon="5.73139">
        <ele>657.40002441406</ele>
        <time>2026-08-12T14:02:40.000Z</time>
      </trkpt>
      <trkpt lat="45.21133" lon="5.73139">
        <ele>657.79998779297</ele>
        <time>2026-08-12T14:02:41.000Z</time>
      </trkpt>
      <trkpt lat="45.21133" lon="5.73139">
        <ele>658.20001220703</ele>
        <time>2026-08-12T14:02:42.000Z</time>
      </trkpt>
      <trkpt lat="45.21132" lon="5.73138">
        <ele>658.40002441406</ele>
        <time>2026-08-12T14:02:43.000Z</time>
      </trkpt>
      <trkpt lat="45.21131" lon="5.73138">
        <ele>658.79998779297</ele>
        <time>2026-08-12T14:02:44.000Z</time>
      </trkpt>
      <trkpt lat="45.2113" lon="5.73138">
        <ele>658.79998779297</ele>
        <time>2026-08-12T14:02:45.000Z</time>
      </trkpt>
      <trkpt lat="45.21129" lon="5.73138">
        <ele>659</ele>
        <time>2026-08-12T14:02:46.000Z</time>
      </trkpt>
      <trkpt lat="45.21129" lon="5.73137">
        <ele>659.20001220703</ele>
        <time>2026-08-12T14:02:47.000Z</time>
      </trkpt>
      <trkpt lat="45.21128" lon="5.73137">
        <ele>659.40002441406</ele>
        <time>2026-08-12T14:02:48.000Z</time>
      </trkpt>
      <trkpt lat="45.21127" lon="5.73137">
        <ele>659.40002441406</ele>
        <time>2026-08-12T14:02:49.000Z</time>
      </trkpt>
      <trkpt lat="45.21126" lon="5.73137">
        <ele>659.79998779297</ele>
        <time>2026-08-12T14:02:50.000Z</time>
      </trkpt>
      <trkpt lat="45.21125" lon="5.73137">
        <ele>660.20001220703</ele>
        <time>2026-08-12T14:02:51.000Z</time>
      </trkpt>
      <trkpt lat="45.21125" lon="5.73137">
        <ele>660.59997558594</ele>
        <time>2026-08-12T14:02:52.000Z</time>
      </trkpt>
      <trkpt lat="45.21124" lon="5.73137">
        <ele>661</ele>
        <time>2026-08-12T14:02:53.000Z</time>
      </trkpt>
      <trkpt lat="45.21124" lon="5.73137">
        <ele>661</ele>
        <time>2026-08-12T14:02:54.000Z</time>
      </trkpt>
      <trkpt lat="45.21123" lon="5.73137">
        <ele>661.20001220703</ele>
        <time>2026-08-12T14:02:55.000Z</time>
      </trkpt>
      <trkpt lat="45.21122" lon="5.73137">
        <ele>661.40002441406</ele>
        <time>2026-08-12T14:02:56.000Z</time>
      </trkpt>
      <trkpt lat="45.21121" lon="5.73137">
        <ele>661.59997558594</ele>
        <time>2026-08-12T14:02:57.000Z</time>
      </trkpt>
      <trkpt lat="45.2112" lon="5.73137">
        <ele>661.79998779297</ele>
        <time>2026-08-12T14:02:58.000Z</time>
      </trkpt>
      <trkpt lat="45.21119" lon="5.73137">
        <ele>662</ele>
        <time>2026-08-12T14:02:59.000Z</time>
      </trkpt>
      <trkpt lat="45.21118" lon="5.73137">
        <ele>662.20001220703</ele>
        <time>2026-08-12T14:03:00.000Z</time>
      </trkpt>
      <trkpt lat="45.21118" lon="5.73137">
        <ele>662.20001220703</ele>
        <time>2026-08-12T14:03:01.000Z</time>
      </trkpt>
      <trkpt lat="45.21117" lon="5.73137">
        <ele>662.40002441406</ele>
        <time>2026-08-12T14:03:02.000Z</time>
      </trkpt>
      <trkpt lat="45.21116" lon="5.73137">
        <ele>662.40002441406</ele>
        <time>2026-08-12T14:03:03.000Z</time>
      </trkpt>
      <trkpt lat="45.21115" lon="5.73137">
        <ele>662.40002441406</ele>
        <time>2026-08-12T14:03:04.000Z</time>
      </trkpt>
      <trkpt lat="45.21115" lon="5.73137">
        <ele>662.40002441406</ele>
        <time>2026-08-12T14:03:05.000Z</time>
      </trkpt>
      <trkpt lat="45.21114" lon="5.73135">
        <ele>662.79998779297</ele>
        <time>2026-08-12T14:03:06.000Z</time>
      </trkpt>
      <trkpt lat="45.21115" lon="5.73134">
        <ele>663.20001220703</ele>
        <time>2026-08-12T14:03:07.000Z</time>
      </trkpt>
      <trkpt lat="45.21115" lon="5.73134">
        <ele>663.59997558594</ele>
        <time>2026-08-12T14:03:08.000Z</time>
      </trkpt>
      <trkpt lat="45.21116" lon="5.73133">
        <ele>663.79998779297</ele>
        <time>2026-08-12T14:03:09.000Z</time>
      </trkpt>
      <trkpt lat="45.21116" lon="5.73133">
        <ele>664.79998779297</ele>
        <time>2026-08-12T14:03:10.000Z</time>
      </trkpt>
      <trkpt lat="45.21117" lon="5.73132">
        <ele>665.40002441406</ele>
        <time>2026-08-12T14:03:11.000Z</time>
      </trkpt>
      <trkpt lat="45.21118" lon="5.73131">
        <ele>665.79998779297</ele>
        <time>2026-08-12T14:03:12.000Z</time>
      </trkpt>
      <trkpt lat="45.21118" lon="5.7313">
        <ele>666.20001220703</ele>
        <time>2026-08-12T14:03:13.000Z</time>
      </trkpt>
      <trkpt lat="45.21119" lon="5.73129">
        <ele>666.40002441406</ele>
        <time>2026-08-12T14:03:14.000Z</time>
      </trkpt>
      <trkpt lat="45.21119" lon="5.73128">
        <ele>666.59997558594</ele>
        <time>2026-08-12T14:03:15.000Z</time>
      </trkpt>
      <trkpt lat="45.2112" lon="5.73127">
        <ele>667</ele>
        <time>2026-08-12T14:03:16.000Z</time>
      </trkpt>
      <trkpt lat="45.21121" lon="5.73126">
        <ele>667.59997558594</ele>
        <time>2026-08-12T14:03:17.000Z</time>
      </trkpt>
      <trkpt lat="45.21122" lon="5.73125">
        <ele>668.59997558594</ele>
        <time>2026-08-12T14:03:18.000Z</time>
      </trkpt>
      <trkpt lat="45.21123" lon="5.73124">
        <ele>669.20001220703</ele>
        <time>2026-08-12T14:03:19.000Z</time>
      </trkpt>
      <trkpt lat="45.21124" lon="5.73123">
        <ele>669.79998779297</ele>
        <time>2026-08-12T14:03:20.000Z</time>
      </trkpt>
      <trkpt lat="45.21125" lon="5.73122">
        <ele>670.20001220703</ele>
        <time>2026-08-12T14:03:21.000Z</time>
      </trkpt>
      <trkpt lat="45.21127" lon="5.73121">
        <ele>670.40002441406</ele>
        <time>2026-08-12T14:03:22.000Z</time>
      </trkpt>
      <trkpt lat="45.21127" lon="5.73121">
        <ele>670.40002441406</ele>
        <time>2026-08-12T14:03:23.000Z</time>
      </trkpt>
      <trkpt lat="45.21128" lon="5.7312">
        <ele>670.79998779297</ele>
        <time>2026-08-12T14:03:24.000Z</time>
      </trkpt>
      <trkpt lat="45.21129" lon="5.7312">
        <ele>671</ele>
        <time>2026-08-12T14:03:25.000Z</time>
      </trkpt>
      <trkpt lat="45.21131" lon="5.7312">
        <ele>671</ele>
        <time>2026-08-12T14:03:26.000Z</time>
      </trkpt>
      <trkpt lat="45.21132" lon="5.73119">
        <ele>671</ele>
        <time>2026-08-12T14:03:27.000Z</time>
      </trkpt>
      <trkpt lat="45.21133" lon="5.73119">
        <ele>671</ele>
        <time>2026-08-12T14:03:28.000Z</time>
      </trkpt>
      <trkpt lat="45.21133" lon="5.73119">
        <ele>671</ele>
        <time>2026-08-12T14:03:29.000Z</time>
      </trkpt>
      <trkpt lat="45.21134" lon="5.73119">
        <ele>671</ele>
        <time>2026-08-12T14:03:30.000Z</time>
      </trkpt>
      <trkpt lat="45.21135" lon="5.73118">
        <ele>671.20001220703</ele>
        <time>2026-08-12T14:03:31.000Z</time>
      </trkpt>
      <trkpt lat="45.21136" lon="5.73118">
        <ele>671.40002441406</ele>
        <time>2026-08-12T14:03:32.000Z</time>
      </trkpt>
      <trkpt lat="45.21137" lon="5.73118">
        <ele>671.40002441406</ele>
        <time>2026-08-12T14:03:33.000Z</time>
      </trkpt>
      <trkpt lat="45.21137" lon="5.73118">
        <ele>671.40002441406</ele>
        <time>2026-08-12T14:03:34.000Z</time>
      </trkpt>
      <trkpt lat="45.21138" lon="5.73117">
        <ele>671.59997558594</ele>
        <time>2026-08-12T14:03:35.000Z</time>
      </trkpt>
      <trkpt lat="45.21139" lon="5.73116">
        <ele>671.59997558594</ele>
        <time>2026-08-12T14:03:36.000Z</time>
      </trkpt>
      <trkpt lat="45.21139" lon="5.73116">
        <ele>671.79998779297</ele>
        <time>2026-08-12T14:03:37.000Z</time>
      </trkpt>
      <trkpt lat="45.2114" lon="5.73115">
        <ele>672</ele>
        <time>2026-08-12T14:03:38.000Z</time>
      </trkpt>
      <trkpt lat="45.2114" lon="5.73114">
        <ele>672</ele>
        <time>2026-08-12T14:03:39.000Z</time>
      </trkpt>
      <trkpt lat="45.21141" lon="5.73114">
        <ele>672.20001220703</ele>
        <time>2026-08-12T14:03:40.000Z</time>
      </trkpt>
      <trkpt lat="45.21142" lon="5.73113">
        <ele>672.59997558594</ele>
        <time>2026-08-12T14:03:41.000Z</time>
      </trkpt>
      <trkpt lat="45.21142" lon="5.73113">
        <ele>672.79998779297</ele>
        <time>2026-08-12T14:03:42.000Z</time>
      </trkpt>
      <trkpt lat="45.21144" lon="5.73112">
        <ele>673</ele>
        <time>2026-08-12T14:03:43.000Z</time>
      </trkpt>
      <trkpt lat="45.21145" lon="5.73112">
        <ele>673.20001220703</ele>
        <time>2026-08-12T14:03:44.000Z</time>
      </trkpt>
      <trkpt lat="45.21146" lon="5.73111">
        <ele>673.59997558594</ele>
        <time>2026-08-12T14:03:45.000Z</time>
      </trkpt>
      <trkpt lat="45.21147" lon="5.73111">
        <ele>673.79998779297</ele>
        <time>2026-08-12T14:03:46.000Z</time>
      </trkpt>
      <trkpt lat="45.21148" lon="5.73112">
        <ele>674</ele>
        <time>2026-08-12T14:03:47.000Z</time>
      </trkpt>
      <trkpt lat="45.21149" lon="5.73112">
        <ele>674.20001220703</ele>
        <time>2026-08-12T14:03:48.000Z</time>
      </trkpt>
      <trkpt lat="45.2115" lon="5.73112">
        <ele>674.40002441406</ele>
        <time>2026-08-12T14:03:49.000Z</time>
      </trkpt>
      <trkpt lat="45.21151" lon="5.73113">
        <ele>674.40002441406</ele>
        <time>2026-08-12T14:03:50.000Z</time>
      </trkpt>
      <trkpt lat="45.21152" lon="5.73114">
        <ele>674.20001220703</ele>
        <time>2026-08-12T14:03:51.000Z</time>
      </trkpt>
      <trkpt lat="45.21153" lon="5.73116">
        <ele>674.20001220703</ele>
        <time>2026-08-12T14:03:52.000Z</time>
      </trkpt>
      <trkpt lat="45.21154" lon="5.73117">
        <ele>674.20001220703</ele>
        <time>2026-08-12T14:03:53.000Z</time>
      </trkpt>
      <trkpt lat="45.21155" lon="5.73118">
        <ele>674.59997558594</ele>
        <time>2026-08-12T14:03:54.000Z</time>
      </trkpt>
      <trkpt lat="45.21155" lon="5.7312">
        <ele>674.79998779297</ele>
        <time>2026-08-12T14:03:55.000Z</time>
      </trkpt>
      <trkpt lat="45.21156" lon="5.73121">
        <ele>675</ele>
        <time>2026-08-12T14:03:56.000Z</time>
      </trkpt>
      <trkpt lat="45.21156" lon="5.73122">
        <ele>675.20001220703</ele>
        <time>2026-08-12T14:03:57.000Z</time>
      </trkpt>
      <trkpt lat="45.21157" lon="5.73124">
        <ele>675.20001220703</ele>
        <time>2026-08-12T14:03:58.000Z</time>
      </trkpt>
      <trkpt lat="45.21158" lon="5.73125">
        <ele>675.20001220703</ele>
        <time>2026-08-12T14:03:59.000Z</time>
      </trkpt>
      <trkpt lat="45.21158" lon="5.73127">
        <ele>675.20001220703</ele>
        <time>2026-08-12T14:04:00.000Z</time>
      </trkpt>
      <trkpt lat="45.21159" lon="5.73128">
        <ele>675.40002441406</ele>
        <time>2026-08-12T14:04:01.000Z</time>
      </trkpt>
      <trkpt lat="45.21159" lon="5.73129">
        <ele>675.59997558594</ele>
        <time>2026-08-12T14:04:02.000Z</time>
      </trkpt>
      <trkpt lat="45.2116" lon="5.7313">
        <ele>676</ele>
        <time>2026-08-12T14:04:03.000Z</time>
      </trkpt>
      <trkpt lat="45.2116" lon="5.73131">
        <ele>676.40002441406</ele>
        <time>2026-08-12T14:04:04.000Z</time>
      </trkpt>
      <trkpt lat="45.21161" lon="5.73132">
        <ele>676.59997558594</ele>
        <time>2026-08-12T14:04:05.000Z</time>
      </trkpt>
      <trkpt lat="45.21161" lon="5.73133">
        <ele>676.59997558594</ele>
        <time>2026-08-12T14:04:06.000Z</time>
      </trkpt>
      <trkpt lat="45.21162" lon="5.73133">
        <ele>676.79998779297</ele>
        <time>2026-08-12T14:04:07.000Z</time>
      </trkpt>
      <trkpt lat="45.21163" lon="5.73133">
        <ele>677</ele>
        <time>2026-08-12T14:04:08.000Z</time>
      </trkpt>
      <trkpt lat="45.21164" lon="5.73133">
        <ele>677.20001220703</ele>
        <time>2026-08-12T14:04:09.000Z</time>
      </trkpt>
      <trkpt lat="45.21166" lon="5.73133">
        <ele>677.40002441406</ele>
        <time>2026-08-12T14:04:10.000Z</time>
      </trkpt>
      <trkpt lat="45.21167" lon="5.73133">
        <ele>677.59997558594</ele>
        <time>2026-08-12T14:04:11.000Z</time>
      </trkpt>
      <trkpt lat="45.21167" lon="5.73134">
        <ele>677.79998779297</ele>
        <time>2026-08-12T14:04:12.000Z</time>
      </trkpt>
      <trkpt lat="45.21168" lon="5.73136">
        <ele>678</ele>
        <time>2026-08-12T14:04:13.000Z</time>
      </trkpt>
      <trkpt lat="45.21169" lon="5.73138">
        <ele>678.20001220703</ele>
        <time>2026-08-12T14:04:14.000Z</time>
      </trkpt>
      <trkpt lat="45.2117" lon="5.73139">
        <ele>678.59997558594</ele>
        <time>2026-08-12T14:04:15.000Z</time>
      </trkpt>
      <trkpt lat="45.21171" lon="5.73141">
        <ele>679</ele>
        <time>2026-08-12T14:04:16.000Z</time>
      </trkpt>
      <trkpt lat="45.21172" lon="5.73142">
        <ele>679.20001220703</ele>
        <time>2026-08-12T14:04:17.000Z</time>
      </trkpt>
      <trkpt lat="45.21173" lon="5.73143">
        <ele>679.59997558594</ele>
        <time>2026-08-12T14:04:18.000Z</time>
      </trkpt>
      <trkpt lat="45.21174" lon="5.73144">
        <ele>679.79998779297</ele>
        <time>2026-08-12T14:04:19.000Z</time>
      </trkpt>
      <trkpt lat="45.21175" lon="5.73145">
        <ele>680</ele>
        <time>2026-08-12T14:04:20.000Z</time>
      </trkpt>
      <trkpt lat="45.21175" lon="5.73145">
        <ele>680.40002441406</ele>
        <time>2026-08-12T14:04:21.000Z</time>
      </trkpt>
      <trkpt lat="45.21176" lon="5.73146">
        <ele>681</ele>
        <time>2026-08-12T14:04:22.000Z</time>
      </trkpt>
      <trkpt lat="45.21177" lon="5.73147">
        <ele>681.20001220703</ele>
        <time>2026-08-12T14:04:23.000Z</time>
      </trkpt>
      <trkpt lat="45.21178" lon="5.73148">
        <ele>681.40002441406</ele>
        <time>2026-08-12T14:04:24.000Z</time>
      </trkpt>
      <trkpt lat="45.21179" lon="5.73149">
        <ele>681.40002441406</ele>
        <time>2026-08-12T14:04:25.000Z</time>
      </trkpt>
      <trkpt lat="45.21179" lon="5.7315">
        <ele>681.59997558594</ele>
        <time>2026-08-12T14:04:26.000Z</time>
      </trkpt>
      <trkpt lat="45.2118" lon="5.73151">
        <ele>681.79998779297</ele>
        <time>2026-08-12T14:04:27.000Z</time>
      </trkpt>
      <trkpt lat="45.21181" lon="5.73152">
        <ele>682</ele>
        <time>2026-08-12T14:04:28.000Z</time>
      </trkpt>
      <trkpt lat="45.21181" lon="5.73153">
        <ele>682.20001220703</ele>
        <time>2026-08-12T14:04:29.000Z</time>
      </trkpt>
      <trkpt lat="45.21182" lon="5.73153">
        <ele>682.20001220703</ele>
        <time>2026-08-12T14:04:30.000Z</time>
      </trkpt>
      <trkpt lat="45.21183" lon="5.73154">
        <ele>682.20001220703</ele>
        <time>2026-08-12T14:04:31.000Z</time>
      </trkpt>
      <trkpt lat="45.21183" lon="5.73155">
        <ele>682</ele>
        <time>2026-08-12T14:04:32.000Z</time>
      </trkpt>
      <trkpt lat="45.21184" lon="5.73155">
        <ele>682</ele>
        <time>2026-08-12T14:04:33.000Z</time>
      </trkpt>
      <trkpt lat="45.21185" lon="5.73156">
        <ele>682</ele>
        <time>2026-08-12T14:04:34.000Z</time>
      </trkpt>
      <trkpt lat="45.21185" lon="5.73157">
        <ele>682</ele>
        <time>2026-08-12T14:04:35.000Z</time>
      </trkpt>
      <trkpt lat="45.21186" lon="5.73157">
        <ele>682.20001220703</ele>
        <time>2026-08-12T14:04:36.000Z</time>
      </trkpt>
      <trkpt lat="45.21187" lon="5.73158">
        <ele>682.40002441406</ele>
        <time>2026-08-12T14:04:37.000Z</time>
      </trkpt>
      <trkpt lat="45.21188" lon="5.73159">
        <ele>682.59997558594</ele>
        <time>2026-08-12T14:04:38.000Z</time>
      </trkpt>
      <trkpt lat="45.21188" lon="5.73159">
        <ele>682.59997558594</ele>
        <time>2026-08-12T14:04:39.000Z</time>
      </trkpt>
      <trkpt lat="45.21189" lon="5.7316">
        <ele>683</ele>
        <time>2026-08-12T14:04:40.000Z</time>
      </trkpt>
      <trkpt lat="45.2119" lon="5.73161">
        <ele>683.20001220703</ele>
        <time>2026-08-12T14:04:41.000Z</time>
      </trkpt>
      <trkpt lat="45.2119" lon="5.73162">
        <ele>683.40002441406</ele>
        <time>2026-08-12T14:04:42.000Z</time>
      </trkpt>
      <trkpt lat="45.21191" lon="5.73163">
        <ele>683.79998779297</ele>
        <time>2026-08-12T14:04:43.000Z</time>
      </trkpt>
      <trkpt lat="45.21191" lon="5.73164">
        <ele>684.20001220703</ele>
        <time>2026-08-12T14:04:44.000Z</time>
      </trkpt>
      <trkpt lat="45.21192" lon="5.73166">
        <ele>684.40002441406</ele>
        <time>2026-08-12T14:04:45.000Z</time>
      </trkpt>
      <trkpt lat="45.21193" lon="5.73167">
        <ele>684.79998779297</ele>
        <time>2026-08-12T14:04:46.000Z</time>
      </trkpt>
      <trkpt lat="45.21194" lon="5.73168">
        <ele>685</ele>
        <time>2026-08-12T14:04:47.000Z</time>
      </trkpt>
      <trkpt lat="45.21195" lon="5.73169">
        <ele>685.20001220703</ele>
        <time>2026-08-12T14:04:48.000Z</time>
      </trkpt>
      <trkpt lat="45.21196" lon="5.7317">
        <ele>685.20001220703</ele>
        <time>2026-08-12T14:04:49.000Z</time>
      </trkpt>
      <trkpt lat="45.21197" lon="5.73171">
        <ele>685.40002441406</ele>
        <time>2026-08-12T14:04:50.000Z</time>
      </trkpt>
      <trkpt lat="45.21198" lon="5.73173">
        <ele>685.59997558594</ele>
        <time>2026-08-12T14:04:51.000Z</time>
      </trkpt>
      <trkpt lat="45.21198" lon="5.73174">
        <ele>685.79998779297</ele>
        <time>2026-08-12T14:04:52.000Z</time>
      </trkpt>
      <trkpt lat="45.21199" lon="5.73175">
        <ele>686</ele>
        <time>2026-08-12T14:04:53.000Z</time>
      </trkpt>
      <trkpt lat="45.212" lon="5.73177">
        <ele>686.20001220703</ele>
        <time>2026-08-12T14:04:54.000Z</time>
      </trkpt>
      <trkpt lat="45.212" lon="5.73178">
        <ele>686.20001220703</ele>
        <time>2026-08-12T14:04:55.000Z</time>
      </trkpt>
      <trkpt lat="45.21201" lon="5.73179">
        <ele>686.40002441406</ele>
        <time>2026-08-12T14:04:56.000Z</time>
      </trkpt>
      <trkpt lat="45.21201" lon="5.7318">
        <ele>686.79998779297</ele>
        <time>2026-08-12T14:04:57.000Z</time>
      </trkpt>
      <trkpt lat="45.21202" lon="5.73181">
        <ele>686.79998779297</ele>
        <time>2026-08-12T14:04:58.000Z</time>
      </trkpt>
      <trkpt lat="45.21202" lon="5.73182">
        <ele>687.59997558594</ele>
        <time>2026-08-12T14:04:59.000Z</time>
      </trkpt>
      <trkpt lat="45.21203" lon="5.73182">
        <ele>688</ele>
        <time>2026-08-12T14:05:00.000Z</time>
      </trkpt>
      <trkpt lat="45.21203" lon="5.73183">
        <ele>688.20001220703</ele>
        <time>2026-08-12T14:05:01.000Z</time>
      </trkpt>
      <trkpt lat="45.21204" lon="5.73184">
        <ele>688.59997558594</ele>
        <time>2026-08-12T14:05:02.000Z</time>
      </trkpt>
      <trkpt lat="45.21205" lon="5.73185">
        <ele>688.79998779297</ele>
        <time>2026-08-12T14:05:03.000Z</time>
      </trkpt>
      <trkpt lat="45.21206" lon="5.73186">
        <ele>688.79998779297</ele>
        <time>2026-08-12T14:05:04.000Z</time>
      </trkpt>
      <trkpt lat="45.21207" lon="5.73187">
        <ele>689</ele>
        <time>2026-08-12T14:05:05.000Z</time>
      </trkpt>
      <trkpt lat="45.21207" lon="5.73188">
        <ele>689.40002441406</ele>
        <time>2026-08-12T14:05:06.000Z</time>
      </trkpt>
      <trkpt lat="45.21208" lon="5.73188">
        <ele>689.59997558594</ele>
        <time>2026-08-12T14:05:07.000Z</time>
      </trkpt>
      <trkpt lat="45.21208" lon="5.73189">
        <ele>690</ele>
        <time>2026-08-12T14:05:08.000Z</time>
      </trkpt>
      <trkpt lat="45.21209" lon="5.73189">
        <ele>690.20001220703</ele>
        <time>2026-08-12T14:05:09.000Z</time>
      </trkpt>
      <trkpt lat="45.21209" lon="5.7319">
        <ele>690.40002441406</ele>
        <time>2026-08-12T14:05:10.000Z</time>
      </trkpt>
      <trkpt lat="45.2121" lon="5.7319">
        <ele>690.20001220703</ele>
        <time>2026-08-12T14:05:11.000Z</time>
      </trkpt>
      <trkpt lat="45.21211" lon="5.73191">
        <ele>690.20001220703</ele>
        <time>2026-08-12T14:05:12.000Z</time>
      </trkpt>
      <trkpt lat="45.21213" lon="5.73191">
        <ele>690</ele>
        <time>2026-08-12T14:05:13.000Z</time>
      </trkpt>
      <trkpt lat="45.21213" lon="5.73192">
        <ele>690</ele>
        <time>2026-08-12T14:05:14.000Z</time>
      </trkpt>
      <trkpt lat="45.21214" lon="5.73193">
        <ele>690</ele>
        <time>2026-08-12T14:05:15.000Z</time>
      </trkpt>
      <trkpt lat="45.21215" lon="5.73193">
        <ele>690.20001220703</ele>
        <time>2026-08-12T14:05:16.000Z</time>
      </trkpt>
      <trkpt lat="45.21216" lon="5.73194">
        <ele>690.40002441406</ele>
        <time>2026-08-12T14:05:17.000Z</time>
      </trkpt>
      <trkpt lat="45.21217" lon="5.73194">
        <ele>690.59997558594</ele>
        <time>2026-08-12T14:05:18.000Z</time>
      </trkpt>
      <trkpt lat="45.21218" lon="5.73194">
        <ele>690.59997558594</ele>
        <time>2026-08-12T14:05:19.000Z</time>
      </trkpt>
      <trkpt lat="45.21219" lon="5.73195">
        <ele>690.79998779297</ele>
        <time>2026-08-12T14:05:20.000Z</time>
      </trkpt>
      <trkpt lat="45.2122" lon="5.73195">
        <ele>691</ele>
        <time>2026-08-12T14:05:21.000Z</time>
      </trkpt>
      <trkpt lat="45.21221" lon="5.73196">
        <ele>690.79998779297</ele>
        <time>2026-08-12T14:05:22.000Z</time>
      </trkpt>
      <trkpt lat="45.21222" lon="5.73197">
        <ele>690.40002441406</ele>
        <time>2026-08-12T14:05:23.000Z</time>
      </trkpt>
      <trkpt lat="45.21222" lon="5.73199">
        <ele>690.40002441406</ele>
        <time>2026-08-12T14:05:24.000Z</time>
      </trkpt>
      <trkpt lat="45.21223" lon="5.732">
        <ele>690.40002441406</ele>
        <time>2026-08-12T14:05:25.000Z</time>
      </trkpt>
      <trkpt lat="45.21223" lon="5.73202">
        <ele>690.40002441406</ele>
        <time>2026-08-12T14:05:26.000Z</time>
      </trkpt>
      <trkpt lat="45.21223" lon="5.73203">
        <ele>690.40002441406</ele>
        <time>2026-08-12T14:05:27.000Z</time>
      </trkpt>
      <trkpt lat="45.21224" lon="5.73205">
        <ele>691</ele>
        <time>2026-08-12T14:05:28.000Z</time>
      </trkpt>
      <trkpt lat="45.21225" lon="5.73206">
        <ele>691.40002441406</ele>
        <time>2026-08-12T14:05:29.000Z</time>
      </trkpt>
      <trkpt lat="45.21226" lon="5.73207">
        <ele>691.40002441406</ele>
        <time>2026-08-12T14:05:30.000Z</time>
      </trkpt>
      <trkpt lat="45.21227" lon="5.73208">
        <ele>691.40002441406</ele>
        <time>2026-08-12T14:05:31.000Z</time>
      </trkpt>
      <trkpt lat="45.21228" lon="5.73209">
        <ele>691.59997558594</ele>
        <time>2026-08-12T14:05:32.000Z</time>
      </trkpt>
      <trkpt lat="45.21229" lon="5.7321">
        <ele>691.59997558594</ele>
        <time>2026-08-12T14:05:33.000Z</time>
      </trkpt>
      <trkpt lat="45.21229" lon="5.7321">
        <ele>691.79998779297</ele>
        <time>2026-08-12T14:05:34.000Z</time>
      </trkpt>
      <trkpt lat="45.2123" lon="5.73211">
        <ele>692</ele>
        <time>2026-08-12T14:05:35.000Z</time>
      </trkpt>
      <trkpt lat="45.21231" lon="5.73211">
        <ele>692.40002441406</ele>
        <time>2026-08-12T14:05:36.000Z</time>
      </trkpt>
      <trkpt lat="45.21231" lon="5.73212">
        <ele>692.59997558594</ele>
        <time>2026-08-12T14:05:37.000Z</time>
      </trkpt>
      <trkpt lat="45.21232" lon="5.73213">
        <ele>692.59997558594</ele>
        <time>2026-08-12T14:05:38.000Z</time>
      </trkpt>
      <trkpt lat="45.21233" lon="5.73214">
        <ele>692.79998779297</ele>
        <time>2026-08-12T14:05:39.000Z</time>
      </trkpt>
      <trkpt lat="45.21235" lon="5.73215">
        <ele>693.20001220703</ele>
        <time>2026-08-12T14:05:40.000Z</time>
      </trkpt>
      <trkpt lat="45.21236" lon="5.73216">
        <ele>693.40002441406</ele>
        <time>2026-08-12T14:05:41.000Z</time>
      </trkpt>
      <trkpt lat="45.21236" lon="5.73216">
        <ele>693.40002441406</ele>
        <time>2026-08-12T14:05:42.000Z</time>
      </trkpt>
      <trkpt lat="45.21237" lon="5.73216">
        <ele>693.59997558594</ele>
        <time>2026-08-12T14:05:43.000Z</time>
      </trkpt>
      <trkpt lat="45.21238" lon="5.73216">
        <ele>693.79998779297</ele>
        <time>2026-08-12T14:05:44.000Z</time>
      </trkpt>
      <trkpt lat="45.21239" lon="5.73216">
        <ele>694</ele>
        <time>2026-08-12T14:05:45.000Z</time>
      </trkpt>
      <trkpt lat="45.2124" lon="5.73217">
        <ele>694.40002441406</ele>
        <time>2026-08-12T14:05:46.000Z</time>
      </trkpt>
      <trkpt lat="45.21241" lon="5.73217">
        <ele>694.79998779297</ele>
        <time>2026-08-12T14:05:47.000Z</time>
      </trkpt>
      <trkpt lat="45.21242" lon="5.73217">
        <ele>695</ele>
        <time>2026-08-12T14:05:48.000Z</time>
      </trkpt>
      <trkpt lat="45.21243" lon="5.73218">
        <ele>695</ele>
        <time>2026-08-12T14:05:49.000Z</time>
      </trkpt>
      <trkpt lat="45.21244" lon="5.73219">
        <ele>695.20001220703</ele>
        <time>2026-08-12T14:05:50.000Z</time>
      </trkpt>
      <trkpt lat="45.21245" lon="5.7322">
        <ele>695.40002441406</ele>
        <time>2026-08-12T14:05:51.000Z</time>
      </trkpt>
      <trkpt lat="45.21246" lon="5.7322">
        <ele>695.40002441406</ele>
        <time>2026-08-12T14:05:52.000Z</time>
      </trkpt>
      <trkpt lat="45.21248" lon="5.7322">
        <ele>695.40002441406</ele>
        <time>2026-08-12T14:05:53.000Z</time>
      </trkpt>
      <trkpt lat="45.21248" lon="5.7322">
        <ele>695.40002441406</ele>
        <time>2026-08-12T14:05:54.000Z</time>
      </trkpt>
      <trkpt lat="45.21249" lon="5.7322">
        <ele>695.20001220703</ele>
        <time>2026-08-12T14:05:55.000Z</time>
      </trkpt>
      <trkpt lat="45.2125" lon="5.73221">
        <ele>695.20001220703</ele>
        <time>2026-08-12T14:05:56.000Z</time>
      </trkpt>
      <trkpt lat="45.21251" lon="5.73222">
        <ele>695.40002441406</ele>
        <time>2026-08-12T14:05:57.000Z</time>
      </trkpt>
      <trkpt lat="45.21251" lon="5.73223">
        <ele>695.59997558594</ele>
        <time>2026-08-12T14:05:58.000Z</time>
      </trkpt>
      <trkpt lat="45.21252" lon="5.73224">
        <ele>696.20001220703</ele>
        <time>2026-08-12T14:05:59.000Z</time>
      </trkpt>
      <trkpt lat="45.21253" lon="5.73225">
        <ele>696.40002441406</ele>
        <time>2026-08-12T14:06:00.000Z</time>
      </trkpt>
      <trkpt lat="45.21253" lon="5.73225">
        <ele>696.79998779297</ele>
        <time>2026-08-12T14:06:01.000Z</time>
      </trkpt>
      <trkpt lat="45.21254" lon="5.73226">
        <ele>697.20001220703</ele>
        <time>2026-08-12T14:06:02.000Z</time>
      </trkpt>
      <trkpt lat="45.21255" lon="5.73227">
        <ele>697.40002441406</ele>
        <time>2026-08-12T14:06:03.000Z</time>
      </trkpt>
      <trkpt lat="45.21256" lon="5.73228">
        <ele>697.59997558594</ele>
        <time>2026-08-12T14:06:04.000Z</time>
      </trkpt>
      <trkpt lat="45.21256" lon="5.73229">
        <ele>698</ele>
        <time>2026-08-12T14:06:05.000Z</time>
      </trkpt>
      <trkpt lat="45.21257" lon="5.73229">
        <ele>698.20001220703</ele>
        <time>2026-08-12T14:06:06.000Z</time>
      </trkpt>
      <trkpt lat="45.21258" lon="5.7323">
        <ele>698.40002441406</ele>
        <time>2026-08-12T14:06:07.000Z</time>
      </trkpt>
      <trkpt lat="45.21258" lon="5.73231">
        <ele>698.79998779297</ele>
        <time>2026-08-12T14:06:08.000Z</time>
      </trkpt>
      <trkpt lat="45.21259" lon="5.73232">
        <ele>699</ele>
        <time>2026-08-12T14:06:09.000Z</time>
      </trkpt>
      <trkpt lat="45.2126" lon="5.73233">
        <ele>699</ele>
        <time>2026-08-12T14:06:10.000Z</time>
      </trkpt>
      <trkpt lat="45.2126" lon="5.73235">
        <ele>699.20001220703</ele>
        <time>2026-08-12T14:06:11.000Z</time>
      </trkpt>
      <trkpt lat="45.21261" lon="5.73236">
        <ele>699.40002441406</ele>
        <time>2026-08-12T14:06:12.000Z</time>
      </trkpt>
      <trkpt lat="45.21261" lon="5.73237">
        <ele>699.40002441406</ele>
        <time>2026-08-12T14:06:13.000Z</time>
      </trkpt>
      <trkpt lat="45.21262" lon="5.73238">
        <ele>699.59997558594</ele>
        <time>2026-08-12T14:06:14.000Z</time>
      </trkpt>
      <trkpt lat="45.21262" lon="5.73239">
        <ele>699.59997558594</ele>
        <time>2026-08-12T14:06:15.000Z</time>
      </trkpt>
      <trkpt lat="45.21263" lon="5.7324">
        <ele>699.79998779297</ele>
        <time>2026-08-12T14:06:16.000Z</time>
      </trkpt>
      <trkpt lat="45.21263" lon="5.73241">
        <ele>700</ele>
        <time>2026-08-12T14:06:17.000Z</time>
      </trkpt>
      <trkpt lat="45.21264" lon="5.73242">
        <ele>700.20001220703</ele>
        <time>2026-08-12T14:06:18.000Z</time>
      </trkpt>
      <trkpt lat="45.21264" lon="5.73243">
        <ele>700.40002441406</ele>
        <time>2026-08-12T14:06:19.000Z</time>
      </trkpt>
      <trkpt lat="45.21264" lon="5.73244">
        <ele>700.59997558594</ele>
        <time>2026-08-12T14:06:20.000Z</time>
      </trkpt>
      <trkpt lat="45.21265" lon="5.73245">
        <ele>700.59997558594</ele>
        <time>2026-08-12T14:06:21.000Z</time>
      </trkpt>
      <trkpt lat="45.21265" lon="5.73246">
        <ele>700.79998779297</ele>
        <time>2026-08-12T14:06:22.000Z</time>
      </trkpt>
      <trkpt lat="45.21266" lon="5.73248">
        <ele>700.79998779297</ele>
        <time>2026-08-12T14:06:23.000Z</time>
      </trkpt>
      <trkpt lat="45.21267" lon="5.73249">
        <ele>700.79998779297</ele>
        <time>2026-08-12T14:06:24.000Z</time>
      </trkpt>
      <trkpt lat="45.21267" lon="5.7325">
        <ele>700.79998779297</ele>
        <time>2026-08-12T14:06:25.000Z</time>
      </trkpt>
      <trkpt lat="45.21268" lon="5.73252">
        <ele>701</ele>
        <time>2026-08-12T14:06:26.000Z</time>
      </trkpt>
      <trkpt lat="45.21268" lon="5.73253">
        <ele>701</ele>
        <time>2026-08-12T14:06:27.000Z</time>
      </trkpt>
      <trkpt lat="45.21268" lon="5.73253">
        <ele>701.20001220703</ele>
        <time>2026-08-12T14:06:28.000Z</time>
      </trkpt>
      <trkpt lat="45.21269" lon="5.73254">
        <ele>701.20001220703</ele>
        <time>2026-08-12T14:06:29.000Z</time>
      </trkpt>
      <trkpt lat="45.21269" lon="5.73255">
        <ele>701.40002441406</ele>
        <time>2026-08-12T14:06:30.000Z</time>
      </trkpt>
      <trkpt lat="45.2127" lon="5.73256">
        <ele>701.79998779297</ele>
        <time>2026-08-12T14:06:31.000Z</time>
      </trkpt>
      <trkpt lat="45.2127" lon="5.73256">
        <ele>702</ele>
        <time>2026-08-12T14:06:32.000Z</time>
      </trkpt>
      <trkpt lat="45.21271" lon="5.73257">
        <ele>702.59997558594</ele>
        <time>2026-08-12T14:06:33.000Z</time>
      </trkpt>
      <trkpt lat="45.21272" lon="5.73257">
        <ele>703.59997558594</ele>
        <time>2026-08-12T14:06:34.000Z</time>
      </trkpt>
      <trkpt lat="45.21273" lon="5.73257">
        <ele>704.59997558594</ele>
        <time>2026-08-12T14:06:35.000Z</time>
      </trkpt>
      <trkpt lat="45.21274" lon="5.73258">
        <ele>704.59997558594</ele>
        <time>2026-08-12T14:06:36.000Z</time>
      </trkpt>
      <trkpt lat="45.21275" lon="5.73258">
        <ele>705.20001220703</ele>
        <time>2026-08-12T14:06:37.000Z</time>
      </trkpt>
      <trkpt lat="45.21276" lon="5.73258">
        <ele>705.79998779297</ele>
        <time>2026-08-12T14:06:38.000Z</time>
      </trkpt>
      <trkpt lat="45.21277" lon="5.73259">
        <ele>706.40002441406</ele>
        <time>2026-08-12T14:06:39.000Z</time>
      </trkpt>
      <trkpt lat="45.21278" lon="5.73259">
        <ele>707</ele>
        <time>2026-08-12T14:06:40.000Z</time>
      </trkpt>
      <trkpt lat="45.21278" lon="5.7326">
        <ele>707.20001220703</ele>
        <time>2026-08-12T14:06:41.000Z</time>
      </trkpt>
      <trkpt lat="45.21279" lon="5.7326">
        <ele>707.20001220703</ele>
        <time>2026-08-12T14:06:42.000Z</time>
      </trkpt>
      <trkpt lat="45.2128" lon="5.73261">
        <ele>707.40002441406</ele>
        <time>2026-08-12T14:06:43.000Z</time>
      </trkpt>
      <trkpt lat="45.21281" lon="5.73262">
        <ele>707.59997558594</ele>
        <time>2026-08-12T14:06:44.000Z</time>
      </trkpt>
      <trkpt lat="45.21282" lon="5.73262">
        <ele>707.59997558594</ele>
        <time>2026-08-12T14:06:45.000Z</time>
      </trkpt>
      <trkpt lat="45.21283" lon="5.73262">
        <ele>707.79998779297</ele>
        <time>2026-08-12T14:06:46.000Z</time>
      </trkpt>
      <trkpt lat="45.21284" lon="5.73263">
        <ele>708</ele>
        <time>2026-08-12T14:06:47.000Z</time>
      </trkpt>
      <trkpt lat="45.21285" lon="5.73263">
        <ele>708.20001220703</ele>
        <time>2026-08-12T14:06:48.000Z</time>
      </trkpt>
      <trkpt lat="45.21286" lon="5.73264">
        <ele>708.40002441406</ele>
        <time>2026-08-12T14:06:49.000Z</time>
      </trkpt>
      <trkpt lat="45.21287" lon="5.73265">
        <ele>708.40002441406</ele>
        <time>2026-08-12T14:06:50.000Z</time>
      </trkpt>
      <trkpt lat="45.21288" lon="5.73266">
        <ele>708.59997558594</ele>
        <time>2026-08-12T14:06:51.000Z</time>
      </trkpt>
      <trkpt lat="45.21289" lon="5.73267">
        <ele>708.40002441406</ele>
        <time>2026-08-12T14:06:52.000Z</time>
      </trkpt>
      <trkpt lat="45.2129" lon="5.73267">
        <ele>708.20001220703</ele>
        <time>2026-08-12T14:06:53.000Z</time>
      </trkpt>
      <trkpt lat="45.21292" lon="5.73268">
        <ele>708</ele>
        <time>2026-08-12T14:06:54.000Z</time>
      </trkpt>
      <trkpt lat="45.21293" lon="5.73269">
        <ele>707.79998779297</ele>
        <time>2026-08-12T14:06:55.000Z</time>
      </trkpt>
      <trkpt lat="45.21294" lon="5.7327">
        <ele>707.59997558594</ele>
        <time>2026-08-12T14:06:56.000Z</time>
      </trkpt>
      <trkpt lat="45.21295" lon="5.7327">
        <ele>707.20001220703</ele>
        <time>2026-08-12T14:06:57.000Z</time>
      </trkpt>
      <trkpt lat="45.21296" lon="5.73269">
        <ele>707</ele>
        <time>2026-08-12T14:06:58.000Z</time>
      </trkpt>
      <trkpt lat="45.21297" lon="5.7327">
        <ele>706.79998779297</ele>
        <time>2026-08-12T14:06:59.000Z</time>
      </trkpt>
      <trkpt lat="45.21298" lon="5.7327">
        <ele>706.59997558594</ele>
        <time>2026-08-12T14:07:00.000Z</time>
      </trkpt>
      <trkpt lat="45.21298" lon="5.7327">
        <ele>706.40002441406</ele>
        <time>2026-08-12T14:07:01.000Z</time>
      </trkpt>
      <trkpt lat="45.21298" lon="5.7327">
        <ele>706.20001220703</ele>
        <time>2026-08-12T14:07:02.000Z</time>
      </trkpt>
      <trkpt lat="45.21299" lon="5.7327">
        <ele>706</ele>
        <time>2026-08-12T14:07:03.000Z</time>
      </trkpt>
      <trkpt lat="45.21299" lon="5.73271">
        <ele>705.40002441406</ele>
        <time>2026-08-12T14:07:04.000Z</time>
      </trkpt>
      <trkpt lat="45.213" lon="5.73272">
        <ele>704.79998779297</ele>
        <time>2026-08-12T14:07:05.000Z</time>
      </trkpt>
      <trkpt lat="45.213" lon="5.73273">
        <ele>705</ele>
        <time>2026-08-12T14:07:06.000Z</time>
      </trkpt>
      <trkpt lat="45.21301" lon="5.73275">
        <ele>705.20001220703</ele>
        <time>2026-08-12T14:07:07.000Z</time>
      </trkpt>
      <trkpt lat="45.21302" lon="5.73277">
        <ele>705.59997558594</ele>
        <time>2026-08-12T14:07:08.000Z</time>
      </trkpt>
      <trkpt lat="45.21302" lon="5.73279">
        <ele>705.79998779297</ele>
        <time>2026-08-12T14:07:09.000Z</time>
      </trkpt>
      <trkpt lat="45.21302" lon="5.7328">
        <ele>706</ele>
        <time>2026-08-12T14:07:10.000Z</time>
      </trkpt>
      <trkpt lat="45.21303" lon="5.73282">
        <ele>706.40002441406</ele>
        <time>2026-08-12T14:07:11.000Z</time>
      </trkpt>
      <trkpt lat="45.21303" lon="5.73284">
        <ele>707</ele>
        <time>2026-08-12T14:07:12.000Z</time>
      </trkpt>
      <trkpt lat="45.21303" lon="5.73285">
        <ele>707.40002441406</ele>
        <time>2026-08-12T14:07:13.000Z</time>
      </trkpt>
      <trkpt lat="45.21303" lon="5.73286">
        <ele>707.40002441406</ele>
        <time>2026-08-12T14:07:14.000Z</time>
      </trkpt>
      <trkpt lat="45.21303" lon="5.73287">
        <ele>708</ele>
        <time>2026-08-12T14:07:15.000Z</time>
      </trkpt>
      <trkpt lat="45.21304" lon="5.73288">
        <ele>708.59997558594</ele>
        <time>2026-08-12T14:07:16.000Z</time>
      </trkpt>
      <trkpt lat="45.21304" lon="5.73289">
        <ele>709.20001220703</ele>
        <time>2026-08-12T14:07:17.000Z</time>
      </trkpt>
      <trkpt lat="45.21304" lon="5.73289">
        <ele>709.79998779297</ele>
        <time>2026-08-12T14:07:18.000Z</time>
      </trkpt>
      <trkpt lat="45.21305" lon="5.7329">
        <ele>710.40002441406</ele>
        <time>2026-08-12T14:07:19.000Z</time>
      </trkpt>
      <trkpt lat="45.21305" lon="5.73291">
        <ele>711</ele>
        <time>2026-08-12T14:07:20.000Z</time>
      </trkpt>
      <trkpt lat="45.21306" lon="5.73291">
        <ele>711.20001220703</ele>
        <time>2026-08-12T14:07:21.000Z</time>
      </trkpt>
      <trkpt lat="45.21306" lon="5.73291">
        <ele>711.40002441406</ele>
        <time>2026-08-12T14:07:22.000Z</time>
      </trkpt>
      <trkpt lat="45.21307" lon="5.73292">
        <ele>711.40002441406</ele>
        <time>2026-08-12T14:07:23.000Z</time>
      </trkpt>
      <trkpt lat="45.21307" lon="5.73292">
        <ele>711.59997558594</ele>
        <time>2026-08-12T14:07:24.000Z</time>
      </trkpt>
      <trkpt lat="45.21308" lon="5.73292">
        <ele>711.79998779297</ele>
        <time>2026-08-12T14:07:25.000Z</time>
      </trkpt>
      <trkpt lat="45.21308" lon="5.73292">
        <ele>711.59997558594</ele>
        <time>2026-08-12T14:07:26.000Z</time>
      </trkpt>
      <trkpt lat="45.21309" lon="5.73291">
        <ele>711.79998779297</ele>
        <time>2026-08-12T14:07:27.000Z</time>
      </trkpt>
      <trkpt lat="45.2131" lon="5.73291">
        <ele>711.79998779297</ele>
        <time>2026-08-12T14:07:28.000Z</time>
      </trkpt>
      <trkpt lat="45.21311" lon="5.7329">
        <ele>712</ele>
        <time>2026-08-12T14:07:29.000Z</time>
      </trkpt>
      <trkpt lat="45.21312" lon="5.73289">
        <ele>712</ele>
        <time>2026-08-12T14:07:30.000Z</time>
      </trkpt>
      <trkpt lat="45.21312" lon="5.73288">
        <ele>712.20001220703</ele>
        <time>2026-08-12T14:07:31.000Z</time>
      </trkpt>
      <trkpt lat="45.21313" lon="5.73287">
        <ele>712.40002441406</ele>
        <time>2026-08-12T14:07:32.000Z</time>
      </trkpt>
      <trkpt lat="45.21314" lon="5.73287">
        <ele>712.79998779297</ele>
        <time>2026-08-12T14:07:33.000Z</time>
      </trkpt>
      <trkpt lat="45.21314" lon="5.73286">
        <ele>713</ele>
        <time>2026-08-12T14:07:34.000Z</time>
      </trkpt>
      <trkpt lat="45.21315" lon="5.73285">
        <ele>713</ele>
        <time>2026-08-12T14:07:35.000Z</time>
      </trkpt>
      <trkpt lat="45.21316" lon="5.73285">
        <ele>713.20001220703</ele>
        <time>2026-08-12T14:07:36.000Z</time>
      </trkpt>
      <trkpt lat="45.21317" lon="5.73284">
        <ele>713.59997558594</ele>
        <time>2026-08-12T14:07:37.000Z</time>
      </trkpt>
      <trkpt lat="45.21318" lon="5.73284">
        <ele>713.59997558594</ele>
        <time>2026-08-12T14:07:38.000Z</time>
      </trkpt>
      <trkpt lat="45.21319" lon="5.73284">
        <ele>713.59997558594</ele>
        <time>2026-08-12T14:07:39.000Z</time>
      </trkpt>
      <trkpt lat="45.21319" lon="5.73284">
        <ele>713.59997558594</ele>
        <time>2026-08-12T14:07:40.000Z</time>
      </trkpt>
      <trkpt lat="45.2132" lon="5.73284">
        <ele>713.59997558594</ele>
        <time>2026-08-12T14:07:41.000Z</time>
      </trkpt>
      <trkpt lat="45.21321" lon="5.73284">
        <ele>713.59997558594</ele>
        <time>2026-08-12T14:07:42.000Z</time>
      </trkpt>
      <trkpt lat="45.21322" lon="5.73284">
        <ele>713.59997558594</ele>
        <time>2026-08-12T14:07:43.000Z</time>
      </trkpt>
      <trkpt lat="45.21323" lon="5.73283">
        <ele>713.59997558594</ele>
        <time>2026-08-12T14:07:44.000Z</time>
      </trkpt>
      <trkpt lat="45.21324" lon="5.73283">
        <ele>713.59997558594</ele>
        <time>2026-08-12T14:07:45.000Z</time>
      </trkpt>
      <trkpt lat="45.21324" lon="5.73283">
        <ele>713.79998779297</ele>
        <time>2026-08-12T14:07:46.000Z</time>
      </trkpt>
      <trkpt lat="45.21326" lon="5.73283">
        <ele>714</ele>
        <time>2026-08-12T14:07:47.000Z</time>
      </trkpt>
      <trkpt lat="45.21327" lon="5.73283">
        <ele>714</ele>
        <time>2026-08-12T14:07:48.000Z</time>
      </trkpt>
      <trkpt lat="45.21328" lon="5.73282">
        <ele>714.20001220703</ele>
        <time>2026-08-12T14:07:49.000Z</time>
      </trkpt>
      <trkpt lat="45.21329" lon="5.73282">
        <ele>714.40002441406</ele>
        <time>2026-08-12T14:07:50.000Z</time>
      </trkpt>
      <trkpt lat="45.2133" lon="5.73283">
        <ele>715</ele>
        <time>2026-08-12T14:07:51.000Z</time>
      </trkpt>
      <trkpt lat="45.21331" lon="5.73282">
        <ele>715.59997558594</ele>
        <time>2026-08-12T14:07:52.000Z</time>
      </trkpt>
      <trkpt lat="45.21332" lon="5.73282">
        <ele>716.20001220703</ele>
        <time>2026-08-12T14:07:53.000Z</time>
      </trkpt>
      <trkpt lat="45.21333" lon="5.73282">
        <ele>716.79998779297</ele>
        <time>2026-08-12T14:07:54.000Z</time>
      </trkpt>
      <trkpt lat="45.21334" lon="5.73283">
        <ele>717.40002441406</ele>
        <time>2026-08-12T14:07:55.000Z</time>
      </trkpt>
      <trkpt lat="45.21335" lon="5.73283">
        <ele>717.59997558594</ele>
        <time>2026-08-12T14:07:56.000Z</time>
      </trkpt>
      <trkpt lat="45.21336" lon="5.73284">
        <ele>717.79998779297</ele>
        <time>2026-08-12T14:07:57.000Z</time>
      </trkpt>
      <trkpt lat="45.21336" lon="5.73285">
        <ele>718</ele>
        <time>2026-08-12T14:07:58.000Z</time>
      </trkpt>
      <trkpt lat="45.21336" lon="5.73287">
        <ele>718.20001220703</ele>
        <time>2026-08-12T14:07:59.000Z</time>
      </trkpt>
      <trkpt lat="45.21336" lon="5.73289">
        <ele>718.20001220703</ele>
        <time>2026-08-12T14:08:00.000Z</time>
      </trkpt>
      <trkpt lat="45.21336" lon="5.73291">
        <ele>718.40002441406</ele>
        <time>2026-08-12T14:08:01.000Z</time>
      </trkpt>
      <trkpt lat="45.21337" lon="5.73293">
        <ele>718</ele>
        <time>2026-08-12T14:08:02.000Z</time>
      </trkpt>
      <trkpt lat="45.21337" lon="5.73294">
        <ele>717.59997558594</ele>
        <time>2026-08-12T14:08:03.000Z</time>
      </trkpt>
      <trkpt lat="45.21338" lon="5.73295">
        <ele>716.79998779297</ele>
        <time>2026-08-12T14:08:04.000Z</time>
      </trkpt>
      <trkpt lat="45.21338" lon="5.73297">
        <ele>716.59997558594</ele>
        <time>2026-08-12T14:08:05.000Z</time>
      </trkpt>
      <trkpt lat="45.21338" lon="5.73298">
        <ele>716.59997558594</ele>
        <time>2026-08-12T14:08:06.000Z</time>
      </trkpt>
      <trkpt lat="45.21339" lon="5.733">
        <ele>716.20001220703</ele>
        <time>2026-08-12T14:08:07.000Z</time>
      </trkpt>
      <trkpt lat="45.2134" lon="5.73301">
        <ele>715.79998779297</ele>
        <time>2026-08-12T14:08:08.000Z</time>
      </trkpt>
      <trkpt lat="45.21341" lon="5.73302">
        <ele>715.59997558594</ele>
        <time>2026-08-12T14:08:09.000Z</time>
      </trkpt>
      <trkpt lat="45.21342" lon="5.73303">
        <ele>715.79998779297</ele>
        <time>2026-08-12T14:08:10.000Z</time>
      </trkpt>
      <trkpt lat="45.21343" lon="5.73304">
        <ele>715.79998779297</ele>
        <time>2026-08-12T14:08:11.000Z</time>
      </trkpt>
      <trkpt lat="45.21344" lon="5.73304">
        <ele>715.79998779297</ele>
        <time>2026-08-12T14:08:12.000Z</time>
      </trkpt>
      <trkpt lat="45.21345" lon="5.73305">
        <ele>715.79998779297</ele>
        <time>2026-08-12T14:08:13.000Z</time>
      </trkpt>
      <trkpt lat="45.21345" lon="5.73306">
        <ele>716</ele>
        <time>2026-08-12T14:08:14.000Z</time>
      </trkpt>
      <trkpt lat="45.21346" lon="5.73306">
        <ele>716.20001220703</ele>
        <time>2026-08-12T14:08:15.000Z</time>
      </trkpt>
      <trkpt lat="45.21347" lon="5.73306">
        <ele>716.40002441406</ele>
        <time>2026-08-12T14:08:16.000Z</time>
      </trkpt>
      <trkpt lat="45.21348" lon="5.73307">
        <ele>716.59997558594</ele>
        <time>2026-08-12T14:08:17.000Z</time>
      </trkpt>
      <trkpt lat="45.21349" lon="5.73307">
        <ele>717</ele>
        <time>2026-08-12T14:08:18.000Z</time>
      </trkpt>
      <trkpt lat="45.21349" lon="5.73308">
        <ele>717.59997558594</ele>
        <time>2026-08-12T14:08:19.000Z</time>
      </trkpt>
      <trkpt lat="45.2135" lon="5.73308">
        <ele>717.79998779297</ele>
        <time>2026-08-12T14:08:20.000Z</time>
      </trkpt>
      <trkpt lat="45.21351" lon="5.73309">
        <ele>718.20001220703</ele>
        <time>2026-08-12T14:08:21.000Z</time>
      </trkpt>
      <trkpt lat="45.21352" lon="5.73309">
        <ele>718.59997558594</ele>
        <time>2026-08-12T14:08:22.000Z</time>
      </trkpt>
      <trkpt lat="45.21353" lon="5.7331">
        <ele>718.79998779297</ele>
        <time>2026-08-12T14:08:23.000Z</time>
      </trkpt>
      <trkpt lat="45.21354" lon="5.7331">
        <ele>718.79998779297</ele>
        <time>2026-08-12T14:08:24.000Z</time>
      </trkpt>
      <trkpt lat="45.21355" lon="5.73311">
        <ele>718.79998779297</ele>
        <time>2026-08-12T14:08:25.000Z</time>
      </trkpt>
      <trkpt lat="45.21356" lon="5.73311">
        <ele>719</ele>
        <time>2026-08-12T14:08:26.000Z</time>
      </trkpt>
      <trkpt lat="45.21356" lon="5.73312">
        <ele>719</ele>
        <time>2026-08-12T14:08:27.000Z</time>
      </trkpt>
      <trkpt lat="45.21357" lon="5.73313">
        <ele>719</ele>
        <time>2026-08-12T14:08:28.000Z</time>
      </trkpt>
      <trkpt lat="45.21358" lon="5.73314">
        <ele>719.40002441406</ele>
        <time>2026-08-12T14:08:29.000Z</time>
      </trkpt>
      <trkpt lat="45.21358" lon="5.73314">
        <ele>719.79998779297</ele>
        <time>2026-08-12T14:08:30.000Z</time>
      </trkpt>
      <trkpt lat="45.21359" lon="5.73315">
        <ele>720</ele>
        <time>2026-08-12T14:08:31.000Z</time>
      </trkpt>
      <trkpt lat="45.21359" lon="5.73316">
        <ele>720.40002441406</ele>
        <time>2026-08-12T14:08:32.000Z</time>
      </trkpt>
      <trkpt lat="45.21361" lon="5.73317">
        <ele>720.79998779297</ele>
        <time>2026-08-12T14:08:33.000Z</time>
      </trkpt>
      <trkpt lat="45.21362" lon="5.73319">
        <ele>721</ele>
        <time>2026-08-12T14:08:34.000Z</time>
      </trkpt>
      <trkpt lat="45.21362" lon="5.7332">
        <ele>721.40002441406</ele>
        <time>2026-08-12T14:08:35.000Z</time>
      </trkpt>
      <trkpt lat="45.21363" lon="5.73321">
        <ele>721</ele>
        <time>2026-08-12T14:08:36.000Z</time>
      </trkpt>
      <trkpt lat="45.21364" lon="5.73323">
        <ele>720.79998779297</ele>
        <time>2026-08-12T14:08:37.000Z</time>
      </trkpt>
      <trkpt lat="45.21365" lon="5.73324">
        <ele>720.59997558594</ele>
        <time>2026-08-12T14:08:38.000Z</time>
      </trkpt>
      <trkpt lat="45.21366" lon="5.73325">
        <ele>720.59997558594</ele>
        <time>2026-08-12T14:08:39.000Z</time>
      </trkpt>
      <trkpt lat="45.21367" lon="5.73326">
        <ele>720.59997558594</ele>
        <time>2026-08-12T14:08:40.000Z</time>
      </trkpt>
      <trkpt lat="45.21368" lon="5.73327">
        <ele>720.59997558594</ele>
        <time>2026-08-12T14:08:41.000Z</time>
      </trkpt>
      <trkpt lat="45.21368" lon="5.73327">
        <ele>720.59997558594</ele>
        <time>2026-08-12T14:08:42.000Z</time>
      </trkpt>
      <trkpt lat="45.21368" lon="5.73328">
        <ele>720.59997558594</ele>
        <time>2026-08-12T14:08:43.000Z</time>
      </trkpt>
      <trkpt lat="45.21369" lon="5.73329">
        <ele>720.59997558594</ele>
        <time>2026-08-12T14:08:44.000Z</time>
      </trkpt>
      <trkpt lat="45.2137" lon="5.7333">
        <ele>720.59997558594</ele>
        <time>2026-08-12T14:08:45.000Z</time>
      </trkpt>
      <trkpt lat="45.21371" lon="5.73331">
        <ele>720.59997558594</ele>
        <time>2026-08-12T14:08:46.000Z</time>
      </trkpt>
      <trkpt lat="45.21371" lon="5.73332">
        <ele>720.59997558594</ele>
        <time>2026-08-12T14:08:47.000Z</time>
      </trkpt>
      <trkpt lat="45.21372" lon="5.73333">
        <ele>720.59997558594</ele>
        <time>2026-08-12T14:08:48.000Z</time>
      </trkpt>
      <trkpt lat="45.21373" lon="5.73334">
        <ele>720.59997558594</ele>
        <time>2026-08-12T14:08:49.000Z</time>
      </trkpt>
      <trkpt lat="45.21374" lon="5.73334">
        <ele>720.79998779297</ele>
        <time>2026-08-12T14:08:50.000Z</time>
      </trkpt>
      <trkpt lat="45.21375" lon="5.73334">
        <ele>721</ele>
        <time>2026-08-12T14:08:51.000Z</time>
      </trkpt>
      <trkpt lat="45.21375" lon="5.73334">
        <ele>721</ele>
        <time>2026-08-12T14:08:52.000Z</time>
      </trkpt>
      <trkpt lat="45.21376" lon="5.73334">
        <ele>721.20001220703</ele>
        <time>2026-08-12T14:08:53.000Z</time>
      </trkpt>
      <trkpt lat="45.21376" lon="5.73336">
        <ele>721.59997558594</ele>
        <time>2026-08-12T14:08:54.000Z</time>
      </trkpt>
      <trkpt lat="45.21376" lon="5.73338">
        <ele>722.20001220703</ele>
        <time>2026-08-12T14:08:55.000Z</time>
      </trkpt>
      <trkpt lat="45.21377" lon="5.73339">
        <ele>722.59997558594</ele>
        <time>2026-08-12T14:08:56.000Z</time>
      </trkpt>
      <trkpt lat="45.21377" lon="5.73341">
        <ele>723</ele>
        <time>2026-08-12T14:08:57.000Z</time>
      </trkpt>
      <trkpt lat="45.21377" lon="5.73343">
        <ele>723.40002441406</ele>
        <time>2026-08-12T14:08:58.000Z</time>
      </trkpt>
      <trkpt lat="45.21377" lon="5.73345">
        <ele>723.59997558594</ele>
        <time>2026-08-12T14:08:59.000Z</time>
      </trkpt>
      <trkpt lat="45.21377" lon="5.73347">
        <ele>723.79998779297</ele>
        <time>2026-08-12T14:09:00.000Z</time>
      </trkpt>
      <trkpt lat="45.21378" lon="5.73348">
        <ele>723.59997558594</ele>
        <time>2026-08-12T14:09:01.000Z</time>
      </trkpt>
      <trkpt lat="45.21378" lon="5.73349">
        <ele>723.59997558594</ele>
        <time>2026-08-12T14:09:02.000Z</time>
      </trkpt>
      <trkpt lat="45.21379" lon="5.7335">
        <ele>723.40002441406</ele>
        <time>2026-08-12T14:09:03.000Z</time>
      </trkpt>
      <trkpt lat="45.21379" lon="5.73351">
        <ele>723.40002441406</ele>
        <time>2026-08-12T14:09:04.000Z</time>
      </trkpt>
      <trkpt lat="45.2138" lon="5.73352">
        <ele>723.40002441406</ele>
        <time>2026-08-12T14:09:05.000Z</time>
      </trkpt>
      <trkpt lat="45.2138" lon="5.73352">
        <ele>723.59997558594</ele>
        <time>2026-08-12T14:09:06.000Z</time>
      </trkpt>
      <trkpt lat="45.21381" lon="5.73353">
        <ele>723.59997558594</ele>
        <time>2026-08-12T14:09:07.000Z</time>
      </trkpt>
      <trkpt lat="45.21381" lon="5.73353">
        <ele>724.20001220703</ele>
        <time>2026-08-12T14:09:08.000Z</time>
      </trkpt>
      <trkpt lat="45.21382" lon="5.73354">
        <ele>725</ele>
        <time>2026-08-12T14:09:09.000Z</time>
      </trkpt>
      <trkpt lat="45.21382" lon="5.73354">
        <ele>725.20001220703</ele>
        <time>2026-08-12T14:09:10.000Z</time>
      </trkpt>
      <trkpt lat="45.21383" lon="5.73355">
        <ele>725.20001220703</ele>
        <time>2026-08-12T14:09:11.000Z</time>
      </trkpt>
      <trkpt lat="45.21384" lon="5.73355">
        <ele>726</ele>
        <time>2026-08-12T14:09:12.000Z</time>
      </trkpt>
      <trkpt lat="45.21384" lon="5.73356">
        <ele>726</ele>
        <time>2026-08-12T14:09:13.000Z</time>
      </trkpt>
      <trkpt lat="45.21385" lon="5.73356">
        <ele>726.59997558594</ele>
        <time>2026-08-12T14:09:14.000Z</time>
      </trkpt>
      <trkpt lat="45.21386" lon="5.73357">
        <ele>726.59997558594</ele>
        <time>2026-08-12T14:09:15.000Z</time>
      </trkpt>
      <trkpt lat="45.21387" lon="5.73357">
        <ele>726.59997558594</ele>
        <time>2026-08-12T14:09:16.000Z</time>
      </trkpt>
      <trkpt lat="45.21388" lon="5.73357">
        <ele>726.79998779297</ele>
        <time>2026-08-12T14:09:17.000Z</time>
      </trkpt>
      <trkpt lat="45.21388" lon="5.73358">
        <ele>727.20001220703</ele>
        <time>2026-08-12T14:09:18.000Z</time>
      </trkpt>
      <trkpt lat="45.21389" lon="5.73359">
        <ele>727.59997558594</ele>
        <time>2026-08-12T14:09:19.000Z</time>
      </trkpt>
      <trkpt lat="45.2139" lon="5.7336">
        <ele>728</ele>
        <time>2026-08-12T14:09:20.000Z</time>
      </trkpt>
      <trkpt lat="45.21391" lon="5.73361">
        <ele>728.59997558594</ele>
        <time>2026-08-12T14:09:21.000Z</time>
      </trkpt>
      <trkpt lat="45.21391" lon="5.73363">
        <ele>729.20001220703</ele>
        <time>2026-08-12T14:09:22.000Z</time>
      </trkpt>
      <trkpt lat="45.21392" lon="5.73365">
        <ele>729.40002441406</ele>
        <time>2026-08-12T14:09:23.000Z</time>
      </trkpt>
      <trkpt lat="45.21392" lon="5.73367">
        <ele>729.59997558594</ele>
        <time>2026-08-12T14:09:24.000Z</time>
      </trkpt>
      <trkpt lat="45.21393" lon="5.73368">
        <ele>729.79998779297</ele>
        <time>2026-08-12T14:09:25.000Z</time>
      </trkpt>
      <trkpt lat="45.21393" lon="5.7337">
        <ele>731.20001220703</ele>
        <time>2026-08-12T14:09:26.000Z</time>
      </trkpt>
      <trkpt lat="45.21394" lon="5.73372">
        <ele>732.20001220703</ele>
        <time>2026-08-12T14:09:27.000Z</time>
      </trkpt>
      <trkpt lat="45.21394" lon="5.73372">
        <ele>732.40002441406</ele>
        <time>2026-08-12T14:09:28.000Z</time>
      </trkpt>
      <trkpt lat="45.21395" lon="5.73373">
        <ele>732.59997558594</ele>
        <time>2026-08-12T14:09:29.000Z</time>
      </trkpt>
      <trkpt lat="45.21396" lon="5.73374">
        <ele>733</ele>
        <time>2026-08-12T14:09:30.000Z</time>
      </trkpt>
      <trkpt lat="45.21396" lon="5.73374">
        <ele>733.40002441406</ele>
        <time>2026-08-12T14:09:31.000Z</time>
      </trkpt>
      <trkpt lat="45.21397" lon="5.73375">
        <ele>733.40002441406</ele>
        <time>2026-08-12T14:09:32.000Z</time>
      </trkpt>
      <trkpt lat="45.21398" lon="5.73375">
        <ele>733</ele>
        <time>2026-08-12T14:09:33.000Z</time>
      </trkpt>
      <trkpt lat="45.21398" lon="5.73376">
        <ele>732.79998779297</ele>
        <time>2026-08-12T14:09:34.000Z</time>
      </trkpt>
      <trkpt lat="45.21399" lon="5.73376">
        <ele>732.59997558594</ele>
        <time>2026-08-12T14:09:35.000Z</time>
      </trkpt>
      <trkpt lat="45.21399" lon="5.73376">
        <ele>732.59997558594</ele>
        <time>2026-08-12T14:09:36.000Z</time>
      </trkpt>
      <trkpt lat="45.214" lon="5.73377">
        <ele>732.59997558594</ele>
        <time>2026-08-12T14:09:37.000Z</time>
      </trkpt>
      <trkpt lat="45.21401" lon="5.73377">
        <ele>732.79998779297</ele>
        <time>2026-08-12T14:09:38.000Z</time>
      </trkpt>
      <trkpt lat="45.21402" lon="5.73377">
        <ele>733.40002441406</ele>
        <time>2026-08-12T14:09:39.000Z</time>
      </trkpt>
      <trkpt lat="45.21402" lon="5.73377">
        <ele>733.59997558594</ele>
        <time>2026-08-12T14:09:40.000Z</time>
      </trkpt>
      <trkpt lat="45.21403" lon="5.73378">
        <ele>734</ele>
        <time>2026-08-12T14:09:41.000Z</time>
      </trkpt>
      <trkpt lat="45.21404" lon="5.73378">
        <ele>734.40002441406</ele>
        <time>2026-08-12T14:09:42.000Z</time>
      </trkpt>
      <trkpt lat="45.21405" lon="5.73379">
        <ele>734.59997558594</ele>
        <time>2026-08-12T14:09:43.000Z</time>
      </trkpt>
      <trkpt lat="45.21406" lon="5.7338">
        <ele>734.79998779297</ele>
        <time>2026-08-12T14:09:44.000Z</time>
      </trkpt>
      <trkpt lat="45.21407" lon="5.73381">
        <ele>734.79998779297</ele>
        <time>2026-08-12T14:09:45.000Z</time>
      </trkpt>
      <trkpt lat="45.21407" lon="5.73383">
        <ele>734.79998779297</ele>
        <time>2026-08-12T14:09:46.000Z</time>
      </trkpt>
      <trkpt lat="45.21408" lon="5.73385">
        <ele>734.79998779297</ele>
        <time>2026-08-12T14:09:47.000Z</time>
      </trkpt>
      <trkpt lat="45.21408" lon="5.73386">
        <ele>734.40002441406</ele>
        <time>2026-08-12T14:09:48.000Z</time>
      </trkpt>
      <trkpt lat="45.21408" lon="5.73388">
        <ele>734.20001220703</ele>
        <time>2026-08-12T14:09:49.000Z</time>
      </trkpt>
      <trkpt lat="45.21408" lon="5.73389">
        <ele>734.20001220703</ele>
        <time>2026-08-12T14:09:50.000Z</time>
      </trkpt>
      <trkpt lat="45.21409" lon="5.73391">
        <ele>734.20001220703</ele>
        <time>2026-08-12T14:09:51.000Z</time>
      </trkpt>
      <trkpt lat="45.21409" lon="5.73392">
        <ele>734.40002441406</ele>
        <time>2026-08-12T14:09:52.000Z</time>
      </trkpt>
      <trkpt lat="45.21409" lon="5.73394">
        <ele>734.79998779297</ele>
        <time>2026-08-12T14:09:53.000Z</time>
      </trkpt>
      <trkpt lat="45.21409" lon="5.73395">
        <ele>735.20001220703</ele>
        <time>2026-08-12T14:09:54.000Z</time>
      </trkpt>
      <trkpt lat="45.2141" lon="5.73397">
        <ele>735.79998779297</ele>
        <time>2026-08-12T14:09:55.000Z</time>
      </trkpt>
      <trkpt lat="45.2141" lon="5.73398">
        <ele>736.20001220703</ele>
        <time>2026-08-12T14:09:56.000Z</time>
      </trkpt>
      <trkpt lat="45.21411" lon="5.73399">
        <ele>736.59997558594</ele>
        <time>2026-08-12T14:09:57.000Z</time>
      </trkpt>
      <trkpt lat="45.21411" lon="5.734">
        <ele>737</ele>
        <time>2026-08-12T14:09:58.000Z</time>
      </trkpt>
      <trkpt lat="45.21412" lon="5.73402">
        <ele>737.20001220703</ele>
        <time>2026-08-12T14:09:59.000Z</time>
      </trkpt>
      <trkpt lat="45.21412" lon="5.73403">
        <ele>737.59997558594</ele>
        <time>2026-08-12T14:10:00.000Z</time>
      </trkpt>
      <trkpt lat="45.21412" lon="5.73404">
        <ele>738</ele>
        <time>2026-08-12T14:10:01.000Z</time>
      </trkpt>
      <trkpt lat="45.21413" lon="5.73404">
        <ele>738.40002441406</ele>
        <time>2026-08-12T14:10:02.000Z</time>
      </trkpt>
      <trkpt lat="45.21413" lon="5.73405">
        <ele>738.59997558594</ele>
        <time>2026-08-12T14:10:03.000Z</time>
      </trkpt>
      <trkpt lat="45.21414" lon="5.73406">
        <ele>739.20001220703</ele>
        <time>2026-08-12T14:10:04.000Z</time>
      </trkpt>
      <trkpt lat="45.21415" lon="5.73407">
        <ele>739.40002441406</ele>
        <time>2026-08-12T14:10:05.000Z</time>
      </trkpt>
      <trkpt lat="45.21416" lon="5.73408">
        <ele>739.79998779297</ele>
        <time>2026-08-12T14:10:06.000Z</time>
      </trkpt>
      <trkpt lat="45.21417" lon="5.73409">
        <ele>740</ele>
        <time>2026-08-12T14:10:07.000Z</time>
      </trkpt>
      <trkpt lat="45.21417" lon="5.73409">
        <ele>740.20001220703</ele>
        <time>2026-08-12T14:10:08.000Z</time>
      </trkpt>
      <trkpt lat="45.21418" lon="5.7341">
        <ele>740.40002441406</ele>
        <time>2026-08-12T14:10:09.000Z</time>
      </trkpt>
      <trkpt lat="45.21419" lon="5.73411">
        <ele>740.59997558594</ele>
        <time>2026-08-12T14:10:10.000Z</time>
      </trkpt>
      <trkpt lat="45.21419" lon="5.73412">
        <ele>740.59997558594</ele>
        <time>2026-08-12T14:10:11.000Z</time>
      </trkpt>
      <trkpt lat="45.2142" lon="5.73413">
        <ele>741.20001220703</ele>
        <time>2026-08-12T14:10:12.000Z</time>
      </trkpt>
      <trkpt lat="45.21421" lon="5.73414">
        <ele>741.40002441406</ele>
        <time>2026-08-12T14:10:13.000Z</time>
      </trkpt>
      <trkpt lat="45.21421" lon="5.73415">
        <ele>741.59997558594</ele>
        <time>2026-08-12T14:10:14.000Z</time>
      </trkpt>
      <trkpt lat="45.21422" lon="5.73416">
        <ele>741.59997558594</ele>
        <time>2026-08-12T14:10:15.000Z</time>
      </trkpt>
      <trkpt lat="45.21423" lon="5.73417">
        <ele>741.79998779297</ele>
        <time>2026-08-12T14:10:16.000Z</time>
      </trkpt>
      <trkpt lat="45.21423" lon="5.73418">
        <ele>741.79998779297</ele>
        <time>2026-08-12T14:10:17.000Z</time>
      </trkpt>
      <trkpt lat="45.21424" lon="5.73419">
        <ele>741.79998779297</ele>
        <time>2026-08-12T14:10:18.000Z</time>
      </trkpt>
      <trkpt lat="45.21425" lon="5.7342">
        <ele>742</ele>
        <time>2026-08-12T14:10:19.000Z</time>
      </trkpt>
      <trkpt lat="45.21425" lon="5.73421">
        <ele>742</ele>
        <time>2026-08-12T14:10:20.000Z</time>
      </trkpt>
      <trkpt lat="45.21426" lon="5.73422">
        <ele>742.20001220703</ele>
        <time>2026-08-12T14:10:21.000Z</time>
      </trkpt>
      <trkpt lat="45.21426" lon="5.73424">
        <ele>742.20001220703</ele>
        <time>2026-08-12T14:10:22.000Z</time>
      </trkpt>
      <trkpt lat="45.21427" lon="5.73425">
        <ele>742.40002441406</ele>
        <time>2026-08-12T14:10:23.000Z</time>
      </trkpt>
      <trkpt lat="45.21428" lon="5.73426">
        <ele>742.40002441406</ele>
        <time>2026-08-12T14:10:24.000Z</time>
      </trkpt>
      <trkpt lat="45.21428" lon="5.73428">
        <ele>742.40002441406</ele>
        <time>2026-08-12T14:10:25.000Z</time>
      </trkpt>
      <trkpt lat="45.21429" lon="5.73429">
        <ele>742.40002441406</ele>
        <time>2026-08-12T14:10:26.000Z</time>
      </trkpt>
      <trkpt lat="45.21429" lon="5.7343">
        <ele>742.59997558594</ele>
        <time>2026-08-12T14:10:27.000Z</time>
      </trkpt>
      <trkpt lat="45.21429" lon="5.73431">
        <ele>742.59997558594</ele>
        <time>2026-08-12T14:10:28.000Z</time>
      </trkpt>
      <trkpt lat="45.21429" lon="5.73432">
        <ele>742.59997558594</ele>
        <time>2026-08-12T14:10:29.000Z</time>
      </trkpt>
      <trkpt lat="45.2143" lon="5.73434">
        <ele>742.59997558594</ele>
        <time>2026-08-12T14:10:30.000Z</time>
      </trkpt>
      <trkpt lat="45.21431" lon="5.73435">
        <ele>742.59997558594</ele>
        <time>2026-08-12T14:10:31.000Z</time>
      </trkpt>
      <trkpt lat="45.21431" lon="5.73436">
        <ele>742.20001220703</ele>
        <time>2026-08-12T14:10:32.000Z</time>
      </trkpt>
      <trkpt lat="45.21432" lon="5.73437">
        <ele>742</ele>
        <time>2026-08-12T14:10:33.000Z</time>
      </trkpt>
      <trkpt lat="45.21432" lon="5.73437">
        <ele>741.59997558594</ele>
        <time>2026-08-12T14:10:34.000Z</time>
      </trkpt>
      <trkpt lat="45.21433" lon="5.73438">
        <ele>741.20001220703</ele>
        <time>2026-08-12T14:10:35.000Z</time>
      </trkpt>
      <trkpt lat="45.21434" lon="5.73439">
        <ele>741</ele>
        <time>2026-08-12T14:10:36.000Z</time>
      </trkpt>
      <trkpt lat="45.21435" lon="5.7344">
        <ele>740.59997558594</ele>
        <time>2026-08-12T14:10:37.000Z</time>
      </trkpt>
      <trkpt lat="45.21435" lon="5.73441">
        <ele>739.79998779297</ele>
        <time>2026-08-12T14:10:38.000Z</time>
      </trkpt>
      <trkpt lat="45.21436" lon="5.73442">
        <ele>739.20001220703</ele>
        <time>2026-08-12T14:10:39.000Z</time>
      </trkpt>
      <trkpt lat="45.21437" lon="5.73442">
        <ele>739</ele>
        <time>2026-08-12T14:10:40.000Z</time>
      </trkpt>
      <trkpt lat="45.21437" lon="5.73443">
        <ele>738.79998779297</ele>
        <time>2026-08-12T14:10:41.000Z</time>
      </trkpt>
      <trkpt lat="45.21438" lon="5.73444">
        <ele>738.40002441406</ele>
        <time>2026-08-12T14:10:42.000Z</time>
      </trkpt>
      <trkpt lat="45.21439" lon="5.73445">
        <ele>738.40002441406</ele>
        <time>2026-08-12T14:10:43.000Z</time>
      </trkpt>
      <trkpt lat="45.21439" lon="5.73445">
        <ele>738.40002441406</ele>
        <time>2026-08-12T14:10:44.000Z</time>
      </trkpt>
      <trkpt lat="45.2144" lon="5.73447">
        <ele>738.40002441406</ele>
        <time>2026-08-12T14:10:45.000Z</time>
      </trkpt>
      <trkpt lat="45.2144" lon="5.73447">
        <ele>738.79998779297</ele>
        <time>2026-08-12T14:10:46.000Z</time>
      </trkpt>
      <trkpt lat="45.2144" lon="5.73449">
        <ele>739</ele>
        <time>2026-08-12T14:10:47.000Z</time>
      </trkpt>
      <trkpt lat="45.21441" lon="5.73449">
        <ele>739.40002441406</ele>
        <time>2026-08-12T14:10:48.000Z</time>
      </trkpt>
      <trkpt lat="45.21442" lon="5.7345">
        <ele>739.79998779297</ele>
        <time>2026-08-12T14:10:49.000Z</time>
      </trkpt>
      <trkpt lat="45.21442" lon="5.73452">
        <ele>740.20001220703</ele>
        <time>2026-08-12T14:10:50.000Z</time>
      </trkpt>
      <trkpt lat="45.21442" lon="5.73453">
        <ele>740.40002441406</ele>
        <time>2026-08-12T14:10:51.000Z</time>
      </trkpt>
      <trkpt lat="45.21442" lon="5.73454">
        <ele>740.79998779297</ele>
        <time>2026-08-12T14:10:52.000Z</time>
      </trkpt>
      <trkpt lat="45.21443" lon="5.73455">
        <ele>741.40002441406</ele>
        <time>2026-08-12T14:10:53.000Z</time>
      </trkpt>
      <trkpt lat="45.21443" lon="5.73456">
        <ele>742</ele>
        <time>2026-08-12T14:10:54.000Z</time>
      </trkpt>
      <trkpt lat="45.21444" lon="5.73458">
        <ele>742.79998779297</ele>
        <time>2026-08-12T14:10:55.000Z</time>
      </trkpt>
      <trkpt lat="45.21444" lon="5.73458">
        <ele>743.40002441406</ele>
        <time>2026-08-12T14:10:56.000Z</time>
      </trkpt>
      <trkpt lat="45.21445" lon="5.73459">
        <ele>744</ele>
        <time>2026-08-12T14:10:57.000Z</time>
      </trkpt>
      <trkpt lat="45.21445" lon="5.7346">
        <ele>744.59997558594</ele>
        <time>2026-08-12T14:10:58.000Z</time>
      </trkpt>
      <trkpt lat="45.21445" lon="5.73461">
        <ele>745.20001220703</ele>
        <time>2026-08-12T14:10:59.000Z</time>
      </trkpt>
      <trkpt lat="45.21446" lon="5.73462">
        <ele>745.59997558594</ele>
        <time>2026-08-12T14:11:00.000Z</time>
      </trkpt>
      <trkpt lat="45.21446" lon="5.73463">
        <ele>745.79998779297</ele>
        <time>2026-08-12T14:11:01.000Z</time>
      </trkpt>
      <trkpt lat="45.21446" lon="5.73464">
        <ele>746</ele>
        <time>2026-08-12T14:11:02.000Z</time>
      </trkpt>
      <trkpt lat="45.21447" lon="5.73465">
        <ele>746.59997558594</ele>
        <time>2026-08-12T14:11:03.000Z</time>
      </trkpt>
      <trkpt lat="45.21447" lon="5.73466">
        <ele>747.59997558594</ele>
        <time>2026-08-12T14:11:04.000Z</time>
      </trkpt>
      <trkpt lat="45.21448" lon="5.73466">
        <ele>748.20001220703</ele>
        <time>2026-08-12T14:11:05.000Z</time>
      </trkpt>
      <trkpt lat="45.21448" lon="5.73467">
        <ele>748.40002441406</ele>
        <time>2026-08-12T14:11:06.000Z</time>
      </trkpt>
      <trkpt lat="45.21449" lon="5.73468">
        <ele>748.79998779297</ele>
        <time>2026-08-12T14:11:07.000Z</time>
      </trkpt>
      <trkpt lat="45.2145" lon="5.73469">
        <ele>749.20001220703</ele>
        <time>2026-08-12T14:11:08.000Z</time>
      </trkpt>
      <trkpt lat="45.2145" lon="5.7347">
        <ele>749.59997558594</ele>
        <time>2026-08-12T14:11:09.000Z</time>
      </trkpt>
      <trkpt lat="45.21451" lon="5.73471">
        <ele>750</ele>
        <time>2026-08-12T14:11:10.000Z</time>
      </trkpt>
      <trkpt lat="45.21452" lon="5.73472">
        <ele>750.59997558594</ele>
        <time>2026-08-12T14:11:11.000Z</time>
      </trkpt>
      <trkpt lat="45.21453" lon="5.73473">
        <ele>751</ele>
        <time>2026-08-12T14:11:12.000Z</time>
      </trkpt>
      <trkpt lat="45.21453" lon="5.73474">
        <ele>751.40002441406</ele>
        <time>2026-08-12T14:11:13.000Z</time>
      </trkpt>
      <trkpt lat="45.21454" lon="5.73475">
        <ele>751.59997558594</ele>
        <time>2026-08-12T14:11:14.000Z</time>
      </trkpt>
      <trkpt lat="45.21455" lon="5.73477">
        <ele>751.59997558594</ele>
        <time>2026-08-12T14:11:15.000Z</time>
      </trkpt>
      <trkpt lat="45.21455" lon="5.73478">
        <ele>751.40002441406</ele>
        <time>2026-08-12T14:11:16.000Z</time>
      </trkpt>
      <trkpt lat="45.21456" lon="5.73479">
        <ele>751.20001220703</ele>
        <time>2026-08-12T14:11:17.000Z</time>
      </trkpt>
      <trkpt lat="45.21457" lon="5.73479">
        <ele>751.20001220703</ele>
        <time>2026-08-12T14:11:18.000Z</time>
      </trkpt>
      <trkpt lat="45.21457" lon="5.73479">
        <ele>751.20001220703</ele>
        <time>2026-08-12T14:11:19.000Z</time>
      </trkpt>
      <trkpt lat="45.21458" lon="5.73479">
        <ele>751.20001220703</ele>
        <time>2026-08-12T14:11:20.000Z</time>
      </trkpt>
      <trkpt lat="45.21458" lon="5.7348">
        <ele>751.59997558594</ele>
        <time>2026-08-12T14:11:21.000Z</time>
      </trkpt>
      <trkpt lat="45.21459" lon="5.7348">
        <ele>752</ele>
        <time>2026-08-12T14:11:22.000Z</time>
      </trkpt>
      <trkpt lat="45.2146" lon="5.73481">
        <ele>752.40002441406</ele>
        <time>2026-08-12T14:11:23.000Z</time>
      </trkpt>
      <trkpt lat="45.21461" lon="5.73482">
        <ele>752.59997558594</ele>
        <time>2026-08-12T14:11:24.000Z</time>
      </trkpt>
      <trkpt lat="45.21462" lon="5.73483">
        <ele>752.79998779297</ele>
        <time>2026-08-12T14:11:25.000Z</time>
      </trkpt>
      <trkpt lat="45.21463" lon="5.73483">
        <ele>753</ele>
        <time>2026-08-12T14:11:26.000Z</time>
      </trkpt>
      <trkpt lat="45.21464" lon="5.73485">
        <ele>753</ele>
        <time>2026-08-12T14:11:27.000Z</time>
      </trkpt>
      <trkpt lat="45.21464" lon="5.73485">
        <ele>753.20001220703</ele>
        <time>2026-08-12T14:11:28.000Z</time>
      </trkpt>
      <trkpt lat="45.21465" lon="5.73486">
        <ele>753.20001220703</ele>
        <time>2026-08-12T14:11:29.000Z</time>
      </trkpt>
      <trkpt lat="45.21465" lon="5.73487">
        <ele>753.40002441406</ele>
        <time>2026-08-12T14:11:30.000Z</time>
      </trkpt>
      <trkpt lat="45.21466" lon="5.73488">
        <ele>753.40002441406</ele>
        <time>2026-08-12T14:11:31.000Z</time>
      </trkpt>
      <trkpt lat="45.21466" lon="5.73489">
        <ele>753.59997558594</ele>
        <time>2026-08-12T14:11:32.000Z</time>
      </trkpt>
      <trkpt lat="45.21467" lon="5.7349">
        <ele>753.59997558594</ele>
        <time>2026-08-12T14:11:33.000Z</time>
      </trkpt>
      <trkpt lat="45.21467" lon="5.73491">
        <ele>753.40002441406</ele>
        <time>2026-08-12T14:11:34.000Z</time>
      </trkpt>
      <trkpt lat="45.21468" lon="5.73493">
        <ele>753.20001220703</ele>
        <time>2026-08-12T14:11:35.000Z</time>
      </trkpt>
      <trkpt lat="45.21468" lon="5.73494">
        <ele>753.20001220703</ele>
        <time>2026-08-12T14:11:36.000Z</time>
      </trkpt>
      <trkpt lat="45.21468" lon="5.73495">
        <ele>753.40002441406</ele>
        <time>2026-08-12T14:11:37.000Z</time>
      </trkpt>
      <trkpt lat="45.21469" lon="5.73496">
        <ele>753.40002441406</ele>
        <time>2026-08-12T14:11:38.000Z</time>
      </trkpt>
      <trkpt lat="45.21469" lon="5.73497">
        <ele>753.40002441406</ele>
        <time>2026-08-12T14:11:39.000Z</time>
      </trkpt>
      <trkpt lat="45.21469" lon="5.73498">
        <ele>753.59997558594</ele>
        <time>2026-08-12T14:11:40.000Z</time>
      </trkpt>
      <trkpt lat="45.2147" lon="5.735">
        <ele>753.59997558594</ele>
        <time>2026-08-12T14:11:41.000Z</time>
      </trkpt>
      <trkpt lat="45.2147" lon="5.735">
        <ele>753.59997558594</ele>
        <time>2026-08-12T14:11:42.000Z</time>
      </trkpt>
      <trkpt lat="45.2147" lon="5.73502">
        <ele>753.59997558594</ele>
        <time>2026-08-12T14:11:43.000Z</time>
      </trkpt>
      <trkpt lat="45.21471" lon="5.73503">
        <ele>754</ele>
        <time>2026-08-12T14:11:44.000Z</time>
      </trkpt>
      <trkpt lat="45.21471" lon="5.73505">
        <ele>754.40002441406</ele>
        <time>2026-08-12T14:11:45.000Z</time>
      </trkpt>
      <trkpt lat="45.21472" lon="5.73506">
        <ele>754.79998779297</ele>
        <time>2026-08-12T14:11:46.000Z</time>
      </trkpt>
      <trkpt lat="45.21472" lon="5.73507">
        <ele>755.40002441406</ele>
        <time>2026-08-12T14:11:47.000Z</time>
      </trkpt>
      <trkpt lat="45.21472" lon="5.73509">
        <ele>755.79998779297</ele>
        <time>2026-08-12T14:11:48.000Z</time>
      </trkpt>
      <trkpt lat="45.21472" lon="5.73511">
        <ele>755.59997558594</ele>
        <time>2026-08-12T14:11:49.000Z</time>
      </trkpt>
      <trkpt lat="45.21472" lon="5.73512">
        <ele>755.59997558594</ele>
        <time>2026-08-12T14:11:50.000Z</time>
      </trkpt>
      <trkpt lat="45.21472" lon="5.73513">
        <ele>755.40002441406</ele>
        <time>2026-08-12T14:11:51.000Z</time>
      </trkpt>
      <trkpt lat="45.21472" lon="5.73514">
        <ele>755.20001220703</ele>
        <time>2026-08-12T14:11:52.000Z</time>
      </trkpt>
      <trkpt lat="45.21473" lon="5.73514">
        <ele>754.79998779297</ele>
        <time>2026-08-12T14:11:53.000Z</time>
      </trkpt>
      <trkpt lat="45.21473" lon="5.73515">
        <ele>754.59997558594</ele>
        <time>2026-08-12T14:11:54.000Z</time>
      </trkpt>
      <trkpt lat="45.21473" lon="5.73517">
        <ele>755</ele>
        <time>2026-08-12T14:11:55.000Z</time>
      </trkpt>
      <trkpt lat="45.21473" lon="5.73518">
        <ele>755.20001220703</ele>
        <time>2026-08-12T14:11:56.000Z</time>
      </trkpt>
      <trkpt lat="45.21473" lon="5.73519">
        <ele>755.79998779297</ele>
        <time>2026-08-12T14:11:57.000Z</time>
      </trkpt>
      <trkpt lat="45.21474" lon="5.73521">
        <ele>755.79998779297</ele>
        <time>2026-08-12T14:11:58.000Z</time>
      </trkpt>
      <trkpt lat="45.21474" lon="5.73522">
        <ele>755.79998779297</ele>
        <time>2026-08-12T14:11:59.000Z</time>
      </trkpt>
      <trkpt lat="45.21475" lon="5.73523">
        <ele>756</ele>
        <time>2026-08-12T14:12:00.000Z</time>
      </trkpt>
      <trkpt lat="45.21474" lon="5.73525">
        <ele>756.20001220703</ele>
        <time>2026-08-12T14:12:01.000Z</time>
      </trkpt>
      <trkpt lat="45.21475" lon="5.73527">
        <ele>756.40002441406</ele>
        <time>2026-08-12T14:12:02.000Z</time>
      </trkpt>
      <trkpt lat="45.21476" lon="5.73528">
        <ele>756.79998779297</ele>
        <time>2026-08-12T14:12:03.000Z</time>
      </trkpt>
      <trkpt lat="45.21476" lon="5.73529">
        <ele>757</ele>
        <time>2026-08-12T14:12:04.000Z</time>
      </trkpt>
      <trkpt lat="45.21477" lon="5.73529">
        <ele>758.40002441406</ele>
        <time>2026-08-12T14:12:05.000Z</time>
      </trkpt>
      <trkpt lat="45.21477" lon="5.73531">
        <ele>759.59997558594</ele>
        <time>2026-08-12T14:12:06.000Z</time>
      </trkpt>
      <trkpt lat="45.21477" lon="5.73531">
        <ele>761</ele>
        <time>2026-08-12T14:12:07.000Z</time>
      </trkpt>
      <trkpt lat="45.21477" lon="5.73532">
        <ele>761.20001220703</ele>
        <time>2026-08-12T14:12:08.000Z</time>
      </trkpt>
      <trkpt lat="45.21478" lon="5.73533">
        <ele>761.40002441406</ele>
        <time>2026-08-12T14:12:09.000Z</time>
      </trkpt>
      <trkpt lat="45.21478" lon="5.73534">
        <ele>762.20001220703</ele>
        <time>2026-08-12T14:12:10.000Z</time>
      </trkpt>
      <trkpt lat="45.21479" lon="5.73535">
        <ele>763</ele>
        <time>2026-08-12T14:12:11.000Z</time>
      </trkpt>
      <trkpt lat="45.21479" lon="5.73536">
        <ele>763.79998779297</ele>
        <time>2026-08-12T14:12:12.000Z</time>
      </trkpt>
      <trkpt lat="45.2148" lon="5.73537">
        <ele>764.59997558594</ele>
        <time>2026-08-12T14:12:13.000Z</time>
      </trkpt>
      <trkpt lat="45.2148" lon="5.73537">
        <ele>764.79998779297</ele>
        <time>2026-08-12T14:12:14.000Z</time>
      </trkpt>
      <trkpt lat="45.2148" lon="5.73538">
        <ele>764.79998779297</ele>
        <time>2026-08-12T14:12:15.000Z</time>
      </trkpt>
      <trkpt lat="45.21481" lon="5.73539">
        <ele>765</ele>
        <time>2026-08-12T14:12:16.000Z</time>
      </trkpt>
      <trkpt lat="45.21481" lon="5.7354">
        <ele>765</ele>
        <time>2026-08-12T14:12:17.000Z</time>
      </trkpt>
      <trkpt lat="45.21482" lon="5.73542">
        <ele>764</ele>
        <time>2026-08-12T14:12:18.000Z</time>
      </trkpt>
      <trkpt lat="45.21482" lon="5.73543">
        <ele>762.20001220703</ele>
        <time>2026-08-12T14:12:19.000Z</time>
      </trkpt>
      <trkpt lat="45.21483" lon="5.73544">
        <ele>762.20001220703</ele>
        <time>2026-08-12T14:12:20.000Z</time>
      </trkpt>
      <trkpt lat="45.21483" lon="5.73545">
        <ele>762</ele>
        <time>2026-08-12T14:12:21.000Z</time>
      </trkpt>
      <trkpt lat="45.21483" lon="5.73546">
        <ele>762</ele>
        <time>2026-08-12T14:12:22.000Z</time>
      </trkpt>
      <trkpt lat="45.21484" lon="5.73546">
        <ele>762</ele>
        <time>2026-08-12T14:12:23.000Z</time>
      </trkpt>
      <trkpt lat="45.21485" lon="5.73547">
        <ele>762.20001220703</ele>
        <time>2026-08-12T14:12:24.000Z</time>
      </trkpt>
      <trkpt lat="45.21486" lon="5.73547">
        <ele>762.20001220703</ele>
        <time>2026-08-12T14:12:25.000Z</time>
      </trkpt>
      <trkpt lat="45.21487" lon="5.73548">
        <ele>762.20001220703</ele>
        <time>2026-08-12T14:12:26.000Z</time>
      </trkpt>
      <trkpt lat="45.21488" lon="5.73548">
        <ele>762</ele>
        <time>2026-08-12T14:12:27.000Z</time>
      </trkpt>
      <trkpt lat="45.21489" lon="5.73548">
        <ele>761.79998779297</ele>
        <time>2026-08-12T14:12:28.000Z</time>
      </trkpt>
      <trkpt lat="45.2149" lon="5.73549">
        <ele>761.59997558594</ele>
        <time>2026-08-12T14:12:29.000Z</time>
      </trkpt>
      <trkpt lat="45.21491" lon="5.73549">
        <ele>761.79998779297</ele>
        <time>2026-08-12T14:12:30.000Z</time>
      </trkpt>
      <trkpt lat="45.21492" lon="5.7355">
        <ele>762</ele>
        <time>2026-08-12T14:12:31.000Z</time>
      </trkpt>
      <trkpt lat="45.21493" lon="5.7355">
        <ele>762.20001220703</ele>
        <time>2026-08-12T14:12:32.000Z</time>
      </trkpt>
      <trkpt lat="45.21494" lon="5.73551">
        <ele>762.40002441406</ele>
        <time>2026-08-12T14:12:33.000Z</time>
      </trkpt>
      <trkpt lat="45.21494" lon="5.73551">
        <ele>762.79998779297</ele>
        <time>2026-08-12T14:12:34.000Z</time>
      </trkpt>
      <trkpt lat="45.21495" lon="5.73551">
        <ele>763.20001220703</ele>
        <time>2026-08-12T14:12:35.000Z</time>
      </trkpt>
      <trkpt lat="45.21496" lon="5.73552">
        <ele>763.59997558594</ele>
        <time>2026-08-12T14:12:36.000Z</time>
      </trkpt>
      <trkpt lat="45.21497" lon="5.73553">
        <ele>763.79998779297</ele>
        <time>2026-08-12T14:12:37.000Z</time>
      </trkpt>
      <trkpt lat="45.21497" lon="5.73553">
        <ele>764</ele>
        <time>2026-08-12T14:12:38.000Z</time>
      </trkpt>
      <trkpt lat="45.21498" lon="5.73554">
        <ele>764</ele>
        <time>2026-08-12T14:12:39.000Z</time>
      </trkpt>
      <trkpt lat="45.21499" lon="5.73555">
        <ele>763.79998779297</ele>
        <time>2026-08-12T14:12:40.000Z</time>
      </trkpt>
      <trkpt lat="45.215" lon="5.73556">
        <ele>763.59997558594</ele>
        <time>2026-08-12T14:12:41.000Z</time>
      </trkpt>
      <trkpt lat="45.215" lon="5.73556">
        <ele>763.40002441406</ele>
        <time>2026-08-12T14:12:42.000Z</time>
      </trkpt>
      <trkpt lat="45.21501" lon="5.73556">
        <ele>763.20001220703</ele>
        <time>2026-08-12T14:12:43.000Z</time>
      </trkpt>
      <trkpt lat="45.21502" lon="5.73557">
        <ele>763.20001220703</ele>
        <time>2026-08-12T14:12:44.000Z</time>
      </trkpt>
      <trkpt lat="45.21502" lon="5.73558">
        <ele>763.40002441406</ele>
        <time>2026-08-12T14:12:45.000Z</time>
      </trkpt>
      <trkpt lat="45.21503" lon="5.73558">
        <ele>763.59997558594</ele>
        <time>2026-08-12T14:12:46.000Z</time>
      </trkpt>
      <trkpt lat="45.21504" lon="5.73559">
        <ele>763.79998779297</ele>
        <time>2026-08-12T14:12:47.000Z</time>
      </trkpt>
      <trkpt lat="45.21505" lon="5.7356">
        <ele>763.79998779297</ele>
        <time>2026-08-12T14:12:48.000Z</time>
      </trkpt>
      <trkpt lat="45.21506" lon="5.73561">
        <ele>763.79998779297</ele>
        <time>2026-08-12T14:12:49.000Z</time>
      </trkpt>
      <trkpt lat="45.21506" lon="5.73561">
        <ele>763.59997558594</ele>
        <time>2026-08-12T14:12:50.000Z</time>
      </trkpt>
      <trkpt lat="45.21507" lon="5.73562">
        <ele>763.79998779297</ele>
        <time>2026-08-12T14:12:51.000Z</time>
      </trkpt>
      <trkpt lat="45.21508" lon="5.73563">
        <ele>764.20001220703</ele>
        <time>2026-08-12T14:12:52.000Z</time>
      </trkpt>
      <trkpt lat="45.21508" lon="5.73564">
        <ele>764.59997558594</ele>
        <time>2026-08-12T14:12:53.000Z</time>
      </trkpt>
      <trkpt lat="45.21508" lon="5.73565">
        <ele>764.79998779297</ele>
        <time>2026-08-12T14:12:54.000Z</time>
      </trkpt>
      <trkpt lat="45.21509" lon="5.73567">
        <ele>765.20001220703</ele>
        <time>2026-08-12T14:12:55.000Z</time>
      </trkpt>
      <trkpt lat="45.21509" lon="5.73569">
        <ele>765.59997558594</ele>
        <time>2026-08-12T14:12:56.000Z</time>
      </trkpt>
      <trkpt lat="45.21509" lon="5.7357">
        <ele>766</ele>
        <time>2026-08-12T14:12:57.000Z</time>
      </trkpt>
      <trkpt lat="45.2151" lon="5.73572">
        <ele>765.79998779297</ele>
        <time>2026-08-12T14:12:58.000Z</time>
      </trkpt>
      <trkpt lat="45.2151" lon="5.73574">
        <ele>765.79998779297</ele>
        <time>2026-08-12T14:12:59.000Z</time>
      </trkpt>
      <trkpt lat="45.2151" lon="5.73576">
        <ele>765.59997558594</ele>
        <time>2026-08-12T14:13:00.000Z</time>
      </trkpt>
      <trkpt lat="45.2151" lon="5.73578">
        <ele>765.40002441406</ele>
        <time>2026-08-12T14:13:01.000Z</time>
      </trkpt>
      <trkpt lat="45.2151" lon="5.73579">
        <ele>765.40002441406</ele>
        <time>2026-08-12T14:13:02.000Z</time>
      </trkpt>
      <trkpt lat="45.2151" lon="5.73581">
        <ele>765.40002441406</ele>
        <time>2026-08-12T14:13:03.000Z</time>
      </trkpt>
      <trkpt lat="45.21509" lon="5.73582">
        <ele>765.20001220703</ele>
        <time>2026-08-12T14:13:04.000Z</time>
      </trkpt>
      <trkpt lat="45.21509" lon="5.73583">
        <ele>765</ele>
        <time>2026-08-12T14:13:05.000Z</time>
      </trkpt>
      <trkpt lat="45.21509" lon="5.73584">
        <ele>765</ele>
        <time>2026-08-12T14:13:06.000Z</time>
      </trkpt>
      <trkpt lat="45.21509" lon="5.73585">
        <ele>764.79998779297</ele>
        <time>2026-08-12T14:13:07.000Z</time>
      </trkpt>
      <trkpt lat="45.21509" lon="5.73586">
        <ele>764.79998779297</ele>
        <time>2026-08-12T14:13:08.000Z</time>
      </trkpt>
      <trkpt lat="45.2151" lon="5.73587">
        <ele>764.79998779297</ele>
        <time>2026-08-12T14:13:09.000Z</time>
      </trkpt>
      <trkpt lat="45.2151" lon="5.73588">
        <ele>764.79998779297</ele>
        <time>2026-08-12T14:13:10.000Z</time>
      </trkpt>
      <trkpt lat="45.2151" lon="5.73589">
        <ele>764.79998779297</ele>
        <time>2026-08-12T14:13:11.000Z</time>
      </trkpt>
      <trkpt lat="45.2151" lon="5.7359">
        <ele>765</ele>
        <time>2026-08-12T14:13:12.000Z</time>
      </trkpt>
      <trkpt lat="45.2151" lon="5.73591">
        <ele>765.20001220703</ele>
        <time>2026-08-12T14:13:13.000Z</time>
      </trkpt>
      <trkpt lat="45.2151" lon="5.73592">
        <ele>765.40002441406</ele>
        <time>2026-08-12T14:13:14.000Z</time>
      </trkpt>
      <trkpt lat="45.21511" lon="5.73593">
        <ele>765.59997558594</ele>
        <time>2026-08-12T14:13:15.000Z</time>
      </trkpt>
      <trkpt lat="45.21512" lon="5.73594">
        <ele>766.20001220703</ele>
        <time>2026-08-12T14:13:16.000Z</time>
      </trkpt>
      <trkpt lat="45.21513" lon="5.73595">
        <ele>766.59997558594</ele>
        <time>2026-08-12T14:13:17.000Z</time>
      </trkpt>
      <trkpt lat="45.21513" lon="5.73596">
        <ele>767</ele>
        <time>2026-08-12T14:13:18.000Z</time>
      </trkpt>
      <trkpt lat="45.21514" lon="5.73596">
        <ele>768</ele>
        <time>2026-08-12T14:13:19.000Z</time>
      </trkpt>
      <trkpt lat="45.21515" lon="5.73597">
        <ele>769</ele>
        <time>2026-08-12T14:13:20.000Z</time>
      </trkpt>
      <trkpt lat="45.21515" lon="5.73596">
        <ele>769.79998779297</ele>
        <time>2026-08-12T14:13:21.000Z</time>
      </trkpt>
      <trkpt lat="45.21515" lon="5.73596">
        <ele>770.59997558594</ele>
        <time>2026-08-12T14:13:22.000Z</time>
      </trkpt>
      <trkpt lat="45.21515" lon="5.73596">
        <ele>771.59997558594</ele>
        <time>2026-08-12T14:13:23.000Z</time>
      </trkpt>
      <trkpt lat="45.21514" lon="5.73595">
        <ele>772</ele>
        <time>2026-08-12T14:13:24.000Z</time>
      </trkpt>
      <trkpt lat="45.21514" lon="5.73594">
        <ele>773.20001220703</ele>
        <time>2026-08-12T14:13:25.000Z</time>
      </trkpt>
      <trkpt lat="45.21514" lon="5.73592">
        <ele>774.40002441406</ele>
        <time>2026-08-12T14:13:26.000Z</time>
      </trkpt>
      <trkpt lat="45.21513" lon="5.73592">
        <ele>775.20001220703</ele>
        <time>2026-08-12T14:13:27.000Z</time>
      </trkpt>
      <trkpt lat="45.21513" lon="5.73591">
        <ele>776.40002441406</ele>
        <time>2026-08-12T14:13:28.000Z</time>
      </trkpt>
      <trkpt lat="45.21513" lon="5.73589">
        <ele>777.40002441406</ele>
        <time>2026-08-12T14:13:29.000Z</time>
      </trkpt>
      <trkpt lat="45.21513" lon="5.73588">
        <ele>777.79998779297</ele>
        <time>2026-08-12T14:13:30.000Z</time>
      </trkpt>
      <trkpt lat="45.21514" lon="5.73586">
        <ele>778.20001220703</ele>
        <time>2026-08-12T14:13:31.000Z</time>
      </trkpt>
      <trkpt lat="45.21515" lon="5.73585">
        <ele>778.40002441406</ele>
        <time>2026-08-12T14:13:32.000Z</time>
      </trkpt>
      <trkpt lat="45.21515" lon="5.73584">
        <ele>778.79998779297</ele>
        <time>2026-08-12T14:13:33.000Z</time>
      </trkpt>
      <trkpt lat="45.21516" lon="5.73583">
        <ele>777.20001220703</ele>
        <time>2026-08-12T14:13:34.000Z</time>
      </trkpt>
      <trkpt lat="45.21516" lon="5.73582">
        <ele>777.20001220703</ele>
        <time>2026-08-12T14:13:35.000Z</time>
      </trkpt>
      <trkpt lat="45.21517" lon="5.73581">
        <ele>777.20001220703</ele>
        <time>2026-08-12T14:13:36.000Z</time>
      </trkpt>
      <trkpt lat="45.21516" lon="5.7358">
        <ele>777.20001220703</ele>
        <time>2026-08-12T14:13:37.000Z</time>
      </trkpt>
      <trkpt lat="45.21516" lon="5.73578">
        <ele>777.40002441406</ele>
        <time>2026-08-12T14:13:38.000Z</time>
      </trkpt>
      <trkpt lat="45.21517" lon="5.73577">
        <ele>777.40002441406</ele>
        <time>2026-08-12T14:13:39.000Z</time>
      </trkpt>
      <trkpt lat="45.21517" lon="5.73576">
        <ele>777.40002441406</ele>
        <time>2026-08-12T14:13:40.000Z</time>
      </trkpt>
      <trkpt lat="45.21518" lon="5.73575">
        <ele>776.59997558594</ele>
        <time>2026-08-12T14:13:41.000Z</time>
      </trkpt>
      <trkpt lat="45.21518" lon="5.73577">
        <ele>776.59997558594</ele>
        <time>2026-08-12T14:13:42.000Z</time>
      </trkpt>
      <trkpt lat="45.21518" lon="5.73578">
        <ele>776.79998779297</ele>
        <time>2026-08-12T14:13:43.000Z</time>
      </trkpt>
      <trkpt lat="45.21518" lon="5.73578">
        <ele>777</ele>
        <time>2026-08-12T14:13:44.000Z</time>
      </trkpt>
      <trkpt lat="45.21518" lon="5.73578">
        <ele>777</ele>
        <time>2026-08-12T14:13:45.000Z</time>
      </trkpt>
      <trkpt lat="45.21519" lon="5.7358">
        <ele>777.20001220703</ele>
        <time>2026-08-12T14:13:46.000Z</time>
      </trkpt>
      <trkpt lat="45.21519" lon="5.73581">
        <ele>777.40002441406</ele>
        <time>2026-08-12T14:13:47.000Z</time>
      </trkpt>
      <trkpt lat="45.21519" lon="5.73581">
        <ele>777.79998779297</ele>
        <time>2026-08-12T14:13:48.000Z</time>
      </trkpt>
      <trkpt lat="45.2152" lon="5.73582">
        <ele>777.79998779297</ele>
        <time>2026-08-12T14:13:49.000Z</time>
      </trkpt>
      <trkpt lat="45.2152" lon="5.73583">
        <ele>778</ele>
        <time>2026-08-12T14:13:50.000Z</time>
      </trkpt>
      <trkpt lat="45.2152" lon="5.73584">
        <ele>778</ele>
        <time>2026-08-12T14:13:51.000Z</time>
      </trkpt>
      <trkpt lat="45.2152" lon="5.73585">
        <ele>778</ele>
        <time>2026-08-12T14:13:52.000Z</time>
      </trkpt>
      <trkpt lat="45.21521" lon="5.73587">
        <ele>777.79998779297</ele>
        <time>2026-08-12T14:13:53.000Z</time>
      </trkpt>
      <trkpt lat="45.21522" lon="5.73588">
        <ele>777.40002441406</ele>
        <time>2026-08-12T14:13:54.000Z</time>
      </trkpt>
      <trkpt lat="45.21522" lon="5.73589">
        <ele>777.20001220703</ele>
        <time>2026-08-12T14:13:55.000Z</time>
      </trkpt>
      <trkpt lat="45.21523" lon="5.7359">
        <ele>777.20001220703</ele>
        <time>2026-08-12T14:13:56.000Z</time>
      </trkpt>
      <trkpt lat="45.21523" lon="5.7359">
        <ele>777.20001220703</ele>
        <time>2026-08-12T14:13:57.000Z</time>
      </trkpt>
      <trkpt lat="45.21524" lon="5.73591">
        <ele>777.59997558594</ele>
        <time>2026-08-12T14:13:58.000Z</time>
      </trkpt>
      <trkpt lat="45.21525" lon="5.73592">
        <ele>777.79998779297</ele>
        <time>2026-08-12T14:13:59.000Z</time>
      </trkpt>
      <trkpt lat="45.21525" lon="5.73593">
        <ele>778.59997558594</ele>
        <time>2026-08-12T14:14:00.000Z</time>
      </trkpt>
      <trkpt lat="45.21526" lon="5.73594">
        <ele>779.20001220703</ele>
        <time>2026-08-12T14:14:01.000Z</time>
      </trkpt>
      <trkpt lat="45.21527" lon="5.73595">
        <ele>779.59997558594</ele>
        <time>2026-08-12T14:14:02.000Z</time>
      </trkpt>
      <trkpt lat="45.21527" lon="5.73596">
        <ele>780.20001220703</ele>
        <time>2026-08-12T14:14:03.000Z</time>
      </trkpt>
      <trkpt lat="45.21528" lon="5.73597">
        <ele>780.79998779297</ele>
        <time>2026-08-12T14:14:04.000Z</time>
      </trkpt>
      <trkpt lat="45.21529" lon="5.73598">
        <ele>781.40002441406</ele>
        <time>2026-08-12T14:14:05.000Z</time>
      </trkpt>
      <trkpt lat="45.21529" lon="5.73598">
        <ele>782</ele>
        <time>2026-08-12T14:14:06.000Z</time>
      </trkpt>
      <trkpt lat="45.2153" lon="5.73599">
        <ele>781.40002441406</ele>
        <time>2026-08-12T14:14:07.000Z</time>
      </trkpt>
      <trkpt lat="45.21531" lon="5.736">
        <ele>780.79998779297</ele>
        <time>2026-08-12T14:14:08.000Z</time>
      </trkpt>
      <trkpt lat="45.21531" lon="5.73601">
        <ele>780.20001220703</ele>
        <time>2026-08-12T14:14:09.000Z</time>
      </trkpt>
      <trkpt lat="45.21532" lon="5.73601">
        <ele>779.59997558594</ele>
        <time>2026-08-12T14:14:10.000Z</time>
      </trkpt>
      <trkpt lat="45.21533" lon="5.73602">
        <ele>779</ele>
        <time>2026-08-12T14:14:11.000Z</time>
      </trkpt>
      <trkpt lat="45.21533" lon="5.73603">
        <ele>779</ele>
        <time>2026-08-12T14:14:12.000Z</time>
      </trkpt>
      <trkpt lat="45.21534" lon="5.73605">
        <ele>779.20001220703</ele>
        <time>2026-08-12T14:14:13.000Z</time>
      </trkpt>
      <trkpt lat="45.21534" lon="5.73606">
        <ele>779.20001220703</ele>
        <time>2026-08-12T14:14:14.000Z</time>
      </trkpt>
      <trkpt lat="45.21535" lon="5.73607">
        <ele>779.40002441406</ele>
        <time>2026-08-12T14:14:15.000Z</time>
      </trkpt>
      <trkpt lat="45.21536" lon="5.73608">
        <ele>779.79998779297</ele>
        <time>2026-08-12T14:14:16.000Z</time>
      </trkpt>
      <trkpt lat="45.21537" lon="5.73609">
        <ele>780.40002441406</ele>
        <time>2026-08-12T14:14:17.000Z</time>
      </trkpt>
      <trkpt lat="45.21537" lon="5.7361">
        <ele>780.79998779297</ele>
        <time>2026-08-12T14:14:18.000Z</time>
      </trkpt>
      <trkpt lat="45.21538" lon="5.73611">
        <ele>781.40002441406</ele>
        <time>2026-08-12T14:14:19.000Z</time>
      </trkpt>
      <trkpt lat="45.21539" lon="5.73612">
        <ele>783.40002441406</ele>
        <time>2026-08-12T14:14:20.000Z</time>
      </trkpt>
      <trkpt lat="45.21539" lon="5.73613">
        <ele>785.59997558594</ele>
        <time>2026-08-12T14:14:21.000Z</time>
      </trkpt>
      <trkpt lat="45.2154" lon="5.73614">
        <ele>785.79998779297</ele>
        <time>2026-08-12T14:14:22.000Z</time>
      </trkpt>
      <trkpt lat="45.2154" lon="5.73615">
        <ele>785.79998779297</ele>
        <time>2026-08-12T14:14:23.000Z</time>
      </trkpt>
      <trkpt lat="45.2154" lon="5.73617">
        <ele>786.20001220703</ele>
        <time>2026-08-12T14:14:24.000Z</time>
      </trkpt>
      <trkpt lat="45.2154" lon="5.73617">
        <ele>786.59997558594</ele>
        <time>2026-08-12T14:14:25.000Z</time>
      </trkpt>
      <trkpt lat="45.21541" lon="5.73618">
        <ele>787</ele>
        <time>2026-08-12T14:14:26.000Z</time>
      </trkpt>
      <trkpt lat="45.21541" lon="5.73619">
        <ele>787.20001220703</ele>
        <time>2026-08-12T14:14:27.000Z</time>
      </trkpt>
      <trkpt lat="45.21541" lon="5.73618">
        <ele>787.40002441406</ele>
        <time>2026-08-12T14:14:28.000Z</time>
      </trkpt>
      <trkpt lat="45.21541" lon="5.73617">
        <ele>787.59997558594</ele>
        <time>2026-08-12T14:14:29.000Z</time>
      </trkpt>
      <trkpt lat="45.21541" lon="5.73617">
        <ele>787.79998779297</ele>
        <time>2026-08-12T14:14:30.000Z</time>
      </trkpt>
      <trkpt lat="45.2154" lon="5.73616">
        <ele>788.59997558594</ele>
        <time>2026-08-12T14:14:31.000Z</time>
      </trkpt>
      <trkpt lat="45.2154" lon="5.73615">
        <ele>789.40002441406</ele>
        <time>2026-08-12T14:14:32.000Z</time>
      </trkpt>
      <trkpt lat="45.2154" lon="5.73614">
        <ele>789.59997558594</ele>
        <time>2026-08-12T14:14:33.000Z</time>
      </trkpt>
      <trkpt lat="45.2154" lon="5.73613">
        <ele>789.40002441406</ele>
        <time>2026-08-12T14:14:34.000Z</time>
      </trkpt>
      <trkpt lat="45.2154" lon="5.73612">
        <ele>789.40002441406</ele>
        <time>2026-08-12T14:14:35.000Z</time>
      </trkpt>
      <trkpt lat="45.2154" lon="5.73611">
        <ele>789.20001220703</ele>
        <time>2026-08-12T14:14:36.000Z</time>
      </trkpt>
      <trkpt lat="45.2154" lon="5.73611">
        <ele>789.20001220703</ele>
        <time>2026-08-12T14:14:37.000Z</time>
      </trkpt>
      <trkpt lat="45.21539" lon="5.73609">
        <ele>789</ele>
        <time>2026-08-12T14:14:38.000Z</time>
      </trkpt>
      <trkpt lat="45.21539" lon="5.73608">
        <ele>789</ele>
        <time>2026-08-12T14:14:39.000Z</time>
      </trkpt>
      <trkpt lat="45.21538" lon="5.73607">
        <ele>788.79998779297</ele>
        <time>2026-08-12T14:14:40.000Z</time>
      </trkpt>
      <trkpt lat="45.21538" lon="5.73605">
        <ele>788.79998779297</ele>
        <time>2026-08-12T14:14:41.000Z</time>
      </trkpt>
      <trkpt lat="45.21538" lon="5.73604">
        <ele>788.59997558594</ele>
        <time>2026-08-12T14:14:42.000Z</time>
      </trkpt>
      <trkpt lat="45.21538" lon="5.73602">
        <ele>787.20001220703</ele>
        <time>2026-08-12T14:14:43.000Z</time>
      </trkpt>
      <trkpt lat="45.21537" lon="5.73601">
        <ele>786.79998779297</ele>
        <time>2026-08-12T14:14:44.000Z</time>
      </trkpt>
      <trkpt lat="45.21537" lon="5.736">
        <ele>786.40002441406</ele>
        <time>2026-08-12T14:14:45.000Z</time>
      </trkpt>
      <trkpt lat="45.21537" lon="5.73599">
        <ele>786.20001220703</ele>
        <time>2026-08-12T14:14:46.000Z</time>
      </trkpt>
      <trkpt lat="45.21536" lon="5.73598">
        <ele>786</ele>
        <time>2026-08-12T14:14:47.000Z</time>
      </trkpt>
      <trkpt lat="45.21535" lon="5.73597">
        <ele>786.20001220703</ele>
        <time>2026-08-12T14:14:48.000Z</time>
      </trkpt>
      <trkpt lat="45.21535" lon="5.73596">
        <ele>786.59997558594</ele>
        <time>2026-08-12T14:14:49.000Z</time>
      </trkpt>
      <trkpt lat="45.21535" lon="5.73595">
        <ele>787</ele>
        <time>2026-08-12T14:14:50.000Z</time>
      </trkpt>
      <trkpt lat="45.21535" lon="5.73593">
        <ele>787.59997558594</ele>
        <time>2026-08-12T14:14:51.000Z</time>
      </trkpt>
      <trkpt lat="45.21536" lon="5.73592">
        <ele>788</ele>
        <time>2026-08-12T14:14:52.000Z</time>
      </trkpt>
      <trkpt lat="45.21536" lon="5.73593">
        <ele>788.20001220703</ele>
        <time>2026-08-12T14:14:53.000Z</time>
      </trkpt>
      <trkpt lat="45.21537" lon="5.73594">
        <ele>788.20001220703</ele>
        <time>2026-08-12T14:14:54.000Z</time>
      </trkpt>
      <trkpt lat="45.21537" lon="5.73594">
        <ele>788.40002441406</ele>
        <time>2026-08-12T14:14:55.000Z</time>
      </trkpt>
      <trkpt lat="45.21538" lon="5.73595">
        <ele>788.40002441406</ele>
        <time>2026-08-12T14:14:56.000Z</time>
      </trkpt>
      <trkpt lat="45.21539" lon="5.73596">
        <ele>788.40002441406</ele>
        <time>2026-08-12T14:14:57.000Z</time>
      </trkpt>
      <trkpt lat="45.21539" lon="5.73596">
        <ele>788.20001220703</ele>
        <time>2026-08-12T14:14:58.000Z</time>
      </trkpt>
      <trkpt lat="45.2154" lon="5.73597">
        <ele>787.79998779297</ele>
        <time>2026-08-12T14:14:59.000Z</time>
      </trkpt>
      <trkpt lat="45.21541" lon="5.73598">
        <ele>787.79998779297</ele>
        <time>2026-08-12T14:15:00.000Z</time>
      </trkpt>
      <trkpt lat="45.21541" lon="5.73599">
        <ele>787.59997558594</ele>
        <time>2026-08-12T14:15:01.000Z</time>
      </trkpt>
      <trkpt lat="45.21542" lon="5.736">
        <ele>787.59997558594</ele>
        <time>2026-08-12T14:15:02.000Z</time>
      </trkpt>
      <trkpt lat="45.21543" lon="5.73601">
        <ele>787.59997558594</ele>
        <time>2026-08-12T14:15:03.000Z</time>
      </trkpt>
      <trkpt lat="45.21543" lon="5.73602">
        <ele>788</ele>
        <time>2026-08-12T14:15:04.000Z</time>
      </trkpt>
      <trkpt lat="45.21544" lon="5.73604">
        <ele>788.20001220703</ele>
        <time>2026-08-12T14:15:05.000Z</time>
      </trkpt>
      <trkpt lat="45.21544" lon="5.73604">
        <ele>788.20001220703</ele>
        <time>2026-08-12T14:15:06.000Z</time>
      </trkpt>
      <trkpt lat="45.21544" lon="5.73604">
        <ele>788.40002441406</ele>
        <time>2026-08-12T14:15:07.000Z</time>
      </trkpt>
      <trkpt lat="45.21545" lon="5.73605">
        <ele>788.40002441406</ele>
        <time>2026-08-12T14:15:08.000Z</time>
      </trkpt>
      <trkpt lat="45.21545" lon="5.73605">
        <ele>788.59997558594</ele>
        <time>2026-08-12T14:15:09.000Z</time>
      </trkpt>
      <trkpt lat="45.21545" lon="5.73606">
        <ele>788.59997558594</ele>
        <time>2026-08-12T14:15:10.000Z</time>
      </trkpt>
      <trkpt lat="45.21545" lon="5.73605">
        <ele>788.40002441406</ele>
        <time>2026-08-12T14:15:11.000Z</time>
      </trkpt>
      <trkpt lat="45.21544" lon="5.73604">
        <ele>788</ele>
        <time>2026-08-12T14:15:12.000Z</time>
      </trkpt>
      <trkpt lat="45.21544" lon="5.73603">
        <ele>787.40002441406</ele>
        <time>2026-08-12T14:15:13.000Z</time>
      </trkpt>
      <trkpt lat="45.21544" lon="5.73602">
        <ele>787</ele>
        <time>2026-08-12T14:15:14.000Z</time>
      </trkpt>
      <trkpt lat="45.21543" lon="5.73601">
        <ele>786.40002441406</ele>
        <time>2026-08-12T14:15:15.000Z</time>
      </trkpt>
      <trkpt lat="45.21543" lon="5.736">
        <ele>786</ele>
        <time>2026-08-12T14:15:16.000Z</time>
      </trkpt>
      <trkpt lat="45.21543" lon="5.73599">
        <ele>785.79998779297</ele>
        <time>2026-08-12T14:15:17.000Z</time>
      </trkpt>
      <trkpt lat="45.21543" lon="5.73598">
        <ele>785.79998779297</ele>
        <time>2026-08-12T14:15:18.000Z</time>
      </trkpt>
      <trkpt lat="45.21543" lon="5.73597">
        <ele>785.59997558594</ele>
        <time>2026-08-12T14:15:19.000Z</time>
      </trkpt>
      <trkpt lat="45.21543" lon="5.73595">
        <ele>785.79998779297</ele>
        <time>2026-08-12T14:15:20.000Z</time>
      </trkpt>
      <trkpt lat="45.21542" lon="5.73594">
        <ele>785.79998779297</ele>
        <time>2026-08-12T14:15:21.000Z</time>
      </trkpt>
      <trkpt lat="45.21542" lon="5.73593">
        <ele>786</ele>
        <time>2026-08-12T14:15:22.000Z</time>
      </trkpt>
      <trkpt lat="45.21542" lon="5.73592">
        <ele>786.40002441406</ele>
        <time>2026-08-12T14:15:23.000Z</time>
      </trkpt>
      <trkpt lat="45.21542" lon="5.73591">
        <ele>787</ele>
        <time>2026-08-12T14:15:24.000Z</time>
      </trkpt>
      <trkpt lat="45.21541" lon="5.7359">
        <ele>787.59997558594</ele>
        <time>2026-08-12T14:15:25.000Z</time>
      </trkpt>
      <trkpt lat="45.2154" lon="5.73589">
        <ele>788.20001220703</ele>
        <time>2026-08-12T14:15:26.000Z</time>
      </trkpt>
      <trkpt lat="45.2154" lon="5.73588">
        <ele>789.79998779297</ele>
        <time>2026-08-12T14:15:27.000Z</time>
      </trkpt>
      <trkpt lat="45.2154" lon="5.73587">
        <ele>790.59997558594</ele>
        <time>2026-08-12T14:15:28.000Z</time>
      </trkpt>
      <trkpt lat="45.2154" lon="5.73586">
        <ele>791.40002441406</ele>
        <time>2026-08-12T14:15:29.000Z</time>
      </trkpt>
      <trkpt lat="45.2154" lon="5.73585">
        <ele>792</ele>
        <time>2026-08-12T14:15:30.000Z</time>
      </trkpt>
      <trkpt lat="45.21539" lon="5.73584">
        <ele>792.59997558594</ele>
        <time>2026-08-12T14:15:31.000Z</time>
      </trkpt>
      <trkpt lat="45.21539" lon="5.73583">
        <ele>793.59997558594</ele>
        <time>2026-08-12T14:15:32.000Z</time>
      </trkpt>
      <trkpt lat="45.21539" lon="5.73582">
        <ele>794.59997558594</ele>
        <time>2026-08-12T14:15:33.000Z</time>
      </trkpt>
      <trkpt lat="45.21538" lon="5.73581">
        <ele>795.20001220703</ele>
        <time>2026-08-12T14:15:34.000Z</time>
      </trkpt>
      <trkpt lat="45.21538" lon="5.73579">
        <ele>795.79998779297</ele>
        <time>2026-08-12T14:15:35.000Z</time>
      </trkpt>
      <trkpt lat="45.21538" lon="5.73578">
        <ele>796.20001220703</ele>
        <time>2026-08-12T14:15:36.000Z</time>
      </trkpt>
      <trkpt lat="45.21537" lon="5.73577">
        <ele>796.40002441406</ele>
        <time>2026-08-12T14:15:37.000Z</time>
      </trkpt>
      <trkpt lat="45.21537" lon="5.73576">
        <ele>796.79998779297</ele>
        <time>2026-08-12T14:15:38.000Z</time>
      </trkpt>
      <trkpt lat="45.21537" lon="5.73574">
        <ele>797.20001220703</ele>
        <time>2026-08-12T14:15:39.000Z</time>
      </trkpt>
      <trkpt lat="45.21536" lon="5.73573">
        <ele>797.59997558594</ele>
        <time>2026-08-12T14:15:40.000Z</time>
      </trkpt>
      <trkpt lat="45.21536" lon="5.73572">
        <ele>797.79998779297</ele>
        <time>2026-08-12T14:15:41.000Z</time>
      </trkpt>
      <trkpt lat="45.21536" lon="5.73571">
        <ele>798.20001220703</ele>
        <time>2026-08-12T14:15:42.000Z</time>
      </trkpt>
      <trkpt lat="45.21536" lon="5.73569">
        <ele>798.59997558594</ele>
        <time>2026-08-12T14:15:43.000Z</time>
      </trkpt>
      <trkpt lat="45.21536" lon="5.73568">
        <ele>798.79998779297</ele>
        <time>2026-08-12T14:15:44.000Z</time>
      </trkpt>
      <trkpt lat="45.21536" lon="5.73566">
        <ele>798.79998779297</ele>
        <time>2026-08-12T14:15:45.000Z</time>
      </trkpt>
      <trkpt lat="45.21536" lon="5.73565">
        <ele>799</ele>
        <time>2026-08-12T14:15:46.000Z</time>
      </trkpt>
      <trkpt lat="45.21536" lon="5.73564">
        <ele>799.20001220703</ele>
        <time>2026-08-12T14:15:47.000Z</time>
      </trkpt>
      <trkpt lat="45.21536" lon="5.73562">
        <ele>799.40002441406</ele>
        <time>2026-08-12T14:15:48.000Z</time>
      </trkpt>
      <trkpt lat="45.21536" lon="5.7356">
        <ele>799.59997558594</ele>
        <time>2026-08-12T14:15:49.000Z</time>
      </trkpt>
      <trkpt lat="45.21536" lon="5.73559">
        <ele>799.79998779297</ele>
        <time>2026-08-12T14:15:50.000Z</time>
      </trkpt>
      <trkpt lat="45.21536" lon="5.73558">
        <ele>799.79998779297</ele>
        <time>2026-08-12T14:15:51.000Z</time>
      </trkpt>
      <trkpt lat="45.21537" lon="5.73557">
        <ele>800</ele>
        <time>2026-08-12T14:15:52.000Z</time>
      </trkpt>
      <trkpt lat="45.21537" lon="5.73555">
        <ele>800</ele>
        <time>2026-08-12T14:15:53.000Z</time>
      </trkpt>
      <trkpt lat="45.21537" lon="5.73554">
        <ele>800</ele>
        <time>2026-08-12T14:15:54.000Z</time>
      </trkpt>
      <trkpt lat="45.21537" lon="5.73553">
        <ele>800</ele>
        <time>2026-08-12T14:15:55.000Z</time>
      </trkpt>
      <trkpt lat="45.21537" lon="5.73552">
        <ele>800</ele>
        <time>2026-08-12T14:15:56.000Z</time>
      </trkpt>
      <trkpt lat="45.21537" lon="5.7355">
        <ele>800</ele>
        <time>2026-08-12T14:15:57.000Z</time>
      </trkpt>
      <trkpt lat="45.21537" lon="5.73549">
        <ele>800</ele>
        <time>2026-08-12T14:15:58.000Z</time>
      </trkpt>
      <trkpt lat="45.21537" lon="5.73548">
        <ele>800.20001220703</ele>
        <time>2026-08-12T14:15:59.000Z</time>
      </trkpt>
      <trkpt lat="45.21537" lon="5.73546">
        <ele>800.40002441406</ele>
        <time>2026-08-12T14:16:00.000Z</time>
      </trkpt>
      <trkpt lat="45.21537" lon="5.73544">
        <ele>800.59997558594</ele>
        <time>2026-08-12T14:16:01.000Z</time>
      </trkpt>
      <trkpt lat="45.21537" lon="5.73544">
        <ele>800.79998779297</ele>
        <time>2026-08-12T14:16:02.000Z</time>
      </trkpt>
      <trkpt lat="45.21538" lon="5.73543">
        <ele>801</ele>
        <time>2026-08-12T14:16:03.000Z</time>
      </trkpt>
      <trkpt lat="45.21538" lon="5.73543">
        <ele>801.40002441406</ele>
        <time>2026-08-12T14:16:04.000Z</time>
      </trkpt>
      <trkpt lat="45.21538" lon="5.73545">
        <ele>801.59997558594</ele>
        <time>2026-08-12T14:16:05.000Z</time>
      </trkpt>
      <trkpt lat="45.21539" lon="5.73545">
        <ele>802.20001220703</ele>
        <time>2026-08-12T14:16:06.000Z</time>
      </trkpt>
      <trkpt lat="45.21539" lon="5.73546">
        <ele>802.59997558594</ele>
        <time>2026-08-12T14:16:07.000Z</time>
      </trkpt>
      <trkpt lat="45.2154" lon="5.73547">
        <ele>803.20001220703</ele>
        <time>2026-08-12T14:16:08.000Z</time>
      </trkpt>
      <trkpt lat="45.21541" lon="5.73548">
        <ele>803.59997558594</ele>
        <time>2026-08-12T14:16:09.000Z</time>
      </trkpt>
      <trkpt lat="45.21542" lon="5.73549">
        <ele>804.20001220703</ele>
        <time>2026-08-12T14:16:10.000Z</time>
      </trkpt>
      <trkpt lat="45.21542" lon="5.7355">
        <ele>804.20001220703</ele>
        <time>2026-08-12T14:16:11.000Z</time>
      </trkpt>
      <trkpt lat="45.21543" lon="5.73551">
        <ele>804</ele>
        <time>2026-08-12T14:16:12.000Z</time>
      </trkpt>
      <trkpt lat="45.21543" lon="5.73552">
        <ele>803.59997558594</ele>
        <time>2026-08-12T14:16:13.000Z</time>
      </trkpt>
      <trkpt lat="45.21544" lon="5.73553">
        <ele>803.40002441406</ele>
        <time>2026-08-12T14:16:14.000Z</time>
      </trkpt>
      <trkpt lat="45.21545" lon="5.73554">
        <ele>803.20001220703</ele>
        <time>2026-08-12T14:16:15.000Z</time>
      </trkpt>
      <trkpt lat="45.21545" lon="5.73555">
        <ele>803.20001220703</ele>
        <time>2026-08-12T14:16:16.000Z</time>
      </trkpt>
      <trkpt lat="45.21545" lon="5.73557">
        <ele>803.20001220703</ele>
        <time>2026-08-12T14:16:17.000Z</time>
      </trkpt>
      <trkpt lat="45.21546" lon="5.73557">
        <ele>803.40002441406</ele>
        <time>2026-08-12T14:16:18.000Z</time>
      </trkpt>
      <trkpt lat="45.21547" lon="5.73558">
        <ele>803.79998779297</ele>
        <time>2026-08-12T14:16:19.000Z</time>
      </trkpt>
      <trkpt lat="45.21547" lon="5.7356">
        <ele>804.20001220703</ele>
        <time>2026-08-12T14:16:20.000Z</time>
      </trkpt>
      <trkpt lat="45.21548" lon="5.73561">
        <ele>804.20001220703</ele>
        <time>2026-08-12T14:16:21.000Z</time>
      </trkpt>
      <trkpt lat="45.21548" lon="5.73562">
        <ele>804.59997558594</ele>
        <time>2026-08-12T14:16:22.000Z</time>
      </trkpt>
      <trkpt lat="45.21549" lon="5.73562">
        <ele>804.79998779297</ele>
        <time>2026-08-12T14:16:23.000Z</time>
      </trkpt>
      <trkpt lat="45.2155" lon="5.73563">
        <ele>804.79998779297</ele>
        <time>2026-08-12T14:16:24.000Z</time>
      </trkpt>
      <trkpt lat="45.2155" lon="5.73564">
        <ele>804.79998779297</ele>
        <time>2026-08-12T14:16:25.000Z</time>
      </trkpt>
      <trkpt lat="45.21551" lon="5.73565">
        <ele>804.59997558594</ele>
        <time>2026-08-12T14:16:26.000Z</time>
      </trkpt>
      <trkpt lat="45.21551" lon="5.73565">
        <ele>804.59997558594</ele>
        <time>2026-08-12T14:16:27.000Z</time>
      </trkpt>
      <trkpt lat="45.21552" lon="5.73566">
        <ele>804.40002441406</ele>
        <time>2026-08-12T14:16:28.000Z</time>
      </trkpt>
      <trkpt lat="45.21553" lon="5.73566">
        <ele>804.40002441406</ele>
        <time>2026-08-12T14:16:29.000Z</time>
      </trkpt>
      <trkpt lat="45.21554" lon="5.73567">
        <ele>804.20001220703</ele>
        <time>2026-08-12T14:16:30.000Z</time>
      </trkpt>
      <trkpt lat="45.21554" lon="5.73568">
        <ele>804.20001220703</ele>
        <time>2026-08-12T14:16:31.000Z</time>
      </trkpt>
      <trkpt lat="45.21555" lon="5.73569">
        <ele>804.20001220703</ele>
        <time>2026-08-12T14:16:32.000Z</time>
      </trkpt>
      <trkpt lat="45.21555" lon="5.73569">
        <ele>804</ele>
        <time>2026-08-12T14:16:33.000Z</time>
      </trkpt>
      <trkpt lat="45.21555" lon="5.7357">
        <ele>803.79998779297</ele>
        <time>2026-08-12T14:16:34.000Z</time>
      </trkpt>
      <trkpt lat="45.21556" lon="5.73571">
        <ele>803.79998779297</ele>
        <time>2026-08-12T14:16:35.000Z</time>
      </trkpt>
      <trkpt lat="45.21556" lon="5.73572">
        <ele>803.59997558594</ele>
        <time>2026-08-12T14:16:36.000Z</time>
      </trkpt>
      <trkpt lat="45.21557" lon="5.73573">
        <ele>803.40002441406</ele>
        <time>2026-08-12T14:16:37.000Z</time>
      </trkpt>
      <trkpt lat="45.21558" lon="5.73574">
        <ele>803.40002441406</ele>
        <time>2026-08-12T14:16:38.000Z</time>
      </trkpt>
      <trkpt lat="45.21558" lon="5.73575">
        <ele>803.40002441406</ele>
        <time>2026-08-12T14:16:39.000Z</time>
      </trkpt>
      <trkpt lat="45.21559" lon="5.73576">
        <ele>803.40002441406</ele>
        <time>2026-08-12T14:16:40.000Z</time>
      </trkpt>
      <trkpt lat="45.21559" lon="5.73577">
        <ele>804.20001220703</ele>
        <time>2026-08-12T14:16:41.000Z</time>
      </trkpt>
      <trkpt lat="45.2156" lon="5.73578">
        <ele>805</ele>
        <time>2026-08-12T14:16:42.000Z</time>
      </trkpt>
      <trkpt lat="45.21561" lon="5.73579">
        <ele>806</ele>
        <time>2026-08-12T14:16:43.000Z</time>
      </trkpt>
      <trkpt lat="45.21562" lon="5.7358">
        <ele>806.40002441406</ele>
        <time>2026-08-12T14:16:44.000Z</time>
      </trkpt>
      <trkpt lat="45.21562" lon="5.73582">
        <ele>807.20001220703</ele>
        <time>2026-08-12T14:16:45.000Z</time>
      </trkpt>
      <trkpt lat="45.21563" lon="5.73583">
        <ele>807.40002441406</ele>
        <time>2026-08-12T14:16:46.000Z</time>
      </trkpt>
      <trkpt lat="45.21564" lon="5.73584">
        <ele>808</ele>
        <time>2026-08-12T14:16:47.000Z</time>
      </trkpt>
      <trkpt lat="45.21564" lon="5.73585">
        <ele>808.59997558594</ele>
        <time>2026-08-12T14:16:48.000Z</time>
      </trkpt>
      <trkpt lat="45.21565" lon="5.73587">
        <ele>809.40002441406</ele>
        <time>2026-08-12T14:16:49.000Z</time>
      </trkpt>
      <trkpt lat="45.21566" lon="5.73588">
        <ele>810</ele>
        <time>2026-08-12T14:16:50.000Z</time>
      </trkpt>
      <trkpt lat="45.21566" lon="5.73589">
        <ele>810.79998779297</ele>
        <time>2026-08-12T14:16:51.000Z</time>
      </trkpt>
      <trkpt lat="45.21567" lon="5.7359">
        <ele>811.20001220703</ele>
        <time>2026-08-12T14:16:52.000Z</time>
      </trkpt>
      <trkpt lat="45.21568" lon="5.73591">
        <ele>811.59997558594</ele>
        <time>2026-08-12T14:16:53.000Z</time>
      </trkpt>
      <trkpt lat="45.21568" lon="5.73591">
        <ele>812.20001220703</ele>
        <time>2026-08-12T14:16:54.000Z</time>
      </trkpt>
      <trkpt lat="45.21568" lon="5.73591">
        <ele>812.20001220703</ele>
        <time>2026-08-12T14:16:55.000Z</time>
      </trkpt>
      <trkpt lat="45.21568" lon="5.7359">
        <ele>812.20001220703</ele>
        <time>2026-08-12T14:16:56.000Z</time>
      </trkpt>
      <trkpt lat="45.21568" lon="5.73589">
        <ele>812.20001220703</ele>
        <time>2026-08-12T14:16:57.000Z</time>
      </trkpt>
      <trkpt lat="45.21567" lon="5.73589">
        <ele>812.20001220703</ele>
        <time>2026-08-12T14:16:58.000Z</time>
      </trkpt>
      <trkpt lat="45.21567" lon="5.73587">
        <ele>812.20001220703</ele>
        <time>2026-08-12T14:16:59.000Z</time>
      </trkpt>
      <trkpt lat="45.21567" lon="5.73586">
        <ele>812.20001220703</ele>
        <time>2026-08-12T14:17:00.000Z</time>
      </trkpt>
      <trkpt lat="45.21566" lon="5.73585">
        <ele>811.79998779297</ele>
        <time>2026-08-12T14:17:01.000Z</time>
      </trkpt>
      <trkpt lat="45.21566" lon="5.73584">
        <ele>811.59997558594</ele>
        <time>2026-08-12T14:17:02.000Z</time>
      </trkpt>
      <trkpt lat="45.21566" lon="5.73583">
        <ele>811.40002441406</ele>
        <time>2026-08-12T14:17:03.000Z</time>
      </trkpt>
      <trkpt lat="45.21566" lon="5.73582">
        <ele>811</ele>
        <time>2026-08-12T14:17:04.000Z</time>
      </trkpt>
      <trkpt lat="45.21565" lon="5.7358">
        <ele>810.79998779297</ele>
        <time>2026-08-12T14:17:05.000Z</time>
      </trkpt>
      <trkpt lat="45.21565" lon="5.73579">
        <ele>810.59997558594</ele>
        <time>2026-08-12T14:17:06.000Z</time>
      </trkpt>
      <trkpt lat="45.21565" lon="5.73578">
        <ele>810.59997558594</ele>
        <time>2026-08-12T14:17:07.000Z</time>
      </trkpt>
      <trkpt lat="45.21565" lon="5.73577">
        <ele>810.59997558594</ele>
        <time>2026-08-12T14:17:08.000Z</time>
      </trkpt>
      <trkpt lat="45.21564" lon="5.73576">
        <ele>811</ele>
        <time>2026-08-12T14:17:09.000Z</time>
      </trkpt>
      <trkpt lat="45.21564" lon="5.73575">
        <ele>811.20001220703</ele>
        <time>2026-08-12T14:17:10.000Z</time>
      </trkpt>
      <trkpt lat="45.21563" lon="5.73574">
        <ele>811.59997558594</ele>
        <time>2026-08-12T14:17:11.000Z</time>
      </trkpt>
      <trkpt lat="45.21563" lon="5.73573">
        <ele>811.79998779297</ele>
        <time>2026-08-12T14:17:12.000Z</time>
      </trkpt>
      <trkpt lat="45.21563" lon="5.73572">
        <ele>812.20001220703</ele>
        <time>2026-08-12T14:17:13.000Z</time>
      </trkpt>
      <trkpt lat="45.21563" lon="5.7357">
        <ele>812.79998779297</ele>
        <time>2026-08-12T14:17:14.000Z</time>
      </trkpt>
      <trkpt lat="45.21563" lon="5.73569">
        <ele>813.40002441406</ele>
        <time>2026-08-12T14:17:15.000Z</time>
      </trkpt>
      <trkpt lat="45.21562" lon="5.73568">
        <ele>813.59997558594</ele>
        <time>2026-08-12T14:17:16.000Z</time>
      </trkpt>
      <trkpt lat="45.21562" lon="5.73566">
        <ele>813.79998779297</ele>
        <time>2026-08-12T14:17:17.000Z</time>
      </trkpt>
      <trkpt lat="45.21561" lon="5.73565">
        <ele>814</ele>
        <time>2026-08-12T14:17:18.000Z</time>
      </trkpt>
      <trkpt lat="45.21561" lon="5.73564">
        <ele>814.20001220703</ele>
        <time>2026-08-12T14:17:19.000Z</time>
      </trkpt>
      <trkpt lat="45.21561" lon="5.73562">
        <ele>814.20001220703</ele>
        <time>2026-08-12T14:17:20.000Z</time>
      </trkpt>
      <trkpt lat="45.2156" lon="5.73561">
        <ele>814.20001220703</ele>
        <time>2026-08-12T14:17:21.000Z</time>
      </trkpt>
      <trkpt lat="45.2156" lon="5.7356">
        <ele>814.40002441406</ele>
        <time>2026-08-12T14:17:22.000Z</time>
      </trkpt>
      <trkpt lat="45.21559" lon="5.73559">
        <ele>814.40002441406</ele>
        <time>2026-08-12T14:17:23.000Z</time>
      </trkpt>
      <trkpt lat="45.21559" lon="5.73558">
        <ele>814.59997558594</ele>
        <time>2026-08-12T14:17:24.000Z</time>
      </trkpt>
      <trkpt lat="45.21559" lon="5.73557">
        <ele>814.79998779297</ele>
        <time>2026-08-12T14:17:25.000Z</time>
      </trkpt>
      <trkpt lat="45.21558" lon="5.73556">
        <ele>815.40002441406</ele>
        <time>2026-08-12T14:17:26.000Z</time>
      </trkpt>
      <trkpt lat="45.21559" lon="5.73554">
        <ele>815.79998779297</ele>
        <time>2026-08-12T14:17:27.000Z</time>
      </trkpt>
      <trkpt lat="45.21559" lon="5.73553">
        <ele>816.20001220703</ele>
        <time>2026-08-12T14:17:28.000Z</time>
      </trkpt>
      <trkpt lat="45.21558" lon="5.73552">
        <ele>816.20001220703</ele>
        <time>2026-08-12T14:17:29.000Z</time>
      </trkpt>
      <trkpt lat="45.21559" lon="5.73551">
        <ele>816.40002441406</ele>
        <time>2026-08-12T14:17:30.000Z</time>
      </trkpt>
      <trkpt lat="45.21559" lon="5.7355">
        <ele>816.59997558594</ele>
        <time>2026-08-12T14:17:31.000Z</time>
      </trkpt>
      <trkpt lat="45.21559" lon="5.73549">
        <ele>816.79998779297</ele>
        <time>2026-08-12T14:17:32.000Z</time>
      </trkpt>
      <trkpt lat="45.21559" lon="5.73548">
        <ele>817</ele>
        <time>2026-08-12T14:17:33.000Z</time>
      </trkpt>
      <trkpt lat="45.21558" lon="5.73546">
        <ele>817.20001220703</ele>
        <time>2026-08-12T14:17:34.000Z</time>
      </trkpt>
      <trkpt lat="45.21558" lon="5.73544">
        <ele>817.20001220703</ele>
        <time>2026-08-12T14:17:35.000Z</time>
      </trkpt>
      <trkpt lat="45.21558" lon="5.73543">
        <ele>817.20001220703</ele>
        <time>2026-08-12T14:17:36.000Z</time>
      </trkpt>
      <trkpt lat="45.21558" lon="5.73542">
        <ele>817.20001220703</ele>
        <time>2026-08-12T14:17:37.000Z</time>
      </trkpt>
      <trkpt lat="45.21558" lon="5.73541">
        <ele>817.20001220703</ele>
        <time>2026-08-12T14:17:38.000Z</time>
      </trkpt>
      <trkpt lat="45.21558" lon="5.73539">
        <ele>817</ele>
        <time>2026-08-12T14:17:39.000Z</time>
      </trkpt>
      <trkpt lat="45.21557" lon="5.73538">
        <ele>817</ele>
        <time>2026-08-12T14:17:40.000Z</time>
      </trkpt>
      <trkpt lat="45.21558" lon="5.73537">
        <ele>816.40002441406</ele>
        <time>2026-08-12T14:17:41.000Z</time>
      </trkpt>
      <trkpt lat="45.21558" lon="5.73535">
        <ele>816</ele>
        <time>2026-08-12T14:17:42.000Z</time>
      </trkpt>
      <trkpt lat="45.21558" lon="5.73534">
        <ele>815.59997558594</ele>
        <time>2026-08-12T14:17:43.000Z</time>
      </trkpt>
      <trkpt lat="45.21558" lon="5.73533">
        <ele>815.20001220703</ele>
        <time>2026-08-12T14:17:44.000Z</time>
      </trkpt>
      <trkpt lat="45.21558" lon="5.73532">
        <ele>815.20001220703</ele>
        <time>2026-08-12T14:17:45.000Z</time>
      </trkpt>
      <trkpt lat="45.21558" lon="5.73531">
        <ele>815</ele>
        <time>2026-08-12T14:17:46.000Z</time>
      </trkpt>
      <trkpt lat="45.21558" lon="5.7353">
        <ele>815.20001220703</ele>
        <time>2026-08-12T14:17:47.000Z</time>
      </trkpt>
      <trkpt lat="45.21558" lon="5.73528">
        <ele>815.40002441406</ele>
        <time>2026-08-12T14:17:48.000Z</time>
      </trkpt>
      <trkpt lat="45.21558" lon="5.73527">
        <ele>815.59997558594</ele>
        <time>2026-08-12T14:17:49.000Z</time>
      </trkpt>
      <trkpt lat="45.21558" lon="5.73525">
        <ele>816</ele>
        <time>2026-08-12T14:17:50.000Z</time>
      </trkpt>
      <trkpt lat="45.21558" lon="5.73524">
        <ele>816.40002441406</ele>
        <time>2026-08-12T14:17:51.000Z</time>
      </trkpt>
      <trkpt lat="45.21558" lon="5.73522">
        <ele>816.79998779297</ele>
        <time>2026-08-12T14:17:52.000Z</time>
      </trkpt>
      <trkpt lat="45.21558" lon="5.73521">
        <ele>817.40002441406</ele>
        <time>2026-08-12T14:17:53.000Z</time>
      </trkpt>
      <trkpt lat="45.21558" lon="5.73519">
        <ele>817.79998779297</ele>
        <time>2026-08-12T14:17:54.000Z</time>
      </trkpt>
      <trkpt lat="45.21558" lon="5.73518">
        <ele>818.20001220703</ele>
        <time>2026-08-12T14:17:55.000Z</time>
      </trkpt>
      <trkpt lat="45.21559" lon="5.73517">
        <ele>818.59997558594</ele>
        <time>2026-08-12T14:17:56.000Z</time>
      </trkpt>
      <trkpt lat="45.21559" lon="5.73516">
        <ele>819.20001220703</ele>
        <time>2026-08-12T14:17:57.000Z</time>
      </trkpt>
      <trkpt lat="45.21559" lon="5.73515">
        <ele>819.59997558594</ele>
        <time>2026-08-12T14:17:58.000Z</time>
      </trkpt>
      <trkpt lat="45.21559" lon="5.73513">
        <ele>820.20001220703</ele>
        <time>2026-08-12T14:17:59.000Z</time>
      </trkpt>
      <trkpt lat="45.21559" lon="5.73512">
        <ele>820.59997558594</ele>
        <time>2026-08-12T14:18:00.000Z</time>
      </trkpt>
      <trkpt lat="45.21558" lon="5.73511">
        <ele>820.79998779297</ele>
        <time>2026-08-12T14:18:01.000Z</time>
      </trkpt>
      <trkpt lat="45.21558" lon="5.7351">
        <ele>821</ele>
        <time>2026-08-12T14:18:02.000Z</time>
      </trkpt>
      <trkpt lat="45.21557" lon="5.73509">
        <ele>821.20001220703</ele>
        <time>2026-08-12T14:18:03.000Z</time>
      </trkpt>
      <trkpt lat="45.21557" lon="5.73507">
        <ele>821.59997558594</ele>
        <time>2026-08-12T14:18:04.000Z</time>
      </trkpt>
      <trkpt lat="45.21557" lon="5.73505">
        <ele>821.59997558594</ele>
        <time>2026-08-12T14:18:05.000Z</time>
      </trkpt>
      <trkpt lat="45.21557" lon="5.73504">
        <ele>821.40002441406</ele>
        <time>2026-08-12T14:18:06.000Z</time>
      </trkpt>
      <trkpt lat="45.21557" lon="5.73502">
        <ele>821.40002441406</ele>
        <time>2026-08-12T14:18:07.000Z</time>
      </trkpt>
      <trkpt lat="45.21557" lon="5.73501">
        <ele>821.20001220703</ele>
        <time>2026-08-12T14:18:08.000Z</time>
      </trkpt>
      <trkpt lat="45.21557" lon="5.73499">
        <ele>821.20001220703</ele>
        <time>2026-08-12T14:18:09.000Z</time>
      </trkpt>
      <trkpt lat="45.21557" lon="5.73498">
        <ele>821.20001220703</ele>
        <time>2026-08-12T14:18:10.000Z</time>
      </trkpt>
      <trkpt lat="45.21557" lon="5.73497">
        <ele>821.40002441406</ele>
        <time>2026-08-12T14:18:11.000Z</time>
      </trkpt>
      <trkpt lat="45.21556" lon="5.73496">
        <ele>821.59997558594</ele>
        <time>2026-08-12T14:18:12.000Z</time>
      </trkpt>
      <trkpt lat="45.21556" lon="5.73495">
        <ele>821.79998779297</ele>
        <time>2026-08-12T14:18:13.000Z</time>
      </trkpt>
      <trkpt lat="45.21557" lon="5.73493">
        <ele>822</ele>
        <time>2026-08-12T14:18:14.000Z</time>
      </trkpt>
      <trkpt lat="45.21556" lon="5.73493">
        <ele>822.20001220703</ele>
        <time>2026-08-12T14:18:15.000Z</time>
      </trkpt>
      <trkpt lat="45.21556" lon="5.73492">
        <ele>822.20001220703</ele>
        <time>2026-08-12T14:18:16.000Z</time>
      </trkpt>
      <trkpt lat="45.21556" lon="5.73491">
        <ele>822.40002441406</ele>
        <time>2026-08-12T14:18:17.000Z</time>
      </trkpt>
      <trkpt lat="45.21555" lon="5.7349">
        <ele>822.79998779297</ele>
        <time>2026-08-12T14:18:18.000Z</time>
      </trkpt>
      <trkpt lat="45.21555" lon="5.73489">
        <ele>823</ele>
        <time>2026-08-12T14:18:19.000Z</time>
      </trkpt>
      <trkpt lat="45.21554" lon="5.73488">
        <ele>823.40002441406</ele>
        <time>2026-08-12T14:18:20.000Z</time>
      </trkpt>
      <trkpt lat="45.21553" lon="5.73488">
        <ele>824.79998779297</ele>
        <time>2026-08-12T14:18:21.000Z</time>
      </trkpt>
      <trkpt lat="45.21552" lon="5.73487">
        <ele>825</ele>
        <time>2026-08-12T14:18:22.000Z</time>
      </trkpt>
      <trkpt lat="45.21551" lon="5.73486">
        <ele>825.59997558594</ele>
        <time>2026-08-12T14:18:23.000Z</time>
      </trkpt>
      <trkpt lat="45.2155" lon="5.73486">
        <ele>826</ele>
        <time>2026-08-12T14:18:24.000Z</time>
      </trkpt>
      <trkpt lat="45.21549" lon="5.73485">
        <ele>826.20001220703</ele>
        <time>2026-08-12T14:18:25.000Z</time>
      </trkpt>
      <trkpt lat="45.21548" lon="5.73484">
        <ele>826.79998779297</ele>
        <time>2026-08-12T14:18:26.000Z</time>
      </trkpt>
      <trkpt lat="45.21547" lon="5.73483">
        <ele>827.59997558594</ele>
        <time>2026-08-12T14:18:27.000Z</time>
      </trkpt>
      <trkpt lat="45.21547" lon="5.73483">
        <ele>827.40002441406</ele>
        <time>2026-08-12T14:18:28.000Z</time>
      </trkpt>
      <trkpt lat="45.21546" lon="5.73482">
        <ele>827.20001220703</ele>
        <time>2026-08-12T14:18:29.000Z</time>
      </trkpt>
      <trkpt lat="45.21545" lon="5.73481">
        <ele>827</ele>
        <time>2026-08-12T14:18:30.000Z</time>
      </trkpt>
      <trkpt lat="45.21544" lon="5.7348">
        <ele>826.79998779297</ele>
        <time>2026-08-12T14:18:31.000Z</time>
      </trkpt>
      <trkpt lat="45.21543" lon="5.7348">
        <ele>826.79998779297</ele>
        <time>2026-08-12T14:18:32.000Z</time>
      </trkpt>
      <trkpt lat="45.21542" lon="5.73479">
        <ele>826.59997558594</ele>
        <time>2026-08-12T14:18:33.000Z</time>
      </trkpt>
      <trkpt lat="45.21541" lon="5.73478">
        <ele>826.40002441406</ele>
        <time>2026-08-12T14:18:34.000Z</time>
      </trkpt>
      <trkpt lat="45.21541" lon="5.73477">
        <ele>826.20001220703</ele>
        <time>2026-08-12T14:18:35.000Z</time>
      </trkpt>
      <trkpt lat="45.2154" lon="5.73476">
        <ele>826</ele>
        <time>2026-08-12T14:18:36.000Z</time>
      </trkpt>
      <trkpt lat="45.21539" lon="5.73475">
        <ele>825.79998779297</ele>
        <time>2026-08-12T14:18:37.000Z</time>
      </trkpt>
      <trkpt lat="45.21539" lon="5.73474">
        <ele>825.59997558594</ele>
        <time>2026-08-12T14:18:38.000Z</time>
      </trkpt>
      <trkpt lat="45.21539" lon="5.73472">
        <ele>825.40002441406</ele>
        <time>2026-08-12T14:18:39.000Z</time>
      </trkpt>
      <trkpt lat="45.2154" lon="5.73471">
        <ele>825.20001220703</ele>
        <time>2026-08-12T14:18:40.000Z</time>
      </trkpt>
      <trkpt lat="45.21541" lon="5.73471">
        <ele>825</ele>
        <time>2026-08-12T14:18:41.000Z</time>
      </trkpt>
      <trkpt lat="45.21541" lon="5.73471">
        <ele>824.79998779297</ele>
        <time>2026-08-12T14:18:42.000Z</time>
      </trkpt>
      <trkpt lat="45.21541" lon="5.73471">
        <ele>824.40002441406</ele>
        <time>2026-08-12T14:18:43.000Z</time>
      </trkpt>
      <trkpt lat="45.21542" lon="5.73471">
        <ele>824.20001220703</ele>
        <time>2026-08-12T14:18:44.000Z</time>
      </trkpt>
      <trkpt lat="45.21543" lon="5.73472">
        <ele>824</ele>
        <time>2026-08-12T14:18:45.000Z</time>
      </trkpt>
      <trkpt lat="45.21544" lon="5.73472">
        <ele>824</ele>
        <time>2026-08-12T14:18:46.000Z</time>
      </trkpt>
      <trkpt lat="45.21545" lon="5.73473">
        <ele>823.79998779297</ele>
        <time>2026-08-12T14:18:47.000Z</time>
      </trkpt>
      <trkpt lat="45.21546" lon="5.73473">
        <ele>823.79998779297</ele>
        <time>2026-08-12T14:18:48.000Z</time>
      </trkpt>
      <trkpt lat="45.21547" lon="5.73473">
        <ele>823.79998779297</ele>
        <time>2026-08-12T14:18:49.000Z</time>
      </trkpt>
      <trkpt lat="45.21548" lon="5.73473">
        <ele>823.79998779297</ele>
        <time>2026-08-12T14:18:50.000Z</time>
      </trkpt>
      <trkpt lat="45.21549" lon="5.73474">
        <ele>823.79998779297</ele>
        <time>2026-08-12T14:18:51.000Z</time>
      </trkpt>
      <trkpt lat="45.2155" lon="5.73474">
        <ele>823.79998779297</ele>
        <time>2026-08-12T14:18:52.000Z</time>
      </trkpt>
      <trkpt lat="45.2155" lon="5.73474">
        <ele>823.79998779297</ele>
        <time>2026-08-12T14:18:53.000Z</time>
      </trkpt>
      <trkpt lat="45.21551" lon="5.73473">
        <ele>823.79998779297</ele>
        <time>2026-08-12T14:18:54.000Z</time>
      </trkpt>
      <trkpt lat="45.21552" lon="5.73473">
        <ele>824.40002441406</ele>
        <time>2026-08-12T14:18:55.000Z</time>
      </trkpt>
      <trkpt lat="45.21553" lon="5.73473">
        <ele>825</ele>
        <time>2026-08-12T14:18:56.000Z</time>
      </trkpt>
      <trkpt lat="45.21553" lon="5.73473">
        <ele>825.79998779297</ele>
        <time>2026-08-12T14:18:57.000Z</time>
      </trkpt>
      <trkpt lat="45.21554" lon="5.73473">
        <ele>826.40002441406</ele>
        <time>2026-08-12T14:18:58.000Z</time>
      </trkpt>
      <trkpt lat="45.21555" lon="5.73473">
        <ele>827</ele>
        <time>2026-08-12T14:18:59.000Z</time>
      </trkpt>
      <trkpt lat="45.21555" lon="5.73473">
        <ele>827.59997558594</ele>
        <time>2026-08-12T14:19:00.000Z</time>
      </trkpt>
      <trkpt lat="45.21557" lon="5.73473">
        <ele>829.59997558594</ele>
        <time>2026-08-12T14:19:01.000Z</time>
      </trkpt>
      <trkpt lat="45.21557" lon="5.73474">
        <ele>830.20001220703</ele>
        <time>2026-08-12T14:19:02.000Z</time>
      </trkpt>
      <trkpt lat="45.21558" lon="5.73474">
        <ele>830.79998779297</ele>
        <time>2026-08-12T14:19:03.000Z</time>
      </trkpt>
      <trkpt lat="45.21559" lon="5.73474">
        <ele>831.40002441406</ele>
        <time>2026-08-12T14:19:04.000Z</time>
      </trkpt>
      <trkpt lat="45.2156" lon="5.73474">
        <ele>832</ele>
        <time>2026-08-12T14:19:05.000Z</time>
      </trkpt>
      <trkpt lat="45.2156" lon="5.73474">
        <ele>832.59997558594</ele>
        <time>2026-08-12T14:19:06.000Z</time>
      </trkpt>
      <trkpt lat="45.21561" lon="5.73474">
        <ele>833</ele>
        <time>2026-08-12T14:19:07.000Z</time>
      </trkpt>
      <trkpt lat="45.21563" lon="5.73474">
        <ele>833.59997558594</ele>
        <time>2026-08-12T14:19:08.000Z</time>
      </trkpt>
      <trkpt lat="45.21564" lon="5.73475">
        <ele>834.20001220703</ele>
        <time>2026-08-12T14:19:09.000Z</time>
      </trkpt>
      <trkpt lat="45.21565" lon="5.73476">
        <ele>834.79998779297</ele>
        <time>2026-08-12T14:19:10.000Z</time>
      </trkpt>
      <trkpt lat="45.21565" lon="5.73477">
        <ele>835.40002441406</ele>
        <time>2026-08-12T14:19:11.000Z</time>
      </trkpt>
      <trkpt lat="45.21566" lon="5.73479">
        <ele>836</ele>
        <time>2026-08-12T14:19:12.000Z</time>
      </trkpt>
      <trkpt lat="45.21567" lon="5.7348">
        <ele>836</ele>
        <time>2026-08-12T14:19:13.000Z</time>
      </trkpt>
      <trkpt lat="45.21568" lon="5.73481">
        <ele>836</ele>
        <time>2026-08-12T14:19:14.000Z</time>
      </trkpt>
      <trkpt lat="45.21569" lon="5.73482">
        <ele>836</ele>
        <time>2026-08-12T14:19:15.000Z</time>
      </trkpt>
      <trkpt lat="45.2157" lon="5.73483">
        <ele>836</ele>
        <time>2026-08-12T14:19:16.000Z</time>
      </trkpt>
      <trkpt lat="45.2157" lon="5.73484">
        <ele>836</ele>
        <time>2026-08-12T14:19:17.000Z</time>
      </trkpt>
      <trkpt lat="45.21571" lon="5.73486">
        <ele>836</ele>
        <time>2026-08-12T14:19:18.000Z</time>
      </trkpt>
      <trkpt lat="45.21572" lon="5.73486">
        <ele>836</ele>
        <time>2026-08-12T14:19:19.000Z</time>
      </trkpt>
      <trkpt lat="45.21573" lon="5.73487">
        <ele>834.79998779297</ele>
        <time>2026-08-12T14:19:20.000Z</time>
      </trkpt>
      <trkpt lat="45.21573" lon="5.73488">
        <ele>834</ele>
        <time>2026-08-12T14:19:21.000Z</time>
      </trkpt>
      <trkpt lat="45.21574" lon="5.73489">
        <ele>833.59997558594</ele>
        <time>2026-08-12T14:19:22.000Z</time>
      </trkpt>
      <trkpt lat="45.21574" lon="5.7349">
        <ele>832.79998779297</ele>
        <time>2026-08-12T14:19:23.000Z</time>
      </trkpt>
      <trkpt lat="45.21575" lon="5.73491">
        <ele>831.79998779297</ele>
        <time>2026-08-12T14:19:24.000Z</time>
      </trkpt>
      <trkpt lat="45.21576" lon="5.73492">
        <ele>830.79998779297</ele>
        <time>2026-08-12T14:19:25.000Z</time>
      </trkpt>
      <trkpt lat="45.21576" lon="5.73494">
        <ele>830.40002441406</ele>
        <time>2026-08-12T14:19:26.000Z</time>
      </trkpt>
      <trkpt lat="45.21577" lon="5.73495">
        <ele>830</ele>
        <time>2026-08-12T14:19:27.000Z</time>
      </trkpt>
      <trkpt lat="45.21577" lon="5.73497">
        <ele>830.40002441406</ele>
        <time>2026-08-12T14:19:28.000Z</time>
      </trkpt>
      <trkpt lat="45.21578" lon="5.73498">
        <ele>830.59997558594</ele>
        <time>2026-08-12T14:19:29.000Z</time>
      </trkpt>
      <trkpt lat="45.21578" lon="5.73499">
        <ele>832</ele>
        <time>2026-08-12T14:19:30.000Z</time>
      </trkpt>
      <trkpt lat="45.21579" lon="5.73501">
        <ele>832.20001220703</ele>
        <time>2026-08-12T14:19:31.000Z</time>
      </trkpt>
      <trkpt lat="45.21579" lon="5.73502">
        <ele>832.40002441406</ele>
        <time>2026-08-12T14:19:32.000Z</time>
      </trkpt>
      <trkpt lat="45.21579" lon="5.73504">
        <ele>832.59997558594</ele>
        <time>2026-08-12T14:19:33.000Z</time>
      </trkpt>
      <trkpt lat="45.2158" lon="5.73505">
        <ele>832.79998779297</ele>
        <time>2026-08-12T14:19:34.000Z</time>
      </trkpt>
      <trkpt lat="45.2158" lon="5.73507">
        <ele>832.79998779297</ele>
        <time>2026-08-12T14:19:35.000Z</time>
      </trkpt>
      <trkpt lat="45.2158" lon="5.73508">
        <ele>833</ele>
        <time>2026-08-12T14:19:36.000Z</time>
      </trkpt>
      <trkpt lat="45.21581" lon="5.73509">
        <ele>833</ele>
        <time>2026-08-12T14:19:37.000Z</time>
      </trkpt>
      <trkpt lat="45.21581" lon="5.7351">
        <ele>833.20001220703</ele>
        <time>2026-08-12T14:19:38.000Z</time>
      </trkpt>
      <trkpt lat="45.21581" lon="5.73511">
        <ele>833.20001220703</ele>
        <time>2026-08-12T14:19:39.000Z</time>
      </trkpt>
      <trkpt lat="45.21582" lon="5.73513">
        <ele>833.20001220703</ele>
        <time>2026-08-12T14:19:40.000Z</time>
      </trkpt>
      <trkpt lat="45.21582" lon="5.73514">
        <ele>833.20001220703</ele>
        <time>2026-08-12T14:19:41.000Z</time>
      </trkpt>
      <trkpt lat="45.21583" lon="5.73515">
        <ele>833.20001220703</ele>
        <time>2026-08-12T14:19:42.000Z</time>
      </trkpt>
      <trkpt lat="45.21584" lon="5.73517">
        <ele>833.20001220703</ele>
        <time>2026-08-12T14:19:43.000Z</time>
      </trkpt>
      <trkpt lat="45.21584" lon="5.73518">
        <ele>833.40002441406</ele>
        <time>2026-08-12T14:19:44.000Z</time>
      </trkpt>
      <trkpt lat="45.21585" lon="5.73519">
        <ele>833.40002441406</ele>
        <time>2026-08-12T14:19:45.000Z</time>
      </trkpt>
      <trkpt lat="45.21585" lon="5.7352">
        <ele>833.59997558594</ele>
        <time>2026-08-12T14:19:46.000Z</time>
      </trkpt>
      <trkpt lat="45.21586" lon="5.73521">
        <ele>833.59997558594</ele>
        <time>2026-08-12T14:19:47.000Z</time>
      </trkpt>
      <trkpt lat="45.21586" lon="5.73522">
        <ele>833.59997558594</ele>
        <time>2026-08-12T14:19:48.000Z</time>
      </trkpt>
      <trkpt lat="45.21587" lon="5.73523">
        <ele>833.59997558594</ele>
        <time>2026-08-12T14:19:49.000Z</time>
      </trkpt>
      <trkpt lat="45.21588" lon="5.73524">
        <ele>833.59997558594</ele>
        <time>2026-08-12T14:19:50.000Z</time>
      </trkpt>
      <trkpt lat="45.21588" lon="5.73525">
        <ele>833.59997558594</ele>
        <time>2026-08-12T14:19:51.000Z</time>
      </trkpt>
      <trkpt lat="45.21589" lon="5.73526">
        <ele>833.59997558594</ele>
        <time>2026-08-12T14:19:52.000Z</time>
      </trkpt>
      <trkpt lat="45.21589" lon="5.73526">
        <ele>833.59997558594</ele>
        <time>2026-08-12T14:19:53.000Z</time>
      </trkpt>
      <trkpt lat="45.2159" lon="5.73527">
        <ele>833.59997558594</ele>
        <time>2026-08-12T14:19:54.000Z</time>
      </trkpt>
      <trkpt lat="45.21591" lon="5.73528">
        <ele>833.59997558594</ele>
        <time>2026-08-12T14:19:55.000Z</time>
      </trkpt>
      <trkpt lat="45.21592" lon="5.73529">
        <ele>833.59997558594</ele>
        <time>2026-08-12T14:19:56.000Z</time>
      </trkpt>
      <trkpt lat="45.21592" lon="5.7353">
        <ele>833.59997558594</ele>
        <time>2026-08-12T14:19:57.000Z</time>
      </trkpt>
      <trkpt lat="45.21592" lon="5.73532">
        <ele>833.59997558594</ele>
        <time>2026-08-12T14:19:58.000Z</time>
      </trkpt>
      <trkpt lat="45.21593" lon="5.73533">
        <ele>833.79998779297</ele>
        <time>2026-08-12T14:19:59.000Z</time>
      </trkpt>
      <trkpt lat="45.21594" lon="5.73534">
        <ele>834</ele>
        <time>2026-08-12T14:20:00.000Z</time>
      </trkpt>
      <trkpt lat="45.21594" lon="5.73535">
        <ele>834.40002441406</ele>
        <time>2026-08-12T14:20:01.000Z</time>
      </trkpt>
      <trkpt lat="45.21594" lon="5.73536">
        <ele>834.79998779297</ele>
        <time>2026-08-12T14:20:02.000Z</time>
      </trkpt>
      <trkpt lat="45.21595" lon="5.73537">
        <ele>835.20001220703</ele>
        <time>2026-08-12T14:20:03.000Z</time>
      </trkpt>
      <trkpt lat="45.21596" lon="5.73538">
        <ele>835.59997558594</ele>
        <time>2026-08-12T14:20:04.000Z</time>
      </trkpt>
      <trkpt lat="45.21596" lon="5.73539">
        <ele>836.20001220703</ele>
        <time>2026-08-12T14:20:05.000Z</time>
      </trkpt>
      <trkpt lat="45.21597" lon="5.7354">
        <ele>836.59997558594</ele>
        <time>2026-08-12T14:20:06.000Z</time>
      </trkpt>
      <trkpt lat="45.21598" lon="5.7354">
        <ele>837.20001220703</ele>
        <time>2026-08-12T14:20:07.000Z</time>
      </trkpt>
      <trkpt lat="45.21599" lon="5.73541">
        <ele>837.59997558594</ele>
        <time>2026-08-12T14:20:08.000Z</time>
      </trkpt>
      <trkpt lat="45.21599" lon="5.73542">
        <ele>838</ele>
        <time>2026-08-12T14:20:09.000Z</time>
      </trkpt>
      <trkpt lat="45.216" lon="5.73543">
        <ele>838.40002441406</ele>
        <time>2026-08-12T14:20:10.000Z</time>
      </trkpt>
      <trkpt lat="45.21601" lon="5.73543">
        <ele>838.59997558594</ele>
        <time>2026-08-12T14:20:11.000Z</time>
      </trkpt>
      <trkpt lat="45.21601" lon="5.73544">
        <ele>838.79998779297</ele>
        <time>2026-08-12T14:20:12.000Z</time>
      </trkpt>
      <trkpt lat="45.21602" lon="5.73544">
        <ele>839</ele>
        <time>2026-08-12T14:20:13.000Z</time>
      </trkpt>
      <trkpt lat="45.21603" lon="5.73545">
        <ele>839.20001220703</ele>
        <time>2026-08-12T14:20:14.000Z</time>
      </trkpt>
      <trkpt lat="45.21603" lon="5.73547">
        <ele>839.40002441406</ele>
        <time>2026-08-12T14:20:15.000Z</time>
      </trkpt>
      <trkpt lat="45.21604" lon="5.73548">
        <ele>839.40002441406</ele>
        <time>2026-08-12T14:20:16.000Z</time>
      </trkpt>
      <trkpt lat="45.21605" lon="5.73549">
        <ele>839.79998779297</ele>
        <time>2026-08-12T14:20:17.000Z</time>
      </trkpt>
      <trkpt lat="45.21606" lon="5.7355">
        <ele>839.79998779297</ele>
        <time>2026-08-12T14:20:18.000Z</time>
      </trkpt>
      <trkpt lat="45.21606" lon="5.73551">
        <ele>839.79998779297</ele>
        <time>2026-08-12T14:20:19.000Z</time>
      </trkpt>
      <trkpt lat="45.21607" lon="5.73552">
        <ele>839.79998779297</ele>
        <time>2026-08-12T14:20:20.000Z</time>
      </trkpt>
      <trkpt lat="45.21607" lon="5.73553">
        <ele>839.79998779297</ele>
        <time>2026-08-12T14:20:21.000Z</time>
      </trkpt>
      <trkpt lat="45.21608" lon="5.73554">
        <ele>840</ele>
        <time>2026-08-12T14:20:22.000Z</time>
      </trkpt>
      <trkpt lat="45.21609" lon="5.73555">
        <ele>840</ele>
        <time>2026-08-12T14:20:23.000Z</time>
      </trkpt>
      <trkpt lat="45.21609" lon="5.73556">
        <ele>841</ele>
        <time>2026-08-12T14:20:24.000Z</time>
      </trkpt>
      <trkpt lat="45.2161" lon="5.73557">
        <ele>842.40002441406</ele>
        <time>2026-08-12T14:20:25.000Z</time>
      </trkpt>
      <trkpt lat="45.21611" lon="5.73558">
        <ele>842.79998779297</ele>
        <time>2026-08-12T14:20:26.000Z</time>
      </trkpt>
      <trkpt lat="45.21612" lon="5.73559">
        <ele>843.20001220703</ele>
        <time>2026-08-12T14:20:27.000Z</time>
      </trkpt>
      <trkpt lat="45.21612" lon="5.73559">
        <ele>844</ele>
        <time>2026-08-12T14:20:28.000Z</time>
      </trkpt>
      <trkpt lat="45.21613" lon="5.7356">
        <ele>844.79998779297</ele>
        <time>2026-08-12T14:20:29.000Z</time>
      </trkpt>
      <trkpt lat="45.21614" lon="5.73561">
        <ele>846.40002441406</ele>
        <time>2026-08-12T14:20:30.000Z</time>
      </trkpt>
      <trkpt lat="45.21614" lon="5.73561">
        <ele>847.20001220703</ele>
        <time>2026-08-12T14:20:31.000Z</time>
      </trkpt>
      <trkpt lat="45.21615" lon="5.73562">
        <ele>847.79998779297</ele>
        <time>2026-08-12T14:20:32.000Z</time>
      </trkpt>
      <trkpt lat="45.21616" lon="5.73563">
        <ele>848.20001220703</ele>
        <time>2026-08-12T14:20:33.000Z</time>
      </trkpt>
      <trkpt lat="45.21617" lon="5.73563">
        <ele>848.40002441406</ele>
        <time>2026-08-12T14:20:34.000Z</time>
      </trkpt>
      <trkpt lat="45.21617" lon="5.73564">
        <ele>848.79998779297</ele>
        <time>2026-08-12T14:20:35.000Z</time>
      </trkpt>
      <trkpt lat="45.21618" lon="5.73565">
        <ele>849.20001220703</ele>
        <time>2026-08-12T14:20:36.000Z</time>
      </trkpt>
      <trkpt lat="45.21619" lon="5.73566">
        <ele>849.40002441406</ele>
        <time>2026-08-12T14:20:37.000Z</time>
      </trkpt>
      <trkpt lat="45.21619" lon="5.73567">
        <ele>849.79998779297</ele>
        <time>2026-08-12T14:20:38.000Z</time>
      </trkpt>
      <trkpt lat="45.2162" lon="5.73567">
        <ele>850.20001220703</ele>
        <time>2026-08-12T14:20:39.000Z</time>
      </trkpt>
      <trkpt lat="45.21621" lon="5.73568">
        <ele>850.40002441406</ele>
        <time>2026-08-12T14:20:40.000Z</time>
      </trkpt>
      <trkpt lat="45.21621" lon="5.73568">
        <ele>850.79998779297</ele>
        <time>2026-08-12T14:20:41.000Z</time>
      </trkpt>
      <trkpt lat="45.21622" lon="5.73569">
        <ele>851.20001220703</ele>
        <time>2026-08-12T14:20:42.000Z</time>
      </trkpt>
      <trkpt lat="45.21623" lon="5.7357">
        <ele>851.40002441406</ele>
        <time>2026-08-12T14:20:43.000Z</time>
      </trkpt>
      <trkpt lat="45.21623" lon="5.73571">
        <ele>851.79998779297</ele>
        <time>2026-08-12T14:20:44.000Z</time>
      </trkpt>
      <trkpt lat="45.21624" lon="5.73571">
        <ele>851.40002441406</ele>
        <time>2026-08-12T14:20:45.000Z</time>
      </trkpt>
      <trkpt lat="45.21625" lon="5.73572">
        <ele>851</ele>
        <time>2026-08-12T14:20:46.000Z</time>
      </trkpt>
      <trkpt lat="45.21625" lon="5.73573">
        <ele>850.59997558594</ele>
        <time>2026-08-12T14:20:47.000Z</time>
      </trkpt>
      <trkpt lat="45.21626" lon="5.73573">
        <ele>850.20001220703</ele>
        <time>2026-08-12T14:20:48.000Z</time>
      </trkpt>
      <trkpt lat="45.21627" lon="5.73574">
        <ele>849.79998779297</ele>
        <time>2026-08-12T14:20:49.000Z</time>
      </trkpt>
      <trkpt lat="45.21628" lon="5.73575">
        <ele>850</ele>
        <time>2026-08-12T14:20:50.000Z</time>
      </trkpt>
      <trkpt lat="45.21628" lon="5.73575">
        <ele>850</ele>
        <time>2026-08-12T14:20:51.000Z</time>
      </trkpt>
      <trkpt lat="45.21629" lon="5.73576">
        <ele>850.20001220703</ele>
        <time>2026-08-12T14:20:52.000Z</time>
      </trkpt>
      <trkpt lat="45.21629" lon="5.73576">
        <ele>850.40002441406</ele>
        <time>2026-08-12T14:20:53.000Z</time>
      </trkpt>
      <trkpt lat="45.21629" lon="5.73576">
        <ele>850.59997558594</ele>
        <time>2026-08-12T14:20:54.000Z</time>
      </trkpt>
      <trkpt lat="45.21629" lon="5.73576">
        <ele>850.79998779297</ele>
        <time>2026-08-12T14:20:55.000Z</time>
      </trkpt>
      <trkpt lat="45.21629" lon="5.73576">
        <ele>851</ele>
        <time>2026-08-12T14:20:56.000Z</time>
      </trkpt>
      <trkpt lat="45.21629" lon="5.73575">
        <ele>851.20001220703</ele>
        <time>2026-08-12T14:20:57.000Z</time>
      </trkpt>
      <trkpt lat="45.21629" lon="5.73575">
        <ele>851.40002441406</ele>
        <time>2026-08-12T14:20:58.000Z</time>
      </trkpt>
      <trkpt lat="45.21628" lon="5.73574">
        <ele>852.20001220703</ele>
        <time>2026-08-12T14:20:59.000Z</time>
      </trkpt>
      <trkpt lat="45.21628" lon="5.73573">
        <ele>851.79998779297</ele>
        <time>2026-08-12T14:21:00.000Z</time>
      </trkpt>
      <trkpt lat="45.21627" lon="5.73573">
        <ele>851.40002441406</ele>
        <time>2026-08-12T14:21:01.000Z</time>
      </trkpt>
      <trkpt lat="45.21627" lon="5.73572">
        <ele>851.20001220703</ele>
        <time>2026-08-12T14:21:02.000Z</time>
      </trkpt>
      <trkpt lat="45.21626" lon="5.73571">
        <ele>851.40002441406</ele>
        <time>2026-08-12T14:21:03.000Z</time>
      </trkpt>
      <trkpt lat="45.21626" lon="5.7357">
        <ele>851.59997558594</ele>
        <time>2026-08-12T14:21:04.000Z</time>
      </trkpt>
      <trkpt lat="45.21625" lon="5.7357">
        <ele>851.79998779297</ele>
        <time>2026-08-12T14:21:05.000Z</time>
      </trkpt>
      <trkpt lat="45.21624" lon="5.73569">
        <ele>852</ele>
        <time>2026-08-12T14:21:06.000Z</time>
      </trkpt>
      <trkpt lat="45.21624" lon="5.73568">
        <ele>852.20001220703</ele>
        <time>2026-08-12T14:21:07.000Z</time>
      </trkpt>
      <trkpt lat="45.21623" lon="5.73567">
        <ele>852.40002441406</ele>
        <time>2026-08-12T14:21:08.000Z</time>
      </trkpt>
      <trkpt lat="45.21623" lon="5.73566">
        <ele>852.59997558594</ele>
        <time>2026-08-12T14:21:09.000Z</time>
      </trkpt>
      <trkpt lat="45.21622" lon="5.73565">
        <ele>852.79998779297</ele>
        <time>2026-08-12T14:21:10.000Z</time>
      </trkpt>
      <trkpt lat="45.21622" lon="5.73564">
        <ele>853</ele>
        <time>2026-08-12T14:21:11.000Z</time>
      </trkpt>
      <trkpt lat="45.21622" lon="5.73563">
        <ele>853.20001220703</ele>
        <time>2026-08-12T14:21:12.000Z</time>
      </trkpt>
      <trkpt lat="45.21621" lon="5.73562">
        <ele>853.40002441406</ele>
        <time>2026-08-12T14:21:13.000Z</time>
      </trkpt>
      <trkpt lat="45.21621" lon="5.7356">
        <ele>853.59997558594</ele>
        <time>2026-08-12T14:21:14.000Z</time>
      </trkpt>
      <trkpt lat="45.21621" lon="5.73559">
        <ele>853.79998779297</ele>
        <time>2026-08-12T14:21:15.000Z</time>
      </trkpt>
      <trkpt lat="45.2162" lon="5.73558">
        <ele>854</ele>
        <time>2026-08-12T14:21:16.000Z</time>
      </trkpt>
      <trkpt lat="45.2162" lon="5.73556">
        <ele>854.20001220703</ele>
        <time>2026-08-12T14:21:17.000Z</time>
      </trkpt>
      <trkpt lat="45.2162" lon="5.73555">
        <ele>854.40002441406</ele>
        <time>2026-08-12T14:21:18.000Z</time>
      </trkpt>
      <trkpt lat="45.2162" lon="5.73554">
        <ele>854.59997558594</ele>
        <time>2026-08-12T14:21:19.000Z</time>
      </trkpt>
      <trkpt lat="45.2162" lon="5.73552">
        <ele>854.79998779297</ele>
        <time>2026-08-12T14:21:20.000Z</time>
      </trkpt>
      <trkpt lat="45.21619" lon="5.73551">
        <ele>855</ele>
        <time>2026-08-12T14:21:21.000Z</time>
      </trkpt>
      <trkpt lat="45.21619" lon="5.7355">
        <ele>855.59997558594</ele>
        <time>2026-08-12T14:21:22.000Z</time>
      </trkpt>
      <trkpt lat="45.21619" lon="5.73548">
        <ele>856.40002441406</ele>
        <time>2026-08-12T14:21:23.000Z</time>
      </trkpt>
      <trkpt lat="45.21619" lon="5.73547">
        <ele>857</ele>
        <time>2026-08-12T14:21:24.000Z</time>
      </trkpt>
      <trkpt lat="45.21618" lon="5.73546">
        <ele>857.59997558594</ele>
        <time>2026-08-12T14:21:25.000Z</time>
      </trkpt>
      <trkpt lat="45.21618" lon="5.73545">
        <ele>858.40002441406</ele>
        <time>2026-08-12T14:21:26.000Z</time>
      </trkpt>
      <trkpt lat="45.21618" lon="5.73543">
        <ele>859</ele>
        <time>2026-08-12T14:21:27.000Z</time>
      </trkpt>
      <trkpt lat="45.21618" lon="5.73542">
        <ele>858.59997558594</ele>
        <time>2026-08-12T14:21:28.000Z</time>
      </trkpt>
      <trkpt lat="45.21617" lon="5.73541">
        <ele>858.20001220703</ele>
        <time>2026-08-12T14:21:29.000Z</time>
      </trkpt>
      <trkpt lat="45.21617" lon="5.7354">
        <ele>857.79998779297</ele>
        <time>2026-08-12T14:21:30.000Z</time>
      </trkpt>
      <trkpt lat="45.21617" lon="5.73539">
        <ele>856.40002441406</ele>
        <time>2026-08-12T14:21:31.000Z</time>
      </trkpt>
      <trkpt lat="45.21616" lon="5.73537">
        <ele>855.79998779297</ele>
        <time>2026-08-12T14:21:32.000Z</time>
      </trkpt>
      <trkpt lat="45.21616" lon="5.73535">
        <ele>856</ele>
        <time>2026-08-12T14:21:33.000Z</time>
      </trkpt>
      <trkpt lat="45.21616" lon="5.73534">
        <ele>856.59997558594</ele>
        <time>2026-08-12T14:21:34.000Z</time>
      </trkpt>
      <trkpt lat="45.21615" lon="5.73533">
        <ele>857</ele>
        <time>2026-08-12T14:21:35.000Z</time>
      </trkpt>
      <trkpt lat="45.21616" lon="5.73532">
        <ele>857.40002441406</ele>
        <time>2026-08-12T14:21:36.000Z</time>
      </trkpt>
      <trkpt lat="45.21616" lon="5.73531">
        <ele>858.20001220703</ele>
        <time>2026-08-12T14:21:37.000Z</time>
      </trkpt>
      <trkpt lat="45.21617" lon="5.73531">
        <ele>859.20001220703</ele>
        <time>2026-08-12T14:21:38.000Z</time>
      </trkpt>
      <trkpt lat="45.21617" lon="5.73531">
        <ele>860</ele>
        <time>2026-08-12T14:21:39.000Z</time>
      </trkpt>
      <trkpt lat="45.21618" lon="5.73531">
        <ele>861</ele>
        <time>2026-08-12T14:21:40.000Z</time>
      </trkpt>
      <trkpt lat="45.21619" lon="5.73531">
        <ele>861.79998779297</ele>
        <time>2026-08-12T14:21:41.000Z</time>
      </trkpt>
      <trkpt lat="45.2162" lon="5.73532">
        <ele>863</ele>
        <time>2026-08-12T14:21:42.000Z</time>
      </trkpt>
      <trkpt lat="45.2162" lon="5.73532">
        <ele>863.40002441406</ele>
        <time>2026-08-12T14:21:43.000Z</time>
      </trkpt>
      <trkpt lat="45.21621" lon="5.73533">
        <ele>863.59997558594</ele>
        <time>2026-08-12T14:21:44.000Z</time>
      </trkpt>
      <trkpt lat="45.21622" lon="5.73534">
        <ele>863.79998779297</ele>
        <time>2026-08-12T14:21:45.000Z</time>
      </trkpt>
      <trkpt lat="45.21623" lon="5.73535">
        <ele>864.20001220703</ele>
        <time>2026-08-12T14:21:46.000Z</time>
      </trkpt>
      <trkpt lat="45.21624" lon="5.73536">
        <ele>864.79998779297</ele>
        <time>2026-08-12T14:21:47.000Z</time>
      </trkpt>
      <trkpt lat="45.21624" lon="5.73537">
        <ele>865.59997558594</ele>
        <time>2026-08-12T14:21:48.000Z</time>
      </trkpt>
      <trkpt lat="45.21625" lon="5.73538">
        <ele>865.79998779297</ele>
        <time>2026-08-12T14:21:49.000Z</time>
      </trkpt>
      <trkpt lat="45.21625" lon="5.73538">
        <ele>866.20001220703</ele>
        <time>2026-08-12T14:21:50.000Z</time>
      </trkpt>
      <trkpt lat="45.21626" lon="5.73539">
        <ele>866.40002441406</ele>
        <time>2026-08-12T14:21:51.000Z</time>
      </trkpt>
      <trkpt lat="45.21627" lon="5.7354">
        <ele>866.20001220703</ele>
        <time>2026-08-12T14:21:52.000Z</time>
      </trkpt>
      <trkpt lat="45.21627" lon="5.73541">
        <ele>866.20001220703</ele>
        <time>2026-08-12T14:21:53.000Z</time>
      </trkpt>
      <trkpt lat="45.21628" lon="5.73541">
        <ele>866.20001220703</ele>
        <time>2026-08-12T14:21:54.000Z</time>
      </trkpt>
      <trkpt lat="45.21629" lon="5.73542">
        <ele>866.20001220703</ele>
        <time>2026-08-12T14:21:55.000Z</time>
      </trkpt>
      <trkpt lat="45.21629" lon="5.73542">
        <ele>866.40002441406</ele>
        <time>2026-08-12T14:21:56.000Z</time>
      </trkpt>
      <trkpt lat="45.2163" lon="5.73543">
        <ele>866.59997558594</ele>
        <time>2026-08-12T14:21:57.000Z</time>
      </trkpt>
      <trkpt lat="45.21631" lon="5.73544">
        <ele>866.59997558594</ele>
        <time>2026-08-12T14:21:58.000Z</time>
      </trkpt>
      <trkpt lat="45.21631" lon="5.73544">
        <ele>866.79998779297</ele>
        <time>2026-08-12T14:21:59.000Z</time>
      </trkpt>
      <trkpt lat="45.21631" lon="5.73545">
        <ele>866.79998779297</ele>
        <time>2026-08-12T14:22:00.000Z</time>
      </trkpt>
      <trkpt lat="45.21632" lon="5.73546">
        <ele>866.79998779297</ele>
        <time>2026-08-12T14:22:01.000Z</time>
      </trkpt>
      <trkpt lat="45.21633" lon="5.73547">
        <ele>867</ele>
        <time>2026-08-12T14:22:02.000Z</time>
      </trkpt>
      <trkpt lat="45.21634" lon="5.73548">
        <ele>867.20001220703</ele>
        <time>2026-08-12T14:22:03.000Z</time>
      </trkpt>
      <trkpt lat="45.21634" lon="5.73549">
        <ele>867.20001220703</ele>
        <time>2026-08-12T14:22:04.000Z</time>
      </trkpt>
      <trkpt lat="45.21635" lon="5.7355">
        <ele>867.20001220703</ele>
        <time>2026-08-12T14:22:05.000Z</time>
      </trkpt>
      <trkpt lat="45.21635" lon="5.73551">
        <ele>866.79998779297</ele>
        <time>2026-08-12T14:22:06.000Z</time>
      </trkpt>
      <trkpt lat="45.21636" lon="5.73551">
        <ele>866.59997558594</ele>
        <time>2026-08-12T14:22:07.000Z</time>
      </trkpt>
      <trkpt lat="45.21637" lon="5.73552">
        <ele>867.20001220703</ele>
        <time>2026-08-12T14:22:08.000Z</time>
      </trkpt>
      <trkpt lat="45.21637" lon="5.73553">
        <ele>867.40002441406</ele>
        <time>2026-08-12T14:22:09.000Z</time>
      </trkpt>
      <trkpt lat="45.21638" lon="5.73554">
        <ele>867.40002441406</ele>
        <time>2026-08-12T14:22:10.000Z</time>
      </trkpt>
      <trkpt lat="45.21639" lon="5.73555">
        <ele>867.40002441406</ele>
        <time>2026-08-12T14:22:11.000Z</time>
      </trkpt>
      <trkpt lat="45.2164" lon="5.73556">
        <ele>867.59997558594</ele>
        <time>2026-08-12T14:22:12.000Z</time>
      </trkpt>
      <trkpt lat="45.21641" lon="5.73556">
        <ele>867.59997558594</ele>
        <time>2026-08-12T14:22:13.000Z</time>
      </trkpt>
      <trkpt lat="45.21641" lon="5.73557">
        <ele>867.59997558594</ele>
        <time>2026-08-12T14:22:14.000Z</time>
      </trkpt>
      <trkpt lat="45.21642" lon="5.73557">
        <ele>867.59997558594</ele>
        <time>2026-08-12T14:22:15.000Z</time>
      </trkpt>
      <trkpt lat="45.21642" lon="5.73557">
        <ele>868</ele>
        <time>2026-08-12T14:22:16.000Z</time>
      </trkpt>
      <trkpt lat="45.21643" lon="5.73557">
        <ele>868.79998779297</ele>
        <time>2026-08-12T14:22:17.000Z</time>
      </trkpt>
      <trkpt lat="45.21644" lon="5.73558">
        <ele>869.59997558594</ele>
        <time>2026-08-12T14:22:18.000Z</time>
      </trkpt>
      <trkpt lat="45.21645" lon="5.73559">
        <ele>870.40002441406</ele>
        <time>2026-08-12T14:22:19.000Z</time>
      </trkpt>
      <trkpt lat="45.21645" lon="5.73559">
        <ele>871.20001220703</ele>
        <time>2026-08-12T14:22:20.000Z</time>
      </trkpt>
      <trkpt lat="45.21645" lon="5.73559">
        <ele>871.79998779297</ele>
        <time>2026-08-12T14:22:21.000Z</time>
      </trkpt>
      <trkpt lat="45.21646" lon="5.73559">
        <ele>872.40002441406</ele>
        <time>2026-08-12T14:22:22.000Z</time>
      </trkpt>
      <trkpt lat="45.21646" lon="5.73559">
        <ele>873</ele>
        <time>2026-08-12T14:22:23.000Z</time>
      </trkpt>
      <trkpt lat="45.21647" lon="5.7356">
        <ele>873.40002441406</ele>
        <time>2026-08-12T14:22:24.000Z</time>
      </trkpt>
      <trkpt lat="45.21648" lon="5.7356">
        <ele>874</ele>
        <time>2026-08-12T14:22:25.000Z</time>
      </trkpt>
      <trkpt lat="45.21649" lon="5.7356">
        <ele>874.59997558594</ele>
        <time>2026-08-12T14:22:26.000Z</time>
      </trkpt>
      <trkpt lat="45.2165" lon="5.7356">
        <ele>874.40002441406</ele>
        <time>2026-08-12T14:22:27.000Z</time>
      </trkpt>
      <trkpt lat="45.21651" lon="5.7356">
        <ele>874.59997558594</ele>
        <time>2026-08-12T14:22:28.000Z</time>
      </trkpt>
      <trkpt lat="45.21651" lon="5.7356">
        <ele>874.59997558594</ele>
        <time>2026-08-12T14:22:29.000Z</time>
      </trkpt>
      <trkpt lat="45.21652" lon="5.7356">
        <ele>874.40002441406</ele>
        <time>2026-08-12T14:22:30.000Z</time>
      </trkpt>
      <trkpt lat="45.21653" lon="5.7356">
        <ele>874</ele>
        <time>2026-08-12T14:22:31.000Z</time>
      </trkpt>
      <trkpt lat="45.21654" lon="5.7356">
        <ele>873.40002441406</ele>
        <time>2026-08-12T14:22:32.000Z</time>
      </trkpt>
      <trkpt lat="45.21655" lon="5.7356">
        <ele>873</ele>
        <time>2026-08-12T14:22:33.000Z</time>
      </trkpt>
      <trkpt lat="45.21655" lon="5.73559">
        <ele>872.40002441406</ele>
        <time>2026-08-12T14:22:34.000Z</time>
      </trkpt>
      <trkpt lat="45.21656" lon="5.73559">
        <ele>870.79998779297</ele>
        <time>2026-08-12T14:22:35.000Z</time>
      </trkpt>
      <trkpt lat="45.21657" lon="5.73559">
        <ele>870</ele>
        <time>2026-08-12T14:22:36.000Z</time>
      </trkpt>
      <trkpt lat="45.21658" lon="5.73559">
        <ele>869.79998779297</ele>
        <time>2026-08-12T14:22:37.000Z</time>
      </trkpt>
      <trkpt lat="45.21658" lon="5.73559">
        <ele>869.20001220703</ele>
        <time>2026-08-12T14:22:38.000Z</time>
      </trkpt>
      <trkpt lat="45.21659" lon="5.73559">
        <ele>868.79998779297</ele>
        <time>2026-08-12T14:22:39.000Z</time>
      </trkpt>
      <trkpt lat="45.2166" lon="5.73558">
        <ele>868.20001220703</ele>
        <time>2026-08-12T14:22:40.000Z</time>
      </trkpt>
      <trkpt lat="45.21661" lon="5.73558">
        <ele>868.20001220703</ele>
        <time>2026-08-12T14:22:41.000Z</time>
      </trkpt>
      <trkpt lat="45.21662" lon="5.73558">
        <ele>868.40002441406</ele>
        <time>2026-08-12T14:22:42.000Z</time>
      </trkpt>
      <trkpt lat="45.21663" lon="5.73558">
        <ele>868.40002441406</ele>
        <time>2026-08-12T14:22:43.000Z</time>
      </trkpt>
      <trkpt lat="45.21664" lon="5.73557">
        <ele>868.59997558594</ele>
        <time>2026-08-12T14:22:44.000Z</time>
      </trkpt>
      <trkpt lat="45.21665" lon="5.73557">
        <ele>868.79998779297</ele>
        <time>2026-08-12T14:22:45.000Z</time>
      </trkpt>
      <trkpt lat="45.21666" lon="5.73556">
        <ele>869</ele>
        <time>2026-08-12T14:22:46.000Z</time>
      </trkpt>
      <trkpt lat="45.21666" lon="5.73555">
        <ele>869</ele>
        <time>2026-08-12T14:22:47.000Z</time>
      </trkpt>
      <trkpt lat="45.21667" lon="5.73555">
        <ele>869.20001220703</ele>
        <time>2026-08-12T14:22:48.000Z</time>
      </trkpt>
      <trkpt lat="45.21668" lon="5.73555">
        <ele>870</ele>
        <time>2026-08-12T14:22:49.000Z</time>
      </trkpt>
      <trkpt lat="45.21668" lon="5.73555">
        <ele>870.59997558594</ele>
        <time>2026-08-12T14:22:50.000Z</time>
      </trkpt>
      <trkpt lat="45.21669" lon="5.73555">
        <ele>871</ele>
        <time>2026-08-12T14:22:51.000Z</time>
      </trkpt>
      <trkpt lat="45.2167" lon="5.73554">
        <ele>871.20001220703</ele>
        <time>2026-08-12T14:22:52.000Z</time>
      </trkpt>
      <trkpt lat="45.21671" lon="5.73554">
        <ele>871.59997558594</ele>
        <time>2026-08-12T14:22:53.000Z</time>
      </trkpt>
      <trkpt lat="45.21671" lon="5.73554">
        <ele>871.79998779297</ele>
        <time>2026-08-12T14:22:54.000Z</time>
      </trkpt>
      <trkpt lat="45.21672" lon="5.73554">
        <ele>872</ele>
        <time>2026-08-12T14:22:55.000Z</time>
      </trkpt>
      <trkpt lat="45.21673" lon="5.73554">
        <ele>872</ele>
        <time>2026-08-12T14:22:56.000Z</time>
      </trkpt>
      <trkpt lat="45.21674" lon="5.73554">
        <ele>872</ele>
        <time>2026-08-12T14:22:57.000Z</time>
      </trkpt>
      <trkpt lat="45.21675" lon="5.73554">
        <ele>872.20001220703</ele>
        <time>2026-08-12T14:22:58.000Z</time>
      </trkpt>
      <trkpt lat="45.21676" lon="5.73553">
        <ele>872.20001220703</ele>
        <time>2026-08-12T14:22:59.000Z</time>
      </trkpt>
      <trkpt lat="45.21677" lon="5.73553">
        <ele>872</ele>
        <time>2026-08-12T14:23:00.000Z</time>
      </trkpt>
      <trkpt lat="45.21678" lon="5.73553">
        <ele>871.40002441406</ele>
        <time>2026-08-12T14:23:01.000Z</time>
      </trkpt>
      <trkpt lat="45.21679" lon="5.73553">
        <ele>871.20001220703</ele>
        <time>2026-08-12T14:23:02.000Z</time>
      </trkpt>
      <trkpt lat="45.2168" lon="5.73554">
        <ele>871</ele>
        <time>2026-08-12T14:23:03.000Z</time>
      </trkpt>
      <trkpt lat="45.21681" lon="5.73554">
        <ele>870.79998779297</ele>
        <time>2026-08-12T14:23:04.000Z</time>
      </trkpt>
      <trkpt lat="45.21682" lon="5.73555">
        <ele>870</ele>
        <time>2026-08-12T14:23:05.000Z</time>
      </trkpt>
      <trkpt lat="45.21684" lon="5.73555">
        <ele>869.40002441406</ele>
        <time>2026-08-12T14:23:06.000Z</time>
      </trkpt>
      <trkpt lat="45.21685" lon="5.73556">
        <ele>869.40002441406</ele>
        <time>2026-08-12T14:23:07.000Z</time>
      </trkpt>
      <trkpt lat="45.21686" lon="5.73556">
        <ele>869.20001220703</ele>
        <time>2026-08-12T14:23:08.000Z</time>
      </trkpt>
      <trkpt lat="45.21687" lon="5.73556">
        <ele>868.59997558594</ele>
        <time>2026-08-12T14:23:09.000Z</time>
      </trkpt>
      <trkpt lat="45.21688" lon="5.73557">
        <ele>868</ele>
        <time>2026-08-12T14:23:10.000Z</time>
      </trkpt>
      <trkpt lat="45.21689" lon="5.73557">
        <ele>867.79998779297</ele>
        <time>2026-08-12T14:23:11.000Z</time>
      </trkpt>
      <trkpt lat="45.2169" lon="5.73558">
        <ele>867.59997558594</ele>
        <time>2026-08-12T14:23:12.000Z</time>
      </trkpt>
      <trkpt lat="45.21692" lon="5.73558">
        <ele>867.59997558594</ele>
        <time>2026-08-12T14:23:13.000Z</time>
      </trkpt>
      <trkpt lat="45.21692" lon="5.73558">
        <ele>867.40002441406</ele>
        <time>2026-08-12T14:23:14.000Z</time>
      </trkpt>
      <trkpt lat="45.21694" lon="5.73558">
        <ele>867.40002441406</ele>
        <time>2026-08-12T14:23:15.000Z</time>
      </trkpt>
      <trkpt lat="45.21695" lon="5.73558">
        <ele>867.20001220703</ele>
        <time>2026-08-12T14:23:16.000Z</time>
      </trkpt>
      <trkpt lat="45.21696" lon="5.73558">
        <ele>867.59997558594</ele>
        <time>2026-08-12T14:23:17.000Z</time>
      </trkpt>
      <trkpt lat="45.21697" lon="5.73558">
        <ele>867.59997558594</ele>
        <time>2026-08-12T14:23:18.000Z</time>
      </trkpt>
      <trkpt lat="45.21698" lon="5.73558">
        <ele>867.79998779297</ele>
        <time>2026-08-12T14:23:19.000Z</time>
      </trkpt>
      <trkpt lat="45.21699" lon="5.73558">
        <ele>868</ele>
        <time>2026-08-12T14:23:20.000Z</time>
      </trkpt>
      <trkpt lat="45.217" lon="5.73558">
        <ele>868.20001220703</ele>
        <time>2026-08-12T14:23:21.000Z</time>
      </trkpt>
      <trkpt lat="45.21702" lon="5.73559">
        <ele>868.40002441406</ele>
        <time>2026-08-12T14:23:22.000Z</time>
      </trkpt>
      <trkpt lat="45.21703" lon="5.73559">
        <ele>868.59997558594</ele>
        <time>2026-08-12T14:23:23.000Z</time>
      </trkpt>
      <trkpt lat="45.21704" lon="5.7356">
        <ele>868.79998779297</ele>
        <time>2026-08-12T14:23:24.000Z</time>
      </trkpt>
      <trkpt lat="45.21705" lon="5.73561">
        <ele>869.20001220703</ele>
        <time>2026-08-12T14:23:25.000Z</time>
      </trkpt>
      <trkpt lat="45.21706" lon="5.73561">
        <ele>869.40002441406</ele>
        <time>2026-08-12T14:23:26.000Z</time>
      </trkpt>
      <trkpt lat="45.21706" lon="5.73562">
        <ele>869.59997558594</ele>
        <time>2026-08-12T14:23:27.000Z</time>
      </trkpt>
      <trkpt lat="45.21707" lon="5.73562">
        <ele>869.79998779297</ele>
        <time>2026-08-12T14:23:28.000Z</time>
      </trkpt>
      <trkpt lat="45.21707" lon="5.73562">
        <ele>870</ele>
        <time>2026-08-12T14:23:29.000Z</time>
      </trkpt>
      <trkpt lat="45.21707" lon="5.73561">
        <ele>870.20001220703</ele>
        <time>2026-08-12T14:23:30.000Z</time>
      </trkpt>
      <trkpt lat="45.21707" lon="5.73561">
        <ele>871</ele>
        <time>2026-08-12T14:23:31.000Z</time>
      </trkpt>
      <trkpt lat="45.21706" lon="5.7356">
        <ele>871.79998779297</ele>
        <time>2026-08-12T14:23:32.000Z</time>
      </trkpt>
      <trkpt lat="45.21706" lon="5.7356">
        <ele>872.79998779297</ele>
        <time>2026-08-12T14:23:33.000Z</time>
      </trkpt>
      <trkpt lat="45.21706" lon="5.73559">
        <ele>873.59997558594</ele>
        <time>2026-08-12T14:23:34.000Z</time>
      </trkpt>
      <trkpt lat="45.21705" lon="5.73559">
        <ele>874.40002441406</ele>
        <time>2026-08-12T14:23:35.000Z</time>
      </trkpt>
      <trkpt lat="45.21705" lon="5.73558">
        <ele>875.79998779297</ele>
        <time>2026-08-12T14:23:36.000Z</time>
      </trkpt>
      <trkpt lat="45.21704" lon="5.73558">
        <ele>877</ele>
        <time>2026-08-12T14:23:37.000Z</time>
      </trkpt>
      <trkpt lat="45.21704" lon="5.73558">
        <ele>877.40002441406</ele>
        <time>2026-08-12T14:23:38.000Z</time>
      </trkpt>
      <trkpt lat="45.21703" lon="5.73558">
        <ele>877.79998779297</ele>
        <time>2026-08-12T14:23:39.000Z</time>
      </trkpt>
      <trkpt lat="45.21703" lon="5.73558">
        <ele>878.59997558594</ele>
        <time>2026-08-12T14:23:40.000Z</time>
      </trkpt>
      <trkpt lat="45.21702" lon="5.73557">
        <ele>880.79998779297</ele>
        <time>2026-08-12T14:23:41.000Z</time>
      </trkpt>
      <trkpt lat="45.21701" lon="5.73556">
        <ele>883</ele>
        <time>2026-08-12T14:23:42.000Z</time>
      </trkpt>
      <trkpt lat="45.21701" lon="5.73555">
        <ele>882.79998779297</ele>
        <time>2026-08-12T14:23:43.000Z</time>
      </trkpt>
      <trkpt lat="45.217" lon="5.73554">
        <ele>883.20001220703</ele>
        <time>2026-08-12T14:23:44.000Z</time>
      </trkpt>
      <trkpt lat="45.21699" lon="5.73553">
        <ele>883.79998779297</ele>
        <time>2026-08-12T14:23:45.000Z</time>
      </trkpt>
      <trkpt lat="45.21698" lon="5.73552">
        <ele>884.20001220703</ele>
        <time>2026-08-12T14:23:46.000Z</time>
      </trkpt>
      <trkpt lat="45.21698" lon="5.73551">
        <ele>884.59997558594</ele>
        <time>2026-08-12T14:23:47.000Z</time>
      </trkpt>
      <trkpt lat="45.21697" lon="5.7355">
        <ele>885</ele>
        <time>2026-08-12T14:23:48.000Z</time>
      </trkpt>
      <trkpt lat="45.21696" lon="5.73549">
        <ele>885.59997558594</ele>
        <time>2026-08-12T14:23:49.000Z</time>
      </trkpt>
      <trkpt lat="45.21695" lon="5.73548">
        <ele>886</ele>
        <time>2026-08-12T14:23:50.000Z</time>
      </trkpt>
      <trkpt lat="45.21694" lon="5.73547">
        <ele>886.20001220703</ele>
        <time>2026-08-12T14:23:51.000Z</time>
      </trkpt>
      <trkpt lat="45.21693" lon="5.73547">
        <ele>886.59997558594</ele>
        <time>2026-08-12T14:23:52.000Z</time>
      </trkpt>
      <trkpt lat="45.21693" lon="5.73546">
        <ele>886.79998779297</ele>
        <time>2026-08-12T14:23:53.000Z</time>
      </trkpt>
      <trkpt lat="45.21692" lon="5.73546">
        <ele>887</ele>
        <time>2026-08-12T14:23:54.000Z</time>
      </trkpt>
      <trkpt lat="45.21691" lon="5.73545">
        <ele>887.40002441406</ele>
        <time>2026-08-12T14:23:55.000Z</time>
      </trkpt>
      <trkpt lat="45.2169" lon="5.73545">
        <ele>887.59997558594</ele>
        <time>2026-08-12T14:23:56.000Z</time>
      </trkpt>
      <trkpt lat="45.2169" lon="5.73544">
        <ele>887.79998779297</ele>
        <time>2026-08-12T14:23:57.000Z</time>
      </trkpt>
      <trkpt lat="45.21689" lon="5.73544">
        <ele>887.79998779297</ele>
        <time>2026-08-12T14:23:58.000Z</time>
      </trkpt>
      <trkpt lat="45.21688" lon="5.73544">
        <ele>887.79998779297</ele>
        <time>2026-08-12T14:23:59.000Z</time>
      </trkpt>
      <trkpt lat="45.21687" lon="5.73543">
        <ele>888</ele>
        <time>2026-08-12T14:24:00.000Z</time>
      </trkpt>
      <trkpt lat="45.21687" lon="5.73543">
        <ele>888.20001220703</ele>
        <time>2026-08-12T14:24:01.000Z</time>
      </trkpt>
      <trkpt lat="45.21686" lon="5.73542">
        <ele>888.20001220703</ele>
        <time>2026-08-12T14:24:02.000Z</time>
      </trkpt>
      <trkpt lat="45.21685" lon="5.73542">
        <ele>888.20001220703</ele>
        <time>2026-08-12T14:24:03.000Z</time>
      </trkpt>
      <trkpt lat="45.21685" lon="5.73542">
        <ele>888</ele>
        <time>2026-08-12T14:24:04.000Z</time>
      </trkpt>
      <trkpt lat="45.21684" lon="5.73541">
        <ele>888</ele>
        <time>2026-08-12T14:24:05.000Z</time>
      </trkpt>
      <trkpt lat="45.21683" lon="5.7354">
        <ele>888</ele>
        <time>2026-08-12T14:24:06.000Z</time>
      </trkpt>
      <trkpt lat="45.21682" lon="5.7354">
        <ele>888</ele>
        <time>2026-08-12T14:24:07.000Z</time>
      </trkpt>
      <trkpt lat="45.21681" lon="5.7354">
        <ele>887.79998779297</ele>
        <time>2026-08-12T14:24:08.000Z</time>
      </trkpt>
      <trkpt lat="45.2168" lon="5.7354">
        <ele>887.79998779297</ele>
        <time>2026-08-12T14:24:09.000Z</time>
      </trkpt>
      <trkpt lat="45.21679" lon="5.73539">
        <ele>888.40002441406</ele>
        <time>2026-08-12T14:24:10.000Z</time>
      </trkpt>
      <trkpt lat="45.21678" lon="5.73539">
        <ele>888.79998779297</ele>
        <time>2026-08-12T14:24:11.000Z</time>
      </trkpt>
      <trkpt lat="45.21678" lon="5.73539">
        <ele>888.79998779297</ele>
        <time>2026-08-12T14:24:12.000Z</time>
      </trkpt>
      <trkpt lat="45.21677" lon="5.73539">
        <ele>888.59997558594</ele>
        <time>2026-08-12T14:24:13.000Z</time>
      </trkpt>
      <trkpt lat="45.21676" lon="5.73538">
        <ele>887.59997558594</ele>
        <time>2026-08-12T14:24:14.000Z</time>
      </trkpt>
      <trkpt lat="45.21675" lon="5.73538">
        <ele>887.20001220703</ele>
        <time>2026-08-12T14:24:15.000Z</time>
      </trkpt>
      <trkpt lat="45.21675" lon="5.73538">
        <ele>886</ele>
        <time>2026-08-12T14:24:16.000Z</time>
      </trkpt>
      <trkpt lat="45.21674" lon="5.73537">
        <ele>885.59997558594</ele>
        <time>2026-08-12T14:24:17.000Z</time>
      </trkpt>
      <trkpt lat="45.21673" lon="5.73537">
        <ele>885.20001220703</ele>
        <time>2026-08-12T14:24:18.000Z</time>
      </trkpt>
      <trkpt lat="45.21672" lon="5.73537">
        <ele>885</ele>
        <time>2026-08-12T14:24:19.000Z</time>
      </trkpt>
      <trkpt lat="45.21671" lon="5.73537">
        <ele>885</ele>
        <time>2026-08-12T14:24:20.000Z</time>
      </trkpt>
      <trkpt lat="45.2167" lon="5.73536">
        <ele>885.20001220703</ele>
        <time>2026-08-12T14:24:21.000Z</time>
      </trkpt>
      <trkpt lat="45.2167" lon="5.73536">
        <ele>885.40002441406</ele>
        <time>2026-08-12T14:24:22.000Z</time>
      </trkpt>
      <trkpt lat="45.21668" lon="5.73535">
        <ele>885.40002441406</ele>
        <time>2026-08-12T14:24:23.000Z</time>
      </trkpt>
      <trkpt lat="45.21668" lon="5.73534">
        <ele>885.79998779297</ele>
        <time>2026-08-12T14:24:24.000Z</time>
      </trkpt>
      <trkpt lat="45.21667" lon="5.73534">
        <ele>885.79998779297</ele>
        <time>2026-08-12T14:24:25.000Z</time>
      </trkpt>
      <trkpt lat="45.21666" lon="5.73532">
        <ele>886.20001220703</ele>
        <time>2026-08-12T14:24:26.000Z</time>
      </trkpt>
      <trkpt lat="45.21666" lon="5.73531">
        <ele>886.59997558594</ele>
        <time>2026-08-12T14:24:27.000Z</time>
      </trkpt>
      <trkpt lat="45.21666" lon="5.73531">
        <ele>887</ele>
        <time>2026-08-12T14:24:28.000Z</time>
      </trkpt>
      <trkpt lat="45.21667" lon="5.7353">
        <ele>887.40002441406</ele>
        <time>2026-08-12T14:24:29.000Z</time>
      </trkpt>
      <trkpt lat="45.21667" lon="5.7353">
        <ele>887.79998779297</ele>
        <time>2026-08-12T14:24:30.000Z</time>
      </trkpt>
      <trkpt lat="45.21668" lon="5.73529">
        <ele>888.20001220703</ele>
        <time>2026-08-12T14:24:31.000Z</time>
      </trkpt>
      <trkpt lat="45.21669" lon="5.73529">
        <ele>888.20001220703</ele>
        <time>2026-08-12T14:24:32.000Z</time>
      </trkpt>
      <trkpt lat="45.2167" lon="5.73528">
        <ele>888.20001220703</ele>
        <time>2026-08-12T14:24:33.000Z</time>
      </trkpt>
      <trkpt lat="45.2167" lon="5.73528">
        <ele>888.20001220703</ele>
        <time>2026-08-12T14:24:34.000Z</time>
      </trkpt>
      <trkpt lat="45.21671" lon="5.73528">
        <ele>888.40002441406</ele>
        <time>2026-08-12T14:24:35.000Z</time>
      </trkpt>
      <trkpt lat="45.21672" lon="5.73527">
        <ele>888.40002441406</ele>
        <time>2026-08-12T14:24:36.000Z</time>
      </trkpt>
      <trkpt lat="45.21673" lon="5.73527">
        <ele>888.59997558594</ele>
        <time>2026-08-12T14:24:37.000Z</time>
      </trkpt>
      <trkpt lat="45.21673" lon="5.73527">
        <ele>888.59997558594</ele>
        <time>2026-08-12T14:24:38.000Z</time>
      </trkpt>
      <trkpt lat="45.21674" lon="5.73527">
        <ele>888.59997558594</ele>
        <time>2026-08-12T14:24:39.000Z</time>
      </trkpt>
      <trkpt lat="45.21675" lon="5.73526">
        <ele>888.40002441406</ele>
        <time>2026-08-12T14:24:40.000Z</time>
      </trkpt>
      <trkpt lat="45.21676" lon="5.73526">
        <ele>888.40002441406</ele>
        <time>2026-08-12T14:24:41.000Z</time>
      </trkpt>
      <trkpt lat="45.21677" lon="5.73526">
        <ele>888.79998779297</ele>
        <time>2026-08-12T14:24:42.000Z</time>
      </trkpt>
      <trkpt lat="45.21678" lon="5.73525">
        <ele>889.20001220703</ele>
        <time>2026-08-12T14:24:43.000Z</time>
      </trkpt>
      <trkpt lat="45.21678" lon="5.73526">
        <ele>890</ele>
        <time>2026-08-12T14:24:44.000Z</time>
      </trkpt>
      <trkpt lat="45.21679" lon="5.73525">
        <ele>890.79998779297</ele>
        <time>2026-08-12T14:24:45.000Z</time>
      </trkpt>
      <trkpt lat="45.2168" lon="5.73525">
        <ele>891.20001220703</ele>
        <time>2026-08-12T14:24:46.000Z</time>
      </trkpt>
      <trkpt lat="45.21681" lon="5.73525">
        <ele>891.20001220703</ele>
        <time>2026-08-12T14:24:47.000Z</time>
      </trkpt>
      <trkpt lat="45.21682" lon="5.73525">
        <ele>891.40002441406</ele>
        <time>2026-08-12T14:24:48.000Z</time>
      </trkpt>
      <trkpt lat="45.21684" lon="5.73525">
        <ele>891.40002441406</ele>
        <time>2026-08-12T14:24:49.000Z</time>
      </trkpt>
      <trkpt lat="45.21685" lon="5.73525">
        <ele>891.59997558594</ele>
        <time>2026-08-12T14:24:50.000Z</time>
      </trkpt>
      <trkpt lat="45.21686" lon="5.73525">
        <ele>891.59997558594</ele>
        <time>2026-08-12T14:24:51.000Z</time>
      </trkpt>
      <trkpt lat="45.21686" lon="5.73525">
        <ele>891.59997558594</ele>
        <time>2026-08-12T14:24:52.000Z</time>
      </trkpt>
      <trkpt lat="45.21687" lon="5.73525">
        <ele>891.59997558594</ele>
        <time>2026-08-12T14:24:53.000Z</time>
      </trkpt>
      <trkpt lat="45.21688" lon="5.73525">
        <ele>892</ele>
        <time>2026-08-12T14:24:54.000Z</time>
      </trkpt>
      <trkpt lat="45.21689" lon="5.73525">
        <ele>892.40002441406</ele>
        <time>2026-08-12T14:24:55.000Z</time>
      </trkpt>
      <trkpt lat="45.21689" lon="5.73525">
        <ele>893</ele>
        <time>2026-08-12T14:24:56.000Z</time>
      </trkpt>
      <trkpt lat="45.2169" lon="5.73525">
        <ele>893.20001220703</ele>
        <time>2026-08-12T14:24:57.000Z</time>
      </trkpt>
      <trkpt lat="45.21692" lon="5.73525">
        <ele>893.40002441406</ele>
        <time>2026-08-12T14:24:58.000Z</time>
      </trkpt>
      <trkpt lat="45.21693" lon="5.73525">
        <ele>893.40002441406</ele>
        <time>2026-08-12T14:24:59.000Z</time>
      </trkpt>
      <trkpt lat="45.21694" lon="5.73525">
        <ele>893.20001220703</ele>
        <time>2026-08-12T14:25:00.000Z</time>
      </trkpt>
      <trkpt lat="45.21695" lon="5.73525">
        <ele>893.20001220703</ele>
        <time>2026-08-12T14:25:01.000Z</time>
      </trkpt>
      <trkpt lat="45.21695" lon="5.73526">
        <ele>892.79998779297</ele>
        <time>2026-08-12T14:25:02.000Z</time>
      </trkpt>
      <trkpt lat="45.21696" lon="5.73526">
        <ele>892.79998779297</ele>
        <time>2026-08-12T14:25:03.000Z</time>
      </trkpt>
      <trkpt lat="45.21696" lon="5.73525">
        <ele>892.40002441406</ele>
        <time>2026-08-12T14:25:04.000Z</time>
      </trkpt>
      <trkpt lat="45.21697" lon="5.73525">
        <ele>891.79998779297</ele>
        <time>2026-08-12T14:25:05.000Z</time>
      </trkpt>
      <trkpt lat="45.21698" lon="5.73525">
        <ele>891.59997558594</ele>
        <time>2026-08-12T14:25:06.000Z</time>
      </trkpt>
      <trkpt lat="45.21699" lon="5.73525">
        <ele>890.79998779297</ele>
        <time>2026-08-12T14:25:07.000Z</time>
      </trkpt>
      <trkpt lat="45.217" lon="5.73525">
        <ele>890.20001220703</ele>
        <time>2026-08-12T14:25:08.000Z</time>
      </trkpt>
      <trkpt lat="45.217" lon="5.73524">
        <ele>890</ele>
        <time>2026-08-12T14:25:09.000Z</time>
      </trkpt>
      <trkpt lat="45.21701" lon="5.73524">
        <ele>889.79998779297</ele>
        <time>2026-08-12T14:25:10.000Z</time>
      </trkpt>
      <trkpt lat="45.21703" lon="5.73524">
        <ele>890</ele>
        <time>2026-08-12T14:25:11.000Z</time>
      </trkpt>
      <trkpt lat="45.21705" lon="5.73524">
        <ele>890.20001220703</ele>
        <time>2026-08-12T14:25:12.000Z</time>
      </trkpt>
      <trkpt lat="45.21705" lon="5.73524">
        <ele>890.59997558594</ele>
        <time>2026-08-12T14:25:13.000Z</time>
      </trkpt>
      <trkpt lat="45.21706" lon="5.73524">
        <ele>890.79998779297</ele>
        <time>2026-08-12T14:25:14.000Z</time>
      </trkpt>
      <trkpt lat="45.21708" lon="5.73524">
        <ele>891</ele>
        <time>2026-08-12T14:25:15.000Z</time>
      </trkpt>
      <trkpt lat="45.21708" lon="5.73523">
        <ele>891.20001220703</ele>
        <time>2026-08-12T14:25:16.000Z</time>
      </trkpt>
      <trkpt lat="45.21709" lon="5.73523">
        <ele>892.20001220703</ele>
        <time>2026-08-12T14:25:17.000Z</time>
      </trkpt>
      <trkpt lat="45.2171" lon="5.73524">
        <ele>892.59997558594</ele>
        <time>2026-08-12T14:25:18.000Z</time>
      </trkpt>
      <trkpt lat="45.21711" lon="5.73524">
        <ele>892.79998779297</ele>
        <time>2026-08-12T14:25:19.000Z</time>
      </trkpt>
      <trkpt lat="45.21712" lon="5.73524">
        <ele>893.59997558594</ele>
        <time>2026-08-12T14:25:20.000Z</time>
      </trkpt>
      <trkpt lat="45.21713" lon="5.73524">
        <ele>894.20001220703</ele>
        <time>2026-08-12T14:25:21.000Z</time>
      </trkpt>
      <trkpt lat="45.21714" lon="5.73525">
        <ele>895</ele>
        <time>2026-08-12T14:25:22.000Z</time>
      </trkpt>
      <trkpt lat="45.21715" lon="5.73525">
        <ele>895.59997558594</ele>
        <time>2026-08-12T14:25:23.000Z</time>
      </trkpt>
      <trkpt lat="45.21716" lon="5.73525">
        <ele>896.40002441406</ele>
        <time>2026-08-12T14:25:24.000Z</time>
      </trkpt>
      <trkpt lat="45.21717" lon="5.73526">
        <ele>896.59997558594</ele>
        <time>2026-08-12T14:25:25.000Z</time>
      </trkpt>
      <trkpt lat="45.21718" lon="5.73526">
        <ele>897</ele>
        <time>2026-08-12T14:25:26.000Z</time>
      </trkpt>
      <trkpt lat="45.21719" lon="5.73526">
        <ele>897.40002441406</ele>
        <time>2026-08-12T14:25:27.000Z</time>
      </trkpt>
      <trkpt lat="45.2172" lon="5.73527">
        <ele>897.59997558594</ele>
        <time>2026-08-12T14:25:28.000Z</time>
      </trkpt>
      <trkpt lat="45.21722" lon="5.73528">
        <ele>898</ele>
        <time>2026-08-12T14:25:29.000Z</time>
      </trkpt>
      <trkpt lat="45.21722" lon="5.73529">
        <ele>898</ele>
        <time>2026-08-12T14:25:30.000Z</time>
      </trkpt>
      <trkpt lat="45.21723" lon="5.7353">
        <ele>897.79998779297</ele>
        <time>2026-08-12T14:25:31.000Z</time>
      </trkpt>
      <trkpt lat="45.21724" lon="5.73531">
        <ele>897.79998779297</ele>
        <time>2026-08-12T14:25:32.000Z</time>
      </trkpt>
      <trkpt lat="45.21725" lon="5.73533">
        <ele>897.59997558594</ele>
        <time>2026-08-12T14:25:33.000Z</time>
      </trkpt>
      <trkpt lat="45.21725" lon="5.73535">
        <ele>897.20001220703</ele>
        <time>2026-08-12T14:25:34.000Z</time>
      </trkpt>
      <trkpt lat="45.21726" lon="5.73536">
        <ele>897</ele>
        <time>2026-08-12T14:25:35.000Z</time>
      </trkpt>
      <trkpt lat="45.21726" lon="5.73539">
        <ele>897</ele>
        <time>2026-08-12T14:25:36.000Z</time>
      </trkpt>
      <trkpt lat="45.21727" lon="5.73541">
        <ele>897</ele>
        <time>2026-08-12T14:25:37.000Z</time>
      </trkpt>
      <trkpt lat="45.21727" lon="5.73542">
        <ele>897</ele>
        <time>2026-08-12T14:25:38.000Z</time>
      </trkpt>
      <trkpt lat="45.21728" lon="5.73543">
        <ele>897.59997558594</ele>
        <time>2026-08-12T14:25:39.000Z</time>
      </trkpt>
      <trkpt lat="45.21729" lon="5.73543">
        <ele>898</ele>
        <time>2026-08-12T14:25:40.000Z</time>
      </trkpt>
      <trkpt lat="45.21729" lon="5.73544">
        <ele>898.40002441406</ele>
        <time>2026-08-12T14:25:41.000Z</time>
      </trkpt>
      <trkpt lat="45.2173" lon="5.73544">
        <ele>898.59997558594</ele>
        <time>2026-08-12T14:25:42.000Z</time>
      </trkpt>
      <trkpt lat="45.21731" lon="5.73544">
        <ele>899</ele>
        <time>2026-08-12T14:25:43.000Z</time>
      </trkpt>
      <trkpt lat="45.21732" lon="5.73543">
        <ele>899.40002441406</ele>
        <time>2026-08-12T14:25:44.000Z</time>
      </trkpt>
      <trkpt lat="45.21733" lon="5.73543">
        <ele>899.59997558594</ele>
        <time>2026-08-12T14:25:45.000Z</time>
      </trkpt>
      <trkpt lat="45.21734" lon="5.73542">
        <ele>899.59997558594</ele>
        <time>2026-08-12T14:25:46.000Z</time>
      </trkpt>
      <trkpt lat="45.21735" lon="5.73542">
        <ele>899.59997558594</ele>
        <time>2026-08-12T14:25:47.000Z</time>
      </trkpt>
      <trkpt lat="45.21736" lon="5.73541">
        <ele>899.59997558594</ele>
        <time>2026-08-12T14:25:48.000Z</time>
      </trkpt>
      <trkpt lat="45.21737" lon="5.7354">
        <ele>899.40002441406</ele>
        <time>2026-08-12T14:25:49.000Z</time>
      </trkpt>
      <trkpt lat="45.21738" lon="5.73539">
        <ele>899.20001220703</ele>
        <time>2026-08-12T14:25:50.000Z</time>
      </trkpt>
      <trkpt lat="45.21739" lon="5.73538">
        <ele>898.79998779297</ele>
        <time>2026-08-12T14:25:51.000Z</time>
      </trkpt>
      <trkpt lat="45.21741" lon="5.73538">
        <ele>898.20001220703</ele>
        <time>2026-08-12T14:25:52.000Z</time>
      </trkpt>
      <trkpt lat="45.21742" lon="5.73537">
        <ele>898.20001220703</ele>
        <time>2026-08-12T14:25:53.000Z</time>
      </trkpt>
      <trkpt lat="45.21743" lon="5.73537">
        <ele>898.20001220703</ele>
        <time>2026-08-12T14:25:54.000Z</time>
      </trkpt>
      <trkpt lat="45.21744" lon="5.73536">
        <ele>898</ele>
        <time>2026-08-12T14:25:55.000Z</time>
      </trkpt>
      <trkpt lat="45.21746" lon="5.73536">
        <ele>897.79998779297</ele>
        <time>2026-08-12T14:25:56.000Z</time>
      </trkpt>
      <trkpt lat="45.21747" lon="5.73536">
        <ele>897.79998779297</ele>
        <time>2026-08-12T14:25:57.000Z</time>
      </trkpt>
      <trkpt lat="45.21748" lon="5.73536">
        <ele>897.79998779297</ele>
        <time>2026-08-12T14:25:58.000Z</time>
      </trkpt>
      <trkpt lat="45.2175" lon="5.73536">
        <ele>897.59997558594</ele>
        <time>2026-08-12T14:25:59.000Z</time>
      </trkpt>
      <trkpt lat="45.21751" lon="5.73537">
        <ele>898.20001220703</ele>
        <time>2026-08-12T14:26:00.000Z</time>
      </trkpt>
      <trkpt lat="45.21752" lon="5.73538">
        <ele>898.59997558594</ele>
        <time>2026-08-12T14:26:01.000Z</time>
      </trkpt>
      <trkpt lat="45.21754" lon="5.73538">
        <ele>898.79998779297</ele>
        <time>2026-08-12T14:26:02.000Z</time>
      </trkpt>
      <trkpt lat="45.21755" lon="5.73538">
        <ele>898.79998779297</ele>
        <time>2026-08-12T14:26:03.000Z</time>
      </trkpt>
      <trkpt lat="45.21756" lon="5.73539">
        <ele>899.59997558594</ele>
        <time>2026-08-12T14:26:04.000Z</time>
      </trkpt>
      <trkpt lat="45.21758" lon="5.7354">
        <ele>900.20001220703</ele>
        <time>2026-08-12T14:26:05.000Z</time>
      </trkpt>
      <trkpt lat="45.21759" lon="5.73541">
        <ele>901</ele>
        <time>2026-08-12T14:26:06.000Z</time>
      </trkpt>
      <trkpt lat="45.21761" lon="5.73541">
        <ele>901.59997558594</ele>
        <time>2026-08-12T14:26:07.000Z</time>
      </trkpt>
      <trkpt lat="45.21762" lon="5.73542">
        <ele>902</ele>
        <time>2026-08-12T14:26:08.000Z</time>
      </trkpt>
      <trkpt lat="45.21764" lon="5.73543">
        <ele>902</ele>
        <time>2026-08-12T14:26:09.000Z</time>
      </trkpt>
      <trkpt lat="45.21764" lon="5.73544">
        <ele>902</ele>
        <time>2026-08-12T14:26:10.000Z</time>
      </trkpt>
      <trkpt lat="45.21765" lon="5.73545">
        <ele>902</ele>
        <time>2026-08-12T14:26:11.000Z</time>
      </trkpt>
      <trkpt lat="45.21767" lon="5.73546">
        <ele>902</ele>
        <time>2026-08-12T14:26:12.000Z</time>
      </trkpt>
      <trkpt lat="45.21768" lon="5.73548">
        <ele>902.20001220703</ele>
        <time>2026-08-12T14:26:13.000Z</time>
      </trkpt>
      <trkpt lat="45.2177" lon="5.7355">
        <ele>902.40002441406</ele>
        <time>2026-08-12T14:26:14.000Z</time>
      </trkpt>
      <trkpt lat="45.21771" lon="5.73551">
        <ele>902.59997558594</ele>
        <time>2026-08-12T14:26:15.000Z</time>
      </trkpt>
      <trkpt lat="45.21773" lon="5.73552">
        <ele>902.59997558594</ele>
        <time>2026-08-12T14:26:16.000Z</time>
      </trkpt>
      <trkpt lat="45.21774" lon="5.73553">
        <ele>902.59997558594</ele>
        <time>2026-08-12T14:26:17.000Z</time>
      </trkpt>
      <trkpt lat="45.21775" lon="5.73554">
        <ele>902.59997558594</ele>
        <time>2026-08-12T14:26:18.000Z</time>
      </trkpt>
      <trkpt lat="45.21776" lon="5.73555">
        <ele>902.59997558594</ele>
        <time>2026-08-12T14:26:19.000Z</time>
      </trkpt>
      <trkpt lat="45.21777" lon="5.73557">
        <ele>902.79998779297</ele>
        <time>2026-08-12T14:26:20.000Z</time>
      </trkpt>
      <trkpt lat="45.21778" lon="5.73559">
        <ele>902.79998779297</ele>
        <time>2026-08-12T14:26:21.000Z</time>
      </trkpt>
      <trkpt lat="45.21779" lon="5.7356">
        <ele>903</ele>
        <time>2026-08-12T14:26:22.000Z</time>
      </trkpt>
      <trkpt lat="45.21781" lon="5.73562">
        <ele>903</ele>
        <time>2026-08-12T14:26:23.000Z</time>
      </trkpt>
      <trkpt lat="45.21782" lon="5.73564">
        <ele>903.40002441406</ele>
        <time>2026-08-12T14:26:24.000Z</time>
      </trkpt>
      <trkpt lat="45.21783" lon="5.73566">
        <ele>903.79998779297</ele>
        <time>2026-08-12T14:26:25.000Z</time>
      </trkpt>
      <trkpt lat="45.21784" lon="5.73568">
        <ele>903.59997558594</ele>
        <time>2026-08-12T14:26:26.000Z</time>
      </trkpt>
      <trkpt lat="45.21785" lon="5.73569">
        <ele>903.40002441406</ele>
        <time>2026-08-12T14:26:27.000Z</time>
      </trkpt>
      <trkpt lat="45.21786" lon="5.73571">
        <ele>903.20001220703</ele>
        <time>2026-08-12T14:26:28.000Z</time>
      </trkpt>
      <trkpt lat="45.21787" lon="5.73573">
        <ele>903</ele>
        <time>2026-08-12T14:26:29.000Z</time>
      </trkpt>
      <trkpt lat="45.21787" lon="5.73575">
        <ele>902.59997558594</ele>
        <time>2026-08-12T14:26:30.000Z</time>
      </trkpt>
      <trkpt lat="45.21788" lon="5.73576">
        <ele>902</ele>
        <time>2026-08-12T14:26:31.000Z</time>
      </trkpt>
      <trkpt lat="45.21789" lon="5.73578">
        <ele>901.59997558594</ele>
        <time>2026-08-12T14:26:32.000Z</time>
      </trkpt>
      <trkpt lat="45.2179" lon="5.73579">
        <ele>901</ele>
        <time>2026-08-12T14:26:33.000Z</time>
      </trkpt>
      <trkpt lat="45.21791" lon="5.73581">
        <ele>899.79998779297</ele>
        <time>2026-08-12T14:26:34.000Z</time>
      </trkpt>
      <trkpt lat="45.21792" lon="5.73582">
        <ele>899.20001220703</ele>
        <time>2026-08-12T14:26:35.000Z</time>
      </trkpt>
      <trkpt lat="45.21793" lon="5.73582">
        <ele>898.79998779297</ele>
        <time>2026-08-12T14:26:36.000Z</time>
      </trkpt>
      <trkpt lat="45.21794" lon="5.73583">
        <ele>898.20001220703</ele>
        <time>2026-08-12T14:26:37.000Z</time>
      </trkpt>
      <trkpt lat="45.21795" lon="5.73584">
        <ele>897.40002441406</ele>
        <time>2026-08-12T14:26:38.000Z</time>
      </trkpt>
      <trkpt lat="45.21796" lon="5.73585">
        <ele>896.79998779297</ele>
        <time>2026-08-12T14:26:39.000Z</time>
      </trkpt>
      <trkpt lat="45.21798" lon="5.73586">
        <ele>896</ele>
        <time>2026-08-12T14:26:40.000Z</time>
      </trkpt>
      <trkpt lat="45.21799" lon="5.73587">
        <ele>895.20001220703</ele>
        <time>2026-08-12T14:26:41.000Z</time>
      </trkpt>
      <trkpt lat="45.218" lon="5.73587">
        <ele>895.20001220703</ele>
        <time>2026-08-12T14:26:42.000Z</time>
      </trkpt>
      <trkpt lat="45.21801" lon="5.73588">
        <ele>895</ele>
        <time>2026-08-12T14:26:43.000Z</time>
      </trkpt>
      <trkpt lat="45.21802" lon="5.73589">
        <ele>895</ele>
        <time>2026-08-12T14:26:44.000Z</time>
      </trkpt>
      <trkpt lat="45.21804" lon="5.7359">
        <ele>895.59997558594</ele>
        <time>2026-08-12T14:26:45.000Z</time>
      </trkpt>
      <trkpt lat="45.21805" lon="5.73591">
        <ele>897</ele>
        <time>2026-08-12T14:26:46.000Z</time>
      </trkpt>
      <trkpt lat="45.21806" lon="5.73592">
        <ele>897.40002441406</ele>
        <time>2026-08-12T14:26:47.000Z</time>
      </trkpt>
      <trkpt lat="45.21808" lon="5.73592">
        <ele>898.20001220703</ele>
        <time>2026-08-12T14:26:48.000Z</time>
      </trkpt>
      <trkpt lat="45.21809" lon="5.73593">
        <ele>899</ele>
        <time>2026-08-12T14:26:49.000Z</time>
      </trkpt>
      <trkpt lat="45.21811" lon="5.73595">
        <ele>899.59997558594</ele>
        <time>2026-08-12T14:26:50.000Z</time>
      </trkpt>
      <trkpt lat="45.21812" lon="5.73596">
        <ele>900.40002441406</ele>
        <time>2026-08-12T14:26:51.000Z</time>
      </trkpt>
      <trkpt lat="45.21813" lon="5.73596">
        <ele>901.79998779297</ele>
        <time>2026-08-12T14:26:52.000Z</time>
      </trkpt>
      <trkpt lat="45.21815" lon="5.73597">
        <ele>902</ele>
        <time>2026-08-12T14:26:53.000Z</time>
      </trkpt>
      <trkpt lat="45.21816" lon="5.73598">
        <ele>902.20001220703</ele>
        <time>2026-08-12T14:26:54.000Z</time>
      </trkpt>
      <trkpt lat="45.21818" lon="5.73599">
        <ele>902.20001220703</ele>
        <time>2026-08-12T14:26:55.000Z</time>
      </trkpt>
      <trkpt lat="45.21819" lon="5.73599">
        <ele>902.40002441406</ele>
        <time>2026-08-12T14:26:56.000Z</time>
      </trkpt>
      <trkpt lat="45.21821" lon="5.73601">
        <ele>902.40002441406</ele>
        <time>2026-08-12T14:26:57.000Z</time>
      </trkpt>
      <trkpt lat="45.21823" lon="5.73603">
        <ele>902.59997558594</ele>
        <time>2026-08-12T14:26:58.000Z</time>
      </trkpt>
      <trkpt lat="45.21824" lon="5.73605">
        <ele>902.79998779297</ele>
        <time>2026-08-12T14:26:59.000Z</time>
      </trkpt>
      <trkpt lat="45.21825" lon="5.73606">
        <ele>903</ele>
        <time>2026-08-12T14:27:00.000Z</time>
      </trkpt>
      <trkpt lat="45.21825" lon="5.73608">
        <ele>903</ele>
        <time>2026-08-12T14:27:01.000Z</time>
      </trkpt>
      <trkpt lat="45.21826" lon="5.7361">
        <ele>903.79998779297</ele>
        <time>2026-08-12T14:27:02.000Z</time>
      </trkpt>
      <trkpt lat="45.21827" lon="5.73612">
        <ele>904.40002441406</ele>
        <time>2026-08-12T14:27:03.000Z</time>
      </trkpt>
      <trkpt lat="45.21828" lon="5.73613">
        <ele>905.20001220703</ele>
        <time>2026-08-12T14:27:04.000Z</time>
      </trkpt>
      <trkpt lat="45.21829" lon="5.73613">
        <ele>905.20001220703</ele>
        <time>2026-08-12T14:27:05.000Z</time>
      </trkpt>
      <trkpt lat="45.2183" lon="5.73614">
        <ele>905.20001220703</ele>
        <time>2026-08-12T14:27:06.000Z</time>
      </trkpt>
      <trkpt lat="45.21831" lon="5.73615">
        <ele>905.20001220703</ele>
        <time>2026-08-12T14:27:07.000Z</time>
      </trkpt>
      <trkpt lat="45.21832" lon="5.73616">
        <ele>905.20001220703</ele>
        <time>2026-08-12T14:27:08.000Z</time>
      </trkpt>
      <trkpt lat="45.21832" lon="5.73618">
        <ele>905</ele>
        <time>2026-08-12T14:27:09.000Z</time>
      </trkpt>
      <trkpt lat="45.21833" lon="5.73619">
        <ele>905</ele>
        <time>2026-08-12T14:27:10.000Z</time>
      </trkpt>
      <trkpt lat="45.21834" lon="5.7362">
        <ele>904.79998779297</ele>
        <time>2026-08-12T14:27:11.000Z</time>
      </trkpt>
      <trkpt lat="45.21835" lon="5.73621">
        <ele>904.59997558594</ele>
        <time>2026-08-12T14:27:12.000Z</time>
      </trkpt>
      <trkpt lat="45.21836" lon="5.73623">
        <ele>904.20001220703</ele>
        <time>2026-08-12T14:27:13.000Z</time>
      </trkpt>
      <trkpt lat="45.21837" lon="5.73623">
        <ele>904.20001220703</ele>
        <time>2026-08-12T14:27:14.000Z</time>
      </trkpt>
      <trkpt lat="45.21838" lon="5.73623">
        <ele>904.20001220703</ele>
        <time>2026-08-12T14:27:15.000Z</time>
      </trkpt>
      <trkpt lat="45.21838" lon="5.73622">
        <ele>904.20001220703</ele>
        <time>2026-08-12T14:27:16.000Z</time>
      </trkpt>
      <trkpt lat="45.21837" lon="5.73621">
        <ele>904.59997558594</ele>
        <time>2026-08-12T14:27:17.000Z</time>
      </trkpt>
      <trkpt lat="45.21837" lon="5.7362">
        <ele>905</ele>
        <time>2026-08-12T14:27:18.000Z</time>
      </trkpt>
      <trkpt lat="45.21836" lon="5.7362">
        <ele>905.20001220703</ele>
        <time>2026-08-12T14:27:19.000Z</time>
      </trkpt>
      <trkpt lat="45.21835" lon="5.73619">
        <ele>905.40002441406</ele>
        <time>2026-08-12T14:27:20.000Z</time>
      </trkpt>
      <trkpt lat="45.21835" lon="5.73618">
        <ele>905.79998779297</ele>
        <time>2026-08-12T14:27:21.000Z</time>
      </trkpt>
      <trkpt lat="45.21835" lon="5.73617">
        <ele>906</ele>
        <time>2026-08-12T14:27:22.000Z</time>
      </trkpt>
      <trkpt lat="45.21834" lon="5.73616">
        <ele>906.20001220703</ele>
        <time>2026-08-12T14:27:23.000Z</time>
      </trkpt>
      <trkpt lat="45.21833" lon="5.73614">
        <ele>906.40002441406</ele>
        <time>2026-08-12T14:27:24.000Z</time>
      </trkpt>
      <trkpt lat="45.21833" lon="5.73612">
        <ele>906.79998779297</ele>
        <time>2026-08-12T14:27:25.000Z</time>
      </trkpt>
      <trkpt lat="45.21832" lon="5.73611">
        <ele>907.20001220703</ele>
        <time>2026-08-12T14:27:26.000Z</time>
      </trkpt>
      <trkpt lat="45.21831" lon="5.73609">
        <ele>907.59997558594</ele>
        <time>2026-08-12T14:27:27.000Z</time>
      </trkpt>
      <trkpt lat="45.21831" lon="5.73608">
        <ele>908</ele>
        <time>2026-08-12T14:27:28.000Z</time>
      </trkpt>
      <trkpt lat="45.2183" lon="5.73607">
        <ele>908.40002441406</ele>
        <time>2026-08-12T14:27:29.000Z</time>
      </trkpt>
      <trkpt lat="45.21829" lon="5.73605">
        <ele>908.40002441406</ele>
        <time>2026-08-12T14:27:30.000Z</time>
      </trkpt>
      <trkpt lat="45.21828" lon="5.73605">
        <ele>908.20001220703</ele>
        <time>2026-08-12T14:27:31.000Z</time>
      </trkpt>
      <trkpt lat="45.21827" lon="5.73604">
        <ele>908</ele>
        <time>2026-08-12T14:27:32.000Z</time>
      </trkpt>
      <trkpt lat="45.21827" lon="5.73603">
        <ele>907.79998779297</ele>
        <time>2026-08-12T14:27:33.000Z</time>
      </trkpt>
      <trkpt lat="45.21826" lon="5.73601">
        <ele>907.79998779297</ele>
        <time>2026-08-12T14:27:34.000Z</time>
      </trkpt>
      <trkpt lat="45.21825" lon="5.736">
        <ele>907.79998779297</ele>
        <time>2026-08-12T14:27:35.000Z</time>
      </trkpt>
      <trkpt lat="45.21824" lon="5.73599">
        <ele>907.79998779297</ele>
        <time>2026-08-12T14:27:36.000Z</time>
      </trkpt>
      <trkpt lat="45.21823" lon="5.73598">
        <ele>907.79998779297</ele>
        <time>2026-08-12T14:27:37.000Z</time>
      </trkpt>
      <trkpt lat="45.21822" lon="5.73597">
        <ele>907.59997558594</ele>
        <time>2026-08-12T14:27:38.000Z</time>
      </trkpt>
      <trkpt lat="45.21821" lon="5.73596">
        <ele>907</ele>
        <time>2026-08-12T14:27:39.000Z</time>
      </trkpt>
      <trkpt lat="45.21821" lon="5.73595">
        <ele>906.79998779297</ele>
        <time>2026-08-12T14:27:40.000Z</time>
      </trkpt>
      <trkpt lat="45.2182" lon="5.73594">
        <ele>906.59997558594</ele>
        <time>2026-08-12T14:27:41.000Z</time>
      </trkpt>
      <trkpt lat="45.21818" lon="5.73593">
        <ele>906.59997558594</ele>
        <time>2026-08-12T14:27:42.000Z</time>
      </trkpt>
      <trkpt lat="45.21817" lon="5.73592">
        <ele>906.40002441406</ele>
        <time>2026-08-12T14:27:43.000Z</time>
      </trkpt>
      <trkpt lat="45.21816" lon="5.73591">
        <ele>906.40002441406</ele>
        <time>2026-08-12T14:27:44.000Z</time>
      </trkpt>
      <trkpt lat="45.21816" lon="5.73589">
        <ele>906.20001220703</ele>
        <time>2026-08-12T14:27:45.000Z</time>
      </trkpt>
      <trkpt lat="45.21816" lon="5.73588">
        <ele>906.20001220703</ele>
        <time>2026-08-12T14:27:46.000Z</time>
      </trkpt>
      <trkpt lat="45.21815" lon="5.73587">
        <ele>906.20001220703</ele>
        <time>2026-08-12T14:27:47.000Z</time>
      </trkpt>
      <trkpt lat="45.21814" lon="5.73586">
        <ele>906.40002441406</ele>
        <time>2026-08-12T14:27:48.000Z</time>
      </trkpt>
      <trkpt lat="45.21814" lon="5.73585">
        <ele>906.40002441406</ele>
        <time>2026-08-12T14:27:49.000Z</time>
      </trkpt>
      <trkpt lat="45.21813" lon="5.73585">
        <ele>906.59997558594</ele>
        <time>2026-08-12T14:27:50.000Z</time>
      </trkpt>
      <trkpt lat="45.21812" lon="5.73584">
        <ele>906.79998779297</ele>
        <time>2026-08-12T14:27:51.000Z</time>
      </trkpt>
      <trkpt lat="45.21812" lon="5.73583">
        <ele>907</ele>
        <time>2026-08-12T14:27:52.000Z</time>
      </trkpt>
      <trkpt lat="45.21811" lon="5.73582">
        <ele>907.20001220703</ele>
        <time>2026-08-12T14:27:53.000Z</time>
      </trkpt>
      <trkpt lat="45.2181" lon="5.73581">
        <ele>907.40002441406</ele>
        <time>2026-08-12T14:27:54.000Z</time>
      </trkpt>
      <trkpt lat="45.21809" lon="5.7358">
        <ele>907.59997558594</ele>
        <time>2026-08-12T14:27:55.000Z</time>
      </trkpt>
      <trkpt lat="45.21808" lon="5.7358">
        <ele>907.59997558594</ele>
        <time>2026-08-12T14:27:56.000Z</time>
      </trkpt>
      <trkpt lat="45.21807" lon="5.73579">
        <ele>908</ele>
        <time>2026-08-12T14:27:57.000Z</time>
      </trkpt>
      <trkpt lat="45.21805" lon="5.73578">
        <ele>908.20001220703</ele>
        <time>2026-08-12T14:27:58.000Z</time>
      </trkpt>
      <trkpt lat="45.21805" lon="5.73577">
        <ele>908.40002441406</ele>
        <time>2026-08-12T14:27:59.000Z</time>
      </trkpt>
      <trkpt lat="45.21804" lon="5.73576">
        <ele>908.79998779297</ele>
        <time>2026-08-12T14:28:00.000Z</time>
      </trkpt>
      <trkpt lat="45.21803" lon="5.73575">
        <ele>909</ele>
        <time>2026-08-12T14:28:01.000Z</time>
      </trkpt>
      <trkpt lat="45.21803" lon="5.73574">
        <ele>909</ele>
        <time>2026-08-12T14:28:02.000Z</time>
      </trkpt>
      <trkpt lat="45.21802" lon="5.73573">
        <ele>909.40002441406</ele>
        <time>2026-08-12T14:28:03.000Z</time>
      </trkpt>
      <trkpt lat="45.21802" lon="5.73572">
        <ele>909.59997558594</ele>
        <time>2026-08-12T14:28:04.000Z</time>
      </trkpt>
      <trkpt lat="45.21801" lon="5.73571">
        <ele>909.59997558594</ele>
        <time>2026-08-12T14:28:05.000Z</time>
      </trkpt>
      <trkpt lat="45.218" lon="5.7357">
        <ele>909.79998779297</ele>
        <time>2026-08-12T14:28:06.000Z</time>
      </trkpt>
      <trkpt lat="45.218" lon="5.73569">
        <ele>909.79998779297</ele>
        <time>2026-08-12T14:28:07.000Z</time>
      </trkpt>
      <trkpt lat="45.21799" lon="5.73568">
        <ele>910</ele>
        <time>2026-08-12T14:28:08.000Z</time>
      </trkpt>
      <trkpt lat="45.21798" lon="5.73567">
        <ele>910.20001220703</ele>
        <time>2026-08-12T14:28:09.000Z</time>
      </trkpt>
      <trkpt lat="45.21797" lon="5.73565">
        <ele>910.40002441406</ele>
        <time>2026-08-12T14:28:10.000Z</time>
      </trkpt>
      <trkpt lat="45.21797" lon="5.73564">
        <ele>910.40002441406</ele>
        <time>2026-08-12T14:28:11.000Z</time>
      </trkpt>
      <trkpt lat="45.21796" lon="5.73563">
        <ele>910.59997558594</ele>
        <time>2026-08-12T14:28:12.000Z</time>
      </trkpt>
      <trkpt lat="45.21795" lon="5.73561">
        <ele>910.79998779297</ele>
        <time>2026-08-12T14:28:13.000Z</time>
      </trkpt>
      <trkpt lat="45.21795" lon="5.7356">
        <ele>910.79998779297</ele>
        <time>2026-08-12T14:28:14.000Z</time>
      </trkpt>
      <trkpt lat="45.21794" lon="5.73558">
        <ele>910.79998779297</ele>
        <time>2026-08-12T14:28:15.000Z</time>
      </trkpt>
      <trkpt lat="45.21794" lon="5.73557">
        <ele>910.79998779297</ele>
        <time>2026-08-12T14:28:16.000Z</time>
      </trkpt>
      <trkpt lat="45.21793" lon="5.73556">
        <ele>910.79998779297</ele>
        <time>2026-08-12T14:28:17.000Z</time>
      </trkpt>
      <trkpt lat="45.21793" lon="5.73555">
        <ele>911.20001220703</ele>
        <time>2026-08-12T14:28:18.000Z</time>
      </trkpt>
      <trkpt lat="45.21793" lon="5.73554">
        <ele>911.40002441406</ele>
        <time>2026-08-12T14:28:19.000Z</time>
      </trkpt>
      <trkpt lat="45.21792" lon="5.73554">
        <ele>911.40002441406</ele>
        <time>2026-08-12T14:28:20.000Z</time>
      </trkpt>
      <trkpt lat="45.21792" lon="5.73553">
        <ele>911.59997558594</ele>
        <time>2026-08-12T14:28:21.000Z</time>
      </trkpt>
      <trkpt lat="45.21792" lon="5.73552">
        <ele>911.59997558594</ele>
        <time>2026-08-12T14:28:22.000Z</time>
      </trkpt>
      <trkpt lat="45.21792" lon="5.73551">
        <ele>912.20001220703</ele>
        <time>2026-08-12T14:28:23.000Z</time>
      </trkpt>
      <trkpt lat="45.21792" lon="5.73549">
        <ele>912.79998779297</ele>
        <time>2026-08-12T14:28:24.000Z</time>
      </trkpt>
      <trkpt lat="45.21792" lon="5.73547">
        <ele>913.40002441406</ele>
        <time>2026-08-12T14:28:25.000Z</time>
      </trkpt>
      <trkpt lat="45.21791" lon="5.73547">
        <ele>913.79998779297</ele>
        <time>2026-08-12T14:28:26.000Z</time>
      </trkpt>
      <trkpt lat="45.21791" lon="5.73546">
        <ele>914.59997558594</ele>
        <time>2026-08-12T14:28:27.000Z</time>
      </trkpt>
      <trkpt lat="45.2179" lon="5.73544">
        <ele>914.79998779297</ele>
        <time>2026-08-12T14:28:28.000Z</time>
      </trkpt>
      <trkpt lat="45.2179" lon="5.73543">
        <ele>914.79998779297</ele>
        <time>2026-08-12T14:28:29.000Z</time>
      </trkpt>
      <trkpt lat="45.21789" lon="5.73542">
        <ele>915</ele>
        <time>2026-08-12T14:28:30.000Z</time>
      </trkpt>
      <trkpt lat="45.21789" lon="5.73541">
        <ele>915</ele>
        <time>2026-08-12T14:28:31.000Z</time>
      </trkpt>
      <trkpt lat="45.21788" lon="5.7354">
        <ele>915</ele>
        <time>2026-08-12T14:28:32.000Z</time>
      </trkpt>
      <trkpt lat="45.21787" lon="5.73539">
        <ele>915.40002441406</ele>
        <time>2026-08-12T14:28:33.000Z</time>
      </trkpt>
      <trkpt lat="45.21786" lon="5.73538">
        <ele>915.79998779297</ele>
        <time>2026-08-12T14:28:34.000Z</time>
      </trkpt>
      <trkpt lat="45.21785" lon="5.73538">
        <ele>916.40002441406</ele>
        <time>2026-08-12T14:28:35.000Z</time>
      </trkpt>
      <trkpt lat="45.21784" lon="5.73537">
        <ele>916.59997558594</ele>
        <time>2026-08-12T14:28:36.000Z</time>
      </trkpt>
      <trkpt lat="45.21783" lon="5.73537">
        <ele>916.79998779297</ele>
        <time>2026-08-12T14:28:37.000Z</time>
      </trkpt>
      <trkpt lat="45.21782" lon="5.73537">
        <ele>917</ele>
        <time>2026-08-12T14:28:38.000Z</time>
      </trkpt>
      <trkpt lat="45.21781" lon="5.73536">
        <ele>917.40002441406</ele>
        <time>2026-08-12T14:28:39.000Z</time>
      </trkpt>
      <trkpt lat="45.2178" lon="5.73536">
        <ele>917.79998779297</ele>
        <time>2026-08-12T14:28:40.000Z</time>
      </trkpt>
      <trkpt lat="45.21779" lon="5.73534">
        <ele>917.79998779297</ele>
        <time>2026-08-12T14:28:41.000Z</time>
      </trkpt>
      <trkpt lat="45.21778" lon="5.73534">
        <ele>917.79998779297</ele>
        <time>2026-08-12T14:28:42.000Z</time>
      </trkpt>
      <trkpt lat="45.21778" lon="5.73533">
        <ele>917.79998779297</ele>
        <time>2026-08-12T14:28:43.000Z</time>
      </trkpt>
      <trkpt lat="45.21777" lon="5.73533">
        <ele>917.79998779297</ele>
        <time>2026-08-12T14:28:44.000Z</time>
      </trkpt>
      <trkpt lat="45.21776" lon="5.73532">
        <ele>917.79998779297</ele>
        <time>2026-08-12T14:28:45.000Z</time>
      </trkpt>
      <trkpt lat="45.21775" lon="5.73531">
        <ele>918.20001220703</ele>
        <time>2026-08-12T14:28:46.000Z</time>
      </trkpt>
      <trkpt lat="45.21774" lon="5.7353">
        <ele>918.59997558594</ele>
        <time>2026-08-12T14:28:47.000Z</time>
      </trkpt>
      <trkpt lat="45.21773" lon="5.73529">
        <ele>919.20001220703</ele>
        <time>2026-08-12T14:28:48.000Z</time>
      </trkpt>
      <trkpt lat="45.21771" lon="5.73528">
        <ele>919.59997558594</ele>
        <time>2026-08-12T14:28:49.000Z</time>
      </trkpt>
      <trkpt lat="45.2177" lon="5.73527">
        <ele>920.40002441406</ele>
        <time>2026-08-12T14:28:50.000Z</time>
      </trkpt>
      <trkpt lat="45.21769" lon="5.73527">
        <ele>921.40002441406</ele>
        <time>2026-08-12T14:28:51.000Z</time>
      </trkpt>
      <trkpt lat="45.21768" lon="5.73526">
        <ele>922</ele>
        <time>2026-08-12T14:28:52.000Z</time>
      </trkpt>
      <trkpt lat="45.21767" lon="5.73526">
        <ele>922.20001220703</ele>
        <time>2026-08-12T14:28:53.000Z</time>
      </trkpt>
      <trkpt lat="45.21765" lon="5.73525">
        <ele>922</ele>
        <time>2026-08-12T14:28:54.000Z</time>
      </trkpt>
      <trkpt lat="45.21764" lon="5.73525">
        <ele>922</ele>
        <time>2026-08-12T14:28:55.000Z</time>
      </trkpt>
      <trkpt lat="45.21762" lon="5.73526">
        <ele>922</ele>
        <time>2026-08-12T14:28:56.000Z</time>
      </trkpt>
      <trkpt lat="45.2176" lon="5.73526">
        <ele>921.79998779297</ele>
        <time>2026-08-12T14:28:57.000Z</time>
      </trkpt>
      <trkpt lat="45.21758" lon="5.73526">
        <ele>921.79998779297</ele>
        <time>2026-08-12T14:28:58.000Z</time>
      </trkpt>
      <trkpt lat="45.21757" lon="5.73526">
        <ele>922</ele>
        <time>2026-08-12T14:28:59.000Z</time>
      </trkpt>
      <trkpt lat="45.21754" lon="5.73526">
        <ele>922.79998779297</ele>
        <time>2026-08-12T14:29:00.000Z</time>
      </trkpt>
      <trkpt lat="45.21752" lon="5.73525">
        <ele>923.20001220703</ele>
        <time>2026-08-12T14:29:01.000Z</time>
      </trkpt>
      <trkpt lat="45.21751" lon="5.73525">
        <ele>923</ele>
        <time>2026-08-12T14:29:02.000Z</time>
      </trkpt>
      <trkpt lat="45.21749" lon="5.73525">
        <ele>923.20001220703</ele>
        <time>2026-08-12T14:29:03.000Z</time>
      </trkpt>
      <trkpt lat="45.21748" lon="5.73525">
        <ele>923.20001220703</ele>
        <time>2026-08-12T14:29:04.000Z</time>
      </trkpt>
      <trkpt lat="45.21746" lon="5.73526">
        <ele>923</ele>
        <time>2026-08-12T14:29:05.000Z</time>
      </trkpt>
      <trkpt lat="45.21744" lon="5.73525">
        <ele>922.79998779297</ele>
        <time>2026-08-12T14:29:06.000Z</time>
      </trkpt>
      <trkpt lat="45.21743" lon="5.73525">
        <ele>922.59997558594</ele>
        <time>2026-08-12T14:29:07.000Z</time>
      </trkpt>
      <trkpt lat="45.21741" lon="5.73525">
        <ele>922.40002441406</ele>
        <time>2026-08-12T14:29:08.000Z</time>
      </trkpt>
      <trkpt lat="45.21739" lon="5.73525">
        <ele>922.40002441406</ele>
        <time>2026-08-12T14:29:09.000Z</time>
      </trkpt>
      <trkpt lat="45.21737" lon="5.73524">
        <ele>922.20001220703</ele>
        <time>2026-08-12T14:29:10.000Z</time>
      </trkpt>
      <trkpt lat="45.21736" lon="5.73523">
        <ele>922</ele>
        <time>2026-08-12T14:29:11.000Z</time>
      </trkpt>
      <trkpt lat="45.21734" lon="5.73522">
        <ele>921.59997558594</ele>
        <time>2026-08-12T14:29:12.000Z</time>
      </trkpt>
      <trkpt lat="45.21733" lon="5.73521">
        <ele>921.40002441406</ele>
        <time>2026-08-12T14:29:13.000Z</time>
      </trkpt>
      <trkpt lat="45.21732" lon="5.73519">
        <ele>921</ele>
        <time>2026-08-12T14:29:14.000Z</time>
      </trkpt>
      <trkpt lat="45.21731" lon="5.73518">
        <ele>920.59997558594</ele>
        <time>2026-08-12T14:29:15.000Z</time>
      </trkpt>
      <trkpt lat="45.2173" lon="5.73516">
        <ele>920.20001220703</ele>
        <time>2026-08-12T14:29:16.000Z</time>
      </trkpt>
      <trkpt lat="45.21729" lon="5.73515">
        <ele>919.59997558594</ele>
        <time>2026-08-12T14:29:17.000Z</time>
      </trkpt>
      <trkpt lat="45.21728" lon="5.73513">
        <ele>919.59997558594</ele>
        <time>2026-08-12T14:29:18.000Z</time>
      </trkpt>
      <trkpt lat="45.21727" lon="5.73513">
        <ele>919.40002441406</ele>
        <time>2026-08-12T14:29:19.000Z</time>
      </trkpt>
      <trkpt lat="45.21725" lon="5.73512">
        <ele>919.40002441406</ele>
        <time>2026-08-12T14:29:20.000Z</time>
      </trkpt>
      <trkpt lat="45.21724" lon="5.73511">
        <ele>919.59997558594</ele>
        <time>2026-08-12T14:29:21.000Z</time>
      </trkpt>
      <trkpt lat="45.21722" lon="5.7351">
        <ele>919.79998779297</ele>
        <time>2026-08-12T14:29:22.000Z</time>
      </trkpt>
      <trkpt lat="45.21721" lon="5.73509">
        <ele>919.79998779297</ele>
        <time>2026-08-12T14:29:23.000Z</time>
      </trkpt>
      <trkpt lat="45.21719" lon="5.73509">
        <ele>920.20001220703</ele>
        <time>2026-08-12T14:29:24.000Z</time>
      </trkpt>
      <trkpt lat="45.21718" lon="5.73508">
        <ele>920.59997558594</ele>
        <time>2026-08-12T14:29:25.000Z</time>
      </trkpt>
      <trkpt lat="45.21716" lon="5.73507">
        <ele>921.79998779297</ele>
        <time>2026-08-12T14:29:26.000Z</time>
      </trkpt>
      <trkpt lat="45.21714" lon="5.73505">
        <ele>922</ele>
        <time>2026-08-12T14:29:27.000Z</time>
      </trkpt>
      <trkpt lat="45.21712" lon="5.73504">
        <ele>922.40002441406</ele>
        <time>2026-08-12T14:29:28.000Z</time>
      </trkpt>
      <trkpt lat="45.21711" lon="5.73503">
        <ele>922.40002441406</ele>
        <time>2026-08-12T14:29:29.000Z</time>
      </trkpt>
      <trkpt lat="45.21709" lon="5.73502">
        <ele>922.40002441406</ele>
        <time>2026-08-12T14:29:30.000Z</time>
      </trkpt>
      <trkpt lat="45.21707" lon="5.73501">
        <ele>922.20001220703</ele>
        <time>2026-08-12T14:29:31.000Z</time>
      </trkpt>
      <trkpt lat="45.21706" lon="5.73501">
        <ele>922</ele>
        <time>2026-08-12T14:29:32.000Z</time>
      </trkpt>
      <trkpt lat="45.21704" lon="5.73501">
        <ele>921.79998779297</ele>
        <time>2026-08-12T14:29:33.000Z</time>
      </trkpt>
      <trkpt lat="45.21703" lon="5.73501">
        <ele>921.59997558594</ele>
        <time>2026-08-12T14:29:34.000Z</time>
      </trkpt>
      <trkpt lat="45.21702" lon="5.73501">
        <ele>921.40002441406</ele>
        <time>2026-08-12T14:29:35.000Z</time>
      </trkpt>
      <trkpt lat="45.217" lon="5.735">
        <ele>921.40002441406</ele>
        <time>2026-08-12T14:29:36.000Z</time>
      </trkpt>
      <trkpt lat="45.21698" lon="5.735">
        <ele>921.40002441406</ele>
        <time>2026-08-12T14:29:37.000Z</time>
      </trkpt>
      <trkpt lat="45.21697" lon="5.735">
        <ele>921.40002441406</ele>
        <time>2026-08-12T14:29:38.000Z</time>
      </trkpt>
      <trkpt lat="45.21695" lon="5.735">
        <ele>921.40002441406</ele>
        <time>2026-08-12T14:29:39.000Z</time>
      </trkpt>
      <trkpt lat="45.21693" lon="5.735">
        <ele>921.40002441406</ele>
        <time>2026-08-12T14:29:40.000Z</time>
      </trkpt>
      <trkpt lat="45.21691" lon="5.73499">
        <ele>921.40002441406</ele>
        <time>2026-08-12T14:29:41.000Z</time>
      </trkpt>
      <trkpt lat="45.21689" lon="5.73499">
        <ele>921.59997558594</ele>
        <time>2026-08-12T14:29:42.000Z</time>
      </trkpt>
      <trkpt lat="45.21687" lon="5.73499">
        <ele>921.79998779297</ele>
        <time>2026-08-12T14:29:43.000Z</time>
      </trkpt>
      <trkpt lat="45.21686" lon="5.73499">
        <ele>921.79998779297</ele>
        <time>2026-08-12T14:29:44.000Z</time>
      </trkpt>
      <trkpt lat="45.21684" lon="5.73498">
        <ele>921.20001220703</ele>
        <time>2026-08-12T14:29:45.000Z</time>
      </trkpt>
      <trkpt lat="45.21683" lon="5.73497">
        <ele>919.59997558594</ele>
        <time>2026-08-12T14:29:46.000Z</time>
      </trkpt>
      <trkpt lat="45.21682" lon="5.73497">
        <ele>918.59997558594</ele>
        <time>2026-08-12T14:29:47.000Z</time>
      </trkpt>
      <trkpt lat="45.2168" lon="5.73496">
        <ele>917.59997558594</ele>
        <time>2026-08-12T14:29:48.000Z</time>
      </trkpt>
      <trkpt lat="45.21679" lon="5.73495">
        <ele>916.59997558594</ele>
        <time>2026-08-12T14:29:49.000Z</time>
      </trkpt>
      <trkpt lat="45.21677" lon="5.73493">
        <ele>915.79998779297</ele>
        <time>2026-08-12T14:29:50.000Z</time>
      </trkpt>
      <trkpt lat="45.21676" lon="5.73492">
        <ele>915.20001220703</ele>
        <time>2026-08-12T14:29:51.000Z</time>
      </trkpt>
      <trkpt lat="45.21675" lon="5.7349">
        <ele>914.20001220703</ele>
        <time>2026-08-12T14:29:52.000Z</time>
      </trkpt>
      <trkpt lat="45.21675" lon="5.73488">
        <ele>913.59997558594</ele>
        <time>2026-08-12T14:29:53.000Z</time>
      </trkpt>
      <trkpt lat="45.21674" lon="5.73485">
        <ele>913.20001220703</ele>
        <time>2026-08-12T14:29:54.000Z</time>
      </trkpt>
      <trkpt lat="45.21674" lon="5.73483">
        <ele>912.59997558594</ele>
        <time>2026-08-12T14:29:55.000Z</time>
      </trkpt>
      <trkpt lat="45.21674" lon="5.73482">
        <ele>912.40002441406</ele>
        <time>2026-08-12T14:29:56.000Z</time>
      </trkpt>
      <trkpt lat="45.21674" lon="5.7348">
        <ele>912.40002441406</ele>
        <time>2026-08-12T14:29:57.000Z</time>
      </trkpt>
      <trkpt lat="45.21674" lon="5.73478">
        <ele>912.59997558594</ele>
        <time>2026-08-12T14:29:58.000Z</time>
      </trkpt>
      <trkpt lat="45.21674" lon="5.73477">
        <ele>913.20001220703</ele>
        <time>2026-08-12T14:29:59.000Z</time>
      </trkpt>
      <trkpt lat="45.21674" lon="5.73477">
        <ele>913.79998779297</ele>
        <time>2026-08-12T14:30:00.000Z</time>
      </trkpt>
      <trkpt lat="45.21674" lon="5.73476">
        <ele>914.40002441406</ele>
        <time>2026-08-12T14:30:01.000Z</time>
      </trkpt>
      <trkpt lat="45.21673" lon="5.73474">
        <ele>915</ele>
        <time>2026-08-12T14:30:02.000Z</time>
      </trkpt>
      <trkpt lat="45.21673" lon="5.73473">
        <ele>915.20001220703</ele>
        <time>2026-08-12T14:30:03.000Z</time>
      </trkpt>
      <trkpt lat="45.21673" lon="5.73471">
        <ele>915.79998779297</ele>
        <time>2026-08-12T14:30:04.000Z</time>
      </trkpt>
      <trkpt lat="45.21673" lon="5.7347">
        <ele>916.20001220703</ele>
        <time>2026-08-12T14:30:05.000Z</time>
      </trkpt>
      <trkpt lat="45.21673" lon="5.73468">
        <ele>916.59997558594</ele>
        <time>2026-08-12T14:30:06.000Z</time>
      </trkpt>
      <trkpt lat="45.21673" lon="5.73466">
        <ele>917.20001220703</ele>
        <time>2026-08-12T14:30:07.000Z</time>
      </trkpt>
      <trkpt lat="45.21673" lon="5.73464">
        <ele>917.59997558594</ele>
        <time>2026-08-12T14:30:08.000Z</time>
      </trkpt>
      <trkpt lat="45.21673" lon="5.73462">
        <ele>917.79998779297</ele>
        <time>2026-08-12T14:30:09.000Z</time>
      </trkpt>
      <trkpt lat="45.21673" lon="5.73461">
        <ele>918.40002441406</ele>
        <time>2026-08-12T14:30:10.000Z</time>
      </trkpt>
      <trkpt lat="45.21673" lon="5.73459">
        <ele>918.79998779297</ele>
        <time>2026-08-12T14:30:11.000Z</time>
      </trkpt>
      <trkpt lat="45.21672" lon="5.73458">
        <ele>919</ele>
        <time>2026-08-12T14:30:12.000Z</time>
      </trkpt>
      <trkpt lat="45.21673" lon="5.73457">
        <ele>919</ele>
        <time>2026-08-12T14:30:13.000Z</time>
      </trkpt>
      <trkpt lat="45.21673" lon="5.73456">
        <ele>919.20001220703</ele>
        <time>2026-08-12T14:30:14.000Z</time>
      </trkpt>
      <trkpt lat="45.21673" lon="5.73454">
        <ele>919.20001220703</ele>
        <time>2026-08-12T14:30:15.000Z</time>
      </trkpt>
      <trkpt lat="45.21673" lon="5.73453">
        <ele>919.20001220703</ele>
        <time>2026-08-12T14:30:16.000Z</time>
      </trkpt>
      <trkpt lat="45.21673" lon="5.73452">
        <ele>919.40002441406</ele>
        <time>2026-08-12T14:30:17.000Z</time>
      </trkpt>
      <trkpt lat="45.21673" lon="5.7345">
        <ele>919.59997558594</ele>
        <time>2026-08-12T14:30:18.000Z</time>
      </trkpt>
      <trkpt lat="45.21673" lon="5.73448">
        <ele>919.79998779297</ele>
        <time>2026-08-12T14:30:19.000Z</time>
      </trkpt>
      <trkpt lat="45.21673" lon="5.73447">
        <ele>920</ele>
        <time>2026-08-12T14:30:20.000Z</time>
      </trkpt>
      <trkpt lat="45.21674" lon="5.73445">
        <ele>920</ele>
        <time>2026-08-12T14:30:21.000Z</time>
      </trkpt>
      <trkpt lat="45.21674" lon="5.73444">
        <ele>920</ele>
        <time>2026-08-12T14:30:22.000Z</time>
      </trkpt>
      <trkpt lat="45.21674" lon="5.73442">
        <ele>920</ele>
        <time>2026-08-12T14:30:23.000Z</time>
      </trkpt>
      <trkpt lat="45.21674" lon="5.73441">
        <ele>920</ele>
        <time>2026-08-12T14:30:24.000Z</time>
      </trkpt>
      <trkpt lat="45.21674" lon="5.7344">
        <ele>919.79998779297</ele>
        <time>2026-08-12T14:30:25.000Z</time>
      </trkpt>
      <trkpt lat="45.21674" lon="5.73439">
        <ele>919.40002441406</ele>
        <time>2026-08-12T14:30:26.000Z</time>
      </trkpt>
      <trkpt lat="45.21675" lon="5.73437">
        <ele>919.20001220703</ele>
        <time>2026-08-12T14:30:27.000Z</time>
      </trkpt>
      <trkpt lat="45.21675" lon="5.73437">
        <ele>919</ele>
        <time>2026-08-12T14:30:28.000Z</time>
      </trkpt>
      <trkpt lat="45.21675" lon="5.73435">
        <ele>919.20001220703</ele>
        <time>2026-08-12T14:30:29.000Z</time>
      </trkpt>
      <trkpt lat="45.21675" lon="5.73434">
        <ele>919.40002441406</ele>
        <time>2026-08-12T14:30:30.000Z</time>
      </trkpt>
      <trkpt lat="45.21675" lon="5.73433">
        <ele>919.59997558594</ele>
        <time>2026-08-12T14:30:31.000Z</time>
      </trkpt>
      <trkpt lat="45.21674" lon="5.73432">
        <ele>919.79998779297</ele>
        <time>2026-08-12T14:30:32.000Z</time>
      </trkpt>
      <trkpt lat="45.21674" lon="5.7343">
        <ele>920.59997558594</ele>
        <time>2026-08-12T14:30:33.000Z</time>
      </trkpt>
      <trkpt lat="45.21675" lon="5.73429">
        <ele>921.20001220703</ele>
        <time>2026-08-12T14:30:34.000Z</time>
      </trkpt>
      <trkpt lat="45.21675" lon="5.73427">
        <ele>921.79998779297</ele>
        <time>2026-08-12T14:30:35.000Z</time>
      </trkpt>
      <trkpt lat="45.21675" lon="5.73426">
        <ele>922.20001220703</ele>
        <time>2026-08-12T14:30:36.000Z</time>
      </trkpt>
      <trkpt lat="45.21675" lon="5.73426">
        <ele>922.40002441406</ele>
        <time>2026-08-12T14:30:37.000Z</time>
      </trkpt>
      <trkpt lat="45.21675" lon="5.73425">
        <ele>922.40002441406</ele>
        <time>2026-08-12T14:30:38.000Z</time>
      </trkpt>
      <trkpt lat="45.21675" lon="5.73424">
        <ele>923</ele>
        <time>2026-08-12T14:30:39.000Z</time>
      </trkpt>
      <trkpt lat="45.21675" lon="5.73422">
        <ele>923.20001220703</ele>
        <time>2026-08-12T14:30:40.000Z</time>
      </trkpt>
      <trkpt lat="45.21675" lon="5.73421">
        <ele>923.20001220703</ele>
        <time>2026-08-12T14:30:41.000Z</time>
      </trkpt>
      <trkpt lat="45.21675" lon="5.73419">
        <ele>923.20001220703</ele>
        <time>2026-08-12T14:30:42.000Z</time>
      </trkpt>
      <trkpt lat="45.21675" lon="5.73418">
        <ele>923</ele>
        <time>2026-08-12T14:30:43.000Z</time>
      </trkpt>
      <trkpt lat="45.21675" lon="5.73417">
        <ele>922.79998779297</ele>
        <time>2026-08-12T14:30:44.000Z</time>
      </trkpt>
      <trkpt lat="45.21675" lon="5.73415">
        <ele>922.59997558594</ele>
        <time>2026-08-12T14:30:45.000Z</time>
      </trkpt>
      <trkpt lat="45.21675" lon="5.73414">
        <ele>922.40002441406</ele>
        <time>2026-08-12T14:30:46.000Z</time>
      </trkpt>
      <trkpt lat="45.21674" lon="5.73413">
        <ele>922.20001220703</ele>
        <time>2026-08-12T14:30:47.000Z</time>
      </trkpt>
      <trkpt lat="45.21674" lon="5.73411">
        <ele>922</ele>
        <time>2026-08-12T14:30:48.000Z</time>
      </trkpt>
      <trkpt lat="45.21674" lon="5.7341">
        <ele>922</ele>
        <time>2026-08-12T14:30:49.000Z</time>
      </trkpt>
      <trkpt lat="45.21674" lon="5.73409">
        <ele>922.20001220703</ele>
        <time>2026-08-12T14:30:50.000Z</time>
      </trkpt>
      <trkpt lat="45.21674" lon="5.73407">
        <ele>922.20001220703</ele>
        <time>2026-08-12T14:30:51.000Z</time>
      </trkpt>
      <trkpt lat="45.21674" lon="5.73406">
        <ele>922.59997558594</ele>
        <time>2026-08-12T14:30:52.000Z</time>
      </trkpt>
      <trkpt lat="45.21674" lon="5.73405">
        <ele>923</ele>
        <time>2026-08-12T14:30:53.000Z</time>
      </trkpt>
      <trkpt lat="45.21674" lon="5.73403">
        <ele>924</ele>
        <time>2026-08-12T14:30:54.000Z</time>
      </trkpt>
      <trkpt lat="45.21674" lon="5.73403">
        <ele>924.20001220703</ele>
        <time>2026-08-12T14:30:55.000Z</time>
      </trkpt>
      <trkpt lat="45.21674" lon="5.73401">
        <ele>924.40002441406</ele>
        <time>2026-08-12T14:30:56.000Z</time>
      </trkpt>
      <trkpt lat="45.21673" lon="5.734">
        <ele>924.59997558594</ele>
        <time>2026-08-12T14:30:57.000Z</time>
      </trkpt>
      <trkpt lat="45.21673" lon="5.73399">
        <ele>925.20001220703</ele>
        <time>2026-08-12T14:30:58.000Z</time>
      </trkpt>
      <trkpt lat="45.21673" lon="5.73398">
        <ele>925.79998779297</ele>
        <time>2026-08-12T14:30:59.000Z</time>
      </trkpt>
      <trkpt lat="45.21673" lon="5.73397">
        <ele>926.20001220703</ele>
        <time>2026-08-12T14:31:00.000Z</time>
      </trkpt>
      <trkpt lat="45.21672" lon="5.73395">
        <ele>926.79998779297</ele>
        <time>2026-08-12T14:31:01.000Z</time>
      </trkpt>
      <trkpt lat="45.21672" lon="5.73394">
        <ele>927.40002441406</ele>
        <time>2026-08-12T14:31:02.000Z</time>
      </trkpt>
      <trkpt lat="45.21672" lon="5.73393">
        <ele>927.40002441406</ele>
        <time>2026-08-12T14:31:03.000Z</time>
      </trkpt>
      <trkpt lat="45.21672" lon="5.73392">
        <ele>927.40002441406</ele>
        <time>2026-08-12T14:31:04.000Z</time>
      </trkpt>
      <trkpt lat="45.21672" lon="5.7339">
        <ele>927.40002441406</ele>
        <time>2026-08-12T14:31:05.000Z</time>
      </trkpt>
      <trkpt lat="45.21672" lon="5.7339">
        <ele>927.59997558594</ele>
        <time>2026-08-12T14:31:06.000Z</time>
      </trkpt>
      <trkpt lat="45.21671" lon="5.73389">
        <ele>928.20001220703</ele>
        <time>2026-08-12T14:31:07.000Z</time>
      </trkpt>
      <trkpt lat="45.21671" lon="5.73387">
        <ele>928.40002441406</ele>
        <time>2026-08-12T14:31:08.000Z</time>
      </trkpt>
      <trkpt lat="45.21671" lon="5.73386">
        <ele>928.79998779297</ele>
        <time>2026-08-12T14:31:09.000Z</time>
      </trkpt>
      <trkpt lat="45.21671" lon="5.73385">
        <ele>929.20001220703</ele>
        <time>2026-08-12T14:31:10.000Z</time>
      </trkpt>
      <trkpt lat="45.21671" lon="5.73383">
        <ele>929.40002441406</ele>
        <time>2026-08-12T14:31:11.000Z</time>
      </trkpt>
      <trkpt lat="45.21671" lon="5.73382">
        <ele>929.59997558594</ele>
        <time>2026-08-12T14:31:12.000Z</time>
      </trkpt>
      <trkpt lat="45.2167" lon="5.7338">
        <ele>929.59997558594</ele>
        <time>2026-08-12T14:31:13.000Z</time>
      </trkpt>
      <trkpt lat="45.2167" lon="5.73379">
        <ele>929.79998779297</ele>
        <time>2026-08-12T14:31:14.000Z</time>
      </trkpt>
      <trkpt lat="45.2167" lon="5.73378">
        <ele>929.79998779297</ele>
        <time>2026-08-12T14:31:15.000Z</time>
      </trkpt>
      <trkpt lat="45.2167" lon="5.73378">
        <ele>929.59997558594</ele>
        <time>2026-08-12T14:31:16.000Z</time>
      </trkpt>
      <trkpt lat="45.2167" lon="5.73376">
        <ele>929.40002441406</ele>
        <time>2026-08-12T14:31:17.000Z</time>
      </trkpt>
      <trkpt lat="45.21669" lon="5.73375">
        <ele>929.20001220703</ele>
        <time>2026-08-12T14:31:18.000Z</time>
      </trkpt>
      <trkpt lat="45.21669" lon="5.73374">
        <ele>929</ele>
        <time>2026-08-12T14:31:19.000Z</time>
      </trkpt>
      <trkpt lat="45.21669" lon="5.73373">
        <ele>928.79998779297</ele>
        <time>2026-08-12T14:31:20.000Z</time>
      </trkpt>
      <trkpt lat="45.21668" lon="5.73372">
        <ele>928.20001220703</ele>
        <time>2026-08-12T14:31:21.000Z</time>
      </trkpt>
      <trkpt lat="45.21668" lon="5.73371">
        <ele>928.20001220703</ele>
        <time>2026-08-12T14:31:22.000Z</time>
      </trkpt>
      <trkpt lat="45.21667" lon="5.7337">
        <ele>928</ele>
        <time>2026-08-12T14:31:23.000Z</time>
      </trkpt>
      <trkpt lat="45.21667" lon="5.73369">
        <ele>928.40002441406</ele>
        <time>2026-08-12T14:31:24.000Z</time>
      </trkpt>
      <trkpt lat="45.21666" lon="5.73368">
        <ele>928.59997558594</ele>
        <time>2026-08-12T14:31:25.000Z</time>
      </trkpt>
      <trkpt lat="45.21666" lon="5.73367">
        <ele>929.59997558594</ele>
        <time>2026-08-12T14:31:26.000Z</time>
      </trkpt>
      <trkpt lat="45.21666" lon="5.73366">
        <ele>929.79998779297</ele>
        <time>2026-08-12T14:31:27.000Z</time>
      </trkpt>
      <trkpt lat="45.21665" lon="5.73365">
        <ele>930.20001220703</ele>
        <time>2026-08-12T14:31:28.000Z</time>
      </trkpt>
      <trkpt lat="45.21665" lon="5.73364">
        <ele>930.40002441406</ele>
        <time>2026-08-12T14:31:29.000Z</time>
      </trkpt>
      <trkpt lat="45.21664" lon="5.73363">
        <ele>931</ele>
        <time>2026-08-12T14:31:30.000Z</time>
      </trkpt>
      <trkpt lat="45.21664" lon="5.73362">
        <ele>931.20001220703</ele>
        <time>2026-08-12T14:31:31.000Z</time>
      </trkpt>
      <trkpt lat="45.21664" lon="5.7336">
        <ele>931</ele>
        <time>2026-08-12T14:31:32.000Z</time>
      </trkpt>
      <trkpt lat="45.21663" lon="5.73359">
        <ele>931.40002441406</ele>
        <time>2026-08-12T14:31:33.000Z</time>
      </trkpt>
      <trkpt lat="45.21663" lon="5.73358">
        <ele>931.79998779297</ele>
        <time>2026-08-12T14:31:34.000Z</time>
      </trkpt>
      <trkpt lat="45.21663" lon="5.73357">
        <ele>932.40002441406</ele>
        <time>2026-08-12T14:31:35.000Z</time>
      </trkpt>
      <trkpt lat="45.21662" lon="5.73356">
        <ele>932.79998779297</ele>
        <time>2026-08-12T14:31:36.000Z</time>
      </trkpt>
      <trkpt lat="45.21662" lon="5.73355">
        <ele>933.20001220703</ele>
        <time>2026-08-12T14:31:37.000Z</time>
      </trkpt>
      <trkpt lat="45.21661" lon="5.73354">
        <ele>933.59997558594</ele>
        <time>2026-08-12T14:31:38.000Z</time>
      </trkpt>
      <trkpt lat="45.21661" lon="5.73353">
        <ele>933.79998779297</ele>
        <time>2026-08-12T14:31:39.000Z</time>
      </trkpt>
      <trkpt lat="45.2166" lon="5.73352">
        <ele>934.20001220703</ele>
        <time>2026-08-12T14:31:40.000Z</time>
      </trkpt>
      <trkpt lat="45.2166" lon="5.73351">
        <ele>934.59997558594</ele>
        <time>2026-08-12T14:31:41.000Z</time>
      </trkpt>
      <trkpt lat="45.2166" lon="5.7335">
        <ele>935</ele>
        <time>2026-08-12T14:31:42.000Z</time>
      </trkpt>
      <trkpt lat="45.21659" lon="5.73349">
        <ele>935.79998779297</ele>
        <time>2026-08-12T14:31:43.000Z</time>
      </trkpt>
      <trkpt lat="45.21659" lon="5.73348">
        <ele>936</ele>
        <time>2026-08-12T14:31:44.000Z</time>
      </trkpt>
      <trkpt lat="45.21659" lon="5.73347">
        <ele>936.59997558594</ele>
        <time>2026-08-12T14:31:45.000Z</time>
      </trkpt>
      <trkpt lat="45.21658" lon="5.73346">
        <ele>937.20001220703</ele>
        <time>2026-08-12T14:31:46.000Z</time>
      </trkpt>
      <trkpt lat="45.21657" lon="5.73345">
        <ele>937.79998779297</ele>
        <time>2026-08-12T14:31:47.000Z</time>
      </trkpt>
      <trkpt lat="45.21656" lon="5.73344">
        <ele>938.20001220703</ele>
        <time>2026-08-12T14:31:48.000Z</time>
      </trkpt>
      <trkpt lat="45.21655" lon="5.73343">
        <ele>938.79998779297</ele>
        <time>2026-08-12T14:31:49.000Z</time>
      </trkpt>
      <trkpt lat="45.21655" lon="5.73343">
        <ele>939</ele>
        <time>2026-08-12T14:31:50.000Z</time>
      </trkpt>
      <trkpt lat="45.21655" lon="5.73342">
        <ele>939.20001220703</ele>
        <time>2026-08-12T14:31:51.000Z</time>
      </trkpt>
      <trkpt lat="45.21654" lon="5.73341">
        <ele>939.20001220703</ele>
        <time>2026-08-12T14:31:52.000Z</time>
      </trkpt>
      <trkpt lat="45.21653" lon="5.73341">
        <ele>939.40002441406</ele>
        <time>2026-08-12T14:31:53.000Z</time>
      </trkpt>
      <trkpt lat="45.21653" lon="5.7334">
        <ele>940</ele>
        <time>2026-08-12T14:31:54.000Z</time>
      </trkpt>
      <trkpt lat="45.21653" lon="5.73339">
        <ele>940.59997558594</ele>
        <time>2026-08-12T14:31:55.000Z</time>
      </trkpt>
      <trkpt lat="45.21653" lon="5.73337">
        <ele>941.20001220703</ele>
        <time>2026-08-12T14:31:56.000Z</time>
      </trkpt>
      <trkpt lat="45.21653" lon="5.73336">
        <ele>941.20001220703</ele>
        <time>2026-08-12T14:31:57.000Z</time>
      </trkpt>
      <trkpt lat="45.21652" lon="5.73335">
        <ele>941.20001220703</ele>
        <time>2026-08-12T14:31:58.000Z</time>
      </trkpt>
      <trkpt lat="45.21652" lon="5.73333">
        <ele>941.20001220703</ele>
        <time>2026-08-12T14:31:59.000Z</time>
      </trkpt>
      <trkpt lat="45.21652" lon="5.73332">
        <ele>941.20001220703</ele>
        <time>2026-08-12T14:32:00.000Z</time>
      </trkpt>
      <trkpt lat="45.21653" lon="5.73331">
        <ele>941.20001220703</ele>
        <time>2026-08-12T14:32:01.000Z</time>
      </trkpt>
      <trkpt lat="45.21653" lon="5.7333">
        <ele>941.20001220703</ele>
        <time>2026-08-12T14:32:02.000Z</time>
      </trkpt>
      <trkpt lat="45.21652" lon="5.7333">
        <ele>941.40002441406</ele>
        <time>2026-08-12T14:32:03.000Z</time>
      </trkpt>
      <trkpt lat="45.21652" lon="5.73329">
        <ele>941.40002441406</ele>
        <time>2026-08-12T14:32:04.000Z</time>
      </trkpt>
      <trkpt lat="45.21651" lon="5.73329">
        <ele>941.59997558594</ele>
        <time>2026-08-12T14:32:05.000Z</time>
      </trkpt>
      <trkpt lat="45.21651" lon="5.73328">
        <ele>941.59997558594</ele>
        <time>2026-08-12T14:32:06.000Z</time>
      </trkpt>
      <trkpt lat="45.21651" lon="5.73327">
        <ele>941.59997558594</ele>
        <time>2026-08-12T14:32:07.000Z</time>
      </trkpt>
      <trkpt lat="45.2165" lon="5.73326">
        <ele>941.59997558594</ele>
        <time>2026-08-12T14:32:08.000Z</time>
      </trkpt>
      <trkpt lat="45.2165" lon="5.73325">
        <ele>941.79998779297</ele>
        <time>2026-08-12T14:32:09.000Z</time>
      </trkpt>
      <trkpt lat="45.2165" lon="5.73324">
        <ele>941.59997558594</ele>
        <time>2026-08-12T14:32:10.000Z</time>
      </trkpt>
      <trkpt lat="45.21649" lon="5.73323">
        <ele>941.40002441406</ele>
        <time>2026-08-12T14:32:11.000Z</time>
      </trkpt>
      <trkpt lat="45.21649" lon="5.73322">
        <ele>941.40002441406</ele>
        <time>2026-08-12T14:32:12.000Z</time>
      </trkpt>
      <trkpt lat="45.21649" lon="5.73321">
        <ele>941.20001220703</ele>
        <time>2026-08-12T14:32:13.000Z</time>
      </trkpt>
      <trkpt lat="45.21648" lon="5.7332">
        <ele>941.20001220703</ele>
        <time>2026-08-12T14:32:14.000Z</time>
      </trkpt>
      <trkpt lat="45.21648" lon="5.73318">
        <ele>941</ele>
        <time>2026-08-12T14:32:15.000Z</time>
      </trkpt>
      <trkpt lat="45.21648" lon="5.73317">
        <ele>940.79998779297</ele>
        <time>2026-08-12T14:32:16.000Z</time>
      </trkpt>
      <trkpt lat="45.21647" lon="5.73316">
        <ele>940.59997558594</ele>
        <time>2026-08-12T14:32:17.000Z</time>
      </trkpt>
      <trkpt lat="45.21647" lon="5.73314">
        <ele>940.59997558594</ele>
        <time>2026-08-12T14:32:18.000Z</time>
      </trkpt>
      <trkpt lat="45.21647" lon="5.73313">
        <ele>940.79998779297</ele>
        <time>2026-08-12T14:32:19.000Z</time>
      </trkpt>
      <trkpt lat="45.21646" lon="5.73311">
        <ele>940.59997558594</ele>
        <time>2026-08-12T14:32:20.000Z</time>
      </trkpt>
      <trkpt lat="45.21646" lon="5.7331">
        <ele>940.59997558594</ele>
        <time>2026-08-12T14:32:21.000Z</time>
      </trkpt>
      <trkpt lat="45.21646" lon="5.73309">
        <ele>940.59997558594</ele>
        <time>2026-08-12T14:32:22.000Z</time>
      </trkpt>
      <trkpt lat="45.21646" lon="5.73308">
        <ele>940.59997558594</ele>
        <time>2026-08-12T14:32:23.000Z</time>
      </trkpt>
      <trkpt lat="45.21646" lon="5.73306">
        <ele>940.40002441406</ele>
        <time>2026-08-12T14:32:24.000Z</time>
      </trkpt>
      <trkpt lat="45.21646" lon="5.73305">
        <ele>940.40002441406</ele>
        <time>2026-08-12T14:32:25.000Z</time>
      </trkpt>
      <trkpt lat="45.21646" lon="5.73304">
        <ele>940.40002441406</ele>
        <time>2026-08-12T14:32:26.000Z</time>
      </trkpt>
      <trkpt lat="45.21646" lon="5.73303">
        <ele>940.79998779297</ele>
        <time>2026-08-12T14:32:27.000Z</time>
      </trkpt>
      <trkpt lat="45.21645" lon="5.73302">
        <ele>941.20001220703</ele>
        <time>2026-08-12T14:32:28.000Z</time>
      </trkpt>
      <trkpt lat="45.21645" lon="5.73301">
        <ele>941.40002441406</ele>
        <time>2026-08-12T14:32:29.000Z</time>
      </trkpt>
      <trkpt lat="45.21644" lon="5.73299">
        <ele>941.79998779297</ele>
        <time>2026-08-12T14:32:30.000Z</time>
      </trkpt>
      <trkpt lat="45.21644" lon="5.73298">
        <ele>942.20001220703</ele>
        <time>2026-08-12T14:32:31.000Z</time>
      </trkpt>
      <trkpt lat="45.21644" lon="5.73297">
        <ele>942.79998779297</ele>
        <time>2026-08-12T14:32:32.000Z</time>
      </trkpt>
      <trkpt lat="45.21644" lon="5.73297">
        <ele>943.40002441406</ele>
        <time>2026-08-12T14:32:33.000Z</time>
      </trkpt>
      <trkpt lat="45.21644" lon="5.73297">
        <ele>944.79998779297</ele>
        <time>2026-08-12T14:32:34.000Z</time>
      </trkpt>
      <trkpt lat="45.21643" lon="5.73295">
        <ele>945</ele>
        <time>2026-08-12T14:32:35.000Z</time>
      </trkpt>
      <trkpt lat="45.21643" lon="5.73294">
        <ele>945.59997558594</ele>
        <time>2026-08-12T14:32:36.000Z</time>
      </trkpt>
      <trkpt lat="45.21643" lon="5.73293">
        <ele>946.20001220703</ele>
        <time>2026-08-12T14:32:37.000Z</time>
      </trkpt>
      <trkpt lat="45.21643" lon="5.73292">
        <ele>946.79998779297</ele>
        <time>2026-08-12T14:32:38.000Z</time>
      </trkpt>
      <trkpt lat="45.21642" lon="5.73291">
        <ele>947.40002441406</ele>
        <time>2026-08-12T14:32:39.000Z</time>
      </trkpt>
      <trkpt lat="45.21642" lon="5.7329">
        <ele>948.20001220703</ele>
        <time>2026-08-12T14:32:40.000Z</time>
      </trkpt>
      <trkpt lat="45.21641" lon="5.73289">
        <ele>948.79998779297</ele>
        <time>2026-08-12T14:32:41.000Z</time>
      </trkpt>
      <trkpt lat="45.21641" lon="5.73287">
        <ele>949.40002441406</ele>
        <time>2026-08-12T14:32:42.000Z</time>
      </trkpt>
      <trkpt lat="45.21641" lon="5.73286">
        <ele>950</ele>
        <time>2026-08-12T14:32:43.000Z</time>
      </trkpt>
      <trkpt lat="45.2164" lon="5.73284">
        <ele>950.59997558594</ele>
        <time>2026-08-12T14:32:44.000Z</time>
      </trkpt>
      <trkpt lat="45.21639" lon="5.73283">
        <ele>951.20001220703</ele>
        <time>2026-08-12T14:32:45.000Z</time>
      </trkpt>
      <trkpt lat="45.21638" lon="5.73282">
        <ele>951.40002441406</ele>
        <time>2026-08-12T14:32:46.000Z</time>
      </trkpt>
      <trkpt lat="45.21638" lon="5.73281">
        <ele>951.40002441406</ele>
        <time>2026-08-12T14:32:47.000Z</time>
      </trkpt>
      <trkpt lat="45.21637" lon="5.7328">
        <ele>951.20001220703</ele>
        <time>2026-08-12T14:32:48.000Z</time>
      </trkpt>
      <trkpt lat="45.21637" lon="5.73279">
        <ele>951.20001220703</ele>
        <time>2026-08-12T14:32:49.000Z</time>
      </trkpt>
      <trkpt lat="45.21636" lon="5.73278">
        <ele>951</ele>
        <time>2026-08-12T14:32:50.000Z</time>
      </trkpt>
      <trkpt lat="45.21635" lon="5.73277">
        <ele>951</ele>
        <time>2026-08-12T14:32:51.000Z</time>
      </trkpt>
      <trkpt lat="45.21635" lon="5.73276">
        <ele>950.79998779297</ele>
        <time>2026-08-12T14:32:52.000Z</time>
      </trkpt>
      <trkpt lat="45.21634" lon="5.73275">
        <ele>950.79998779297</ele>
        <time>2026-08-12T14:32:53.000Z</time>
      </trkpt>
      <trkpt lat="45.21634" lon="5.73274">
        <ele>950.79998779297</ele>
        <time>2026-08-12T14:32:54.000Z</time>
      </trkpt>
      <trkpt lat="45.21633" lon="5.73272">
        <ele>950.59997558594</ele>
        <time>2026-08-12T14:32:55.000Z</time>
      </trkpt>
      <trkpt lat="45.21632" lon="5.73271">
        <ele>950.59997558594</ele>
        <time>2026-08-12T14:32:56.000Z</time>
      </trkpt>
      <trkpt lat="45.21631" lon="5.7327">
        <ele>950</ele>
        <time>2026-08-12T14:32:57.000Z</time>
      </trkpt>
      <trkpt lat="45.21631" lon="5.73268">
        <ele>949.59997558594</ele>
        <time>2026-08-12T14:32:58.000Z</time>
      </trkpt>
      <trkpt lat="45.2163" lon="5.73266">
        <ele>949</ele>
        <time>2026-08-12T14:32:59.000Z</time>
      </trkpt>
      <trkpt lat="45.21629" lon="5.73265">
        <ele>948.79998779297</ele>
        <time>2026-08-12T14:33:00.000Z</time>
      </trkpt>
      <trkpt lat="45.21629" lon="5.73265">
        <ele>949</ele>
        <time>2026-08-12T14:33:01.000Z</time>
      </trkpt>
      <trkpt lat="45.21628" lon="5.73264">
        <ele>949.20001220703</ele>
        <time>2026-08-12T14:33:02.000Z</time>
      </trkpt>
      <trkpt lat="45.21628" lon="5.73263">
        <ele>949.40002441406</ele>
        <time>2026-08-12T14:33:03.000Z</time>
      </trkpt>
      <trkpt lat="45.21627" lon="5.73262">
        <ele>949.79998779297</ele>
        <time>2026-08-12T14:33:04.000Z</time>
      </trkpt>
      <trkpt lat="45.21627" lon="5.73261">
        <ele>950.20001220703</ele>
        <time>2026-08-12T14:33:05.000Z</time>
      </trkpt>
      <trkpt lat="45.21626" lon="5.7326">
        <ele>950.59997558594</ele>
        <time>2026-08-12T14:33:06.000Z</time>
      </trkpt>
      <trkpt lat="45.21626" lon="5.73259">
        <ele>950.59997558594</ele>
        <time>2026-08-12T14:33:07.000Z</time>
      </trkpt>
      <trkpt lat="45.21625" lon="5.73258">
        <ele>950.79998779297</ele>
        <time>2026-08-12T14:33:08.000Z</time>
      </trkpt>
      <trkpt lat="45.21625" lon="5.73257">
        <ele>950.79998779297</ele>
        <time>2026-08-12T14:33:09.000Z</time>
      </trkpt>
      <trkpt lat="45.21624" lon="5.73256">
        <ele>950.79998779297</ele>
        <time>2026-08-12T14:33:10.000Z</time>
      </trkpt>
      <trkpt lat="45.21623" lon="5.73255">
        <ele>950.40002441406</ele>
        <time>2026-08-12T14:33:11.000Z</time>
      </trkpt>
      <trkpt lat="45.21623" lon="5.73253">
        <ele>950.40002441406</ele>
        <time>2026-08-12T14:33:12.000Z</time>
      </trkpt>
      <trkpt lat="45.21622" lon="5.73252">
        <ele>950.40002441406</ele>
        <time>2026-08-12T14:33:13.000Z</time>
      </trkpt>
      <trkpt lat="45.21622" lon="5.73252">
        <ele>950.40002441406</ele>
        <time>2026-08-12T14:33:14.000Z</time>
      </trkpt>
      <trkpt lat="45.21621" lon="5.73251">
        <ele>950.40002441406</ele>
        <time>2026-08-12T14:33:15.000Z</time>
      </trkpt>
      <trkpt lat="45.21621" lon="5.73249">
        <ele>950.40002441406</ele>
        <time>2026-08-12T14:33:16.000Z</time>
      </trkpt>
      <trkpt lat="45.2162" lon="5.73248">
        <ele>950.40002441406</ele>
        <time>2026-08-12T14:33:17.000Z</time>
      </trkpt>
      <trkpt lat="45.2162" lon="5.73247">
        <ele>950.40002441406</ele>
        <time>2026-08-12T14:33:18.000Z</time>
      </trkpt>
      <trkpt lat="45.2162" lon="5.73246">
        <ele>950.59997558594</ele>
        <time>2026-08-12T14:33:19.000Z</time>
      </trkpt>
      <trkpt lat="45.21619" lon="5.73246">
        <ele>950.59997558594</ele>
        <time>2026-08-12T14:33:20.000Z</time>
      </trkpt>
      <trkpt lat="45.21619" lon="5.73245">
        <ele>950.79998779297</ele>
        <time>2026-08-12T14:33:21.000Z</time>
      </trkpt>
      <trkpt lat="45.21619" lon="5.73244">
        <ele>950.79998779297</ele>
        <time>2026-08-12T14:33:22.000Z</time>
      </trkpt>
      <trkpt lat="45.21618" lon="5.73243">
        <ele>951</ele>
        <time>2026-08-12T14:33:23.000Z</time>
      </trkpt>
      <trkpt lat="45.21617" lon="5.73242">
        <ele>951</ele>
        <time>2026-08-12T14:33:24.000Z</time>
      </trkpt>
      <trkpt lat="45.21616" lon="5.73241">
        <ele>951.20001220703</ele>
        <time>2026-08-12T14:33:25.000Z</time>
      </trkpt>
      <trkpt lat="45.21616" lon="5.73241">
        <ele>951.40002441406</ele>
        <time>2026-08-12T14:33:26.000Z</time>
      </trkpt>
      <trkpt lat="45.21616" lon="5.7324">
        <ele>951.59997558594</ele>
        <time>2026-08-12T14:33:27.000Z</time>
      </trkpt>
      <trkpt lat="45.21616" lon="5.73239">
        <ele>951.79998779297</ele>
        <time>2026-08-12T14:33:28.000Z</time>
      </trkpt>
      <trkpt lat="45.21616" lon="5.73238">
        <ele>952.20001220703</ele>
        <time>2026-08-12T14:33:29.000Z</time>
      </trkpt>
      <trkpt lat="45.21615" lon="5.73237">
        <ele>952.59997558594</ele>
        <time>2026-08-12T14:33:30.000Z</time>
      </trkpt>
      <trkpt lat="45.21615" lon="5.73236">
        <ele>953</ele>
        <time>2026-08-12T14:33:31.000Z</time>
      </trkpt>
      <trkpt lat="45.21614" lon="5.73234">
        <ele>953.40002441406</ele>
        <time>2026-08-12T14:33:32.000Z</time>
      </trkpt>
      <trkpt lat="45.21613" lon="5.73234">
        <ele>953.59997558594</ele>
        <time>2026-08-12T14:33:33.000Z</time>
      </trkpt>
      <trkpt lat="45.21612" lon="5.73233">
        <ele>954.20001220703</ele>
        <time>2026-08-12T14:33:34.000Z</time>
      </trkpt>
      <trkpt lat="45.21612" lon="5.73233">
        <ele>954.59997558594</ele>
        <time>2026-08-12T14:33:35.000Z</time>
      </trkpt>
      <trkpt lat="45.21611" lon="5.73232">
        <ele>954.79998779297</ele>
        <time>2026-08-12T14:33:36.000Z</time>
      </trkpt>
      <trkpt lat="45.2161" lon="5.73231">
        <ele>955.20001220703</ele>
        <time>2026-08-12T14:33:37.000Z</time>
      </trkpt>
      <trkpt lat="45.2161" lon="5.7323">
        <ele>955.59997558594</ele>
        <time>2026-08-12T14:33:38.000Z</time>
      </trkpt>
      <trkpt lat="45.2161" lon="5.73229">
        <ele>956.20001220703</ele>
        <time>2026-08-12T14:33:39.000Z</time>
      </trkpt>
      <trkpt lat="45.21609" lon="5.73229">
        <ele>956.40002441406</ele>
        <time>2026-08-12T14:33:40.000Z</time>
      </trkpt>
      <trkpt lat="45.21608" lon="5.73227">
        <ele>956.79998779297</ele>
        <time>2026-08-12T14:33:41.000Z</time>
      </trkpt>
      <trkpt lat="45.21608" lon="5.73227">
        <ele>957</ele>
        <time>2026-08-12T14:33:42.000Z</time>
      </trkpt>
      <trkpt lat="45.21608" lon="5.73226">
        <ele>957.20001220703</ele>
        <time>2026-08-12T14:33:43.000Z</time>
      </trkpt>
      <trkpt lat="45.21607" lon="5.73225">
        <ele>957.40002441406</ele>
        <time>2026-08-12T14:33:44.000Z</time>
      </trkpt>
      <trkpt lat="45.21607" lon="5.73225">
        <ele>957.59997558594</ele>
        <time>2026-08-12T14:33:45.000Z</time>
      </trkpt>
      <trkpt lat="45.21607" lon="5.73224">
        <ele>957.59997558594</ele>
        <time>2026-08-12T14:33:46.000Z</time>
      </trkpt>
      <trkpt lat="45.21606" lon="5.73223">
        <ele>957.79998779297</ele>
        <time>2026-08-12T14:33:47.000Z</time>
      </trkpt>
      <trkpt lat="45.21605" lon="5.73222">
        <ele>957.79998779297</ele>
        <time>2026-08-12T14:33:48.000Z</time>
      </trkpt>
      <trkpt lat="45.21604" lon="5.73222">
        <ele>958.20001220703</ele>
        <time>2026-08-12T14:33:49.000Z</time>
      </trkpt>
      <trkpt lat="45.21604" lon="5.73221">
        <ele>958.40002441406</ele>
        <time>2026-08-12T14:33:50.000Z</time>
      </trkpt>
      <trkpt lat="45.21603" lon="5.7322">
        <ele>958.79998779297</ele>
        <time>2026-08-12T14:33:51.000Z</time>
      </trkpt>
      <trkpt lat="45.21603" lon="5.73219">
        <ele>959</ele>
        <time>2026-08-12T14:33:52.000Z</time>
      </trkpt>
      <trkpt lat="45.21602" lon="5.73218">
        <ele>959.20001220703</ele>
        <time>2026-08-12T14:33:53.000Z</time>
      </trkpt>
      <trkpt lat="45.21601" lon="5.73217">
        <ele>959.59997558594</ele>
        <time>2026-08-12T14:33:54.000Z</time>
      </trkpt>
      <trkpt lat="45.216" lon="5.73216">
        <ele>960</ele>
        <time>2026-08-12T14:33:55.000Z</time>
      </trkpt>
      <trkpt lat="45.216" lon="5.73216">
        <ele>960.40002441406</ele>
        <time>2026-08-12T14:33:56.000Z</time>
      </trkpt>
      <trkpt lat="45.21599" lon="5.73215">
        <ele>960.79998779297</ele>
        <time>2026-08-12T14:33:57.000Z</time>
      </trkpt>
      <trkpt lat="45.21598" lon="5.73214">
        <ele>961</ele>
        <time>2026-08-12T14:33:58.000Z</time>
      </trkpt>
      <trkpt lat="45.21597" lon="5.73213">
        <ele>961.40002441406</ele>
        <time>2026-08-12T14:33:59.000Z</time>
      </trkpt>
      <trkpt lat="45.21596" lon="5.73212">
        <ele>961.59997558594</ele>
        <time>2026-08-12T14:34:00.000Z</time>
      </trkpt>
      <trkpt lat="45.21596" lon="5.73212">
        <ele>961.79998779297</ele>
        <time>2026-08-12T14:34:01.000Z</time>
      </trkpt>
      <trkpt lat="45.21595" lon="5.73211">
        <ele>962</ele>
        <time>2026-08-12T14:34:02.000Z</time>
      </trkpt>
      <trkpt lat="45.21594" lon="5.7321">
        <ele>962</ele>
        <time>2026-08-12T14:34:03.000Z</time>
      </trkpt>
      <trkpt lat="45.21594" lon="5.73208">
        <ele>962.20001220703</ele>
        <time>2026-08-12T14:34:04.000Z</time>
      </trkpt>
      <trkpt lat="45.21593" lon="5.73208">
        <ele>962.20001220703</ele>
        <time>2026-08-12T14:34:05.000Z</time>
      </trkpt>
      <trkpt lat="45.21592" lon="5.73207">
        <ele>962.40002441406</ele>
        <time>2026-08-12T14:34:06.000Z</time>
      </trkpt>
      <trkpt lat="45.21592" lon="5.73206">
        <ele>962.40002441406</ele>
        <time>2026-08-12T14:34:07.000Z</time>
      </trkpt>
      <trkpt lat="45.21591" lon="5.73205">
        <ele>962.40002441406</ele>
        <time>2026-08-12T14:34:08.000Z</time>
      </trkpt>
      <trkpt lat="45.2159" lon="5.73204">
        <ele>962.40002441406</ele>
        <time>2026-08-12T14:34:09.000Z</time>
      </trkpt>
      <trkpt lat="45.21589" lon="5.73203">
        <ele>962.40002441406</ele>
        <time>2026-08-12T14:34:10.000Z</time>
      </trkpt>
      <trkpt lat="45.21588" lon="5.73202">
        <ele>962.40002441406</ele>
        <time>2026-08-12T14:34:11.000Z</time>
      </trkpt>
      <trkpt lat="45.21587" lon="5.73202">
        <ele>962.59997558594</ele>
        <time>2026-08-12T14:34:12.000Z</time>
      </trkpt>
      <trkpt lat="45.21586" lon="5.732">
        <ele>962.79998779297</ele>
        <time>2026-08-12T14:34:13.000Z</time>
      </trkpt>
      <trkpt lat="45.21586" lon="5.73199">
        <ele>963.20001220703</ele>
        <time>2026-08-12T14:34:14.000Z</time>
      </trkpt>
      <trkpt lat="45.21585" lon="5.73198">
        <ele>963.40002441406</ele>
        <time>2026-08-12T14:34:15.000Z</time>
      </trkpt>
      <trkpt lat="45.21584" lon="5.73197">
        <ele>963.40002441406</ele>
        <time>2026-08-12T14:34:16.000Z</time>
      </trkpt>
      <trkpt lat="45.21583" lon="5.73196">
        <ele>963.40002441406</ele>
        <time>2026-08-12T14:34:17.000Z</time>
      </trkpt>
      <trkpt lat="45.21583" lon="5.73196">
        <ele>963.20001220703</ele>
        <time>2026-08-12T14:34:18.000Z</time>
      </trkpt>
      <trkpt lat="45.21582" lon="5.73195">
        <ele>963</ele>
        <time>2026-08-12T14:34:19.000Z</time>
      </trkpt>
      <trkpt lat="45.21581" lon="5.73194">
        <ele>963</ele>
        <time>2026-08-12T14:34:20.000Z</time>
      </trkpt>
      <trkpt lat="45.2158" lon="5.73194">
        <ele>963</ele>
        <time>2026-08-12T14:34:21.000Z</time>
      </trkpt>
      <trkpt lat="45.21579" lon="5.73193">
        <ele>962.79998779297</ele>
        <time>2026-08-12T14:34:22.000Z</time>
      </trkpt>
      <trkpt lat="45.21578" lon="5.73193">
        <ele>962.79998779297</ele>
        <time>2026-08-12T14:34:23.000Z</time>
      </trkpt>
      <trkpt lat="45.21577" lon="5.73192">
        <ele>962.79998779297</ele>
        <time>2026-08-12T14:34:24.000Z</time>
      </trkpt>
      <trkpt lat="45.21576" lon="5.73191">
        <ele>962.79998779297</ele>
        <time>2026-08-12T14:34:25.000Z</time>
      </trkpt>
      <trkpt lat="45.21576" lon="5.7319">
        <ele>962.79998779297</ele>
        <time>2026-08-12T14:34:26.000Z</time>
      </trkpt>
      <trkpt lat="45.21575" lon="5.7319">
        <ele>962.79998779297</ele>
        <time>2026-08-12T14:34:27.000Z</time>
      </trkpt>
      <trkpt lat="45.21574" lon="5.73189">
        <ele>963</ele>
        <time>2026-08-12T14:34:28.000Z</time>
      </trkpt>
      <trkpt lat="45.21574" lon="5.73188">
        <ele>963.20001220703</ele>
        <time>2026-08-12T14:34:29.000Z</time>
      </trkpt>
      <trkpt lat="45.21573" lon="5.73187">
        <ele>963.40002441406</ele>
        <time>2026-08-12T14:34:30.000Z</time>
      </trkpt>
      <trkpt lat="45.21572" lon="5.73186">
        <ele>963.59997558594</ele>
        <time>2026-08-12T14:34:31.000Z</time>
      </trkpt>
      <trkpt lat="45.21572" lon="5.73185">
        <ele>964</ele>
        <time>2026-08-12T14:34:32.000Z</time>
      </trkpt>
      <trkpt lat="45.21572" lon="5.73184">
        <ele>964.20001220703</ele>
        <time>2026-08-12T14:34:33.000Z</time>
      </trkpt>
      <trkpt lat="45.21571" lon="5.73183">
        <ele>964.40002441406</ele>
        <time>2026-08-12T14:34:34.000Z</time>
      </trkpt>
      <trkpt lat="45.2157" lon="5.73183">
        <ele>964.59997558594</ele>
        <time>2026-08-12T14:34:35.000Z</time>
      </trkpt>
      <trkpt lat="45.2157" lon="5.73181">
        <ele>964.79998779297</ele>
        <time>2026-08-12T14:34:36.000Z</time>
      </trkpt>
      <trkpt lat="45.21569" lon="5.7318">
        <ele>965.20001220703</ele>
        <time>2026-08-12T14:34:37.000Z</time>
      </trkpt>
      <trkpt lat="45.21569" lon="5.73179">
        <ele>965.40002441406</ele>
        <time>2026-08-12T14:34:38.000Z</time>
      </trkpt>
      <trkpt lat="45.21569" lon="5.73178">
        <ele>965.59997558594</ele>
        <time>2026-08-12T14:34:39.000Z</time>
      </trkpt>
      <trkpt lat="45.21569" lon="5.73177">
        <ele>966</ele>
        <time>2026-08-12T14:34:40.000Z</time>
      </trkpt>
      <trkpt lat="45.21569" lon="5.73176">
        <ele>966.40002441406</ele>
        <time>2026-08-12T14:34:41.000Z</time>
      </trkpt>
      <trkpt lat="45.21569" lon="5.73175">
        <ele>966.79998779297</ele>
        <time>2026-08-12T14:34:42.000Z</time>
      </trkpt>
      <trkpt lat="45.21569" lon="5.73174">
        <ele>967.20001220703</ele>
        <time>2026-08-12T14:34:43.000Z</time>
      </trkpt>
      <trkpt lat="45.21569" lon="5.73173">
        <ele>968</ele>
        <time>2026-08-12T14:34:44.000Z</time>
      </trkpt>
      <trkpt lat="45.21569" lon="5.73173">
        <ele>968</ele>
        <time>2026-08-12T14:34:45.000Z</time>
      </trkpt>
      <trkpt lat="45.21568" lon="5.73172">
        <ele>968</ele>
        <time>2026-08-12T14:34:46.000Z</time>
      </trkpt>
      <trkpt lat="45.21568" lon="5.73171">
        <ele>968.20001220703</ele>
        <time>2026-08-12T14:34:47.000Z</time>
      </trkpt>
      <trkpt lat="45.21568" lon="5.7317">
        <ele>968</ele>
        <time>2026-08-12T14:34:48.000Z</time>
      </trkpt>
      <trkpt lat="45.21568" lon="5.73168">
        <ele>968</ele>
        <time>2026-08-12T14:34:49.000Z</time>
      </trkpt>
      <trkpt lat="45.21567" lon="5.73168">
        <ele>968.20001220703</ele>
        <time>2026-08-12T14:34:50.000Z</time>
      </trkpt>
      <trkpt lat="45.21567" lon="5.73167">
        <ele>968.40002441406</ele>
        <time>2026-08-12T14:34:51.000Z</time>
      </trkpt>
      <trkpt lat="45.21567" lon="5.73166">
        <ele>968.59997558594</ele>
        <time>2026-08-12T14:34:52.000Z</time>
      </trkpt>
      <trkpt lat="45.21567" lon="5.73165">
        <ele>968.79998779297</ele>
        <time>2026-08-12T14:34:53.000Z</time>
      </trkpt>
      <trkpt lat="45.21568" lon="5.73164">
        <ele>969.20001220703</ele>
        <time>2026-08-12T14:34:54.000Z</time>
      </trkpt>
      <trkpt lat="45.21568" lon="5.73163">
        <ele>969.40002441406</ele>
        <time>2026-08-12T14:34:55.000Z</time>
      </trkpt>
      <trkpt lat="45.21568" lon="5.73162">
        <ele>969.59997558594</ele>
        <time>2026-08-12T14:34:56.000Z</time>
      </trkpt>
      <trkpt lat="45.21569" lon="5.73161">
        <ele>969.79998779297</ele>
        <time>2026-08-12T14:34:57.000Z</time>
      </trkpt>
      <trkpt lat="45.2157" lon="5.7316">
        <ele>969.79998779297</ele>
        <time>2026-08-12T14:34:58.000Z</time>
      </trkpt>
      <trkpt lat="45.2157" lon="5.7316">
        <ele>970.20001220703</ele>
        <time>2026-08-12T14:34:59.000Z</time>
      </trkpt>
      <trkpt lat="45.21571" lon="5.7316">
        <ele>970.40002441406</ele>
        <time>2026-08-12T14:35:00.000Z</time>
      </trkpt>
      <trkpt lat="45.21571" lon="5.7316">
        <ele>970.59997558594</ele>
        <time>2026-08-12T14:35:01.000Z</time>
      </trkpt>
      <trkpt lat="45.21573" lon="5.7316">
        <ele>970.79998779297</ele>
        <time>2026-08-12T14:35:02.000Z</time>
      </trkpt>
      <trkpt lat="45.21574" lon="5.7316">
        <ele>970.79998779297</ele>
        <time>2026-08-12T14:35:03.000Z</time>
      </trkpt>
      <trkpt lat="45.21574" lon="5.73159">
        <ele>971</ele>
        <time>2026-08-12T14:35:04.000Z</time>
      </trkpt>
      <trkpt lat="45.21575" lon="5.73159">
        <ele>971</ele>
        <time>2026-08-12T14:35:05.000Z</time>
      </trkpt>
      <trkpt lat="45.21575" lon="5.73159">
        <ele>971</ele>
        <time>2026-08-12T14:35:06.000Z</time>
      </trkpt>
      <trkpt lat="45.21574" lon="5.73159">
        <ele>971.40002441406</ele>
        <time>2026-08-12T14:35:07.000Z</time>
      </trkpt>
      <trkpt lat="45.21574" lon="5.73158">
        <ele>971.79998779297</ele>
        <time>2026-08-12T14:35:08.000Z</time>
      </trkpt>
      <trkpt lat="45.21573" lon="5.73157">
        <ele>972.20001220703</ele>
        <time>2026-08-12T14:35:09.000Z</time>
      </trkpt>
      <trkpt lat="45.21574" lon="5.73156">
        <ele>972.59997558594</ele>
        <time>2026-08-12T14:35:10.000Z</time>
      </trkpt>
      <trkpt lat="45.21574" lon="5.73156">
        <ele>973.20001220703</ele>
        <time>2026-08-12T14:35:11.000Z</time>
      </trkpt>
      <trkpt lat="45.21574" lon="5.73155">
        <ele>973.79998779297</ele>
        <time>2026-08-12T14:35:12.000Z</time>
      </trkpt>
      <trkpt lat="45.21573" lon="5.73154">
        <ele>974.20001220703</ele>
        <time>2026-08-12T14:35:13.000Z</time>
      </trkpt>
      <trkpt lat="45.21573" lon="5.73153">
        <ele>974.40002441406</ele>
        <time>2026-08-12T14:35:14.000Z</time>
      </trkpt>
      <trkpt lat="45.21573" lon="5.73152">
        <ele>974.79998779297</ele>
        <time>2026-08-12T14:35:15.000Z</time>
      </trkpt>
      <trkpt lat="45.21573" lon="5.73152">
        <ele>975.40002441406</ele>
        <time>2026-08-12T14:35:16.000Z</time>
      </trkpt>
      <trkpt lat="45.21574" lon="5.73151">
        <ele>975.79998779297</ele>
        <time>2026-08-12T14:35:17.000Z</time>
      </trkpt>
      <trkpt lat="45.21574" lon="5.7315">
        <ele>976.20001220703</ele>
        <time>2026-08-12T14:35:18.000Z</time>
      </trkpt>
      <trkpt lat="45.21574" lon="5.73149">
        <ele>976.20001220703</ele>
        <time>2026-08-12T14:35:19.000Z</time>
      </trkpt>
      <trkpt lat="45.21575" lon="5.73148">
        <ele>976.59997558594</ele>
        <time>2026-08-12T14:35:20.000Z</time>
      </trkpt>
      <trkpt lat="45.21574" lon="5.73147">
        <ele>977.20001220703</ele>
        <time>2026-08-12T14:35:21.000Z</time>
      </trkpt>
      <trkpt lat="45.21575" lon="5.73146">
        <ele>977.20001220703</ele>
        <time>2026-08-12T14:35:22.000Z</time>
      </trkpt>
      <trkpt lat="45.21575" lon="5.73145">
        <ele>977.40002441406</ele>
        <time>2026-08-12T14:35:23.000Z</time>
      </trkpt>
      <trkpt lat="45.21575" lon="5.73145">
        <ele>978</ele>
        <time>2026-08-12T14:35:24.000Z</time>
      </trkpt>
      <trkpt lat="45.21575" lon="5.73144">
        <ele>978.20001220703</ele>
        <time>2026-08-12T14:35:25.000Z</time>
      </trkpt>
      <trkpt lat="45.21576" lon="5.73143">
        <ele>978.59997558594</ele>
        <time>2026-08-12T14:35:26.000Z</time>
      </trkpt>
      <trkpt lat="45.21576" lon="5.73143">
        <ele>979</ele>
        <time>2026-08-12T14:35:27.000Z</time>
      </trkpt>
      <trkpt lat="45.21577" lon="5.73142">
        <ele>979</ele>
        <time>2026-08-12T14:35:28.000Z</time>
      </trkpt>
      <trkpt lat="45.21577" lon="5.73142">
        <ele>979</ele>
        <time>2026-08-12T14:35:29.000Z</time>
      </trkpt>
      <trkpt lat="45.21577" lon="5.73142">
        <ele>979</ele>
        <time>2026-08-12T14:35:30.000Z</time>
      </trkpt>
      <trkpt lat="45.21578" lon="5.73142">
        <ele>979</ele>
        <time>2026-08-12T14:35:31.000Z</time>
      </trkpt>
      <trkpt lat="45.21578" lon="5.73141">
        <ele>978.79998779297</ele>
        <time>2026-08-12T14:35:32.000Z</time>
      </trkpt>
      <trkpt lat="45.21579" lon="5.7314">
        <ele>978.40002441406</ele>
        <time>2026-08-12T14:35:33.000Z</time>
      </trkpt>
      <trkpt lat="45.2158" lon="5.7314">
        <ele>978</ele>
        <time>2026-08-12T14:35:34.000Z</time>
      </trkpt>
      <trkpt lat="45.2158" lon="5.7314">
        <ele>977.59997558594</ele>
        <time>2026-08-12T14:35:35.000Z</time>
      </trkpt>
      <trkpt lat="45.21581" lon="5.7314">
        <ele>977</ele>
        <time>2026-08-12T14:35:36.000Z</time>
      </trkpt>
      <trkpt lat="45.21582" lon="5.73139">
        <ele>976.79998779297</ele>
        <time>2026-08-12T14:35:37.000Z</time>
      </trkpt>
      <trkpt lat="45.21582" lon="5.73139">
        <ele>976.59997558594</ele>
        <time>2026-08-12T14:35:38.000Z</time>
      </trkpt>
      <trkpt lat="45.21582" lon="5.73138">
        <ele>976.20001220703</ele>
        <time>2026-08-12T14:35:39.000Z</time>
      </trkpt>
      <trkpt lat="45.21582" lon="5.73137">
        <ele>976.40002441406</ele>
        <time>2026-08-12T14:35:40.000Z</time>
      </trkpt>
      <trkpt lat="45.21582" lon="5.73137">
        <ele>976.79998779297</ele>
        <time>2026-08-12T14:35:41.000Z</time>
      </trkpt>
      <trkpt lat="45.21582" lon="5.73136">
        <ele>977.20001220703</ele>
        <time>2026-08-12T14:35:42.000Z</time>
      </trkpt>
      <trkpt lat="45.21582" lon="5.73135">
        <ele>978.20001220703</ele>
        <time>2026-08-12T14:35:43.000Z</time>
      </trkpt>
      <trkpt lat="45.21581" lon="5.73134">
        <ele>979.20001220703</ele>
        <time>2026-08-12T14:35:44.000Z</time>
      </trkpt>
      <trkpt lat="45.21581" lon="5.73132">
        <ele>979.40002441406</ele>
        <time>2026-08-12T14:35:45.000Z</time>
      </trkpt>
      <trkpt lat="45.21581" lon="5.73132">
        <ele>979.59997558594</ele>
        <time>2026-08-12T14:35:46.000Z</time>
      </trkpt>
      <trkpt lat="45.21581" lon="5.73131">
        <ele>979.59997558594</ele>
        <time>2026-08-12T14:35:47.000Z</time>
      </trkpt>
      <trkpt lat="45.21581" lon="5.7313">
        <ele>980.40002441406</ele>
        <time>2026-08-12T14:35:48.000Z</time>
      </trkpt>
      <trkpt lat="45.21581" lon="5.73129">
        <ele>980.40002441406</ele>
        <time>2026-08-12T14:35:49.000Z</time>
      </trkpt>
      <trkpt lat="45.21581" lon="5.73128">
        <ele>980.20001220703</ele>
        <time>2026-08-12T14:35:50.000Z</time>
      </trkpt>
      <trkpt lat="45.21581" lon="5.73127">
        <ele>980.20001220703</ele>
        <time>2026-08-12T14:35:51.000Z</time>
      </trkpt>
      <trkpt lat="45.21581" lon="5.73127">
        <ele>980</ele>
        <time>2026-08-12T14:35:52.000Z</time>
      </trkpt>
      <trkpt lat="45.21581" lon="5.73126">
        <ele>980.20001220703</ele>
        <time>2026-08-12T14:35:53.000Z</time>
      </trkpt>
      <trkpt lat="45.21581" lon="5.73125">
        <ele>980.40002441406</ele>
        <time>2026-08-12T14:35:54.000Z</time>
      </trkpt>
      <trkpt lat="45.21582" lon="5.73124">
        <ele>981.20001220703</ele>
        <time>2026-08-12T14:35:55.000Z</time>
      </trkpt>
      <trkpt lat="45.21581" lon="5.73124">
        <ele>981.20001220703</ele>
        <time>2026-08-12T14:35:56.000Z</time>
      </trkpt>
      <trkpt lat="45.21582" lon="5.73123">
        <ele>981.79998779297</ele>
        <time>2026-08-12T14:35:57.000Z</time>
      </trkpt>
      <trkpt lat="45.21582" lon="5.73122">
        <ele>982.40002441406</ele>
        <time>2026-08-12T14:35:58.000Z</time>
      </trkpt>
      <trkpt lat="45.21583" lon="5.73121">
        <ele>982.79998779297</ele>
        <time>2026-08-12T14:35:59.000Z</time>
      </trkpt>
      <trkpt lat="45.21584" lon="5.7312">
        <ele>983.40002441406</ele>
        <time>2026-08-12T14:36:00.000Z</time>
      </trkpt>
      <trkpt lat="45.21585" lon="5.7312">
        <ele>983.79998779297</ele>
        <time>2026-08-12T14:36:01.000Z</time>
      </trkpt>
      <trkpt lat="45.21586" lon="5.73119">
        <ele>984</ele>
        <time>2026-08-12T14:36:02.000Z</time>
      </trkpt>
      <trkpt lat="45.21586" lon="5.73119">
        <ele>984.20001220703</ele>
        <time>2026-08-12T14:36:03.000Z</time>
      </trkpt>
      <trkpt lat="45.21587" lon="5.73118">
        <ele>984.40002441406</ele>
        <time>2026-08-12T14:36:04.000Z</time>
      </trkpt>
      <trkpt lat="45.21587" lon="5.73117">
        <ele>984.59997558594</ele>
        <time>2026-08-12T14:36:05.000Z</time>
      </trkpt>
      <trkpt lat="45.21587" lon="5.73117">
        <ele>984.79998779297</ele>
        <time>2026-08-12T14:36:06.000Z</time>
      </trkpt>
      <trkpt lat="45.21588" lon="5.73116">
        <ele>985</ele>
        <time>2026-08-12T14:36:07.000Z</time>
      </trkpt>
      <trkpt lat="45.21589" lon="5.73115">
        <ele>985.40002441406</ele>
        <time>2026-08-12T14:36:08.000Z</time>
      </trkpt>
      <trkpt lat="45.21589" lon="5.73115">
        <ele>985.59997558594</ele>
        <time>2026-08-12T14:36:09.000Z</time>
      </trkpt>
      <trkpt lat="45.2159" lon="5.73115">
        <ele>985.79998779297</ele>
        <time>2026-08-12T14:36:10.000Z</time>
      </trkpt>
      <trkpt lat="45.21591" lon="5.73115">
        <ele>985.79998779297</ele>
        <time>2026-08-12T14:36:11.000Z</time>
      </trkpt>
      <trkpt lat="45.21592" lon="5.73115">
        <ele>986</ele>
        <time>2026-08-12T14:36:12.000Z</time>
      </trkpt>
      <trkpt lat="45.21593" lon="5.73115">
        <ele>986.40002441406</ele>
        <time>2026-08-12T14:36:13.000Z</time>
      </trkpt>
      <trkpt lat="45.21594" lon="5.73115">
        <ele>986.40002441406</ele>
        <time>2026-08-12T14:36:14.000Z</time>
      </trkpt>
      <trkpt lat="45.21595" lon="5.73116">
        <ele>986.40002441406</ele>
        <time>2026-08-12T14:36:15.000Z</time>
      </trkpt>
      <trkpt lat="45.21596" lon="5.73116">
        <ele>986.40002441406</ele>
        <time>2026-08-12T14:36:16.000Z</time>
      </trkpt>
      <trkpt lat="45.21597" lon="5.73117">
        <ele>986.40002441406</ele>
        <time>2026-08-12T14:36:17.000Z</time>
      </trkpt>
      <trkpt lat="45.21598" lon="5.73118">
        <ele>986.20001220703</ele>
        <time>2026-08-12T14:36:18.000Z</time>
      </trkpt>
      <trkpt lat="45.21599" lon="5.7312">
        <ele>986.20001220703</ele>
        <time>2026-08-12T14:36:19.000Z</time>
      </trkpt>
      <trkpt lat="45.216" lon="5.7312">
        <ele>986.40002441406</ele>
        <time>2026-08-12T14:36:20.000Z</time>
      </trkpt>
      <trkpt lat="45.216" lon="5.73121">
        <ele>986.40002441406</ele>
        <time>2026-08-12T14:36:21.000Z</time>
      </trkpt>
      <trkpt lat="45.21601" lon="5.73121">
        <ele>987.59997558594</ele>
        <time>2026-08-12T14:36:22.000Z</time>
      </trkpt>
      <trkpt lat="45.21602" lon="5.73122">
        <ele>988.79998779297</ele>
        <time>2026-08-12T14:36:23.000Z</time>
      </trkpt>
      <trkpt lat="45.21603" lon="5.73122">
        <ele>988.79998779297</ele>
        <time>2026-08-12T14:36:24.000Z</time>
      </trkpt>
      <trkpt lat="45.21604" lon="5.73123">
        <ele>989</ele>
        <time>2026-08-12T14:36:25.000Z</time>
      </trkpt>
      <trkpt lat="45.21605" lon="5.73123">
        <ele>989.20001220703</ele>
        <time>2026-08-12T14:36:26.000Z</time>
      </trkpt>
      <trkpt lat="45.21605" lon="5.73123">
        <ele>989.40002441406</ele>
        <time>2026-08-12T14:36:27.000Z</time>
      </trkpt>
      <trkpt lat="45.21606" lon="5.73123">
        <ele>989.59997558594</ele>
        <time>2026-08-12T14:36:28.000Z</time>
      </trkpt>
      <trkpt lat="45.21606" lon="5.73124">
        <ele>990</ele>
        <time>2026-08-12T14:36:29.000Z</time>
      </trkpt>
      <trkpt lat="45.21607" lon="5.73124">
        <ele>990.20001220703</ele>
        <time>2026-08-12T14:36:30.000Z</time>
      </trkpt>
      <trkpt lat="45.21608" lon="5.73124">
        <ele>990.40002441406</ele>
        <time>2026-08-12T14:36:31.000Z</time>
      </trkpt>
      <trkpt lat="45.21609" lon="5.73125">
        <ele>990.79998779297</ele>
        <time>2026-08-12T14:36:32.000Z</time>
      </trkpt>
      <trkpt lat="45.2161" lon="5.73125">
        <ele>991.20001220703</ele>
        <time>2026-08-12T14:36:33.000Z</time>
      </trkpt>
      <trkpt lat="45.21611" lon="5.73125">
        <ele>991.40002441406</ele>
        <time>2026-08-12T14:36:34.000Z</time>
      </trkpt>
      <trkpt lat="45.21612" lon="5.73126">
        <ele>991.79998779297</ele>
        <time>2026-08-12T14:36:35.000Z</time>
      </trkpt>
      <trkpt lat="45.21613" lon="5.73126">
        <ele>992</ele>
        <time>2026-08-12T14:36:36.000Z</time>
      </trkpt>
      <trkpt lat="45.21614" lon="5.73127">
        <ele>992.20001220703</ele>
        <time>2026-08-12T14:36:37.000Z</time>
      </trkpt>
      <trkpt lat="45.21615" lon="5.73127">
        <ele>992.20001220703</ele>
        <time>2026-08-12T14:36:38.000Z</time>
      </trkpt>
      <trkpt lat="45.21616" lon="5.73128">
        <ele>992</ele>
        <time>2026-08-12T14:36:39.000Z</time>
      </trkpt>
      <trkpt lat="45.21617" lon="5.73128">
        <ele>991.79998779297</ele>
        <time>2026-08-12T14:36:40.000Z</time>
      </trkpt>
      <trkpt lat="45.21618" lon="5.73128">
        <ele>991.79998779297</ele>
        <time>2026-08-12T14:36:41.000Z</time>
      </trkpt>
      <trkpt lat="45.21618" lon="5.73128">
        <ele>991.79998779297</ele>
        <time>2026-08-12T14:36:42.000Z</time>
      </trkpt>
      <trkpt lat="45.21619" lon="5.73129">
        <ele>991.59997558594</ele>
        <time>2026-08-12T14:36:43.000Z</time>
      </trkpt>
      <trkpt lat="45.2162" lon="5.73129">
        <ele>991.59997558594</ele>
        <time>2026-08-12T14:36:44.000Z</time>
      </trkpt>
      <trkpt lat="45.21621" lon="5.73129">
        <ele>991.79998779297</ele>
        <time>2026-08-12T14:36:45.000Z</time>
      </trkpt>
      <trkpt lat="45.21622" lon="5.7313">
        <ele>991.79998779297</ele>
        <time>2026-08-12T14:36:46.000Z</time>
      </trkpt>
      <trkpt lat="45.21622" lon="5.7313">
        <ele>991.79998779297</ele>
        <time>2026-08-12T14:36:47.000Z</time>
      </trkpt>
      <trkpt lat="45.21623" lon="5.7313">
        <ele>991.59997558594</ele>
        <time>2026-08-12T14:36:48.000Z</time>
      </trkpt>
      <trkpt lat="45.21624" lon="5.73131">
        <ele>990.79998779297</ele>
        <time>2026-08-12T14:36:49.000Z</time>
      </trkpt>
      <trkpt lat="45.21624" lon="5.73131">
        <ele>990.79998779297</ele>
        <time>2026-08-12T14:36:50.000Z</time>
      </trkpt>
      <trkpt lat="45.21625" lon="5.73132">
        <ele>990.79998779297</ele>
        <time>2026-08-12T14:36:51.000Z</time>
      </trkpt>
      <trkpt lat="45.21625" lon="5.73133">
        <ele>990.59997558594</ele>
        <time>2026-08-12T14:36:52.000Z</time>
      </trkpt>
      <trkpt lat="45.21626" lon="5.73133">
        <ele>990.59997558594</ele>
        <time>2026-08-12T14:36:53.000Z</time>
      </trkpt>
      <trkpt lat="45.21627" lon="5.73134">
        <ele>990.79998779297</ele>
        <time>2026-08-12T14:36:54.000Z</time>
      </trkpt>
      <trkpt lat="45.21628" lon="5.73135">
        <ele>991</ele>
        <time>2026-08-12T14:36:55.000Z</time>
      </trkpt>
      <trkpt lat="45.21629" lon="5.73135">
        <ele>991.20001220703</ele>
        <time>2026-08-12T14:36:56.000Z</time>
      </trkpt>
      <trkpt lat="45.21629" lon="5.73135">
        <ele>991.40002441406</ele>
        <time>2026-08-12T14:36:57.000Z</time>
      </trkpt>
      <trkpt lat="45.2163" lon="5.73135">
        <ele>991.59997558594</ele>
        <time>2026-08-12T14:36:58.000Z</time>
      </trkpt>
      <trkpt lat="45.2163" lon="5.73135">
        <ele>991.79998779297</ele>
        <time>2026-08-12T14:36:59.000Z</time>
      </trkpt>
      <trkpt lat="45.21631" lon="5.73135">
        <ele>991.79998779297</ele>
        <time>2026-08-12T14:37:00.000Z</time>
      </trkpt>
      <trkpt lat="45.21632" lon="5.73135">
        <ele>991.79998779297</ele>
        <time>2026-08-12T14:37:01.000Z</time>
      </trkpt>
      <trkpt lat="45.21632" lon="5.73136">
        <ele>991.79998779297</ele>
        <time>2026-08-12T14:37:02.000Z</time>
      </trkpt>
      <trkpt lat="45.21633" lon="5.73136">
        <ele>991.79998779297</ele>
        <time>2026-08-12T14:37:03.000Z</time>
      </trkpt>
      <trkpt lat="45.21634" lon="5.73136">
        <ele>991.79998779297</ele>
        <time>2026-08-12T14:37:04.000Z</time>
      </trkpt>
      <trkpt lat="45.21634" lon="5.73136">
        <ele>992</ele>
        <time>2026-08-12T14:37:05.000Z</time>
      </trkpt>
      <trkpt lat="45.21635" lon="5.73135">
        <ele>992.20001220703</ele>
        <time>2026-08-12T14:37:06.000Z</time>
      </trkpt>
      <trkpt lat="45.21635" lon="5.73134">
        <ele>992.40002441406</ele>
        <time>2026-08-12T14:37:07.000Z</time>
      </trkpt>
      <trkpt lat="45.21636" lon="5.73134">
        <ele>992.79998779297</ele>
        <time>2026-08-12T14:37:08.000Z</time>
      </trkpt>
      <trkpt lat="45.21637" lon="5.73133">
        <ele>992.79998779297</ele>
        <time>2026-08-12T14:37:09.000Z</time>
      </trkpt>
      <trkpt lat="45.21637" lon="5.73133">
        <ele>993.20001220703</ele>
        <time>2026-08-12T14:37:10.000Z</time>
      </trkpt>
      <trkpt lat="45.21638" lon="5.73133">
        <ele>993.40002441406</ele>
        <time>2026-08-12T14:37:11.000Z</time>
      </trkpt>
      <trkpt lat="45.21639" lon="5.73133">
        <ele>993.79998779297</ele>
        <time>2026-08-12T14:37:12.000Z</time>
      </trkpt>
      <trkpt lat="45.2164" lon="5.73132">
        <ele>994.20001220703</ele>
        <time>2026-08-12T14:37:13.000Z</time>
      </trkpt>
      <trkpt lat="45.2164" lon="5.73132">
        <ele>994.40002441406</ele>
        <time>2026-08-12T14:37:14.000Z</time>
      </trkpt>
      <trkpt lat="45.21641" lon="5.73131">
        <ele>994.79998779297</ele>
        <time>2026-08-12T14:37:15.000Z</time>
      </trkpt>
      <trkpt lat="45.21642" lon="5.73131">
        <ele>995</ele>
        <time>2026-08-12T14:37:16.000Z</time>
      </trkpt>
      <trkpt lat="45.21643" lon="5.73131">
        <ele>995.20001220703</ele>
        <time>2026-08-12T14:37:17.000Z</time>
      </trkpt>
      <trkpt lat="45.21644" lon="5.73132">
        <ele>995.40002441406</ele>
        <time>2026-08-12T14:37:18.000Z</time>
      </trkpt>
      <trkpt lat="45.21644" lon="5.73132">
        <ele>995.59997558594</ele>
        <time>2026-08-12T14:37:19.000Z</time>
      </trkpt>
      <trkpt lat="45.21645" lon="5.73132">
        <ele>995.79998779297</ele>
        <time>2026-08-12T14:37:20.000Z</time>
      </trkpt>
      <trkpt lat="45.21646" lon="5.73132">
        <ele>996</ele>
        <time>2026-08-12T14:37:21.000Z</time>
      </trkpt>
      <trkpt lat="45.21647" lon="5.73133">
        <ele>996.20001220703</ele>
        <time>2026-08-12T14:37:22.000Z</time>
      </trkpt>
      <trkpt lat="45.21648" lon="5.73133">
        <ele>996.40002441406</ele>
        <time>2026-08-12T14:37:23.000Z</time>
      </trkpt>
      <trkpt lat="45.21648" lon="5.73133">
        <ele>996.40002441406</ele>
        <time>2026-08-12T14:37:24.000Z</time>
      </trkpt>
      <trkpt lat="45.21649" lon="5.73132">
        <ele>996.59997558594</ele>
        <time>2026-08-12T14:37:25.000Z</time>
      </trkpt>
      <trkpt lat="45.2165" lon="5.73132">
        <ele>996.59997558594</ele>
        <time>2026-08-12T14:37:26.000Z</time>
      </trkpt>
      <trkpt lat="45.21651" lon="5.73132">
        <ele>996.79998779297</ele>
        <time>2026-08-12T14:37:27.000Z</time>
      </trkpt>
      <trkpt lat="45.21652" lon="5.73132">
        <ele>996.79998779297</ele>
        <time>2026-08-12T14:37:28.000Z</time>
      </trkpt>
      <trkpt lat="45.21653" lon="5.73133">
        <ele>996.59997558594</ele>
        <time>2026-08-12T14:37:29.000Z</time>
      </trkpt>
      <trkpt lat="45.21654" lon="5.73133">
        <ele>996.59997558594</ele>
        <time>2026-08-12T14:37:30.000Z</time>
      </trkpt>
      <trkpt lat="45.21654" lon="5.73133">
        <ele>996.59997558594</ele>
        <time>2026-08-12T14:37:31.000Z</time>
      </trkpt>
      <trkpt lat="45.21654" lon="5.73133">
        <ele>996.79998779297</ele>
        <time>2026-08-12T14:37:32.000Z</time>
      </trkpt>
      <trkpt lat="45.21655" lon="5.73133">
        <ele>997</ele>
        <time>2026-08-12T14:37:33.000Z</time>
      </trkpt>
      <trkpt lat="45.21656" lon="5.73133">
        <ele>997</ele>
        <time>2026-08-12T14:37:34.000Z</time>
      </trkpt>
      <trkpt lat="45.21657" lon="5.73133">
        <ele>997.40002441406</ele>
        <time>2026-08-12T14:37:35.000Z</time>
      </trkpt>
      <trkpt lat="45.21657" lon="5.73132">
        <ele>997.79998779297</ele>
        <time>2026-08-12T14:37:36.000Z</time>
      </trkpt>
      <trkpt lat="45.21658" lon="5.73132">
        <ele>998.20001220703</ele>
        <time>2026-08-12T14:37:37.000Z</time>
      </trkpt>
      <trkpt lat="45.21659" lon="5.73132">
        <ele>998</ele>
        <time>2026-08-12T14:37:38.000Z</time>
      </trkpt>
      <trkpt lat="45.21659" lon="5.73132">
        <ele>998</ele>
        <time>2026-08-12T14:37:39.000Z</time>
      </trkpt>
      <trkpt lat="45.21659" lon="5.73131">
        <ele>997.79998779297</ele>
        <time>2026-08-12T14:37:40.000Z</time>
      </trkpt>
      <trkpt lat="45.21659" lon="5.73131">
        <ele>997.59997558594</ele>
        <time>2026-08-12T14:37:41.000Z</time>
      </trkpt>
      <trkpt lat="45.2166" lon="5.73131">
        <ele>997.40002441406</ele>
        <time>2026-08-12T14:37:42.000Z</time>
      </trkpt>
      <trkpt lat="45.21661" lon="5.73132">
        <ele>997.20001220703</ele>
        <time>2026-08-12T14:37:43.000Z</time>
      </trkpt>
      <trkpt lat="45.21661" lon="5.73132">
        <ele>997.20001220703</ele>
        <time>2026-08-12T14:37:44.000Z</time>
      </trkpt>
      <trkpt lat="45.21662" lon="5.73133">
        <ele>997.40002441406</ele>
        <time>2026-08-12T14:37:45.000Z</time>
      </trkpt>
      <trkpt lat="45.21663" lon="5.73134">
        <ele>998</ele>
        <time>2026-08-12T14:37:46.000Z</time>
      </trkpt>
      <trkpt lat="45.21663" lon="5.73135">
        <ele>998.40002441406</ele>
        <time>2026-08-12T14:37:47.000Z</time>
      </trkpt>
      <trkpt lat="45.21664" lon="5.73136">
        <ele>999.20001220703</ele>
        <time>2026-08-12T14:37:48.000Z</time>
      </trkpt>
      <trkpt lat="45.21665" lon="5.73137">
        <ele>999.59997558594</ele>
        <time>2026-08-12T14:37:49.000Z</time>
      </trkpt>
      <trkpt lat="45.21666" lon="5.73137">
        <ele>1000</ele>
        <time>2026-08-12T14:37:50.000Z</time>
      </trkpt>
      <trkpt lat="45.21667" lon="5.73138">
        <ele>1000.5999755859</ele>
        <time>2026-08-12T14:37:51.000Z</time>
      </trkpt>
      <trkpt lat="45.21667" lon="5.73138">
        <ele>1001.200012207</ele>
        <time>2026-08-12T14:37:52.000Z</time>
      </trkpt>
      <trkpt lat="45.21668" lon="5.73138">
        <ele>1001.799987793</ele>
        <time>2026-08-12T14:37:53.000Z</time>
      </trkpt>
      <trkpt lat="45.21668" lon="5.73138">
        <ele>1002.200012207</ele>
        <time>2026-08-12T14:37:54.000Z</time>
      </trkpt>
      <trkpt lat="45.21669" lon="5.73138">
        <ele>1003</ele>
        <time>2026-08-12T14:37:55.000Z</time>
      </trkpt>
      <trkpt lat="45.21669" lon="5.73138">
        <ele>1003.799987793</ele>
        <time>2026-08-12T14:37:56.000Z</time>
      </trkpt>
      <trkpt lat="45.2167" lon="5.73138">
        <ele>1004.4000244141</ele>
        <time>2026-08-12T14:37:57.000Z</time>
      </trkpt>
      <trkpt lat="45.21671" lon="5.73138">
        <ele>1004.4000244141</ele>
        <time>2026-08-12T14:37:58.000Z</time>
      </trkpt>
      <trkpt lat="45.21672" lon="5.73138">
        <ele>1004.5999755859</ele>
        <time>2026-08-12T14:37:59.000Z</time>
      </trkpt>
      <trkpt lat="45.21672" lon="5.73138">
        <ele>1005.200012207</ele>
        <time>2026-08-12T14:38:00.000Z</time>
      </trkpt>
      <trkpt lat="45.21673" lon="5.73139">
        <ele>1005.5999755859</ele>
        <time>2026-08-12T14:38:01.000Z</time>
      </trkpt>
      <trkpt lat="45.21673" lon="5.7314">
        <ele>1005.799987793</ele>
        <time>2026-08-12T14:38:02.000Z</time>
      </trkpt>
      <trkpt lat="45.21674" lon="5.7314">
        <ele>1006</ele>
        <time>2026-08-12T14:38:03.000Z</time>
      </trkpt>
      <trkpt lat="45.21674" lon="5.73141">
        <ele>1006</ele>
        <time>2026-08-12T14:38:04.000Z</time>
      </trkpt>
      <trkpt lat="45.21675" lon="5.73143">
        <ele>1006</ele>
        <time>2026-08-12T14:38:05.000Z</time>
      </trkpt>
      <trkpt lat="45.21675" lon="5.73144">
        <ele>1006.200012207</ele>
        <time>2026-08-12T14:38:06.000Z</time>
      </trkpt>
      <trkpt lat="45.21676" lon="5.73146">
        <ele>1006.200012207</ele>
        <time>2026-08-12T14:38:07.000Z</time>
      </trkpt>
      <trkpt lat="45.21676" lon="5.73147">
        <ele>1006.4000244141</ele>
        <time>2026-08-12T14:38:08.000Z</time>
      </trkpt>
      <trkpt lat="45.21676" lon="5.73148">
        <ele>1006.5999755859</ele>
        <time>2026-08-12T14:38:09.000Z</time>
      </trkpt>
      <trkpt lat="45.21676" lon="5.73148">
        <ele>1006.5999755859</ele>
        <time>2026-08-12T14:38:10.000Z</time>
      </trkpt>
      <trkpt lat="45.21677" lon="5.7315">
        <ele>1006.4000244141</ele>
        <time>2026-08-12T14:38:11.000Z</time>
      </trkpt>
      <trkpt lat="45.21677" lon="5.7315">
        <ele>1006.4000244141</ele>
        <time>2026-08-12T14:38:12.000Z</time>
      </trkpt>
      <trkpt lat="45.21678" lon="5.73151">
        <ele>1006.200012207</ele>
        <time>2026-08-12T14:38:13.000Z</time>
      </trkpt>
      <trkpt lat="45.21678" lon="5.73152">
        <ele>1006.200012207</ele>
        <time>2026-08-12T14:38:14.000Z</time>
      </trkpt>
      <trkpt lat="45.21678" lon="5.73153">
        <ele>1006</ele>
        <time>2026-08-12T14:38:15.000Z</time>
      </trkpt>
      <trkpt lat="45.21679" lon="5.73153">
        <ele>1006</ele>
        <time>2026-08-12T14:38:16.000Z</time>
      </trkpt>
      <trkpt lat="45.21679" lon="5.73154">
        <ele>1005.799987793</ele>
        <time>2026-08-12T14:38:17.000Z</time>
      </trkpt>
      <trkpt lat="45.21679" lon="5.73156">
        <ele>1005.5999755859</ele>
        <time>2026-08-12T14:38:18.000Z</time>
      </trkpt>
      <trkpt lat="45.21679" lon="5.73157">
        <ele>1006.200012207</ele>
        <time>2026-08-12T14:38:19.000Z</time>
      </trkpt>
      <trkpt lat="45.2168" lon="5.73157">
        <ele>1006.4000244141</ele>
        <time>2026-08-12T14:38:20.000Z</time>
      </trkpt>
      <trkpt lat="45.2168" lon="5.73157">
        <ele>1006.5999755859</ele>
        <time>2026-08-12T14:38:21.000Z</time>
      </trkpt>
      <trkpt lat="45.2168" lon="5.73156">
        <ele>1007</ele>
        <time>2026-08-12T14:38:22.000Z</time>
      </trkpt>
      <trkpt lat="45.21681" lon="5.73157">
        <ele>1007.4000244141</ele>
        <time>2026-08-12T14:38:23.000Z</time>
      </trkpt>
      <trkpt lat="45.21681" lon="5.73157">
        <ele>1008.4000244141</ele>
        <time>2026-08-12T14:38:24.000Z</time>
      </trkpt>
      <trkpt lat="45.21682" lon="5.73159">
        <ele>1009</ele>
        <time>2026-08-12T14:38:25.000Z</time>
      </trkpt>
      <trkpt lat="45.21681" lon="5.73159">
        <ele>1009.5999755859</ele>
        <time>2026-08-12T14:38:26.000Z</time>
      </trkpt>
      <trkpt lat="45.21682" lon="5.7316">
        <ele>1010</ele>
        <time>2026-08-12T14:38:27.000Z</time>
      </trkpt>
      <trkpt lat="45.21682" lon="5.73162">
        <ele>1010</ele>
        <time>2026-08-12T14:38:28.000Z</time>
      </trkpt>
      <trkpt lat="45.21683" lon="5.73163">
        <ele>1010.200012207</ele>
        <time>2026-08-12T14:38:29.000Z</time>
      </trkpt>
      <trkpt lat="45.21683" lon="5.73163">
        <ele>1010.200012207</ele>
        <time>2026-08-12T14:38:30.000Z</time>
      </trkpt>
      <trkpt lat="45.21684" lon="5.73163">
        <ele>1010.200012207</ele>
        <time>2026-08-12T14:38:31.000Z</time>
      </trkpt>
      <trkpt lat="45.21684" lon="5.73164">
        <ele>1010.200012207</ele>
        <time>2026-08-12T14:38:32.000Z</time>
      </trkpt>
      <trkpt lat="45.21685" lon="5.73164">
        <ele>1010.200012207</ele>
        <time>2026-08-12T14:38:33.000Z</time>
      </trkpt>
      <trkpt lat="45.21685" lon="5.73165">
        <ele>1010.200012207</ele>
        <time>2026-08-12T14:38:34.000Z</time>
      </trkpt>
      <trkpt lat="45.21686" lon="5.73167">
        <ele>1010.200012207</ele>
        <time>2026-08-12T14:38:35.000Z</time>
      </trkpt>
      <trkpt lat="45.21686" lon="5.73168">
        <ele>1010</ele>
        <time>2026-08-12T14:38:36.000Z</time>
      </trkpt>
      <trkpt lat="45.21686" lon="5.73168">
        <ele>1010</ele>
        <time>2026-08-12T14:38:37.000Z</time>
      </trkpt>
      <trkpt lat="45.21686" lon="5.73169">
        <ele>1010</ele>
        <time>2026-08-12T14:38:38.000Z</time>
      </trkpt>
      <trkpt lat="45.21687" lon="5.73169">
        <ele>1010.200012207</ele>
        <time>2026-08-12T14:38:39.000Z</time>
      </trkpt>
      <trkpt lat="45.21687" lon="5.7317">
        <ele>1010.4000244141</ele>
        <time>2026-08-12T14:38:40.000Z</time>
      </trkpt>
      <trkpt lat="45.21688" lon="5.73171">
        <ele>1010.4000244141</ele>
        <time>2026-08-12T14:38:41.000Z</time>
      </trkpt>
      <trkpt lat="45.21689" lon="5.73172">
        <ele>1011</ele>
        <time>2026-08-12T14:38:42.000Z</time>
      </trkpt>
      <trkpt lat="45.21689" lon="5.73173">
        <ele>1011.4000244141</ele>
        <time>2026-08-12T14:38:43.000Z</time>
      </trkpt>
      <trkpt lat="45.2169" lon="5.73174">
        <ele>1011.799987793</ele>
        <time>2026-08-12T14:38:44.000Z</time>
      </trkpt>
      <trkpt lat="45.2169" lon="5.73174">
        <ele>1012</ele>
        <time>2026-08-12T14:38:45.000Z</time>
      </trkpt>
      <trkpt lat="45.21691" lon="5.73176">
        <ele>1012.4000244141</ele>
        <time>2026-08-12T14:38:46.000Z</time>
      </trkpt>
      <trkpt lat="45.21691" lon="5.73177">
        <ele>1012.5999755859</ele>
        <time>2026-08-12T14:38:47.000Z</time>
      </trkpt>
      <trkpt lat="45.21692" lon="5.73178">
        <ele>1012.799987793</ele>
        <time>2026-08-12T14:38:48.000Z</time>
      </trkpt>
      <trkpt lat="45.21692" lon="5.73179">
        <ele>1012.799987793</ele>
        <time>2026-08-12T14:38:49.000Z</time>
      </trkpt>
      <trkpt lat="45.21693" lon="5.73179">
        <ele>1013</ele>
        <time>2026-08-12T14:38:50.000Z</time>
      </trkpt>
      <trkpt lat="45.21693" lon="5.7318">
        <ele>1013.4000244141</ele>
        <time>2026-08-12T14:38:51.000Z</time>
      </trkpt>
      <trkpt lat="45.21694" lon="5.73182">
        <ele>1014</ele>
        <time>2026-08-12T14:38:52.000Z</time>
      </trkpt>
      <trkpt lat="45.21695" lon="5.73182">
        <ele>1014.4000244141</ele>
        <time>2026-08-12T14:38:53.000Z</time>
      </trkpt>
      <trkpt lat="45.21695" lon="5.73183">
        <ele>1014.799987793</ele>
        <time>2026-08-12T14:38:54.000Z</time>
      </trkpt>
      <trkpt lat="45.21696" lon="5.73184">
        <ele>1015</ele>
        <time>2026-08-12T14:38:55.000Z</time>
      </trkpt>
      <trkpt lat="45.21696" lon="5.73185">
        <ele>1015</ele>
        <time>2026-08-12T14:38:56.000Z</time>
      </trkpt>
      <trkpt lat="45.21697" lon="5.73186">
        <ele>1014.799987793</ele>
        <time>2026-08-12T14:38:57.000Z</time>
      </trkpt>
      <trkpt lat="45.21697" lon="5.73188">
        <ele>1014.5999755859</ele>
        <time>2026-08-12T14:38:58.000Z</time>
      </trkpt>
      <trkpt lat="45.21698" lon="5.73189">
        <ele>1013.5999755859</ele>
        <time>2026-08-12T14:38:59.000Z</time>
      </trkpt>
      <trkpt lat="45.21699" lon="5.7319">
        <ele>1012.799987793</ele>
        <time>2026-08-12T14:39:00.000Z</time>
      </trkpt>
      <trkpt lat="45.217" lon="5.73191">
        <ele>1012.5999755859</ele>
        <time>2026-08-12T14:39:01.000Z</time>
      </trkpt>
      <trkpt lat="45.21701" lon="5.73191">
        <ele>1012.4000244141</ele>
        <time>2026-08-12T14:39:02.000Z</time>
      </trkpt>
      <trkpt lat="45.21702" lon="5.73192">
        <ele>1012</ele>
        <time>2026-08-12T14:39:03.000Z</time>
      </trkpt>
      <trkpt lat="45.21703" lon="5.73193">
        <ele>1011.799987793</ele>
        <time>2026-08-12T14:39:04.000Z</time>
      </trkpt>
      <trkpt lat="45.21703" lon="5.73195">
        <ele>1012</ele>
        <time>2026-08-12T14:39:05.000Z</time>
      </trkpt>
      <trkpt lat="45.21704" lon="5.73196">
        <ele>1012.200012207</ele>
        <time>2026-08-12T14:39:06.000Z</time>
      </trkpt>
      <trkpt lat="45.21705" lon="5.73198">
        <ele>1012.4000244141</ele>
        <time>2026-08-12T14:39:07.000Z</time>
      </trkpt>
      <trkpt lat="45.21705" lon="5.73199">
        <ele>1012.5999755859</ele>
        <time>2026-08-12T14:39:08.000Z</time>
      </trkpt>
      <trkpt lat="45.21706" lon="5.732">
        <ele>1012.5999755859</ele>
        <time>2026-08-12T14:39:09.000Z</time>
      </trkpt>
      <trkpt lat="45.21707" lon="5.73201">
        <ele>1012.799987793</ele>
        <time>2026-08-12T14:39:10.000Z</time>
      </trkpt>
      <trkpt lat="45.21708" lon="5.73202">
        <ele>1012.799987793</ele>
        <time>2026-08-12T14:39:11.000Z</time>
      </trkpt>
      <trkpt lat="45.21708" lon="5.73203">
        <ele>1012.799987793</ele>
        <time>2026-08-12T14:39:12.000Z</time>
      </trkpt>
      <trkpt lat="45.21708" lon="5.73204">
        <ele>1012.5999755859</ele>
        <time>2026-08-12T14:39:13.000Z</time>
      </trkpt>
      <trkpt lat="45.21709" lon="5.73206">
        <ele>1012.4000244141</ele>
        <time>2026-08-12T14:39:14.000Z</time>
      </trkpt>
      <trkpt lat="45.21709" lon="5.73207">
        <ele>1012</ele>
        <time>2026-08-12T14:39:15.000Z</time>
      </trkpt>
      <trkpt lat="45.2171" lon="5.73208">
        <ele>1012</ele>
        <time>2026-08-12T14:39:16.000Z</time>
      </trkpt>
      <trkpt lat="45.21711" lon="5.73209">
        <ele>1011.799987793</ele>
        <time>2026-08-12T14:39:17.000Z</time>
      </trkpt>
      <trkpt lat="45.21712" lon="5.7321">
        <ele>1011.799987793</ele>
        <time>2026-08-12T14:39:18.000Z</time>
      </trkpt>
      <trkpt lat="45.21713" lon="5.73211">
        <ele>1011.799987793</ele>
        <time>2026-08-12T14:39:19.000Z</time>
      </trkpt>
      <trkpt lat="45.21714" lon="5.73212">
        <ele>1013</ele>
        <time>2026-08-12T14:39:20.000Z</time>
      </trkpt>
      <trkpt lat="45.21715" lon="5.73213">
        <ele>1014</ele>
        <time>2026-08-12T14:39:21.000Z</time>
      </trkpt>
      <trkpt lat="45.21716" lon="5.73213">
        <ele>1015.200012207</ele>
        <time>2026-08-12T14:39:22.000Z</time>
      </trkpt>
      <trkpt lat="45.21717" lon="5.73215">
        <ele>1015.5999755859</ele>
        <time>2026-08-12T14:39:23.000Z</time>
      </trkpt>
      <trkpt lat="45.21717" lon="5.73216">
        <ele>1016.5999755859</ele>
        <time>2026-08-12T14:39:24.000Z</time>
      </trkpt>
      <trkpt lat="45.21716" lon="5.73217">
        <ele>1017</ele>
        <time>2026-08-12T14:39:25.000Z</time>
      </trkpt>
      <trkpt lat="45.21717" lon="5.73219">
        <ele>1017.4000244141</ele>
        <time>2026-08-12T14:39:26.000Z</time>
      </trkpt>
      <trkpt lat="45.21717" lon="5.73221">
        <ele>1017.5999755859</ele>
        <time>2026-08-12T14:39:27.000Z</time>
      </trkpt>
      <trkpt lat="45.21717" lon="5.73223">
        <ele>1018</ele>
        <time>2026-08-12T14:39:28.000Z</time>
      </trkpt>
      <trkpt lat="45.21717" lon="5.73223">
        <ele>1018.200012207</ele>
        <time>2026-08-12T14:39:29.000Z</time>
      </trkpt>
      <trkpt lat="45.21717" lon="5.73223">
        <ele>1018.4000244141</ele>
        <time>2026-08-12T14:39:30.000Z</time>
      </trkpt>
      <trkpt lat="45.21717" lon="5.73223">
        <ele>1018.5999755859</ele>
        <time>2026-08-12T14:39:31.000Z</time>
      </trkpt>
      <trkpt lat="45.21716" lon="5.73222">
        <ele>1018.5999755859</ele>
        <time>2026-08-12T14:39:32.000Z</time>
      </trkpt>
      <trkpt lat="45.21716" lon="5.73223">
        <ele>1018.5999755859</ele>
        <time>2026-08-12T14:39:33.000Z</time>
      </trkpt>
      <trkpt lat="45.21716" lon="5.73223">
        <ele>1018.799987793</ele>
        <time>2026-08-12T14:39:34.000Z</time>
      </trkpt>
      <trkpt lat="45.21716" lon="5.73223">
        <ele>1018.799987793</ele>
        <time>2026-08-12T14:39:35.000Z</time>
      </trkpt>
      <trkpt lat="45.21716" lon="5.73223">
        <ele>1019</ele>
        <time>2026-08-12T14:39:36.000Z</time>
      </trkpt>
      <trkpt lat="45.21716" lon="5.73223">
        <ele>1019.200012207</ele>
        <time>2026-08-12T14:39:37.000Z</time>
      </trkpt>
      <trkpt lat="45.21716" lon="5.73223">
        <ele>1019.5999755859</ele>
        <time>2026-08-12T14:39:38.000Z</time>
      </trkpt>
      <trkpt lat="45.21716" lon="5.73223">
        <ele>1019.5999755859</ele>
        <time>2026-08-12T14:39:39.000Z</time>
      </trkpt>
      <trkpt lat="45.21716" lon="5.73223">
        <ele>1019.4000244141</ele>
        <time>2026-08-12T14:39:40.000Z</time>
      </trkpt>
      <trkpt lat="45.21716" lon="5.73223">
        <ele>1019.4000244141</ele>
        <time>2026-08-12T14:39:41.000Z</time>
      </trkpt>
      <trkpt lat="45.21716" lon="5.73223">
        <ele>1019</ele>
        <time>2026-08-12T14:39:42.000Z</time>
      </trkpt>
      <trkpt lat="45.21716" lon="5.73223">
        <ele>1018.200012207</ele>
        <time>2026-08-12T14:39:43.000Z</time>
      </trkpt>
      <trkpt lat="45.21716" lon="5.73223">
        <ele>1017.5999755859</ele>
        <time>2026-08-12T14:39:44.000Z</time>
      </trkpt>
      <trkpt lat="45.21716" lon="5.73223">
        <ele>1016.799987793</ele>
        <time>2026-08-12T14:39:45.000Z</time>
      </trkpt>
      <trkpt lat="45.21716" lon="5.73223">
        <ele>1016.200012207</ele>
        <time>2026-08-12T14:39:46.000Z</time>
      </trkpt>
      <trkpt lat="45.21716" lon="5.73223">
        <ele>1015.799987793</ele>
        <time>2026-08-12T14:39:47.000Z</time>
      </trkpt>
      <trkpt lat="45.21716" lon="5.73223">
        <ele>1015.200012207</ele>
        <time>2026-08-12T14:39:48.000Z</time>
      </trkpt>
      <trkpt lat="45.21716" lon="5.73223">
        <ele>1014.799987793</ele>
        <time>2026-08-12T14:39:49.000Z</time>
      </trkpt>
      <trkpt lat="45.21716" lon="5.73223">
        <ele>1014.5999755859</ele>
        <time>2026-08-12T14:39:50.000Z</time>
      </trkpt>
      <trkpt lat="45.21716" lon="5.73223">
        <ele>1014.4000244141</ele>
        <time>2026-08-12T14:39:51.000Z</time>
      </trkpt>
      <trkpt lat="45.21716" lon="5.73223">
        <ele>1014.4000244141</ele>
        <time>2026-08-12T14:39:52.000Z</time>
      </trkpt>
      <trkpt lat="45.21716" lon="5.73223">
        <ele>1014.4000244141</ele>
        <time>2026-08-12T14:39:53.000Z</time>
      </trkpt>
      <trkpt lat="45.21716" lon="5.73223">
        <ele>1014.5999755859</ele>
        <time>2026-08-12T14:39:54.000Z</time>
      </trkpt>
      <trkpt lat="45.21716" lon="5.73223">
        <ele>1014.5999755859</ele>
        <time>2026-08-12T14:39:55.000Z</time>
      </trkpt>
      <trkpt lat="45.21716" lon="5.73223">
        <ele>1014.5999755859</ele>
        <time>2026-08-12T14:39:56.000Z</time>
      </trkpt>
      <trkpt lat="45.21716" lon="5.73223">
        <ele>1014.799987793</ele>
        <time>2026-08-12T14:39:57.000Z</time>
      </trkpt>
      <trkpt lat="45.21716" lon="5.73223">
        <ele>1014.799987793</ele>
        <time>2026-08-12T14:39:58.000Z</time>
      </trkpt>
      <trkpt lat="45.21716" lon="5.73223">
        <ele>1014.799987793</ele>
        <time>2026-08-12T14:39:59.000Z</time>
      </trkpt>
      <trkpt lat="45.21716" lon="5.73223">
        <ele>1014.799987793</ele>
        <time>2026-08-12T14:40:00.000Z</time>
      </trkpt>
      <trkpt lat="45.21716" lon="5.73223">
        <ele>1014.5999755859</ele>
        <time>2026-08-12T14:40:01.000Z</time>
      </trkpt>
      <trkpt lat="45.21716" lon="5.73222">
        <ele>1014.200012207</ele>
        <time>2026-08-12T14:40:02.000Z</time>
      </trkpt>
      <trkpt lat="45.21716" lon="5.73221">
        <ele>1013.799987793</ele>
        <time>2026-08-12T14:40:03.000Z</time>
      </trkpt>
      <trkpt lat="45.21716" lon="5.73219">
        <ele>1013.5999755859</ele>
        <time>2026-08-12T14:40:04.000Z</time>
      </trkpt>
      <trkpt lat="45.21716" lon="5.73218">
        <ele>1013.200012207</ele>
        <time>2026-08-12T14:40:05.000Z</time>
      </trkpt>
      <trkpt lat="45.21717" lon="5.73217">
        <ele>1013.200012207</ele>
        <time>2026-08-12T14:40:06.000Z</time>
      </trkpt>
      <trkpt lat="45.21717" lon="5.73216">
        <ele>1013.200012207</ele>
        <time>2026-08-12T14:40:07.000Z</time>
      </trkpt>
      <trkpt lat="45.21718" lon="5.73217">
        <ele>1013.200012207</ele>
        <time>2026-08-12T14:40:08.000Z</time>
      </trkpt>
      <trkpt lat="45.21718" lon="5.73218">
        <ele>1013.4000244141</ele>
        <time>2026-08-12T14:40:09.000Z</time>
      </trkpt>
      <trkpt lat="45.21719" lon="5.73218">
        <ele>1013.5999755859</ele>
        <time>2026-08-12T14:40:10.000Z</time>
      </trkpt>
      <trkpt lat="45.2172" lon="5.73218">
        <ele>1013.799987793</ele>
        <time>2026-08-12T14:40:11.000Z</time>
      </trkpt>
      <trkpt lat="45.21721" lon="5.73219">
        <ele>1014.4000244141</ele>
        <time>2026-08-12T14:40:12.000Z</time>
      </trkpt>
      <trkpt lat="45.21722" lon="5.7322">
        <ele>1015.200012207</ele>
        <time>2026-08-12T14:40:13.000Z</time>
      </trkpt>
      <trkpt lat="45.21723" lon="5.73221">
        <ele>1015.799987793</ele>
        <time>2026-08-12T14:40:14.000Z</time>
      </trkpt>
      <trkpt lat="45.21723" lon="5.73221">
        <ele>1015.799987793</ele>
        <time>2026-08-12T14:40:15.000Z</time>
      </trkpt>
      <trkpt lat="45.21724" lon="5.73221">
        <ele>1016</ele>
        <time>2026-08-12T14:40:16.000Z</time>
      </trkpt>
      <trkpt lat="45.21724" lon="5.73221">
        <ele>1016</ele>
        <time>2026-08-12T14:40:17.000Z</time>
      </trkpt>
      <trkpt lat="45.21725" lon="5.7322">
        <ele>1016.4000244141</ele>
        <time>2026-08-12T14:40:18.000Z</time>
      </trkpt>
      <trkpt lat="45.21725" lon="5.73221">
        <ele>1016.5999755859</ele>
        <time>2026-08-12T14:40:19.000Z</time>
      </trkpt>
      <trkpt lat="45.21726" lon="5.73221">
        <ele>1018.4000244141</ele>
        <time>2026-08-12T14:40:20.000Z</time>
      </trkpt>
      <trkpt lat="45.21726" lon="5.73221">
        <ele>1019.799987793</ele>
        <time>2026-08-12T14:40:21.000Z</time>
      </trkpt>
      <trkpt lat="45.21726" lon="5.73221">
        <ele>1020.4000244141</ele>
        <time>2026-08-12T14:40:22.000Z</time>
      </trkpt>
      <trkpt lat="45.21727" lon="5.7322">
        <ele>1020.5999755859</ele>
        <time>2026-08-12T14:40:23.000Z</time>
      </trkpt>
      <trkpt lat="45.21727" lon="5.73219">
        <ele>1021</ele>
        <time>2026-08-12T14:40:24.000Z</time>
      </trkpt>
      <trkpt lat="45.21728" lon="5.73218">
        <ele>1021.4000244141</ele>
        <time>2026-08-12T14:40:25.000Z</time>
      </trkpt>
      <trkpt lat="45.21729" lon="5.73217">
        <ele>1021.799987793</ele>
        <time>2026-08-12T14:40:26.000Z</time>
      </trkpt>
      <trkpt lat="45.21729" lon="5.73217">
        <ele>1022.200012207</ele>
        <time>2026-08-12T14:40:27.000Z</time>
      </trkpt>
      <trkpt lat="45.21728" lon="5.73216">
        <ele>1022.200012207</ele>
        <time>2026-08-12T14:40:28.000Z</time>
      </trkpt>
      <trkpt lat="45.21729" lon="5.73215">
        <ele>1022.4000244141</ele>
        <time>2026-08-12T14:40:29.000Z</time>
      </trkpt>
      <trkpt lat="45.21729" lon="5.73214">
        <ele>1022.5999755859</ele>
        <time>2026-08-12T14:40:30.000Z</time>
      </trkpt>
      <trkpt lat="45.2173" lon="5.73213">
        <ele>1022.799987793</ele>
        <time>2026-08-12T14:40:31.000Z</time>
      </trkpt>
      <trkpt lat="45.21731" lon="5.73212">
        <ele>1023</ele>
        <time>2026-08-12T14:40:32.000Z</time>
      </trkpt>
      <trkpt lat="45.21731" lon="5.73212">
        <ele>1023.4000244141</ele>
        <time>2026-08-12T14:40:33.000Z</time>
      </trkpt>
      <trkpt lat="45.21732" lon="5.73211">
        <ele>1023.5999755859</ele>
        <time>2026-08-12T14:40:34.000Z</time>
      </trkpt>
      <trkpt lat="45.21732" lon="5.7321">
        <ele>1024</ele>
        <time>2026-08-12T14:40:35.000Z</time>
      </trkpt>
      <trkpt lat="45.21733" lon="5.7321">
        <ele>1024.4000244141</ele>
        <time>2026-08-12T14:40:36.000Z</time>
      </trkpt>
      <trkpt lat="45.21733" lon="5.73208">
        <ele>1024.5999755859</ele>
        <time>2026-08-12T14:40:37.000Z</time>
      </trkpt>
      <trkpt lat="45.21734" lon="5.73206">
        <ele>1024.5999755859</ele>
        <time>2026-08-12T14:40:38.000Z</time>
      </trkpt>
      <trkpt lat="45.21735" lon="5.73205">
        <ele>1024.5999755859</ele>
        <time>2026-08-12T14:40:39.000Z</time>
      </trkpt>
      <trkpt lat="45.21736" lon="5.73205">
        <ele>1024.8000488281</ele>
        <time>2026-08-12T14:40:40.000Z</time>
      </trkpt>
      <trkpt lat="45.21736" lon="5.73204">
        <ele>1024.8000488281</ele>
        <time>2026-08-12T14:40:41.000Z</time>
      </trkpt>
      <trkpt lat="45.21738" lon="5.73203">
        <ele>1025</ele>
        <time>2026-08-12T14:40:42.000Z</time>
      </trkpt>
      <trkpt lat="45.21739" lon="5.73203">
        <ele>1025.1999511719</ele>
        <time>2026-08-12T14:40:43.000Z</time>
      </trkpt>
      <trkpt lat="45.2174" lon="5.73203">
        <ele>1025.1999511719</ele>
        <time>2026-08-12T14:40:44.000Z</time>
      </trkpt>
      <trkpt lat="45.2174" lon="5.73204">
        <ele>1025</ele>
        <time>2026-08-12T14:40:45.000Z</time>
      </trkpt>
      <trkpt lat="45.21741" lon="5.73203">
        <ele>1024.8000488281</ele>
        <time>2026-08-12T14:40:46.000Z</time>
      </trkpt>
      <trkpt lat="45.21742" lon="5.73201">
        <ele>1024.5999755859</ele>
        <time>2026-08-12T14:40:47.000Z</time>
      </trkpt>
      <trkpt lat="45.21743" lon="5.73201">
        <ele>1024.4000244141</ele>
        <time>2026-08-12T14:40:48.000Z</time>
      </trkpt>
      <trkpt lat="45.21743" lon="5.73201">
        <ele>1024.1999511719</ele>
        <time>2026-08-12T14:40:49.000Z</time>
      </trkpt>
      <trkpt lat="45.21744" lon="5.732">
        <ele>1024</ele>
        <time>2026-08-12T14:40:50.000Z</time>
      </trkpt>
      <trkpt lat="45.21745" lon="5.732">
        <ele>1023.5999755859</ele>
        <time>2026-08-12T14:40:51.000Z</time>
      </trkpt>
      <trkpt lat="45.21746" lon="5.732">
        <ele>1023.4000244141</ele>
        <time>2026-08-12T14:40:52.000Z</time>
      </trkpt>
      <trkpt lat="45.21747" lon="5.732">
        <ele>1023.200012207</ele>
        <time>2026-08-12T14:40:53.000Z</time>
      </trkpt>
      <trkpt lat="45.21748" lon="5.73201">
        <ele>1023</ele>
        <time>2026-08-12T14:40:54.000Z</time>
      </trkpt>
      <trkpt lat="45.21749" lon="5.73201">
        <ele>1022.4000244141</ele>
        <time>2026-08-12T14:40:55.000Z</time>
      </trkpt>
      <trkpt lat="45.21749" lon="5.73202">
        <ele>1021.4000244141</ele>
        <time>2026-08-12T14:40:56.000Z</time>
      </trkpt>
      <trkpt lat="45.2175" lon="5.73202">
        <ele>1020.200012207</ele>
        <time>2026-08-12T14:40:57.000Z</time>
      </trkpt>
      <trkpt lat="45.21752" lon="5.73203">
        <ele>1019.200012207</ele>
        <time>2026-08-12T14:40:58.000Z</time>
      </trkpt>
      <trkpt lat="45.21754" lon="5.73204">
        <ele>1018</ele>
        <time>2026-08-12T14:40:59.000Z</time>
      </trkpt>
      <trkpt lat="45.21755" lon="5.73205">
        <ele>1017</ele>
        <time>2026-08-12T14:41:00.000Z</time>
      </trkpt>
      <trkpt lat="45.21756" lon="5.73206">
        <ele>1016.200012207</ele>
        <time>2026-08-12T14:41:01.000Z</time>
      </trkpt>
      <trkpt lat="45.21757" lon="5.73207">
        <ele>1015.5999755859</ele>
        <time>2026-08-12T14:41:02.000Z</time>
      </trkpt>
      <trkpt lat="45.21757" lon="5.73208">
        <ele>1014</ele>
        <time>2026-08-12T14:41:03.000Z</time>
      </trkpt>
      <trkpt lat="45.21758" lon="5.7321">
        <ele>1013.799987793</ele>
        <time>2026-08-12T14:41:04.000Z</time>
      </trkpt>
      <trkpt lat="45.21757" lon="5.73212">
        <ele>1013</ele>
        <time>2026-08-12T14:41:05.000Z</time>
      </trkpt>
      <trkpt lat="45.21757" lon="5.73213">
        <ele>1013</ele>
        <time>2026-08-12T14:41:06.000Z</time>
      </trkpt>
      <trkpt lat="45.21758" lon="5.73214">
        <ele>1013.200012207</ele>
        <time>2026-08-12T14:41:07.000Z</time>
      </trkpt>
      <trkpt lat="45.21758" lon="5.73215">
        <ele>1013.200012207</ele>
        <time>2026-08-12T14:41:08.000Z</time>
      </trkpt>
      <trkpt lat="45.21758" lon="5.73217">
        <ele>1013.4000244141</ele>
        <time>2026-08-12T14:41:09.000Z</time>
      </trkpt>
      <trkpt lat="45.21759" lon="5.73217">
        <ele>1013.4000244141</ele>
        <time>2026-08-12T14:41:10.000Z</time>
      </trkpt>
      <trkpt lat="45.21759" lon="5.73218">
        <ele>1013.5999755859</ele>
        <time>2026-08-12T14:41:11.000Z</time>
      </trkpt>
      <trkpt lat="45.21759" lon="5.73219">
        <ele>1013.5999755859</ele>
        <time>2026-08-12T14:41:12.000Z</time>
      </trkpt>
      <trkpt lat="45.21759" lon="5.73221">
        <ele>1013.799987793</ele>
        <time>2026-08-12T14:41:13.000Z</time>
      </trkpt>
      <trkpt lat="45.2176" lon="5.73221">
        <ele>1013.799987793</ele>
        <time>2026-08-12T14:41:14.000Z</time>
      </trkpt>
      <trkpt lat="45.21761" lon="5.73222">
        <ele>1014</ele>
        <time>2026-08-12T14:41:15.000Z</time>
      </trkpt>
      <trkpt lat="45.21761" lon="5.73222">
        <ele>1014</ele>
        <time>2026-08-12T14:41:16.000Z</time>
      </trkpt>
      <trkpt lat="45.21761" lon="5.73222">
        <ele>1014</ele>
        <time>2026-08-12T14:41:17.000Z</time>
      </trkpt>
      <trkpt lat="45.21762" lon="5.73222">
        <ele>1014.200012207</ele>
        <time>2026-08-12T14:41:18.000Z</time>
      </trkpt>
      <trkpt lat="45.21763" lon="5.73222">
        <ele>1014.200012207</ele>
        <time>2026-08-12T14:41:19.000Z</time>
      </trkpt>
      <trkpt lat="45.21764" lon="5.73222">
        <ele>1014.4000244141</ele>
        <time>2026-08-12T14:41:20.000Z</time>
      </trkpt>
      <trkpt lat="45.21765" lon="5.73223">
        <ele>1014.4000244141</ele>
        <time>2026-08-12T14:41:21.000Z</time>
      </trkpt>
      <trkpt lat="45.21766" lon="5.73224">
        <ele>1014.5999755859</ele>
        <time>2026-08-12T14:41:22.000Z</time>
      </trkpt>
      <trkpt lat="45.21766" lon="5.73226">
        <ele>1014.5999755859</ele>
        <time>2026-08-12T14:41:23.000Z</time>
      </trkpt>
      <trkpt lat="45.21767" lon="5.73227">
        <ele>1014.799987793</ele>
        <time>2026-08-12T14:41:24.000Z</time>
      </trkpt>
      <trkpt lat="45.21766" lon="5.73229">
        <ele>1014.799987793</ele>
        <time>2026-08-12T14:41:25.000Z</time>
      </trkpt>
      <trkpt lat="45.21766" lon="5.7323">
        <ele>1016.200012207</ele>
        <time>2026-08-12T14:41:26.000Z</time>
      </trkpt>
      <trkpt lat="45.21767" lon="5.73231">
        <ele>1016.799987793</ele>
        <time>2026-08-12T14:41:27.000Z</time>
      </trkpt>
      <trkpt lat="45.21768" lon="5.73232">
        <ele>1017.200012207</ele>
        <time>2026-08-12T14:41:28.000Z</time>
      </trkpt>
      <trkpt lat="45.21769" lon="5.73232">
        <ele>1017.5999755859</ele>
        <time>2026-08-12T14:41:29.000Z</time>
      </trkpt>
      <trkpt lat="45.2177" lon="5.73232">
        <ele>1021</ele>
        <time>2026-08-12T14:41:30.000Z</time>
      </trkpt>
      <trkpt lat="45.2177" lon="5.73232">
        <ele>1021.799987793</ele>
        <time>2026-08-12T14:41:31.000Z</time>
      </trkpt>
      <trkpt lat="45.21771" lon="5.73232">
        <ele>1022.5999755859</ele>
        <time>2026-08-12T14:41:32.000Z</time>
      </trkpt>
      <trkpt lat="45.21772" lon="5.73232">
        <ele>1023.200012207</ele>
        <time>2026-08-12T14:41:33.000Z</time>
      </trkpt>
      <trkpt lat="45.21773" lon="5.73233">
        <ele>1024.1999511719</ele>
        <time>2026-08-12T14:41:34.000Z</time>
      </trkpt>
      <trkpt lat="45.21774" lon="5.73234">
        <ele>1024.8000488281</ele>
        <time>2026-08-12T14:41:35.000Z</time>
      </trkpt>
      <trkpt lat="45.21776" lon="5.73235">
        <ele>1025.5999755859</ele>
        <time>2026-08-12T14:41:36.000Z</time>
      </trkpt>
      <trkpt lat="45.21777" lon="5.73237">
        <ele>1026.1999511719</ele>
        <time>2026-08-12T14:41:37.000Z</time>
      </trkpt>
      <trkpt lat="45.21778" lon="5.73238">
        <ele>1026.5999755859</ele>
        <time>2026-08-12T14:41:38.000Z</time>
      </trkpt>
      <trkpt lat="45.21778" lon="5.73239">
        <ele>1026.8000488281</ele>
        <time>2026-08-12T14:41:39.000Z</time>
      </trkpt>
      <trkpt lat="45.21779" lon="5.7324">
        <ele>1027</ele>
        <time>2026-08-12T14:41:40.000Z</time>
      </trkpt>
      <trkpt lat="45.21779" lon="5.73241">
        <ele>1027</ele>
        <time>2026-08-12T14:41:41.000Z</time>
      </trkpt>
      <trkpt lat="45.21779" lon="5.73242">
        <ele>1027</ele>
        <time>2026-08-12T14:41:42.000Z</time>
      </trkpt>
      <trkpt lat="45.2178" lon="5.73244">
        <ele>1027.1999511719</ele>
        <time>2026-08-12T14:41:43.000Z</time>
      </trkpt>
      <trkpt lat="45.2178" lon="5.73245">
        <ele>1027.1999511719</ele>
        <time>2026-08-12T14:41:44.000Z</time>
      </trkpt>
      <trkpt lat="45.21781" lon="5.73246">
        <ele>1027.4000244141</ele>
        <time>2026-08-12T14:41:45.000Z</time>
      </trkpt>
      <trkpt lat="45.21781" lon="5.73247">
        <ele>1027.4000244141</ele>
        <time>2026-08-12T14:41:46.000Z</time>
      </trkpt>
      <trkpt lat="45.21781" lon="5.73249">
        <ele>1026.5999755859</ele>
        <time>2026-08-12T14:41:47.000Z</time>
      </trkpt>
      <trkpt lat="45.21781" lon="5.7325">
        <ele>1025.5999755859</ele>
        <time>2026-08-12T14:41:48.000Z</time>
      </trkpt>
      <trkpt lat="45.21781" lon="5.73251">
        <ele>1024.4000244141</ele>
        <time>2026-08-12T14:41:49.000Z</time>
      </trkpt>
      <trkpt lat="45.21781" lon="5.73252">
        <ele>1023.200012207</ele>
        <time>2026-08-12T14:41:50.000Z</time>
      </trkpt>
      <trkpt lat="45.21782" lon="5.73254">
        <ele>1022</ele>
        <time>2026-08-12T14:41:51.000Z</time>
      </trkpt>
      <trkpt lat="45.21782" lon="5.73254">
        <ele>1021.5999755859</ele>
        <time>2026-08-12T14:41:52.000Z</time>
      </trkpt>
      <trkpt lat="45.21783" lon="5.73255">
        <ele>1021.4000244141</ele>
        <time>2026-08-12T14:41:53.000Z</time>
      </trkpt>
      <trkpt lat="45.21784" lon="5.73256">
        <ele>1021.200012207</ele>
        <time>2026-08-12T14:41:54.000Z</time>
      </trkpt>
      <trkpt lat="45.21784" lon="5.73257">
        <ele>1021</ele>
        <time>2026-08-12T14:41:55.000Z</time>
      </trkpt>
      <trkpt lat="45.21784" lon="5.73259">
        <ele>1020.5999755859</ele>
        <time>2026-08-12T14:41:56.000Z</time>
      </trkpt>
      <trkpt lat="45.21784" lon="5.7326">
        <ele>1020.4000244141</ele>
        <time>2026-08-12T14:41:57.000Z</time>
      </trkpt>
      <trkpt lat="45.21784" lon="5.73262">
        <ele>1020.5999755859</ele>
        <time>2026-08-12T14:41:58.000Z</time>
      </trkpt>
      <trkpt lat="45.21783" lon="5.73263">
        <ele>1020.799987793</ele>
        <time>2026-08-12T14:41:59.000Z</time>
      </trkpt>
      <trkpt lat="45.21783" lon="5.73264">
        <ele>1021</ele>
        <time>2026-08-12T14:42:00.000Z</time>
      </trkpt>
      <trkpt lat="45.21782" lon="5.73265">
        <ele>1021</ele>
        <time>2026-08-12T14:42:01.000Z</time>
      </trkpt>
      <trkpt lat="45.21781" lon="5.73266">
        <ele>1021.5999755859</ele>
        <time>2026-08-12T14:42:02.000Z</time>
      </trkpt>
      <trkpt lat="45.2178" lon="5.73267">
        <ele>1021.799987793</ele>
        <time>2026-08-12T14:42:03.000Z</time>
      </trkpt>
      <trkpt lat="45.2178" lon="5.73267">
        <ele>1022</ele>
        <time>2026-08-12T14:42:04.000Z</time>
      </trkpt>
      <trkpt lat="45.21779" lon="5.73268">
        <ele>1022.4000244141</ele>
        <time>2026-08-12T14:42:05.000Z</time>
      </trkpt>
      <trkpt lat="45.21779" lon="5.7327">
        <ele>1023</ele>
        <time>2026-08-12T14:42:06.000Z</time>
      </trkpt>
      <trkpt lat="45.2178" lon="5.73271">
        <ele>1023.799987793</ele>
        <time>2026-08-12T14:42:07.000Z</time>
      </trkpt>
      <trkpt lat="45.21781" lon="5.73272">
        <ele>1024.5999755859</ele>
        <time>2026-08-12T14:42:08.000Z</time>
      </trkpt>
      <trkpt lat="45.21782" lon="5.73274">
        <ele>1025.1999511719</ele>
        <time>2026-08-12T14:42:09.000Z</time>
      </trkpt>
      <trkpt lat="45.21782" lon="5.73275">
        <ele>1025.5999755859</ele>
        <time>2026-08-12T14:42:10.000Z</time>
      </trkpt>
      <trkpt lat="45.21782" lon="5.73277">
        <ele>1026.4000244141</ele>
        <time>2026-08-12T14:42:11.000Z</time>
      </trkpt>
      <trkpt lat="45.21783" lon="5.73277">
        <ele>1026.5999755859</ele>
        <time>2026-08-12T14:42:12.000Z</time>
      </trkpt>
      <trkpt lat="45.21784" lon="5.73277">
        <ele>1027.1999511719</ele>
        <time>2026-08-12T14:42:13.000Z</time>
      </trkpt>
      <trkpt lat="45.21785" lon="5.73277">
        <ele>1027.5999755859</ele>
        <time>2026-08-12T14:42:14.000Z</time>
      </trkpt>
      <trkpt lat="45.21786" lon="5.73278">
        <ele>1028.1999511719</ele>
        <time>2026-08-12T14:42:15.000Z</time>
      </trkpt>
      <trkpt lat="45.21787" lon="5.73278">
        <ele>1028.8000488281</ele>
        <time>2026-08-12T14:42:16.000Z</time>
      </trkpt>
      <trkpt lat="45.21787" lon="5.73279">
        <ele>1029.4000244141</ele>
        <time>2026-08-12T14:42:17.000Z</time>
      </trkpt>
      <trkpt lat="45.21788" lon="5.7328">
        <ele>1029.8000488281</ele>
        <time>2026-08-12T14:42:18.000Z</time>
      </trkpt>
      <trkpt lat="45.21788" lon="5.7328">
        <ele>1030.4000244141</ele>
        <time>2026-08-12T14:42:19.000Z</time>
      </trkpt>
      <trkpt lat="45.21789" lon="5.73281">
        <ele>1029.8000488281</ele>
        <time>2026-08-12T14:42:20.000Z</time>
      </trkpt>
      <trkpt lat="45.2179" lon="5.73281">
        <ele>1029.8000488281</ele>
        <time>2026-08-12T14:42:21.000Z</time>
      </trkpt>
      <trkpt lat="45.21791" lon="5.73281">
        <ele>1029.8000488281</ele>
        <time>2026-08-12T14:42:22.000Z</time>
      </trkpt>
      <trkpt lat="45.21792" lon="5.73282">
        <ele>1029.8000488281</ele>
        <time>2026-08-12T14:42:23.000Z</time>
      </trkpt>
      <trkpt lat="45.21793" lon="5.73283">
        <ele>1029.1999511719</ele>
        <time>2026-08-12T14:42:24.000Z</time>
      </trkpt>
      <trkpt lat="45.21794" lon="5.73283">
        <ele>1029.1999511719</ele>
        <time>2026-08-12T14:42:25.000Z</time>
      </trkpt>
      <trkpt lat="45.21795" lon="5.73284">
        <ele>1029</ele>
        <time>2026-08-12T14:42:26.000Z</time>
      </trkpt>
      <trkpt lat="45.21796" lon="5.73285">
        <ele>1029</ele>
        <time>2026-08-12T14:42:27.000Z</time>
      </trkpt>
      <trkpt lat="45.21797" lon="5.73286">
        <ele>1028.8000488281</ele>
        <time>2026-08-12T14:42:28.000Z</time>
      </trkpt>
      <trkpt lat="45.21797" lon="5.73287">
        <ele>1029</ele>
        <time>2026-08-12T14:42:29.000Z</time>
      </trkpt>
      <trkpt lat="45.21798" lon="5.73289">
        <ele>1029.4000244141</ele>
        <time>2026-08-12T14:42:30.000Z</time>
      </trkpt>
      <trkpt lat="45.21799" lon="5.7329">
        <ele>1030.8000488281</ele>
        <time>2026-08-12T14:42:31.000Z</time>
      </trkpt>
      <trkpt lat="45.218" lon="5.73291">
        <ele>1031.5999755859</ele>
        <time>2026-08-12T14:42:32.000Z</time>
      </trkpt>
      <trkpt lat="45.218" lon="5.73292">
        <ele>1032</ele>
        <time>2026-08-12T14:42:33.000Z</time>
      </trkpt>
      <trkpt lat="45.21801" lon="5.73293">
        <ele>1032.5999755859</ele>
        <time>2026-08-12T14:42:34.000Z</time>
      </trkpt>
      <trkpt lat="45.21802" lon="5.73294">
        <ele>1033.1999511719</ele>
        <time>2026-08-12T14:42:35.000Z</time>
      </trkpt>
      <trkpt lat="45.21804" lon="5.73295">
        <ele>1034</ele>
        <time>2026-08-12T14:42:36.000Z</time>
      </trkpt>
      <trkpt lat="45.21805" lon="5.73295">
        <ele>1034.5999755859</ele>
        <time>2026-08-12T14:42:37.000Z</time>
      </trkpt>
      <trkpt lat="45.21806" lon="5.73296">
        <ele>1035.1999511719</ele>
        <time>2026-08-12T14:42:38.000Z</time>
      </trkpt>
      <trkpt lat="45.21807" lon="5.73296">
        <ele>1035.5999755859</ele>
        <time>2026-08-12T14:42:39.000Z</time>
      </trkpt>
      <trkpt lat="45.21808" lon="5.73297">
        <ele>1036.1999511719</ele>
        <time>2026-08-12T14:42:40.000Z</time>
      </trkpt>
      <trkpt lat="45.21809" lon="5.73298">
        <ele>1036.4000244141</ele>
        <time>2026-08-12T14:42:41.000Z</time>
      </trkpt>
      <trkpt lat="45.21809" lon="5.733">
        <ele>1037.1999511719</ele>
        <time>2026-08-12T14:42:42.000Z</time>
      </trkpt>
      <trkpt lat="45.2181" lon="5.73301">
        <ele>1037.1999511719</ele>
        <time>2026-08-12T14:42:43.000Z</time>
      </trkpt>
      <trkpt lat="45.21811" lon="5.73302">
        <ele>1037.4000244141</ele>
        <time>2026-08-12T14:42:44.000Z</time>
      </trkpt>
      <trkpt lat="45.21811" lon="5.73304">
        <ele>1037.5999755859</ele>
        <time>2026-08-12T14:42:45.000Z</time>
      </trkpt>
      <trkpt lat="45.21811" lon="5.73305">
        <ele>1037.5999755859</ele>
        <time>2026-08-12T14:42:46.000Z</time>
      </trkpt>
      <trkpt lat="45.21812" lon="5.73306">
        <ele>1037.8000488281</ele>
        <time>2026-08-12T14:42:47.000Z</time>
      </trkpt>
      <trkpt lat="45.21813" lon="5.73307">
        <ele>1037.5999755859</ele>
        <time>2026-08-12T14:42:48.000Z</time>
      </trkpt>
      <trkpt lat="45.21813" lon="5.73308">
        <ele>1037.4000244141</ele>
        <time>2026-08-12T14:42:49.000Z</time>
      </trkpt>
      <trkpt lat="45.21815" lon="5.73309">
        <ele>1037.1999511719</ele>
        <time>2026-08-12T14:42:50.000Z</time>
      </trkpt>
      <trkpt lat="45.21816" lon="5.73309">
        <ele>1036.8000488281</ele>
        <time>2026-08-12T14:42:51.000Z</time>
      </trkpt>
      <trkpt lat="45.21817" lon="5.73309">
        <ele>1036.5999755859</ele>
        <time>2026-08-12T14:42:52.000Z</time>
      </trkpt>
      <trkpt lat="45.21818" lon="5.73309">
        <ele>1036.4000244141</ele>
        <time>2026-08-12T14:42:53.000Z</time>
      </trkpt>
      <trkpt lat="45.21819" lon="5.7331">
        <ele>1036.1999511719</ele>
        <time>2026-08-12T14:42:54.000Z</time>
      </trkpt>
      <trkpt lat="45.2182" lon="5.7331">
        <ele>1035.8000488281</ele>
        <time>2026-08-12T14:42:55.000Z</time>
      </trkpt>
      <trkpt lat="45.21822" lon="5.73311">
        <ele>1035.4000244141</ele>
        <time>2026-08-12T14:42:56.000Z</time>
      </trkpt>
      <trkpt lat="45.21823" lon="5.73312">
        <ele>1035.1999511719</ele>
        <time>2026-08-12T14:42:57.000Z</time>
      </trkpt>
      <trkpt lat="45.21823" lon="5.73313">
        <ele>1035</ele>
        <time>2026-08-12T14:42:58.000Z</time>
      </trkpt>
      <trkpt lat="45.21824" lon="5.73314">
        <ele>1035</ele>
        <time>2026-08-12T14:42:59.000Z</time>
      </trkpt>
      <trkpt lat="45.21825" lon="5.73315">
        <ele>1034.8000488281</ele>
        <time>2026-08-12T14:43:00.000Z</time>
      </trkpt>
      <trkpt lat="45.21825" lon="5.73316">
        <ele>1034.1999511719</ele>
        <time>2026-08-12T14:43:01.000Z</time>
      </trkpt>
      <trkpt lat="45.21825" lon="5.73318">
        <ele>1034</ele>
        <time>2026-08-12T14:43:02.000Z</time>
      </trkpt>
      <trkpt lat="45.21826" lon="5.73318">
        <ele>1034</ele>
        <time>2026-08-12T14:43:03.000Z</time>
      </trkpt>
      <trkpt lat="45.21827" lon="5.73318">
        <ele>1034</ele>
        <time>2026-08-12T14:43:04.000Z</time>
      </trkpt>
      <trkpt lat="45.21827" lon="5.73319">
        <ele>1034.1999511719</ele>
        <time>2026-08-12T14:43:05.000Z</time>
      </trkpt>
      <trkpt lat="45.21828" lon="5.7332">
        <ele>1034.4000244141</ele>
        <time>2026-08-12T14:43:06.000Z</time>
      </trkpt>
      <trkpt lat="45.21829" lon="5.7332">
        <ele>1034.8000488281</ele>
        <time>2026-08-12T14:43:07.000Z</time>
      </trkpt>
      <trkpt lat="45.2183" lon="5.73322">
        <ele>1035</ele>
        <time>2026-08-12T14:43:08.000Z</time>
      </trkpt>
      <trkpt lat="45.21831" lon="5.73322">
        <ele>1035.1999511719</ele>
        <time>2026-08-12T14:43:09.000Z</time>
      </trkpt>
      <trkpt lat="45.21831" lon="5.73323">
        <ele>1035.8000488281</ele>
        <time>2026-08-12T14:43:10.000Z</time>
      </trkpt>
      <trkpt lat="45.21832" lon="5.73324">
        <ele>1036.5999755859</ele>
        <time>2026-08-12T14:43:11.000Z</time>
      </trkpt>
      <trkpt lat="45.21833" lon="5.73325">
        <ele>1037.1999511719</ele>
        <time>2026-08-12T14:43:12.000Z</time>
      </trkpt>
      <trkpt lat="45.21834" lon="5.73327">
        <ele>1038</ele>
        <time>2026-08-12T14:43:13.000Z</time>
      </trkpt>
      <trkpt lat="45.21834" lon="5.73328">
        <ele>1038.5999755859</ele>
        <time>2026-08-12T14:43:14.000Z</time>
      </trkpt>
      <trkpt lat="45.21835" lon="5.73328">
        <ele>1040.5999755859</ele>
        <time>2026-08-12T14:43:15.000Z</time>
      </trkpt>
      <trkpt lat="45.21836" lon="5.73329">
        <ele>1040.5999755859</ele>
        <time>2026-08-12T14:43:16.000Z</time>
      </trkpt>
      <trkpt lat="45.21837" lon="5.73329">
        <ele>1040.8000488281</ele>
        <time>2026-08-12T14:43:17.000Z</time>
      </trkpt>
      <trkpt lat="45.21837" lon="5.73331">
        <ele>1041.1999511719</ele>
        <time>2026-08-12T14:43:18.000Z</time>
      </trkpt>
      <trkpt lat="45.21838" lon="5.73332">
        <ele>1041.4000244141</ele>
        <time>2026-08-12T14:43:19.000Z</time>
      </trkpt>
      <trkpt lat="45.21838" lon="5.73332">
        <ele>1041.8000488281</ele>
        <time>2026-08-12T14:43:20.000Z</time>
      </trkpt>
      <trkpt lat="45.21839" lon="5.73333">
        <ele>1042</ele>
        <time>2026-08-12T14:43:21.000Z</time>
      </trkpt>
      <trkpt lat="45.2184" lon="5.73334">
        <ele>1042.1999511719</ele>
        <time>2026-08-12T14:43:22.000Z</time>
      </trkpt>
      <trkpt lat="45.2184" lon="5.73335">
        <ele>1042.5999755859</ele>
        <time>2026-08-12T14:43:23.000Z</time>
      </trkpt>
      <trkpt lat="45.21841" lon="5.73336">
        <ele>1042.8000488281</ele>
        <time>2026-08-12T14:43:24.000Z</time>
      </trkpt>
      <trkpt lat="45.21842" lon="5.73338">
        <ele>1043.1999511719</ele>
        <time>2026-08-12T14:43:25.000Z</time>
      </trkpt>
      <trkpt lat="45.21843" lon="5.73339">
        <ele>1043.4000244141</ele>
        <time>2026-08-12T14:43:26.000Z</time>
      </trkpt>
      <trkpt lat="45.21844" lon="5.73341">
        <ele>1043.5999755859</ele>
        <time>2026-08-12T14:43:27.000Z</time>
      </trkpt>
      <trkpt lat="45.21845" lon="5.73342">
        <ele>1044</ele>
        <time>2026-08-12T14:43:28.000Z</time>
      </trkpt>
      <trkpt lat="45.21845" lon="5.73342">
        <ele>1044.4000244141</ele>
        <time>2026-08-12T14:43:29.000Z</time>
      </trkpt>
      <trkpt lat="45.21846" lon="5.73344">
        <ele>1044.5999755859</ele>
        <time>2026-08-12T14:43:30.000Z</time>
      </trkpt>
      <trkpt lat="45.21846" lon="5.73345">
        <ele>1045.4000244141</ele>
        <time>2026-08-12T14:43:31.000Z</time>
      </trkpt>
      <trkpt lat="45.21846" lon="5.73347">
        <ele>1045.5999755859</ele>
        <time>2026-08-12T14:43:32.000Z</time>
      </trkpt>
      <trkpt lat="45.21845" lon="5.73348">
        <ele>1045.4000244141</ele>
        <time>2026-08-12T14:43:33.000Z</time>
      </trkpt>
      <trkpt lat="45.21845" lon="5.7335">
        <ele>1045.4000244141</ele>
        <time>2026-08-12T14:43:34.000Z</time>
      </trkpt>
      <trkpt lat="45.21845" lon="5.73351">
        <ele>1045.1999511719</ele>
        <time>2026-08-12T14:43:35.000Z</time>
      </trkpt>
      <trkpt lat="45.21845" lon="5.73353">
        <ele>1045.1999511719</ele>
        <time>2026-08-12T14:43:36.000Z</time>
      </trkpt>
      <trkpt lat="45.21844" lon="5.73354">
        <ele>1045.4000244141</ele>
        <time>2026-08-12T14:43:37.000Z</time>
      </trkpt>
      <trkpt lat="45.21844" lon="5.73354">
        <ele>1045.8000488281</ele>
        <time>2026-08-12T14:43:38.000Z</time>
      </trkpt>
      <trkpt lat="45.21844" lon="5.73355">
        <ele>1046</ele>
        <time>2026-08-12T14:43:39.000Z</time>
      </trkpt>
      <trkpt lat="45.21843" lon="5.73355">
        <ele>1046.1999511719</ele>
        <time>2026-08-12T14:43:40.000Z</time>
      </trkpt>
      <trkpt lat="45.21842" lon="5.73355">
        <ele>1046.1999511719</ele>
        <time>2026-08-12T14:43:41.000Z</time>
      </trkpt>
      <trkpt lat="45.21841" lon="5.73356">
        <ele>1046.4000244141</ele>
        <time>2026-08-12T14:43:42.000Z</time>
      </trkpt>
      <trkpt lat="45.21841" lon="5.73356">
        <ele>1046.4000244141</ele>
        <time>2026-08-12T14:43:43.000Z</time>
      </trkpt>
      <trkpt lat="45.21841" lon="5.73357">
        <ele>1046.1999511719</ele>
        <time>2026-08-12T14:43:44.000Z</time>
      </trkpt>
      <trkpt lat="45.21841" lon="5.73357">
        <ele>1045.8000488281</ele>
        <time>2026-08-12T14:43:45.000Z</time>
      </trkpt>
      <trkpt lat="45.21841" lon="5.73357">
        <ele>1045.5999755859</ele>
        <time>2026-08-12T14:43:46.000Z</time>
      </trkpt>
      <trkpt lat="45.21841" lon="5.73356">
        <ele>1045.4000244141</ele>
        <time>2026-08-12T14:43:47.000Z</time>
      </trkpt>
      <trkpt lat="45.21841" lon="5.73356">
        <ele>1044.8000488281</ele>
        <time>2026-08-12T14:43:48.000Z</time>
      </trkpt>
      <trkpt lat="45.21841" lon="5.73356">
        <ele>1044.1999511719</ele>
        <time>2026-08-12T14:43:49.000Z</time>
      </trkpt>
      <trkpt lat="45.21841" lon="5.73356">
        <ele>1043.4000244141</ele>
        <time>2026-08-12T14:43:50.000Z</time>
      </trkpt>
      <trkpt lat="45.21841" lon="5.73356">
        <ele>1042.5999755859</ele>
        <time>2026-08-12T14:43:51.000Z</time>
      </trkpt>
      <trkpt lat="45.21841" lon="5.73356">
        <ele>1042</ele>
        <time>2026-08-12T14:43:52.000Z</time>
      </trkpt>
      <trkpt lat="45.21841" lon="5.73356">
        <ele>1041.4000244141</ele>
        <time>2026-08-12T14:43:53.000Z</time>
      </trkpt>
      <trkpt lat="45.21841" lon="5.73356">
        <ele>1040.8000488281</ele>
        <time>2026-08-12T14:43:54.000Z</time>
      </trkpt>
      <trkpt lat="45.21841" lon="5.73356">
        <ele>1040.4000244141</ele>
        <time>2026-08-12T14:43:55.000Z</time>
      </trkpt>
      <trkpt lat="45.21841" lon="5.73356">
        <ele>1040.1999511719</ele>
        <time>2026-08-12T14:43:56.000Z</time>
      </trkpt>
      <trkpt lat="45.21841" lon="5.73356">
        <ele>1040</ele>
        <time>2026-08-12T14:43:57.000Z</time>
      </trkpt>
      <trkpt lat="45.21841" lon="5.73356">
        <ele>1039.8000488281</ele>
        <time>2026-08-12T14:43:58.000Z</time>
      </trkpt>
      <trkpt lat="45.21841" lon="5.73356">
        <ele>1039.8000488281</ele>
        <time>2026-08-12T14:43:59.000Z</time>
      </trkpt>
      <trkpt lat="45.21841" lon="5.73356">
        <ele>1040</ele>
        <time>2026-08-12T14:44:00.000Z</time>
      </trkpt>
      <trkpt lat="45.21841" lon="5.73356">
        <ele>1040</ele>
        <time>2026-08-12T14:44:01.000Z</time>
      </trkpt>
      <trkpt lat="45.21841" lon="5.73356">
        <ele>1040</ele>
        <time>2026-08-12T14:44:02.000Z</time>
      </trkpt>
      <trkpt lat="45.21841" lon="5.73356">
        <ele>1040.1999511719</ele>
        <time>2026-08-12T14:44:03.000Z</time>
      </trkpt>
      <trkpt lat="45.21841" lon="5.73356">
        <ele>1040.1999511719</ele>
        <time>2026-08-12T14:44:04.000Z</time>
      </trkpt>
      <trkpt lat="45.21841" lon="5.73356">
        <ele>1040.4000244141</ele>
        <time>2026-08-12T14:44:05.000Z</time>
      </trkpt>
      <trkpt lat="45.21841" lon="5.73356">
        <ele>1040.4000244141</ele>
        <time>2026-08-12T14:44:06.000Z</time>
      </trkpt>
      <trkpt lat="45.21841" lon="5.73356">
        <ele>1040.5999755859</ele>
        <time>2026-08-12T14:44:07.000Z</time>
      </trkpt>
      <trkpt lat="45.21841" lon="5.73356">
        <ele>1040.8000488281</ele>
        <time>2026-08-12T14:44:08.000Z</time>
      </trkpt>
      <trkpt lat="45.21841" lon="5.73356">
        <ele>1041.1999511719</ele>
        <time>2026-08-12T14:44:09.000Z</time>
      </trkpt>
      <trkpt lat="45.21842" lon="5.73356">
        <ele>1041.4000244141</ele>
        <time>2026-08-12T14:44:10.000Z</time>
      </trkpt>
      <trkpt lat="45.21841" lon="5.73356">
        <ele>1041.5999755859</ele>
        <time>2026-08-12T14:44:11.000Z</time>
      </trkpt>
      <trkpt lat="45.21842" lon="5.73355">
        <ele>1041.8000488281</ele>
        <time>2026-08-12T14:44:12.000Z</time>
      </trkpt>
      <trkpt lat="45.21843" lon="5.73356">
        <ele>1041.8000488281</ele>
        <time>2026-08-12T14:44:13.000Z</time>
      </trkpt>
      <trkpt lat="45.21843" lon="5.73356">
        <ele>1041.8000488281</ele>
        <time>2026-08-12T14:44:14.000Z</time>
      </trkpt>
      <trkpt lat="45.21843" lon="5.73357">
        <ele>1041.5999755859</ele>
        <time>2026-08-12T14:44:15.000Z</time>
      </trkpt>
      <trkpt lat="45.21843" lon="5.73357">
        <ele>1041.8000488281</ele>
        <time>2026-08-12T14:44:16.000Z</time>
      </trkpt>
      <trkpt lat="45.21843" lon="5.73357">
        <ele>1042</ele>
        <time>2026-08-12T14:44:17.000Z</time>
      </trkpt>
      <trkpt lat="45.21843" lon="5.73357">
        <ele>1042.4000244141</ele>
        <time>2026-08-12T14:44:18.000Z</time>
      </trkpt>
      <trkpt lat="45.21844" lon="5.73359">
        <ele>1042.5999755859</ele>
        <time>2026-08-12T14:44:19.000Z</time>
      </trkpt>
      <trkpt lat="45.21844" lon="5.73359">
        <ele>1043</ele>
        <time>2026-08-12T14:44:20.000Z</time>
      </trkpt>
      <trkpt lat="45.21844" lon="5.7336">
        <ele>1043.5999755859</ele>
        <time>2026-08-12T14:44:21.000Z</time>
      </trkpt>
      <trkpt lat="45.21844" lon="5.7336">
        <ele>1044.4000244141</ele>
        <time>2026-08-12T14:44:22.000Z</time>
      </trkpt>
      <trkpt lat="45.21844" lon="5.7336">
        <ele>1045.1999511719</ele>
        <time>2026-08-12T14:44:23.000Z</time>
      </trkpt>
      <trkpt lat="45.21844" lon="5.7336">
        <ele>1045.4000244141</ele>
        <time>2026-08-12T14:44:24.000Z</time>
      </trkpt>
      <trkpt lat="45.21844" lon="5.7336">
        <ele>1045</ele>
        <time>2026-08-12T14:44:25.000Z</time>
      </trkpt>
      <trkpt lat="45.21844" lon="5.7336">
        <ele>1044.8000488281</ele>
        <time>2026-08-12T14:44:26.000Z</time>
      </trkpt>
      <trkpt lat="45.21844" lon="5.7336">
        <ele>1044.4000244141</ele>
        <time>2026-08-12T14:44:27.000Z</time>
      </trkpt>
      <trkpt lat="45.21844" lon="5.7336">
        <ele>1044</ele>
        <time>2026-08-12T14:44:28.000Z</time>
      </trkpt>
      <trkpt lat="45.21844" lon="5.7336">
        <ele>1043.4000244141</ele>
        <time>2026-08-12T14:44:29.000Z</time>
      </trkpt>
      <trkpt lat="45.21844" lon="5.7336">
        <ele>1043</ele>
        <time>2026-08-12T14:44:30.000Z</time>
      </trkpt>
      <trkpt lat="45.21844" lon="5.7336">
        <ele>1042.4000244141</ele>
        <time>2026-08-12T14:44:31.000Z</time>
      </trkpt>
      <trkpt lat="45.21844" lon="5.7336">
        <ele>1041.8000488281</ele>
        <time>2026-08-12T14:44:32.000Z</time>
      </trkpt>
      <trkpt lat="45.21844" lon="5.7336">
        <ele>1041.8000488281</ele>
        <time>2026-08-12T14:44:33.000Z</time>
      </trkpt>
      <trkpt lat="45.21844" lon="5.7336">
        <ele>1041.5999755859</ele>
        <time>2026-08-12T14:44:34.000Z</time>
      </trkpt>
      <trkpt lat="45.21844" lon="5.7336">
        <ele>1042</ele>
        <time>2026-08-12T14:44:35.000Z</time>
      </trkpt>
      <trkpt lat="45.21844" lon="5.7336">
        <ele>1042.1999511719</ele>
        <time>2026-08-12T14:44:36.000Z</time>
      </trkpt>
      <trkpt lat="45.21844" lon="5.7336">
        <ele>1042.4000244141</ele>
        <time>2026-08-12T14:44:37.000Z</time>
      </trkpt>
      <trkpt lat="45.21844" lon="5.7336">
        <ele>1042.4000244141</ele>
        <time>2026-08-12T14:44:38.000Z</time>
      </trkpt>
      <trkpt lat="45.21844" lon="5.7336">
        <ele>1042.4000244141</ele>
        <time>2026-08-12T14:44:39.000Z</time>
      </trkpt>
      <trkpt lat="45.21844" lon="5.7336">
        <ele>1042.4000244141</ele>
        <time>2026-08-12T14:44:40.000Z</time>
      </trkpt>
      <trkpt lat="45.21844" lon="5.7336">
        <ele>1042.4000244141</ele>
        <time>2026-08-12T14:44:41.000Z</time>
      </trkpt>
      <trkpt lat="45.21844" lon="5.7336">
        <ele>1042.1999511719</ele>
        <time>2026-08-12T14:44:42.000Z</time>
      </trkpt>
      <trkpt lat="45.21844" lon="5.7336">
        <ele>1042.1999511719</ele>
        <time>2026-08-12T14:44:43.000Z</time>
      </trkpt>
      <trkpt lat="45.21844" lon="5.7336">
        <ele>1042.1999511719</ele>
        <time>2026-08-12T14:44:44.000Z</time>
      </trkpt>
      <trkpt lat="45.21844" lon="5.7336">
        <ele>1042</ele>
        <time>2026-08-12T14:44:45.000Z</time>
      </trkpt>
      <trkpt lat="45.21844" lon="5.7336">
        <ele>1042</ele>
        <time>2026-08-12T14:44:46.000Z</time>
      </trkpt>
      <trkpt lat="45.21844" lon="5.7336">
        <ele>1042</ele>
        <time>2026-08-12T14:44:47.000Z</time>
      </trkpt>
      <trkpt lat="45.21844" lon="5.7336">
        <ele>1042</ele>
        <time>2026-08-12T14:44:48.000Z</time>
      </trkpt>
      <trkpt lat="45.21844" lon="5.7336">
        <ele>1042</ele>
        <time>2026-08-12T14:44:49.000Z</time>
      </trkpt>
      <trkpt lat="45.21844" lon="5.7336">
        <ele>1042</ele>
        <time>2026-08-12T14:44:50.000Z</time>
      </trkpt>
      <trkpt lat="45.21844" lon="5.7336">
        <ele>1042</ele>
        <time>2026-08-12T14:44:51.000Z</time>
      </trkpt>
      <trkpt lat="45.21844" lon="5.7336">
        <ele>1042.1999511719</ele>
        <time>2026-08-12T14:44:52.000Z</time>
      </trkpt>
      <trkpt lat="45.21844" lon="5.7336">
        <ele>1042.4000244141</ele>
        <time>2026-08-12T14:44:53.000Z</time>
      </trkpt>
      <trkpt lat="45.21844" lon="5.7336">
        <ele>1042.4000244141</ele>
        <time>2026-08-12T14:44:54.000Z</time>
      </trkpt>
      <trkpt lat="45.21844" lon="5.7336">
        <ele>1042.5999755859</ele>
        <time>2026-08-12T14:44:55.000Z</time>
      </trkpt>
      <trkpt lat="45.21844" lon="5.7336">
        <ele>1042.5999755859</ele>
        <time>2026-08-12T14:44:56.000Z</time>
      </trkpt>
      <trkpt lat="45.21844" lon="5.7336">
        <ele>1042.8000488281</ele>
        <time>2026-08-12T14:44:57.000Z</time>
      </trkpt>
      <trkpt lat="45.21844" lon="5.7336">
        <ele>1042.8000488281</ele>
        <time>2026-08-12T14:44:58.000Z</time>
      </trkpt>
      <trkpt lat="45.21844" lon="5.7336">
        <ele>1043</ele>
        <time>2026-08-12T14:44:59.000Z</time>
      </trkpt>
      <trkpt lat="45.21844" lon="5.7336">
        <ele>1043</ele>
        <time>2026-08-12T14:45:00.000Z</time>
      </trkpt>
      <trkpt lat="45.21844" lon="5.7336">
        <ele>1043</ele>
        <time>2026-08-12T14:45:01.000Z</time>
      </trkpt>
      <trkpt lat="45.21844" lon="5.7336">
        <ele>1043.1999511719</ele>
        <time>2026-08-12T14:45:02.000Z</time>
      </trkpt>
      <trkpt lat="45.21844" lon="5.7336">
        <ele>1043.1999511719</ele>
        <time>2026-08-12T14:45:03.000Z</time>
      </trkpt>
      <trkpt lat="45.21844" lon="5.7336">
        <ele>1043.1999511719</ele>
        <time>2026-08-12T14:45:04.000Z</time>
      </trkpt>
      <trkpt lat="45.21844" lon="5.7336">
        <ele>1043.4000244141</ele>
        <time>2026-08-12T14:45:05.000Z</time>
      </trkpt>
      <trkpt lat="45.21844" lon="5.7336">
        <ele>1043.5999755859</ele>
        <time>2026-08-12T14:45:06.000Z</time>
      </trkpt>
      <trkpt lat="45.21844" lon="5.7336">
        <ele>1043.5999755859</ele>
        <time>2026-08-12T14:45:07.000Z</time>
      </trkpt>
      <trkpt lat="45.21844" lon="5.7336">
        <ele>1043.5999755859</ele>
        <time>2026-08-12T14:45:08.000Z</time>
      </trkpt>
      <trkpt lat="45.21844" lon="5.7336">
        <ele>1043.8000488281</ele>
        <time>2026-08-12T14:45:09.000Z</time>
      </trkpt>
      <trkpt lat="45.21844" lon="5.7336">
        <ele>1043.8000488281</ele>
        <time>2026-08-12T14:45:10.000Z</time>
      </trkpt>
      <trkpt lat="45.21844" lon="5.7336">
        <ele>1043.8000488281</ele>
        <time>2026-08-12T14:45:11.000Z</time>
      </trkpt>
      <trkpt lat="45.21844" lon="5.7336">
        <ele>1043.8000488281</ele>
        <time>2026-08-12T14:45:12.000Z</time>
      </trkpt>
      <trkpt lat="45.21844" lon="5.7336">
        <ele>1043.8000488281</ele>
        <time>2026-08-12T14:45:13.000Z</time>
      </trkpt>
      <trkpt lat="45.21844" lon="5.7336">
        <ele>1043.8000488281</ele>
        <time>2026-08-12T14:45:14.000Z</time>
      </trkpt>
      <trkpt lat="45.21844" lon="5.7336">
        <ele>1043.8000488281</ele>
        <time>2026-08-12T14:45:15.000Z</time>
      </trkpt>
      <trkpt lat="45.21844" lon="5.7336">
        <ele>1043.5999755859</ele>
        <time>2026-08-12T14:45:16.000Z</time>
      </trkpt>
      <trkpt lat="45.21844" lon="5.7336">
        <ele>1043.5999755859</ele>
        <time>2026-08-12T14:45:17.000Z</time>
      </trkpt>
      <trkpt lat="45.21844" lon="5.7336">
        <ele>1043.5999755859</ele>
        <time>2026-08-12T14:45:18.000Z</time>
      </trkpt>
      <trkpt lat="45.21844" lon="5.7336">
        <ele>1043.5999755859</ele>
        <time>2026-08-12T14:45:19.000Z</time>
      </trkpt>
      <trkpt lat="45.21844" lon="5.7336">
        <ele>1043.8000488281</ele>
        <time>2026-08-12T14:45:20.000Z</time>
      </trkpt>
      <trkpt lat="45.21844" lon="5.7336">
        <ele>1043.8000488281</ele>
        <time>2026-08-12T14:45:21.000Z</time>
      </trkpt>
      <trkpt lat="45.21844" lon="5.7336">
        <ele>1044</ele>
        <time>2026-08-12T14:45:22.000Z</time>
      </trkpt>
      <trkpt lat="45.21844" lon="5.7336">
        <ele>1044.1999511719</ele>
        <time>2026-08-12T14:45:23.000Z</time>
      </trkpt>
      <trkpt lat="45.21844" lon="5.7336">
        <ele>1044.4000244141</ele>
        <time>2026-08-12T14:45:24.000Z</time>
      </trkpt>
      <trkpt lat="45.21844" lon="5.7336">
        <ele>1044.4000244141</ele>
        <time>2026-08-12T14:45:25.000Z</time>
      </trkpt>
      <trkpt lat="45.21844" lon="5.7336">
        <ele>1044.4000244141</ele>
        <time>2026-08-12T14:45:26.000Z</time>
      </trkpt>
      <trkpt lat="45.21843" lon="5.73359">
        <ele>1044</ele>
        <time>2026-08-12T14:45:27.000Z</time>
      </trkpt>
      <trkpt lat="45.21843" lon="5.73358">
        <ele>1043.4000244141</ele>
        <time>2026-08-12T14:45:28.000Z</time>
      </trkpt>
      <trkpt lat="45.21843" lon="5.73357">
        <ele>1043.4000244141</ele>
        <time>2026-08-12T14:45:29.000Z</time>
      </trkpt>
      <trkpt lat="45.21843" lon="5.73356">
        <ele>1043</ele>
        <time>2026-08-12T14:45:30.000Z</time>
      </trkpt>
      <trkpt lat="45.21843" lon="5.73356">
        <ele>1043.1999511719</ele>
        <time>2026-08-12T14:45:31.000Z</time>
      </trkpt>
      <trkpt lat="45.21844" lon="5.73355">
        <ele>1043.4000244141</ele>
        <time>2026-08-12T14:45:32.000Z</time>
      </trkpt>
      <trkpt lat="45.21844" lon="5.73354">
        <ele>1043.4000244141</ele>
        <time>2026-08-12T14:45:33.000Z</time>
      </trkpt>
      <trkpt lat="45.21844" lon="5.73353">
        <ele>1043.4000244141</ele>
        <time>2026-08-12T14:45:34.000Z</time>
      </trkpt>
      <trkpt lat="45.21844" lon="5.73352">
        <ele>1043.5999755859</ele>
        <time>2026-08-12T14:45:35.000Z</time>
      </trkpt>
      <trkpt lat="45.21844" lon="5.7335">
        <ele>1043.8000488281</ele>
        <time>2026-08-12T14:45:36.000Z</time>
      </trkpt>
      <trkpt lat="45.21845" lon="5.73349">
        <ele>1044</ele>
        <time>2026-08-12T14:45:37.000Z</time>
      </trkpt>
      <trkpt lat="45.21845" lon="5.73348">
        <ele>1044.1999511719</ele>
        <time>2026-08-12T14:45:38.000Z</time>
      </trkpt>
      <trkpt lat="45.21846" lon="5.73347">
        <ele>1044.1999511719</ele>
        <time>2026-08-12T14:45:39.000Z</time>
      </trkpt>
      <trkpt lat="45.21846" lon="5.73346">
        <ele>1044</ele>
        <time>2026-08-12T14:45:40.000Z</time>
      </trkpt>
      <trkpt lat="45.21847" lon="5.73345">
        <ele>1043.8000488281</ele>
        <time>2026-08-12T14:45:41.000Z</time>
      </trkpt>
      <trkpt lat="45.21847" lon="5.73344">
        <ele>1043.5999755859</ele>
        <time>2026-08-12T14:45:42.000Z</time>
      </trkpt>
      <trkpt lat="45.21847" lon="5.73344">
        <ele>1043.5999755859</ele>
        <time>2026-08-12T14:45:43.000Z</time>
      </trkpt>
      <trkpt lat="45.21847" lon="5.73344">
        <ele>1043.5999755859</ele>
        <time>2026-08-12T14:45:44.000Z</time>
      </trkpt>
      <trkpt lat="45.21847" lon="5.73344">
        <ele>1043.8000488281</ele>
        <time>2026-08-12T14:45:45.000Z</time>
      </trkpt>
      <trkpt lat="45.21847" lon="5.73344">
        <ele>1043.8000488281</ele>
        <time>2026-08-12T14:45:46.000Z</time>
      </trkpt>
      <trkpt lat="45.21847" lon="5.73344">
        <ele>1043.8000488281</ele>
        <time>2026-08-12T14:45:47.000Z</time>
      </trkpt>
      <trkpt lat="45.21847" lon="5.73344">
        <ele>1043.8000488281</ele>
        <time>2026-08-12T14:45:48.000Z</time>
      </trkpt>
      <trkpt lat="45.21847" lon="5.73344">
        <ele>1043.8000488281</ele>
        <time>2026-08-12T14:45:49.000Z</time>
      </trkpt>
      <trkpt lat="45.21847" lon="5.73344">
        <ele>1043.5999755859</ele>
        <time>2026-08-12T14:45:50.000Z</time>
      </trkpt>
      <trkpt lat="45.21847" lon="5.73344">
        <ele>1043.4000244141</ele>
        <time>2026-08-12T14:45:51.000Z</time>
      </trkpt>
      <trkpt lat="45.21847" lon="5.73344">
        <ele>1043.1999511719</ele>
        <time>2026-08-12T14:45:52.000Z</time>
      </trkpt>
      <trkpt lat="45.21847" lon="5.73344">
        <ele>1043.1999511719</ele>
        <time>2026-08-12T14:45:53.000Z</time>
      </trkpt>
      <trkpt lat="45.21847" lon="5.73344">
        <ele>1043.1999511719</ele>
        <time>2026-08-12T14:45:54.000Z</time>
      </trkpt>
      <trkpt lat="45.21847" lon="5.73344">
        <ele>1043.1999511719</ele>
        <time>2026-08-12T14:45:55.000Z</time>
      </trkpt>
      <trkpt lat="45.21847" lon="5.73344">
        <ele>1043.1999511719</ele>
        <time>2026-08-12T14:45:56.000Z</time>
      </trkpt>
      <trkpt lat="45.21847" lon="5.73344">
        <ele>1043.4000244141</ele>
        <time>2026-08-12T14:45:57.000Z</time>
      </trkpt>
      <trkpt lat="45.21847" lon="5.73344">
        <ele>1043.8000488281</ele>
        <time>2026-08-12T14:45:58.000Z</time>
      </trkpt>
      <trkpt lat="45.21847" lon="5.73344">
        <ele>1043.8000488281</ele>
        <time>2026-08-12T14:45:59.000Z</time>
      </trkpt>
      <trkpt lat="45.21847" lon="5.73344">
        <ele>1044</ele>
        <time>2026-08-12T14:46:00.000Z</time>
      </trkpt>
      <trkpt lat="45.21847" lon="5.73344">
        <ele>1044</ele>
        <time>2026-08-12T14:46:01.000Z</time>
      </trkpt>
      <trkpt lat="45.21847" lon="5.73344">
        <ele>1044</ele>
        <time>2026-08-12T14:46:02.000Z</time>
      </trkpt>
      <trkpt lat="45.21847" lon="5.73344">
        <ele>1044.4000244141</ele>
        <time>2026-08-12T14:46:03.000Z</time>
      </trkpt>
      <trkpt lat="45.21847" lon="5.73344">
        <ele>1044.5999755859</ele>
        <time>2026-08-12T14:46:04.000Z</time>
      </trkpt>
      <trkpt lat="45.21847" lon="5.73344">
        <ele>1045</ele>
        <time>2026-08-12T14:46:05.000Z</time>
      </trkpt>
      <trkpt lat="45.21847" lon="5.73344">
        <ele>1045.8000488281</ele>
        <time>2026-08-12T14:46:06.000Z</time>
      </trkpt>
      <trkpt lat="45.21847" lon="5.73344">
        <ele>1046.4000244141</ele>
        <time>2026-08-12T14:46:07.000Z</time>
      </trkpt>
      <trkpt lat="45.21847" lon="5.73344">
        <ele>1046.1999511719</ele>
        <time>2026-08-12T14:46:08.000Z</time>
      </trkpt>
      <trkpt lat="45.21847" lon="5.73344">
        <ele>1046</ele>
        <time>2026-08-12T14:46:09.000Z</time>
      </trkpt>
      <trkpt lat="45.21847" lon="5.73344">
        <ele>1045.5999755859</ele>
        <time>2026-08-12T14:46:10.000Z</time>
      </trkpt>
      <trkpt lat="45.21847" lon="5.73344">
        <ele>1045.1999511719</ele>
        <time>2026-08-12T14:46:11.000Z</time>
      </trkpt>
      <trkpt lat="45.21847" lon="5.73344">
        <ele>1044.8000488281</ele>
        <time>2026-08-12T14:46:12.000Z</time>
      </trkpt>
      <trkpt lat="45.21847" lon="5.73344">
        <ele>1044.4000244141</ele>
        <time>2026-08-12T14:46:13.000Z</time>
      </trkpt>
      <trkpt lat="45.21847" lon="5.73344">
        <ele>1044.1999511719</ele>
        <time>2026-08-12T14:46:14.000Z</time>
      </trkpt>
      <trkpt lat="45.21847" lon="5.73344">
        <ele>1044.1999511719</ele>
        <time>2026-08-12T14:46:15.000Z</time>
      </trkpt>
      <trkpt lat="45.21847" lon="5.73344">
        <ele>1044.1999511719</ele>
        <time>2026-08-12T14:46:16.000Z</time>
      </trkpt>
      <trkpt lat="45.21847" lon="5.73344">
        <ele>1044.1999511719</ele>
        <time>2026-08-12T14:46:17.000Z</time>
      </trkpt>
      <trkpt lat="45.21847" lon="5.73344">
        <ele>1044.1999511719</ele>
        <time>2026-08-12T14:46:18.000Z</time>
      </trkpt>
      <trkpt lat="45.21847" lon="5.73344">
        <ele>1044.4000244141</ele>
        <time>2026-08-12T14:46:19.000Z</time>
      </trkpt>
      <trkpt lat="45.21847" lon="5.73344">
        <ele>1044.5999755859</ele>
        <time>2026-08-12T14:46:20.000Z</time>
      </trkpt>
      <trkpt lat="45.21847" lon="5.73344">
        <ele>1044.5999755859</ele>
        <time>2026-08-12T14:46:21.000Z</time>
      </trkpt>
      <trkpt lat="45.21847" lon="5.73344">
        <ele>1044.8000488281</ele>
        <time>2026-08-12T14:46:22.000Z</time>
      </trkpt>
      <trkpt lat="45.21847" lon="5.73344">
        <ele>1045</ele>
        <time>2026-08-12T14:46:23.000Z</time>
      </trkpt>
      <trkpt lat="45.21847" lon="5.73344">
        <ele>1045.1999511719</ele>
        <time>2026-08-12T14:46:24.000Z</time>
      </trkpt>
      <trkpt lat="45.21847" lon="5.73344">
        <ele>1045.1999511719</ele>
        <time>2026-08-12T14:46:25.000Z</time>
      </trkpt>
      <trkpt lat="45.21847" lon="5.73344">
        <ele>1045.4000244141</ele>
        <time>2026-08-12T14:46:26.000Z</time>
      </trkpt>
      <trkpt lat="45.21847" lon="5.73345">
        <ele>1045</ele>
        <time>2026-08-12T14:46:27.000Z</time>
      </trkpt>
      <trkpt lat="45.21847" lon="5.73346">
        <ele>1044.5999755859</ele>
        <time>2026-08-12T14:46:28.000Z</time>
      </trkpt>
      <trkpt lat="45.21847" lon="5.73346">
        <ele>1044</ele>
        <time>2026-08-12T14:46:29.000Z</time>
      </trkpt>
      <trkpt lat="45.21846" lon="5.73346">
        <ele>1043.5999755859</ele>
        <time>2026-08-12T14:46:30.000Z</time>
      </trkpt>
      <trkpt lat="45.21846" lon="5.73346">
        <ele>1043.1999511719</ele>
        <time>2026-08-12T14:46:31.000Z</time>
      </trkpt>
      <trkpt lat="45.21846" lon="5.73345">
        <ele>1043.5999755859</ele>
        <time>2026-08-12T14:46:32.000Z</time>
      </trkpt>
      <trkpt lat="45.21845" lon="5.73345">
        <ele>1044</ele>
        <time>2026-08-12T14:46:33.000Z</time>
      </trkpt>
      <trkpt lat="45.21845" lon="5.73344">
        <ele>1044.4000244141</ele>
        <time>2026-08-12T14:46:34.000Z</time>
      </trkpt>
      <trkpt lat="45.21845" lon="5.73344">
        <ele>1044.4000244141</ele>
        <time>2026-08-12T14:46:35.000Z</time>
      </trkpt>
      <trkpt lat="45.21845" lon="5.73344">
        <ele>1044.8000488281</ele>
        <time>2026-08-12T14:46:36.000Z</time>
      </trkpt>
      <trkpt lat="45.21845" lon="5.73344">
        <ele>1045.5999755859</ele>
        <time>2026-08-12T14:46:37.000Z</time>
      </trkpt>
      <trkpt lat="45.21845" lon="5.73344">
        <ele>1045.8000488281</ele>
        <time>2026-08-12T14:46:38.000Z</time>
      </trkpt>
      <trkpt lat="45.21845" lon="5.73344">
        <ele>1046.1999511719</ele>
        <time>2026-08-12T14:46:39.000Z</time>
      </trkpt>
      <trkpt lat="45.21845" lon="5.73344">
        <ele>1046.4000244141</ele>
        <time>2026-08-12T14:46:40.000Z</time>
      </trkpt>
      <trkpt lat="45.21845" lon="5.73344">
        <ele>1046.1999511719</ele>
        <time>2026-08-12T14:46:41.000Z</time>
      </trkpt>
      <trkpt lat="45.21845" lon="5.73344">
        <ele>1045.8000488281</ele>
        <time>2026-08-12T14:46:42.000Z</time>
      </trkpt>
      <trkpt lat="45.21845" lon="5.73344">
        <ele>1045.5999755859</ele>
        <time>2026-08-12T14:46:43.000Z</time>
      </trkpt>
      <trkpt lat="45.21845" lon="5.73344">
        <ele>1045.5999755859</ele>
        <time>2026-08-12T14:46:44.000Z</time>
      </trkpt>
      <trkpt lat="45.21845" lon="5.73344">
        <ele>1045.5999755859</ele>
        <time>2026-08-12T14:46:45.000Z</time>
      </trkpt>
      <trkpt lat="45.21845" lon="5.73344">
        <ele>1046</ele>
        <time>2026-08-12T14:46:46.000Z</time>
      </trkpt>
      <trkpt lat="45.21845" lon="5.73344">
        <ele>1046.4000244141</ele>
        <time>2026-08-12T14:46:47.000Z</time>
      </trkpt>
      <trkpt lat="45.21845" lon="5.73344">
        <ele>1047.1999511719</ele>
        <time>2026-08-12T14:46:48.000Z</time>
      </trkpt>
      <trkpt lat="45.21845" lon="5.73344">
        <ele>1047.1999511719</ele>
        <time>2026-08-12T14:46:49.000Z</time>
      </trkpt>
      <trkpt lat="45.21844" lon="5.73343">
        <ele>1047.1999511719</ele>
        <time>2026-08-12T14:46:50.000Z</time>
      </trkpt>
      <trkpt lat="45.21844" lon="5.73342">
        <ele>1047.1999511719</ele>
        <time>2026-08-12T14:46:51.000Z</time>
      </trkpt>
      <trkpt lat="45.21842" lon="5.73341">
        <ele>1047.1999511719</ele>
        <time>2026-08-12T14:46:52.000Z</time>
      </trkpt>
      <trkpt lat="45.21842" lon="5.73339">
        <ele>1046.5999755859</ele>
        <time>2026-08-12T14:46:53.000Z</time>
      </trkpt>
      <trkpt lat="45.21841" lon="5.73338">
        <ele>1046.1999511719</ele>
        <time>2026-08-12T14:46:54.000Z</time>
      </trkpt>
      <trkpt lat="45.2184" lon="5.73337">
        <ele>1045.5999755859</ele>
        <time>2026-08-12T14:46:55.000Z</time>
      </trkpt>
      <trkpt lat="45.21839" lon="5.73336">
        <ele>1045.1999511719</ele>
        <time>2026-08-12T14:46:56.000Z</time>
      </trkpt>
      <trkpt lat="45.21838" lon="5.73335">
        <ele>1044.5999755859</ele>
        <time>2026-08-12T14:46:57.000Z</time>
      </trkpt>
      <trkpt lat="45.21837" lon="5.73334">
        <ele>1044.1999511719</ele>
        <time>2026-08-12T14:46:58.000Z</time>
      </trkpt>
      <trkpt lat="45.21837" lon="5.73334">
        <ele>1043.5999755859</ele>
        <time>2026-08-12T14:46:59.000Z</time>
      </trkpt>
      <trkpt lat="45.21836" lon="5.73333">
        <ele>1043.1999511719</ele>
        <time>2026-08-12T14:47:00.000Z</time>
      </trkpt>
      <trkpt lat="45.21836" lon="5.73332">
        <ele>1042.5999755859</ele>
        <time>2026-08-12T14:47:01.000Z</time>
      </trkpt>
      <trkpt lat="45.21834" lon="5.73332">
        <ele>1041.5999755859</ele>
        <time>2026-08-12T14:47:02.000Z</time>
      </trkpt>
      <trkpt lat="45.21833" lon="5.73331">
        <ele>1041.4000244141</ele>
        <time>2026-08-12T14:47:03.000Z</time>
      </trkpt>
      <trkpt lat="45.21833" lon="5.7333">
        <ele>1041.1999511719</ele>
        <time>2026-08-12T14:47:04.000Z</time>
      </trkpt>
      <trkpt lat="45.21832" lon="5.73329">
        <ele>1040.8000488281</ele>
        <time>2026-08-12T14:47:05.000Z</time>
      </trkpt>
      <trkpt lat="45.21831" lon="5.73328">
        <ele>1040.5999755859</ele>
        <time>2026-08-12T14:47:06.000Z</time>
      </trkpt>
      <trkpt lat="45.21831" lon="5.73327">
        <ele>1039.4000244141</ele>
        <time>2026-08-12T14:47:07.000Z</time>
      </trkpt>
      <trkpt lat="45.2183" lon="5.73327">
        <ele>1038</ele>
        <time>2026-08-12T14:47:08.000Z</time>
      </trkpt>
      <trkpt lat="45.21829" lon="5.73326">
        <ele>1036.8000488281</ele>
        <time>2026-08-12T14:47:09.000Z</time>
      </trkpt>
      <trkpt lat="45.21829" lon="5.73326">
        <ele>1036.1999511719</ele>
        <time>2026-08-12T14:47:10.000Z</time>
      </trkpt>
      <trkpt lat="45.21829" lon="5.73325">
        <ele>1035.4000244141</ele>
        <time>2026-08-12T14:47:11.000Z</time>
      </trkpt>
      <trkpt lat="45.21828" lon="5.73324">
        <ele>1034.8000488281</ele>
        <time>2026-08-12T14:47:12.000Z</time>
      </trkpt>
      <trkpt lat="45.21827" lon="5.73323">
        <ele>1033.8000488281</ele>
        <time>2026-08-12T14:47:13.000Z</time>
      </trkpt>
      <trkpt lat="45.21826" lon="5.73322">
        <ele>1032.1999511719</ele>
        <time>2026-08-12T14:47:14.000Z</time>
      </trkpt>
      <trkpt lat="45.21826" lon="5.73322">
        <ele>1032.1999511719</ele>
        <time>2026-08-12T14:47:15.000Z</time>
      </trkpt>
      <trkpt lat="45.21825" lon="5.73321">
        <ele>1032</ele>
        <time>2026-08-12T14:47:16.000Z</time>
      </trkpt>
      <trkpt lat="45.21824" lon="5.73321">
        <ele>1031.8000488281</ele>
        <time>2026-08-12T14:47:17.000Z</time>
      </trkpt>
      <trkpt lat="45.21824" lon="5.7332">
        <ele>1031.1999511719</ele>
        <time>2026-08-12T14:47:18.000Z</time>
      </trkpt>
      <trkpt lat="45.21823" lon="5.73318">
        <ele>1030.5999755859</ele>
        <time>2026-08-12T14:47:19.000Z</time>
      </trkpt>
      <trkpt lat="45.21823" lon="5.73318">
        <ele>1030.1999511719</ele>
        <time>2026-08-12T14:47:20.000Z</time>
      </trkpt>
      <trkpt lat="45.21822" lon="5.73318">
        <ele>1030</ele>
        <time>2026-08-12T14:47:21.000Z</time>
      </trkpt>
      <trkpt lat="45.21821" lon="5.73317">
        <ele>1029.5999755859</ele>
        <time>2026-08-12T14:47:22.000Z</time>
      </trkpt>
      <trkpt lat="45.2182" lon="5.73316">
        <ele>1029.4000244141</ele>
        <time>2026-08-12T14:47:23.000Z</time>
      </trkpt>
      <trkpt lat="45.21819" lon="5.73314">
        <ele>1029</ele>
        <time>2026-08-12T14:47:24.000Z</time>
      </trkpt>
      <trkpt lat="45.21818" lon="5.73314">
        <ele>1028</ele>
        <time>2026-08-12T14:47:25.000Z</time>
      </trkpt>
      <trkpt lat="45.21817" lon="5.73314">
        <ele>1028</ele>
        <time>2026-08-12T14:47:26.000Z</time>
      </trkpt>
      <trkpt lat="45.21815" lon="5.73313">
        <ele>1027.8000488281</ele>
        <time>2026-08-12T14:47:27.000Z</time>
      </trkpt>
      <trkpt lat="45.21814" lon="5.73312">
        <ele>1027.8000488281</ele>
        <time>2026-08-12T14:47:28.000Z</time>
      </trkpt>
      <trkpt lat="45.21813" lon="5.73312">
        <ele>1027.5999755859</ele>
        <time>2026-08-12T14:47:29.000Z</time>
      </trkpt>
      <trkpt lat="45.21813" lon="5.73311">
        <ele>1028.5999755859</ele>
        <time>2026-08-12T14:47:30.000Z</time>
      </trkpt>
      <trkpt lat="45.21812" lon="5.7331">
        <ele>1030</ele>
        <time>2026-08-12T14:47:31.000Z</time>
      </trkpt>
      <trkpt lat="45.21811" lon="5.73309">
        <ele>1030.5999755859</ele>
        <time>2026-08-12T14:47:32.000Z</time>
      </trkpt>
      <trkpt lat="45.21811" lon="5.73308">
        <ele>1031</ele>
        <time>2026-08-12T14:47:33.000Z</time>
      </trkpt>
      <trkpt lat="45.2181" lon="5.73306">
        <ele>1031.4000244141</ele>
        <time>2026-08-12T14:47:34.000Z</time>
      </trkpt>
      <trkpt lat="45.2181" lon="5.73305">
        <ele>1032.1999511719</ele>
        <time>2026-08-12T14:47:35.000Z</time>
      </trkpt>
      <trkpt lat="45.21808" lon="5.73304">
        <ele>1032.5999755859</ele>
        <time>2026-08-12T14:47:36.000Z</time>
      </trkpt>
      <trkpt lat="45.21807" lon="5.73302">
        <ele>1033.5999755859</ele>
        <time>2026-08-12T14:47:37.000Z</time>
      </trkpt>
      <trkpt lat="45.21806" lon="5.73301">
        <ele>1033.5999755859</ele>
        <time>2026-08-12T14:47:38.000Z</time>
      </trkpt>
      <trkpt lat="45.21805" lon="5.733">
        <ele>1033.8000488281</ele>
        <time>2026-08-12T14:47:39.000Z</time>
      </trkpt>
      <trkpt lat="45.21803" lon="5.733">
        <ele>1033.5999755859</ele>
        <time>2026-08-12T14:47:40.000Z</time>
      </trkpt>
      <trkpt lat="45.21802" lon="5.73299">
        <ele>1033.1999511719</ele>
        <time>2026-08-12T14:47:41.000Z</time>
      </trkpt>
      <trkpt lat="45.21801" lon="5.73298">
        <ele>1033</ele>
        <time>2026-08-12T14:47:42.000Z</time>
      </trkpt>
      <trkpt lat="45.218" lon="5.73297">
        <ele>1032.5999755859</ele>
        <time>2026-08-12T14:47:43.000Z</time>
      </trkpt>
      <trkpt lat="45.218" lon="5.73296">
        <ele>1031.8000488281</ele>
        <time>2026-08-12T14:47:44.000Z</time>
      </trkpt>
      <trkpt lat="45.21799" lon="5.73295">
        <ele>1030.5999755859</ele>
        <time>2026-08-12T14:47:45.000Z</time>
      </trkpt>
      <trkpt lat="45.21798" lon="5.73294">
        <ele>1029</ele>
        <time>2026-08-12T14:47:46.000Z</time>
      </trkpt>
      <trkpt lat="45.21797" lon="5.73292">
        <ele>1028.8000488281</ele>
        <time>2026-08-12T14:47:47.000Z</time>
      </trkpt>
      <trkpt lat="45.21797" lon="5.7329">
        <ele>1028.5999755859</ele>
        <time>2026-08-12T14:47:48.000Z</time>
      </trkpt>
      <trkpt lat="45.21796" lon="5.73289">
        <ele>1028.5999755859</ele>
        <time>2026-08-12T14:47:49.000Z</time>
      </trkpt>
      <trkpt lat="45.21795" lon="5.73288">
        <ele>1028.4000244141</ele>
        <time>2026-08-12T14:47:50.000Z</time>
      </trkpt>
      <trkpt lat="45.21794" lon="5.73287">
        <ele>1028.1999511719</ele>
        <time>2026-08-12T14:47:51.000Z</time>
      </trkpt>
      <trkpt lat="45.21793" lon="5.73286">
        <ele>1028</ele>
        <time>2026-08-12T14:47:52.000Z</time>
      </trkpt>
      <trkpt lat="45.21792" lon="5.73286">
        <ele>1027.8000488281</ele>
        <time>2026-08-12T14:47:53.000Z</time>
      </trkpt>
      <trkpt lat="45.21791" lon="5.73286">
        <ele>1027.4000244141</ele>
        <time>2026-08-12T14:47:54.000Z</time>
      </trkpt>
      <trkpt lat="45.2179" lon="5.73285">
        <ele>1027.1999511719</ele>
        <time>2026-08-12T14:47:55.000Z</time>
      </trkpt>
      <trkpt lat="45.21789" lon="5.73284">
        <ele>1026.1999511719</ele>
        <time>2026-08-12T14:47:56.000Z</time>
      </trkpt>
      <trkpt lat="45.21788" lon="5.73283">
        <ele>1025.8000488281</ele>
        <time>2026-08-12T14:47:57.000Z</time>
      </trkpt>
      <trkpt lat="45.21787" lon="5.73282">
        <ele>1025.4000244141</ele>
        <time>2026-08-12T14:47:58.000Z</time>
      </trkpt>
      <trkpt lat="45.21786" lon="5.73282">
        <ele>1025</ele>
        <time>2026-08-12T14:47:59.000Z</time>
      </trkpt>
      <trkpt lat="45.21786" lon="5.73281">
        <ele>1023.799987793</ele>
        <time>2026-08-12T14:48:00.000Z</time>
      </trkpt>
      <trkpt lat="45.21786" lon="5.73281">
        <ele>1023.4000244141</ele>
        <time>2026-08-12T14:48:01.000Z</time>
      </trkpt>
      <trkpt lat="45.21785" lon="5.73282">
        <ele>1022.799987793</ele>
        <time>2026-08-12T14:48:02.000Z</time>
      </trkpt>
      <trkpt lat="45.21784" lon="5.73282">
        <ele>1022.4000244141</ele>
        <time>2026-08-12T14:48:03.000Z</time>
      </trkpt>
      <trkpt lat="45.21783" lon="5.73281">
        <ele>1022.5999755859</ele>
        <time>2026-08-12T14:48:04.000Z</time>
      </trkpt>
      <trkpt lat="45.21782" lon="5.73279">
        <ele>1022.799987793</ele>
        <time>2026-08-12T14:48:05.000Z</time>
      </trkpt>
      <trkpt lat="45.21782" lon="5.73278">
        <ele>1023.200012207</ele>
        <time>2026-08-12T14:48:06.000Z</time>
      </trkpt>
      <trkpt lat="45.21781" lon="5.73276">
        <ele>1023.4000244141</ele>
        <time>2026-08-12T14:48:07.000Z</time>
      </trkpt>
      <trkpt lat="45.2178" lon="5.73274">
        <ele>1025.1999511719</ele>
        <time>2026-08-12T14:48:08.000Z</time>
      </trkpt>
      <trkpt lat="45.21779" lon="5.73273">
        <ele>1025.8000488281</ele>
        <time>2026-08-12T14:48:09.000Z</time>
      </trkpt>
      <trkpt lat="45.21778" lon="5.73272">
        <ele>1026.4000244141</ele>
        <time>2026-08-12T14:48:10.000Z</time>
      </trkpt>
      <trkpt lat="45.21777" lon="5.73271">
        <ele>1026.5999755859</ele>
        <time>2026-08-12T14:48:11.000Z</time>
      </trkpt>
      <trkpt lat="45.21776" lon="5.7327">
        <ele>1027</ele>
        <time>2026-08-12T14:48:12.000Z</time>
      </trkpt>
      <trkpt lat="45.21775" lon="5.73269">
        <ele>1027.1999511719</ele>
        <time>2026-08-12T14:48:13.000Z</time>
      </trkpt>
      <trkpt lat="45.21774" lon="5.73269">
        <ele>1027.4000244141</ele>
        <time>2026-08-12T14:48:14.000Z</time>
      </trkpt>
      <trkpt lat="45.21774" lon="5.73269">
        <ele>1027.4000244141</ele>
        <time>2026-08-12T14:48:15.000Z</time>
      </trkpt>
      <trkpt lat="45.21773" lon="5.73268">
        <ele>1027.5999755859</ele>
        <time>2026-08-12T14:48:16.000Z</time>
      </trkpt>
      <trkpt lat="45.21772" lon="5.73269">
        <ele>1027.8000488281</ele>
        <time>2026-08-12T14:48:17.000Z</time>
      </trkpt>
      <trkpt lat="45.21771" lon="5.73269">
        <ele>1028</ele>
        <time>2026-08-12T14:48:18.000Z</time>
      </trkpt>
      <trkpt lat="45.21771" lon="5.73268">
        <ele>1028.1999511719</ele>
        <time>2026-08-12T14:48:19.000Z</time>
      </trkpt>
      <trkpt lat="45.2177" lon="5.73267">
        <ele>1028.1999511719</ele>
        <time>2026-08-12T14:48:20.000Z</time>
      </trkpt>
      <trkpt lat="45.21769" lon="5.73266">
        <ele>1028.4000244141</ele>
        <time>2026-08-12T14:48:21.000Z</time>
      </trkpt>
      <trkpt lat="45.21768" lon="5.73265">
        <ele>1028.5999755859</ele>
        <time>2026-08-12T14:48:22.000Z</time>
      </trkpt>
      <trkpt lat="45.21768" lon="5.73264">
        <ele>1029.4000244141</ele>
        <time>2026-08-12T14:48:23.000Z</time>
      </trkpt>
      <trkpt lat="45.21767" lon="5.73262">
        <ele>1029.5999755859</ele>
        <time>2026-08-12T14:48:24.000Z</time>
      </trkpt>
      <trkpt lat="45.21767" lon="5.73261">
        <ele>1030.4000244141</ele>
        <time>2026-08-12T14:48:25.000Z</time>
      </trkpt>
      <trkpt lat="45.21766" lon="5.7326">
        <ele>1030.4000244141</ele>
        <time>2026-08-12T14:48:26.000Z</time>
      </trkpt>
      <trkpt lat="45.21766" lon="5.73259">
        <ele>1030.5999755859</ele>
        <time>2026-08-12T14:48:27.000Z</time>
      </trkpt>
      <trkpt lat="45.21765" lon="5.73258">
        <ele>1030.8000488281</ele>
        <time>2026-08-12T14:48:28.000Z</time>
      </trkpt>
      <trkpt lat="45.21764" lon="5.73256">
        <ele>1031</ele>
        <time>2026-08-12T14:48:29.000Z</time>
      </trkpt>
      <trkpt lat="45.21764" lon="5.73256">
        <ele>1030.8000488281</ele>
        <time>2026-08-12T14:48:30.000Z</time>
      </trkpt>
      <trkpt lat="45.21764" lon="5.73255">
        <ele>1030.4000244141</ele>
        <time>2026-08-12T14:48:31.000Z</time>
      </trkpt>
      <trkpt lat="45.21764" lon="5.73255">
        <ele>1029.8000488281</ele>
        <time>2026-08-12T14:48:32.000Z</time>
      </trkpt>
      <trkpt lat="45.21764" lon="5.73254">
        <ele>1029.4000244141</ele>
        <time>2026-08-12T14:48:33.000Z</time>
      </trkpt>
      <trkpt lat="45.21764" lon="5.73253">
        <ele>1029.1999511719</ele>
        <time>2026-08-12T14:48:34.000Z</time>
      </trkpt>
      <trkpt lat="45.21763" lon="5.73252">
        <ele>1028.8000488281</ele>
        <time>2026-08-12T14:48:35.000Z</time>
      </trkpt>
      <trkpt lat="45.21762" lon="5.73251">
        <ele>1028.5999755859</ele>
        <time>2026-08-12T14:48:36.000Z</time>
      </trkpt>
      <trkpt lat="45.21762" lon="5.7325">
        <ele>1028.1999511719</ele>
        <time>2026-08-12T14:48:37.000Z</time>
      </trkpt>
      <trkpt lat="45.21761" lon="5.7325">
        <ele>1027.8000488281</ele>
        <time>2026-08-12T14:48:38.000Z</time>
      </trkpt>
      <trkpt lat="45.21761" lon="5.73249">
        <ele>1027</ele>
        <time>2026-08-12T14:48:39.000Z</time>
      </trkpt>
      <trkpt lat="45.2176" lon="5.73249">
        <ele>1027.1999511719</ele>
        <time>2026-08-12T14:48:40.000Z</time>
      </trkpt>
      <trkpt lat="45.2176" lon="5.73249">
        <ele>1027.5999755859</ele>
        <time>2026-08-12T14:48:41.000Z</time>
      </trkpt>
      <trkpt lat="45.2176" lon="5.73249">
        <ele>1027.8000488281</ele>
        <time>2026-08-12T14:48:42.000Z</time>
      </trkpt>
      <trkpt lat="45.21759" lon="5.73248">
        <ele>1029</ele>
        <time>2026-08-12T14:48:43.000Z</time>
      </trkpt>
      <trkpt lat="45.21758" lon="5.73246">
        <ele>1030.1999511719</ele>
        <time>2026-08-12T14:48:44.000Z</time>
      </trkpt>
      <trkpt lat="45.21758" lon="5.73246">
        <ele>1030.5999755859</ele>
        <time>2026-08-12T14:48:45.000Z</time>
      </trkpt>
      <trkpt lat="45.21758" lon="5.73245">
        <ele>1030.8000488281</ele>
        <time>2026-08-12T14:48:46.000Z</time>
      </trkpt>
      <trkpt lat="45.21758" lon="5.73245">
        <ele>1031.4000244141</ele>
        <time>2026-08-12T14:48:47.000Z</time>
      </trkpt>
      <trkpt lat="45.21759" lon="5.73244">
        <ele>1031.8000488281</ele>
        <time>2026-08-12T14:48:48.000Z</time>
      </trkpt>
      <trkpt lat="45.21758" lon="5.73244">
        <ele>1032</ele>
        <time>2026-08-12T14:48:49.000Z</time>
      </trkpt>
      <trkpt lat="45.21758" lon="5.73245">
        <ele>1032.1999511719</ele>
        <time>2026-08-12T14:48:50.000Z</time>
      </trkpt>
      <trkpt lat="45.21757" lon="5.73244">
        <ele>1032.4000244141</ele>
        <time>2026-08-12T14:48:51.000Z</time>
      </trkpt>
      <trkpt lat="45.21756" lon="5.73243">
        <ele>1032.8000488281</ele>
        <time>2026-08-12T14:48:52.000Z</time>
      </trkpt>
      <trkpt lat="45.21756" lon="5.73242">
        <ele>1033</ele>
        <time>2026-08-12T14:48:53.000Z</time>
      </trkpt>
      <trkpt lat="45.21755" lon="5.73242">
        <ele>1033</ele>
        <time>2026-08-12T14:48:54.000Z</time>
      </trkpt>
      <trkpt lat="45.21755" lon="5.73242">
        <ele>1033.1999511719</ele>
        <time>2026-08-12T14:48:55.000Z</time>
      </trkpt>
      <trkpt lat="45.21755" lon="5.73242">
        <ele>1033.1999511719</ele>
        <time>2026-08-12T14:48:56.000Z</time>
      </trkpt>
      <trkpt lat="45.21755" lon="5.73242">
        <ele>1033.8000488281</ele>
        <time>2026-08-12T14:48:57.000Z</time>
      </trkpt>
      <trkpt lat="45.21755" lon="5.73242">
        <ele>1034.5999755859</ele>
        <time>2026-08-12T14:48:58.000Z</time>
      </trkpt>
      <trkpt lat="45.21754" lon="5.73242">
        <ele>1035</ele>
        <time>2026-08-12T14:48:59.000Z</time>
      </trkpt>
      <trkpt lat="45.21754" lon="5.73242">
        <ele>1035</ele>
        <time>2026-08-12T14:49:00.000Z</time>
      </trkpt>
      <trkpt lat="45.21754" lon="5.73241">
        <ele>1035.1999511719</ele>
        <time>2026-08-12T14:49:01.000Z</time>
      </trkpt>
      <trkpt lat="45.21753" lon="5.73241">
        <ele>1035.1999511719</ele>
        <time>2026-08-12T14:49:02.000Z</time>
      </trkpt>
      <trkpt lat="45.21753" lon="5.73241">
        <ele>1035.4000244141</ele>
        <time>2026-08-12T14:49:03.000Z</time>
      </trkpt>
      <trkpt lat="45.21752" lon="5.7324">
        <ele>1035.4000244141</ele>
        <time>2026-08-12T14:49:04.000Z</time>
      </trkpt>
      <trkpt lat="45.21752" lon="5.7324">
        <ele>1035.1999511719</ele>
        <time>2026-08-12T14:49:05.000Z</time>
      </trkpt>
      <trkpt lat="45.21751" lon="5.7324">
        <ele>1035.1999511719</ele>
        <time>2026-08-12T14:49:06.000Z</time>
      </trkpt>
      <trkpt lat="45.21751" lon="5.73239">
        <ele>1035</ele>
        <time>2026-08-12T14:49:07.000Z</time>
      </trkpt>
      <trkpt lat="45.21751" lon="5.73239">
        <ele>1035</ele>
        <time>2026-08-12T14:49:08.000Z</time>
      </trkpt>
      <trkpt lat="45.21751" lon="5.73238">
        <ele>1035</ele>
        <time>2026-08-12T14:49:09.000Z</time>
      </trkpt>
      <trkpt lat="45.2175" lon="5.73237">
        <ele>1034.8000488281</ele>
        <time>2026-08-12T14:49:10.000Z</time>
      </trkpt>
      <trkpt lat="45.21749" lon="5.73236">
        <ele>1034.5999755859</ele>
        <time>2026-08-12T14:49:11.000Z</time>
      </trkpt>
      <trkpt lat="45.21749" lon="5.73235">
        <ele>1034.4000244141</ele>
        <time>2026-08-12T14:49:12.000Z</time>
      </trkpt>
      <trkpt lat="45.21748" lon="5.73234">
        <ele>1034</ele>
        <time>2026-08-12T14:49:13.000Z</time>
      </trkpt>
      <trkpt lat="45.21748" lon="5.73233">
        <ele>1033.8000488281</ele>
        <time>2026-08-12T14:49:14.000Z</time>
      </trkpt>
      <trkpt lat="45.21748" lon="5.73232">
        <ele>1033.1999511719</ele>
        <time>2026-08-12T14:49:15.000Z</time>
      </trkpt>
      <trkpt lat="45.21747" lon="5.73231">
        <ele>1033</ele>
        <time>2026-08-12T14:49:16.000Z</time>
      </trkpt>
      <trkpt lat="45.21747" lon="5.73231">
        <ele>1032.5999755859</ele>
        <time>2026-08-12T14:49:17.000Z</time>
      </trkpt>
      <trkpt lat="45.21746" lon="5.7323">
        <ele>1032.5999755859</ele>
        <time>2026-08-12T14:49:18.000Z</time>
      </trkpt>
      <trkpt lat="45.21746" lon="5.7323">
        <ele>1032</ele>
        <time>2026-08-12T14:49:19.000Z</time>
      </trkpt>
      <trkpt lat="45.21745" lon="5.73229">
        <ele>1032</ele>
        <time>2026-08-12T14:49:20.000Z</time>
      </trkpt>
      <trkpt lat="45.21745" lon="5.73229">
        <ele>1031.8000488281</ele>
        <time>2026-08-12T14:49:21.000Z</time>
      </trkpt>
      <trkpt lat="45.21745" lon="5.73229">
        <ele>1031.8000488281</ele>
        <time>2026-08-12T14:49:22.000Z</time>
      </trkpt>
      <trkpt lat="45.21745" lon="5.73229">
        <ele>1031.8000488281</ele>
        <time>2026-08-12T14:49:23.000Z</time>
      </trkpt>
      <trkpt lat="45.21745" lon="5.73229">
        <ele>1031.8000488281</ele>
        <time>2026-08-12T14:49:24.000Z</time>
      </trkpt>
      <trkpt lat="45.21745" lon="5.73229">
        <ele>1031.5999755859</ele>
        <time>2026-08-12T14:49:25.000Z</time>
      </trkpt>
      <trkpt lat="45.21745" lon="5.73229">
        <ele>1031.8000488281</ele>
        <time>2026-08-12T14:49:26.000Z</time>
      </trkpt>
      <trkpt lat="45.21745" lon="5.73229">
        <ele>1031.8000488281</ele>
        <time>2026-08-12T14:49:27.000Z</time>
      </trkpt>
      <trkpt lat="45.21745" lon="5.73229">
        <ele>1031.8000488281</ele>
        <time>2026-08-12T14:49:28.000Z</time>
      </trkpt>
      <trkpt lat="45.21745" lon="5.73229">
        <ele>1031.8000488281</ele>
        <time>2026-08-12T14:49:29.000Z</time>
      </trkpt>
      <trkpt lat="45.21745" lon="5.73229">
        <ele>1031.8000488281</ele>
        <time>2026-08-12T14:49:30.000Z</time>
      </trkpt>
      <trkpt lat="45.21745" lon="5.73229">
        <ele>1031.8000488281</ele>
        <time>2026-08-12T14:49:31.000Z</time>
      </trkpt>
      <trkpt lat="45.21745" lon="5.73229">
        <ele>1031.5999755859</ele>
        <time>2026-08-12T14:49:32.000Z</time>
      </trkpt>
      <trkpt lat="45.21745" lon="5.73228">
        <ele>1031.5999755859</ele>
        <time>2026-08-12T14:49:33.000Z</time>
      </trkpt>
      <trkpt lat="45.21744" lon="5.73228">
        <ele>1031.5999755859</ele>
        <time>2026-08-12T14:49:34.000Z</time>
      </trkpt>
      <trkpt lat="45.21745" lon="5.73229">
        <ele>1031.4000244141</ele>
        <time>2026-08-12T14:49:35.000Z</time>
      </trkpt>
      <trkpt lat="45.21745" lon="5.73228">
        <ele>1031.4000244141</ele>
        <time>2026-08-12T14:49:36.000Z</time>
      </trkpt>
      <trkpt lat="45.21745" lon="5.73227">
        <ele>1031.4000244141</ele>
        <time>2026-08-12T14:49:37.000Z</time>
      </trkpt>
      <trkpt lat="45.21745" lon="5.73226">
        <ele>1031.1999511719</ele>
        <time>2026-08-12T14:49:38.000Z</time>
      </trkpt>
      <trkpt lat="45.21745" lon="5.73226">
        <ele>1031.1999511719</ele>
        <time>2026-08-12T14:49:39.000Z</time>
      </trkpt>
      <trkpt lat="45.21745" lon="5.73225">
        <ele>1031.1999511719</ele>
        <time>2026-08-12T14:49:40.000Z</time>
      </trkpt>
      <trkpt lat="45.21745" lon="5.73225">
        <ele>1031</ele>
        <time>2026-08-12T14:49:41.000Z</time>
      </trkpt>
      <trkpt lat="45.21745" lon="5.73225">
        <ele>1030.8000488281</ele>
        <time>2026-08-12T14:49:42.000Z</time>
      </trkpt>
      <trkpt lat="45.21745" lon="5.73224">
        <ele>1030.5999755859</ele>
        <time>2026-08-12T14:49:43.000Z</time>
      </trkpt>
      <trkpt lat="45.21744" lon="5.73224">
        <ele>1030.1999511719</ele>
        <time>2026-08-12T14:49:44.000Z</time>
      </trkpt>
      <trkpt lat="45.21744" lon="5.73224">
        <ele>1029.5999755859</ele>
        <time>2026-08-12T14:49:45.000Z</time>
      </trkpt>
      <trkpt lat="45.21744" lon="5.73224">
        <ele>1029.1999511719</ele>
        <time>2026-08-12T14:49:46.000Z</time>
      </trkpt>
      <trkpt lat="45.21744" lon="5.73224">
        <ele>1028.8000488281</ele>
        <time>2026-08-12T14:49:47.000Z</time>
      </trkpt>
      <trkpt lat="45.21744" lon="5.73224">
        <ele>1028.1999511719</ele>
        <time>2026-08-12T14:49:48.000Z</time>
      </trkpt>
      <trkpt lat="45.21744" lon="5.73224">
        <ele>1027.5999755859</ele>
        <time>2026-08-12T14:49:49.000Z</time>
      </trkpt>
      <trkpt lat="45.21744" lon="5.73224">
        <ele>1027</ele>
        <time>2026-08-12T14:49:50.000Z</time>
      </trkpt>
      <trkpt lat="45.21744" lon="5.73224">
        <ele>1026.5999755859</ele>
        <time>2026-08-12T14:49:51.000Z</time>
      </trkpt>
      <trkpt lat="45.21743" lon="5.73224">
        <ele>1026.1999511719</ele>
        <time>2026-08-12T14:49:52.000Z</time>
      </trkpt>
      <trkpt lat="45.21742" lon="5.73223">
        <ele>1025.8000488281</ele>
        <time>2026-08-12T14:49:53.000Z</time>
      </trkpt>
      <trkpt lat="45.21741" lon="5.73222">
        <ele>1025.5999755859</ele>
        <time>2026-08-12T14:49:54.000Z</time>
      </trkpt>
      <trkpt lat="45.2174" lon="5.73221">
        <ele>1025.4000244141</ele>
        <time>2026-08-12T14:49:55.000Z</time>
      </trkpt>
      <trkpt lat="45.2174" lon="5.7322">
        <ele>1025.1999511719</ele>
        <time>2026-08-12T14:49:56.000Z</time>
      </trkpt>
      <trkpt lat="45.21741" lon="5.7322">
        <ele>1024.8000488281</ele>
        <time>2026-08-12T14:49:57.000Z</time>
      </trkpt>
      <trkpt lat="45.21741" lon="5.73219">
        <ele>1024.8000488281</ele>
        <time>2026-08-12T14:49:58.000Z</time>
      </trkpt>
      <trkpt lat="45.21741" lon="5.73218">
        <ele>1024.8000488281</ele>
        <time>2026-08-12T14:49:59.000Z</time>
      </trkpt>
      <trkpt lat="45.21741" lon="5.73218">
        <ele>1024.8000488281</ele>
        <time>2026-08-12T14:50:00.000Z</time>
      </trkpt>
      <trkpt lat="45.2174" lon="5.73217">
        <ele>1024.5999755859</ele>
        <time>2026-08-12T14:50:01.000Z</time>
      </trkpt>
      <trkpt lat="45.2174" lon="5.73217">
        <ele>1024.5999755859</ele>
        <time>2026-08-12T14:50:02.000Z</time>
      </trkpt>
      <trkpt lat="45.2174" lon="5.73216">
        <ele>1024.4000244141</ele>
        <time>2026-08-12T14:50:03.000Z</time>
      </trkpt>
      <trkpt lat="45.21739" lon="5.73216">
        <ele>1024.4000244141</ele>
        <time>2026-08-12T14:50:04.000Z</time>
      </trkpt>
      <trkpt lat="45.21738" lon="5.73216">
        <ele>1024.1999511719</ele>
        <time>2026-08-12T14:50:05.000Z</time>
      </trkpt>
      <trkpt lat="45.21737" lon="5.73216">
        <ele>1024</ele>
        <time>2026-08-12T14:50:06.000Z</time>
      </trkpt>
      <trkpt lat="45.21737" lon="5.73216">
        <ele>1024</ele>
        <time>2026-08-12T14:50:07.000Z</time>
      </trkpt>
      <trkpt lat="45.21736" lon="5.73215">
        <ele>1024</ele>
        <time>2026-08-12T14:50:08.000Z</time>
      </trkpt>
      <trkpt lat="45.21735" lon="5.73215">
        <ele>1023.5999755859</ele>
        <time>2026-08-12T14:50:09.000Z</time>
      </trkpt>
      <trkpt lat="45.21735" lon="5.73214">
        <ele>1023.4000244141</ele>
        <time>2026-08-12T14:50:10.000Z</time>
      </trkpt>
      <trkpt lat="45.21734" lon="5.73214">
        <ele>1023.200012207</ele>
        <time>2026-08-12T14:50:11.000Z</time>
      </trkpt>
      <trkpt lat="45.21733" lon="5.73213">
        <ele>1022.799987793</ele>
        <time>2026-08-12T14:50:12.000Z</time>
      </trkpt>
      <trkpt lat="45.21733" lon="5.73212">
        <ele>1022.5999755859</ele>
        <time>2026-08-12T14:50:13.000Z</time>
      </trkpt>
      <trkpt lat="45.21732" lon="5.73212">
        <ele>1022.4000244141</ele>
        <time>2026-08-12T14:50:14.000Z</time>
      </trkpt>
      <trkpt lat="45.21733" lon="5.73213">
        <ele>1022</ele>
        <time>2026-08-12T14:50:15.000Z</time>
      </trkpt>
      <trkpt lat="45.21733" lon="5.73213">
        <ele>1022</ele>
        <time>2026-08-12T14:50:16.000Z</time>
      </trkpt>
      <trkpt lat="45.21733" lon="5.73214">
        <ele>1022</ele>
        <time>2026-08-12T14:50:17.000Z</time>
      </trkpt>
      <trkpt lat="45.21733" lon="5.73214">
        <ele>1022</ele>
        <time>2026-08-12T14:50:18.000Z</time>
      </trkpt>
      <trkpt lat="45.21732" lon="5.73215">
        <ele>1022.200012207</ele>
        <time>2026-08-12T14:50:19.000Z</time>
      </trkpt>
      <trkpt lat="45.21731" lon="5.73216">
        <ele>1022.200012207</ele>
        <time>2026-08-12T14:50:20.000Z</time>
      </trkpt>
      <trkpt lat="45.21731" lon="5.73216">
        <ele>1022.4000244141</ele>
        <time>2026-08-12T14:50:21.000Z</time>
      </trkpt>
      <trkpt lat="45.21731" lon="5.73215">
        <ele>1023</ele>
        <time>2026-08-12T14:50:22.000Z</time>
      </trkpt>
      <trkpt lat="45.21731" lon="5.73215">
        <ele>1023.4000244141</ele>
        <time>2026-08-12T14:50:23.000Z</time>
      </trkpt>
      <trkpt lat="45.21731" lon="5.73215">
        <ele>1023.5999755859</ele>
        <time>2026-08-12T14:50:24.000Z</time>
      </trkpt>
      <trkpt lat="45.21731" lon="5.73216">
        <ele>1023.799987793</ele>
        <time>2026-08-12T14:50:25.000Z</time>
      </trkpt>
      <trkpt lat="45.2173" lon="5.73217">
        <ele>1023.799987793</ele>
        <time>2026-08-12T14:50:26.000Z</time>
      </trkpt>
      <trkpt lat="45.2173" lon="5.73218">
        <ele>1023.799987793</ele>
        <time>2026-08-12T14:50:27.000Z</time>
      </trkpt>
      <trkpt lat="45.2173" lon="5.73219">
        <ele>1023.799987793</ele>
        <time>2026-08-12T14:50:28.000Z</time>
      </trkpt>
      <trkpt lat="45.21729" lon="5.7322">
        <ele>1023.5999755859</ele>
        <time>2026-08-12T14:50:29.000Z</time>
      </trkpt>
      <trkpt lat="45.21729" lon="5.73221">
        <ele>1023.4000244141</ele>
        <time>2026-08-12T14:50:30.000Z</time>
      </trkpt>
      <trkpt lat="45.21728" lon="5.73222">
        <ele>1023.200012207</ele>
        <time>2026-08-12T14:50:31.000Z</time>
      </trkpt>
      <trkpt lat="45.21727" lon="5.73222">
        <ele>1022.799987793</ele>
        <time>2026-08-12T14:50:32.000Z</time>
      </trkpt>
      <trkpt lat="45.21727" lon="5.73223">
        <ele>1022.5999755859</ele>
        <time>2026-08-12T14:50:33.000Z</time>
      </trkpt>
      <trkpt lat="45.21726" lon="5.73223">
        <ele>1022.4000244141</ele>
        <time>2026-08-12T14:50:34.000Z</time>
      </trkpt>
      <trkpt lat="45.21726" lon="5.73223">
        <ele>1022</ele>
        <time>2026-08-12T14:50:35.000Z</time>
      </trkpt>
      <trkpt lat="45.21725" lon="5.73223">
        <ele>1021.799987793</ele>
        <time>2026-08-12T14:50:36.000Z</time>
      </trkpt>
      <trkpt lat="45.21723" lon="5.73224">
        <ele>1021.5999755859</ele>
        <time>2026-08-12T14:50:37.000Z</time>
      </trkpt>
      <trkpt lat="45.21722" lon="5.73222">
        <ele>1021.200012207</ele>
        <time>2026-08-12T14:50:38.000Z</time>
      </trkpt>
      <trkpt lat="45.21721" lon="5.73221">
        <ele>1020.799987793</ele>
        <time>2026-08-12T14:50:39.000Z</time>
      </trkpt>
      <trkpt lat="45.21721" lon="5.73221">
        <ele>1020.200012207</ele>
        <time>2026-08-12T14:50:40.000Z</time>
      </trkpt>
      <trkpt lat="45.2172" lon="5.73221">
        <ele>1020</ele>
        <time>2026-08-12T14:50:41.000Z</time>
      </trkpt>
      <trkpt lat="45.21719" lon="5.7322">
        <ele>1019.799987793</ele>
        <time>2026-08-12T14:50:42.000Z</time>
      </trkpt>
      <trkpt lat="45.21719" lon="5.73221">
        <ele>1019.5999755859</ele>
        <time>2026-08-12T14:50:43.000Z</time>
      </trkpt>
      <trkpt lat="45.21718" lon="5.73222">
        <ele>1019.200012207</ele>
        <time>2026-08-12T14:50:44.000Z</time>
      </trkpt>
      <trkpt lat="45.21717" lon="5.73224">
        <ele>1018.799987793</ele>
        <time>2026-08-12T14:50:45.000Z</time>
      </trkpt>
      <trkpt lat="45.21716" lon="5.73224">
        <ele>1018.200012207</ele>
        <time>2026-08-12T14:50:46.000Z</time>
      </trkpt>
      <trkpt lat="45.21716" lon="5.73224">
        <ele>1018.200012207</ele>
        <time>2026-08-12T14:50:47.000Z</time>
      </trkpt>
      <trkpt lat="45.21716" lon="5.73224">
        <ele>1018.200012207</ele>
        <time>2026-08-12T14:50:48.000Z</time>
      </trkpt>
      <trkpt lat="45.21716" lon="5.73224">
        <ele>1018.4000244141</ele>
        <time>2026-08-12T14:50:49.000Z</time>
      </trkpt>
      <trkpt lat="45.21716" lon="5.73224">
        <ele>1018.200012207</ele>
        <time>2026-08-12T14:50:50.000Z</time>
      </trkpt>
      <trkpt lat="45.21716" lon="5.73224">
        <ele>1018</ele>
        <time>2026-08-12T14:50:51.000Z</time>
      </trkpt>
      <trkpt lat="45.21716" lon="5.73224">
        <ele>1017.799987793</ele>
        <time>2026-08-12T14:50:52.000Z</time>
      </trkpt>
      <trkpt lat="45.21716" lon="5.73223">
        <ele>1017.5999755859</ele>
        <time>2026-08-12T14:50:53.000Z</time>
      </trkpt>
      <trkpt lat="45.21716" lon="5.73221">
        <ele>1016.5999755859</ele>
        <time>2026-08-12T14:50:54.000Z</time>
      </trkpt>
      <trkpt lat="45.21717" lon="5.73219">
        <ele>1016.5999755859</ele>
        <time>2026-08-12T14:50:55.000Z</time>
      </trkpt>
      <trkpt lat="45.21717" lon="5.73218">
        <ele>1016.5999755859</ele>
        <time>2026-08-12T14:50:56.000Z</time>
      </trkpt>
      <trkpt lat="45.21717" lon="5.73217">
        <ele>1016.5999755859</ele>
        <time>2026-08-12T14:50:57.000Z</time>
      </trkpt>
      <trkpt lat="45.21716" lon="5.73217">
        <ele>1017.4000244141</ele>
        <time>2026-08-12T14:50:58.000Z</time>
      </trkpt>
      <trkpt lat="45.21715" lon="5.73216">
        <ele>1017.799987793</ele>
        <time>2026-08-12T14:50:59.000Z</time>
      </trkpt>
      <trkpt lat="45.21714" lon="5.73216">
        <ele>1017.799987793</ele>
        <time>2026-08-12T14:51:00.000Z</time>
      </trkpt>
      <trkpt lat="45.21712" lon="5.73215">
        <ele>1018</ele>
        <time>2026-08-12T14:51:01.000Z</time>
      </trkpt>
      <trkpt lat="45.21711" lon="5.73213">
        <ele>1018.200012207</ele>
        <time>2026-08-12T14:51:02.000Z</time>
      </trkpt>
      <trkpt lat="45.21709" lon="5.73212">
        <ele>1018.5999755859</ele>
        <time>2026-08-12T14:51:03.000Z</time>
      </trkpt>
      <trkpt lat="45.21709" lon="5.7321">
        <ele>1019</ele>
        <time>2026-08-12T14:51:04.000Z</time>
      </trkpt>
      <trkpt lat="45.21708" lon="5.73208">
        <ele>1019.4000244141</ele>
        <time>2026-08-12T14:51:05.000Z</time>
      </trkpt>
      <trkpt lat="45.21708" lon="5.73207">
        <ele>1020</ele>
        <time>2026-08-12T14:51:06.000Z</time>
      </trkpt>
      <trkpt lat="45.21707" lon="5.73206">
        <ele>1020.200012207</ele>
        <time>2026-08-12T14:51:07.000Z</time>
      </trkpt>
      <trkpt lat="45.21707" lon="5.73204">
        <ele>1020.200012207</ele>
        <time>2026-08-12T14:51:08.000Z</time>
      </trkpt>
      <trkpt lat="45.21705" lon="5.73203">
        <ele>1020.4000244141</ele>
        <time>2026-08-12T14:51:09.000Z</time>
      </trkpt>
      <trkpt lat="45.21705" lon="5.73202">
        <ele>1020.5999755859</ele>
        <time>2026-08-12T14:51:10.000Z</time>
      </trkpt>
      <trkpt lat="45.21703" lon="5.732">
        <ele>1021</ele>
        <time>2026-08-12T14:51:11.000Z</time>
      </trkpt>
      <trkpt lat="45.21702" lon="5.73198">
        <ele>1021</ele>
        <time>2026-08-12T14:51:12.000Z</time>
      </trkpt>
      <trkpt lat="45.21701" lon="5.73197">
        <ele>1021.200012207</ele>
        <time>2026-08-12T14:51:13.000Z</time>
      </trkpt>
      <trkpt lat="45.217" lon="5.73196">
        <ele>1021.200012207</ele>
        <time>2026-08-12T14:51:14.000Z</time>
      </trkpt>
      <trkpt lat="45.21699" lon="5.73195">
        <ele>1021</ele>
        <time>2026-08-12T14:51:15.000Z</time>
      </trkpt>
      <trkpt lat="45.21698" lon="5.73194">
        <ele>1020.5999755859</ele>
        <time>2026-08-12T14:51:16.000Z</time>
      </trkpt>
      <trkpt lat="45.21697" lon="5.73192">
        <ele>1020.200012207</ele>
        <time>2026-08-12T14:51:17.000Z</time>
      </trkpt>
      <trkpt lat="45.21696" lon="5.73191">
        <ele>1019.799987793</ele>
        <time>2026-08-12T14:51:18.000Z</time>
      </trkpt>
      <trkpt lat="45.21695" lon="5.7319">
        <ele>1019.4000244141</ele>
        <time>2026-08-12T14:51:19.000Z</time>
      </trkpt>
      <trkpt lat="45.21694" lon="5.73189">
        <ele>1019.200012207</ele>
        <time>2026-08-12T14:51:20.000Z</time>
      </trkpt>
      <trkpt lat="45.21693" lon="5.73188">
        <ele>1019</ele>
        <time>2026-08-12T14:51:21.000Z</time>
      </trkpt>
      <trkpt lat="45.21692" lon="5.73186">
        <ele>1018.799987793</ele>
        <time>2026-08-12T14:51:22.000Z</time>
      </trkpt>
      <trkpt lat="45.21692" lon="5.73184">
        <ele>1018.5999755859</ele>
        <time>2026-08-12T14:51:23.000Z</time>
      </trkpt>
      <trkpt lat="45.21691" lon="5.73183">
        <ele>1018.4000244141</ele>
        <time>2026-08-12T14:51:24.000Z</time>
      </trkpt>
      <trkpt lat="45.21691" lon="5.73182">
        <ele>1018.200012207</ele>
        <time>2026-08-12T14:51:25.000Z</time>
      </trkpt>
      <trkpt lat="45.2169" lon="5.73181">
        <ele>1017.5999755859</ele>
        <time>2026-08-12T14:51:26.000Z</time>
      </trkpt>
      <trkpt lat="45.21689" lon="5.73179">
        <ele>1017.200012207</ele>
        <time>2026-08-12T14:51:27.000Z</time>
      </trkpt>
      <trkpt lat="45.21688" lon="5.73178">
        <ele>1016.799987793</ele>
        <time>2026-08-12T14:51:28.000Z</time>
      </trkpt>
      <trkpt lat="45.21688" lon="5.73177">
        <ele>1016.200012207</ele>
        <time>2026-08-12T14:51:29.000Z</time>
      </trkpt>
      <trkpt lat="45.21687" lon="5.73175">
        <ele>1016</ele>
        <time>2026-08-12T14:51:30.000Z</time>
      </trkpt>
      <trkpt lat="45.21686" lon="5.73174">
        <ele>1015.799987793</ele>
        <time>2026-08-12T14:51:31.000Z</time>
      </trkpt>
      <trkpt lat="45.21685" lon="5.73173">
        <ele>1015.5999755859</ele>
        <time>2026-08-12T14:51:32.000Z</time>
      </trkpt>
      <trkpt lat="45.21685" lon="5.73172">
        <ele>1015.5999755859</ele>
        <time>2026-08-12T14:51:33.000Z</time>
      </trkpt>
      <trkpt lat="45.21684" lon="5.73171">
        <ele>1015.200012207</ele>
        <time>2026-08-12T14:51:34.000Z</time>
      </trkpt>
      <trkpt lat="45.21684" lon="5.7317">
        <ele>1015</ele>
        <time>2026-08-12T14:51:35.000Z</time>
      </trkpt>
      <trkpt lat="45.21684" lon="5.73169">
        <ele>1014.799987793</ele>
        <time>2026-08-12T14:51:36.000Z</time>
      </trkpt>
      <trkpt lat="45.21683" lon="5.73168">
        <ele>1014.5999755859</ele>
        <time>2026-08-12T14:51:37.000Z</time>
      </trkpt>
      <trkpt lat="45.21682" lon="5.73168">
        <ele>1014.5999755859</ele>
        <time>2026-08-12T14:51:38.000Z</time>
      </trkpt>
      <trkpt lat="45.21682" lon="5.73167">
        <ele>1014.5999755859</ele>
        <time>2026-08-12T14:51:39.000Z</time>
      </trkpt>
      <trkpt lat="45.21682" lon="5.73166">
        <ele>1014.5999755859</ele>
        <time>2026-08-12T14:51:40.000Z</time>
      </trkpt>
      <trkpt lat="45.21681" lon="5.73166">
        <ele>1014.5999755859</ele>
        <time>2026-08-12T14:51:41.000Z</time>
      </trkpt>
      <trkpt lat="45.21681" lon="5.73165">
        <ele>1014.5999755859</ele>
        <time>2026-08-12T14:51:42.000Z</time>
      </trkpt>
      <trkpt lat="45.2168" lon="5.73164">
        <ele>1014.4000244141</ele>
        <time>2026-08-12T14:51:43.000Z</time>
      </trkpt>
      <trkpt lat="45.2168" lon="5.73163">
        <ele>1014.200012207</ele>
        <time>2026-08-12T14:51:44.000Z</time>
      </trkpt>
      <trkpt lat="45.21679" lon="5.73162">
        <ele>1014.200012207</ele>
        <time>2026-08-12T14:51:45.000Z</time>
      </trkpt>
      <trkpt lat="45.21679" lon="5.73161">
        <ele>1013.799987793</ele>
        <time>2026-08-12T14:51:46.000Z</time>
      </trkpt>
      <trkpt lat="45.21678" lon="5.7316">
        <ele>1013.5999755859</ele>
        <time>2026-08-12T14:51:47.000Z</time>
      </trkpt>
      <trkpt lat="45.21678" lon="5.73159">
        <ele>1013.4000244141</ele>
        <time>2026-08-12T14:51:48.000Z</time>
      </trkpt>
      <trkpt lat="45.21678" lon="5.73159">
        <ele>1012.799987793</ele>
        <time>2026-08-12T14:51:49.000Z</time>
      </trkpt>
      <trkpt lat="45.21677" lon="5.73158">
        <ele>1012.5999755859</ele>
        <time>2026-08-12T14:51:50.000Z</time>
      </trkpt>
      <trkpt lat="45.21677" lon="5.73157">
        <ele>1012.4000244141</ele>
        <time>2026-08-12T14:51:51.000Z</time>
      </trkpt>
      <trkpt lat="45.21676" lon="5.73157">
        <ele>1012</ele>
        <time>2026-08-12T14:51:52.000Z</time>
      </trkpt>
      <trkpt lat="45.21676" lon="5.73155">
        <ele>1011.799987793</ele>
        <time>2026-08-12T14:51:53.000Z</time>
      </trkpt>
      <trkpt lat="45.21676" lon="5.73153">
        <ele>1011.5999755859</ele>
        <time>2026-08-12T14:51:54.000Z</time>
      </trkpt>
      <trkpt lat="45.21675" lon="5.73152">
        <ele>1011.200012207</ele>
        <time>2026-08-12T14:51:55.000Z</time>
      </trkpt>
      <trkpt lat="45.21675" lon="5.73151">
        <ele>1011</ele>
        <time>2026-08-12T14:51:56.000Z</time>
      </trkpt>
      <trkpt lat="45.21675" lon="5.73151">
        <ele>1011</ele>
        <time>2026-08-12T14:51:57.000Z</time>
      </trkpt>
      <trkpt lat="45.21674" lon="5.7315">
        <ele>1011</ele>
        <time>2026-08-12T14:51:58.000Z</time>
      </trkpt>
      <trkpt lat="45.21674" lon="5.7315">
        <ele>1011</ele>
        <time>2026-08-12T14:51:59.000Z</time>
      </trkpt>
      <trkpt lat="45.21674" lon="5.73149">
        <ele>1011.200012207</ele>
        <time>2026-08-12T14:52:00.000Z</time>
      </trkpt>
      <trkpt lat="45.21674" lon="5.73149">
        <ele>1011.200012207</ele>
        <time>2026-08-12T14:52:01.000Z</time>
      </trkpt>
      <trkpt lat="45.21673" lon="5.73148">
        <ele>1011.200012207</ele>
        <time>2026-08-12T14:52:02.000Z</time>
      </trkpt>
      <trkpt lat="45.21673" lon="5.73147">
        <ele>1011.200012207</ele>
        <time>2026-08-12T14:52:03.000Z</time>
      </trkpt>
      <trkpt lat="45.21672" lon="5.73146">
        <ele>1011.200012207</ele>
        <time>2026-08-12T14:52:04.000Z</time>
      </trkpt>
      <trkpt lat="45.21672" lon="5.73146">
        <ele>1011.200012207</ele>
        <time>2026-08-12T14:52:05.000Z</time>
      </trkpt>
      <trkpt lat="45.21671" lon="5.73144">
        <ele>1011</ele>
        <time>2026-08-12T14:52:06.000Z</time>
      </trkpt>
      <trkpt lat="45.21671" lon="5.73144">
        <ele>1010.799987793</ele>
        <time>2026-08-12T14:52:07.000Z</time>
      </trkpt>
      <trkpt lat="45.2167" lon="5.73144">
        <ele>1010.5999755859</ele>
        <time>2026-08-12T14:52:08.000Z</time>
      </trkpt>
      <trkpt lat="45.2167" lon="5.73144">
        <ele>1010.5999755859</ele>
        <time>2026-08-12T14:52:09.000Z</time>
      </trkpt>
      <trkpt lat="45.2167" lon="5.73145">
        <ele>1010</ele>
        <time>2026-08-12T14:52:10.000Z</time>
      </trkpt>
      <trkpt lat="45.21669" lon="5.73145">
        <ele>1009.5999755859</ele>
        <time>2026-08-12T14:52:11.000Z</time>
      </trkpt>
      <trkpt lat="45.21668" lon="5.73144">
        <ele>1009</ele>
        <time>2026-08-12T14:52:12.000Z</time>
      </trkpt>
      <trkpt lat="45.21667" lon="5.73144">
        <ele>1008.799987793</ele>
        <time>2026-08-12T14:52:13.000Z</time>
      </trkpt>
      <trkpt lat="45.21666" lon="5.73144">
        <ele>1008.5999755859</ele>
        <time>2026-08-12T14:52:14.000Z</time>
      </trkpt>
      <trkpt lat="45.21665" lon="5.73143">
        <ele>1008</ele>
        <time>2026-08-12T14:52:15.000Z</time>
      </trkpt>
      <trkpt lat="45.21664" lon="5.73142">
        <ele>1007.4000244141</ele>
        <time>2026-08-12T14:52:16.000Z</time>
      </trkpt>
      <trkpt lat="45.21663" lon="5.73141">
        <ele>1007</ele>
        <time>2026-08-12T14:52:17.000Z</time>
      </trkpt>
      <trkpt lat="45.21662" lon="5.7314">
        <ele>1006.799987793</ele>
        <time>2026-08-12T14:52:18.000Z</time>
      </trkpt>
      <trkpt lat="45.21662" lon="5.73139">
        <ele>1006.5999755859</ele>
        <time>2026-08-12T14:52:19.000Z</time>
      </trkpt>
      <trkpt lat="45.21661" lon="5.73138">
        <ele>1006.4000244141</ele>
        <time>2026-08-12T14:52:20.000Z</time>
      </trkpt>
      <trkpt lat="45.21661" lon="5.73139">
        <ele>1006.200012207</ele>
        <time>2026-08-12T14:52:21.000Z</time>
      </trkpt>
      <trkpt lat="45.2166" lon="5.73139">
        <ele>1006.200012207</ele>
        <time>2026-08-12T14:52:22.000Z</time>
      </trkpt>
      <trkpt lat="45.2166" lon="5.73139">
        <ele>1005.5999755859</ele>
        <time>2026-08-12T14:52:23.000Z</time>
      </trkpt>
      <trkpt lat="45.2166" lon="5.7314">
        <ele>1005.5999755859</ele>
        <time>2026-08-12T14:52:24.000Z</time>
      </trkpt>
      <trkpt lat="45.21659" lon="5.7314">
        <ele>1005.200012207</ele>
        <time>2026-08-12T14:52:25.000Z</time>
      </trkpt>
      <trkpt lat="45.21658" lon="5.7314">
        <ele>1005.200012207</ele>
        <time>2026-08-12T14:52:26.000Z</time>
      </trkpt>
      <trkpt lat="45.21657" lon="5.73141">
        <ele>1005.200012207</ele>
        <time>2026-08-12T14:52:27.000Z</time>
      </trkpt>
      <trkpt lat="45.21655" lon="5.73141">
        <ele>1005</ele>
        <time>2026-08-12T14:52:28.000Z</time>
      </trkpt>
      <trkpt lat="45.21654" lon="5.7314">
        <ele>1004.799987793</ele>
        <time>2026-08-12T14:52:29.000Z</time>
      </trkpt>
      <trkpt lat="45.21652" lon="5.73139">
        <ele>1004.5999755859</ele>
        <time>2026-08-12T14:52:30.000Z</time>
      </trkpt>
      <trkpt lat="45.21651" lon="5.73139">
        <ele>1004.5999755859</ele>
        <time>2026-08-12T14:52:31.000Z</time>
      </trkpt>
      <trkpt lat="45.2165" lon="5.73139">
        <ele>1004.4000244141</ele>
        <time>2026-08-12T14:52:32.000Z</time>
      </trkpt>
      <trkpt lat="45.21649" lon="5.73139">
        <ele>1004.4000244141</ele>
        <time>2026-08-12T14:52:33.000Z</time>
      </trkpt>
      <trkpt lat="45.21648" lon="5.73139">
        <ele>1004</ele>
        <time>2026-08-12T14:52:34.000Z</time>
      </trkpt>
      <trkpt lat="45.21647" lon="5.73139">
        <ele>1004</ele>
        <time>2026-08-12T14:52:35.000Z</time>
      </trkpt>
      <trkpt lat="45.21645" lon="5.73139">
        <ele>1003.4000244141</ele>
        <time>2026-08-12T14:52:36.000Z</time>
      </trkpt>
      <trkpt lat="45.21644" lon="5.73138">
        <ele>1002.799987793</ele>
        <time>2026-08-12T14:52:37.000Z</time>
      </trkpt>
      <trkpt lat="45.21643" lon="5.73137">
        <ele>1002.799987793</ele>
        <time>2026-08-12T14:52:38.000Z</time>
      </trkpt>
      <trkpt lat="45.21642" lon="5.73137">
        <ele>1002.200012207</ele>
        <time>2026-08-12T14:52:39.000Z</time>
      </trkpt>
      <trkpt lat="45.21641" lon="5.73137">
        <ele>1002</ele>
        <time>2026-08-12T14:52:40.000Z</time>
      </trkpt>
      <trkpt lat="45.2164" lon="5.73137">
        <ele>1001.799987793</ele>
        <time>2026-08-12T14:52:41.000Z</time>
      </trkpt>
      <trkpt lat="45.2164" lon="5.73138">
        <ele>1001.200012207</ele>
        <time>2026-08-12T14:52:42.000Z</time>
      </trkpt>
      <trkpt lat="45.21639" lon="5.73139">
        <ele>1001</ele>
        <time>2026-08-12T14:52:43.000Z</time>
      </trkpt>
      <trkpt lat="45.21638" lon="5.73139">
        <ele>1000.799987793</ele>
        <time>2026-08-12T14:52:44.000Z</time>
      </trkpt>
      <trkpt lat="45.21637" lon="5.73139">
        <ele>1000.5999755859</ele>
        <time>2026-08-12T14:52:45.000Z</time>
      </trkpt>
      <trkpt lat="45.21637" lon="5.7314">
        <ele>1000.4000244141</ele>
        <time>2026-08-12T14:52:46.000Z</time>
      </trkpt>
      <trkpt lat="45.21636" lon="5.73141">
        <ele>1000.200012207</ele>
        <time>2026-08-12T14:52:47.000Z</time>
      </trkpt>
      <trkpt lat="45.21635" lon="5.73141">
        <ele>1000.200012207</ele>
        <time>2026-08-12T14:52:48.000Z</time>
      </trkpt>
      <trkpt lat="45.21634" lon="5.73141">
        <ele>1000</ele>
        <time>2026-08-12T14:52:49.000Z</time>
      </trkpt>
      <trkpt lat="45.21633" lon="5.73141">
        <ele>1000</ele>
        <time>2026-08-12T14:52:50.000Z</time>
      </trkpt>
      <trkpt lat="45.21631" lon="5.73142">
        <ele>1000</ele>
        <time>2026-08-12T14:52:51.000Z</time>
      </trkpt>
      <trkpt lat="45.2163" lon="5.73142">
        <ele>1000</ele>
        <time>2026-08-12T14:52:52.000Z</time>
      </trkpt>
      <trkpt lat="45.21628" lon="5.73142">
        <ele>1000</ele>
        <time>2026-08-12T14:52:53.000Z</time>
      </trkpt>
      <trkpt lat="45.21627" lon="5.73141">
        <ele>1000</ele>
        <time>2026-08-12T14:52:54.000Z</time>
      </trkpt>
      <trkpt lat="45.21625" lon="5.7314">
        <ele>999.79998779297</ele>
        <time>2026-08-12T14:52:55.000Z</time>
      </trkpt>
      <trkpt lat="45.21624" lon="5.73139">
        <ele>999.79998779297</ele>
        <time>2026-08-12T14:52:56.000Z</time>
      </trkpt>
      <trkpt lat="45.21622" lon="5.73138">
        <ele>999.40002441406</ele>
        <time>2026-08-12T14:52:57.000Z</time>
      </trkpt>
      <trkpt lat="45.21621" lon="5.73137">
        <ele>999</ele>
        <time>2026-08-12T14:52:58.000Z</time>
      </trkpt>
      <trkpt lat="45.2162" lon="5.73136">
        <ele>998.59997558594</ele>
        <time>2026-08-12T14:52:59.000Z</time>
      </trkpt>
      <trkpt lat="45.21618" lon="5.73135">
        <ele>997.79998779297</ele>
        <time>2026-08-12T14:53:00.000Z</time>
      </trkpt>
      <trkpt lat="45.21617" lon="5.73135">
        <ele>997.79998779297</ele>
        <time>2026-08-12T14:53:01.000Z</time>
      </trkpt>
      <trkpt lat="45.21615" lon="5.73134">
        <ele>997.40002441406</ele>
        <time>2026-08-12T14:53:02.000Z</time>
      </trkpt>
      <trkpt lat="45.21613" lon="5.73134">
        <ele>996.79998779297</ele>
        <time>2026-08-12T14:53:03.000Z</time>
      </trkpt>
      <trkpt lat="45.21611" lon="5.73132">
        <ele>996</ele>
        <time>2026-08-12T14:53:04.000Z</time>
      </trkpt>
      <trkpt lat="45.2161" lon="5.73132">
        <ele>995.20001220703</ele>
        <time>2026-08-12T14:53:05.000Z</time>
      </trkpt>
      <trkpt lat="45.21608" lon="5.73131">
        <ele>994.79998779297</ele>
        <time>2026-08-12T14:53:06.000Z</time>
      </trkpt>
      <trkpt lat="45.21607" lon="5.7313">
        <ele>994.40002441406</ele>
        <time>2026-08-12T14:53:07.000Z</time>
      </trkpt>
      <trkpt lat="45.21605" lon="5.7313">
        <ele>994.40002441406</ele>
        <time>2026-08-12T14:53:08.000Z</time>
      </trkpt>
      <trkpt lat="45.21604" lon="5.7313">
        <ele>994.20001220703</ele>
        <time>2026-08-12T14:53:09.000Z</time>
      </trkpt>
      <trkpt lat="45.21602" lon="5.73129">
        <ele>994.20001220703</ele>
        <time>2026-08-12T14:53:10.000Z</time>
      </trkpt>
      <trkpt lat="45.216" lon="5.73129">
        <ele>994.40002441406</ele>
        <time>2026-08-12T14:53:11.000Z</time>
      </trkpt>
      <trkpt lat="45.21599" lon="5.73127">
        <ele>994.40002441406</ele>
        <time>2026-08-12T14:53:12.000Z</time>
      </trkpt>
      <trkpt lat="45.21597" lon="5.73126">
        <ele>994.40002441406</ele>
        <time>2026-08-12T14:53:13.000Z</time>
      </trkpt>
      <trkpt lat="45.21596" lon="5.73125">
        <ele>994.59997558594</ele>
        <time>2026-08-12T14:53:14.000Z</time>
      </trkpt>
      <trkpt lat="45.21594" lon="5.73124">
        <ele>994.59997558594</ele>
        <time>2026-08-12T14:53:15.000Z</time>
      </trkpt>
      <trkpt lat="45.21593" lon="5.73122">
        <ele>994</ele>
        <time>2026-08-12T14:53:16.000Z</time>
      </trkpt>
      <trkpt lat="45.21592" lon="5.73122">
        <ele>993.59997558594</ele>
        <time>2026-08-12T14:53:17.000Z</time>
      </trkpt>
      <trkpt lat="45.21591" lon="5.73122">
        <ele>993.20001220703</ele>
        <time>2026-08-12T14:53:18.000Z</time>
      </trkpt>
      <trkpt lat="45.2159" lon="5.73122">
        <ele>993</ele>
        <time>2026-08-12T14:53:19.000Z</time>
      </trkpt>
      <trkpt lat="45.21588" lon="5.73121">
        <ele>992.79998779297</ele>
        <time>2026-08-12T14:53:20.000Z</time>
      </trkpt>
      <trkpt lat="45.21587" lon="5.7312">
        <ele>992.59997558594</ele>
        <time>2026-08-12T14:53:21.000Z</time>
      </trkpt>
      <trkpt lat="45.21585" lon="5.73119">
        <ele>992.20001220703</ele>
        <time>2026-08-12T14:53:22.000Z</time>
      </trkpt>
      <trkpt lat="45.21584" lon="5.73118">
        <ele>991.79998779297</ele>
        <time>2026-08-12T14:53:23.000Z</time>
      </trkpt>
      <trkpt lat="45.21583" lon="5.73117">
        <ele>991.40002441406</ele>
        <time>2026-08-12T14:53:24.000Z</time>
      </trkpt>
      <trkpt lat="45.21582" lon="5.73117">
        <ele>991</ele>
        <time>2026-08-12T14:53:25.000Z</time>
      </trkpt>
      <trkpt lat="45.2158" lon="5.73117">
        <ele>990.79998779297</ele>
        <time>2026-08-12T14:53:26.000Z</time>
      </trkpt>
      <trkpt lat="45.21579" lon="5.73116">
        <ele>990.79998779297</ele>
        <time>2026-08-12T14:53:27.000Z</time>
      </trkpt>
      <trkpt lat="45.21577" lon="5.73115">
        <ele>990.59997558594</ele>
        <time>2026-08-12T14:53:28.000Z</time>
      </trkpt>
      <trkpt lat="45.21576" lon="5.73115">
        <ele>990.59997558594</ele>
        <time>2026-08-12T14:53:29.000Z</time>
      </trkpt>
      <trkpt lat="45.21574" lon="5.73113">
        <ele>990.40002441406</ele>
        <time>2026-08-12T14:53:30.000Z</time>
      </trkpt>
      <trkpt lat="45.21573" lon="5.73112">
        <ele>990.40002441406</ele>
        <time>2026-08-12T14:53:31.000Z</time>
      </trkpt>
      <trkpt lat="45.21571" lon="5.73111">
        <ele>990.20001220703</ele>
        <time>2026-08-12T14:53:32.000Z</time>
      </trkpt>
      <trkpt lat="45.2157" lon="5.7311">
        <ele>990.20001220703</ele>
        <time>2026-08-12T14:53:33.000Z</time>
      </trkpt>
      <trkpt lat="45.21569" lon="5.73108">
        <ele>990</ele>
        <time>2026-08-12T14:53:34.000Z</time>
      </trkpt>
      <trkpt lat="45.21568" lon="5.73107">
        <ele>990</ele>
        <time>2026-08-12T14:53:35.000Z</time>
      </trkpt>
      <trkpt lat="45.21567" lon="5.73105">
        <ele>990</ele>
        <time>2026-08-12T14:53:36.000Z</time>
      </trkpt>
      <trkpt lat="45.21566" lon="5.73103">
        <ele>990</ele>
        <time>2026-08-12T14:53:37.000Z</time>
      </trkpt>
      <trkpt lat="45.21566" lon="5.731">
        <ele>990.20001220703</ele>
        <time>2026-08-12T14:53:38.000Z</time>
      </trkpt>
      <trkpt lat="45.21566" lon="5.73097">
        <ele>990.20001220703</ele>
        <time>2026-08-12T14:53:39.000Z</time>
      </trkpt>
      <trkpt lat="45.21566" lon="5.73095">
        <ele>990.20001220703</ele>
        <time>2026-08-12T14:53:40.000Z</time>
      </trkpt>
      <trkpt lat="45.21566" lon="5.73093">
        <ele>990.20001220703</ele>
        <time>2026-08-12T14:53:41.000Z</time>
      </trkpt>
      <trkpt lat="45.21566" lon="5.73091">
        <ele>990.20001220703</ele>
        <time>2026-08-12T14:53:42.000Z</time>
      </trkpt>
      <trkpt lat="45.21565" lon="5.7309">
        <ele>990</ele>
        <time>2026-08-12T14:53:43.000Z</time>
      </trkpt>
      <trkpt lat="45.21565" lon="5.73089">
        <ele>989.79998779297</ele>
        <time>2026-08-12T14:53:44.000Z</time>
      </trkpt>
      <trkpt lat="45.21565" lon="5.73088">
        <ele>989.59997558594</ele>
        <time>2026-08-12T14:53:45.000Z</time>
      </trkpt>
      <trkpt lat="45.21564" lon="5.73086">
        <ele>989.40002441406</ele>
        <time>2026-08-12T14:53:46.000Z</time>
      </trkpt>
      <trkpt lat="45.21565" lon="5.73084">
        <ele>989.40002441406</ele>
        <time>2026-08-12T14:53:47.000Z</time>
      </trkpt>
      <trkpt lat="45.21565" lon="5.73082">
        <ele>989.20001220703</ele>
        <time>2026-08-12T14:53:48.000Z</time>
      </trkpt>
      <trkpt lat="45.21565" lon="5.73081">
        <ele>989.20001220703</ele>
        <time>2026-08-12T14:53:49.000Z</time>
      </trkpt>
      <trkpt lat="45.21565" lon="5.7308">
        <ele>989.20001220703</ele>
        <time>2026-08-12T14:53:50.000Z</time>
      </trkpt>
      <trkpt lat="45.21565" lon="5.7308">
        <ele>988.79998779297</ele>
        <time>2026-08-12T14:53:51.000Z</time>
      </trkpt>
      <trkpt lat="45.21564" lon="5.73079">
        <ele>988.40002441406</ele>
        <time>2026-08-12T14:53:52.000Z</time>
      </trkpt>
      <trkpt lat="45.21564" lon="5.73079">
        <ele>988</ele>
        <time>2026-08-12T14:53:53.000Z</time>
      </trkpt>
      <trkpt lat="45.21563" lon="5.73079">
        <ele>987.59997558594</ele>
        <time>2026-08-12T14:53:54.000Z</time>
      </trkpt>
      <trkpt lat="45.21562" lon="5.73078">
        <ele>987.20001220703</ele>
        <time>2026-08-12T14:53:55.000Z</time>
      </trkpt>
      <trkpt lat="45.21562" lon="5.73077">
        <ele>987</ele>
        <time>2026-08-12T14:53:56.000Z</time>
      </trkpt>
      <trkpt lat="45.21561" lon="5.73076">
        <ele>986.59997558594</ele>
        <time>2026-08-12T14:53:57.000Z</time>
      </trkpt>
      <trkpt lat="45.21562" lon="5.73076">
        <ele>986.40002441406</ele>
        <time>2026-08-12T14:53:58.000Z</time>
      </trkpt>
      <trkpt lat="45.21561" lon="5.73075">
        <ele>986.20001220703</ele>
        <time>2026-08-12T14:53:59.000Z</time>
      </trkpt>
      <trkpt lat="45.2156" lon="5.73074">
        <ele>986</ele>
        <time>2026-08-12T14:54:00.000Z</time>
      </trkpt>
      <trkpt lat="45.2156" lon="5.73074">
        <ele>986</ele>
        <time>2026-08-12T14:54:01.000Z</time>
      </trkpt>
      <trkpt lat="45.21559" lon="5.73073">
        <ele>986</ele>
        <time>2026-08-12T14:54:02.000Z</time>
      </trkpt>
      <trkpt lat="45.21558" lon="5.73073">
        <ele>986</ele>
        <time>2026-08-12T14:54:03.000Z</time>
      </trkpt>
      <trkpt lat="45.21557" lon="5.73073">
        <ele>986</ele>
        <time>2026-08-12T14:54:04.000Z</time>
      </trkpt>
      <trkpt lat="45.21556" lon="5.73072">
        <ele>986</ele>
        <time>2026-08-12T14:54:05.000Z</time>
      </trkpt>
      <trkpt lat="45.21556" lon="5.73071">
        <ele>986</ele>
        <time>2026-08-12T14:54:06.000Z</time>
      </trkpt>
      <trkpt lat="45.21555" lon="5.73071">
        <ele>985.79998779297</ele>
        <time>2026-08-12T14:54:07.000Z</time>
      </trkpt>
      <trkpt lat="45.21553" lon="5.7307">
        <ele>985.79998779297</ele>
        <time>2026-08-12T14:54:08.000Z</time>
      </trkpt>
      <trkpt lat="45.21552" lon="5.73069">
        <ele>985.79998779297</ele>
        <time>2026-08-12T14:54:09.000Z</time>
      </trkpt>
      <trkpt lat="45.21551" lon="5.73069">
        <ele>985.79998779297</ele>
        <time>2026-08-12T14:54:10.000Z</time>
      </trkpt>
      <trkpt lat="45.21551" lon="5.73069">
        <ele>986</ele>
        <time>2026-08-12T14:54:11.000Z</time>
      </trkpt>
      <trkpt lat="45.2155" lon="5.73068">
        <ele>986.40002441406</ele>
        <time>2026-08-12T14:54:12.000Z</time>
      </trkpt>
      <trkpt lat="45.21549" lon="5.73067">
        <ele>986.59997558594</ele>
        <time>2026-08-12T14:54:13.000Z</time>
      </trkpt>
      <trkpt lat="45.21548" lon="5.73067">
        <ele>986.59997558594</ele>
        <time>2026-08-12T14:54:14.000Z</time>
      </trkpt>
      <trkpt lat="45.21547" lon="5.73067">
        <ele>986.59997558594</ele>
        <time>2026-08-12T14:54:15.000Z</time>
      </trkpt>
      <trkpt lat="45.21547" lon="5.73066">
        <ele>986.40002441406</ele>
        <time>2026-08-12T14:54:16.000Z</time>
      </trkpt>
      <trkpt lat="45.21546" lon="5.73067">
        <ele>986.20001220703</ele>
        <time>2026-08-12T14:54:17.000Z</time>
      </trkpt>
      <trkpt lat="45.21545" lon="5.73067">
        <ele>985.79998779297</ele>
        <time>2026-08-12T14:54:18.000Z</time>
      </trkpt>
      <trkpt lat="45.21544" lon="5.73067">
        <ele>985.79998779297</ele>
        <time>2026-08-12T14:54:19.000Z</time>
      </trkpt>
      <trkpt lat="45.21544" lon="5.73067">
        <ele>985.20001220703</ele>
        <time>2026-08-12T14:54:20.000Z</time>
      </trkpt>
      <trkpt lat="45.21542" lon="5.73067">
        <ele>985</ele>
        <time>2026-08-12T14:54:21.000Z</time>
      </trkpt>
      <trkpt lat="45.21541" lon="5.73066">
        <ele>984.79998779297</ele>
        <time>2026-08-12T14:54:22.000Z</time>
      </trkpt>
      <trkpt lat="45.21541" lon="5.73066">
        <ele>984.59997558594</ele>
        <time>2026-08-12T14:54:23.000Z</time>
      </trkpt>
      <trkpt lat="45.2154" lon="5.73066">
        <ele>984.59997558594</ele>
        <time>2026-08-12T14:54:24.000Z</time>
      </trkpt>
      <trkpt lat="45.21539" lon="5.73066">
        <ele>984.40002441406</ele>
        <time>2026-08-12T14:54:25.000Z</time>
      </trkpt>
      <trkpt lat="45.21539" lon="5.73066">
        <ele>984.59997558594</ele>
        <time>2026-08-12T14:54:26.000Z</time>
      </trkpt>
      <trkpt lat="45.21538" lon="5.73065">
        <ele>984.59997558594</ele>
        <time>2026-08-12T14:54:27.000Z</time>
      </trkpt>
      <trkpt lat="45.21537" lon="5.73064">
        <ele>984.59997558594</ele>
        <time>2026-08-12T14:54:28.000Z</time>
      </trkpt>
      <trkpt lat="45.21537" lon="5.73064">
        <ele>984.59997558594</ele>
        <time>2026-08-12T14:54:29.000Z</time>
      </trkpt>
      <trkpt lat="45.21536" lon="5.73064">
        <ele>984.59997558594</ele>
        <time>2026-08-12T14:54:30.000Z</time>
      </trkpt>
      <trkpt lat="45.21535" lon="5.73064">
        <ele>984.20001220703</ele>
        <time>2026-08-12T14:54:31.000Z</time>
      </trkpt>
      <trkpt lat="45.21534" lon="5.73063">
        <ele>984.20001220703</ele>
        <time>2026-08-12T14:54:32.000Z</time>
      </trkpt>
      <trkpt lat="45.21534" lon="5.73063">
        <ele>984</ele>
        <time>2026-08-12T14:54:33.000Z</time>
      </trkpt>
      <trkpt lat="45.21533" lon="5.73063">
        <ele>983.79998779297</ele>
        <time>2026-08-12T14:54:34.000Z</time>
      </trkpt>
      <trkpt lat="45.21532" lon="5.73062">
        <ele>983.40002441406</ele>
        <time>2026-08-12T14:54:35.000Z</time>
      </trkpt>
      <trkpt lat="45.21531" lon="5.73062">
        <ele>983.20001220703</ele>
        <time>2026-08-12T14:54:36.000Z</time>
      </trkpt>
      <trkpt lat="45.2153" lon="5.73062">
        <ele>983</ele>
        <time>2026-08-12T14:54:37.000Z</time>
      </trkpt>
      <trkpt lat="45.21529" lon="5.73061">
        <ele>982.79998779297</ele>
        <time>2026-08-12T14:54:38.000Z</time>
      </trkpt>
      <trkpt lat="45.21528" lon="5.73062">
        <ele>982.59997558594</ele>
        <time>2026-08-12T14:54:39.000Z</time>
      </trkpt>
      <trkpt lat="45.21527" lon="5.73062">
        <ele>982.20001220703</ele>
        <time>2026-08-12T14:54:40.000Z</time>
      </trkpt>
      <trkpt lat="45.21526" lon="5.73061">
        <ele>982</ele>
        <time>2026-08-12T14:54:41.000Z</time>
      </trkpt>
      <trkpt lat="45.21526" lon="5.73061">
        <ele>981.79998779297</ele>
        <time>2026-08-12T14:54:42.000Z</time>
      </trkpt>
      <trkpt lat="45.21525" lon="5.7306">
        <ele>981.59997558594</ele>
        <time>2026-08-12T14:54:43.000Z</time>
      </trkpt>
      <trkpt lat="45.21525" lon="5.7306">
        <ele>981.59997558594</ele>
        <time>2026-08-12T14:54:44.000Z</time>
      </trkpt>
      <trkpt lat="45.21525" lon="5.73059">
        <ele>981.20001220703</ele>
        <time>2026-08-12T14:54:45.000Z</time>
      </trkpt>
      <trkpt lat="45.21524" lon="5.73058">
        <ele>981</ele>
        <time>2026-08-12T14:54:46.000Z</time>
      </trkpt>
      <trkpt lat="45.21523" lon="5.73057">
        <ele>980.59997558594</ele>
        <time>2026-08-12T14:54:47.000Z</time>
      </trkpt>
      <trkpt lat="45.21522" lon="5.73057">
        <ele>980.59997558594</ele>
        <time>2026-08-12T14:54:48.000Z</time>
      </trkpt>
      <trkpt lat="45.2152" lon="5.73056">
        <ele>980.20001220703</ele>
        <time>2026-08-12T14:54:49.000Z</time>
      </trkpt>
      <trkpt lat="45.21519" lon="5.73056">
        <ele>980</ele>
        <time>2026-08-12T14:54:50.000Z</time>
      </trkpt>
      <trkpt lat="45.21518" lon="5.73056">
        <ele>980</ele>
        <time>2026-08-12T14:54:51.000Z</time>
      </trkpt>
      <trkpt lat="45.21516" lon="5.73056">
        <ele>979.40002441406</ele>
        <time>2026-08-12T14:54:52.000Z</time>
      </trkpt>
      <trkpt lat="45.21515" lon="5.73056">
        <ele>979.40002441406</ele>
        <time>2026-08-12T14:54:53.000Z</time>
      </trkpt>
      <trkpt lat="45.21514" lon="5.73056">
        <ele>979.20001220703</ele>
        <time>2026-08-12T14:54:54.000Z</time>
      </trkpt>
      <trkpt lat="45.21513" lon="5.73055">
        <ele>979</ele>
        <time>2026-08-12T14:54:55.000Z</time>
      </trkpt>
      <trkpt lat="45.21512" lon="5.73054">
        <ele>978.79998779297</ele>
        <time>2026-08-12T14:54:56.000Z</time>
      </trkpt>
      <trkpt lat="45.21511" lon="5.73054">
        <ele>978.59997558594</ele>
        <time>2026-08-12T14:54:57.000Z</time>
      </trkpt>
      <trkpt lat="45.21511" lon="5.73055">
        <ele>978.40002441406</ele>
        <time>2026-08-12T14:54:58.000Z</time>
      </trkpt>
      <trkpt lat="45.2151" lon="5.73055">
        <ele>978.20001220703</ele>
        <time>2026-08-12T14:54:59.000Z</time>
      </trkpt>
      <trkpt lat="45.21509" lon="5.73054">
        <ele>978</ele>
        <time>2026-08-12T14:55:00.000Z</time>
      </trkpt>
      <trkpt lat="45.21508" lon="5.73054">
        <ele>977.59997558594</ele>
        <time>2026-08-12T14:55:01.000Z</time>
      </trkpt>
      <trkpt lat="45.21508" lon="5.73053">
        <ele>977.40002441406</ele>
        <time>2026-08-12T14:55:02.000Z</time>
      </trkpt>
      <trkpt lat="45.21508" lon="5.73052">
        <ele>977.40002441406</ele>
        <time>2026-08-12T14:55:03.000Z</time>
      </trkpt>
      <trkpt lat="45.21507" lon="5.73052">
        <ele>977.20001220703</ele>
        <time>2026-08-12T14:55:04.000Z</time>
      </trkpt>
      <trkpt lat="45.21506" lon="5.73051">
        <ele>977.20001220703</ele>
        <time>2026-08-12T14:55:05.000Z</time>
      </trkpt>
      <trkpt lat="45.21505" lon="5.73052">
        <ele>977.20001220703</ele>
        <time>2026-08-12T14:55:06.000Z</time>
      </trkpt>
      <trkpt lat="45.21504" lon="5.73053">
        <ele>977</ele>
        <time>2026-08-12T14:55:07.000Z</time>
      </trkpt>
      <trkpt lat="45.21503" lon="5.73054">
        <ele>976.79998779297</ele>
        <time>2026-08-12T14:55:08.000Z</time>
      </trkpt>
      <trkpt lat="45.21502" lon="5.73055">
        <ele>976.59997558594</ele>
        <time>2026-08-12T14:55:09.000Z</time>
      </trkpt>
      <trkpt lat="45.21501" lon="5.73055">
        <ele>976.40002441406</ele>
        <time>2026-08-12T14:55:10.000Z</time>
      </trkpt>
      <trkpt lat="45.21501" lon="5.73055">
        <ele>976.20001220703</ele>
        <time>2026-08-12T14:55:11.000Z</time>
      </trkpt>
      <trkpt lat="45.215" lon="5.73055">
        <ele>976.20001220703</ele>
        <time>2026-08-12T14:55:12.000Z</time>
      </trkpt>
      <trkpt lat="45.215" lon="5.73055">
        <ele>976</ele>
        <time>2026-08-12T14:55:13.000Z</time>
      </trkpt>
      <trkpt lat="45.21499" lon="5.73056">
        <ele>975.79998779297</ele>
        <time>2026-08-12T14:55:14.000Z</time>
      </trkpt>
      <trkpt lat="45.21499" lon="5.73058">
        <ele>975.79998779297</ele>
        <time>2026-08-12T14:55:15.000Z</time>
      </trkpt>
      <trkpt lat="45.21498" lon="5.73059">
        <ele>975.79998779297</ele>
        <time>2026-08-12T14:55:16.000Z</time>
      </trkpt>
      <trkpt lat="45.21498" lon="5.7306">
        <ele>975.59997558594</ele>
        <time>2026-08-12T14:55:17.000Z</time>
      </trkpt>
      <trkpt lat="45.21497" lon="5.73061">
        <ele>975.59997558594</ele>
        <time>2026-08-12T14:55:18.000Z</time>
      </trkpt>
      <trkpt lat="45.21497" lon="5.73063">
        <ele>975.59997558594</ele>
        <time>2026-08-12T14:55:19.000Z</time>
      </trkpt>
      <trkpt lat="45.21497" lon="5.73063">
        <ele>975.79998779297</ele>
        <time>2026-08-12T14:55:20.000Z</time>
      </trkpt>
      <trkpt lat="45.21496" lon="5.73063">
        <ele>976.20001220703</ele>
        <time>2026-08-12T14:55:21.000Z</time>
      </trkpt>
      <trkpt lat="45.21496" lon="5.73063">
        <ele>976.40002441406</ele>
        <time>2026-08-12T14:55:22.000Z</time>
      </trkpt>
      <trkpt lat="45.21495" lon="5.73063">
        <ele>976.59997558594</ele>
        <time>2026-08-12T14:55:23.000Z</time>
      </trkpt>
      <trkpt lat="45.21495" lon="5.73063">
        <ele>976.79998779297</ele>
        <time>2026-08-12T14:55:24.000Z</time>
      </trkpt>
      <trkpt lat="45.21495" lon="5.73063">
        <ele>976.79998779297</ele>
        <time>2026-08-12T14:55:25.000Z</time>
      </trkpt>
      <trkpt lat="45.21495" lon="5.73063">
        <ele>976.79998779297</ele>
        <time>2026-08-12T14:55:26.000Z</time>
      </trkpt>
      <trkpt lat="45.21495" lon="5.73063">
        <ele>976.79998779297</ele>
        <time>2026-08-12T14:55:27.000Z</time>
      </trkpt>
      <trkpt lat="45.21495" lon="5.73063">
        <ele>976.79998779297</ele>
        <time>2026-08-12T14:55:28.000Z</time>
      </trkpt>
      <trkpt lat="45.21526" lon="5.73057">
        <ele>970.59997558594</ele>
        <time>2026-08-12T18:18:58.000Z</time>
      </trkpt>
      <trkpt lat="45.21526" lon="5.73057">
        <ele>970.59997558594</ele>
        <time>2026-08-12T18:18:59.000Z</time>
      </trkpt>
      <trkpt lat="45.21526" lon="5.73057">
        <ele>970.59997558594</ele>
        <time>2026-08-12T18:19:00.000Z</time>
      </trkpt>
      <trkpt lat="45.21526" lon="5.73057">
        <ele>970.59997558594</ele>
        <time>2026-08-12T18:19:01.000Z</time>
      </trkpt>
      <trkpt lat="45.21527" lon="5.73057">
        <ele>971</ele>
        <time>2026-08-12T18:19:02.000Z</time>
      </trkpt>
      <trkpt lat="45.21528" lon="5.73058">
        <ele>971.40002441406</ele>
        <time>2026-08-12T18:19:03.000Z</time>
      </trkpt>
      <trkpt lat="45.21529" lon="5.73057">
        <ele>971.79998779297</ele>
        <time>2026-08-12T18:19:04.000Z</time>
      </trkpt>
      <trkpt lat="45.2153" lon="5.73058">
        <ele>972</ele>
        <time>2026-08-12T18:19:05.000Z</time>
      </trkpt>
      <trkpt lat="45.21531" lon="5.73059">
        <ele>972.40002441406</ele>
        <time>2026-08-12T18:19:06.000Z</time>
      </trkpt>
      <trkpt lat="45.21531" lon="5.7306">
        <ele>972.59997558594</ele>
        <time>2026-08-12T18:19:07.000Z</time>
      </trkpt>
      <trkpt lat="45.21533" lon="5.7306">
        <ele>973</ele>
        <time>2026-08-12T18:19:08.000Z</time>
      </trkpt>
      <trkpt lat="45.21534" lon="5.73061">
        <ele>973.20001220703</ele>
        <time>2026-08-12T18:19:09.000Z</time>
      </trkpt>
      <trkpt lat="45.21535" lon="5.73061">
        <ele>973.40002441406</ele>
        <time>2026-08-12T18:19:10.000Z</time>
      </trkpt>
      <trkpt lat="45.21536" lon="5.73061">
        <ele>973.59997558594</ele>
        <time>2026-08-12T18:19:11.000Z</time>
      </trkpt>
      <trkpt lat="45.21536" lon="5.73062">
        <ele>974</ele>
        <time>2026-08-12T18:19:12.000Z</time>
      </trkpt>
      <trkpt lat="45.21537" lon="5.73062">
        <ele>974.20001220703</ele>
        <time>2026-08-12T18:19:13.000Z</time>
      </trkpt>
      <trkpt lat="45.21538" lon="5.73062">
        <ele>974.59997558594</ele>
        <time>2026-08-12T18:19:14.000Z</time>
      </trkpt>
      <trkpt lat="45.21539" lon="5.73062">
        <ele>974.79998779297</ele>
        <time>2026-08-12T18:19:15.000Z</time>
      </trkpt>
      <trkpt lat="45.2154" lon="5.73063">
        <ele>975</ele>
        <time>2026-08-12T18:19:16.000Z</time>
      </trkpt>
      <trkpt lat="45.2154" lon="5.73064">
        <ele>975.40002441406</ele>
        <time>2026-08-12T18:19:17.000Z</time>
      </trkpt>
      <trkpt lat="45.21541" lon="5.73064">
        <ele>975.40002441406</ele>
        <time>2026-08-12T18:19:18.000Z</time>
      </trkpt>
      <trkpt lat="45.21542" lon="5.73065">
        <ele>975.59997558594</ele>
        <time>2026-08-12T18:19:19.000Z</time>
      </trkpt>
      <trkpt lat="45.21543" lon="5.73065">
        <ele>975.59997558594</ele>
        <time>2026-08-12T18:19:20.000Z</time>
      </trkpt>
      <trkpt lat="45.21544" lon="5.73064">
        <ele>975.59997558594</ele>
        <time>2026-08-12T18:19:21.000Z</time>
      </trkpt>
      <trkpt lat="45.21545" lon="5.73064">
        <ele>975.59997558594</ele>
        <time>2026-08-12T18:19:22.000Z</time>
      </trkpt>
      <trkpt lat="45.21546" lon="5.73064">
        <ele>975.40002441406</ele>
        <time>2026-08-12T18:19:23.000Z</time>
      </trkpt>
      <trkpt lat="45.21546" lon="5.73064">
        <ele>975.40002441406</ele>
        <time>2026-08-12T18:19:24.000Z</time>
      </trkpt>
      <trkpt lat="45.21547" lon="5.73063">
        <ele>975.20001220703</ele>
        <time>2026-08-12T18:19:25.000Z</time>
      </trkpt>
      <trkpt lat="45.21549" lon="5.73064">
        <ele>975.20001220703</ele>
        <time>2026-08-12T18:19:26.000Z</time>
      </trkpt>
      <trkpt lat="45.2155" lon="5.73064">
        <ele>975</ele>
        <time>2026-08-12T18:19:27.000Z</time>
      </trkpt>
      <trkpt lat="45.21551" lon="5.73065">
        <ele>975</ele>
        <time>2026-08-12T18:19:28.000Z</time>
      </trkpt>
      <trkpt lat="45.21551" lon="5.73065">
        <ele>975</ele>
        <time>2026-08-12T18:19:29.000Z</time>
      </trkpt>
      <trkpt lat="45.21552" lon="5.73065">
        <ele>975.20001220703</ele>
        <time>2026-08-12T18:19:30.000Z</time>
      </trkpt>
      <trkpt lat="45.21553" lon="5.73065">
        <ele>975.40002441406</ele>
        <time>2026-08-12T18:19:31.000Z</time>
      </trkpt>
      <trkpt lat="45.21554" lon="5.73066">
        <ele>975.59997558594</ele>
        <time>2026-08-12T18:19:32.000Z</time>
      </trkpt>
      <trkpt lat="45.21555" lon="5.73067">
        <ele>975.59997558594</ele>
        <time>2026-08-12T18:19:33.000Z</time>
      </trkpt>
      <trkpt lat="45.21555" lon="5.73068">
        <ele>975.59997558594</ele>
        <time>2026-08-12T18:19:34.000Z</time>
      </trkpt>
      <trkpt lat="45.21556" lon="5.73068">
        <ele>975.40002441406</ele>
        <time>2026-08-12T18:19:35.000Z</time>
      </trkpt>
      <trkpt lat="45.21557" lon="5.73069">
        <ele>975.40002441406</ele>
        <time>2026-08-12T18:19:36.000Z</time>
      </trkpt>
      <trkpt lat="45.21558" lon="5.73069">
        <ele>975.40002441406</ele>
        <time>2026-08-12T18:19:37.000Z</time>
      </trkpt>
      <trkpt lat="45.21558" lon="5.73068">
        <ele>975.20001220703</ele>
        <time>2026-08-12T18:19:38.000Z</time>
      </trkpt>
      <trkpt lat="45.2156" lon="5.73068">
        <ele>975.20001220703</ele>
        <time>2026-08-12T18:19:39.000Z</time>
      </trkpt>
      <trkpt lat="45.21561" lon="5.7307">
        <ele>975.20001220703</ele>
        <time>2026-08-12T18:19:40.000Z</time>
      </trkpt>
      <trkpt lat="45.21562" lon="5.73071">
        <ele>975.20001220703</ele>
        <time>2026-08-12T18:19:41.000Z</time>
      </trkpt>
      <trkpt lat="45.21563" lon="5.73072">
        <ele>975.40002441406</ele>
        <time>2026-08-12T18:19:42.000Z</time>
      </trkpt>
      <trkpt lat="45.21563" lon="5.73073">
        <ele>975.59997558594</ele>
        <time>2026-08-12T18:19:43.000Z</time>
      </trkpt>
      <trkpt lat="45.21563" lon="5.73074">
        <ele>975.59997558594</ele>
        <time>2026-08-12T18:19:44.000Z</time>
      </trkpt>
      <trkpt lat="45.21564" lon="5.73075">
        <ele>975.79998779297</ele>
        <time>2026-08-12T18:19:45.000Z</time>
      </trkpt>
      <trkpt lat="45.21564" lon="5.73076">
        <ele>976.20001220703</ele>
        <time>2026-08-12T18:19:46.000Z</time>
      </trkpt>
      <trkpt lat="45.21565" lon="5.73077">
        <ele>976.40002441406</ele>
        <time>2026-08-12T18:19:47.000Z</time>
      </trkpt>
      <trkpt lat="45.21566" lon="5.73077">
        <ele>976.79998779297</ele>
        <time>2026-08-12T18:19:48.000Z</time>
      </trkpt>
      <trkpt lat="45.21566" lon="5.73079">
        <ele>977</ele>
        <time>2026-08-12T18:19:49.000Z</time>
      </trkpt>
      <trkpt lat="45.21565" lon="5.73081">
        <ele>977.20001220703</ele>
        <time>2026-08-12T18:19:50.000Z</time>
      </trkpt>
      <trkpt lat="45.21565" lon="5.73082">
        <ele>977.40002441406</ele>
        <time>2026-08-12T18:19:51.000Z</time>
      </trkpt>
      <trkpt lat="45.21565" lon="5.73083">
        <ele>977.59997558594</ele>
        <time>2026-08-12T18:19:52.000Z</time>
      </trkpt>
      <trkpt lat="45.21565" lon="5.73084">
        <ele>978</ele>
        <time>2026-08-12T18:19:53.000Z</time>
      </trkpt>
      <trkpt lat="45.21566" lon="5.73085">
        <ele>978.40002441406</ele>
        <time>2026-08-12T18:19:54.000Z</time>
      </trkpt>
      <trkpt lat="45.21567" lon="5.73086">
        <ele>978.59997558594</ele>
        <time>2026-08-12T18:19:55.000Z</time>
      </trkpt>
      <trkpt lat="45.21568" lon="5.73088">
        <ele>979</ele>
        <time>2026-08-12T18:19:56.000Z</time>
      </trkpt>
      <trkpt lat="45.21567" lon="5.73089">
        <ele>979.20001220703</ele>
        <time>2026-08-12T18:19:57.000Z</time>
      </trkpt>
      <trkpt lat="45.21567" lon="5.73091">
        <ele>979.20001220703</ele>
        <time>2026-08-12T18:19:58.000Z</time>
      </trkpt>
      <trkpt lat="45.21568" lon="5.73093">
        <ele>979.40002441406</ele>
        <time>2026-08-12T18:19:59.000Z</time>
      </trkpt>
      <trkpt lat="45.21568" lon="5.73095">
        <ele>979.59997558594</ele>
        <time>2026-08-12T18:20:00.000Z</time>
      </trkpt>
      <trkpt lat="45.21568" lon="5.73097">
        <ele>979.79998779297</ele>
        <time>2026-08-12T18:20:01.000Z</time>
      </trkpt>
      <trkpt lat="45.21569" lon="5.73098">
        <ele>979.79998779297</ele>
        <time>2026-08-12T18:20:02.000Z</time>
      </trkpt>
      <trkpt lat="45.2157" lon="5.73099">
        <ele>979.79998779297</ele>
        <time>2026-08-12T18:20:03.000Z</time>
      </trkpt>
      <trkpt lat="45.21571" lon="5.73101">
        <ele>979.79998779297</ele>
        <time>2026-08-12T18:20:04.000Z</time>
      </trkpt>
      <trkpt lat="45.21571" lon="5.73103">
        <ele>979.79998779297</ele>
        <time>2026-08-12T18:20:05.000Z</time>
      </trkpt>
      <trkpt lat="45.21573" lon="5.73104">
        <ele>979.79998779297</ele>
        <time>2026-08-12T18:20:06.000Z</time>
      </trkpt>
      <trkpt lat="45.21575" lon="5.73105">
        <ele>979.79998779297</ele>
        <time>2026-08-12T18:20:07.000Z</time>
      </trkpt>
      <trkpt lat="45.21576" lon="5.73106">
        <ele>979.79998779297</ele>
        <time>2026-08-12T18:20:08.000Z</time>
      </trkpt>
      <trkpt lat="45.21577" lon="5.73107">
        <ele>980</ele>
        <time>2026-08-12T18:20:09.000Z</time>
      </trkpt>
      <trkpt lat="45.21579" lon="5.73107">
        <ele>980</ele>
        <time>2026-08-12T18:20:10.000Z</time>
      </trkpt>
      <trkpt lat="45.21581" lon="5.73107">
        <ele>980</ele>
        <time>2026-08-12T18:20:11.000Z</time>
      </trkpt>
      <trkpt lat="45.21582" lon="5.73108">
        <ele>980</ele>
        <time>2026-08-12T18:20:12.000Z</time>
      </trkpt>
      <trkpt lat="45.21584" lon="5.73108">
        <ele>980</ele>
        <time>2026-08-12T18:20:13.000Z</time>
      </trkpt>
      <trkpt lat="45.21586" lon="5.73109">
        <ele>980</ele>
        <time>2026-08-12T18:20:14.000Z</time>
      </trkpt>
      <trkpt lat="45.21588" lon="5.7311">
        <ele>980</ele>
        <time>2026-08-12T18:20:15.000Z</time>
      </trkpt>
      <trkpt lat="45.21588" lon="5.73113">
        <ele>980</ele>
        <time>2026-08-12T18:20:16.000Z</time>
      </trkpt>
      <trkpt lat="45.21588" lon="5.73115">
        <ele>980</ele>
        <time>2026-08-12T18:20:17.000Z</time>
      </trkpt>
      <trkpt lat="45.21588" lon="5.73117">
        <ele>979.79998779297</ele>
        <time>2026-08-12T18:20:18.000Z</time>
      </trkpt>
      <trkpt lat="45.21587" lon="5.73119">
        <ele>979.40002441406</ele>
        <time>2026-08-12T18:20:19.000Z</time>
      </trkpt>
      <trkpt lat="45.21587" lon="5.7312">
        <ele>979.20001220703</ele>
        <time>2026-08-12T18:20:20.000Z</time>
      </trkpt>
      <trkpt lat="45.21585" lon="5.73121">
        <ele>978.79998779297</ele>
        <time>2026-08-12T18:20:21.000Z</time>
      </trkpt>
      <trkpt lat="45.21585" lon="5.73122">
        <ele>978.59997558594</ele>
        <time>2026-08-12T18:20:22.000Z</time>
      </trkpt>
      <trkpt lat="45.21584" lon="5.73122">
        <ele>978.20001220703</ele>
        <time>2026-08-12T18:20:23.000Z</time>
      </trkpt>
      <trkpt lat="45.21583" lon="5.73123">
        <ele>978</ele>
        <time>2026-08-12T18:20:24.000Z</time>
      </trkpt>
      <trkpt lat="45.21583" lon="5.73125">
        <ele>977.59997558594</ele>
        <time>2026-08-12T18:20:25.000Z</time>
      </trkpt>
      <trkpt lat="45.21582" lon="5.73126">
        <ele>977.20001220703</ele>
        <time>2026-08-12T18:20:26.000Z</time>
      </trkpt>
      <trkpt lat="45.21583" lon="5.73127">
        <ele>976.79998779297</ele>
        <time>2026-08-12T18:20:27.000Z</time>
      </trkpt>
      <trkpt lat="45.21583" lon="5.73129">
        <ele>976.40002441406</ele>
        <time>2026-08-12T18:20:28.000Z</time>
      </trkpt>
      <trkpt lat="45.21583" lon="5.7313">
        <ele>976.20001220703</ele>
        <time>2026-08-12T18:20:29.000Z</time>
      </trkpt>
      <trkpt lat="45.21583" lon="5.7313">
        <ele>975.79998779297</ele>
        <time>2026-08-12T18:20:30.000Z</time>
      </trkpt>
      <trkpt lat="45.21584" lon="5.73131">
        <ele>975.40002441406</ele>
        <time>2026-08-12T18:20:31.000Z</time>
      </trkpt>
      <trkpt lat="45.21584" lon="5.73132">
        <ele>975.20001220703</ele>
        <time>2026-08-12T18:20:32.000Z</time>
      </trkpt>
      <trkpt lat="45.21584" lon="5.73134">
        <ele>975</ele>
        <time>2026-08-12T18:20:33.000Z</time>
      </trkpt>
      <trkpt lat="45.21584" lon="5.73136">
        <ele>974.59997558594</ele>
        <time>2026-08-12T18:20:34.000Z</time>
      </trkpt>
      <trkpt lat="45.21583" lon="5.73137">
        <ele>974.20001220703</ele>
        <time>2026-08-12T18:20:35.000Z</time>
      </trkpt>
      <trkpt lat="45.21583" lon="5.73139">
        <ele>973.79998779297</ele>
        <time>2026-08-12T18:20:36.000Z</time>
      </trkpt>
      <trkpt lat="45.21582" lon="5.73141">
        <ele>973.40002441406</ele>
        <time>2026-08-12T18:20:37.000Z</time>
      </trkpt>
      <trkpt lat="45.21581" lon="5.73142">
        <ele>973</ele>
        <time>2026-08-12T18:20:38.000Z</time>
      </trkpt>
      <trkpt lat="45.21581" lon="5.73142">
        <ele>972.59997558594</ele>
        <time>2026-08-12T18:20:39.000Z</time>
      </trkpt>
      <trkpt lat="45.2158" lon="5.73144">
        <ele>972.59997558594</ele>
        <time>2026-08-12T18:20:40.000Z</time>
      </trkpt>
      <trkpt lat="45.21579" lon="5.73145">
        <ele>972</ele>
        <time>2026-08-12T18:20:41.000Z</time>
      </trkpt>
      <trkpt lat="45.21578" lon="5.73145">
        <ele>971.79998779297</ele>
        <time>2026-08-12T18:20:42.000Z</time>
      </trkpt>
      <trkpt lat="45.21578" lon="5.73145">
        <ele>971.59997558594</ele>
        <time>2026-08-12T18:20:43.000Z</time>
      </trkpt>
      <trkpt lat="45.21577" lon="5.73146">
        <ele>971.20001220703</ele>
        <time>2026-08-12T18:20:44.000Z</time>
      </trkpt>
      <trkpt lat="45.21577" lon="5.73146">
        <ele>971.20001220703</ele>
        <time>2026-08-12T18:20:45.000Z</time>
      </trkpt>
      <trkpt lat="45.21577" lon="5.73147">
        <ele>970.79998779297</ele>
        <time>2026-08-12T18:20:46.000Z</time>
      </trkpt>
      <trkpt lat="45.21577" lon="5.73149">
        <ele>970.40002441406</ele>
        <time>2026-08-12T18:20:47.000Z</time>
      </trkpt>
      <trkpt lat="45.21576" lon="5.73149">
        <ele>970</ele>
        <time>2026-08-12T18:20:48.000Z</time>
      </trkpt>
      <trkpt lat="45.21577" lon="5.73149">
        <ele>969.59997558594</ele>
        <time>2026-08-12T18:20:49.000Z</time>
      </trkpt>
      <trkpt lat="45.21577" lon="5.73151">
        <ele>969.40002441406</ele>
        <time>2026-08-12T18:20:50.000Z</time>
      </trkpt>
      <trkpt lat="45.21577" lon="5.73152">
        <ele>969.20001220703</ele>
        <time>2026-08-12T18:20:51.000Z</time>
      </trkpt>
      <trkpt lat="45.21576" lon="5.73153">
        <ele>969.20001220703</ele>
        <time>2026-08-12T18:20:52.000Z</time>
      </trkpt>
      <trkpt lat="45.21576" lon="5.73153">
        <ele>969</ele>
        <time>2026-08-12T18:20:53.000Z</time>
      </trkpt>
      <trkpt lat="45.21576" lon="5.73153">
        <ele>969</ele>
        <time>2026-08-12T18:20:54.000Z</time>
      </trkpt>
      <trkpt lat="45.21576" lon="5.73153">
        <ele>968.79998779297</ele>
        <time>2026-08-12T18:20:55.000Z</time>
      </trkpt>
      <trkpt lat="45.21576" lon="5.73153">
        <ele>968.40002441406</ele>
        <time>2026-08-12T18:20:56.000Z</time>
      </trkpt>
      <trkpt lat="45.21576" lon="5.73154">
        <ele>968.20001220703</ele>
        <time>2026-08-12T18:20:57.000Z</time>
      </trkpt>
      <trkpt lat="45.21576" lon="5.73156">
        <ele>968</ele>
        <time>2026-08-12T18:20:58.000Z</time>
      </trkpt>
      <trkpt lat="45.21577" lon="5.73157">
        <ele>967.79998779297</ele>
        <time>2026-08-12T18:20:59.000Z</time>
      </trkpt>
      <trkpt lat="45.21576" lon="5.73159">
        <ele>967.59997558594</ele>
        <time>2026-08-12T18:21:00.000Z</time>
      </trkpt>
      <trkpt lat="45.21575" lon="5.7316">
        <ele>967.40002441406</ele>
        <time>2026-08-12T18:21:01.000Z</time>
      </trkpt>
      <trkpt lat="45.21574" lon="5.7316">
        <ele>967</ele>
        <time>2026-08-12T18:21:02.000Z</time>
      </trkpt>
      <trkpt lat="45.21573" lon="5.7316">
        <ele>966.79998779297</ele>
        <time>2026-08-12T18:21:03.000Z</time>
      </trkpt>
      <trkpt lat="45.21572" lon="5.73161">
        <ele>966.40002441406</ele>
        <time>2026-08-12T18:21:04.000Z</time>
      </trkpt>
      <trkpt lat="45.21571" lon="5.73161">
        <ele>966.20001220703</ele>
        <time>2026-08-12T18:21:05.000Z</time>
      </trkpt>
      <trkpt lat="45.21571" lon="5.73163">
        <ele>965.79998779297</ele>
        <time>2026-08-12T18:21:06.000Z</time>
      </trkpt>
      <trkpt lat="45.2157" lon="5.73164">
        <ele>965.40002441406</ele>
        <time>2026-08-12T18:21:07.000Z</time>
      </trkpt>
      <trkpt lat="45.2157" lon="5.73165">
        <ele>965.20001220703</ele>
        <time>2026-08-12T18:21:08.000Z</time>
      </trkpt>
      <trkpt lat="45.2157" lon="5.73168">
        <ele>964.40002441406</ele>
        <time>2026-08-12T18:21:09.000Z</time>
      </trkpt>
      <trkpt lat="45.2157" lon="5.73169">
        <ele>963.79998779297</ele>
        <time>2026-08-12T18:21:10.000Z</time>
      </trkpt>
      <trkpt lat="45.21571" lon="5.7317">
        <ele>963.20001220703</ele>
        <time>2026-08-12T18:21:11.000Z</time>
      </trkpt>
      <trkpt lat="45.21571" lon="5.7317">
        <ele>962.59997558594</ele>
        <time>2026-08-12T18:21:12.000Z</time>
      </trkpt>
      <trkpt lat="45.21571" lon="5.7317">
        <ele>962.40002441406</ele>
        <time>2026-08-12T18:21:13.000Z</time>
      </trkpt>
      <trkpt lat="45.21571" lon="5.73171">
        <ele>962.20001220703</ele>
        <time>2026-08-12T18:21:14.000Z</time>
      </trkpt>
      <trkpt lat="45.21571" lon="5.73172">
        <ele>962.20001220703</ele>
        <time>2026-08-12T18:21:15.000Z</time>
      </trkpt>
      <trkpt lat="45.21571" lon="5.73172">
        <ele>962.20001220703</ele>
        <time>2026-08-12T18:21:16.000Z</time>
      </trkpt>
      <trkpt lat="45.21572" lon="5.73173">
        <ele>962.20001220703</ele>
        <time>2026-08-12T18:21:17.000Z</time>
      </trkpt>
      <trkpt lat="45.21572" lon="5.73174">
        <ele>962</ele>
        <time>2026-08-12T18:21:18.000Z</time>
      </trkpt>
      <trkpt lat="45.21571" lon="5.73175">
        <ele>962</ele>
        <time>2026-08-12T18:21:19.000Z</time>
      </trkpt>
      <trkpt lat="45.21571" lon="5.73176">
        <ele>961.79998779297</ele>
        <time>2026-08-12T18:21:20.000Z</time>
      </trkpt>
      <trkpt lat="45.21571" lon="5.73177">
        <ele>961.59997558594</ele>
        <time>2026-08-12T18:21:21.000Z</time>
      </trkpt>
      <trkpt lat="45.21571" lon="5.73178">
        <ele>961.40002441406</ele>
        <time>2026-08-12T18:21:22.000Z</time>
      </trkpt>
      <trkpt lat="45.21572" lon="5.73179">
        <ele>961</ele>
        <time>2026-08-12T18:21:23.000Z</time>
      </trkpt>
      <trkpt lat="45.21572" lon="5.7318">
        <ele>960.59997558594</ele>
        <time>2026-08-12T18:21:24.000Z</time>
      </trkpt>
      <trkpt lat="45.21573" lon="5.73182">
        <ele>960.40002441406</ele>
        <time>2026-08-12T18:21:25.000Z</time>
      </trkpt>
      <trkpt lat="45.21574" lon="5.73183">
        <ele>960</ele>
        <time>2026-08-12T18:21:26.000Z</time>
      </trkpt>
      <trkpt lat="45.21575" lon="5.73185">
        <ele>959.79998779297</ele>
        <time>2026-08-12T18:21:27.000Z</time>
      </trkpt>
      <trkpt lat="45.21576" lon="5.73187">
        <ele>959.20001220703</ele>
        <time>2026-08-12T18:21:28.000Z</time>
      </trkpt>
      <trkpt lat="45.21578" lon="5.73188">
        <ele>958.79998779297</ele>
        <time>2026-08-12T18:21:29.000Z</time>
      </trkpt>
      <trkpt lat="45.2158" lon="5.7319">
        <ele>958.20001220703</ele>
        <time>2026-08-12T18:21:30.000Z</time>
      </trkpt>
      <trkpt lat="45.21583" lon="5.73191">
        <ele>957.59997558594</ele>
        <time>2026-08-12T18:21:31.000Z</time>
      </trkpt>
      <trkpt lat="45.21585" lon="5.73193">
        <ele>957.20001220703</ele>
        <time>2026-08-12T18:21:32.000Z</time>
      </trkpt>
      <trkpt lat="45.21588" lon="5.73196">
        <ele>957</ele>
        <time>2026-08-12T18:21:33.000Z</time>
      </trkpt>
      <trkpt lat="45.21589" lon="5.73198">
        <ele>956.59997558594</ele>
        <time>2026-08-12T18:21:34.000Z</time>
      </trkpt>
      <trkpt lat="45.21592" lon="5.732">
        <ele>956.40002441406</ele>
        <time>2026-08-12T18:21:35.000Z</time>
      </trkpt>
      <trkpt lat="45.21593" lon="5.73202">
        <ele>956.20001220703</ele>
        <time>2026-08-12T18:21:36.000Z</time>
      </trkpt>
      <trkpt lat="45.21595" lon="5.73204">
        <ele>955.79998779297</ele>
        <time>2026-08-12T18:21:37.000Z</time>
      </trkpt>
      <trkpt lat="45.21597" lon="5.73207">
        <ele>955.40002441406</ele>
        <time>2026-08-12T18:21:38.000Z</time>
      </trkpt>
      <trkpt lat="45.21598" lon="5.73208">
        <ele>955.40002441406</ele>
        <time>2026-08-12T18:21:39.000Z</time>
      </trkpt>
      <trkpt lat="45.216" lon="5.7321">
        <ele>954.79998779297</ele>
        <time>2026-08-12T18:21:40.000Z</time>
      </trkpt>
      <trkpt lat="45.21602" lon="5.73212">
        <ele>954.79998779297</ele>
        <time>2026-08-12T18:21:41.000Z</time>
      </trkpt>
      <trkpt lat="45.21603" lon="5.73214">
        <ele>954.40002441406</ele>
        <time>2026-08-12T18:21:42.000Z</time>
      </trkpt>
      <trkpt lat="45.21605" lon="5.73216">
        <ele>954.20001220703</ele>
        <time>2026-08-12T18:21:43.000Z</time>
      </trkpt>
      <trkpt lat="45.21606" lon="5.73218">
        <ele>954</ele>
        <time>2026-08-12T18:21:44.000Z</time>
      </trkpt>
      <trkpt lat="45.21608" lon="5.7322">
        <ele>954</ele>
        <time>2026-08-12T18:21:45.000Z</time>
      </trkpt>
      <trkpt lat="45.21609" lon="5.73221">
        <ele>953.59997558594</ele>
        <time>2026-08-12T18:21:46.000Z</time>
      </trkpt>
      <trkpt lat="45.21609" lon="5.73223">
        <ele>953.40002441406</ele>
        <time>2026-08-12T18:21:47.000Z</time>
      </trkpt>
      <trkpt lat="45.2161" lon="5.73224">
        <ele>953.20001220703</ele>
        <time>2026-08-12T18:21:48.000Z</time>
      </trkpt>
      <trkpt lat="45.21611" lon="5.73225">
        <ele>953</ele>
        <time>2026-08-12T18:21:49.000Z</time>
      </trkpt>
      <trkpt lat="45.21611" lon="5.73226">
        <ele>952.79998779297</ele>
        <time>2026-08-12T18:21:50.000Z</time>
      </trkpt>
      <trkpt lat="45.21611" lon="5.73227">
        <ele>952.40002441406</ele>
        <time>2026-08-12T18:21:51.000Z</time>
      </trkpt>
      <trkpt lat="45.21612" lon="5.73228">
        <ele>952.20001220703</ele>
        <time>2026-08-12T18:21:52.000Z</time>
      </trkpt>
      <trkpt lat="45.21612" lon="5.7323">
        <ele>952</ele>
        <time>2026-08-12T18:21:53.000Z</time>
      </trkpt>
      <trkpt lat="45.21613" lon="5.73231">
        <ele>951.59997558594</ele>
        <time>2026-08-12T18:21:54.000Z</time>
      </trkpt>
      <trkpt lat="45.21614" lon="5.73232">
        <ele>951.20001220703</ele>
        <time>2026-08-12T18:21:55.000Z</time>
      </trkpt>
      <trkpt lat="45.21614" lon="5.73232">
        <ele>951</ele>
        <time>2026-08-12T18:21:56.000Z</time>
      </trkpt>
      <trkpt lat="45.21615" lon="5.73233">
        <ele>950.79998779297</ele>
        <time>2026-08-12T18:21:57.000Z</time>
      </trkpt>
      <trkpt lat="45.21615" lon="5.73234">
        <ele>950.59997558594</ele>
        <time>2026-08-12T18:21:58.000Z</time>
      </trkpt>
      <trkpt lat="45.21615" lon="5.73236">
        <ele>950.40002441406</ele>
        <time>2026-08-12T18:21:59.000Z</time>
      </trkpt>
      <trkpt lat="45.21616" lon="5.73237">
        <ele>950.40002441406</ele>
        <time>2026-08-12T18:22:00.000Z</time>
      </trkpt>
      <trkpt lat="45.21617" lon="5.73239">
        <ele>950.20001220703</ele>
        <time>2026-08-12T18:22:01.000Z</time>
      </trkpt>
      <trkpt lat="45.21617" lon="5.7324">
        <ele>950</ele>
        <time>2026-08-12T18:22:02.000Z</time>
      </trkpt>
      <trkpt lat="45.21618" lon="5.73241">
        <ele>949.79998779297</ele>
        <time>2026-08-12T18:22:03.000Z</time>
      </trkpt>
      <trkpt lat="45.21619" lon="5.73242">
        <ele>949.40002441406</ele>
        <time>2026-08-12T18:22:04.000Z</time>
      </trkpt>
      <trkpt lat="45.2162" lon="5.73243">
        <ele>949.20001220703</ele>
        <time>2026-08-12T18:22:05.000Z</time>
      </trkpt>
      <trkpt lat="45.2162" lon="5.73245">
        <ele>948.79998779297</ele>
        <time>2026-08-12T18:22:06.000Z</time>
      </trkpt>
      <trkpt lat="45.21622" lon="5.73246">
        <ele>948.20001220703</ele>
        <time>2026-08-12T18:22:07.000Z</time>
      </trkpt>
      <trkpt lat="45.21623" lon="5.73249">
        <ele>947.79998779297</ele>
        <time>2026-08-12T18:22:08.000Z</time>
      </trkpt>
      <trkpt lat="45.21624" lon="5.7325">
        <ele>947.40002441406</ele>
        <time>2026-08-12T18:22:09.000Z</time>
      </trkpt>
      <trkpt lat="45.21625" lon="5.73252">
        <ele>947</ele>
        <time>2026-08-12T18:22:10.000Z</time>
      </trkpt>
      <trkpt lat="45.21626" lon="5.73255">
        <ele>946.79998779297</ele>
        <time>2026-08-12T18:22:11.000Z</time>
      </trkpt>
      <trkpt lat="45.21627" lon="5.73257">
        <ele>946.40002441406</ele>
        <time>2026-08-12T18:22:12.000Z</time>
      </trkpt>
      <trkpt lat="45.21628" lon="5.73259">
        <ele>945.59997558594</ele>
        <time>2026-08-12T18:22:13.000Z</time>
      </trkpt>
      <trkpt lat="45.21629" lon="5.73262">
        <ele>945.20001220703</ele>
        <time>2026-08-12T18:22:14.000Z</time>
      </trkpt>
      <trkpt lat="45.2163" lon="5.73263">
        <ele>944.79998779297</ele>
        <time>2026-08-12T18:22:15.000Z</time>
      </trkpt>
      <trkpt lat="45.21632" lon="5.73266">
        <ele>944.40002441406</ele>
        <time>2026-08-12T18:22:16.000Z</time>
      </trkpt>
      <trkpt lat="45.21633" lon="5.73269">
        <ele>944.20001220703</ele>
        <time>2026-08-12T18:22:17.000Z</time>
      </trkpt>
      <trkpt lat="45.21635" lon="5.73272">
        <ele>943.79998779297</ele>
        <time>2026-08-12T18:22:18.000Z</time>
      </trkpt>
      <trkpt lat="45.21637" lon="5.73275">
        <ele>943.59997558594</ele>
        <time>2026-08-12T18:22:19.000Z</time>
      </trkpt>
      <trkpt lat="45.21639" lon="5.73277">
        <ele>943.59997558594</ele>
        <time>2026-08-12T18:22:20.000Z</time>
      </trkpt>
      <trkpt lat="45.2164" lon="5.7328">
        <ele>943.20001220703</ele>
        <time>2026-08-12T18:22:21.000Z</time>
      </trkpt>
      <trkpt lat="45.21641" lon="5.73283">
        <ele>942.79998779297</ele>
        <time>2026-08-12T18:22:22.000Z</time>
      </trkpt>
      <trkpt lat="45.21643" lon="5.73285">
        <ele>942.59997558594</ele>
        <time>2026-08-12T18:22:23.000Z</time>
      </trkpt>
      <trkpt lat="45.21644" lon="5.73288">
        <ele>942.40002441406</ele>
        <time>2026-08-12T18:22:24.000Z</time>
      </trkpt>
      <trkpt lat="45.21645" lon="5.7329">
        <ele>942</ele>
        <time>2026-08-12T18:22:25.000Z</time>
      </trkpt>
      <trkpt lat="45.21646" lon="5.73292">
        <ele>941.79998779297</ele>
        <time>2026-08-12T18:22:26.000Z</time>
      </trkpt>
      <trkpt lat="45.21646" lon="5.73294">
        <ele>941.59997558594</ele>
        <time>2026-08-12T18:22:27.000Z</time>
      </trkpt>
      <trkpt lat="45.21646" lon="5.73296">
        <ele>941.20001220703</ele>
        <time>2026-08-12T18:22:28.000Z</time>
      </trkpt>
      <trkpt lat="45.21647" lon="5.73299">
        <ele>941</ele>
        <time>2026-08-12T18:22:29.000Z</time>
      </trkpt>
      <trkpt lat="45.21648" lon="5.73301">
        <ele>940.79998779297</ele>
        <time>2026-08-12T18:22:30.000Z</time>
      </trkpt>
      <trkpt lat="45.21648" lon="5.73303">
        <ele>940.40002441406</ele>
        <time>2026-08-12T18:22:31.000Z</time>
      </trkpt>
      <trkpt lat="45.21648" lon="5.73306">
        <ele>940.40002441406</ele>
        <time>2026-08-12T18:22:32.000Z</time>
      </trkpt>
      <trkpt lat="45.21649" lon="5.73309">
        <ele>940</ele>
        <time>2026-08-12T18:22:33.000Z</time>
      </trkpt>
      <trkpt lat="45.21649" lon="5.73311">
        <ele>939.79998779297</ele>
        <time>2026-08-12T18:22:34.000Z</time>
      </trkpt>
      <trkpt lat="45.21649" lon="5.73314">
        <ele>939.40002441406</ele>
        <time>2026-08-12T18:22:35.000Z</time>
      </trkpt>
      <trkpt lat="45.21649" lon="5.73316">
        <ele>939.20001220703</ele>
        <time>2026-08-12T18:22:36.000Z</time>
      </trkpt>
      <trkpt lat="45.2165" lon="5.73319">
        <ele>938.79998779297</ele>
        <time>2026-08-12T18:22:37.000Z</time>
      </trkpt>
      <trkpt lat="45.21651" lon="5.73321">
        <ele>938.59997558594</ele>
        <time>2026-08-12T18:22:38.000Z</time>
      </trkpt>
      <trkpt lat="45.21651" lon="5.73323">
        <ele>938</ele>
        <time>2026-08-12T18:22:39.000Z</time>
      </trkpt>
      <trkpt lat="45.21652" lon="5.73325">
        <ele>937.59997558594</ele>
        <time>2026-08-12T18:22:40.000Z</time>
      </trkpt>
      <trkpt lat="45.21653" lon="5.73326">
        <ele>937.20001220703</ele>
        <time>2026-08-12T18:22:41.000Z</time>
      </trkpt>
      <trkpt lat="45.21653" lon="5.73328">
        <ele>936.79998779297</ele>
        <time>2026-08-12T18:22:42.000Z</time>
      </trkpt>
      <trkpt lat="45.21654" lon="5.7333">
        <ele>936.40002441406</ele>
        <time>2026-08-12T18:22:43.000Z</time>
      </trkpt>
      <trkpt lat="45.21654" lon="5.73332">
        <ele>936</ele>
        <time>2026-08-12T18:22:44.000Z</time>
      </trkpt>
      <trkpt lat="45.21654" lon="5.73333">
        <ele>935.79998779297</ele>
        <time>2026-08-12T18:22:45.000Z</time>
      </trkpt>
      <trkpt lat="45.21654" lon="5.73335">
        <ele>935.59997558594</ele>
        <time>2026-08-12T18:22:46.000Z</time>
      </trkpt>
      <trkpt lat="45.21654" lon="5.73337">
        <ele>935.20001220703</ele>
        <time>2026-08-12T18:22:47.000Z</time>
      </trkpt>
      <trkpt lat="45.21654" lon="5.73338">
        <ele>935.20001220703</ele>
        <time>2026-08-12T18:22:48.000Z</time>
      </trkpt>
      <trkpt lat="45.21654" lon="5.73341">
        <ele>934.79998779297</ele>
        <time>2026-08-12T18:22:49.000Z</time>
      </trkpt>
      <trkpt lat="45.21655" lon="5.73343">
        <ele>934.40002441406</ele>
        <time>2026-08-12T18:22:50.000Z</time>
      </trkpt>
      <trkpt lat="45.21656" lon="5.73344">
        <ele>934</ele>
        <time>2026-08-12T18:22:51.000Z</time>
      </trkpt>
      <trkpt lat="45.21657" lon="5.73346">
        <ele>933.59997558594</ele>
        <time>2026-08-12T18:22:52.000Z</time>
      </trkpt>
      <trkpt lat="45.21658" lon="5.73348">
        <ele>933.40002441406</ele>
        <time>2026-08-12T18:22:53.000Z</time>
      </trkpt>
      <trkpt lat="45.21658" lon="5.7335">
        <ele>933.20001220703</ele>
        <time>2026-08-12T18:22:54.000Z</time>
      </trkpt>
      <trkpt lat="45.21659" lon="5.73353">
        <ele>932.79998779297</ele>
        <time>2026-08-12T18:22:55.000Z</time>
      </trkpt>
      <trkpt lat="45.2166" lon="5.73354">
        <ele>932</ele>
        <time>2026-08-12T18:22:56.000Z</time>
      </trkpt>
      <trkpt lat="45.2166" lon="5.73355">
        <ele>931.40002441406</ele>
        <time>2026-08-12T18:22:57.000Z</time>
      </trkpt>
      <trkpt lat="45.21661" lon="5.73357">
        <ele>931</ele>
        <time>2026-08-12T18:22:58.000Z</time>
      </trkpt>
      <trkpt lat="45.21661" lon="5.73359">
        <ele>930.79998779297</ele>
        <time>2026-08-12T18:22:59.000Z</time>
      </trkpt>
      <trkpt lat="45.21662" lon="5.7336">
        <ele>930.59997558594</ele>
        <time>2026-08-12T18:23:00.000Z</time>
      </trkpt>
      <trkpt lat="45.21663" lon="5.73362">
        <ele>930.20001220703</ele>
        <time>2026-08-12T18:23:01.000Z</time>
      </trkpt>
      <trkpt lat="45.21664" lon="5.73364">
        <ele>930</ele>
        <time>2026-08-12T18:23:02.000Z</time>
      </trkpt>
      <trkpt lat="45.21665" lon="5.73366">
        <ele>929.40002441406</ele>
        <time>2026-08-12T18:23:03.000Z</time>
      </trkpt>
      <trkpt lat="45.21665" lon="5.73368">
        <ele>929.20001220703</ele>
        <time>2026-08-12T18:23:04.000Z</time>
      </trkpt>
      <trkpt lat="45.21667" lon="5.7337">
        <ele>928.40002441406</ele>
        <time>2026-08-12T18:23:05.000Z</time>
      </trkpt>
      <trkpt lat="45.21668" lon="5.73373">
        <ele>928.20001220703</ele>
        <time>2026-08-12T18:23:06.000Z</time>
      </trkpt>
      <trkpt lat="45.21669" lon="5.73375">
        <ele>927.59997558594</ele>
        <time>2026-08-12T18:23:07.000Z</time>
      </trkpt>
      <trkpt lat="45.21669" lon="5.73377">
        <ele>927.20001220703</ele>
        <time>2026-08-12T18:23:08.000Z</time>
      </trkpt>
      <trkpt lat="45.2167" lon="5.7338">
        <ele>927</ele>
        <time>2026-08-12T18:23:09.000Z</time>
      </trkpt>
      <trkpt lat="45.21671" lon="5.73382">
        <ele>926.20001220703</ele>
        <time>2026-08-12T18:23:10.000Z</time>
      </trkpt>
      <trkpt lat="45.21672" lon="5.73384">
        <ele>925.79998779297</ele>
        <time>2026-08-12T18:23:11.000Z</time>
      </trkpt>
      <trkpt lat="45.21673" lon="5.73386">
        <ele>925</ele>
        <time>2026-08-12T18:23:12.000Z</time>
      </trkpt>
      <trkpt lat="45.21673" lon="5.73389">
        <ele>924.79998779297</ele>
        <time>2026-08-12T18:23:13.000Z</time>
      </trkpt>
      <trkpt lat="45.21673" lon="5.73391">
        <ele>924.20001220703</ele>
        <time>2026-08-12T18:23:14.000Z</time>
      </trkpt>
      <trkpt lat="45.21674" lon="5.73394">
        <ele>923.79998779297</ele>
        <time>2026-08-12T18:23:15.000Z</time>
      </trkpt>
      <trkpt lat="45.21674" lon="5.73396">
        <ele>923.59997558594</ele>
        <time>2026-08-12T18:23:16.000Z</time>
      </trkpt>
      <trkpt lat="45.21675" lon="5.73399">
        <ele>923.20001220703</ele>
        <time>2026-08-12T18:23:17.000Z</time>
      </trkpt>
      <trkpt lat="45.21676" lon="5.73401">
        <ele>922.79998779297</ele>
        <time>2026-08-12T18:23:18.000Z</time>
      </trkpt>
      <trkpt lat="45.21676" lon="5.73404">
        <ele>922.40002441406</ele>
        <time>2026-08-12T18:23:19.000Z</time>
      </trkpt>
      <trkpt lat="45.21676" lon="5.73407">
        <ele>922</ele>
        <time>2026-08-12T18:23:20.000Z</time>
      </trkpt>
      <trkpt lat="45.21677" lon="5.7341">
        <ele>921.79998779297</ele>
        <time>2026-08-12T18:23:21.000Z</time>
      </trkpt>
      <trkpt lat="45.21678" lon="5.73413">
        <ele>921.59997558594</ele>
        <time>2026-08-12T18:23:22.000Z</time>
      </trkpt>
      <trkpt lat="45.21678" lon="5.73416">
        <ele>921.20001220703</ele>
        <time>2026-08-12T18:23:23.000Z</time>
      </trkpt>
      <trkpt lat="45.21678" lon="5.73419">
        <ele>921</ele>
        <time>2026-08-12T18:23:24.000Z</time>
      </trkpt>
      <trkpt lat="45.21679" lon="5.73422">
        <ele>920.59997558594</ele>
        <time>2026-08-12T18:23:25.000Z</time>
      </trkpt>
      <trkpt lat="45.21679" lon="5.73425">
        <ele>920.20001220703</ele>
        <time>2026-08-12T18:23:26.000Z</time>
      </trkpt>
      <trkpt lat="45.21679" lon="5.73429">
        <ele>920</ele>
        <time>2026-08-12T18:23:27.000Z</time>
      </trkpt>
      <trkpt lat="45.21679" lon="5.73434">
        <ele>919.40002441406</ele>
        <time>2026-08-12T18:23:28.000Z</time>
      </trkpt>
      <trkpt lat="45.21679" lon="5.73437">
        <ele>918.59997558594</ele>
        <time>2026-08-12T18:23:29.000Z</time>
      </trkpt>
      <trkpt lat="45.21679" lon="5.7344">
        <ele>917.79998779297</ele>
        <time>2026-08-12T18:23:30.000Z</time>
      </trkpt>
      <trkpt lat="45.21679" lon="5.73443">
        <ele>917</ele>
        <time>2026-08-12T18:23:31.000Z</time>
      </trkpt>
      <trkpt lat="45.21678" lon="5.73445">
        <ele>916.79998779297</ele>
        <time>2026-08-12T18:23:32.000Z</time>
      </trkpt>
      <trkpt lat="45.21678" lon="5.73448">
        <ele>916.40002441406</ele>
        <time>2026-08-12T18:23:33.000Z</time>
      </trkpt>
      <trkpt lat="45.21677" lon="5.7345">
        <ele>916</ele>
        <time>2026-08-12T18:23:34.000Z</time>
      </trkpt>
      <trkpt lat="45.21677" lon="5.73453">
        <ele>915.40002441406</ele>
        <time>2026-08-12T18:23:35.000Z</time>
      </trkpt>
      <trkpt lat="45.21677" lon="5.73456">
        <ele>915</ele>
        <time>2026-08-12T18:23:36.000Z</time>
      </trkpt>
      <trkpt lat="45.21677" lon="5.73459">
        <ele>914.59997558594</ele>
        <time>2026-08-12T18:23:37.000Z</time>
      </trkpt>
      <trkpt lat="45.21677" lon="5.73462">
        <ele>914.40002441406</ele>
        <time>2026-08-12T18:23:38.000Z</time>
      </trkpt>
      <trkpt lat="45.21677" lon="5.73464">
        <ele>914.20001220703</ele>
        <time>2026-08-12T18:23:39.000Z</time>
      </trkpt>
      <trkpt lat="45.21677" lon="5.73467">
        <ele>914</ele>
        <time>2026-08-12T18:23:40.000Z</time>
      </trkpt>
      <trkpt lat="45.21677" lon="5.7347">
        <ele>914</ele>
        <time>2026-08-12T18:23:41.000Z</time>
      </trkpt>
      <trkpt lat="45.21677" lon="5.73472">
        <ele>913.79998779297</ele>
        <time>2026-08-12T18:23:42.000Z</time>
      </trkpt>
      <trkpt lat="45.21678" lon="5.73474">
        <ele>913.59997558594</ele>
        <time>2026-08-12T18:23:43.000Z</time>
      </trkpt>
      <trkpt lat="45.21678" lon="5.73476">
        <ele>913.20001220703</ele>
        <time>2026-08-12T18:23:44.000Z</time>
      </trkpt>
      <trkpt lat="45.21678" lon="5.73477">
        <ele>913</ele>
        <time>2026-08-12T18:23:45.000Z</time>
      </trkpt>
      <trkpt lat="45.21678" lon="5.73478">
        <ele>912.79998779297</ele>
        <time>2026-08-12T18:23:46.000Z</time>
      </trkpt>
      <trkpt lat="45.21678" lon="5.73479">
        <ele>912.59997558594</ele>
        <time>2026-08-12T18:23:47.000Z</time>
      </trkpt>
      <trkpt lat="45.21678" lon="5.73481">
        <ele>912.20001220703</ele>
        <time>2026-08-12T18:23:48.000Z</time>
      </trkpt>
      <trkpt lat="45.21679" lon="5.73483">
        <ele>912</ele>
        <time>2026-08-12T18:23:49.000Z</time>
      </trkpt>
      <trkpt lat="45.21679" lon="5.73485">
        <ele>911.59997558594</ele>
        <time>2026-08-12T18:23:50.000Z</time>
      </trkpt>
      <trkpt lat="45.21678" lon="5.73487">
        <ele>911.40002441406</ele>
        <time>2026-08-12T18:23:51.000Z</time>
      </trkpt>
      <trkpt lat="45.21677" lon="5.73489">
        <ele>911</ele>
        <time>2026-08-12T18:23:52.000Z</time>
      </trkpt>
      <trkpt lat="45.21677" lon="5.7349">
        <ele>910.79998779297</ele>
        <time>2026-08-12T18:23:53.000Z</time>
      </trkpt>
      <trkpt lat="45.21677" lon="5.73491">
        <ele>910.59997558594</ele>
        <time>2026-08-12T18:23:54.000Z</time>
      </trkpt>
      <trkpt lat="45.21677" lon="5.73492">
        <ele>910.40002441406</ele>
        <time>2026-08-12T18:23:55.000Z</time>
      </trkpt>
      <trkpt lat="45.21677" lon="5.73493">
        <ele>910</ele>
        <time>2026-08-12T18:23:56.000Z</time>
      </trkpt>
      <trkpt lat="45.21678" lon="5.73494">
        <ele>909.79998779297</ele>
        <time>2026-08-12T18:23:57.000Z</time>
      </trkpt>
      <trkpt lat="45.21678" lon="5.73495">
        <ele>909.40002441406</ele>
        <time>2026-08-12T18:23:58.000Z</time>
      </trkpt>
      <trkpt lat="45.2168" lon="5.73496">
        <ele>909.20001220703</ele>
        <time>2026-08-12T18:23:59.000Z</time>
      </trkpt>
      <trkpt lat="45.2168" lon="5.73497">
        <ele>908.79998779297</ele>
        <time>2026-08-12T18:24:00.000Z</time>
      </trkpt>
      <trkpt lat="45.21681" lon="5.73498">
        <ele>908.59997558594</ele>
        <time>2026-08-12T18:24:01.000Z</time>
      </trkpt>
      <trkpt lat="45.21682" lon="5.73498">
        <ele>908.40002441406</ele>
        <time>2026-08-12T18:24:02.000Z</time>
      </trkpt>
      <trkpt lat="45.21682" lon="5.73499">
        <ele>908.20001220703</ele>
        <time>2026-08-12T18:24:03.000Z</time>
      </trkpt>
      <trkpt lat="45.21683" lon="5.73499">
        <ele>908.20001220703</ele>
        <time>2026-08-12T18:24:04.000Z</time>
      </trkpt>
      <trkpt lat="45.21683" lon="5.73499">
        <ele>908</ele>
        <time>2026-08-12T18:24:05.000Z</time>
      </trkpt>
      <trkpt lat="45.21684" lon="5.735">
        <ele>907.79998779297</ele>
        <time>2026-08-12T18:24:06.000Z</time>
      </trkpt>
      <trkpt lat="45.21686" lon="5.735">
        <ele>907.79998779297</ele>
        <time>2026-08-12T18:24:07.000Z</time>
      </trkpt>
      <trkpt lat="45.21687" lon="5.73501">
        <ele>907.59997558594</ele>
        <time>2026-08-12T18:24:08.000Z</time>
      </trkpt>
      <trkpt lat="45.21687" lon="5.73502">
        <ele>907.59997558594</ele>
        <time>2026-08-12T18:24:09.000Z</time>
      </trkpt>
      <trkpt lat="45.21688" lon="5.73502">
        <ele>907.40002441406</ele>
        <time>2026-08-12T18:24:10.000Z</time>
      </trkpt>
      <trkpt lat="45.21689" lon="5.73503">
        <ele>907</ele>
        <time>2026-08-12T18:24:11.000Z</time>
      </trkpt>
      <trkpt lat="45.2169" lon="5.73503">
        <ele>906.79998779297</ele>
        <time>2026-08-12T18:24:12.000Z</time>
      </trkpt>
      <trkpt lat="45.2169" lon="5.73504">
        <ele>906.59997558594</ele>
        <time>2026-08-12T18:24:13.000Z</time>
      </trkpt>
      <trkpt lat="45.21691" lon="5.73504">
        <ele>906.20001220703</ele>
        <time>2026-08-12T18:24:14.000Z</time>
      </trkpt>
      <trkpt lat="45.21692" lon="5.73504">
        <ele>906</ele>
        <time>2026-08-12T18:24:15.000Z</time>
      </trkpt>
      <trkpt lat="45.21693" lon="5.73505">
        <ele>905.79998779297</ele>
        <time>2026-08-12T18:24:16.000Z</time>
      </trkpt>
      <trkpt lat="45.21694" lon="5.73506">
        <ele>905.59997558594</ele>
        <time>2026-08-12T18:24:17.000Z</time>
      </trkpt>
      <trkpt lat="45.21695" lon="5.73507">
        <ele>905.40002441406</ele>
        <time>2026-08-12T18:24:18.000Z</time>
      </trkpt>
      <trkpt lat="45.21696" lon="5.73508">
        <ele>905.20001220703</ele>
        <time>2026-08-12T18:24:19.000Z</time>
      </trkpt>
      <trkpt lat="45.21697" lon="5.73509">
        <ele>905</ele>
        <time>2026-08-12T18:24:20.000Z</time>
      </trkpt>
      <trkpt lat="45.21698" lon="5.7351">
        <ele>904.79998779297</ele>
        <time>2026-08-12T18:24:21.000Z</time>
      </trkpt>
      <trkpt lat="45.21699" lon="5.73512">
        <ele>904.20001220703</ele>
        <time>2026-08-12T18:24:22.000Z</time>
      </trkpt>
      <trkpt lat="45.217" lon="5.73513">
        <ele>903.79998779297</ele>
        <time>2026-08-12T18:24:23.000Z</time>
      </trkpt>
      <trkpt lat="45.21701" lon="5.73513">
        <ele>903.20001220703</ele>
        <time>2026-08-12T18:24:24.000Z</time>
      </trkpt>
      <trkpt lat="45.21702" lon="5.73514">
        <ele>902.79998779297</ele>
        <time>2026-08-12T18:24:25.000Z</time>
      </trkpt>
      <trkpt lat="45.21704" lon="5.73515">
        <ele>902.40002441406</ele>
        <time>2026-08-12T18:24:26.000Z</time>
      </trkpt>
      <trkpt lat="45.21705" lon="5.73516">
        <ele>902</ele>
        <time>2026-08-12T18:24:27.000Z</time>
      </trkpt>
      <trkpt lat="45.21705" lon="5.73516">
        <ele>901.79998779297</ele>
        <time>2026-08-12T18:24:28.000Z</time>
      </trkpt>
      <trkpt lat="45.21706" lon="5.73517">
        <ele>901.59997558594</ele>
        <time>2026-08-12T18:24:29.000Z</time>
      </trkpt>
      <trkpt lat="45.21708" lon="5.73518">
        <ele>901.40002441406</ele>
        <time>2026-08-12T18:24:30.000Z</time>
      </trkpt>
      <trkpt lat="45.21709" lon="5.73519">
        <ele>901.20001220703</ele>
        <time>2026-08-12T18:24:31.000Z</time>
      </trkpt>
      <trkpt lat="45.2171" lon="5.73521">
        <ele>901</ele>
        <time>2026-08-12T18:24:32.000Z</time>
      </trkpt>
      <trkpt lat="45.21711" lon="5.73522">
        <ele>900.79998779297</ele>
        <time>2026-08-12T18:24:33.000Z</time>
      </trkpt>
      <trkpt lat="45.21712" lon="5.73522">
        <ele>900.40002441406</ele>
        <time>2026-08-12T18:24:34.000Z</time>
      </trkpt>
      <trkpt lat="45.21714" lon="5.73523">
        <ele>900.20001220703</ele>
        <time>2026-08-12T18:24:35.000Z</time>
      </trkpt>
      <trkpt lat="45.21715" lon="5.73524">
        <ele>900.20001220703</ele>
        <time>2026-08-12T18:24:36.000Z</time>
      </trkpt>
      <trkpt lat="45.21716" lon="5.73524">
        <ele>900</ele>
        <time>2026-08-12T18:24:37.000Z</time>
      </trkpt>
      <trkpt lat="45.21717" lon="5.73525">
        <ele>900</ele>
        <time>2026-08-12T18:24:38.000Z</time>
      </trkpt>
      <trkpt lat="45.21718" lon="5.73526">
        <ele>900</ele>
        <time>2026-08-12T18:24:39.000Z</time>
      </trkpt>
      <trkpt lat="45.21718" lon="5.73527">
        <ele>900</ele>
        <time>2026-08-12T18:24:40.000Z</time>
      </trkpt>
      <trkpt lat="45.21718" lon="5.73528">
        <ele>900.20001220703</ele>
        <time>2026-08-12T18:24:41.000Z</time>
      </trkpt>
      <trkpt lat="45.21719" lon="5.73528">
        <ele>900.20001220703</ele>
        <time>2026-08-12T18:24:42.000Z</time>
      </trkpt>
      <trkpt lat="45.21719" lon="5.73529">
        <ele>900.20001220703</ele>
        <time>2026-08-12T18:24:43.000Z</time>
      </trkpt>
      <trkpt lat="45.21719" lon="5.73531">
        <ele>900</ele>
        <time>2026-08-12T18:24:44.000Z</time>
      </trkpt>
      <trkpt lat="45.21719" lon="5.73532">
        <ele>899.79998779297</ele>
        <time>2026-08-12T18:24:45.000Z</time>
      </trkpt>
      <trkpt lat="45.21718" lon="5.73532">
        <ele>899.59997558594</ele>
        <time>2026-08-12T18:24:46.000Z</time>
      </trkpt>
      <trkpt lat="45.21717" lon="5.73532">
        <ele>899.40002441406</ele>
        <time>2026-08-12T18:24:47.000Z</time>
      </trkpt>
      <trkpt lat="45.21716" lon="5.73532">
        <ele>899.20001220703</ele>
        <time>2026-08-12T18:24:48.000Z</time>
      </trkpt>
      <trkpt lat="45.21714" lon="5.73532">
        <ele>899</ele>
        <time>2026-08-12T18:24:49.000Z</time>
      </trkpt>
      <trkpt lat="45.21713" lon="5.73532">
        <ele>898.79998779297</ele>
        <time>2026-08-12T18:24:50.000Z</time>
      </trkpt>
      <trkpt lat="45.21712" lon="5.73531">
        <ele>898.59997558594</ele>
        <time>2026-08-12T18:24:51.000Z</time>
      </trkpt>
      <trkpt lat="45.21711" lon="5.73531">
        <ele>898.40002441406</ele>
        <time>2026-08-12T18:24:52.000Z</time>
      </trkpt>
      <trkpt lat="45.21711" lon="5.73531">
        <ele>898.20001220703</ele>
        <time>2026-08-12T18:24:53.000Z</time>
      </trkpt>
      <trkpt lat="45.2171" lon="5.73531">
        <ele>898</ele>
        <time>2026-08-12T18:24:54.000Z</time>
      </trkpt>
      <trkpt lat="45.2171" lon="5.73531">
        <ele>898</ele>
        <time>2026-08-12T18:24:55.000Z</time>
      </trkpt>
      <trkpt lat="45.21709" lon="5.73531">
        <ele>897.79998779297</ele>
        <time>2026-08-12T18:24:56.000Z</time>
      </trkpt>
      <trkpt lat="45.21708" lon="5.73531">
        <ele>897.79998779297</ele>
        <time>2026-08-12T18:24:57.000Z</time>
      </trkpt>
      <trkpt lat="45.21708" lon="5.7353">
        <ele>897.59997558594</ele>
        <time>2026-08-12T18:24:58.000Z</time>
      </trkpt>
      <trkpt lat="45.21707" lon="5.7353">
        <ele>897.40002441406</ele>
        <time>2026-08-12T18:24:59.000Z</time>
      </trkpt>
      <trkpt lat="45.21706" lon="5.7353">
        <ele>897.20001220703</ele>
        <time>2026-08-12T18:25:00.000Z</time>
      </trkpt>
      <trkpt lat="45.21706" lon="5.7353">
        <ele>897.20001220703</ele>
        <time>2026-08-12T18:25:01.000Z</time>
      </trkpt>
      <trkpt lat="45.21705" lon="5.7353">
        <ele>897</ele>
        <time>2026-08-12T18:25:02.000Z</time>
      </trkpt>
      <trkpt lat="45.21704" lon="5.7353">
        <ele>896.79998779297</ele>
        <time>2026-08-12T18:25:03.000Z</time>
      </trkpt>
      <trkpt lat="45.21703" lon="5.7353">
        <ele>896.59997558594</ele>
        <time>2026-08-12T18:25:04.000Z</time>
      </trkpt>
      <trkpt lat="45.21702" lon="5.7353">
        <ele>896.40002441406</ele>
        <time>2026-08-12T18:25:05.000Z</time>
      </trkpt>
      <trkpt lat="45.21702" lon="5.7353">
        <ele>896.20001220703</ele>
        <time>2026-08-12T18:25:06.000Z</time>
      </trkpt>
      <trkpt lat="45.21701" lon="5.7353">
        <ele>896.20001220703</ele>
        <time>2026-08-12T18:25:07.000Z</time>
      </trkpt>
      <trkpt lat="45.217" lon="5.7353">
        <ele>896.20001220703</ele>
        <time>2026-08-12T18:25:08.000Z</time>
      </trkpt>
      <trkpt lat="45.217" lon="5.7353">
        <ele>896.20001220703</ele>
        <time>2026-08-12T18:25:09.000Z</time>
      </trkpt>
      <trkpt lat="45.21699" lon="5.7353">
        <ele>896.20001220703</ele>
        <time>2026-08-12T18:25:10.000Z</time>
      </trkpt>
      <trkpt lat="45.21698" lon="5.73531">
        <ele>896</ele>
        <time>2026-08-12T18:25:11.000Z</time>
      </trkpt>
      <trkpt lat="45.21697" lon="5.73531">
        <ele>895.59997558594</ele>
        <time>2026-08-12T18:25:12.000Z</time>
      </trkpt>
      <trkpt lat="45.21696" lon="5.73532">
        <ele>895.40002441406</ele>
        <time>2026-08-12T18:25:13.000Z</time>
      </trkpt>
      <trkpt lat="45.21695" lon="5.73531">
        <ele>895.20001220703</ele>
        <time>2026-08-12T18:25:14.000Z</time>
      </trkpt>
      <trkpt lat="45.21694" lon="5.73531">
        <ele>894.79998779297</ele>
        <time>2026-08-12T18:25:15.000Z</time>
      </trkpt>
      <trkpt lat="45.21693" lon="5.73531">
        <ele>894.79998779297</ele>
        <time>2026-08-12T18:25:16.000Z</time>
      </trkpt>
      <trkpt lat="45.21692" lon="5.73531">
        <ele>894.59997558594</ele>
        <time>2026-08-12T18:25:17.000Z</time>
      </trkpt>
      <trkpt lat="45.21691" lon="5.73532">
        <ele>894.59997558594</ele>
        <time>2026-08-12T18:25:18.000Z</time>
      </trkpt>
      <trkpt lat="45.2169" lon="5.73531">
        <ele>894.40002441406</ele>
        <time>2026-08-12T18:25:19.000Z</time>
      </trkpt>
      <trkpt lat="45.21689" lon="5.73531">
        <ele>894.40002441406</ele>
        <time>2026-08-12T18:25:20.000Z</time>
      </trkpt>
      <trkpt lat="45.21689" lon="5.73531">
        <ele>894.40002441406</ele>
        <time>2026-08-12T18:25:21.000Z</time>
      </trkpt>
      <trkpt lat="45.21688" lon="5.73531">
        <ele>894.40002441406</ele>
        <time>2026-08-12T18:25:22.000Z</time>
      </trkpt>
      <trkpt lat="45.21688" lon="5.73531">
        <ele>894.40002441406</ele>
        <time>2026-08-12T18:25:23.000Z</time>
      </trkpt>
      <trkpt lat="45.21688" lon="5.73531">
        <ele>894.59997558594</ele>
        <time>2026-08-12T18:25:24.000Z</time>
      </trkpt>
      <trkpt lat="45.21688" lon="5.73531">
        <ele>894.40002441406</ele>
        <time>2026-08-12T18:25:25.000Z</time>
      </trkpt>
      <trkpt lat="45.21688" lon="5.73531">
        <ele>894.40002441406</ele>
        <time>2026-08-12T18:25:26.000Z</time>
      </trkpt>
      <trkpt lat="45.21688" lon="5.73531">
        <ele>894.40002441406</ele>
        <time>2026-08-12T18:25:27.000Z</time>
      </trkpt>
      <trkpt lat="45.21688" lon="5.73531">
        <ele>894.20001220703</ele>
        <time>2026-08-12T18:25:28.000Z</time>
      </trkpt>
      <trkpt lat="45.21688" lon="5.73531">
        <ele>894.20001220703</ele>
        <time>2026-08-12T18:25:29.000Z</time>
      </trkpt>
      <trkpt lat="45.21688" lon="5.73531">
        <ele>894.20001220703</ele>
        <time>2026-08-12T18:25:30.000Z</time>
      </trkpt>
      <trkpt lat="45.21688" lon="5.73531">
        <ele>894.20001220703</ele>
        <time>2026-08-12T18:25:31.000Z</time>
      </trkpt>
      <trkpt lat="45.21688" lon="5.73531">
        <ele>894.20001220703</ele>
        <time>2026-08-12T18:25:32.000Z</time>
      </trkpt>
      <trkpt lat="45.21687" lon="5.73531">
        <ele>894</ele>
        <time>2026-08-12T18:25:33.000Z</time>
      </trkpt>
      <trkpt lat="45.21686" lon="5.7353">
        <ele>893.79998779297</ele>
        <time>2026-08-12T18:25:34.000Z</time>
      </trkpt>
      <trkpt lat="45.21685" lon="5.7353">
        <ele>893.59997558594</ele>
        <time>2026-08-12T18:25:35.000Z</time>
      </trkpt>
      <trkpt lat="45.21684" lon="5.7353">
        <ele>893.40002441406</ele>
        <time>2026-08-12T18:25:36.000Z</time>
      </trkpt>
      <trkpt lat="45.21683" lon="5.7353">
        <ele>893.20001220703</ele>
        <time>2026-08-12T18:25:37.000Z</time>
      </trkpt>
      <trkpt lat="45.21682" lon="5.73531">
        <ele>893</ele>
        <time>2026-08-12T18:25:38.000Z</time>
      </trkpt>
      <trkpt lat="45.21681" lon="5.73531">
        <ele>892.79998779297</ele>
        <time>2026-08-12T18:25:39.000Z</time>
      </trkpt>
      <trkpt lat="45.2168" lon="5.73531">
        <ele>892.59997558594</ele>
        <time>2026-08-12T18:25:40.000Z</time>
      </trkpt>
      <trkpt lat="45.21679" lon="5.73531">
        <ele>892.59997558594</ele>
        <time>2026-08-12T18:25:41.000Z</time>
      </trkpt>
      <trkpt lat="45.21678" lon="5.73532">
        <ele>892.40002441406</ele>
        <time>2026-08-12T18:25:42.000Z</time>
      </trkpt>
      <trkpt lat="45.21677" lon="5.73532">
        <ele>892.20001220703</ele>
        <time>2026-08-12T18:25:43.000Z</time>
      </trkpt>
      <trkpt lat="45.21676" lon="5.73532">
        <ele>892</ele>
        <time>2026-08-12T18:25:44.000Z</time>
      </trkpt>
      <trkpt lat="45.21675" lon="5.73532">
        <ele>891.79998779297</ele>
        <time>2026-08-12T18:25:45.000Z</time>
      </trkpt>
      <trkpt lat="45.21674" lon="5.73532">
        <ele>891.59997558594</ele>
        <time>2026-08-12T18:25:46.000Z</time>
      </trkpt>
      <trkpt lat="45.21673" lon="5.73532">
        <ele>891.20001220703</ele>
        <time>2026-08-12T18:25:47.000Z</time>
      </trkpt>
      <trkpt lat="45.21673" lon="5.73533">
        <ele>891</ele>
        <time>2026-08-12T18:25:48.000Z</time>
      </trkpt>
      <trkpt lat="45.21672" lon="5.73532">
        <ele>890.79998779297</ele>
        <time>2026-08-12T18:25:49.000Z</time>
      </trkpt>
      <trkpt lat="45.21672" lon="5.73532">
        <ele>890.59997558594</ele>
        <time>2026-08-12T18:25:50.000Z</time>
      </trkpt>
      <trkpt lat="45.21671" lon="5.73532">
        <ele>890.40002441406</ele>
        <time>2026-08-12T18:25:51.000Z</time>
      </trkpt>
      <trkpt lat="45.2167" lon="5.73532">
        <ele>890.40002441406</ele>
        <time>2026-08-12T18:25:52.000Z</time>
      </trkpt>
      <trkpt lat="45.21669" lon="5.73533">
        <ele>890.20001220703</ele>
        <time>2026-08-12T18:25:53.000Z</time>
      </trkpt>
      <trkpt lat="45.21669" lon="5.73533">
        <ele>890.20001220703</ele>
        <time>2026-08-12T18:25:54.000Z</time>
      </trkpt>
      <trkpt lat="45.21668" lon="5.73533">
        <ele>890</ele>
        <time>2026-08-12T18:25:55.000Z</time>
      </trkpt>
      <trkpt lat="45.21667" lon="5.73533">
        <ele>890</ele>
        <time>2026-08-12T18:25:56.000Z</time>
      </trkpt>
      <trkpt lat="45.21667" lon="5.73533">
        <ele>889.79998779297</ele>
        <time>2026-08-12T18:25:57.000Z</time>
      </trkpt>
      <trkpt lat="45.21667" lon="5.73533">
        <ele>889.59997558594</ele>
        <time>2026-08-12T18:25:58.000Z</time>
      </trkpt>
      <trkpt lat="45.21667" lon="5.73533">
        <ele>889.20001220703</ele>
        <time>2026-08-12T18:25:59.000Z</time>
      </trkpt>
      <trkpt lat="45.21668" lon="5.73533">
        <ele>889</ele>
        <time>2026-08-12T18:26:00.000Z</time>
      </trkpt>
      <trkpt lat="45.21668" lon="5.73533">
        <ele>888.59997558594</ele>
        <time>2026-08-12T18:26:01.000Z</time>
      </trkpt>
      <trkpt lat="45.21669" lon="5.73533">
        <ele>888.40002441406</ele>
        <time>2026-08-12T18:26:02.000Z</time>
      </trkpt>
      <trkpt lat="45.21669" lon="5.73533">
        <ele>888.40002441406</ele>
        <time>2026-08-12T18:26:03.000Z</time>
      </trkpt>
      <trkpt lat="45.2167" lon="5.73533">
        <ele>888.20001220703</ele>
        <time>2026-08-12T18:26:04.000Z</time>
      </trkpt>
      <trkpt lat="45.2167" lon="5.73533">
        <ele>888</ele>
        <time>2026-08-12T18:26:05.000Z</time>
      </trkpt>
      <trkpt lat="45.2167" lon="5.73533">
        <ele>888</ele>
        <time>2026-08-12T18:26:06.000Z</time>
      </trkpt>
      <trkpt lat="45.21671" lon="5.73533">
        <ele>887.79998779297</ele>
        <time>2026-08-12T18:26:07.000Z</time>
      </trkpt>
      <trkpt lat="45.21671" lon="5.73534">
        <ele>887.59997558594</ele>
        <time>2026-08-12T18:26:08.000Z</time>
      </trkpt>
      <trkpt lat="45.21672" lon="5.73534">
        <ele>887.59997558594</ele>
        <time>2026-08-12T18:26:09.000Z</time>
      </trkpt>
      <trkpt lat="45.21672" lon="5.73534">
        <ele>887.40002441406</ele>
        <time>2026-08-12T18:26:10.000Z</time>
      </trkpt>
      <trkpt lat="45.21673" lon="5.73534">
        <ele>887.20001220703</ele>
        <time>2026-08-12T18:26:11.000Z</time>
      </trkpt>
      <trkpt lat="45.21673" lon="5.73534">
        <ele>887.20001220703</ele>
        <time>2026-08-12T18:26:12.000Z</time>
      </trkpt>
      <trkpt lat="45.21674" lon="5.73534">
        <ele>887</ele>
        <time>2026-08-12T18:26:13.000Z</time>
      </trkpt>
      <trkpt lat="45.21675" lon="5.73535">
        <ele>886.79998779297</ele>
        <time>2026-08-12T18:26:14.000Z</time>
      </trkpt>
      <trkpt lat="45.21676" lon="5.73535">
        <ele>886.59997558594</ele>
        <time>2026-08-12T18:26:15.000Z</time>
      </trkpt>
      <trkpt lat="45.21677" lon="5.73535">
        <ele>886.40002441406</ele>
        <time>2026-08-12T18:26:16.000Z</time>
      </trkpt>
      <trkpt lat="45.21678" lon="5.73536">
        <ele>886.20001220703</ele>
        <time>2026-08-12T18:26:17.000Z</time>
      </trkpt>
      <trkpt lat="45.21678" lon="5.73536">
        <ele>886</ele>
        <time>2026-08-12T18:26:18.000Z</time>
      </trkpt>
      <trkpt lat="45.21679" lon="5.73536">
        <ele>886</ele>
        <time>2026-08-12T18:26:19.000Z</time>
      </trkpt>
      <trkpt lat="45.2168" lon="5.73536">
        <ele>885.79998779297</ele>
        <time>2026-08-12T18:26:20.000Z</time>
      </trkpt>
      <trkpt lat="45.21681" lon="5.73537">
        <ele>885.59997558594</ele>
        <time>2026-08-12T18:26:21.000Z</time>
      </trkpt>
      <trkpt lat="45.21682" lon="5.73537">
        <ele>885.40002441406</ele>
        <time>2026-08-12T18:26:22.000Z</time>
      </trkpt>
      <trkpt lat="45.21682" lon="5.73538">
        <ele>885.40002441406</ele>
        <time>2026-08-12T18:26:23.000Z</time>
      </trkpt>
      <trkpt lat="45.21683" lon="5.73538">
        <ele>885.20001220703</ele>
        <time>2026-08-12T18:26:24.000Z</time>
      </trkpt>
      <trkpt lat="45.21684" lon="5.73538">
        <ele>885.20001220703</ele>
        <time>2026-08-12T18:26:25.000Z</time>
      </trkpt>
      <trkpt lat="45.21685" lon="5.73539">
        <ele>885</ele>
        <time>2026-08-12T18:26:26.000Z</time>
      </trkpt>
      <trkpt lat="45.21687" lon="5.73539">
        <ele>884.79998779297</ele>
        <time>2026-08-12T18:26:27.000Z</time>
      </trkpt>
      <trkpt lat="45.21688" lon="5.73539">
        <ele>884.59997558594</ele>
        <time>2026-08-12T18:26:28.000Z</time>
      </trkpt>
      <trkpt lat="45.21689" lon="5.7354">
        <ele>884.40002441406</ele>
        <time>2026-08-12T18:26:29.000Z</time>
      </trkpt>
      <trkpt lat="45.2169" lon="5.73541">
        <ele>884.20001220703</ele>
        <time>2026-08-12T18:26:30.000Z</time>
      </trkpt>
      <trkpt lat="45.21692" lon="5.73541">
        <ele>884</ele>
        <time>2026-08-12T18:26:31.000Z</time>
      </trkpt>
      <trkpt lat="45.21693" lon="5.73542">
        <ele>883.79998779297</ele>
        <time>2026-08-12T18:26:32.000Z</time>
      </trkpt>
      <trkpt lat="45.21695" lon="5.73543">
        <ele>883.59997558594</ele>
        <time>2026-08-12T18:26:33.000Z</time>
      </trkpt>
      <trkpt lat="45.21696" lon="5.73544">
        <ele>883.40002441406</ele>
        <time>2026-08-12T18:26:34.000Z</time>
      </trkpt>
      <trkpt lat="45.21698" lon="5.73546">
        <ele>883.20001220703</ele>
        <time>2026-08-12T18:26:35.000Z</time>
      </trkpt>
      <trkpt lat="45.217" lon="5.73548">
        <ele>883</ele>
        <time>2026-08-12T18:26:36.000Z</time>
      </trkpt>
      <trkpt lat="45.21702" lon="5.7355">
        <ele>882.79998779297</ele>
        <time>2026-08-12T18:26:37.000Z</time>
      </trkpt>
      <trkpt lat="45.21704" lon="5.73552">
        <ele>882.40002441406</ele>
        <time>2026-08-12T18:26:38.000Z</time>
      </trkpt>
      <trkpt lat="45.21706" lon="5.73554">
        <ele>882</ele>
        <time>2026-08-12T18:26:39.000Z</time>
      </trkpt>
      <trkpt lat="45.21707" lon="5.73556">
        <ele>881.59997558594</ele>
        <time>2026-08-12T18:26:40.000Z</time>
      </trkpt>
      <trkpt lat="45.21708" lon="5.73558">
        <ele>881</ele>
        <time>2026-08-12T18:26:41.000Z</time>
      </trkpt>
      <trkpt lat="45.21709" lon="5.73559">
        <ele>880.79998779297</ele>
        <time>2026-08-12T18:26:42.000Z</time>
      </trkpt>
      <trkpt lat="45.2171" lon="5.73561">
        <ele>880.59997558594</ele>
        <time>2026-08-12T18:26:43.000Z</time>
      </trkpt>
      <trkpt lat="45.2171" lon="5.73562">
        <ele>880.40002441406</ele>
        <time>2026-08-12T18:26:44.000Z</time>
      </trkpt>
      <trkpt lat="45.21711" lon="5.73563">
        <ele>880.20001220703</ele>
        <time>2026-08-12T18:26:45.000Z</time>
      </trkpt>
      <trkpt lat="45.21711" lon="5.73566">
        <ele>880</ele>
        <time>2026-08-12T18:26:46.000Z</time>
      </trkpt>
      <trkpt lat="45.21709" lon="5.73567">
        <ele>879.59997558594</ele>
        <time>2026-08-12T18:26:47.000Z</time>
      </trkpt>
      <trkpt lat="45.21707" lon="5.73566">
        <ele>879.59997558594</ele>
        <time>2026-08-12T18:26:48.000Z</time>
      </trkpt>
      <trkpt lat="45.21706" lon="5.73566">
        <ele>879.20001220703</ele>
        <time>2026-08-12T18:26:49.000Z</time>
      </trkpt>
      <trkpt lat="45.21704" lon="5.73566">
        <ele>879</ele>
        <time>2026-08-12T18:26:50.000Z</time>
      </trkpt>
      <trkpt lat="45.21702" lon="5.73566">
        <ele>878.79998779297</ele>
        <time>2026-08-12T18:26:51.000Z</time>
      </trkpt>
      <trkpt lat="45.21701" lon="5.73567">
        <ele>878.40002441406</ele>
        <time>2026-08-12T18:26:52.000Z</time>
      </trkpt>
      <trkpt lat="45.21699" lon="5.73567">
        <ele>878</ele>
        <time>2026-08-12T18:26:53.000Z</time>
      </trkpt>
      <trkpt lat="45.21697" lon="5.73568">
        <ele>877.59997558594</ele>
        <time>2026-08-12T18:26:54.000Z</time>
      </trkpt>
      <trkpt lat="45.21694" lon="5.73568">
        <ele>877.20001220703</ele>
        <time>2026-08-12T18:26:55.000Z</time>
      </trkpt>
      <trkpt lat="45.21692" lon="5.73568">
        <ele>876.79998779297</ele>
        <time>2026-08-12T18:26:56.000Z</time>
      </trkpt>
      <trkpt lat="45.2169" lon="5.73567">
        <ele>876.20001220703</ele>
        <time>2026-08-12T18:26:57.000Z</time>
      </trkpt>
      <trkpt lat="45.21687" lon="5.73566">
        <ele>875.79998779297</ele>
        <time>2026-08-12T18:26:58.000Z</time>
      </trkpt>
      <trkpt lat="45.21685" lon="5.73566">
        <ele>875.40002441406</ele>
        <time>2026-08-12T18:26:59.000Z</time>
      </trkpt>
      <trkpt lat="45.21682" lon="5.73564">
        <ele>875</ele>
        <time>2026-08-12T18:27:00.000Z</time>
      </trkpt>
      <trkpt lat="45.2168" lon="5.73563">
        <ele>875</ele>
        <time>2026-08-12T18:27:01.000Z</time>
      </trkpt>
      <trkpt lat="45.21678" lon="5.73563">
        <ele>874.79998779297</ele>
        <time>2026-08-12T18:27:02.000Z</time>
      </trkpt>
      <trkpt lat="45.21676" lon="5.73563">
        <ele>874.59997558594</ele>
        <time>2026-08-12T18:27:03.000Z</time>
      </trkpt>
      <trkpt lat="45.21675" lon="5.73563">
        <ele>874.40002441406</ele>
        <time>2026-08-12T18:27:04.000Z</time>
      </trkpt>
      <trkpt lat="45.21674" lon="5.73564">
        <ele>874</ele>
        <time>2026-08-12T18:27:05.000Z</time>
      </trkpt>
      <trkpt lat="45.21673" lon="5.73564">
        <ele>873.79998779297</ele>
        <time>2026-08-12T18:27:06.000Z</time>
      </trkpt>
      <trkpt lat="45.21672" lon="5.73563">
        <ele>873.40002441406</ele>
        <time>2026-08-12T18:27:07.000Z</time>
      </trkpt>
      <trkpt lat="45.2167" lon="5.73564">
        <ele>873.20001220703</ele>
        <time>2026-08-12T18:27:08.000Z</time>
      </trkpt>
      <trkpt lat="45.21669" lon="5.73564">
        <ele>872.79998779297</ele>
        <time>2026-08-12T18:27:09.000Z</time>
      </trkpt>
      <trkpt lat="45.21667" lon="5.73565">
        <ele>872.59997558594</ele>
        <time>2026-08-12T18:27:10.000Z</time>
      </trkpt>
      <trkpt lat="45.21666" lon="5.73566">
        <ele>872.40002441406</ele>
        <time>2026-08-12T18:27:11.000Z</time>
      </trkpt>
      <trkpt lat="45.21664" lon="5.73566">
        <ele>872.20001220703</ele>
        <time>2026-08-12T18:27:12.000Z</time>
      </trkpt>
      <trkpt lat="45.21662" lon="5.73567">
        <ele>872</ele>
        <time>2026-08-12T18:27:13.000Z</time>
      </trkpt>
      <trkpt lat="45.2166" lon="5.73568">
        <ele>871.40002441406</ele>
        <time>2026-08-12T18:27:14.000Z</time>
      </trkpt>
      <trkpt lat="45.21658" lon="5.73569">
        <ele>871</ele>
        <time>2026-08-12T18:27:15.000Z</time>
      </trkpt>
      <trkpt lat="45.21656" lon="5.73569">
        <ele>870.59997558594</ele>
        <time>2026-08-12T18:27:16.000Z</time>
      </trkpt>
      <trkpt lat="45.21655" lon="5.7357">
        <ele>870.20001220703</ele>
        <time>2026-08-12T18:27:17.000Z</time>
      </trkpt>
      <trkpt lat="45.21653" lon="5.7357">
        <ele>870</ele>
        <time>2026-08-12T18:27:18.000Z</time>
      </trkpt>
      <trkpt lat="45.21651" lon="5.73569">
        <ele>869.79998779297</ele>
        <time>2026-08-12T18:27:19.000Z</time>
      </trkpt>
      <trkpt lat="45.21649" lon="5.73569">
        <ele>869.59997558594</ele>
        <time>2026-08-12T18:27:20.000Z</time>
      </trkpt>
      <trkpt lat="45.21648" lon="5.73569">
        <ele>869.40002441406</ele>
        <time>2026-08-12T18:27:21.000Z</time>
      </trkpt>
      <trkpt lat="45.21647" lon="5.73569">
        <ele>869.20001220703</ele>
        <time>2026-08-12T18:27:22.000Z</time>
      </trkpt>
      <trkpt lat="45.21645" lon="5.73568">
        <ele>868.79998779297</ele>
        <time>2026-08-12T18:27:23.000Z</time>
      </trkpt>
      <trkpt lat="45.21644" lon="5.73568">
        <ele>868.59997558594</ele>
        <time>2026-08-12T18:27:24.000Z</time>
      </trkpt>
      <trkpt lat="45.21643" lon="5.73567">
        <ele>868.40002441406</ele>
        <time>2026-08-12T18:27:25.000Z</time>
      </trkpt>
      <trkpt lat="45.21642" lon="5.73567">
        <ele>868</ele>
        <time>2026-08-12T18:27:26.000Z</time>
      </trkpt>
      <trkpt lat="45.2164" lon="5.73566">
        <ele>867.79998779297</ele>
        <time>2026-08-12T18:27:27.000Z</time>
      </trkpt>
      <trkpt lat="45.21639" lon="5.73565">
        <ele>867.79998779297</ele>
        <time>2026-08-12T18:27:28.000Z</time>
      </trkpt>
      <trkpt lat="45.21638" lon="5.73564">
        <ele>867.59997558594</ele>
        <time>2026-08-12T18:27:29.000Z</time>
      </trkpt>
      <trkpt lat="45.21637" lon="5.73563">
        <ele>867.40002441406</ele>
        <time>2026-08-12T18:27:30.000Z</time>
      </trkpt>
      <trkpt lat="45.21635" lon="5.7356">
        <ele>867</ele>
        <time>2026-08-12T18:27:31.000Z</time>
      </trkpt>
      <trkpt lat="45.21634" lon="5.73559">
        <ele>866.79998779297</ele>
        <time>2026-08-12T18:27:32.000Z</time>
      </trkpt>
      <trkpt lat="45.21632" lon="5.73557">
        <ele>866.40002441406</ele>
        <time>2026-08-12T18:27:33.000Z</time>
      </trkpt>
      <trkpt lat="45.21631" lon="5.73555">
        <ele>866</ele>
        <time>2026-08-12T18:27:34.000Z</time>
      </trkpt>
      <trkpt lat="45.2163" lon="5.73553">
        <ele>865.59997558594</ele>
        <time>2026-08-12T18:27:35.000Z</time>
      </trkpt>
      <trkpt lat="45.21629" lon="5.73552">
        <ele>865.20001220703</ele>
        <time>2026-08-12T18:27:36.000Z</time>
      </trkpt>
      <trkpt lat="45.21628" lon="5.7355">
        <ele>865.20001220703</ele>
        <time>2026-08-12T18:27:37.000Z</time>
      </trkpt>
      <trkpt lat="45.21626" lon="5.73549">
        <ele>865</ele>
        <time>2026-08-12T18:27:38.000Z</time>
      </trkpt>
      <trkpt lat="45.21625" lon="5.73547">
        <ele>864.40002441406</ele>
        <time>2026-08-12T18:27:39.000Z</time>
      </trkpt>
      <trkpt lat="45.21624" lon="5.73546">
        <ele>864</ele>
        <time>2026-08-12T18:27:40.000Z</time>
      </trkpt>
      <trkpt lat="45.21622" lon="5.73544">
        <ele>863.79998779297</ele>
        <time>2026-08-12T18:27:41.000Z</time>
      </trkpt>
      <trkpt lat="45.21621" lon="5.73542">
        <ele>863.40002441406</ele>
        <time>2026-08-12T18:27:42.000Z</time>
      </trkpt>
      <trkpt lat="45.2162" lon="5.7354">
        <ele>863</ele>
        <time>2026-08-12T18:27:43.000Z</time>
      </trkpt>
      <trkpt lat="45.21619" lon="5.73538">
        <ele>862.59997558594</ele>
        <time>2026-08-12T18:27:44.000Z</time>
      </trkpt>
      <trkpt lat="45.21619" lon="5.73535">
        <ele>862.40002441406</ele>
        <time>2026-08-12T18:27:45.000Z</time>
      </trkpt>
      <trkpt lat="45.21618" lon="5.73534">
        <ele>862.20001220703</ele>
        <time>2026-08-12T18:27:46.000Z</time>
      </trkpt>
      <trkpt lat="45.21617" lon="5.73533">
        <ele>862</ele>
        <time>2026-08-12T18:27:47.000Z</time>
      </trkpt>
      <trkpt lat="45.21617" lon="5.73532">
        <ele>861.79998779297</ele>
        <time>2026-08-12T18:27:48.000Z</time>
      </trkpt>
      <trkpt lat="45.21616" lon="5.73531">
        <ele>861.59997558594</ele>
        <time>2026-08-12T18:27:49.000Z</time>
      </trkpt>
      <trkpt lat="45.21615" lon="5.7353">
        <ele>861.40002441406</ele>
        <time>2026-08-12T18:27:50.000Z</time>
      </trkpt>
      <trkpt lat="45.21616" lon="5.73531">
        <ele>861.20001220703</ele>
        <time>2026-08-12T18:27:51.000Z</time>
      </trkpt>
      <trkpt lat="45.21616" lon="5.73533">
        <ele>860.79998779297</ele>
        <time>2026-08-12T18:27:52.000Z</time>
      </trkpt>
      <trkpt lat="45.21617" lon="5.73534">
        <ele>860.59997558594</ele>
        <time>2026-08-12T18:27:53.000Z</time>
      </trkpt>
      <trkpt lat="45.21618" lon="5.73536">
        <ele>860.40002441406</ele>
        <time>2026-08-12T18:27:54.000Z</time>
      </trkpt>
      <trkpt lat="45.21618" lon="5.73539">
        <ele>860</ele>
        <time>2026-08-12T18:27:55.000Z</time>
      </trkpt>
      <trkpt lat="45.21619" lon="5.73541">
        <ele>859.59997558594</ele>
        <time>2026-08-12T18:27:56.000Z</time>
      </trkpt>
      <trkpt lat="45.2162" lon="5.73543">
        <ele>859.20001220703</ele>
        <time>2026-08-12T18:27:57.000Z</time>
      </trkpt>
      <trkpt lat="45.2162" lon="5.73545">
        <ele>859</ele>
        <time>2026-08-12T18:27:58.000Z</time>
      </trkpt>
      <trkpt lat="45.21621" lon="5.73547">
        <ele>858.59997558594</ele>
        <time>2026-08-12T18:27:59.000Z</time>
      </trkpt>
      <trkpt lat="45.21622" lon="5.7355">
        <ele>858.20001220703</ele>
        <time>2026-08-12T18:28:00.000Z</time>
      </trkpt>
      <trkpt lat="45.21622" lon="5.73552">
        <ele>858</ele>
        <time>2026-08-12T18:28:01.000Z</time>
      </trkpt>
      <trkpt lat="45.21623" lon="5.73555">
        <ele>857.59997558594</ele>
        <time>2026-08-12T18:28:02.000Z</time>
      </trkpt>
      <trkpt lat="45.21624" lon="5.73558">
        <ele>857.40002441406</ele>
        <time>2026-08-12T18:28:03.000Z</time>
      </trkpt>
      <trkpt lat="45.21625" lon="5.73561">
        <ele>857</ele>
        <time>2026-08-12T18:28:04.000Z</time>
      </trkpt>
      <trkpt lat="45.21626" lon="5.73564">
        <ele>856.59997558594</ele>
        <time>2026-08-12T18:28:05.000Z</time>
      </trkpt>
      <trkpt lat="45.21626" lon="5.73566">
        <ele>856.20001220703</ele>
        <time>2026-08-12T18:28:06.000Z</time>
      </trkpt>
      <trkpt lat="45.21627" lon="5.73569">
        <ele>855.79998779297</ele>
        <time>2026-08-12T18:28:07.000Z</time>
      </trkpt>
      <trkpt lat="45.21628" lon="5.73572">
        <ele>855.40002441406</ele>
        <time>2026-08-12T18:28:08.000Z</time>
      </trkpt>
      <trkpt lat="45.21629" lon="5.73574">
        <ele>855</ele>
        <time>2026-08-12T18:28:09.000Z</time>
      </trkpt>
      <trkpt lat="45.21629" lon="5.73575">
        <ele>854.59997558594</ele>
        <time>2026-08-12T18:28:10.000Z</time>
      </trkpt>
      <trkpt lat="45.2163" lon="5.73576">
        <ele>854</ele>
        <time>2026-08-12T18:28:11.000Z</time>
      </trkpt>
      <trkpt lat="45.2163" lon="5.73578">
        <ele>853.79998779297</ele>
        <time>2026-08-12T18:28:12.000Z</time>
      </trkpt>
      <trkpt lat="45.21631" lon="5.73581">
        <ele>853.40002441406</ele>
        <time>2026-08-12T18:28:13.000Z</time>
      </trkpt>
      <trkpt lat="45.21629" lon="5.73582">
        <ele>853</ele>
        <time>2026-08-12T18:28:14.000Z</time>
      </trkpt>
      <trkpt lat="45.21627" lon="5.73581">
        <ele>853</ele>
        <time>2026-08-12T18:28:15.000Z</time>
      </trkpt>
      <trkpt lat="45.21625" lon="5.73579">
        <ele>852.59997558594</ele>
        <time>2026-08-12T18:28:16.000Z</time>
      </trkpt>
      <trkpt lat="45.21624" lon="5.73578">
        <ele>852.20001220703</ele>
        <time>2026-08-12T18:28:17.000Z</time>
      </trkpt>
      <trkpt lat="45.21622" lon="5.73576">
        <ele>851.79998779297</ele>
        <time>2026-08-12T18:28:18.000Z</time>
      </trkpt>
      <trkpt lat="45.2162" lon="5.73575">
        <ele>851.40002441406</ele>
        <time>2026-08-12T18:28:19.000Z</time>
      </trkpt>
      <trkpt lat="45.21618" lon="5.73573">
        <ele>851</ele>
        <time>2026-08-12T18:28:20.000Z</time>
      </trkpt>
      <trkpt lat="45.21616" lon="5.73572">
        <ele>850.59997558594</ele>
        <time>2026-08-12T18:28:21.000Z</time>
      </trkpt>
      <trkpt lat="45.21614" lon="5.7357">
        <ele>850</ele>
        <time>2026-08-12T18:28:22.000Z</time>
      </trkpt>
      <trkpt lat="45.21612" lon="5.73568">
        <ele>850</ele>
        <time>2026-08-12T18:28:23.000Z</time>
      </trkpt>
      <trkpt lat="45.2161" lon="5.73566">
        <ele>849.40002441406</ele>
        <time>2026-08-12T18:28:24.000Z</time>
      </trkpt>
      <trkpt lat="45.21608" lon="5.73564">
        <ele>849.20001220703</ele>
        <time>2026-08-12T18:28:25.000Z</time>
      </trkpt>
      <trkpt lat="45.21606" lon="5.73562">
        <ele>848.59997558594</ele>
        <time>2026-08-12T18:28:26.000Z</time>
      </trkpt>
      <trkpt lat="45.21605" lon="5.7356">
        <ele>848.20001220703</ele>
        <time>2026-08-12T18:28:27.000Z</time>
      </trkpt>
      <trkpt lat="45.21604" lon="5.73558">
        <ele>848</ele>
        <time>2026-08-12T18:28:28.000Z</time>
      </trkpt>
      <trkpt lat="45.21602" lon="5.73555">
        <ele>847.40002441406</ele>
        <time>2026-08-12T18:28:29.000Z</time>
      </trkpt>
      <trkpt lat="45.21601" lon="5.73553">
        <ele>847</ele>
        <time>2026-08-12T18:28:30.000Z</time>
      </trkpt>
      <trkpt lat="45.21599" lon="5.73551">
        <ele>846.40002441406</ele>
        <time>2026-08-12T18:28:31.000Z</time>
      </trkpt>
      <trkpt lat="45.21598" lon="5.7355">
        <ele>846</ele>
        <time>2026-08-12T18:28:32.000Z</time>
      </trkpt>
      <trkpt lat="45.21597" lon="5.73549">
        <ele>845.59997558594</ele>
        <time>2026-08-12T18:28:33.000Z</time>
      </trkpt>
      <trkpt lat="45.21595" lon="5.73546">
        <ele>845.20001220703</ele>
        <time>2026-08-12T18:28:34.000Z</time>
      </trkpt>
      <trkpt lat="45.21594" lon="5.73544">
        <ele>845</ele>
        <time>2026-08-12T18:28:35.000Z</time>
      </trkpt>
      <trkpt lat="45.21592" lon="5.73542">
        <ele>844.79998779297</ele>
        <time>2026-08-12T18:28:36.000Z</time>
      </trkpt>
      <trkpt lat="45.21591" lon="5.73539">
        <ele>844.59997558594</ele>
        <time>2026-08-12T18:28:37.000Z</time>
      </trkpt>
      <trkpt lat="45.2159" lon="5.73536">
        <ele>844.40002441406</ele>
        <time>2026-08-12T18:28:38.000Z</time>
      </trkpt>
      <trkpt lat="45.21589" lon="5.73534">
        <ele>843.79998779297</ele>
        <time>2026-08-12T18:28:39.000Z</time>
      </trkpt>
      <trkpt lat="45.21587" lon="5.73533">
        <ele>843.20001220703</ele>
        <time>2026-08-12T18:28:40.000Z</time>
      </trkpt>
      <trkpt lat="45.21586" lon="5.73531">
        <ele>842.79998779297</ele>
        <time>2026-08-12T18:28:41.000Z</time>
      </trkpt>
      <trkpt lat="45.21585" lon="5.7353">
        <ele>842.40002441406</ele>
        <time>2026-08-12T18:28:42.000Z</time>
      </trkpt>
      <trkpt lat="45.21584" lon="5.73527">
        <ele>841.79998779297</ele>
        <time>2026-08-12T18:28:43.000Z</time>
      </trkpt>
      <trkpt lat="45.21583" lon="5.73525">
        <ele>841.59997558594</ele>
        <time>2026-08-12T18:28:44.000Z</time>
      </trkpt>
      <trkpt lat="45.21582" lon="5.73522">
        <ele>841.40002441406</ele>
        <time>2026-08-12T18:28:45.000Z</time>
      </trkpt>
      <trkpt lat="45.21581" lon="5.73519">
        <ele>841</ele>
        <time>2026-08-12T18:28:46.000Z</time>
      </trkpt>
      <trkpt lat="45.2158" lon="5.73517">
        <ele>840.59997558594</ele>
        <time>2026-08-12T18:28:47.000Z</time>
      </trkpt>
      <trkpt lat="45.21579" lon="5.73514">
        <ele>840.20001220703</ele>
        <time>2026-08-12T18:28:48.000Z</time>
      </trkpt>
      <trkpt lat="45.21578" lon="5.73512">
        <ele>840</ele>
        <time>2026-08-12T18:28:49.000Z</time>
      </trkpt>
      <trkpt lat="45.21577" lon="5.7351">
        <ele>839.79998779297</ele>
        <time>2026-08-12T18:28:50.000Z</time>
      </trkpt>
      <trkpt lat="45.21576" lon="5.73508">
        <ele>839.40002441406</ele>
        <time>2026-08-12T18:28:51.000Z</time>
      </trkpt>
      <trkpt lat="45.21576" lon="5.73505">
        <ele>839.20001220703</ele>
        <time>2026-08-12T18:28:52.000Z</time>
      </trkpt>
      <trkpt lat="45.21575" lon="5.73502">
        <ele>838.59997558594</ele>
        <time>2026-08-12T18:28:53.000Z</time>
      </trkpt>
      <trkpt lat="45.21574" lon="5.735">
        <ele>838.20001220703</ele>
        <time>2026-08-12T18:28:54.000Z</time>
      </trkpt>
      <trkpt lat="45.21573" lon="5.73497">
        <ele>838</ele>
        <time>2026-08-12T18:28:55.000Z</time>
      </trkpt>
      <trkpt lat="45.21572" lon="5.73495">
        <ele>837.40002441406</ele>
        <time>2026-08-12T18:28:56.000Z</time>
      </trkpt>
      <trkpt lat="45.21571" lon="5.73494">
        <ele>837.20001220703</ele>
        <time>2026-08-12T18:28:57.000Z</time>
      </trkpt>
      <trkpt lat="45.21569" lon="5.73492">
        <ele>836.59997558594</ele>
        <time>2026-08-12T18:28:58.000Z</time>
      </trkpt>
      <trkpt lat="45.21568" lon="5.7349">
        <ele>836.40002441406</ele>
        <time>2026-08-12T18:28:59.000Z</time>
      </trkpt>
      <trkpt lat="45.21567" lon="5.73488">
        <ele>836</ele>
        <time>2026-08-12T18:29:00.000Z</time>
      </trkpt>
      <trkpt lat="45.21566" lon="5.73486">
        <ele>835.59997558594</ele>
        <time>2026-08-12T18:29:01.000Z</time>
      </trkpt>
      <trkpt lat="45.21565" lon="5.73485">
        <ele>835.40002441406</ele>
        <time>2026-08-12T18:29:02.000Z</time>
      </trkpt>
      <trkpt lat="45.21563" lon="5.73483">
        <ele>835</ele>
        <time>2026-08-12T18:29:03.000Z</time>
      </trkpt>
      <trkpt lat="45.21562" lon="5.73482">
        <ele>835</ele>
        <time>2026-08-12T18:29:04.000Z</time>
      </trkpt>
      <trkpt lat="45.2156" lon="5.73481">
        <ele>834.79998779297</ele>
        <time>2026-08-12T18:29:05.000Z</time>
      </trkpt>
      <trkpt lat="45.21558" lon="5.73481">
        <ele>834.59997558594</ele>
        <time>2026-08-12T18:29:06.000Z</time>
      </trkpt>
      <trkpt lat="45.21556" lon="5.7348">
        <ele>834.40002441406</ele>
        <time>2026-08-12T18:29:07.000Z</time>
      </trkpt>
      <trkpt lat="45.21554" lon="5.7348">
        <ele>834.20001220703</ele>
        <time>2026-08-12T18:29:08.000Z</time>
      </trkpt>
      <trkpt lat="45.21552" lon="5.7348">
        <ele>833.59997558594</ele>
        <time>2026-08-12T18:29:09.000Z</time>
      </trkpt>
      <trkpt lat="45.2155" lon="5.7348">
        <ele>833.20001220703</ele>
        <time>2026-08-12T18:29:10.000Z</time>
      </trkpt>
      <trkpt lat="45.21549" lon="5.7348">
        <ele>832.79998779297</ele>
        <time>2026-08-12T18:29:11.000Z</time>
      </trkpt>
      <trkpt lat="45.21547" lon="5.7348">
        <ele>832.40002441406</ele>
        <time>2026-08-12T18:29:12.000Z</time>
      </trkpt>
      <trkpt lat="45.21546" lon="5.7348">
        <ele>832</ele>
        <time>2026-08-12T18:29:13.000Z</time>
      </trkpt>
      <trkpt lat="45.21544" lon="5.7348">
        <ele>832</ele>
        <time>2026-08-12T18:29:14.000Z</time>
      </trkpt>
      <trkpt lat="45.21543" lon="5.73479">
        <ele>831.59997558594</ele>
        <time>2026-08-12T18:29:15.000Z</time>
      </trkpt>
      <trkpt lat="45.21542" lon="5.73478">
        <ele>831.40002441406</ele>
        <time>2026-08-12T18:29:16.000Z</time>
      </trkpt>
      <trkpt lat="45.21541" lon="5.73477">
        <ele>831.20001220703</ele>
        <time>2026-08-12T18:29:17.000Z</time>
      </trkpt>
      <trkpt lat="45.2154" lon="5.73476">
        <ele>831</ele>
        <time>2026-08-12T18:29:18.000Z</time>
      </trkpt>
      <trkpt lat="45.21539" lon="5.73475">
        <ele>830.79998779297</ele>
        <time>2026-08-12T18:29:19.000Z</time>
      </trkpt>
      <trkpt lat="45.21538" lon="5.73474">
        <ele>830.59997558594</ele>
        <time>2026-08-12T18:29:20.000Z</time>
      </trkpt>
      <trkpt lat="45.21538" lon="5.73476">
        <ele>830.40002441406</ele>
        <time>2026-08-12T18:29:21.000Z</time>
      </trkpt>
      <trkpt lat="45.21539" lon="5.73477">
        <ele>830</ele>
        <time>2026-08-12T18:29:22.000Z</time>
      </trkpt>
      <trkpt lat="45.2154" lon="5.73478">
        <ele>829.59997558594</ele>
        <time>2026-08-12T18:29:23.000Z</time>
      </trkpt>
      <trkpt lat="45.21541" lon="5.73479">
        <ele>829</ele>
        <time>2026-08-12T18:29:24.000Z</time>
      </trkpt>
      <trkpt lat="45.21542" lon="5.7348">
        <ele>828.59997558594</ele>
        <time>2026-08-12T18:29:25.000Z</time>
      </trkpt>
      <trkpt lat="45.21543" lon="5.73481">
        <ele>828</ele>
        <time>2026-08-12T18:29:26.000Z</time>
      </trkpt>
      <trkpt lat="45.21545" lon="5.73482">
        <ele>827.79998779297</ele>
        <time>2026-08-12T18:29:27.000Z</time>
      </trkpt>
      <trkpt lat="45.21546" lon="5.73482">
        <ele>827.40002441406</ele>
        <time>2026-08-12T18:29:28.000Z</time>
      </trkpt>
      <trkpt lat="45.21547" lon="5.73483">
        <ele>827.40002441406</ele>
        <time>2026-08-12T18:29:29.000Z</time>
      </trkpt>
      <trkpt lat="45.21548" lon="5.73483">
        <ele>827.20001220703</ele>
        <time>2026-08-12T18:29:30.000Z</time>
      </trkpt>
      <trkpt lat="45.2155" lon="5.73484">
        <ele>827</ele>
        <time>2026-08-12T18:29:31.000Z</time>
      </trkpt>
      <trkpt lat="45.21551" lon="5.73485">
        <ele>826.59997558594</ele>
        <time>2026-08-12T18:29:32.000Z</time>
      </trkpt>
      <trkpt lat="45.21553" lon="5.73487">
        <ele>826.40002441406</ele>
        <time>2026-08-12T18:29:33.000Z</time>
      </trkpt>
      <trkpt lat="45.21554" lon="5.73487">
        <ele>826.40002441406</ele>
        <time>2026-08-12T18:29:34.000Z</time>
      </trkpt>
      <trkpt lat="45.21555" lon="5.73488">
        <ele>826.20001220703</ele>
        <time>2026-08-12T18:29:35.000Z</time>
      </trkpt>
      <trkpt lat="45.21557" lon="5.7349">
        <ele>826.20001220703</ele>
        <time>2026-08-12T18:29:36.000Z</time>
      </trkpt>
      <trkpt lat="45.21557" lon="5.73492">
        <ele>826.20001220703</ele>
        <time>2026-08-12T18:29:37.000Z</time>
      </trkpt>
      <trkpt lat="45.21558" lon="5.73494">
        <ele>826.20001220703</ele>
        <time>2026-08-12T18:29:38.000Z</time>
      </trkpt>
      <trkpt lat="45.21559" lon="5.73495">
        <ele>826.20001220703</ele>
        <time>2026-08-12T18:29:39.000Z</time>
      </trkpt>
      <trkpt lat="45.21559" lon="5.73497">
        <ele>826</ele>
        <time>2026-08-12T18:29:40.000Z</time>
      </trkpt>
      <trkpt lat="45.21559" lon="5.735">
        <ele>825.79998779297</ele>
        <time>2026-08-12T18:29:41.000Z</time>
      </trkpt>
      <trkpt lat="45.21559" lon="5.73502">
        <ele>825.40002441406</ele>
        <time>2026-08-12T18:29:42.000Z</time>
      </trkpt>
      <trkpt lat="45.2156" lon="5.73504">
        <ele>825.20001220703</ele>
        <time>2026-08-12T18:29:43.000Z</time>
      </trkpt>
      <trkpt lat="45.2156" lon="5.73506">
        <ele>825</ele>
        <time>2026-08-12T18:29:44.000Z</time>
      </trkpt>
      <trkpt lat="45.2156" lon="5.73507">
        <ele>824.79998779297</ele>
        <time>2026-08-12T18:29:45.000Z</time>
      </trkpt>
      <trkpt lat="45.21561" lon="5.73508">
        <ele>824.40002441406</ele>
        <time>2026-08-12T18:29:46.000Z</time>
      </trkpt>
      <trkpt lat="45.21562" lon="5.73509">
        <ele>824</ele>
        <time>2026-08-12T18:29:47.000Z</time>
      </trkpt>
      <trkpt lat="45.21562" lon="5.73511">
        <ele>823.59997558594</ele>
        <time>2026-08-12T18:29:48.000Z</time>
      </trkpt>
      <trkpt lat="45.21562" lon="5.73513">
        <ele>823.59997558594</ele>
        <time>2026-08-12T18:29:49.000Z</time>
      </trkpt>
      <trkpt lat="45.21562" lon="5.73515">
        <ele>823.40002441406</ele>
        <time>2026-08-12T18:29:50.000Z</time>
      </trkpt>
      <trkpt lat="45.21561" lon="5.73517">
        <ele>823.20001220703</ele>
        <time>2026-08-12T18:29:51.000Z</time>
      </trkpt>
      <trkpt lat="45.21561" lon="5.7352">
        <ele>823.20001220703</ele>
        <time>2026-08-12T18:29:52.000Z</time>
      </trkpt>
      <trkpt lat="45.2156" lon="5.73523">
        <ele>823</ele>
        <time>2026-08-12T18:29:53.000Z</time>
      </trkpt>
      <trkpt lat="45.2156" lon="5.73526">
        <ele>822.79998779297</ele>
        <time>2026-08-12T18:29:54.000Z</time>
      </trkpt>
      <trkpt lat="45.2156" lon="5.7353">
        <ele>822.20001220703</ele>
        <time>2026-08-12T18:29:55.000Z</time>
      </trkpt>
      <trkpt lat="45.2156" lon="5.73533">
        <ele>822</ele>
        <time>2026-08-12T18:29:56.000Z</time>
      </trkpt>
      <trkpt lat="45.2156" lon="5.73536">
        <ele>821.40002441406</ele>
        <time>2026-08-12T18:29:57.000Z</time>
      </trkpt>
      <trkpt lat="45.2156" lon="5.73538">
        <ele>821</ele>
        <time>2026-08-12T18:29:58.000Z</time>
      </trkpt>
      <trkpt lat="45.2156" lon="5.73541">
        <ele>820.59997558594</ele>
        <time>2026-08-12T18:29:59.000Z</time>
      </trkpt>
      <trkpt lat="45.21561" lon="5.73544">
        <ele>820.20001220703</ele>
        <time>2026-08-12T18:30:00.000Z</time>
      </trkpt>
      <trkpt lat="45.21561" lon="5.73547">
        <ele>820.20001220703</ele>
        <time>2026-08-12T18:30:01.000Z</time>
      </trkpt>
      <trkpt lat="45.21561" lon="5.7355">
        <ele>819.79998779297</ele>
        <time>2026-08-12T18:30:02.000Z</time>
      </trkpt>
      <trkpt lat="45.21562" lon="5.73552">
        <ele>819.59997558594</ele>
        <time>2026-08-12T18:30:03.000Z</time>
      </trkpt>
      <trkpt lat="45.21563" lon="5.73554">
        <ele>819</ele>
        <time>2026-08-12T18:30:04.000Z</time>
      </trkpt>
      <trkpt lat="45.21564" lon="5.73557">
        <ele>818.59997558594</ele>
        <time>2026-08-12T18:30:05.000Z</time>
      </trkpt>
      <trkpt lat="45.21565" lon="5.7356">
        <ele>818</ele>
        <time>2026-08-12T18:30:06.000Z</time>
      </trkpt>
      <trkpt lat="45.21566" lon="5.73563">
        <ele>817.40002441406</ele>
        <time>2026-08-12T18:30:07.000Z</time>
      </trkpt>
      <trkpt lat="45.21566" lon="5.73567">
        <ele>817.20001220703</ele>
        <time>2026-08-12T18:30:08.000Z</time>
      </trkpt>
      <trkpt lat="45.21567" lon="5.7357">
        <ele>817</ele>
        <time>2026-08-12T18:30:09.000Z</time>
      </trkpt>
      <trkpt lat="45.21567" lon="5.73573">
        <ele>816.59997558594</ele>
        <time>2026-08-12T18:30:10.000Z</time>
      </trkpt>
      <trkpt lat="45.21568" lon="5.73576">
        <ele>816.40002441406</ele>
        <time>2026-08-12T18:30:11.000Z</time>
      </trkpt>
      <trkpt lat="45.21568" lon="5.7358">
        <ele>816.20001220703</ele>
        <time>2026-08-12T18:30:12.000Z</time>
      </trkpt>
      <trkpt lat="45.21569" lon="5.73582">
        <ele>815.79998779297</ele>
        <time>2026-08-12T18:30:13.000Z</time>
      </trkpt>
      <trkpt lat="45.21569" lon="5.73584">
        <ele>815.40002441406</ele>
        <time>2026-08-12T18:30:14.000Z</time>
      </trkpt>
      <trkpt lat="45.2157" lon="5.73587">
        <ele>814.79998779297</ele>
        <time>2026-08-12T18:30:15.000Z</time>
      </trkpt>
      <trkpt lat="45.2157" lon="5.73589">
        <ele>814.40002441406</ele>
        <time>2026-08-12T18:30:16.000Z</time>
      </trkpt>
      <trkpt lat="45.2157" lon="5.73592">
        <ele>814</ele>
        <time>2026-08-12T18:30:17.000Z</time>
      </trkpt>
      <trkpt lat="45.21568" lon="5.73593">
        <ele>813.79998779297</ele>
        <time>2026-08-12T18:30:18.000Z</time>
      </trkpt>
      <trkpt lat="45.21566" lon="5.73591">
        <ele>813.40002441406</ele>
        <time>2026-08-12T18:30:19.000Z</time>
      </trkpt>
      <trkpt lat="45.21564" lon="5.73589">
        <ele>813.20001220703</ele>
        <time>2026-08-12T18:30:20.000Z</time>
      </trkpt>
      <trkpt lat="45.21562" lon="5.73587">
        <ele>812.79998779297</ele>
        <time>2026-08-12T18:30:21.000Z</time>
      </trkpt>
      <trkpt lat="45.21561" lon="5.73585">
        <ele>812.20001220703</ele>
        <time>2026-08-12T18:30:22.000Z</time>
      </trkpt>
      <trkpt lat="45.21559" lon="5.73583">
        <ele>811.79998779297</ele>
        <time>2026-08-12T18:30:23.000Z</time>
      </trkpt>
      <trkpt lat="45.21558" lon="5.73582">
        <ele>811.20001220703</ele>
        <time>2026-08-12T18:30:24.000Z</time>
      </trkpt>
      <trkpt lat="45.21557" lon="5.7358">
        <ele>811</ele>
        <time>2026-08-12T18:30:25.000Z</time>
      </trkpt>
      <trkpt lat="45.21555" lon="5.73579">
        <ele>810.79998779297</ele>
        <time>2026-08-12T18:30:26.000Z</time>
      </trkpt>
      <trkpt lat="45.21554" lon="5.73577">
        <ele>810.59997558594</ele>
        <time>2026-08-12T18:30:27.000Z</time>
      </trkpt>
      <trkpt lat="45.21552" lon="5.73575">
        <ele>810.20001220703</ele>
        <time>2026-08-12T18:30:28.000Z</time>
      </trkpt>
      <trkpt lat="45.21551" lon="5.73573">
        <ele>809.79998779297</ele>
        <time>2026-08-12T18:30:29.000Z</time>
      </trkpt>
      <trkpt lat="45.21549" lon="5.73572">
        <ele>809.40002441406</ele>
        <time>2026-08-12T18:30:30.000Z</time>
      </trkpt>
      <trkpt lat="45.21548" lon="5.73571">
        <ele>809.20001220703</ele>
        <time>2026-08-12T18:30:31.000Z</time>
      </trkpt>
      <trkpt lat="45.21546" lon="5.73569">
        <ele>808.79998779297</ele>
        <time>2026-08-12T18:30:32.000Z</time>
      </trkpt>
      <trkpt lat="45.21545" lon="5.73568">
        <ele>808.59997558594</ele>
        <time>2026-08-12T18:30:33.000Z</time>
      </trkpt>
      <trkpt lat="45.21544" lon="5.73566">
        <ele>808</ele>
        <time>2026-08-12T18:30:34.000Z</time>
      </trkpt>
      <trkpt lat="45.21543" lon="5.73564">
        <ele>807.40002441406</ele>
        <time>2026-08-12T18:30:35.000Z</time>
      </trkpt>
      <trkpt lat="45.21542" lon="5.73563">
        <ele>807.20001220703</ele>
        <time>2026-08-12T18:30:36.000Z</time>
      </trkpt>
      <trkpt lat="45.21541" lon="5.73561">
        <ele>806.79998779297</ele>
        <time>2026-08-12T18:30:37.000Z</time>
      </trkpt>
      <trkpt lat="45.2154" lon="5.73559">
        <ele>806.40002441406</ele>
        <time>2026-08-12T18:30:38.000Z</time>
      </trkpt>
      <trkpt lat="45.2154" lon="5.73557">
        <ele>806.20001220703</ele>
        <time>2026-08-12T18:30:39.000Z</time>
      </trkpt>
      <trkpt lat="45.21539" lon="5.73555">
        <ele>805.79998779297</ele>
        <time>2026-08-12T18:30:40.000Z</time>
      </trkpt>
      <trkpt lat="45.21538" lon="5.73553">
        <ele>805.59997558594</ele>
        <time>2026-08-12T18:30:41.000Z</time>
      </trkpt>
      <trkpt lat="45.21538" lon="5.73551">
        <ele>805.40002441406</ele>
        <time>2026-08-12T18:30:42.000Z</time>
      </trkpt>
      <trkpt lat="45.21537" lon="5.7355">
        <ele>805.20001220703</ele>
        <time>2026-08-12T18:30:43.000Z</time>
      </trkpt>
      <trkpt lat="45.21537" lon="5.73548">
        <ele>805</ele>
        <time>2026-08-12T18:30:44.000Z</time>
      </trkpt>
      <trkpt lat="45.21537" lon="5.73546">
        <ele>804.79998779297</ele>
        <time>2026-08-12T18:30:45.000Z</time>
      </trkpt>
      <trkpt lat="45.21536" lon="5.73545">
        <ele>804.40002441406</ele>
        <time>2026-08-12T18:30:46.000Z</time>
      </trkpt>
      <trkpt lat="45.21536" lon="5.73545">
        <ele>804.20001220703</ele>
        <time>2026-08-12T18:30:47.000Z</time>
      </trkpt>
      <trkpt lat="45.21536" lon="5.73547">
        <ele>804</ele>
        <time>2026-08-12T18:30:48.000Z</time>
      </trkpt>
      <trkpt lat="45.21537" lon="5.73549">
        <ele>803.79998779297</ele>
        <time>2026-08-12T18:30:49.000Z</time>
      </trkpt>
      <trkpt lat="45.21537" lon="5.73552">
        <ele>803.59997558594</ele>
        <time>2026-08-12T18:30:50.000Z</time>
      </trkpt>
      <trkpt lat="45.21537" lon="5.73554">
        <ele>803</ele>
        <time>2026-08-12T18:30:51.000Z</time>
      </trkpt>
      <trkpt lat="45.21537" lon="5.73556">
        <ele>802.59997558594</ele>
        <time>2026-08-12T18:30:52.000Z</time>
      </trkpt>
      <trkpt lat="45.21538" lon="5.73558">
        <ele>802.40002441406</ele>
        <time>2026-08-12T18:30:53.000Z</time>
      </trkpt>
      <trkpt lat="45.21538" lon="5.73561">
        <ele>802.20001220703</ele>
        <time>2026-08-12T18:30:54.000Z</time>
      </trkpt>
      <trkpt lat="45.21538" lon="5.73563">
        <ele>801.79998779297</ele>
        <time>2026-08-12T18:30:55.000Z</time>
      </trkpt>
      <trkpt lat="45.21538" lon="5.73565">
        <ele>801.79998779297</ele>
        <time>2026-08-12T18:30:56.000Z</time>
      </trkpt>
      <trkpt lat="45.21538" lon="5.73567">
        <ele>801.40002441406</ele>
        <time>2026-08-12T18:30:57.000Z</time>
      </trkpt>
      <trkpt lat="45.21538" lon="5.73569">
        <ele>801</ele>
        <time>2026-08-12T18:30:58.000Z</time>
      </trkpt>
      <trkpt lat="45.21538" lon="5.73571">
        <ele>801</ele>
        <time>2026-08-12T18:30:59.000Z</time>
      </trkpt>
      <trkpt lat="45.21539" lon="5.73573">
        <ele>800.79998779297</ele>
        <time>2026-08-12T18:31:00.000Z</time>
      </trkpt>
      <trkpt lat="45.21539" lon="5.73576">
        <ele>800.40002441406</ele>
        <time>2026-08-12T18:31:01.000Z</time>
      </trkpt>
      <trkpt lat="45.2154" lon="5.73578">
        <ele>800</ele>
        <time>2026-08-12T18:31:02.000Z</time>
      </trkpt>
      <trkpt lat="45.21541" lon="5.73581">
        <ele>799.20001220703</ele>
        <time>2026-08-12T18:31:03.000Z</time>
      </trkpt>
      <trkpt lat="45.21542" lon="5.73584">
        <ele>798.79998779297</ele>
        <time>2026-08-12T18:31:04.000Z</time>
      </trkpt>
      <trkpt lat="45.21542" lon="5.73586">
        <ele>798.20001220703</ele>
        <time>2026-08-12T18:31:05.000Z</time>
      </trkpt>
      <trkpt lat="45.21543" lon="5.73588">
        <ele>797.79998779297</ele>
        <time>2026-08-12T18:31:06.000Z</time>
      </trkpt>
      <trkpt lat="45.21543" lon="5.7359">
        <ele>797.40002441406</ele>
        <time>2026-08-12T18:31:07.000Z</time>
      </trkpt>
      <trkpt lat="45.21544" lon="5.73592">
        <ele>797</ele>
        <time>2026-08-12T18:31:08.000Z</time>
      </trkpt>
      <trkpt lat="45.21545" lon="5.73593">
        <ele>796.79998779297</ele>
        <time>2026-08-12T18:31:09.000Z</time>
      </trkpt>
      <trkpt lat="45.21545" lon="5.73596">
        <ele>796.59997558594</ele>
        <time>2026-08-12T18:31:10.000Z</time>
      </trkpt>
      <trkpt lat="45.21545" lon="5.73598">
        <ele>796.40002441406</ele>
        <time>2026-08-12T18:31:11.000Z</time>
      </trkpt>
      <trkpt lat="45.21546" lon="5.73601">
        <ele>796.20001220703</ele>
        <time>2026-08-12T18:31:12.000Z</time>
      </trkpt>
      <trkpt lat="45.21546" lon="5.73603">
        <ele>796</ele>
        <time>2026-08-12T18:31:13.000Z</time>
      </trkpt>
      <trkpt lat="45.21547" lon="5.73605">
        <ele>795.59997558594</ele>
        <time>2026-08-12T18:31:14.000Z</time>
      </trkpt>
      <trkpt lat="45.21547" lon="5.73607">
        <ele>795.40002441406</ele>
        <time>2026-08-12T18:31:15.000Z</time>
      </trkpt>
      <trkpt lat="45.21548" lon="5.73608">
        <ele>795</ele>
        <time>2026-08-12T18:31:16.000Z</time>
      </trkpt>
      <trkpt lat="45.21547" lon="5.7361">
        <ele>794.79998779297</ele>
        <time>2026-08-12T18:31:17.000Z</time>
      </trkpt>
      <trkpt lat="45.21546" lon="5.7361">
        <ele>794.40002441406</ele>
        <time>2026-08-12T18:31:18.000Z</time>
      </trkpt>
      <trkpt lat="45.21544" lon="5.73608">
        <ele>794.20001220703</ele>
        <time>2026-08-12T18:31:19.000Z</time>
      </trkpt>
      <trkpt lat="45.21543" lon="5.73607">
        <ele>794</ele>
        <time>2026-08-12T18:31:20.000Z</time>
      </trkpt>
      <trkpt lat="45.21542" lon="5.73605">
        <ele>794</ele>
        <time>2026-08-12T18:31:21.000Z</time>
      </trkpt>
      <trkpt lat="45.2154" lon="5.73602">
        <ele>793.59997558594</ele>
        <time>2026-08-12T18:31:22.000Z</time>
      </trkpt>
      <trkpt lat="45.21539" lon="5.736">
        <ele>793.20001220703</ele>
        <time>2026-08-12T18:31:23.000Z</time>
      </trkpt>
      <trkpt lat="45.21538" lon="5.73599">
        <ele>792.79998779297</ele>
        <time>2026-08-12T18:31:24.000Z</time>
      </trkpt>
      <trkpt lat="45.21537" lon="5.73598">
        <ele>792.40002441406</ele>
        <time>2026-08-12T18:31:25.000Z</time>
      </trkpt>
      <trkpt lat="45.21537" lon="5.73596">
        <ele>792.20001220703</ele>
        <time>2026-08-12T18:31:26.000Z</time>
      </trkpt>
      <trkpt lat="45.21536" lon="5.73595">
        <ele>791.79998779297</ele>
        <time>2026-08-12T18:31:27.000Z</time>
      </trkpt>
      <trkpt lat="45.21536" lon="5.73594">
        <ele>791.40002441406</ele>
        <time>2026-08-12T18:31:28.000Z</time>
      </trkpt>
      <trkpt lat="45.21536" lon="5.73595">
        <ele>791.20001220703</ele>
        <time>2026-08-12T18:31:29.000Z</time>
      </trkpt>
      <trkpt lat="45.21537" lon="5.73597">
        <ele>791</ele>
        <time>2026-08-12T18:31:30.000Z</time>
      </trkpt>
      <trkpt lat="45.21537" lon="5.73599">
        <ele>790.79998779297</ele>
        <time>2026-08-12T18:31:31.000Z</time>
      </trkpt>
      <trkpt lat="45.21538" lon="5.73601">
        <ele>790.59997558594</ele>
        <time>2026-08-12T18:31:32.000Z</time>
      </trkpt>
      <trkpt lat="45.21538" lon="5.73603">
        <ele>790.40002441406</ele>
        <time>2026-08-12T18:31:33.000Z</time>
      </trkpt>
      <trkpt lat="45.21538" lon="5.73605">
        <ele>790</ele>
        <time>2026-08-12T18:31:34.000Z</time>
      </trkpt>
      <trkpt lat="45.21539" lon="5.73607">
        <ele>789.79998779297</ele>
        <time>2026-08-12T18:31:35.000Z</time>
      </trkpt>
      <trkpt lat="45.21539" lon="5.73609">
        <ele>789.40002441406</ele>
        <time>2026-08-12T18:31:36.000Z</time>
      </trkpt>
      <trkpt lat="45.2154" lon="5.7361">
        <ele>789.20001220703</ele>
        <time>2026-08-12T18:31:37.000Z</time>
      </trkpt>
      <trkpt lat="45.2154" lon="5.73612">
        <ele>789</ele>
        <time>2026-08-12T18:31:38.000Z</time>
      </trkpt>
      <trkpt lat="45.21541" lon="5.73614">
        <ele>789</ele>
        <time>2026-08-12T18:31:39.000Z</time>
      </trkpt>
      <trkpt lat="45.21541" lon="5.73616">
        <ele>788.79998779297</ele>
        <time>2026-08-12T18:31:40.000Z</time>
      </trkpt>
      <trkpt lat="45.21542" lon="5.73618">
        <ele>788.40002441406</ele>
        <time>2026-08-12T18:31:41.000Z</time>
      </trkpt>
      <trkpt lat="45.21542" lon="5.7362">
        <ele>788</ele>
        <time>2026-08-12T18:31:42.000Z</time>
      </trkpt>
      <trkpt lat="45.21542" lon="5.73621">
        <ele>787.59997558594</ele>
        <time>2026-08-12T18:31:43.000Z</time>
      </trkpt>
      <trkpt lat="45.21541" lon="5.73622">
        <ele>787.40002441406</ele>
        <time>2026-08-12T18:31:44.000Z</time>
      </trkpt>
      <trkpt lat="45.2154" lon="5.73622">
        <ele>787</ele>
        <time>2026-08-12T18:31:45.000Z</time>
      </trkpt>
      <trkpt lat="45.21539" lon="5.73619">
        <ele>786.79998779297</ele>
        <time>2026-08-12T18:31:46.000Z</time>
      </trkpt>
      <trkpt lat="45.21538" lon="5.73618">
        <ele>786.40002441406</ele>
        <time>2026-08-12T18:31:47.000Z</time>
      </trkpt>
      <trkpt lat="45.21537" lon="5.73616">
        <ele>786.20001220703</ele>
        <time>2026-08-12T18:31:48.000Z</time>
      </trkpt>
      <trkpt lat="45.21536" lon="5.73615">
        <ele>786</ele>
        <time>2026-08-12T18:31:49.000Z</time>
      </trkpt>
      <trkpt lat="45.21535" lon="5.73613">
        <ele>785.79998779297</ele>
        <time>2026-08-12T18:31:50.000Z</time>
      </trkpt>
      <trkpt lat="45.21535" lon="5.73611">
        <ele>785.79998779297</ele>
        <time>2026-08-12T18:31:51.000Z</time>
      </trkpt>
      <trkpt lat="45.21533" lon="5.73609">
        <ele>785.40002441406</ele>
        <time>2026-08-12T18:31:52.000Z</time>
      </trkpt>
      <trkpt lat="45.21532" lon="5.73607">
        <ele>785.20001220703</ele>
        <time>2026-08-12T18:31:53.000Z</time>
      </trkpt>
      <trkpt lat="45.21531" lon="5.73606">
        <ele>785</ele>
        <time>2026-08-12T18:31:54.000Z</time>
      </trkpt>
      <trkpt lat="45.21529" lon="5.73605">
        <ele>784.59997558594</ele>
        <time>2026-08-12T18:31:55.000Z</time>
      </trkpt>
      <trkpt lat="45.21527" lon="5.73603">
        <ele>784.20001220703</ele>
        <time>2026-08-12T18:31:56.000Z</time>
      </trkpt>
      <trkpt lat="45.21526" lon="5.73602">
        <ele>783.79998779297</ele>
        <time>2026-08-12T18:31:57.000Z</time>
      </trkpt>
      <trkpt lat="45.21525" lon="5.736">
        <ele>783.59997558594</ele>
        <time>2026-08-12T18:31:58.000Z</time>
      </trkpt>
      <trkpt lat="45.21524" lon="5.73599">
        <ele>783.40002441406</ele>
        <time>2026-08-12T18:31:59.000Z</time>
      </trkpt>
      <trkpt lat="45.21523" lon="5.73598">
        <ele>783.40002441406</ele>
        <time>2026-08-12T18:32:00.000Z</time>
      </trkpt>
      <trkpt lat="45.21522" lon="5.73596">
        <ele>783</ele>
        <time>2026-08-12T18:32:01.000Z</time>
      </trkpt>
      <trkpt lat="45.21521" lon="5.73595">
        <ele>782.59997558594</ele>
        <time>2026-08-12T18:32:02.000Z</time>
      </trkpt>
      <trkpt lat="45.2152" lon="5.73593">
        <ele>782.20001220703</ele>
        <time>2026-08-12T18:32:03.000Z</time>
      </trkpt>
      <trkpt lat="45.21519" lon="5.7359">
        <ele>781.79998779297</ele>
        <time>2026-08-12T18:32:04.000Z</time>
      </trkpt>
      <trkpt lat="45.21518" lon="5.73588">
        <ele>781.40002441406</ele>
        <time>2026-08-12T18:32:05.000Z</time>
      </trkpt>
      <trkpt lat="45.21517" lon="5.73586">
        <ele>781.20001220703</ele>
        <time>2026-08-12T18:32:06.000Z</time>
      </trkpt>
      <trkpt lat="45.21517" lon="5.73584">
        <ele>780.79998779297</ele>
        <time>2026-08-12T18:32:07.000Z</time>
      </trkpt>
      <trkpt lat="45.21517" lon="5.73582">
        <ele>780.40002441406</ele>
        <time>2026-08-12T18:32:08.000Z</time>
      </trkpt>
      <trkpt lat="45.21517" lon="5.73581">
        <ele>780.20001220703</ele>
        <time>2026-08-12T18:32:09.000Z</time>
      </trkpt>
      <trkpt lat="45.21517" lon="5.7358">
        <ele>780</ele>
        <time>2026-08-12T18:32:10.000Z</time>
      </trkpt>
      <trkpt lat="45.21517" lon="5.73579">
        <ele>779.79998779297</ele>
        <time>2026-08-12T18:32:11.000Z</time>
      </trkpt>
      <trkpt lat="45.21517" lon="5.73577">
        <ele>779.59997558594</ele>
        <time>2026-08-12T18:32:12.000Z</time>
      </trkpt>
      <trkpt lat="45.21516" lon="5.73577">
        <ele>779.40002441406</ele>
        <time>2026-08-12T18:32:13.000Z</time>
      </trkpt>
      <trkpt lat="45.21516" lon="5.73577">
        <ele>779.20001220703</ele>
        <time>2026-08-12T18:32:14.000Z</time>
      </trkpt>
      <trkpt lat="45.21516" lon="5.73578">
        <ele>779</ele>
        <time>2026-08-12T18:32:15.000Z</time>
      </trkpt>
      <trkpt lat="45.21516" lon="5.7358">
        <ele>778.79998779297</ele>
        <time>2026-08-12T18:32:16.000Z</time>
      </trkpt>
      <trkpt lat="45.21516" lon="5.73582">
        <ele>778.40002441406</ele>
        <time>2026-08-12T18:32:17.000Z</time>
      </trkpt>
      <trkpt lat="45.21516" lon="5.73583">
        <ele>778.40002441406</ele>
        <time>2026-08-12T18:32:18.000Z</time>
      </trkpt>
      <trkpt lat="45.21515" lon="5.73586">
        <ele>778</ele>
        <time>2026-08-12T18:32:19.000Z</time>
      </trkpt>
      <trkpt lat="45.21514" lon="5.73588">
        <ele>777.59997558594</ele>
        <time>2026-08-12T18:32:20.000Z</time>
      </trkpt>
      <trkpt lat="45.21514" lon="5.7359">
        <ele>777.20001220703</ele>
        <time>2026-08-12T18:32:21.000Z</time>
      </trkpt>
      <trkpt lat="45.21514" lon="5.73592">
        <ele>777</ele>
        <time>2026-08-12T18:32:22.000Z</time>
      </trkpt>
      <trkpt lat="45.21515" lon="5.73594">
        <ele>776.59997558594</ele>
        <time>2026-08-12T18:32:23.000Z</time>
      </trkpt>
      <trkpt lat="45.21516" lon="5.73596">
        <ele>776.20001220703</ele>
        <time>2026-08-12T18:32:24.000Z</time>
      </trkpt>
      <trkpt lat="45.21516" lon="5.73599">
        <ele>775.79998779297</ele>
        <time>2026-08-12T18:32:25.000Z</time>
      </trkpt>
      <trkpt lat="45.21514" lon="5.736">
        <ele>775.40002441406</ele>
        <time>2026-08-12T18:32:26.000Z</time>
      </trkpt>
      <trkpt lat="45.21512" lon="5.73598">
        <ele>775.20001220703</ele>
        <time>2026-08-12T18:32:27.000Z</time>
      </trkpt>
      <trkpt lat="45.2151" lon="5.73596">
        <ele>775</ele>
        <time>2026-08-12T18:32:28.000Z</time>
      </trkpt>
      <trkpt lat="45.21509" lon="5.73595">
        <ele>774.79998779297</ele>
        <time>2026-08-12T18:32:29.000Z</time>
      </trkpt>
      <trkpt lat="45.21508" lon="5.73593">
        <ele>774.40002441406</ele>
        <time>2026-08-12T18:32:30.000Z</time>
      </trkpt>
      <trkpt lat="45.21507" lon="5.73591">
        <ele>773.79998779297</ele>
        <time>2026-08-12T18:32:31.000Z</time>
      </trkpt>
      <trkpt lat="45.21507" lon="5.7359">
        <ele>773.59997558594</ele>
        <time>2026-08-12T18:32:32.000Z</time>
      </trkpt>
      <trkpt lat="45.21507" lon="5.73588">
        <ele>773.20001220703</ele>
        <time>2026-08-12T18:32:33.000Z</time>
      </trkpt>
      <trkpt lat="45.21507" lon="5.73588">
        <ele>773</ele>
        <time>2026-08-12T18:32:34.000Z</time>
      </trkpt>
      <trkpt lat="45.21507" lon="5.73587">
        <ele>772.79998779297</ele>
        <time>2026-08-12T18:32:35.000Z</time>
      </trkpt>
      <trkpt lat="45.21507" lon="5.73586">
        <ele>772.59997558594</ele>
        <time>2026-08-12T18:32:36.000Z</time>
      </trkpt>
      <trkpt lat="45.21507" lon="5.73584">
        <ele>772.20001220703</ele>
        <time>2026-08-12T18:32:37.000Z</time>
      </trkpt>
      <trkpt lat="45.21507" lon="5.73583">
        <ele>772</ele>
        <time>2026-08-12T18:32:38.000Z</time>
      </trkpt>
      <trkpt lat="45.21508" lon="5.7358">
        <ele>771.79998779297</ele>
        <time>2026-08-12T18:32:39.000Z</time>
      </trkpt>
      <trkpt lat="45.21507" lon="5.73578">
        <ele>771.59997558594</ele>
        <time>2026-08-12T18:32:40.000Z</time>
      </trkpt>
      <trkpt lat="45.21507" lon="5.73576">
        <ele>771.40002441406</ele>
        <time>2026-08-12T18:32:41.000Z</time>
      </trkpt>
      <trkpt lat="45.21507" lon="5.73574">
        <ele>771</ele>
        <time>2026-08-12T18:32:42.000Z</time>
      </trkpt>
      <trkpt lat="45.21506" lon="5.73572">
        <ele>770.79998779297</ele>
        <time>2026-08-12T18:32:43.000Z</time>
      </trkpt>
      <trkpt lat="45.21506" lon="5.7357">
        <ele>770.40002441406</ele>
        <time>2026-08-12T18:32:44.000Z</time>
      </trkpt>
      <trkpt lat="45.21505" lon="5.73568">
        <ele>770.20001220703</ele>
        <time>2026-08-12T18:32:45.000Z</time>
      </trkpt>
      <trkpt lat="45.21505" lon="5.73567">
        <ele>770</ele>
        <time>2026-08-12T18:32:46.000Z</time>
      </trkpt>
      <trkpt lat="45.21504" lon="5.73565">
        <ele>769.79998779297</ele>
        <time>2026-08-12T18:32:47.000Z</time>
      </trkpt>
      <trkpt lat="45.21503" lon="5.73564">
        <ele>769.59997558594</ele>
        <time>2026-08-12T18:32:48.000Z</time>
      </trkpt>
      <trkpt lat="45.21502" lon="5.73563">
        <ele>769.20001220703</ele>
        <time>2026-08-12T18:32:49.000Z</time>
      </trkpt>
      <trkpt lat="45.215" lon="5.73562">
        <ele>768.79998779297</ele>
        <time>2026-08-12T18:32:50.000Z</time>
      </trkpt>
      <trkpt lat="45.21499" lon="5.73561">
        <ele>768.59997558594</ele>
        <time>2026-08-12T18:32:51.000Z</time>
      </trkpt>
      <trkpt lat="45.21498" lon="5.7356">
        <ele>768.20001220703</ele>
        <time>2026-08-12T18:32:52.000Z</time>
      </trkpt>
      <trkpt lat="45.21496" lon="5.7356">
        <ele>767.79998779297</ele>
        <time>2026-08-12T18:32:53.000Z</time>
      </trkpt>
      <trkpt lat="45.21495" lon="5.73558">
        <ele>767.79998779297</ele>
        <time>2026-08-12T18:32:54.000Z</time>
      </trkpt>
      <trkpt lat="45.21493" lon="5.73557">
        <ele>767.40002441406</ele>
        <time>2026-08-12T18:32:55.000Z</time>
      </trkpt>
      <trkpt lat="45.21491" lon="5.73556">
        <ele>767</ele>
        <time>2026-08-12T18:32:56.000Z</time>
      </trkpt>
      <trkpt lat="45.21489" lon="5.73555">
        <ele>766.79998779297</ele>
        <time>2026-08-12T18:32:57.000Z</time>
      </trkpt>
      <trkpt lat="45.21488" lon="5.73554">
        <ele>766.40002441406</ele>
        <time>2026-08-12T18:32:58.000Z</time>
      </trkpt>
      <trkpt lat="45.21486" lon="5.73553">
        <ele>766</ele>
        <time>2026-08-12T18:32:59.000Z</time>
      </trkpt>
      <trkpt lat="45.21485" lon="5.73552">
        <ele>765.79998779297</ele>
        <time>2026-08-12T18:33:00.000Z</time>
      </trkpt>
      <trkpt lat="45.21483" lon="5.73552">
        <ele>765.59997558594</ele>
        <time>2026-08-12T18:33:01.000Z</time>
      </trkpt>
      <trkpt lat="45.21482" lon="5.73551">
        <ele>765.40002441406</ele>
        <time>2026-08-12T18:33:02.000Z</time>
      </trkpt>
      <trkpt lat="45.21481" lon="5.7355">
        <ele>765.20001220703</ele>
        <time>2026-08-12T18:33:03.000Z</time>
      </trkpt>
      <trkpt lat="45.2148" lon="5.73549">
        <ele>765</ele>
        <time>2026-08-12T18:33:04.000Z</time>
      </trkpt>
      <trkpt lat="45.21479" lon="5.73547">
        <ele>764.79998779297</ele>
        <time>2026-08-12T18:33:05.000Z</time>
      </trkpt>
      <trkpt lat="45.21479" lon="5.73546">
        <ele>764.79998779297</ele>
        <time>2026-08-12T18:33:06.000Z</time>
      </trkpt>
      <trkpt lat="45.21479" lon="5.73545">
        <ele>764.59997558594</ele>
        <time>2026-08-12T18:33:07.000Z</time>
      </trkpt>
      <trkpt lat="45.21478" lon="5.73543">
        <ele>764.40002441406</ele>
        <time>2026-08-12T18:33:08.000Z</time>
      </trkpt>
      <trkpt lat="45.21477" lon="5.73542">
        <ele>764.40002441406</ele>
        <time>2026-08-12T18:33:09.000Z</time>
      </trkpt>
      <trkpt lat="45.21477" lon="5.7354">
        <ele>764.20001220703</ele>
        <time>2026-08-12T18:33:10.000Z</time>
      </trkpt>
      <trkpt lat="45.21476" lon="5.73539">
        <ele>764</ele>
        <time>2026-08-12T18:33:11.000Z</time>
      </trkpt>
      <trkpt lat="45.21475" lon="5.73538">
        <ele>763.79998779297</ele>
        <time>2026-08-12T18:33:12.000Z</time>
      </trkpt>
      <trkpt lat="45.21474" lon="5.73537">
        <ele>763.59997558594</ele>
        <time>2026-08-12T18:33:13.000Z</time>
      </trkpt>
      <trkpt lat="45.21473" lon="5.73535">
        <ele>763.40002441406</ele>
        <time>2026-08-12T18:33:14.000Z</time>
      </trkpt>
      <trkpt lat="45.21472" lon="5.73534">
        <ele>763.20001220703</ele>
        <time>2026-08-12T18:33:15.000Z</time>
      </trkpt>
      <trkpt lat="45.21471" lon="5.73532">
        <ele>762.79998779297</ele>
        <time>2026-08-12T18:33:16.000Z</time>
      </trkpt>
      <trkpt lat="45.2147" lon="5.73529">
        <ele>762.40002441406</ele>
        <time>2026-08-12T18:33:17.000Z</time>
      </trkpt>
      <trkpt lat="45.21469" lon="5.73527">
        <ele>762</ele>
        <time>2026-08-12T18:33:18.000Z</time>
      </trkpt>
      <trkpt lat="45.21469" lon="5.73525">
        <ele>761.59997558594</ele>
        <time>2026-08-12T18:33:19.000Z</time>
      </trkpt>
      <trkpt lat="45.21468" lon="5.73523">
        <ele>761.59997558594</ele>
        <time>2026-08-12T18:33:20.000Z</time>
      </trkpt>
      <trkpt lat="45.21468" lon="5.73522">
        <ele>761.40002441406</ele>
        <time>2026-08-12T18:33:21.000Z</time>
      </trkpt>
      <trkpt lat="45.21468" lon="5.7352">
        <ele>761.20001220703</ele>
        <time>2026-08-12T18:33:22.000Z</time>
      </trkpt>
      <trkpt lat="45.21468" lon="5.73519">
        <ele>760.79998779297</ele>
        <time>2026-08-12T18:33:23.000Z</time>
      </trkpt>
      <trkpt lat="45.21467" lon="5.73517">
        <ele>760.59997558594</ele>
        <time>2026-08-12T18:33:24.000Z</time>
      </trkpt>
      <trkpt lat="45.21468" lon="5.73516">
        <ele>760.40002441406</ele>
        <time>2026-08-12T18:33:25.000Z</time>
      </trkpt>
      <trkpt lat="45.21468" lon="5.73515">
        <ele>760.20001220703</ele>
        <time>2026-08-12T18:33:26.000Z</time>
      </trkpt>
      <trkpt lat="45.21467" lon="5.73512">
        <ele>760.20001220703</ele>
        <time>2026-08-12T18:33:27.000Z</time>
      </trkpt>
      <trkpt lat="45.21467" lon="5.73511">
        <ele>760</ele>
        <time>2026-08-12T18:33:28.000Z</time>
      </trkpt>
      <trkpt lat="45.21466" lon="5.73509">
        <ele>759.79998779297</ele>
        <time>2026-08-12T18:33:29.000Z</time>
      </trkpt>
      <trkpt lat="45.21465" lon="5.73507">
        <ele>759.40002441406</ele>
        <time>2026-08-12T18:33:30.000Z</time>
      </trkpt>
      <trkpt lat="45.21464" lon="5.73503">
        <ele>758.79998779297</ele>
        <time>2026-08-12T18:33:31.000Z</time>
      </trkpt>
      <trkpt lat="45.21464" lon="5.735">
        <ele>758.40002441406</ele>
        <time>2026-08-12T18:33:32.000Z</time>
      </trkpt>
      <trkpt lat="45.21462" lon="5.73498">
        <ele>757.79998779297</ele>
        <time>2026-08-12T18:33:33.000Z</time>
      </trkpt>
      <trkpt lat="45.21461" lon="5.73495">
        <ele>756.79998779297</ele>
        <time>2026-08-12T18:33:34.000Z</time>
      </trkpt>
      <trkpt lat="45.2146" lon="5.73494">
        <ele>756.59997558594</ele>
        <time>2026-08-12T18:33:35.000Z</time>
      </trkpt>
      <trkpt lat="45.2146" lon="5.73492">
        <ele>756.40002441406</ele>
        <time>2026-08-12T18:33:36.000Z</time>
      </trkpt>
      <trkpt lat="45.21458" lon="5.73491">
        <ele>756.20001220703</ele>
        <time>2026-08-12T18:33:37.000Z</time>
      </trkpt>
      <trkpt lat="45.21457" lon="5.7349">
        <ele>756</ele>
        <time>2026-08-12T18:33:38.000Z</time>
      </trkpt>
      <trkpt lat="45.21456" lon="5.73489">
        <ele>755.79998779297</ele>
        <time>2026-08-12T18:33:39.000Z</time>
      </trkpt>
      <trkpt lat="45.21454" lon="5.73488">
        <ele>755.59997558594</ele>
        <time>2026-08-12T18:33:40.000Z</time>
      </trkpt>
      <trkpt lat="45.21453" lon="5.73488">
        <ele>755.20001220703</ele>
        <time>2026-08-12T18:33:41.000Z</time>
      </trkpt>
      <trkpt lat="45.21452" lon="5.73488">
        <ele>754.59997558594</ele>
        <time>2026-08-12T18:33:42.000Z</time>
      </trkpt>
      <trkpt lat="45.21451" lon="5.73487">
        <ele>754.20001220703</ele>
        <time>2026-08-12T18:33:43.000Z</time>
      </trkpt>
      <trkpt lat="45.21451" lon="5.73487">
        <ele>754</ele>
        <time>2026-08-12T18:33:44.000Z</time>
      </trkpt>
      <trkpt lat="45.21449" lon="5.73485">
        <ele>753.59997558594</ele>
        <time>2026-08-12T18:33:45.000Z</time>
      </trkpt>
      <trkpt lat="45.21448" lon="5.73483">
        <ele>753.40002441406</ele>
        <time>2026-08-12T18:33:46.000Z</time>
      </trkpt>
      <trkpt lat="45.21447" lon="5.73482">
        <ele>753</ele>
        <time>2026-08-12T18:33:47.000Z</time>
      </trkpt>
      <trkpt lat="45.21446" lon="5.7348">
        <ele>752.79998779297</ele>
        <time>2026-08-12T18:33:48.000Z</time>
      </trkpt>
      <trkpt lat="45.21445" lon="5.73479">
        <ele>752.59997558594</ele>
        <time>2026-08-12T18:33:49.000Z</time>
      </trkpt>
      <trkpt lat="45.21444" lon="5.73477">
        <ele>752.40002441406</ele>
        <time>2026-08-12T18:33:50.000Z</time>
      </trkpt>
      <trkpt lat="45.21443" lon="5.73475">
        <ele>752.20001220703</ele>
        <time>2026-08-12T18:33:51.000Z</time>
      </trkpt>
      <trkpt lat="45.21443" lon="5.73473">
        <ele>752</ele>
        <time>2026-08-12T18:33:52.000Z</time>
      </trkpt>
      <trkpt lat="45.21441" lon="5.73471">
        <ele>751.79998779297</ele>
        <time>2026-08-12T18:33:53.000Z</time>
      </trkpt>
      <trkpt lat="45.21441" lon="5.73469">
        <ele>751.40002441406</ele>
        <time>2026-08-12T18:33:54.000Z</time>
      </trkpt>
      <trkpt lat="45.21439" lon="5.73467">
        <ele>751.20001220703</ele>
        <time>2026-08-12T18:33:55.000Z</time>
      </trkpt>
      <trkpt lat="45.21439" lon="5.73465">
        <ele>750.79998779297</ele>
        <time>2026-08-12T18:33:56.000Z</time>
      </trkpt>
      <trkpt lat="45.21438" lon="5.73464">
        <ele>750.20001220703</ele>
        <time>2026-08-12T18:33:57.000Z</time>
      </trkpt>
      <trkpt lat="45.21437" lon="5.73461">
        <ele>750</ele>
        <time>2026-08-12T18:33:58.000Z</time>
      </trkpt>
      <trkpt lat="45.21437" lon="5.73459">
        <ele>749.79998779297</ele>
        <time>2026-08-12T18:33:59.000Z</time>
      </trkpt>
      <trkpt lat="45.21436" lon="5.73457">
        <ele>749.59997558594</ele>
        <time>2026-08-12T18:34:00.000Z</time>
      </trkpt>
      <trkpt lat="45.21436" lon="5.73455">
        <ele>749.40002441406</ele>
        <time>2026-08-12T18:34:01.000Z</time>
      </trkpt>
      <trkpt lat="45.21435" lon="5.73454">
        <ele>749.40002441406</ele>
        <time>2026-08-12T18:34:02.000Z</time>
      </trkpt>
      <trkpt lat="45.21434" lon="5.73453">
        <ele>749</ele>
        <time>2026-08-12T18:34:03.000Z</time>
      </trkpt>
      <trkpt lat="45.21433" lon="5.73452">
        <ele>749</ele>
        <time>2026-08-12T18:34:04.000Z</time>
      </trkpt>
      <trkpt lat="45.21432" lon="5.7345">
        <ele>748.79998779297</ele>
        <time>2026-08-12T18:34:05.000Z</time>
      </trkpt>
      <trkpt lat="45.21431" lon="5.73448">
        <ele>748.40002441406</ele>
        <time>2026-08-12T18:34:06.000Z</time>
      </trkpt>
      <trkpt lat="45.21431" lon="5.73447">
        <ele>747.79998779297</ele>
        <time>2026-08-12T18:34:07.000Z</time>
      </trkpt>
      <trkpt lat="45.2143" lon="5.73446">
        <ele>747</ele>
        <time>2026-08-12T18:34:08.000Z</time>
      </trkpt>
      <trkpt lat="45.21429" lon="5.73446">
        <ele>746.59997558594</ele>
        <time>2026-08-12T18:34:09.000Z</time>
      </trkpt>
      <trkpt lat="45.21428" lon="5.73444">
        <ele>746.20001220703</ele>
        <time>2026-08-12T18:34:10.000Z</time>
      </trkpt>
      <trkpt lat="45.21427" lon="5.73443">
        <ele>745.79998779297</ele>
        <time>2026-08-12T18:34:11.000Z</time>
      </trkpt>
      <trkpt lat="45.21426" lon="5.73441">
        <ele>745.79998779297</ele>
        <time>2026-08-12T18:34:12.000Z</time>
      </trkpt>
      <trkpt lat="45.21425" lon="5.73439">
        <ele>745.59997558594</ele>
        <time>2026-08-12T18:34:13.000Z</time>
      </trkpt>
      <trkpt lat="45.21424" lon="5.73438">
        <ele>745.40002441406</ele>
        <time>2026-08-12T18:34:14.000Z</time>
      </trkpt>
      <trkpt lat="45.21422" lon="5.73436">
        <ele>745.20001220703</ele>
        <time>2026-08-12T18:34:15.000Z</time>
      </trkpt>
      <trkpt lat="45.21422" lon="5.73434">
        <ele>745</ele>
        <time>2026-08-12T18:34:16.000Z</time>
      </trkpt>
      <trkpt lat="45.21421" lon="5.73432">
        <ele>744.79998779297</ele>
        <time>2026-08-12T18:34:17.000Z</time>
      </trkpt>
      <trkpt lat="45.2142" lon="5.73431">
        <ele>744.59997558594</ele>
        <time>2026-08-12T18:34:18.000Z</time>
      </trkpt>
      <trkpt lat="45.21419" lon="5.73428">
        <ele>744.40002441406</ele>
        <time>2026-08-12T18:34:19.000Z</time>
      </trkpt>
      <trkpt lat="45.21419" lon="5.73427">
        <ele>744.20001220703</ele>
        <time>2026-08-12T18:34:20.000Z</time>
      </trkpt>
      <trkpt lat="45.21418" lon="5.73426">
        <ele>744</ele>
        <time>2026-08-12T18:34:21.000Z</time>
      </trkpt>
      <trkpt lat="45.21417" lon="5.73424">
        <ele>743.59997558594</ele>
        <time>2026-08-12T18:34:22.000Z</time>
      </trkpt>
      <trkpt lat="45.21416" lon="5.73422">
        <ele>743.20001220703</ele>
        <time>2026-08-12T18:34:23.000Z</time>
      </trkpt>
      <trkpt lat="45.21415" lon="5.7342">
        <ele>743</ele>
        <time>2026-08-12T18:34:24.000Z</time>
      </trkpt>
      <trkpt lat="45.21413" lon="5.73418">
        <ele>742.59997558594</ele>
        <time>2026-08-12T18:34:25.000Z</time>
      </trkpt>
      <trkpt lat="45.21412" lon="5.73416">
        <ele>742.40002441406</ele>
        <time>2026-08-12T18:34:26.000Z</time>
      </trkpt>
      <trkpt lat="45.2141" lon="5.73415">
        <ele>742</ele>
        <time>2026-08-12T18:34:27.000Z</time>
      </trkpt>
      <trkpt lat="45.21409" lon="5.73412">
        <ele>741.79998779297</ele>
        <time>2026-08-12T18:34:28.000Z</time>
      </trkpt>
      <trkpt lat="45.21408" lon="5.7341">
        <ele>741.40002441406</ele>
        <time>2026-08-12T18:34:29.000Z</time>
      </trkpt>
      <trkpt lat="45.21406" lon="5.73408">
        <ele>740.79998779297</ele>
        <time>2026-08-12T18:34:30.000Z</time>
      </trkpt>
      <trkpt lat="45.21405" lon="5.73404">
        <ele>740.20001220703</ele>
        <time>2026-08-12T18:34:31.000Z</time>
      </trkpt>
      <trkpt lat="45.21405" lon="5.73401">
        <ele>739.79998779297</ele>
        <time>2026-08-12T18:34:32.000Z</time>
      </trkpt>
      <trkpt lat="45.21404" lon="5.73398">
        <ele>739.59997558594</ele>
        <time>2026-08-12T18:34:33.000Z</time>
      </trkpt>
      <trkpt lat="45.21404" lon="5.73395">
        <ele>739.40002441406</ele>
        <time>2026-08-12T18:34:34.000Z</time>
      </trkpt>
      <trkpt lat="45.21404" lon="5.73392">
        <ele>739.20001220703</ele>
        <time>2026-08-12T18:34:35.000Z</time>
      </trkpt>
      <trkpt lat="45.21403" lon="5.73389">
        <ele>738.79998779297</ele>
        <time>2026-08-12T18:34:36.000Z</time>
      </trkpt>
      <trkpt lat="45.21403" lon="5.73386">
        <ele>738.59997558594</ele>
        <time>2026-08-12T18:34:37.000Z</time>
      </trkpt>
      <trkpt lat="45.21402" lon="5.73385">
        <ele>738.40002441406</ele>
        <time>2026-08-12T18:34:38.000Z</time>
      </trkpt>
      <trkpt lat="45.21401" lon="5.73384">
        <ele>738</ele>
        <time>2026-08-12T18:34:39.000Z</time>
      </trkpt>
      <trkpt lat="45.214" lon="5.73383">
        <ele>738</ele>
        <time>2026-08-12T18:34:40.000Z</time>
      </trkpt>
      <trkpt lat="45.21399" lon="5.73383">
        <ele>737.79998779297</ele>
        <time>2026-08-12T18:34:41.000Z</time>
      </trkpt>
      <trkpt lat="45.21398" lon="5.73383">
        <ele>737.79998779297</ele>
        <time>2026-08-12T18:34:42.000Z</time>
      </trkpt>
      <trkpt lat="45.21397" lon="5.73383">
        <ele>737.59997558594</ele>
        <time>2026-08-12T18:34:43.000Z</time>
      </trkpt>
      <trkpt lat="45.21396" lon="5.73382">
        <ele>737.40002441406</ele>
        <time>2026-08-12T18:34:44.000Z</time>
      </trkpt>
      <trkpt lat="45.21394" lon="5.73381">
        <ele>737</ele>
        <time>2026-08-12T18:34:45.000Z</time>
      </trkpt>
      <trkpt lat="45.21393" lon="5.73381">
        <ele>736.59997558594</ele>
        <time>2026-08-12T18:34:46.000Z</time>
      </trkpt>
      <trkpt lat="45.21392" lon="5.7338">
        <ele>736.20001220703</ele>
        <time>2026-08-12T18:34:47.000Z</time>
      </trkpt>
      <trkpt lat="45.2139" lon="5.73378">
        <ele>735.59997558594</ele>
        <time>2026-08-12T18:34:48.000Z</time>
      </trkpt>
      <trkpt lat="45.21389" lon="5.73376">
        <ele>735.40002441406</ele>
        <time>2026-08-12T18:34:49.000Z</time>
      </trkpt>
      <trkpt lat="45.21388" lon="5.73374">
        <ele>735.20001220703</ele>
        <time>2026-08-12T18:34:50.000Z</time>
      </trkpt>
      <trkpt lat="45.21387" lon="5.73372">
        <ele>735</ele>
        <time>2026-08-12T18:34:51.000Z</time>
      </trkpt>
      <trkpt lat="45.21386" lon="5.7337">
        <ele>734.79998779297</ele>
        <time>2026-08-12T18:34:52.000Z</time>
      </trkpt>
      <trkpt lat="45.21385" lon="5.73368">
        <ele>734.59997558594</ele>
        <time>2026-08-12T18:34:53.000Z</time>
      </trkpt>
      <trkpt lat="45.21384" lon="5.73367">
        <ele>734.59997558594</ele>
        <time>2026-08-12T18:34:54.000Z</time>
      </trkpt>
      <trkpt lat="45.21383" lon="5.73367">
        <ele>734.40002441406</ele>
        <time>2026-08-12T18:34:55.000Z</time>
      </trkpt>
      <trkpt lat="45.21382" lon="5.73366">
        <ele>734</ele>
        <time>2026-08-12T18:34:56.000Z</time>
      </trkpt>
      <trkpt lat="45.2138" lon="5.73365">
        <ele>733.40002441406</ele>
        <time>2026-08-12T18:34:57.000Z</time>
      </trkpt>
      <trkpt lat="45.21379" lon="5.73363">
        <ele>732.79998779297</ele>
        <time>2026-08-12T18:34:58.000Z</time>
      </trkpt>
      <trkpt lat="45.21377" lon="5.73362">
        <ele>732</ele>
        <time>2026-08-12T18:34:59.000Z</time>
      </trkpt>
      <trkpt lat="45.21375" lon="5.7336">
        <ele>732</ele>
        <time>2026-08-12T18:35:00.000Z</time>
      </trkpt>
      <trkpt lat="45.21373" lon="5.73359">
        <ele>731.40002441406</ele>
        <time>2026-08-12T18:35:01.000Z</time>
      </trkpt>
      <trkpt lat="45.21372" lon="5.73356">
        <ele>731.40002441406</ele>
        <time>2026-08-12T18:35:02.000Z</time>
      </trkpt>
      <trkpt lat="45.21371" lon="5.73352">
        <ele>731</ele>
        <time>2026-08-12T18:35:03.000Z</time>
      </trkpt>
      <trkpt lat="45.21371" lon="5.73348">
        <ele>730.79998779297</ele>
        <time>2026-08-12T18:35:04.000Z</time>
      </trkpt>
      <trkpt lat="45.21371" lon="5.73346">
        <ele>730.59997558594</ele>
        <time>2026-08-12T18:35:05.000Z</time>
      </trkpt>
      <trkpt lat="45.21371" lon="5.73344">
        <ele>730.59997558594</ele>
        <time>2026-08-12T18:35:06.000Z</time>
      </trkpt>
      <trkpt lat="45.2137" lon="5.73342">
        <ele>730.59997558594</ele>
        <time>2026-08-12T18:35:07.000Z</time>
      </trkpt>
      <trkpt lat="45.2137" lon="5.73342">
        <ele>730.59997558594</ele>
        <time>2026-08-12T18:35:08.000Z</time>
      </trkpt>
      <trkpt lat="45.21369" lon="5.73342">
        <ele>730.40002441406</ele>
        <time>2026-08-12T18:35:09.000Z</time>
      </trkpt>
      <trkpt lat="45.21368" lon="5.73342">
        <ele>730.40002441406</ele>
        <time>2026-08-12T18:35:10.000Z</time>
      </trkpt>
      <trkpt lat="45.21368" lon="5.73341">
        <ele>730.20001220703</ele>
        <time>2026-08-12T18:35:11.000Z</time>
      </trkpt>
      <trkpt lat="45.21366" lon="5.73339">
        <ele>730</ele>
        <time>2026-08-12T18:35:12.000Z</time>
      </trkpt>
      <trkpt lat="45.21365" lon="5.73338">
        <ele>729.79998779297</ele>
        <time>2026-08-12T18:35:13.000Z</time>
      </trkpt>
      <trkpt lat="45.21364" lon="5.73337">
        <ele>729.40002441406</ele>
        <time>2026-08-12T18:35:14.000Z</time>
      </trkpt>
      <trkpt lat="45.21363" lon="5.73335">
        <ele>729</ele>
        <time>2026-08-12T18:35:15.000Z</time>
      </trkpt>
      <trkpt lat="45.21361" lon="5.73334">
        <ele>728.40002441406</ele>
        <time>2026-08-12T18:35:16.000Z</time>
      </trkpt>
      <trkpt lat="45.2136" lon="5.73332">
        <ele>728</ele>
        <time>2026-08-12T18:35:17.000Z</time>
      </trkpt>
      <trkpt lat="45.21359" lon="5.73331">
        <ele>727.59997558594</ele>
        <time>2026-08-12T18:35:18.000Z</time>
      </trkpt>
      <trkpt lat="45.21358" lon="5.7333">
        <ele>727.20001220703</ele>
        <time>2026-08-12T18:35:19.000Z</time>
      </trkpt>
      <trkpt lat="45.21357" lon="5.73328">
        <ele>726.59997558594</ele>
        <time>2026-08-12T18:35:20.000Z</time>
      </trkpt>
      <trkpt lat="45.21355" lon="5.73326">
        <ele>726.20001220703</ele>
        <time>2026-08-12T18:35:21.000Z</time>
      </trkpt>
      <trkpt lat="45.21353" lon="5.73324">
        <ele>725.79998779297</ele>
        <time>2026-08-12T18:35:22.000Z</time>
      </trkpt>
      <trkpt lat="45.21352" lon="5.73323">
        <ele>725.59997558594</ele>
        <time>2026-08-12T18:35:23.000Z</time>
      </trkpt>
      <trkpt lat="45.21351" lon="5.73322">
        <ele>725.59997558594</ele>
        <time>2026-08-12T18:35:24.000Z</time>
      </trkpt>
      <trkpt lat="45.21349" lon="5.73321">
        <ele>725.40002441406</ele>
        <time>2026-08-12T18:35:25.000Z</time>
      </trkpt>
      <trkpt lat="45.21348" lon="5.7332">
        <ele>725.20001220703</ele>
        <time>2026-08-12T18:35:26.000Z</time>
      </trkpt>
      <trkpt lat="45.21347" lon="5.73319">
        <ele>724.79998779297</ele>
        <time>2026-08-12T18:35:27.000Z</time>
      </trkpt>
      <trkpt lat="45.21345" lon="5.73318">
        <ele>724.40002441406</ele>
        <time>2026-08-12T18:35:28.000Z</time>
      </trkpt>
      <trkpt lat="45.21344" lon="5.73317">
        <ele>724</ele>
        <time>2026-08-12T18:35:29.000Z</time>
      </trkpt>
      <trkpt lat="45.21342" lon="5.73316">
        <ele>723.59997558594</ele>
        <time>2026-08-12T18:35:30.000Z</time>
      </trkpt>
      <trkpt lat="45.2134" lon="5.73315">
        <ele>723.40002441406</ele>
        <time>2026-08-12T18:35:31.000Z</time>
      </trkpt>
      <trkpt lat="45.21338" lon="5.73313">
        <ele>723</ele>
        <time>2026-08-12T18:35:32.000Z</time>
      </trkpt>
      <trkpt lat="45.21336" lon="5.73312">
        <ele>722.20001220703</ele>
        <time>2026-08-12T18:35:33.000Z</time>
      </trkpt>
      <trkpt lat="45.21335" lon="5.73311">
        <ele>722</ele>
        <time>2026-08-12T18:35:34.000Z</time>
      </trkpt>
      <trkpt lat="45.21334" lon="5.73309">
        <ele>721.59997558594</ele>
        <time>2026-08-12T18:35:35.000Z</time>
      </trkpt>
      <trkpt lat="45.21333" lon="5.73306">
        <ele>721.40002441406</ele>
        <time>2026-08-12T18:35:36.000Z</time>
      </trkpt>
      <trkpt lat="45.21333" lon="5.73304">
        <ele>721.40002441406</ele>
        <time>2026-08-12T18:35:37.000Z</time>
      </trkpt>
      <trkpt lat="45.21333" lon="5.73301">
        <ele>721.40002441406</ele>
        <time>2026-08-12T18:35:38.000Z</time>
      </trkpt>
      <trkpt lat="45.21333" lon="5.73297">
        <ele>721.40002441406</ele>
        <time>2026-08-12T18:35:39.000Z</time>
      </trkpt>
      <trkpt lat="45.21333" lon="5.73294">
        <ele>721.40002441406</ele>
        <time>2026-08-12T18:35:40.000Z</time>
      </trkpt>
      <trkpt lat="45.21332" lon="5.73292">
        <ele>721.40002441406</ele>
        <time>2026-08-12T18:35:41.000Z</time>
      </trkpt>
      <trkpt lat="45.21332" lon="5.73291">
        <ele>721.40002441406</ele>
        <time>2026-08-12T18:35:42.000Z</time>
      </trkpt>
      <trkpt lat="45.21332" lon="5.73291">
        <ele>721.20001220703</ele>
        <time>2026-08-12T18:35:43.000Z</time>
      </trkpt>
      <trkpt lat="45.21331" lon="5.73291">
        <ele>721.20001220703</ele>
        <time>2026-08-12T18:35:44.000Z</time>
      </trkpt>
      <trkpt lat="45.2133" lon="5.73291">
        <ele>721.20001220703</ele>
        <time>2026-08-12T18:35:45.000Z</time>
      </trkpt>
      <trkpt lat="45.21329" lon="5.73291">
        <ele>721</ele>
        <time>2026-08-12T18:35:46.000Z</time>
      </trkpt>
      <trkpt lat="45.21327" lon="5.73291">
        <ele>720.79998779297</ele>
        <time>2026-08-12T18:35:47.000Z</time>
      </trkpt>
      <trkpt lat="45.21326" lon="5.73292">
        <ele>720.40002441406</ele>
        <time>2026-08-12T18:35:48.000Z</time>
      </trkpt>
      <trkpt lat="45.21324" lon="5.73292">
        <ele>719.79998779297</ele>
        <time>2026-08-12T18:35:49.000Z</time>
      </trkpt>
      <trkpt lat="45.21322" lon="5.73293">
        <ele>719.20001220703</ele>
        <time>2026-08-12T18:35:50.000Z</time>
      </trkpt>
      <trkpt lat="45.2132" lon="5.73293">
        <ele>718.59997558594</ele>
        <time>2026-08-12T18:35:51.000Z</time>
      </trkpt>
      <trkpt lat="45.21318" lon="5.73294">
        <ele>718.20001220703</ele>
        <time>2026-08-12T18:35:52.000Z</time>
      </trkpt>
      <trkpt lat="45.21317" lon="5.73296">
        <ele>717.79998779297</ele>
        <time>2026-08-12T18:35:53.000Z</time>
      </trkpt>
      <trkpt lat="45.21315" lon="5.73297">
        <ele>717.40002441406</ele>
        <time>2026-08-12T18:35:54.000Z</time>
      </trkpt>
      <trkpt lat="45.21314" lon="5.73299">
        <ele>717</ele>
        <time>2026-08-12T18:35:55.000Z</time>
      </trkpt>
      <trkpt lat="45.21313" lon="5.73301">
        <ele>716.59997558594</ele>
        <time>2026-08-12T18:35:56.000Z</time>
      </trkpt>
      <trkpt lat="45.21311" lon="5.73302">
        <ele>716</ele>
        <time>2026-08-12T18:35:57.000Z</time>
      </trkpt>
      <trkpt lat="45.2131" lon="5.73303">
        <ele>715.79998779297</ele>
        <time>2026-08-12T18:35:58.000Z</time>
      </trkpt>
      <trkpt lat="45.21308" lon="5.73304">
        <ele>715.40002441406</ele>
        <time>2026-08-12T18:35:59.000Z</time>
      </trkpt>
      <trkpt lat="45.21306" lon="5.73303">
        <ele>714.79998779297</ele>
        <time>2026-08-12T18:36:00.000Z</time>
      </trkpt>
      <trkpt lat="45.21304" lon="5.73303">
        <ele>714.59997558594</ele>
        <time>2026-08-12T18:36:01.000Z</time>
      </trkpt>
      <trkpt lat="45.21301" lon="5.73302">
        <ele>714.40002441406</ele>
        <time>2026-08-12T18:36:02.000Z</time>
      </trkpt>
      <trkpt lat="45.213" lon="5.733">
        <ele>714</ele>
        <time>2026-08-12T18:36:03.000Z</time>
      </trkpt>
      <trkpt lat="45.21299" lon="5.73296">
        <ele>713.79998779297</ele>
        <time>2026-08-12T18:36:04.000Z</time>
      </trkpt>
      <trkpt lat="45.21298" lon="5.73293">
        <ele>713.59997558594</ele>
        <time>2026-08-12T18:36:05.000Z</time>
      </trkpt>
      <trkpt lat="45.21297" lon="5.73291">
        <ele>713.20001220703</ele>
        <time>2026-08-12T18:36:06.000Z</time>
      </trkpt>
      <trkpt lat="45.21297" lon="5.73289">
        <ele>713.20001220703</ele>
        <time>2026-08-12T18:36:07.000Z</time>
      </trkpt>
      <trkpt lat="45.21296" lon="5.73286">
        <ele>713</ele>
        <time>2026-08-12T18:36:08.000Z</time>
      </trkpt>
      <trkpt lat="45.21296" lon="5.73283">
        <ele>712.79998779297</ele>
        <time>2026-08-12T18:36:09.000Z</time>
      </trkpt>
      <trkpt lat="45.21295" lon="5.73281">
        <ele>712.20001220703</ele>
        <time>2026-08-12T18:36:10.000Z</time>
      </trkpt>
      <trkpt lat="45.21295" lon="5.73281">
        <ele>711.79998779297</ele>
        <time>2026-08-12T18:36:11.000Z</time>
      </trkpt>
      <trkpt lat="45.21294" lon="5.7328">
        <ele>711.40002441406</ele>
        <time>2026-08-12T18:36:12.000Z</time>
      </trkpt>
      <trkpt lat="45.21293" lon="5.7328">
        <ele>711.20001220703</ele>
        <time>2026-08-12T18:36:13.000Z</time>
      </trkpt>
      <trkpt lat="45.21292" lon="5.7328">
        <ele>711.20001220703</ele>
        <time>2026-08-12T18:36:14.000Z</time>
      </trkpt>
      <trkpt lat="45.21291" lon="5.7328">
        <ele>710.79998779297</ele>
        <time>2026-08-12T18:36:15.000Z</time>
      </trkpt>
      <trkpt lat="45.21289" lon="5.73279">
        <ele>710.59997558594</ele>
        <time>2026-08-12T18:36:16.000Z</time>
      </trkpt>
      <trkpt lat="45.21288" lon="5.73278">
        <ele>710</ele>
        <time>2026-08-12T18:36:17.000Z</time>
      </trkpt>
      <trkpt lat="45.21286" lon="5.73278">
        <ele>709.59997558594</ele>
        <time>2026-08-12T18:36:18.000Z</time>
      </trkpt>
      <trkpt lat="45.21285" lon="5.73276">
        <ele>709.20001220703</ele>
        <time>2026-08-12T18:36:19.000Z</time>
      </trkpt>
      <trkpt lat="45.21284" lon="5.73274">
        <ele>708.79998779297</ele>
        <time>2026-08-12T18:36:20.000Z</time>
      </trkpt>
      <trkpt lat="45.21282" lon="5.73273">
        <ele>708.59997558594</ele>
        <time>2026-08-12T18:36:21.000Z</time>
      </trkpt>
      <trkpt lat="45.21281" lon="5.73273">
        <ele>708.40002441406</ele>
        <time>2026-08-12T18:36:22.000Z</time>
      </trkpt>
      <trkpt lat="45.21279" lon="5.73272">
        <ele>708.20001220703</ele>
        <time>2026-08-12T18:36:23.000Z</time>
      </trkpt>
      <trkpt lat="45.21278" lon="5.73272">
        <ele>708</ele>
        <time>2026-08-12T18:36:24.000Z</time>
      </trkpt>
      <trkpt lat="45.21276" lon="5.73271">
        <ele>708</ele>
        <time>2026-08-12T18:36:25.000Z</time>
      </trkpt>
      <trkpt lat="45.21274" lon="5.7327">
        <ele>707.59997558594</ele>
        <time>2026-08-12T18:36:26.000Z</time>
      </trkpt>
      <trkpt lat="45.21273" lon="5.7327">
        <ele>707.40002441406</ele>
        <time>2026-08-12T18:36:27.000Z</time>
      </trkpt>
      <trkpt lat="45.21271" lon="5.73269">
        <ele>707</ele>
        <time>2026-08-12T18:36:28.000Z</time>
      </trkpt>
      <trkpt lat="45.21269" lon="5.73269">
        <ele>706.79998779297</ele>
        <time>2026-08-12T18:36:29.000Z</time>
      </trkpt>
      <trkpt lat="45.21267" lon="5.73269">
        <ele>706.40002441406</ele>
        <time>2026-08-12T18:36:30.000Z</time>
      </trkpt>
      <trkpt lat="45.21266" lon="5.73269">
        <ele>705.79998779297</ele>
        <time>2026-08-12T18:36:31.000Z</time>
      </trkpt>
      <trkpt lat="45.21264" lon="5.73267">
        <ele>705.59997558594</ele>
        <time>2026-08-12T18:36:32.000Z</time>
      </trkpt>
      <trkpt lat="45.21263" lon="5.73266">
        <ele>705.20001220703</ele>
        <time>2026-08-12T18:36:33.000Z</time>
      </trkpt>
      <trkpt lat="45.21261" lon="5.73264">
        <ele>705</ele>
        <time>2026-08-12T18:36:34.000Z</time>
      </trkpt>
      <trkpt lat="45.2126" lon="5.73261">
        <ele>704.79998779297</ele>
        <time>2026-08-12T18:36:35.000Z</time>
      </trkpt>
      <trkpt lat="45.21259" lon="5.73258">
        <ele>704.59997558594</ele>
        <time>2026-08-12T18:36:36.000Z</time>
      </trkpt>
      <trkpt lat="45.21258" lon="5.73255">
        <ele>704.40002441406</ele>
        <time>2026-08-12T18:36:37.000Z</time>
      </trkpt>
      <trkpt lat="45.21257" lon="5.73253">
        <ele>704</ele>
        <time>2026-08-12T18:36:38.000Z</time>
      </trkpt>
      <trkpt lat="45.21256" lon="5.73251">
        <ele>703.59997558594</ele>
        <time>2026-08-12T18:36:39.000Z</time>
      </trkpt>
      <trkpt lat="45.21255" lon="5.73249">
        <ele>703.40002441406</ele>
        <time>2026-08-12T18:36:40.000Z</time>
      </trkpt>
      <trkpt lat="45.21254" lon="5.73247">
        <ele>703.20001220703</ele>
        <time>2026-08-12T18:36:41.000Z</time>
      </trkpt>
      <trkpt lat="45.21253" lon="5.73244">
        <ele>702.79998779297</ele>
        <time>2026-08-12T18:36:42.000Z</time>
      </trkpt>
      <trkpt lat="45.21252" lon="5.73242">
        <ele>702.59997558594</ele>
        <time>2026-08-12T18:36:43.000Z</time>
      </trkpt>
      <trkpt lat="45.21251" lon="5.7324">
        <ele>702.20001220703</ele>
        <time>2026-08-12T18:36:44.000Z</time>
      </trkpt>
      <trkpt lat="45.2125" lon="5.73238">
        <ele>702</ele>
        <time>2026-08-12T18:36:45.000Z</time>
      </trkpt>
      <trkpt lat="45.21248" lon="5.73237">
        <ele>701.59997558594</ele>
        <time>2026-08-12T18:36:46.000Z</time>
      </trkpt>
      <trkpt lat="45.21247" lon="5.73235">
        <ele>701.40002441406</ele>
        <time>2026-08-12T18:36:47.000Z</time>
      </trkpt>
      <trkpt lat="45.21246" lon="5.73234">
        <ele>701</ele>
        <time>2026-08-12T18:36:48.000Z</time>
      </trkpt>
      <trkpt lat="45.21244" lon="5.73233">
        <ele>700.40002441406</ele>
        <time>2026-08-12T18:36:49.000Z</time>
      </trkpt>
      <trkpt lat="45.21243" lon="5.73232">
        <ele>699.59997558594</ele>
        <time>2026-08-12T18:36:50.000Z</time>
      </trkpt>
      <trkpt lat="45.21243" lon="5.73231">
        <ele>698.79998779297</ele>
        <time>2026-08-12T18:36:51.000Z</time>
      </trkpt>
      <trkpt lat="45.21242" lon="5.73231">
        <ele>698.40002441406</ele>
        <time>2026-08-12T18:36:52.000Z</time>
      </trkpt>
      <trkpt lat="45.21241" lon="5.7323">
        <ele>698.20001220703</ele>
        <time>2026-08-12T18:36:53.000Z</time>
      </trkpt>
      <trkpt lat="45.21239" lon="5.7323">
        <ele>697.79998779297</ele>
        <time>2026-08-12T18:36:54.000Z</time>
      </trkpt>
      <trkpt lat="45.21238" lon="5.73229">
        <ele>697.79998779297</ele>
        <time>2026-08-12T18:36:55.000Z</time>
      </trkpt>
      <trkpt lat="45.21236" lon="5.73228">
        <ele>697.40002441406</ele>
        <time>2026-08-12T18:36:56.000Z</time>
      </trkpt>
      <trkpt lat="45.21235" lon="5.73227">
        <ele>697</ele>
        <time>2026-08-12T18:36:57.000Z</time>
      </trkpt>
      <trkpt lat="45.21233" lon="5.73227">
        <ele>696.79998779297</ele>
        <time>2026-08-12T18:36:58.000Z</time>
      </trkpt>
      <trkpt lat="45.21231" lon="5.73227">
        <ele>696.40002441406</ele>
        <time>2026-08-12T18:36:59.000Z</time>
      </trkpt>
      <trkpt lat="45.2123" lon="5.73226">
        <ele>696.40002441406</ele>
        <time>2026-08-12T18:37:00.000Z</time>
      </trkpt>
      <trkpt lat="45.21228" lon="5.73224">
        <ele>696</ele>
        <time>2026-08-12T18:37:01.000Z</time>
      </trkpt>
      <trkpt lat="45.21227" lon="5.73223">
        <ele>695.59997558594</ele>
        <time>2026-08-12T18:37:02.000Z</time>
      </trkpt>
      <trkpt lat="45.21225" lon="5.73222">
        <ele>695.20001220703</ele>
        <time>2026-08-12T18:37:03.000Z</time>
      </trkpt>
      <trkpt lat="45.21223" lon="5.7322">
        <ele>694.79998779297</ele>
        <time>2026-08-12T18:37:04.000Z</time>
      </trkpt>
      <trkpt lat="45.21221" lon="5.73218">
        <ele>694.59997558594</ele>
        <time>2026-08-12T18:37:05.000Z</time>
      </trkpt>
      <trkpt lat="45.2122" lon="5.73216">
        <ele>694.20001220703</ele>
        <time>2026-08-12T18:37:06.000Z</time>
      </trkpt>
      <trkpt lat="45.21218" lon="5.73213">
        <ele>693.79998779297</ele>
        <time>2026-08-12T18:37:07.000Z</time>
      </trkpt>
      <trkpt lat="45.21218" lon="5.73211">
        <ele>693.59997558594</ele>
        <time>2026-08-12T18:37:08.000Z</time>
      </trkpt>
      <trkpt lat="45.21217" lon="5.73208">
        <ele>693.20001220703</ele>
        <time>2026-08-12T18:37:09.000Z</time>
      </trkpt>
      <trkpt lat="45.21215" lon="5.73207">
        <ele>692.79998779297</ele>
        <time>2026-08-12T18:37:10.000Z</time>
      </trkpt>
      <trkpt lat="45.21214" lon="5.73206">
        <ele>692.59997558594</ele>
        <time>2026-08-12T18:37:11.000Z</time>
      </trkpt>
      <trkpt lat="45.21213" lon="5.73205">
        <ele>692.20001220703</ele>
        <time>2026-08-12T18:37:12.000Z</time>
      </trkpt>
      <trkpt lat="45.21211" lon="5.73205">
        <ele>692</ele>
        <time>2026-08-12T18:37:13.000Z</time>
      </trkpt>
      <trkpt lat="45.21209" lon="5.73203">
        <ele>691.79998779297</ele>
        <time>2026-08-12T18:37:14.000Z</time>
      </trkpt>
      <trkpt lat="45.21207" lon="5.73202">
        <ele>691.40002441406</ele>
        <time>2026-08-12T18:37:15.000Z</time>
      </trkpt>
      <trkpt lat="45.21205" lon="5.732">
        <ele>691</ele>
        <time>2026-08-12T18:37:16.000Z</time>
      </trkpt>
      <trkpt lat="45.21204" lon="5.73199">
        <ele>690.59997558594</ele>
        <time>2026-08-12T18:37:17.000Z</time>
      </trkpt>
      <trkpt lat="45.21202" lon="5.73197">
        <ele>690.20001220703</ele>
        <time>2026-08-12T18:37:18.000Z</time>
      </trkpt>
      <trkpt lat="45.21201" lon="5.73195">
        <ele>689.59997558594</ele>
        <time>2026-08-12T18:37:19.000Z</time>
      </trkpt>
      <trkpt lat="45.21199" lon="5.73193">
        <ele>689</ele>
        <time>2026-08-12T18:37:20.000Z</time>
      </trkpt>
      <trkpt lat="45.21198" lon="5.73191">
        <ele>688.79998779297</ele>
        <time>2026-08-12T18:37:21.000Z</time>
      </trkpt>
      <trkpt lat="45.21196" lon="5.73188">
        <ele>688</ele>
        <time>2026-08-12T18:37:22.000Z</time>
      </trkpt>
      <trkpt lat="45.21195" lon="5.73186">
        <ele>687.59997558594</ele>
        <time>2026-08-12T18:37:23.000Z</time>
      </trkpt>
      <trkpt lat="45.21194" lon="5.73183">
        <ele>687.20001220703</ele>
        <time>2026-08-12T18:37:24.000Z</time>
      </trkpt>
      <trkpt lat="45.21192" lon="5.73181">
        <ele>686.79998779297</ele>
        <time>2026-08-12T18:37:25.000Z</time>
      </trkpt>
      <trkpt lat="45.21191" lon="5.73179">
        <ele>686.40002441406</ele>
        <time>2026-08-12T18:37:26.000Z</time>
      </trkpt>
      <trkpt lat="45.2119" lon="5.73177">
        <ele>686</ele>
        <time>2026-08-12T18:37:27.000Z</time>
      </trkpt>
      <trkpt lat="45.21188" lon="5.73175">
        <ele>685.79998779297</ele>
        <time>2026-08-12T18:37:28.000Z</time>
      </trkpt>
      <trkpt lat="45.21186" lon="5.73173">
        <ele>685.59997558594</ele>
        <time>2026-08-12T18:37:29.000Z</time>
      </trkpt>
      <trkpt lat="45.21184" lon="5.73171">
        <ele>685.20001220703</ele>
        <time>2026-08-12T18:37:30.000Z</time>
      </trkpt>
      <trkpt lat="45.21183" lon="5.73168">
        <ele>684.40002441406</ele>
        <time>2026-08-12T18:37:31.000Z</time>
      </trkpt>
      <trkpt lat="45.21182" lon="5.73166">
        <ele>684</ele>
        <time>2026-08-12T18:37:32.000Z</time>
      </trkpt>
      <trkpt lat="45.2118" lon="5.73165">
        <ele>683.79998779297</ele>
        <time>2026-08-12T18:37:33.000Z</time>
      </trkpt>
      <trkpt lat="45.21179" lon="5.73163">
        <ele>683.40002441406</ele>
        <time>2026-08-12T18:37:34.000Z</time>
      </trkpt>
      <trkpt lat="45.21178" lon="5.73161">
        <ele>683</ele>
        <time>2026-08-12T18:37:35.000Z</time>
      </trkpt>
      <trkpt lat="45.21176" lon="5.7316">
        <ele>682.40002441406</ele>
        <time>2026-08-12T18:37:36.000Z</time>
      </trkpt>
      <trkpt lat="45.21175" lon="5.73158">
        <ele>682.20001220703</ele>
        <time>2026-08-12T18:37:37.000Z</time>
      </trkpt>
      <trkpt lat="45.21173" lon="5.73157">
        <ele>681.79998779297</ele>
        <time>2026-08-12T18:37:38.000Z</time>
      </trkpt>
      <trkpt lat="45.21171" lon="5.73156">
        <ele>681.40002441406</ele>
        <time>2026-08-12T18:37:39.000Z</time>
      </trkpt>
      <trkpt lat="45.2117" lon="5.73154">
        <ele>681.20001220703</ele>
        <time>2026-08-12T18:37:40.000Z</time>
      </trkpt>
      <trkpt lat="45.21168" lon="5.73152">
        <ele>680.79998779297</ele>
        <time>2026-08-12T18:37:41.000Z</time>
      </trkpt>
      <trkpt lat="45.21167" lon="5.7315">
        <ele>680.59997558594</ele>
        <time>2026-08-12T18:37:42.000Z</time>
      </trkpt>
      <trkpt lat="45.21165" lon="5.73148">
        <ele>680.20001220703</ele>
        <time>2026-08-12T18:37:43.000Z</time>
      </trkpt>
      <trkpt lat="45.21164" lon="5.73146">
        <ele>679.79998779297</ele>
        <time>2026-08-12T18:37:44.000Z</time>
      </trkpt>
      <trkpt lat="45.21162" lon="5.73145">
        <ele>679.40002441406</ele>
        <time>2026-08-12T18:37:45.000Z</time>
      </trkpt>
      <trkpt lat="45.21161" lon="5.73145">
        <ele>679</ele>
        <time>2026-08-12T18:37:46.000Z</time>
      </trkpt>
      <trkpt lat="45.21159" lon="5.73145">
        <ele>678.59997558594</ele>
        <time>2026-08-12T18:37:47.000Z</time>
      </trkpt>
      <trkpt lat="45.21158" lon="5.73144">
        <ele>678.40002441406</ele>
        <time>2026-08-12T18:37:48.000Z</time>
      </trkpt>
      <trkpt lat="45.21156" lon="5.73142">
        <ele>678</ele>
        <time>2026-08-12T18:37:49.000Z</time>
      </trkpt>
      <trkpt lat="45.21155" lon="5.73139">
        <ele>677.59997558594</ele>
        <time>2026-08-12T18:37:50.000Z</time>
      </trkpt>
      <trkpt lat="45.21154" lon="5.73137">
        <ele>677.20001220703</ele>
        <time>2026-08-12T18:37:51.000Z</time>
      </trkpt>
      <trkpt lat="45.21153" lon="5.73134">
        <ele>676.79998779297</ele>
        <time>2026-08-12T18:37:52.000Z</time>
      </trkpt>
      <trkpt lat="45.21152" lon="5.73132">
        <ele>676.20001220703</ele>
        <time>2026-08-12T18:37:53.000Z</time>
      </trkpt>
      <trkpt lat="45.2115" lon="5.73131">
        <ele>675.79998779297</ele>
        <time>2026-08-12T18:37:54.000Z</time>
      </trkpt>
      <trkpt lat="45.21148" lon="5.73129">
        <ele>675.59997558594</ele>
        <time>2026-08-12T18:37:55.000Z</time>
      </trkpt>
      <trkpt lat="45.21147" lon="5.73128">
        <ele>675.40002441406</ele>
        <time>2026-08-12T18:37:56.000Z</time>
      </trkpt>
      <trkpt lat="45.21145" lon="5.73128">
        <ele>675</ele>
        <time>2026-08-12T18:37:57.000Z</time>
      </trkpt>
      <trkpt lat="45.21144" lon="5.73128">
        <ele>674.79998779297</ele>
        <time>2026-08-12T18:37:58.000Z</time>
      </trkpt>
      <trkpt lat="45.21142" lon="5.73128">
        <ele>674.59997558594</ele>
        <time>2026-08-12T18:37:59.000Z</time>
      </trkpt>
      <trkpt lat="45.21141" lon="5.73129">
        <ele>674.40002441406</ele>
        <time>2026-08-12T18:38:00.000Z</time>
      </trkpt>
      <trkpt lat="45.2114" lon="5.7313">
        <ele>674</ele>
        <time>2026-08-12T18:38:01.000Z</time>
      </trkpt>
      <trkpt lat="45.21139" lon="5.73131">
        <ele>673.20001220703</ele>
        <time>2026-08-12T18:38:02.000Z</time>
      </trkpt>
      <trkpt lat="45.21137" lon="5.73132">
        <ele>673</ele>
        <time>2026-08-12T18:38:03.000Z</time>
      </trkpt>
      <trkpt lat="45.21135" lon="5.73132">
        <ele>672.59997558594</ele>
        <time>2026-08-12T18:38:04.000Z</time>
      </trkpt>
      <trkpt lat="45.21133" lon="5.73132">
        <ele>672.20001220703</ele>
        <time>2026-08-12T18:38:05.000Z</time>
      </trkpt>
      <trkpt lat="45.21131" lon="5.73133">
        <ele>672</ele>
        <time>2026-08-12T18:38:06.000Z</time>
      </trkpt>
      <trkpt lat="45.21129" lon="5.73133">
        <ele>671.59997558594</ele>
        <time>2026-08-12T18:38:07.000Z</time>
      </trkpt>
      <trkpt lat="45.21127" lon="5.73134">
        <ele>671.40002441406</ele>
        <time>2026-08-12T18:38:08.000Z</time>
      </trkpt>
      <trkpt lat="45.21125" lon="5.73134">
        <ele>670.79998779297</ele>
        <time>2026-08-12T18:38:09.000Z</time>
      </trkpt>
      <trkpt lat="45.21123" lon="5.73135">
        <ele>670.40002441406</ele>
        <time>2026-08-12T18:38:10.000Z</time>
      </trkpt>
      <trkpt lat="45.21122" lon="5.73136">
        <ele>670</ele>
        <time>2026-08-12T18:38:11.000Z</time>
      </trkpt>
      <trkpt lat="45.2112" lon="5.73137">
        <ele>669.59997558594</ele>
        <time>2026-08-12T18:38:12.000Z</time>
      </trkpt>
      <trkpt lat="45.21119" lon="5.73139">
        <ele>669.40002441406</ele>
        <time>2026-08-12T18:38:13.000Z</time>
      </trkpt>
      <trkpt lat="45.21117" lon="5.7314">
        <ele>669.20001220703</ele>
        <time>2026-08-12T18:38:14.000Z</time>
      </trkpt>
      <trkpt lat="45.21115" lon="5.73141">
        <ele>668.79998779297</ele>
        <time>2026-08-12T18:38:15.000Z</time>
      </trkpt>
      <trkpt lat="45.21114" lon="5.73141">
        <ele>668.40002441406</ele>
        <time>2026-08-12T18:38:16.000Z</time>
      </trkpt>
      <trkpt lat="45.21113" lon="5.73141">
        <ele>667.59997558594</ele>
        <time>2026-08-12T18:38:17.000Z</time>
      </trkpt>
      <trkpt lat="45.21112" lon="5.73141">
        <ele>667</ele>
        <time>2026-08-12T18:38:18.000Z</time>
      </trkpt>
      <trkpt lat="45.21113" lon="5.73141">
        <ele>666.59997558594</ele>
        <time>2026-08-12T18:38:19.000Z</time>
      </trkpt>
      <trkpt lat="45.21114" lon="5.73141">
        <ele>666.40002441406</ele>
        <time>2026-08-12T18:38:20.000Z</time>
      </trkpt>
      <trkpt lat="45.21116" lon="5.7314">
        <ele>666.40002441406</ele>
        <time>2026-08-12T18:38:21.000Z</time>
      </trkpt>
      <trkpt lat="45.21117" lon="5.73139">
        <ele>666.20001220703</ele>
        <time>2026-08-12T18:38:22.000Z</time>
      </trkpt>
      <trkpt lat="45.21119" lon="5.73138">
        <ele>665.79998779297</ele>
        <time>2026-08-12T18:38:23.000Z</time>
      </trkpt>
      <trkpt lat="45.21121" lon="5.73138">
        <ele>665.20001220703</ele>
        <time>2026-08-12T18:38:24.000Z</time>
      </trkpt>
      <trkpt lat="45.21123" lon="5.73137">
        <ele>664.79998779297</ele>
        <time>2026-08-12T18:38:25.000Z</time>
      </trkpt>
      <trkpt lat="45.21125" lon="5.73136">
        <ele>664.40002441406</ele>
        <time>2026-08-12T18:38:26.000Z</time>
      </trkpt>
      <trkpt lat="45.21127" lon="5.73136">
        <ele>664</ele>
        <time>2026-08-12T18:38:27.000Z</time>
      </trkpt>
      <trkpt lat="45.21129" lon="5.73136">
        <ele>663.79998779297</ele>
        <time>2026-08-12T18:38:28.000Z</time>
      </trkpt>
      <trkpt lat="45.21131" lon="5.73136">
        <ele>663.20001220703</ele>
        <time>2026-08-12T18:38:29.000Z</time>
      </trkpt>
      <trkpt lat="45.21133" lon="5.73137">
        <ele>662.79998779297</ele>
        <time>2026-08-12T18:38:30.000Z</time>
      </trkpt>
      <trkpt lat="45.21135" lon="5.73137">
        <ele>662.20001220703</ele>
        <time>2026-08-12T18:38:31.000Z</time>
      </trkpt>
      <trkpt lat="45.21136" lon="5.73136">
        <ele>662</ele>
        <time>2026-08-12T18:38:32.000Z</time>
      </trkpt>
      <trkpt lat="45.21138" lon="5.73138">
        <ele>661.59997558594</ele>
        <time>2026-08-12T18:38:33.000Z</time>
      </trkpt>
      <trkpt lat="45.21138" lon="5.73141">
        <ele>661.40002441406</ele>
        <time>2026-08-12T18:38:34.000Z</time>
      </trkpt>
      <trkpt lat="45.21137" lon="5.73143">
        <ele>661</ele>
        <time>2026-08-12T18:38:35.000Z</time>
      </trkpt>
      <trkpt lat="45.21136" lon="5.73145">
        <ele>660.79998779297</ele>
        <time>2026-08-12T18:38:36.000Z</time>
      </trkpt>
      <trkpt lat="45.21135" lon="5.73146">
        <ele>660.59997558594</ele>
        <time>2026-08-12T18:38:37.000Z</time>
      </trkpt>
      <trkpt lat="45.21134" lon="5.73147">
        <ele>660.40002441406</ele>
        <time>2026-08-12T18:38:38.000Z</time>
      </trkpt>
      <trkpt lat="45.21132" lon="5.73148">
        <ele>660</ele>
        <time>2026-08-12T18:38:39.000Z</time>
      </trkpt>
      <trkpt lat="45.21129" lon="5.73149">
        <ele>659.40002441406</ele>
        <time>2026-08-12T18:38:40.000Z</time>
      </trkpt>
      <trkpt lat="45.21127" lon="5.73149">
        <ele>659</ele>
        <time>2026-08-12T18:38:41.000Z</time>
      </trkpt>
      <trkpt lat="45.21126" lon="5.7315">
        <ele>658.59997558594</ele>
        <time>2026-08-12T18:38:42.000Z</time>
      </trkpt>
      <trkpt lat="45.21124" lon="5.73151">
        <ele>658.40002441406</ele>
        <time>2026-08-12T18:38:43.000Z</time>
      </trkpt>
      <trkpt lat="45.21123" lon="5.73152">
        <ele>658.20001220703</ele>
        <time>2026-08-12T18:38:44.000Z</time>
      </trkpt>
      <trkpt lat="45.21121" lon="5.73153">
        <ele>658</ele>
        <time>2026-08-12T18:38:45.000Z</time>
      </trkpt>
      <trkpt lat="45.2112" lon="5.73154">
        <ele>657.79998779297</ele>
        <time>2026-08-12T18:38:46.000Z</time>
      </trkpt>
      <trkpt lat="45.21118" lon="5.73155">
        <ele>657.79998779297</ele>
        <time>2026-08-12T18:38:47.000Z</time>
      </trkpt>
      <trkpt lat="45.21117" lon="5.73155">
        <ele>657.79998779297</ele>
        <time>2026-08-12T18:38:48.000Z</time>
      </trkpt>
      <trkpt lat="45.21116" lon="5.73156">
        <ele>657.59997558594</ele>
        <time>2026-08-12T18:38:49.000Z</time>
      </trkpt>
      <trkpt lat="45.21115" lon="5.73157">
        <ele>657.59997558594</ele>
        <time>2026-08-12T18:38:50.000Z</time>
      </trkpt>
      <trkpt lat="45.21113" lon="5.73158">
        <ele>657.59997558594</ele>
        <time>2026-08-12T18:38:51.000Z</time>
      </trkpt>
      <trkpt lat="45.21111" lon="5.73158">
        <ele>657.40002441406</ele>
        <time>2026-08-12T18:38:52.000Z</time>
      </trkpt>
      <trkpt lat="45.21108" lon="5.73157">
        <ele>656.79998779297</ele>
        <time>2026-08-12T18:38:53.000Z</time>
      </trkpt>
      <trkpt lat="45.21106" lon="5.73156">
        <ele>655.79998779297</ele>
        <time>2026-08-12T18:38:54.000Z</time>
      </trkpt>
      <trkpt lat="45.21104" lon="5.73155">
        <ele>655.20001220703</ele>
        <time>2026-08-12T18:38:55.000Z</time>
      </trkpt>
      <trkpt lat="45.21102" lon="5.73153">
        <ele>654.79998779297</ele>
        <time>2026-08-12T18:38:56.000Z</time>
      </trkpt>
      <trkpt lat="45.211" lon="5.73151">
        <ele>654.59997558594</ele>
        <time>2026-08-12T18:38:57.000Z</time>
      </trkpt>
      <trkpt lat="45.21099" lon="5.73149">
        <ele>654</ele>
        <time>2026-08-12T18:38:58.000Z</time>
      </trkpt>
      <trkpt lat="45.21096" lon="5.73147">
        <ele>653.79998779297</ele>
        <time>2026-08-12T18:38:59.000Z</time>
      </trkpt>
      <trkpt lat="45.21095" lon="5.73146">
        <ele>653.20001220703</ele>
        <time>2026-08-12T18:39:00.000Z</time>
      </trkpt>
      <trkpt lat="45.21093" lon="5.73144">
        <ele>652.79998779297</ele>
        <time>2026-08-12T18:39:01.000Z</time>
      </trkpt>
      <trkpt lat="45.21091" lon="5.73142">
        <ele>652.59997558594</ele>
        <time>2026-08-12T18:39:02.000Z</time>
      </trkpt>
      <trkpt lat="45.21089" lon="5.7314">
        <ele>652.20001220703</ele>
        <time>2026-08-12T18:39:03.000Z</time>
      </trkpt>
      <trkpt lat="45.21087" lon="5.73138">
        <ele>651.79998779297</ele>
        <time>2026-08-12T18:39:04.000Z</time>
      </trkpt>
      <trkpt lat="45.21086" lon="5.73137">
        <ele>651.40002441406</ele>
        <time>2026-08-12T18:39:05.000Z</time>
      </trkpt>
      <trkpt lat="45.21084" lon="5.73136">
        <ele>651.20001220703</ele>
        <time>2026-08-12T18:39:06.000Z</time>
      </trkpt>
      <trkpt lat="45.21082" lon="5.73136">
        <ele>650.79998779297</ele>
        <time>2026-08-12T18:39:07.000Z</time>
      </trkpt>
      <trkpt lat="45.21081" lon="5.73134">
        <ele>650.59997558594</ele>
        <time>2026-08-12T18:39:08.000Z</time>
      </trkpt>
      <trkpt lat="45.21079" lon="5.73131">
        <ele>650.20001220703</ele>
        <time>2026-08-12T18:39:09.000Z</time>
      </trkpt>
      <trkpt lat="45.21079" lon="5.73129">
        <ele>650</ele>
        <time>2026-08-12T18:39:10.000Z</time>
      </trkpt>
      <trkpt lat="45.21078" lon="5.73126">
        <ele>649.59997558594</ele>
        <time>2026-08-12T18:39:11.000Z</time>
      </trkpt>
      <trkpt lat="45.21077" lon="5.73124">
        <ele>649.40002441406</ele>
        <time>2026-08-12T18:39:12.000Z</time>
      </trkpt>
      <trkpt lat="45.21076" lon="5.73123">
        <ele>649.40002441406</ele>
        <time>2026-08-12T18:39:13.000Z</time>
      </trkpt>
      <trkpt lat="45.21075" lon="5.73122">
        <ele>649.40002441406</ele>
        <time>2026-08-12T18:39:14.000Z</time>
      </trkpt>
      <trkpt lat="45.21075" lon="5.73122">
        <ele>649.40002441406</ele>
        <time>2026-08-12T18:39:15.000Z</time>
      </trkpt>
      <trkpt lat="45.21074" lon="5.73123">
        <ele>649.40002441406</ele>
        <time>2026-08-12T18:39:16.000Z</time>
      </trkpt>
      <trkpt lat="45.21073" lon="5.73124">
        <ele>649.40002441406</ele>
        <time>2026-08-12T18:39:17.000Z</time>
      </trkpt>
      <trkpt lat="45.21072" lon="5.73126">
        <ele>649.20001220703</ele>
        <time>2026-08-12T18:39:18.000Z</time>
      </trkpt>
      <trkpt lat="45.2107" lon="5.73127">
        <ele>649</ele>
        <time>2026-08-12T18:39:19.000Z</time>
      </trkpt>
      <trkpt lat="45.21069" lon="5.73127">
        <ele>648.59997558594</ele>
        <time>2026-08-12T18:39:20.000Z</time>
      </trkpt>
      <trkpt lat="45.21068" lon="5.73128">
        <ele>648.20001220703</ele>
        <time>2026-08-12T18:39:21.000Z</time>
      </trkpt>
      <trkpt lat="45.21066" lon="5.73128">
        <ele>647.40002441406</ele>
        <time>2026-08-12T18:39:22.000Z</time>
      </trkpt>
      <trkpt lat="45.21064" lon="5.73129">
        <ele>647.20001220703</ele>
        <time>2026-08-12T18:39:23.000Z</time>
      </trkpt>
      <trkpt lat="45.21062" lon="5.73129">
        <ele>646.59997558594</ele>
        <time>2026-08-12T18:39:24.000Z</time>
      </trkpt>
      <trkpt lat="45.21061" lon="5.73128">
        <ele>646.40002441406</ele>
        <time>2026-08-12T18:39:25.000Z</time>
      </trkpt>
      <trkpt lat="45.21058" lon="5.73128">
        <ele>645.59997558594</ele>
        <time>2026-08-12T18:39:26.000Z</time>
      </trkpt>
      <trkpt lat="45.21056" lon="5.73127">
        <ele>645.20001220703</ele>
        <time>2026-08-12T18:39:27.000Z</time>
      </trkpt>
      <trkpt lat="45.21054" lon="5.73126">
        <ele>644.79998779297</ele>
        <time>2026-08-12T18:39:28.000Z</time>
      </trkpt>
      <trkpt lat="45.21052" lon="5.73125">
        <ele>644.79998779297</ele>
        <time>2026-08-12T18:39:29.000Z</time>
      </trkpt>
      <trkpt lat="45.2105" lon="5.73125">
        <ele>644.59997558594</ele>
        <time>2026-08-12T18:39:30.000Z</time>
      </trkpt>
      <trkpt lat="45.21048" lon="5.73125">
        <ele>644.20001220703</ele>
        <time>2026-08-12T18:39:31.000Z</time>
      </trkpt>
      <trkpt lat="45.21046" lon="5.73124">
        <ele>644</ele>
        <time>2026-08-12T18:39:32.000Z</time>
      </trkpt>
      <trkpt lat="45.21044" lon="5.73123">
        <ele>643.59997558594</ele>
        <time>2026-08-12T18:39:33.000Z</time>
      </trkpt>
      <trkpt lat="45.21041" lon="5.73123">
        <ele>643.40002441406</ele>
        <time>2026-08-12T18:39:34.000Z</time>
      </trkpt>
      <trkpt lat="45.21039" lon="5.73122">
        <ele>643</ele>
        <time>2026-08-12T18:39:35.000Z</time>
      </trkpt>
      <trkpt lat="45.21037" lon="5.73121">
        <ele>642.79998779297</ele>
        <time>2026-08-12T18:39:36.000Z</time>
      </trkpt>
      <trkpt lat="45.21036" lon="5.73121">
        <ele>642.59997558594</ele>
        <time>2026-08-12T18:39:37.000Z</time>
      </trkpt>
      <trkpt lat="45.21034" lon="5.7312">
        <ele>642.40002441406</ele>
        <time>2026-08-12T18:39:38.000Z</time>
      </trkpt>
      <trkpt lat="45.21032" lon="5.73118">
        <ele>642</ele>
        <time>2026-08-12T18:39:39.000Z</time>
      </trkpt>
      <trkpt lat="45.2103" lon="5.73117">
        <ele>641.59997558594</ele>
        <time>2026-08-12T18:39:40.000Z</time>
      </trkpt>
      <trkpt lat="45.21029" lon="5.73116">
        <ele>641.40002441406</ele>
        <time>2026-08-12T18:39:41.000Z</time>
      </trkpt>
      <trkpt lat="45.21027" lon="5.73114">
        <ele>641.20001220703</ele>
        <time>2026-08-12T18:39:42.000Z</time>
      </trkpt>
      <trkpt lat="45.21025" lon="5.73112">
        <ele>641</ele>
        <time>2026-08-12T18:39:43.000Z</time>
      </trkpt>
      <trkpt lat="45.21024" lon="5.7311">
        <ele>641</ele>
        <time>2026-08-12T18:39:44.000Z</time>
      </trkpt>
      <trkpt lat="45.21022" lon="5.7311">
        <ele>641</ele>
        <time>2026-08-12T18:39:45.000Z</time>
      </trkpt>
      <trkpt lat="45.21022" lon="5.73109">
        <ele>641</ele>
        <time>2026-08-12T18:39:46.000Z</time>
      </trkpt>
      <trkpt lat="45.21021" lon="5.73109">
        <ele>641.20001220703</ele>
        <time>2026-08-12T18:39:47.000Z</time>
      </trkpt>
      <trkpt lat="45.2102" lon="5.73108">
        <ele>641.20001220703</ele>
        <time>2026-08-12T18:39:48.000Z</time>
      </trkpt>
      <trkpt lat="45.21019" lon="5.73108">
        <ele>641.20001220703</ele>
        <time>2026-08-12T18:39:49.000Z</time>
      </trkpt>
      <trkpt lat="45.21019" lon="5.73109">
        <ele>641.20001220703</ele>
        <time>2026-08-12T18:39:50.000Z</time>
      </trkpt>
      <trkpt lat="45.21019" lon="5.73111">
        <ele>641</ele>
        <time>2026-08-12T18:39:51.000Z</time>
      </trkpt>
      <trkpt lat="45.21018" lon="5.73113">
        <ele>640.79998779297</ele>
        <time>2026-08-12T18:39:52.000Z</time>
      </trkpt>
      <trkpt lat="45.21017" lon="5.73114">
        <ele>640.20001220703</ele>
        <time>2026-08-12T18:39:53.000Z</time>
      </trkpt>
      <trkpt lat="45.21016" lon="5.73116">
        <ele>639.79998779297</ele>
        <time>2026-08-12T18:39:54.000Z</time>
      </trkpt>
      <trkpt lat="45.21014" lon="5.73117">
        <ele>639.40002441406</ele>
        <time>2026-08-12T18:39:55.000Z</time>
      </trkpt>
      <trkpt lat="45.21013" lon="5.73119">
        <ele>638.59997558594</ele>
        <time>2026-08-12T18:39:56.000Z</time>
      </trkpt>
      <trkpt lat="45.21012" lon="5.73121">
        <ele>638.20001220703</ele>
        <time>2026-08-12T18:39:57.000Z</time>
      </trkpt>
      <trkpt lat="45.21011" lon="5.73122">
        <ele>637.59997558594</ele>
        <time>2026-08-12T18:39:58.000Z</time>
      </trkpt>
      <trkpt lat="45.21011" lon="5.73124">
        <ele>637.40002441406</ele>
        <time>2026-08-12T18:39:59.000Z</time>
      </trkpt>
      <trkpt lat="45.2101" lon="5.73126">
        <ele>637.40002441406</ele>
        <time>2026-08-12T18:40:00.000Z</time>
      </trkpt>
      <trkpt lat="45.21009" lon="5.73127">
        <ele>637.20001220703</ele>
        <time>2026-08-12T18:40:01.000Z</time>
      </trkpt>
      <trkpt lat="45.21007" lon="5.73129">
        <ele>637</ele>
        <time>2026-08-12T18:40:02.000Z</time>
      </trkpt>
      <trkpt lat="45.21006" lon="5.7313">
        <ele>637</ele>
        <time>2026-08-12T18:40:03.000Z</time>
      </trkpt>
      <trkpt lat="45.21004" lon="5.73132">
        <ele>636.59997558594</ele>
        <time>2026-08-12T18:40:04.000Z</time>
      </trkpt>
      <trkpt lat="45.21002" lon="5.73134">
        <ele>636.20001220703</ele>
        <time>2026-08-12T18:40:05.000Z</time>
      </trkpt>
      <trkpt lat="45.21001" lon="5.73135">
        <ele>635.59997558594</ele>
        <time>2026-08-12T18:40:06.000Z</time>
      </trkpt>
      <trkpt lat="45.20999" lon="5.73137">
        <ele>635.20001220703</ele>
        <time>2026-08-12T18:40:07.000Z</time>
      </trkpt>
      <trkpt lat="45.20997" lon="5.73139">
        <ele>635</ele>
        <time>2026-08-12T18:40:08.000Z</time>
      </trkpt>
      <trkpt lat="45.20996" lon="5.7314">
        <ele>634.59997558594</ele>
        <time>2026-08-12T18:40:09.000Z</time>
      </trkpt>
      <trkpt lat="45.20994" lon="5.73142">
        <ele>634.40002441406</ele>
        <time>2026-08-12T18:40:10.000Z</time>
      </trkpt>
      <trkpt lat="45.20993" lon="5.73143">
        <ele>634</ele>
        <time>2026-08-12T18:40:11.000Z</time>
      </trkpt>
      <trkpt lat="45.20992" lon="5.73144">
        <ele>633.79998779297</ele>
        <time>2026-08-12T18:40:12.000Z</time>
      </trkpt>
      <trkpt lat="45.2099" lon="5.73145">
        <ele>633.59997558594</ele>
        <time>2026-08-12T18:40:13.000Z</time>
      </trkpt>
      <trkpt lat="45.20988" lon="5.73145">
        <ele>633.40002441406</ele>
        <time>2026-08-12T18:40:14.000Z</time>
      </trkpt>
      <trkpt lat="45.20987" lon="5.73146">
        <ele>633</ele>
        <time>2026-08-12T18:40:15.000Z</time>
      </trkpt>
      <trkpt lat="45.20987" lon="5.73146">
        <ele>632.79998779297</ele>
        <time>2026-08-12T18:40:16.000Z</time>
      </trkpt>
      <trkpt lat="45.20988" lon="5.73146">
        <ele>632.40002441406</ele>
        <time>2026-08-12T18:40:17.000Z</time>
      </trkpt>
      <trkpt lat="45.2099" lon="5.73144">
        <ele>632</ele>
        <time>2026-08-12T18:40:18.000Z</time>
      </trkpt>
      <trkpt lat="45.2099" lon="5.73142">
        <ele>631.79998779297</ele>
        <time>2026-08-12T18:40:19.000Z</time>
      </trkpt>
      <trkpt lat="45.20992" lon="5.73141">
        <ele>631.20001220703</ele>
        <time>2026-08-12T18:40:20.000Z</time>
      </trkpt>
      <trkpt lat="45.20993" lon="5.73139">
        <ele>630.79998779297</ele>
        <time>2026-08-12T18:40:21.000Z</time>
      </trkpt>
      <trkpt lat="45.20995" lon="5.73138">
        <ele>630.59997558594</ele>
        <time>2026-08-12T18:40:22.000Z</time>
      </trkpt>
      <trkpt lat="45.20997" lon="5.73137">
        <ele>630.20001220703</ele>
        <time>2026-08-12T18:40:23.000Z</time>
      </trkpt>
      <trkpt lat="45.20999" lon="5.73136">
        <ele>629.79998779297</ele>
        <time>2026-08-12T18:40:24.000Z</time>
      </trkpt>
      <trkpt lat="45.21001" lon="5.73134">
        <ele>629.40002441406</ele>
        <time>2026-08-12T18:40:25.000Z</time>
      </trkpt>
      <trkpt lat="45.21003" lon="5.73134">
        <ele>629.20001220703</ele>
        <time>2026-08-12T18:40:26.000Z</time>
      </trkpt>
      <trkpt lat="45.21005" lon="5.73133">
        <ele>628.79998779297</ele>
        <time>2026-08-12T18:40:27.000Z</time>
      </trkpt>
      <trkpt lat="45.21007" lon="5.73132">
        <ele>628.20001220703</ele>
        <time>2026-08-12T18:40:28.000Z</time>
      </trkpt>
      <trkpt lat="45.21008" lon="5.73131">
        <ele>627.40002441406</ele>
        <time>2026-08-12T18:40:29.000Z</time>
      </trkpt>
      <trkpt lat="45.2101" lon="5.73129">
        <ele>626.59997558594</ele>
        <time>2026-08-12T18:40:30.000Z</time>
      </trkpt>
      <trkpt lat="45.21011" lon="5.73127">
        <ele>626.20001220703</ele>
        <time>2026-08-12T18:40:31.000Z</time>
      </trkpt>
      <trkpt lat="45.21012" lon="5.73126">
        <ele>626.20001220703</ele>
        <time>2026-08-12T18:40:32.000Z</time>
      </trkpt>
      <trkpt lat="45.21014" lon="5.73126">
        <ele>626.20001220703</ele>
        <time>2026-08-12T18:40:33.000Z</time>
      </trkpt>
      <trkpt lat="45.21016" lon="5.73126">
        <ele>626.20001220703</ele>
        <time>2026-08-12T18:40:34.000Z</time>
      </trkpt>
      <trkpt lat="45.21018" lon="5.73127">
        <ele>626.40002441406</ele>
        <time>2026-08-12T18:40:35.000Z</time>
      </trkpt>
      <trkpt lat="45.21019" lon="5.73127">
        <ele>626.40002441406</ele>
        <time>2026-08-12T18:40:36.000Z</time>
      </trkpt>
      <trkpt lat="45.2102" lon="5.73127">
        <ele>626.20001220703</ele>
        <time>2026-08-12T18:40:37.000Z</time>
      </trkpt>
      <trkpt lat="45.21021" lon="5.73125">
        <ele>626</ele>
        <time>2026-08-12T18:40:38.000Z</time>
      </trkpt>
      <trkpt lat="45.21022" lon="5.73125">
        <ele>626</ele>
        <time>2026-08-12T18:40:39.000Z</time>
      </trkpt>
      <trkpt lat="45.21023" lon="5.73126">
        <ele>625.79998779297</ele>
        <time>2026-08-12T18:40:40.000Z</time>
      </trkpt>
      <trkpt lat="45.21023" lon="5.73127">
        <ele>625.79998779297</ele>
        <time>2026-08-12T18:40:41.000Z</time>
      </trkpt>
      <trkpt lat="45.21024" lon="5.73128">
        <ele>625.79998779297</ele>
        <time>2026-08-12T18:40:42.000Z</time>
      </trkpt>
      <trkpt lat="45.21025" lon="5.73128">
        <ele>625.59997558594</ele>
        <time>2026-08-12T18:40:43.000Z</time>
      </trkpt>
      <trkpt lat="45.21026" lon="5.7313">
        <ele>625.40002441406</ele>
        <time>2026-08-12T18:40:44.000Z</time>
      </trkpt>
      <trkpt lat="45.21026" lon="5.73132">
        <ele>625</ele>
        <time>2026-08-12T18:40:45.000Z</time>
      </trkpt>
      <trkpt lat="45.21027" lon="5.73134">
        <ele>624.59997558594</ele>
        <time>2026-08-12T18:40:46.000Z</time>
      </trkpt>
      <trkpt lat="45.21028" lon="5.73136">
        <ele>624.20001220703</ele>
        <time>2026-08-12T18:40:47.000Z</time>
      </trkpt>
      <trkpt lat="45.21029" lon="5.73138">
        <ele>624</ele>
        <time>2026-08-12T18:40:48.000Z</time>
      </trkpt>
      <trkpt lat="45.21029" lon="5.7314">
        <ele>623.40002441406</ele>
        <time>2026-08-12T18:40:49.000Z</time>
      </trkpt>
      <trkpt lat="45.2103" lon="5.73141">
        <ele>623.20001220703</ele>
        <time>2026-08-12T18:40:50.000Z</time>
      </trkpt>
      <trkpt lat="45.2103" lon="5.73143">
        <ele>622.79998779297</ele>
        <time>2026-08-12T18:40:51.000Z</time>
      </trkpt>
      <trkpt lat="45.21031" lon="5.73145">
        <ele>622.40002441406</ele>
        <time>2026-08-12T18:40:52.000Z</time>
      </trkpt>
      <trkpt lat="45.21033" lon="5.73147">
        <ele>622</ele>
        <time>2026-08-12T18:40:53.000Z</time>
      </trkpt>
      <trkpt lat="45.21034" lon="5.73149">
        <ele>622</ele>
        <time>2026-08-12T18:40:54.000Z</time>
      </trkpt>
      <trkpt lat="45.21035" lon="5.7315">
        <ele>621.79998779297</ele>
        <time>2026-08-12T18:40:55.000Z</time>
      </trkpt>
      <trkpt lat="45.21037" lon="5.73151">
        <ele>621.40002441406</ele>
        <time>2026-08-12T18:40:56.000Z</time>
      </trkpt>
      <trkpt lat="45.21039" lon="5.73153">
        <ele>620.79998779297</ele>
        <time>2026-08-12T18:40:57.000Z</time>
      </trkpt>
      <trkpt lat="45.21041" lon="5.73154">
        <ele>620.59997558594</ele>
        <time>2026-08-12T18:40:58.000Z</time>
      </trkpt>
      <trkpt lat="45.21043" lon="5.73155">
        <ele>620.20001220703</ele>
        <time>2026-08-12T18:40:59.000Z</time>
      </trkpt>
      <trkpt lat="45.21045" lon="5.73157">
        <ele>620</ele>
        <time>2026-08-12T18:41:00.000Z</time>
      </trkpt>
      <trkpt lat="45.21046" lon="5.73158">
        <ele>619.40002441406</ele>
        <time>2026-08-12T18:41:01.000Z</time>
      </trkpt>
      <trkpt lat="45.21048" lon="5.73159">
        <ele>619</ele>
        <time>2026-08-12T18:41:02.000Z</time>
      </trkpt>
      <trkpt lat="45.2105" lon="5.73159">
        <ele>618.59997558594</ele>
        <time>2026-08-12T18:41:03.000Z</time>
      </trkpt>
      <trkpt lat="45.21052" lon="5.7316">
        <ele>618.40002441406</ele>
        <time>2026-08-12T18:41:04.000Z</time>
      </trkpt>
      <trkpt lat="45.21054" lon="5.7316">
        <ele>618.20001220703</ele>
        <time>2026-08-12T18:41:05.000Z</time>
      </trkpt>
      <trkpt lat="45.21056" lon="5.73161">
        <ele>617.79998779297</ele>
        <time>2026-08-12T18:41:06.000Z</time>
      </trkpt>
      <trkpt lat="45.21057" lon="5.73161">
        <ele>617.59997558594</ele>
        <time>2026-08-12T18:41:07.000Z</time>
      </trkpt>
      <trkpt lat="45.21059" lon="5.73162">
        <ele>617.40002441406</ele>
        <time>2026-08-12T18:41:08.000Z</time>
      </trkpt>
      <trkpt lat="45.21061" lon="5.73163">
        <ele>617.40002441406</ele>
        <time>2026-08-12T18:41:09.000Z</time>
      </trkpt>
      <trkpt lat="45.21062" lon="5.73164">
        <ele>617</ele>
        <time>2026-08-12T18:41:10.000Z</time>
      </trkpt>
      <trkpt lat="45.21063" lon="5.73165">
        <ele>616.59997558594</ele>
        <time>2026-08-12T18:41:11.000Z</time>
      </trkpt>
      <trkpt lat="45.21064" lon="5.73167">
        <ele>616.40002441406</ele>
        <time>2026-08-12T18:41:12.000Z</time>
      </trkpt>
      <trkpt lat="45.21064" lon="5.73169">
        <ele>616.20001220703</ele>
        <time>2026-08-12T18:41:13.000Z</time>
      </trkpt>
      <trkpt lat="45.21065" lon="5.7317">
        <ele>615.79998779297</ele>
        <time>2026-08-12T18:41:14.000Z</time>
      </trkpt>
      <trkpt lat="45.21066" lon="5.73172">
        <ele>615.59997558594</ele>
        <time>2026-08-12T18:41:15.000Z</time>
      </trkpt>
      <trkpt lat="45.21067" lon="5.73173">
        <ele>615.20001220703</ele>
        <time>2026-08-12T18:41:16.000Z</time>
      </trkpt>
      <trkpt lat="45.21068" lon="5.73175">
        <ele>615</ele>
        <time>2026-08-12T18:41:17.000Z</time>
      </trkpt>
      <trkpt lat="45.21069" lon="5.73177">
        <ele>614.59997558594</ele>
        <time>2026-08-12T18:41:18.000Z</time>
      </trkpt>
      <trkpt lat="45.2107" lon="5.73179">
        <ele>614.20001220703</ele>
        <time>2026-08-12T18:41:19.000Z</time>
      </trkpt>
      <trkpt lat="45.21072" lon="5.7318">
        <ele>614</ele>
        <time>2026-08-12T18:41:20.000Z</time>
      </trkpt>
      <trkpt lat="45.21074" lon="5.73182">
        <ele>613.59997558594</ele>
        <time>2026-08-12T18:41:21.000Z</time>
      </trkpt>
      <trkpt lat="45.21076" lon="5.73184">
        <ele>613.40002441406</ele>
        <time>2026-08-12T18:41:22.000Z</time>
      </trkpt>
      <trkpt lat="45.21078" lon="5.73186">
        <ele>612.79998779297</ele>
        <time>2026-08-12T18:41:23.000Z</time>
      </trkpt>
      <trkpt lat="45.21079" lon="5.73189">
        <ele>612.40002441406</ele>
        <time>2026-08-12T18:41:24.000Z</time>
      </trkpt>
      <trkpt lat="45.21081" lon="5.73192">
        <ele>612.20001220703</ele>
        <time>2026-08-12T18:41:25.000Z</time>
      </trkpt>
      <trkpt lat="45.21081" lon="5.73195">
        <ele>611.79998779297</ele>
        <time>2026-08-12T18:41:26.000Z</time>
      </trkpt>
      <trkpt lat="45.21083" lon="5.73197">
        <ele>611.59997558594</ele>
        <time>2026-08-12T18:41:27.000Z</time>
      </trkpt>
      <trkpt lat="45.21084" lon="5.732">
        <ele>611.20001220703</ele>
        <time>2026-08-12T18:41:28.000Z</time>
      </trkpt>
      <trkpt lat="45.21085" lon="5.73202">
        <ele>610.59997558594</ele>
        <time>2026-08-12T18:41:29.000Z</time>
      </trkpt>
      <trkpt lat="45.21086" lon="5.73205">
        <ele>610.40002441406</ele>
        <time>2026-08-12T18:41:30.000Z</time>
      </trkpt>
      <trkpt lat="45.21088" lon="5.73207">
        <ele>610.20001220703</ele>
        <time>2026-08-12T18:41:31.000Z</time>
      </trkpt>
      <trkpt lat="45.2109" lon="5.7321">
        <ele>609.79998779297</ele>
        <time>2026-08-12T18:41:32.000Z</time>
      </trkpt>
      <trkpt lat="45.21091" lon="5.73212">
        <ele>609.40002441406</ele>
        <time>2026-08-12T18:41:33.000Z</time>
      </trkpt>
      <trkpt lat="45.21092" lon="5.73215">
        <ele>609.20001220703</ele>
        <time>2026-08-12T18:41:34.000Z</time>
      </trkpt>
      <trkpt lat="45.21091" lon="5.73216">
        <ele>609</ele>
        <time>2026-08-12T18:41:35.000Z</time>
      </trkpt>
      <trkpt lat="45.2109" lon="5.73217">
        <ele>608.79998779297</ele>
        <time>2026-08-12T18:41:36.000Z</time>
      </trkpt>
      <trkpt lat="45.21089" lon="5.73217">
        <ele>608.79998779297</ele>
        <time>2026-08-12T18:41:37.000Z</time>
      </trkpt>
      <trkpt lat="45.21087" lon="5.73217">
        <ele>608.59997558594</ele>
        <time>2026-08-12T18:41:38.000Z</time>
      </trkpt>
      <trkpt lat="45.21085" lon="5.73217">
        <ele>608.40002441406</ele>
        <time>2026-08-12T18:41:39.000Z</time>
      </trkpt>
      <trkpt lat="45.21083" lon="5.73216">
        <ele>608.40002441406</ele>
        <time>2026-08-12T18:41:40.000Z</time>
      </trkpt>
      <trkpt lat="45.21081" lon="5.73215">
        <ele>608</ele>
        <time>2026-08-12T18:41:41.000Z</time>
      </trkpt>
      <trkpt lat="45.21079" lon="5.73214">
        <ele>607.59997558594</ele>
        <time>2026-08-12T18:41:42.000Z</time>
      </trkpt>
      <trkpt lat="45.21077" lon="5.73212">
        <ele>607.40002441406</ele>
        <time>2026-08-12T18:41:43.000Z</time>
      </trkpt>
      <trkpt lat="45.21075" lon="5.7321">
        <ele>607</ele>
        <time>2026-08-12T18:41:44.000Z</time>
      </trkpt>
      <trkpt lat="45.21073" lon="5.73209">
        <ele>606.59997558594</ele>
        <time>2026-08-12T18:41:45.000Z</time>
      </trkpt>
      <trkpt lat="45.21071" lon="5.73208">
        <ele>606</ele>
        <time>2026-08-12T18:41:46.000Z</time>
      </trkpt>
      <trkpt lat="45.21069" lon="5.73207">
        <ele>605.79998779297</ele>
        <time>2026-08-12T18:41:47.000Z</time>
      </trkpt>
      <trkpt lat="45.21068" lon="5.73206">
        <ele>605.59997558594</ele>
        <time>2026-08-12T18:41:48.000Z</time>
      </trkpt>
      <trkpt lat="45.21066" lon="5.73204">
        <ele>605.40002441406</ele>
        <time>2026-08-12T18:41:49.000Z</time>
      </trkpt>
      <trkpt lat="45.21064" lon="5.73203">
        <ele>605.20001220703</ele>
        <time>2026-08-12T18:41:50.000Z</time>
      </trkpt>
      <trkpt lat="45.21063" lon="5.73201">
        <ele>604.79998779297</ele>
        <time>2026-08-12T18:41:51.000Z</time>
      </trkpt>
      <trkpt lat="45.21062" lon="5.732">
        <ele>604.59997558594</ele>
        <time>2026-08-12T18:41:52.000Z</time>
      </trkpt>
      <trkpt lat="45.2106" lon="5.73198">
        <ele>604.59997558594</ele>
        <time>2026-08-12T18:41:53.000Z</time>
      </trkpt>
      <trkpt lat="45.21059" lon="5.73197">
        <ele>604</ele>
        <time>2026-08-12T18:41:54.000Z</time>
      </trkpt>
      <trkpt lat="45.21058" lon="5.73196">
        <ele>603.79998779297</ele>
        <time>2026-08-12T18:41:55.000Z</time>
      </trkpt>
      <trkpt lat="45.21057" lon="5.73195">
        <ele>603.40002441406</ele>
        <time>2026-08-12T18:41:56.000Z</time>
      </trkpt>
      <trkpt lat="45.21056" lon="5.73194">
        <ele>603.20001220703</ele>
        <time>2026-08-12T18:41:57.000Z</time>
      </trkpt>
      <trkpt lat="45.21055" lon="5.73194">
        <ele>603</ele>
        <time>2026-08-12T18:41:58.000Z</time>
      </trkpt>
      <trkpt lat="45.21055" lon="5.73194">
        <ele>602.79998779297</ele>
        <time>2026-08-12T18:41:59.000Z</time>
      </trkpt>
      <trkpt lat="45.21054" lon="5.73194">
        <ele>602.79998779297</ele>
        <time>2026-08-12T18:42:00.000Z</time>
      </trkpt>
      <trkpt lat="45.21053" lon="5.73195">
        <ele>602.59997558594</ele>
        <time>2026-08-12T18:42:01.000Z</time>
      </trkpt>
      <trkpt lat="45.21052" lon="5.73196">
        <ele>602.40002441406</ele>
        <time>2026-08-12T18:42:02.000Z</time>
      </trkpt>
      <trkpt lat="45.21051" lon="5.73198">
        <ele>602.20001220703</ele>
        <time>2026-08-12T18:42:03.000Z</time>
      </trkpt>
      <trkpt lat="45.21049" lon="5.73198">
        <ele>602</ele>
        <time>2026-08-12T18:42:04.000Z</time>
      </trkpt>
      <trkpt lat="45.21046" lon="5.73198">
        <ele>601.59997558594</ele>
        <time>2026-08-12T18:42:05.000Z</time>
      </trkpt>
      <trkpt lat="45.21043" lon="5.73197">
        <ele>601.20001220703</ele>
        <time>2026-08-12T18:42:06.000Z</time>
      </trkpt>
      <trkpt lat="45.21041" lon="5.73197">
        <ele>600.79998779297</ele>
        <time>2026-08-12T18:42:07.000Z</time>
      </trkpt>
      <trkpt lat="45.21038" lon="5.73195">
        <ele>600.59997558594</ele>
        <time>2026-08-12T18:42:08.000Z</time>
      </trkpt>
      <trkpt lat="45.21036" lon="5.73194">
        <ele>600.20001220703</ele>
        <time>2026-08-12T18:42:09.000Z</time>
      </trkpt>
      <trkpt lat="45.21034" lon="5.73192">
        <ele>600</ele>
        <time>2026-08-12T18:42:10.000Z</time>
      </trkpt>
      <trkpt lat="45.21032" lon="5.73191">
        <ele>599.59997558594</ele>
        <time>2026-08-12T18:42:11.000Z</time>
      </trkpt>
      <trkpt lat="45.2103" lon="5.7319">
        <ele>599.40002441406</ele>
        <time>2026-08-12T18:42:12.000Z</time>
      </trkpt>
      <trkpt lat="45.21028" lon="5.73189">
        <ele>599</ele>
        <time>2026-08-12T18:42:13.000Z</time>
      </trkpt>
      <trkpt lat="45.21026" lon="5.73187">
        <ele>598.59997558594</ele>
        <time>2026-08-12T18:42:14.000Z</time>
      </trkpt>
      <trkpt lat="45.21025" lon="5.73184">
        <ele>598.40002441406</ele>
        <time>2026-08-12T18:42:15.000Z</time>
      </trkpt>
      <trkpt lat="45.21024" lon="5.73183">
        <ele>598.20001220703</ele>
        <time>2026-08-12T18:42:16.000Z</time>
      </trkpt>
      <trkpt lat="45.21022" lon="5.73181">
        <ele>597.79998779297</ele>
        <time>2026-08-12T18:42:17.000Z</time>
      </trkpt>
      <trkpt lat="45.21021" lon="5.7318">
        <ele>597.59997558594</ele>
        <time>2026-08-12T18:42:18.000Z</time>
      </trkpt>
      <trkpt lat="45.2102" lon="5.7318">
        <ele>597.40002441406</ele>
        <time>2026-08-12T18:42:19.000Z</time>
      </trkpt>
      <trkpt lat="45.21019" lon="5.7318">
        <ele>597.40002441406</ele>
        <time>2026-08-12T18:42:20.000Z</time>
      </trkpt>
      <trkpt lat="45.21018" lon="5.73181">
        <ele>597.40002441406</ele>
        <time>2026-08-12T18:42:21.000Z</time>
      </trkpt>
      <trkpt lat="45.21018" lon="5.73182">
        <ele>597.20001220703</ele>
        <time>2026-08-12T18:42:22.000Z</time>
      </trkpt>
      <trkpt lat="45.21015" lon="5.73182">
        <ele>597.20001220703</ele>
        <time>2026-08-12T18:42:23.000Z</time>
      </trkpt>
      <trkpt lat="45.21014" lon="5.73183">
        <ele>596.79998779297</ele>
        <time>2026-08-12T18:42:24.000Z</time>
      </trkpt>
      <trkpt lat="45.21013" lon="5.73183">
        <ele>596.40002441406</ele>
        <time>2026-08-12T18:42:25.000Z</time>
      </trkpt>
      <trkpt lat="45.21013" lon="5.73184">
        <ele>596.20001220703</ele>
        <time>2026-08-12T18:42:26.000Z</time>
      </trkpt>
      <trkpt lat="45.21012" lon="5.73185">
        <ele>596</ele>
        <time>2026-08-12T18:42:27.000Z</time>
      </trkpt>
      <trkpt lat="45.21011" lon="5.73186">
        <ele>595.79998779297</ele>
        <time>2026-08-12T18:42:28.000Z</time>
      </trkpt>
      <trkpt lat="45.2101" lon="5.73188">
        <ele>595.79998779297</ele>
        <time>2026-08-12T18:42:29.000Z</time>
      </trkpt>
      <trkpt lat="45.2101" lon="5.7319">
        <ele>595.59997558594</ele>
        <time>2026-08-12T18:42:30.000Z</time>
      </trkpt>
      <trkpt lat="45.21008" lon="5.73191">
        <ele>595</ele>
        <time>2026-08-12T18:42:31.000Z</time>
      </trkpt>
      <trkpt lat="45.21007" lon="5.73193">
        <ele>594.59997558594</ele>
        <time>2026-08-12T18:42:32.000Z</time>
      </trkpt>
      <trkpt lat="45.21006" lon="5.73195">
        <ele>594.40002441406</ele>
        <time>2026-08-12T18:42:33.000Z</time>
      </trkpt>
      <trkpt lat="45.21004" lon="5.73196">
        <ele>593.79998779297</ele>
        <time>2026-08-12T18:42:34.000Z</time>
      </trkpt>
      <trkpt lat="45.21002" lon="5.73198">
        <ele>593.59997558594</ele>
        <time>2026-08-12T18:42:35.000Z</time>
      </trkpt>
      <trkpt lat="45.21001" lon="5.732">
        <ele>592.79998779297</ele>
        <time>2026-08-12T18:42:36.000Z</time>
      </trkpt>
      <trkpt lat="45.20999" lon="5.73202">
        <ele>592.59997558594</ele>
        <time>2026-08-12T18:42:37.000Z</time>
      </trkpt>
      <trkpt lat="45.20998" lon="5.73203">
        <ele>592.40002441406</ele>
        <time>2026-08-12T18:42:38.000Z</time>
      </trkpt>
      <trkpt lat="45.20997" lon="5.73205">
        <ele>592</ele>
        <time>2026-08-12T18:42:39.000Z</time>
      </trkpt>
      <trkpt lat="45.20996" lon="5.73207">
        <ele>591.59997558594</ele>
        <time>2026-08-12T18:42:40.000Z</time>
      </trkpt>
      <trkpt lat="45.20994" lon="5.73209">
        <ele>591.20001220703</ele>
        <time>2026-08-12T18:42:41.000Z</time>
      </trkpt>
      <trkpt lat="45.20992" lon="5.73212">
        <ele>591</ele>
        <time>2026-08-12T18:42:42.000Z</time>
      </trkpt>
      <trkpt lat="45.20991" lon="5.73213">
        <ele>590.79998779297</ele>
        <time>2026-08-12T18:42:43.000Z</time>
      </trkpt>
      <trkpt lat="45.20988" lon="5.73215">
        <ele>590.59997558594</ele>
        <time>2026-08-12T18:42:44.000Z</time>
      </trkpt>
      <trkpt lat="45.20986" lon="5.73216">
        <ele>590.40002441406</ele>
        <time>2026-08-12T18:42:45.000Z</time>
      </trkpt>
      <trkpt lat="45.20984" lon="5.73217">
        <ele>590</ele>
        <time>2026-08-12T18:42:46.000Z</time>
      </trkpt>
      <trkpt lat="45.20982" lon="5.73218">
        <ele>589.59997558594</ele>
        <time>2026-08-12T18:42:47.000Z</time>
      </trkpt>
      <trkpt lat="45.2098" lon="5.73219">
        <ele>589.20001220703</ele>
        <time>2026-08-12T18:42:48.000Z</time>
      </trkpt>
      <trkpt lat="45.20978" lon="5.73218">
        <ele>589</ele>
        <time>2026-08-12T18:42:49.000Z</time>
      </trkpt>
      <trkpt lat="45.20976" lon="5.73218">
        <ele>588.79998779297</ele>
        <time>2026-08-12T18:42:50.000Z</time>
      </trkpt>
      <trkpt lat="45.20977" lon="5.73219">
        <ele>588.20001220703</ele>
        <time>2026-08-12T18:42:51.000Z</time>
      </trkpt>
      <trkpt lat="45.20977" lon="5.73219">
        <ele>587.79998779297</ele>
        <time>2026-08-12T18:42:52.000Z</time>
      </trkpt>
      <trkpt lat="45.20978" lon="5.73219">
        <ele>587.40002441406</ele>
        <time>2026-08-12T18:42:53.000Z</time>
      </trkpt>
      <trkpt lat="45.20978" lon="5.73218">
        <ele>587</ele>
        <time>2026-08-12T18:42:54.000Z</time>
      </trkpt>
      <trkpt lat="45.20979" lon="5.73217">
        <ele>586.79998779297</ele>
        <time>2026-08-12T18:42:55.000Z</time>
      </trkpt>
      <trkpt lat="45.20981" lon="5.73216">
        <ele>586.40002441406</ele>
        <time>2026-08-12T18:42:56.000Z</time>
      </trkpt>
      <trkpt lat="45.20982" lon="5.73216">
        <ele>586.20001220703</ele>
        <time>2026-08-12T18:42:57.000Z</time>
      </trkpt>
      <trkpt lat="45.20984" lon="5.73216">
        <ele>586</ele>
        <time>2026-08-12T18:42:58.000Z</time>
      </trkpt>
      <trkpt lat="45.20985" lon="5.73216">
        <ele>585.79998779297</ele>
        <time>2026-08-12T18:42:59.000Z</time>
      </trkpt>
      <trkpt lat="45.20987" lon="5.73215">
        <ele>585.59997558594</ele>
        <time>2026-08-12T18:43:00.000Z</time>
      </trkpt>
      <trkpt lat="45.20987" lon="5.73215">
        <ele>585.40002441406</ele>
        <time>2026-08-12T18:43:01.000Z</time>
      </trkpt>
      <trkpt lat="45.20987" lon="5.73215">
        <ele>585.20001220703</ele>
        <time>2026-08-12T18:43:02.000Z</time>
      </trkpt>
      <trkpt lat="45.20987" lon="5.73215">
        <ele>585</ele>
        <time>2026-08-12T18:43:03.000Z</time>
      </trkpt>
      <trkpt lat="45.20987" lon="5.73215">
        <ele>585</ele>
        <time>2026-08-12T18:43:04.000Z</time>
      </trkpt>
      <trkpt lat="45.20987" lon="5.73215">
        <ele>585</ele>
        <time>2026-08-12T18:43:05.000Z</time>
      </trkpt>
      <trkpt lat="45.20987" lon="5.73215">
        <ele>585</ele>
        <time>2026-08-12T18:43:06.000Z</time>
      </trkpt>
      <trkpt lat="45.20987" lon="5.73215">
        <ele>585</ele>
        <time>2026-08-12T18:43:07.000Z</time>
      </trkpt>
      <trkpt lat="45.20987" lon="5.73215">
        <ele>585</ele>
        <time>2026-08-12T18:43:08.000Z</time>
      </trkpt>
      <trkpt lat="45.20987" lon="5.73215">
        <ele>585.20001220703</ele>
        <time>2026-08-12T18:43:09.000Z</time>
      </trkpt>
      <trkpt lat="45.20987" lon="5.73215">
        <ele>585.20001220703</ele>
        <time>2026-08-12T18:43:10.000Z</time>
      </trkpt>
      <trkpt lat="45.20987" lon="5.73215">
        <ele>585.20001220703</ele>
        <time>2026-08-12T18:43:11.000Z</time>
      </trkpt>
      <trkpt lat="45.20987" lon="5.73215">
        <ele>585.20001220703</ele>
        <time>2026-08-12T18:43:12.000Z</time>
      </trkpt>
      <trkpt lat="45.20987" lon="5.73215">
        <ele>585.20001220703</ele>
        <time>2026-08-12T18:43:13.000Z</time>
      </trkpt>
      <trkpt lat="45.20987" lon="5.73215">
        <ele>585.20001220703</ele>
        <time>2026-08-12T18:43:14.000Z</time>
      </trkpt>
      <trkpt lat="45.20987" lon="5.73215">
        <ele>585.20001220703</ele>
        <time>2026-08-12T18:43:15.000Z</time>
      </trkpt>
      <trkpt lat="45.20987" lon="5.73215">
        <ele>585.20001220703</ele>
        <time>2026-08-12T18:43:16.000Z</time>
      </trkpt>
      <trkpt lat="45.20987" lon="5.73215">
        <ele>585.20001220703</ele>
        <time>2026-08-12T18:43:17.000Z</time>
      </trkpt>
      <trkpt lat="45.20987" lon="5.73215">
        <ele>585.20001220703</ele>
        <time>2026-08-12T18:43:18.000Z</time>
      </trkpt>
      <trkpt lat="45.20987" lon="5.73215">
        <ele>585.20001220703</ele>
        <time>2026-08-12T18:43:19.000Z</time>
      </trkpt>
      <trkpt lat="45.20987" lon="5.73215">
        <ele>585</ele>
        <time>2026-08-12T18:43:20.000Z</time>
      </trkpt>
      <trkpt lat="45.20987" lon="5.73215">
        <ele>585</ele>
        <time>2026-08-12T18:43:21.000Z</time>
      </trkpt>
      <trkpt lat="45.20987" lon="5.73215">
        <ele>585.20001220703</ele>
        <time>2026-08-12T18:43:22.000Z</time>
      </trkpt>
      <trkpt lat="45.20987" lon="5.73215">
        <ele>585</ele>
        <time>2026-08-12T18:43:23.000Z</time>
      </trkpt>
      <trkpt lat="45.20987" lon="5.73215">
        <ele>585</ele>
        <time>2026-08-12T18:43:24.000Z</time>
      </trkpt>
      <trkpt lat="45.20987" lon="5.73215">
        <ele>585</ele>
        <time>2026-08-12T18:43:25.000Z</time>
      </trkpt>
      <trkpt lat="45.20987" lon="5.73215">
        <ele>585</ele>
        <time>2026-08-12T18:43:26.000Z</time>
      </trkpt>
      <trkpt lat="45.20987" lon="5.73215">
        <ele>585</ele>
        <time>2026-08-12T18:43:27.000Z</time>
      </trkpt>
      <trkpt lat="45.20987" lon="5.73215">
        <ele>585</ele>
        <time>2026-08-12T18:43:28.000Z</time>
      </trkpt>
      <trkpt lat="45.20988" lon="5.73214">
        <ele>585</ele>
        <time>2026-08-12T18:43:29.000Z</time>
      </trkpt>
      <trkpt lat="45.20989" lon="5.73213">
        <ele>585</ele>
        <time>2026-08-12T18:43:30.000Z</time>
      </trkpt>
      <trkpt lat="45.2099" lon="5.73214">
        <ele>585</ele>
        <time>2026-08-12T18:43:31.000Z</time>
      </trkpt>
      <trkpt lat="45.20988" lon="5.73215">
        <ele>584.79998779297</ele>
        <time>2026-08-12T18:43:32.000Z</time>
      </trkpt>
      <trkpt lat="45.20986" lon="5.73214">
        <ele>584.40002441406</ele>
        <time>2026-08-12T18:43:33.000Z</time>
      </trkpt>
      <trkpt lat="45.20985" lon="5.73215">
        <ele>584</ele>
        <time>2026-08-12T18:43:34.000Z</time>
      </trkpt>
      <trkpt lat="45.20984" lon="5.73215">
        <ele>583.59997558594</ele>
        <time>2026-08-12T18:43:35.000Z</time>
      </trkpt>
      <trkpt lat="45.20983" lon="5.73216">
        <ele>583.40002441406</ele>
        <time>2026-08-12T18:43:36.000Z</time>
      </trkpt>
      <trkpt lat="45.20981" lon="5.73217">
        <ele>583.20001220703</ele>
        <time>2026-08-12T18:43:37.000Z</time>
      </trkpt>
      <trkpt lat="45.20979" lon="5.73218">
        <ele>583</ele>
        <time>2026-08-12T18:43:38.000Z</time>
      </trkpt>
      <trkpt lat="45.20978" lon="5.73218">
        <ele>582.59997558594</ele>
        <time>2026-08-12T18:43:39.000Z</time>
      </trkpt>
      <trkpt lat="45.20975" lon="5.73219">
        <ele>582.20001220703</ele>
        <time>2026-08-12T18:43:40.000Z</time>
      </trkpt>
      <trkpt lat="45.20973" lon="5.73219">
        <ele>581.79998779297</ele>
        <time>2026-08-12T18:43:41.000Z</time>
      </trkpt>
      <trkpt lat="45.20971" lon="5.73219">
        <ele>581.40002441406</ele>
        <time>2026-08-12T18:43:42.000Z</time>
      </trkpt>
      <trkpt lat="45.20969" lon="5.7322">
        <ele>581.20001220703</ele>
        <time>2026-08-12T18:43:43.000Z</time>
      </trkpt>
      <trkpt lat="45.20967" lon="5.7322">
        <ele>581</ele>
        <time>2026-08-12T18:43:44.000Z</time>
      </trkpt>
      <trkpt lat="45.20964" lon="5.7322">
        <ele>580.59997558594</ele>
        <time>2026-08-12T18:43:45.000Z</time>
      </trkpt>
      <trkpt lat="45.20963" lon="5.73221">
        <ele>580.20001220703</ele>
        <time>2026-08-12T18:43:46.000Z</time>
      </trkpt>
      <trkpt lat="45.20961" lon="5.73222">
        <ele>580</ele>
        <time>2026-08-12T18:43:47.000Z</time>
      </trkpt>
      <trkpt lat="45.2096" lon="5.73223">
        <ele>579.79998779297</ele>
        <time>2026-08-12T18:43:48.000Z</time>
      </trkpt>
      <trkpt lat="45.20958" lon="5.73224">
        <ele>579.40002441406</ele>
        <time>2026-08-12T18:43:49.000Z</time>
      </trkpt>
      <trkpt lat="45.20956" lon="5.73224">
        <ele>579</ele>
        <time>2026-08-12T18:43:50.000Z</time>
      </trkpt>
      <trkpt lat="45.20954" lon="5.73226">
        <ele>578.59997558594</ele>
        <time>2026-08-12T18:43:51.000Z</time>
      </trkpt>
      <trkpt lat="45.20952" lon="5.73227">
        <ele>578.40002441406</ele>
        <time>2026-08-12T18:43:52.000Z</time>
      </trkpt>
      <trkpt lat="45.2095" lon="5.73228">
        <ele>578.20001220703</ele>
        <time>2026-08-12T18:43:53.000Z</time>
      </trkpt>
      <trkpt lat="45.20948" lon="5.73228">
        <ele>577.59997558594</ele>
        <time>2026-08-12T18:43:54.000Z</time>
      </trkpt>
      <trkpt lat="45.20945" lon="5.73229">
        <ele>577.20001220703</ele>
        <time>2026-08-12T18:43:55.000Z</time>
      </trkpt>
      <trkpt lat="45.20944" lon="5.73229">
        <ele>576.79998779297</ele>
        <time>2026-08-12T18:43:56.000Z</time>
      </trkpt>
      <trkpt lat="45.20942" lon="5.73229">
        <ele>576.59997558594</ele>
        <time>2026-08-12T18:43:57.000Z</time>
      </trkpt>
      <trkpt lat="45.2094" lon="5.73228">
        <ele>576.59997558594</ele>
        <time>2026-08-12T18:43:58.000Z</time>
      </trkpt>
      <trkpt lat="45.20938" lon="5.73228">
        <ele>576.20001220703</ele>
        <time>2026-08-12T18:43:59.000Z</time>
      </trkpt>
      <trkpt lat="45.20936" lon="5.73227">
        <ele>576.20001220703</ele>
        <time>2026-08-12T18:44:00.000Z</time>
      </trkpt>
      <trkpt lat="45.20935" lon="5.73226">
        <ele>575.79998779297</ele>
        <time>2026-08-12T18:44:01.000Z</time>
      </trkpt>
      <trkpt lat="45.20935" lon="5.73226">
        <ele>575.40002441406</ele>
        <time>2026-08-12T18:44:02.000Z</time>
      </trkpt>
      <trkpt lat="45.20933" lon="5.73226">
        <ele>575.20001220703</ele>
        <time>2026-08-12T18:44:03.000Z</time>
      </trkpt>
      <trkpt lat="45.20932" lon="5.73225">
        <ele>574.79998779297</ele>
        <time>2026-08-12T18:44:04.000Z</time>
      </trkpt>
      <trkpt lat="45.20931" lon="5.73225">
        <ele>574.59997558594</ele>
        <time>2026-08-12T18:44:05.000Z</time>
      </trkpt>
      <trkpt lat="45.20931" lon="5.73226">
        <ele>574.20001220703</ele>
        <time>2026-08-12T18:44:06.000Z</time>
      </trkpt>
      <trkpt lat="45.20933" lon="5.73227">
        <ele>573.79998779297</ele>
        <time>2026-08-12T18:44:07.000Z</time>
      </trkpt>
      <trkpt lat="45.20935" lon="5.73228">
        <ele>573.40002441406</ele>
        <time>2026-08-12T18:44:08.000Z</time>
      </trkpt>
      <trkpt lat="45.20936" lon="5.73228">
        <ele>573</ele>
        <time>2026-08-12T18:44:09.000Z</time>
      </trkpt>
      <trkpt lat="45.20937" lon="5.73229">
        <ele>572.79998779297</ele>
        <time>2026-08-12T18:44:10.000Z</time>
      </trkpt>
      <trkpt lat="45.20939" lon="5.7323">
        <ele>572.40002441406</ele>
        <time>2026-08-12T18:44:11.000Z</time>
      </trkpt>
      <trkpt lat="45.2094" lon="5.73231">
        <ele>572.20001220703</ele>
        <time>2026-08-12T18:44:12.000Z</time>
      </trkpt>
      <trkpt lat="45.20941" lon="5.73232">
        <ele>572</ele>
        <time>2026-08-12T18:44:13.000Z</time>
      </trkpt>
      <trkpt lat="45.20943" lon="5.73232">
        <ele>571.59997558594</ele>
        <time>2026-08-12T18:44:14.000Z</time>
      </trkpt>
      <trkpt lat="45.20945" lon="5.73233">
        <ele>571.40002441406</ele>
        <time>2026-08-12T18:44:15.000Z</time>
      </trkpt>
      <trkpt lat="45.20947" lon="5.73233">
        <ele>571.20001220703</ele>
        <time>2026-08-12T18:44:16.000Z</time>
      </trkpt>
      <trkpt lat="45.20948" lon="5.73233">
        <ele>570.79998779297</ele>
        <time>2026-08-12T18:44:17.000Z</time>
      </trkpt>
      <trkpt lat="45.2095" lon="5.73233">
        <ele>570.40002441406</ele>
        <time>2026-08-12T18:44:18.000Z</time>
      </trkpt>
      <trkpt lat="45.20952" lon="5.73233">
        <ele>569.79998779297</ele>
        <time>2026-08-12T18:44:19.000Z</time>
      </trkpt>
      <trkpt lat="45.20954" lon="5.73233">
        <ele>569.40002441406</ele>
        <time>2026-08-12T18:44:20.000Z</time>
      </trkpt>
      <trkpt lat="45.20956" lon="5.73233">
        <ele>569</ele>
        <time>2026-08-12T18:44:21.000Z</time>
      </trkpt>
      <trkpt lat="45.20958" lon="5.73232">
        <ele>568.79998779297</ele>
        <time>2026-08-12T18:44:22.000Z</time>
      </trkpt>
      <trkpt lat="45.2096" lon="5.73231">
        <ele>568.59997558594</ele>
        <time>2026-08-12T18:44:23.000Z</time>
      </trkpt>
      <trkpt lat="45.20962" lon="5.73231">
        <ele>568.40002441406</ele>
        <time>2026-08-12T18:44:24.000Z</time>
      </trkpt>
      <trkpt lat="45.20964" lon="5.73232">
        <ele>568</ele>
        <time>2026-08-12T18:44:25.000Z</time>
      </trkpt>
      <trkpt lat="45.20966" lon="5.73234">
        <ele>567.59997558594</ele>
        <time>2026-08-12T18:44:26.000Z</time>
      </trkpt>
      <trkpt lat="45.20968" lon="5.73235">
        <ele>567.20001220703</ele>
        <time>2026-08-12T18:44:27.000Z</time>
      </trkpt>
      <trkpt lat="45.20969" lon="5.73236">
        <ele>567</ele>
        <time>2026-08-12T18:44:28.000Z</time>
      </trkpt>
      <trkpt lat="45.20972" lon="5.73237">
        <ele>566.79998779297</ele>
        <time>2026-08-12T18:44:29.000Z</time>
      </trkpt>
      <trkpt lat="45.20973" lon="5.73237">
        <ele>566.59997558594</ele>
        <time>2026-08-12T18:44:30.000Z</time>
      </trkpt>
      <trkpt lat="45.20975" lon="5.73237">
        <ele>566.20001220703</ele>
        <time>2026-08-12T18:44:31.000Z</time>
      </trkpt>
      <trkpt lat="45.20977" lon="5.73237">
        <ele>566</ele>
        <time>2026-08-12T18:44:32.000Z</time>
      </trkpt>
      <trkpt lat="45.20979" lon="5.73238">
        <ele>565.79998779297</ele>
        <time>2026-08-12T18:44:33.000Z</time>
      </trkpt>
      <trkpt lat="45.2098" lon="5.73239">
        <ele>565.59997558594</ele>
        <time>2026-08-12T18:44:34.000Z</time>
      </trkpt>
      <trkpt lat="45.20981" lon="5.7324">
        <ele>565.40002441406</ele>
        <time>2026-08-12T18:44:35.000Z</time>
      </trkpt>
      <trkpt lat="45.20983" lon="5.73241">
        <ele>565</ele>
        <time>2026-08-12T18:44:36.000Z</time>
      </trkpt>
      <trkpt lat="45.20984" lon="5.73241">
        <ele>564.79998779297</ele>
        <time>2026-08-12T18:44:37.000Z</time>
      </trkpt>
      <trkpt lat="45.20984" lon="5.73242">
        <ele>564.59997558594</ele>
        <time>2026-08-12T18:44:38.000Z</time>
      </trkpt>
      <trkpt lat="45.20986" lon="5.73242">
        <ele>564.59997558594</ele>
        <time>2026-08-12T18:44:39.000Z</time>
      </trkpt>
      <trkpt lat="45.20988" lon="5.73242">
        <ele>564.20001220703</ele>
        <time>2026-08-12T18:44:40.000Z</time>
      </trkpt>
      <trkpt lat="45.20989" lon="5.73244">
        <ele>564</ele>
        <time>2026-08-12T18:44:41.000Z</time>
      </trkpt>
      <trkpt lat="45.20988" lon="5.73245">
        <ele>563.59997558594</ele>
        <time>2026-08-12T18:44:42.000Z</time>
      </trkpt>
      <trkpt lat="45.20986" lon="5.73246">
        <ele>563.20001220703</ele>
        <time>2026-08-12T18:44:43.000Z</time>
      </trkpt>
      <trkpt lat="45.20984" lon="5.73248">
        <ele>563</ele>
        <time>2026-08-12T18:44:44.000Z</time>
      </trkpt>
      <trkpt lat="45.20983" lon="5.73249">
        <ele>562.59997558594</ele>
        <time>2026-08-12T18:44:45.000Z</time>
      </trkpt>
      <trkpt lat="45.20982" lon="5.73251">
        <ele>562.20001220703</ele>
        <time>2026-08-12T18:44:46.000Z</time>
      </trkpt>
      <trkpt lat="45.2098" lon="5.73254">
        <ele>561.79998779297</ele>
        <time>2026-08-12T18:44:47.000Z</time>
      </trkpt>
      <trkpt lat="45.20978" lon="5.73253">
        <ele>561.40002441406</ele>
        <time>2026-08-12T18:44:48.000Z</time>
      </trkpt>
      <trkpt lat="45.20976" lon="5.73254">
        <ele>561.20001220703</ele>
        <time>2026-08-12T18:44:49.000Z</time>
      </trkpt>
      <trkpt lat="45.20974" lon="5.73254">
        <ele>561</ele>
        <time>2026-08-12T18:44:50.000Z</time>
      </trkpt>
      <trkpt lat="45.20972" lon="5.73254">
        <ele>560.59997558594</ele>
        <time>2026-08-12T18:44:51.000Z</time>
      </trkpt>
      <trkpt lat="45.2097" lon="5.73255">
        <ele>560</ele>
        <time>2026-08-12T18:44:52.000Z</time>
      </trkpt>
      <trkpt lat="45.20968" lon="5.73256">
        <ele>559.79998779297</ele>
        <time>2026-08-12T18:44:53.000Z</time>
      </trkpt>
      <trkpt lat="45.20967" lon="5.73255">
        <ele>559.40002441406</ele>
        <time>2026-08-12T18:44:54.000Z</time>
      </trkpt>
      <trkpt lat="45.20964" lon="5.73255">
        <ele>559.20001220703</ele>
        <time>2026-08-12T18:44:55.000Z</time>
      </trkpt>
      <trkpt lat="45.20962" lon="5.73257">
        <ele>558.79998779297</ele>
        <time>2026-08-12T18:44:56.000Z</time>
      </trkpt>
      <trkpt lat="45.20961" lon="5.73258">
        <ele>558.59997558594</ele>
        <time>2026-08-12T18:44:57.000Z</time>
      </trkpt>
      <trkpt lat="45.20959" lon="5.7326">
        <ele>558.20001220703</ele>
        <time>2026-08-12T18:44:58.000Z</time>
      </trkpt>
      <trkpt lat="45.20958" lon="5.7326">
        <ele>557.79998779297</ele>
        <time>2026-08-12T18:44:59.000Z</time>
      </trkpt>
      <trkpt lat="45.20956" lon="5.73261">
        <ele>557.20001220703</ele>
        <time>2026-08-12T18:45:00.000Z</time>
      </trkpt>
      <trkpt lat="45.20955" lon="5.73262">
        <ele>556.79998779297</ele>
        <time>2026-08-12T18:45:01.000Z</time>
      </trkpt>
      <trkpt lat="45.20953" lon="5.73264">
        <ele>556.40002441406</ele>
        <time>2026-08-12T18:45:02.000Z</time>
      </trkpt>
      <trkpt lat="45.20951" lon="5.73264">
        <ele>556.20001220703</ele>
        <time>2026-08-12T18:45:03.000Z</time>
      </trkpt>
      <trkpt lat="45.20949" lon="5.73265">
        <ele>556</ele>
        <time>2026-08-12T18:45:04.000Z</time>
      </trkpt>
      <trkpt lat="45.20946" lon="5.73265">
        <ele>555.79998779297</ele>
        <time>2026-08-12T18:45:05.000Z</time>
      </trkpt>
      <trkpt lat="45.20943" lon="5.73264">
        <ele>555.59997558594</ele>
        <time>2026-08-12T18:45:06.000Z</time>
      </trkpt>
      <trkpt lat="45.20941" lon="5.73263">
        <ele>555.40002441406</ele>
        <time>2026-08-12T18:45:07.000Z</time>
      </trkpt>
      <trkpt lat="45.20939" lon="5.73264">
        <ele>555</ele>
        <time>2026-08-12T18:45:08.000Z</time>
      </trkpt>
      <trkpt lat="45.20937" lon="5.73263">
        <ele>554.79998779297</ele>
        <time>2026-08-12T18:45:09.000Z</time>
      </trkpt>
      <trkpt lat="45.20935" lon="5.73263">
        <ele>554.20001220703</ele>
        <time>2026-08-12T18:45:10.000Z</time>
      </trkpt>
      <trkpt lat="45.20933" lon="5.73263">
        <ele>553.79998779297</ele>
        <time>2026-08-12T18:45:11.000Z</time>
      </trkpt>
      <trkpt lat="45.20931" lon="5.73263">
        <ele>553</ele>
        <time>2026-08-12T18:45:12.000Z</time>
      </trkpt>
      <trkpt lat="45.20929" lon="5.73263">
        <ele>552.79998779297</ele>
        <time>2026-08-12T18:45:13.000Z</time>
      </trkpt>
      <trkpt lat="45.20927" lon="5.73263">
        <ele>552.59997558594</ele>
        <time>2026-08-12T18:45:14.000Z</time>
      </trkpt>
      <trkpt lat="45.20926" lon="5.73263">
        <ele>551.79998779297</ele>
        <time>2026-08-12T18:45:15.000Z</time>
      </trkpt>
      <trkpt lat="45.20924" lon="5.73264">
        <ele>551.40002441406</ele>
        <time>2026-08-12T18:45:16.000Z</time>
      </trkpt>
      <trkpt lat="45.20922" lon="5.73263">
        <ele>551</ele>
        <time>2026-08-12T18:45:17.000Z</time>
      </trkpt>
      <trkpt lat="45.2092" lon="5.73263">
        <ele>550.59997558594</ele>
        <time>2026-08-12T18:45:18.000Z</time>
      </trkpt>
      <trkpt lat="45.20918" lon="5.73263">
        <ele>550.40002441406</ele>
        <time>2026-08-12T18:45:19.000Z</time>
      </trkpt>
      <trkpt lat="45.20917" lon="5.73262">
        <ele>549.79998779297</ele>
        <time>2026-08-12T18:45:20.000Z</time>
      </trkpt>
      <trkpt lat="45.20915" lon="5.73262">
        <ele>549.40002441406</ele>
        <time>2026-08-12T18:45:21.000Z</time>
      </trkpt>
      <trkpt lat="45.20913" lon="5.73262">
        <ele>549</ele>
        <time>2026-08-12T18:45:22.000Z</time>
      </trkpt>
      <trkpt lat="45.20911" lon="5.73261">
        <ele>548.59997558594</ele>
        <time>2026-08-12T18:45:23.000Z</time>
      </trkpt>
      <trkpt lat="45.2091" lon="5.7326">
        <ele>548.59997558594</ele>
        <time>2026-08-12T18:45:24.000Z</time>
      </trkpt>
      <trkpt lat="45.2091" lon="5.7326">
        <ele>548.40002441406</ele>
        <time>2026-08-12T18:45:25.000Z</time>
      </trkpt>
      <trkpt lat="45.2091" lon="5.73261">
        <ele>548</ele>
        <time>2026-08-12T18:45:26.000Z</time>
      </trkpt>
      <trkpt lat="45.20911" lon="5.73261">
        <ele>547.79998779297</ele>
        <time>2026-08-12T18:45:27.000Z</time>
      </trkpt>
      <trkpt lat="45.20913" lon="5.73261">
        <ele>547.40002441406</ele>
        <time>2026-08-12T18:45:28.000Z</time>
      </trkpt>
      <trkpt lat="45.20914" lon="5.73261">
        <ele>547.20001220703</ele>
        <time>2026-08-12T18:45:29.000Z</time>
      </trkpt>
      <trkpt lat="45.20915" lon="5.73262">
        <ele>547</ele>
        <time>2026-08-12T18:45:30.000Z</time>
      </trkpt>
      <trkpt lat="45.20917" lon="5.73263">
        <ele>546.40002441406</ele>
        <time>2026-08-12T18:45:31.000Z</time>
      </trkpt>
      <trkpt lat="45.20919" lon="5.73263">
        <ele>546.20001220703</ele>
        <time>2026-08-12T18:45:32.000Z</time>
      </trkpt>
      <trkpt lat="45.20921" lon="5.73264">
        <ele>545.59997558594</ele>
        <time>2026-08-12T18:45:33.000Z</time>
      </trkpt>
      <trkpt lat="45.20923" lon="5.73264">
        <ele>545.20001220703</ele>
        <time>2026-08-12T18:45:34.000Z</time>
      </trkpt>
      <trkpt lat="45.20925" lon="5.73265">
        <ele>544.59997558594</ele>
        <time>2026-08-12T18:45:35.000Z</time>
      </trkpt>
      <trkpt lat="45.20927" lon="5.73266">
        <ele>544.40002441406</ele>
        <time>2026-08-12T18:45:36.000Z</time>
      </trkpt>
      <trkpt lat="45.20929" lon="5.73266">
        <ele>544</ele>
        <time>2026-08-12T18:45:37.000Z</time>
      </trkpt>
      <trkpt lat="45.20931" lon="5.73268">
        <ele>543.59997558594</ele>
        <time>2026-08-12T18:45:38.000Z</time>
      </trkpt>
      <trkpt lat="45.20933" lon="5.73269">
        <ele>543.59997558594</ele>
        <time>2026-08-12T18:45:39.000Z</time>
      </trkpt>
      <trkpt lat="45.20935" lon="5.73271">
        <ele>543.20001220703</ele>
        <time>2026-08-12T18:45:40.000Z</time>
      </trkpt>
      <trkpt lat="45.20936" lon="5.73273">
        <ele>542.79998779297</ele>
        <time>2026-08-12T18:45:41.000Z</time>
      </trkpt>
      <trkpt lat="45.20938" lon="5.73274">
        <ele>542.40002441406</ele>
        <time>2026-08-12T18:45:42.000Z</time>
      </trkpt>
      <trkpt lat="45.2094" lon="5.73276">
        <ele>542</ele>
        <time>2026-08-12T18:45:43.000Z</time>
      </trkpt>
      <trkpt lat="45.20941" lon="5.73278">
        <ele>541.79998779297</ele>
        <time>2026-08-12T18:45:44.000Z</time>
      </trkpt>
      <trkpt lat="45.20943" lon="5.7328">
        <ele>541.40002441406</ele>
        <time>2026-08-12T18:45:45.000Z</time>
      </trkpt>
      <trkpt lat="45.20945" lon="5.73281">
        <ele>541.20001220703</ele>
        <time>2026-08-12T18:45:46.000Z</time>
      </trkpt>
      <trkpt lat="45.20946" lon="5.73282">
        <ele>541</ele>
        <time>2026-08-12T18:45:47.000Z</time>
      </trkpt>
      <trkpt lat="45.20947" lon="5.73284">
        <ele>540.79998779297</ele>
        <time>2026-08-12T18:45:48.000Z</time>
      </trkpt>
      <trkpt lat="45.20949" lon="5.73284">
        <ele>540.40002441406</ele>
        <time>2026-08-12T18:45:49.000Z</time>
      </trkpt>
      <trkpt lat="45.2095" lon="5.73284">
        <ele>540.20001220703</ele>
        <time>2026-08-12T18:45:50.000Z</time>
      </trkpt>
      <trkpt lat="45.20951" lon="5.73284">
        <ele>539.79998779297</ele>
        <time>2026-08-12T18:45:51.000Z</time>
      </trkpt>
      <trkpt lat="45.20953" lon="5.73283">
        <ele>539.59997558594</ele>
        <time>2026-08-12T18:45:52.000Z</time>
      </trkpt>
      <trkpt lat="45.20954" lon="5.73284">
        <ele>539.20001220703</ele>
        <time>2026-08-12T18:45:53.000Z</time>
      </trkpt>
      <trkpt lat="45.20956" lon="5.73284">
        <ele>538.59997558594</ele>
        <time>2026-08-12T18:45:54.000Z</time>
      </trkpt>
      <trkpt lat="45.20958" lon="5.73283">
        <ele>538.40002441406</ele>
        <time>2026-08-12T18:45:55.000Z</time>
      </trkpt>
      <trkpt lat="45.2096" lon="5.73284">
        <ele>538</ele>
        <time>2026-08-12T18:45:56.000Z</time>
      </trkpt>
      <trkpt lat="45.20962" lon="5.73284">
        <ele>537.40002441406</ele>
        <time>2026-08-12T18:45:57.000Z</time>
      </trkpt>
      <trkpt lat="45.20964" lon="5.73284">
        <ele>537</ele>
        <time>2026-08-12T18:45:58.000Z</time>
      </trkpt>
      <trkpt lat="45.20966" lon="5.73285">
        <ele>536.59997558594</ele>
        <time>2026-08-12T18:45:59.000Z</time>
      </trkpt>
      <trkpt lat="45.20968" lon="5.73286">
        <ele>536</ele>
        <time>2026-08-12T18:46:00.000Z</time>
      </trkpt>
      <trkpt lat="45.2097" lon="5.73287">
        <ele>535.79998779297</ele>
        <time>2026-08-12T18:46:01.000Z</time>
      </trkpt>
      <trkpt lat="45.20972" lon="5.73287">
        <ele>535.40002441406</ele>
        <time>2026-08-12T18:46:02.000Z</time>
      </trkpt>
      <trkpt lat="45.20973" lon="5.73288">
        <ele>535.20001220703</ele>
        <time>2026-08-12T18:46:03.000Z</time>
      </trkpt>
      <trkpt lat="45.20974" lon="5.73289">
        <ele>535</ele>
        <time>2026-08-12T18:46:04.000Z</time>
      </trkpt>
      <trkpt lat="45.20976" lon="5.73289">
        <ele>534.59997558594</ele>
        <time>2026-08-12T18:46:05.000Z</time>
      </trkpt>
      <trkpt lat="45.20977" lon="5.73288">
        <ele>534.59997558594</ele>
        <time>2026-08-12T18:46:06.000Z</time>
      </trkpt>
      <trkpt lat="45.20979" lon="5.73288">
        <ele>534.20001220703</ele>
        <time>2026-08-12T18:46:07.000Z</time>
      </trkpt>
      <trkpt lat="45.20981" lon="5.73288">
        <ele>534</ele>
        <time>2026-08-12T18:46:08.000Z</time>
      </trkpt>
      <trkpt lat="45.20982" lon="5.73289">
        <ele>533.79998779297</ele>
        <time>2026-08-12T18:46:09.000Z</time>
      </trkpt>
      <trkpt lat="45.20984" lon="5.7329">
        <ele>533.40002441406</ele>
        <time>2026-08-12T18:46:10.000Z</time>
      </trkpt>
      <trkpt lat="45.20985" lon="5.73291">
        <ele>533.20001220703</ele>
        <time>2026-08-12T18:46:11.000Z</time>
      </trkpt>
      <trkpt lat="45.20987" lon="5.7329">
        <ele>533</ele>
        <time>2026-08-12T18:46:12.000Z</time>
      </trkpt>
      <trkpt lat="45.20989" lon="5.7329">
        <ele>532.79998779297</ele>
        <time>2026-08-12T18:46:13.000Z</time>
      </trkpt>
      <trkpt lat="45.2099" lon="5.73291">
        <ele>532.40002441406</ele>
        <time>2026-08-12T18:46:14.000Z</time>
      </trkpt>
      <trkpt lat="45.20991" lon="5.73292">
        <ele>532.20001220703</ele>
        <time>2026-08-12T18:46:15.000Z</time>
      </trkpt>
      <trkpt lat="45.20992" lon="5.73295">
        <ele>531.79998779297</ele>
        <time>2026-08-12T18:46:16.000Z</time>
      </trkpt>
      <trkpt lat="45.20991" lon="5.73297">
        <ele>531.40002441406</ele>
        <time>2026-08-12T18:46:17.000Z</time>
      </trkpt>
      <trkpt lat="45.2099" lon="5.73298">
        <ele>531.20001220703</ele>
        <time>2026-08-12T18:46:18.000Z</time>
      </trkpt>
      <trkpt lat="45.20988" lon="5.73299">
        <ele>531</ele>
        <time>2026-08-12T18:46:19.000Z</time>
      </trkpt>
      <trkpt lat="45.20987" lon="5.733">
        <ele>531</ele>
        <time>2026-08-12T18:46:20.000Z</time>
      </trkpt>
      <trkpt lat="45.20985" lon="5.73301">
        <ele>530.79998779297</ele>
        <time>2026-08-12T18:46:21.000Z</time>
      </trkpt>
      <trkpt lat="45.20983" lon="5.73301">
        <ele>530.40002441406</ele>
        <time>2026-08-12T18:46:22.000Z</time>
      </trkpt>
      <trkpt lat="45.2098" lon="5.73301">
        <ele>530</ele>
        <time>2026-08-12T18:46:23.000Z</time>
      </trkpt>
      <trkpt lat="45.20978" lon="5.73301">
        <ele>529.59997558594</ele>
        <time>2026-08-12T18:46:24.000Z</time>
      </trkpt>
      <trkpt lat="45.20976" lon="5.73302">
        <ele>529.20001220703</ele>
        <time>2026-08-12T18:46:25.000Z</time>
      </trkpt>
      <trkpt lat="45.20974" lon="5.73303">
        <ele>528.79998779297</ele>
        <time>2026-08-12T18:46:26.000Z</time>
      </trkpt>
      <trkpt lat="45.20972" lon="5.73303">
        <ele>528.59997558594</ele>
        <time>2026-08-12T18:46:27.000Z</time>
      </trkpt>
      <trkpt lat="45.20969" lon="5.73304">
        <ele>528</ele>
        <time>2026-08-12T18:46:28.000Z</time>
      </trkpt>
      <trkpt lat="45.20967" lon="5.73305">
        <ele>527.40002441406</ele>
        <time>2026-08-12T18:46:29.000Z</time>
      </trkpt>
      <trkpt lat="45.20965" lon="5.73307">
        <ele>526.79998779297</ele>
        <time>2026-08-12T18:46:30.000Z</time>
      </trkpt>
      <trkpt lat="45.20964" lon="5.73309">
        <ele>526.59997558594</ele>
        <time>2026-08-12T18:46:31.000Z</time>
      </trkpt>
      <trkpt lat="45.20962" lon="5.73311">
        <ele>526.20001220703</ele>
        <time>2026-08-12T18:46:32.000Z</time>
      </trkpt>
      <trkpt lat="45.2096" lon="5.73312">
        <ele>525.79998779297</ele>
        <time>2026-08-12T18:46:33.000Z</time>
      </trkpt>
      <trkpt lat="45.20959" lon="5.73312">
        <ele>525.59997558594</ele>
        <time>2026-08-12T18:46:34.000Z</time>
      </trkpt>
      <trkpt lat="45.20956" lon="5.73314">
        <ele>525.40002441406</ele>
        <time>2026-08-12T18:46:35.000Z</time>
      </trkpt>
      <trkpt lat="45.20954" lon="5.73314">
        <ele>525.20001220703</ele>
        <time>2026-08-12T18:46:36.000Z</time>
      </trkpt>
      <trkpt lat="45.20952" lon="5.73315">
        <ele>524.79998779297</ele>
        <time>2026-08-12T18:46:37.000Z</time>
      </trkpt>
      <trkpt lat="45.2095" lon="5.73316">
        <ele>524.40002441406</ele>
        <time>2026-08-12T18:46:38.000Z</time>
      </trkpt>
      <trkpt lat="45.20948" lon="5.73316">
        <ele>524</ele>
        <time>2026-08-12T18:46:39.000Z</time>
      </trkpt>
      <trkpt lat="45.20946" lon="5.73316">
        <ele>523.79998779297</ele>
        <time>2026-08-12T18:46:40.000Z</time>
      </trkpt>
      <trkpt lat="45.20944" lon="5.73316">
        <ele>523.20001220703</ele>
        <time>2026-08-12T18:46:41.000Z</time>
      </trkpt>
      <trkpt lat="45.20941" lon="5.73315">
        <ele>522.79998779297</ele>
        <time>2026-08-12T18:46:42.000Z</time>
      </trkpt>
      <trkpt lat="45.20939" lon="5.73315">
        <ele>522.59997558594</ele>
        <time>2026-08-12T18:46:43.000Z</time>
      </trkpt>
      <trkpt lat="45.20937" lon="5.73314">
        <ele>522.20001220703</ele>
        <time>2026-08-12T18:46:44.000Z</time>
      </trkpt>
      <trkpt lat="45.20935" lon="5.73313">
        <ele>521.79998779297</ele>
        <time>2026-08-12T18:46:45.000Z</time>
      </trkpt>
      <trkpt lat="45.20933" lon="5.73313">
        <ele>521.40002441406</ele>
        <time>2026-08-12T18:46:46.000Z</time>
      </trkpt>
      <trkpt lat="45.20931" lon="5.73312">
        <ele>521</ele>
        <time>2026-08-12T18:46:47.000Z</time>
      </trkpt>
      <trkpt lat="45.20929" lon="5.73312">
        <ele>520.79998779297</ele>
        <time>2026-08-12T18:46:48.000Z</time>
      </trkpt>
      <trkpt lat="45.20926" lon="5.73312">
        <ele>520.40002441406</ele>
        <time>2026-08-12T18:46:49.000Z</time>
      </trkpt>
      <trkpt lat="45.20924" lon="5.73311">
        <ele>520</ele>
        <time>2026-08-12T18:46:50.000Z</time>
      </trkpt>
      <trkpt lat="45.20922" lon="5.73311">
        <ele>519.59997558594</ele>
        <time>2026-08-12T18:46:51.000Z</time>
      </trkpt>
      <trkpt lat="45.2092" lon="5.73311">
        <ele>519.20001220703</ele>
        <time>2026-08-12T18:46:52.000Z</time>
      </trkpt>
      <trkpt lat="45.20918" lon="5.73311">
        <ele>519</ele>
        <time>2026-08-12T18:46:53.000Z</time>
      </trkpt>
      <trkpt lat="45.20917" lon="5.73311">
        <ele>518.79998779297</ele>
        <time>2026-08-12T18:46:54.000Z</time>
      </trkpt>
      <trkpt lat="45.20915" lon="5.73311">
        <ele>518.40002441406</ele>
        <time>2026-08-12T18:46:55.000Z</time>
      </trkpt>
      <trkpt lat="45.20913" lon="5.73311">
        <ele>518.20001220703</ele>
        <time>2026-08-12T18:46:56.000Z</time>
      </trkpt>
      <trkpt lat="45.20911" lon="5.73311">
        <ele>518</ele>
        <time>2026-08-12T18:46:57.000Z</time>
      </trkpt>
      <trkpt lat="45.20909" lon="5.73311">
        <ele>518</ele>
        <time>2026-08-12T18:46:58.000Z</time>
      </trkpt>
      <trkpt lat="45.20908" lon="5.73312">
        <ele>517.40002441406</ele>
        <time>2026-08-12T18:46:59.000Z</time>
      </trkpt>
      <trkpt lat="45.20906" lon="5.73312">
        <ele>516.79998779297</ele>
        <time>2026-08-12T18:47:00.000Z</time>
      </trkpt>
      <trkpt lat="45.20904" lon="5.73312">
        <ele>516.40002441406</ele>
        <time>2026-08-12T18:47:01.000Z</time>
      </trkpt>
      <trkpt lat="45.20902" lon="5.73312">
        <ele>516.20001220703</ele>
        <time>2026-08-12T18:47:02.000Z</time>
      </trkpt>
      <trkpt lat="45.209" lon="5.73313">
        <ele>516</ele>
        <time>2026-08-12T18:47:03.000Z</time>
      </trkpt>
      <trkpt lat="45.20898" lon="5.73314">
        <ele>515.40002441406</ele>
        <time>2026-08-12T18:47:04.000Z</time>
      </trkpt>
      <trkpt lat="45.20896" lon="5.73314">
        <ele>515</ele>
        <time>2026-08-12T18:47:05.000Z</time>
      </trkpt>
      <trkpt lat="45.20894" lon="5.73315">
        <ele>514.79998779297</ele>
        <time>2026-08-12T18:47:06.000Z</time>
      </trkpt>
      <trkpt lat="45.20893" lon="5.73315">
        <ele>514.40002441406</ele>
        <time>2026-08-12T18:47:07.000Z</time>
      </trkpt>
      <trkpt lat="45.20891" lon="5.73316">
        <ele>514.40002441406</ele>
        <time>2026-08-12T18:47:08.000Z</time>
      </trkpt>
      <trkpt lat="45.20889" lon="5.73316">
        <ele>514.20001220703</ele>
        <time>2026-08-12T18:47:09.000Z</time>
      </trkpt>
      <trkpt lat="45.20888" lon="5.73316">
        <ele>514</ele>
        <time>2026-08-12T18:47:10.000Z</time>
      </trkpt>
      <trkpt lat="45.20887" lon="5.73316">
        <ele>513.59997558594</ele>
        <time>2026-08-12T18:47:11.000Z</time>
      </trkpt>
      <trkpt lat="45.20885" lon="5.73316">
        <ele>513.20001220703</ele>
        <time>2026-08-12T18:47:12.000Z</time>
      </trkpt>
      <trkpt lat="45.20883" lon="5.73317">
        <ele>512.79998779297</ele>
        <time>2026-08-12T18:47:13.000Z</time>
      </trkpt>
      <trkpt lat="45.20881" lon="5.73317">
        <ele>512.40002441406</ele>
        <time>2026-08-12T18:47:14.000Z</time>
      </trkpt>
      <trkpt lat="45.20879" lon="5.73317">
        <ele>512.20001220703</ele>
        <time>2026-08-12T18:47:15.000Z</time>
      </trkpt>
      <trkpt lat="45.20877" lon="5.73318">
        <ele>511.60000610352</ele>
        <time>2026-08-12T18:47:16.000Z</time>
      </trkpt>
      <trkpt lat="45.20875" lon="5.73319">
        <ele>511.20001220703</ele>
        <time>2026-08-12T18:47:17.000Z</time>
      </trkpt>
      <trkpt lat="45.20873" lon="5.73319">
        <ele>511</ele>
        <time>2026-08-12T18:47:18.000Z</time>
      </trkpt>
      <trkpt lat="45.20872" lon="5.73318">
        <ele>510.60000610352</ele>
        <time>2026-08-12T18:47:19.000Z</time>
      </trkpt>
      <trkpt lat="45.2087" lon="5.73317">
        <ele>510.39999389648</ele>
        <time>2026-08-12T18:47:20.000Z</time>
      </trkpt>
      <trkpt lat="45.20868" lon="5.73316">
        <ele>510.20001220703</ele>
        <time>2026-08-12T18:47:21.000Z</time>
      </trkpt>
      <trkpt lat="45.20866" lon="5.73315">
        <ele>510</ele>
        <time>2026-08-12T18:47:22.000Z</time>
      </trkpt>
      <trkpt lat="45.20865" lon="5.73315">
        <ele>509.79998779297</ele>
        <time>2026-08-12T18:47:23.000Z</time>
      </trkpt>
      <trkpt lat="45.20863" lon="5.73315">
        <ele>509.39999389648</ele>
        <time>2026-08-12T18:47:24.000Z</time>
      </trkpt>
      <trkpt lat="45.20862" lon="5.73314">
        <ele>509.20001220703</ele>
        <time>2026-08-12T18:47:25.000Z</time>
      </trkpt>
      <trkpt lat="45.20861" lon="5.73313">
        <ele>508.60000610352</ele>
        <time>2026-08-12T18:47:26.000Z</time>
      </trkpt>
      <trkpt lat="45.20859" lon="5.73312">
        <ele>508.39999389648</ele>
        <time>2026-08-12T18:47:27.000Z</time>
      </trkpt>
      <trkpt lat="45.20858" lon="5.7331">
        <ele>508.20001220703</ele>
        <time>2026-08-12T18:47:28.000Z</time>
      </trkpt>
      <trkpt lat="45.20857" lon="5.73309">
        <ele>507.79998779297</ele>
        <time>2026-08-12T18:47:29.000Z</time>
      </trkpt>
      <trkpt lat="45.20855" lon="5.73308">
        <ele>507.39999389648</ele>
        <time>2026-08-12T18:47:30.000Z</time>
      </trkpt>
      <trkpt lat="45.20855" lon="5.73309">
        <ele>507</ele>
        <time>2026-08-12T18:47:31.000Z</time>
      </trkpt>
      <trkpt lat="45.20855" lon="5.7331">
        <ele>506.39999389648</ele>
        <time>2026-08-12T18:47:32.000Z</time>
      </trkpt>
      <trkpt lat="45.20856" lon="5.73313">
        <ele>505.79998779297</ele>
        <time>2026-08-12T18:47:33.000Z</time>
      </trkpt>
      <trkpt lat="45.20857" lon="5.73314">
        <ele>505.60000610352</ele>
        <time>2026-08-12T18:47:34.000Z</time>
      </trkpt>
      <trkpt lat="45.20858" lon="5.73315">
        <ele>505.20001220703</ele>
        <time>2026-08-12T18:47:35.000Z</time>
      </trkpt>
      <trkpt lat="45.2086" lon="5.73317">
        <ele>504.79998779297</ele>
        <time>2026-08-12T18:47:36.000Z</time>
      </trkpt>
      <trkpt lat="45.20861" lon="5.73317">
        <ele>504.39999389648</ele>
        <time>2026-08-12T18:47:37.000Z</time>
      </trkpt>
      <trkpt lat="45.20863" lon="5.73317">
        <ele>504.20001220703</ele>
        <time>2026-08-12T18:47:38.000Z</time>
      </trkpt>
      <trkpt lat="45.20865" lon="5.73318">
        <ele>504</ele>
        <time>2026-08-12T18:47:39.000Z</time>
      </trkpt>
      <trkpt lat="45.20866" lon="5.73319">
        <ele>503.79998779297</ele>
        <time>2026-08-12T18:47:40.000Z</time>
      </trkpt>
      <trkpt lat="45.20868" lon="5.73319">
        <ele>503.60000610352</ele>
        <time>2026-08-12T18:47:41.000Z</time>
      </trkpt>
      <trkpt lat="45.2087" lon="5.7332">
        <ele>503.60000610352</ele>
        <time>2026-08-12T18:47:42.000Z</time>
      </trkpt>
      <trkpt lat="45.20871" lon="5.7332">
        <ele>503.39999389648</ele>
        <time>2026-08-12T18:47:43.000Z</time>
      </trkpt>
      <trkpt lat="45.20873" lon="5.7332">
        <ele>502.60000610352</ele>
        <time>2026-08-12T18:47:44.000Z</time>
      </trkpt>
      <trkpt lat="45.20874" lon="5.7332">
        <ele>502.20001220703</ele>
        <time>2026-08-12T18:47:45.000Z</time>
      </trkpt>
      <trkpt lat="45.20876" lon="5.73321">
        <ele>502</ele>
        <time>2026-08-12T18:47:46.000Z</time>
      </trkpt>
      <trkpt lat="45.20877" lon="5.73321">
        <ele>501.60000610352</ele>
        <time>2026-08-12T18:47:47.000Z</time>
      </trkpt>
      <trkpt lat="45.20879" lon="5.73322">
        <ele>501</ele>
        <time>2026-08-12T18:47:48.000Z</time>
      </trkpt>
      <trkpt lat="45.2088" lon="5.73323">
        <ele>500.60000610352</ele>
        <time>2026-08-12T18:47:49.000Z</time>
      </trkpt>
      <trkpt lat="45.20882" lon="5.73324">
        <ele>500.20001220703</ele>
        <time>2026-08-12T18:47:50.000Z</time>
      </trkpt>
      <trkpt lat="45.20884" lon="5.73325">
        <ele>499.60000610352</ele>
        <time>2026-08-12T18:47:51.000Z</time>
      </trkpt>
      <trkpt lat="45.20886" lon="5.73325">
        <ele>498.79998779297</ele>
        <time>2026-08-12T18:47:52.000Z</time>
      </trkpt>
      <trkpt lat="45.20888" lon="5.73326">
        <ele>498</ele>
        <time>2026-08-12T18:47:53.000Z</time>
      </trkpt>
      <trkpt lat="45.20891" lon="5.73327">
        <ele>497.79998779297</ele>
        <time>2026-08-12T18:47:54.000Z</time>
      </trkpt>
      <trkpt lat="45.20893" lon="5.73328">
        <ele>497.39999389648</ele>
        <time>2026-08-12T18:47:55.000Z</time>
      </trkpt>
      <trkpt lat="45.20896" lon="5.73328">
        <ele>497.20001220703</ele>
        <time>2026-08-12T18:47:56.000Z</time>
      </trkpt>
      <trkpt lat="45.20898" lon="5.73328">
        <ele>496.79998779297</ele>
        <time>2026-08-12T18:47:57.000Z</time>
      </trkpt>
      <trkpt lat="45.20901" lon="5.73329">
        <ele>496.39999389648</ele>
        <time>2026-08-12T18:47:58.000Z</time>
      </trkpt>
      <trkpt lat="45.20904" lon="5.73329">
        <ele>496</ele>
        <time>2026-08-12T18:47:59.000Z</time>
      </trkpt>
      <trkpt lat="45.20907" lon="5.7333">
        <ele>495.79998779297</ele>
        <time>2026-08-12T18:48:00.000Z</time>
      </trkpt>
      <trkpt lat="45.20909" lon="5.73332">
        <ele>495.60000610352</ele>
        <time>2026-08-12T18:48:01.000Z</time>
      </trkpt>
      <trkpt lat="45.20912" lon="5.73333">
        <ele>495.20001220703</ele>
        <time>2026-08-12T18:48:02.000Z</time>
      </trkpt>
      <trkpt lat="45.20915" lon="5.73334">
        <ele>495</ele>
        <time>2026-08-12T18:48:03.000Z</time>
      </trkpt>
      <trkpt lat="45.20917" lon="5.73336">
        <ele>494.39999389648</ele>
        <time>2026-08-12T18:48:04.000Z</time>
      </trkpt>
      <trkpt lat="45.20919" lon="5.73337">
        <ele>494.39999389648</ele>
        <time>2026-08-12T18:48:05.000Z</time>
      </trkpt>
      <trkpt lat="45.20923" lon="5.73339">
        <ele>494.39999389648</ele>
        <time>2026-08-12T18:48:06.000Z</time>
      </trkpt>
      <trkpt lat="45.20925" lon="5.7334">
        <ele>494.20001220703</ele>
        <time>2026-08-12T18:48:07.000Z</time>
      </trkpt>
      <trkpt lat="45.20929" lon="5.73341">
        <ele>494.20001220703</ele>
        <time>2026-08-12T18:48:08.000Z</time>
      </trkpt>
      <trkpt lat="45.20931" lon="5.73343">
        <ele>494</ele>
        <time>2026-08-12T18:48:09.000Z</time>
      </trkpt>
      <trkpt lat="45.20934" lon="5.73344">
        <ele>493.79998779297</ele>
        <time>2026-08-12T18:48:10.000Z</time>
      </trkpt>
      <trkpt lat="45.20938" lon="5.73345">
        <ele>493.60000610352</ele>
        <time>2026-08-12T18:48:11.000Z</time>
      </trkpt>
      <trkpt lat="45.2094" lon="5.73345">
        <ele>493.39999389648</ele>
        <time>2026-08-12T18:48:12.000Z</time>
      </trkpt>
      <trkpt lat="45.20944" lon="5.73346">
        <ele>493.39999389648</ele>
        <time>2026-08-12T18:48:13.000Z</time>
      </trkpt>
      <trkpt lat="45.20947" lon="5.73347">
        <ele>493.39999389648</ele>
        <time>2026-08-12T18:48:14.000Z</time>
      </trkpt>
      <trkpt lat="45.2095" lon="5.73347">
        <ele>493.20001220703</ele>
        <time>2026-08-12T18:48:15.000Z</time>
      </trkpt>
      <trkpt lat="45.20953" lon="5.73347">
        <ele>493.20001220703</ele>
        <time>2026-08-12T18:48:16.000Z</time>
      </trkpt>
      <trkpt lat="45.20956" lon="5.73348">
        <ele>493</ele>
        <time>2026-08-12T18:48:17.000Z</time>
      </trkpt>
      <trkpt lat="45.20959" lon="5.73349">
        <ele>493</ele>
        <time>2026-08-12T18:48:18.000Z</time>
      </trkpt>
      <trkpt lat="45.20962" lon="5.73349">
        <ele>492.79998779297</ele>
        <time>2026-08-12T18:48:19.000Z</time>
      </trkpt>
      <trkpt lat="45.20965" lon="5.7335">
        <ele>492.79998779297</ele>
        <time>2026-08-12T18:48:20.000Z</time>
      </trkpt>
      <trkpt lat="45.20968" lon="5.73352">
        <ele>492.79998779297</ele>
        <time>2026-08-12T18:48:21.000Z</time>
      </trkpt>
      <trkpt lat="45.2097" lon="5.73353">
        <ele>492.60000610352</ele>
        <time>2026-08-12T18:48:22.000Z</time>
      </trkpt>
      <trkpt lat="45.20973" lon="5.73355">
        <ele>492.60000610352</ele>
        <time>2026-08-12T18:48:23.000Z</time>
      </trkpt>
      <trkpt lat="45.20974" lon="5.73356">
        <ele>492.60000610352</ele>
        <time>2026-08-12T18:48:24.000Z</time>
      </trkpt>
      <trkpt lat="45.20977" lon="5.73357">
        <ele>492.39999389648</ele>
        <time>2026-08-12T18:48:25.000Z</time>
      </trkpt>
      <trkpt lat="45.20979" lon="5.73358">
        <ele>492.39999389648</ele>
        <time>2026-08-12T18:48:26.000Z</time>
      </trkpt>
      <trkpt lat="45.20981" lon="5.73357">
        <ele>492.39999389648</ele>
        <time>2026-08-12T18:48:27.000Z</time>
      </trkpt>
      <trkpt lat="45.20983" lon="5.73356">
        <ele>492.39999389648</ele>
        <time>2026-08-12T18:48:28.000Z</time>
      </trkpt>
      <trkpt lat="45.20984" lon="5.73355">
        <ele>492.20001220703</ele>
        <time>2026-08-12T18:48:29.000Z</time>
      </trkpt>
      <trkpt lat="45.20986" lon="5.73353">
        <ele>492</ele>
        <time>2026-08-12T18:48:30.000Z</time>
      </trkpt>
      <trkpt lat="45.20989" lon="5.73352">
        <ele>491.60000610352</ele>
        <time>2026-08-12T18:48:31.000Z</time>
      </trkpt>
      <trkpt lat="45.20991" lon="5.7335">
        <ele>491.39999389648</ele>
        <time>2026-08-12T18:48:32.000Z</time>
      </trkpt>
      <trkpt lat="45.20994" lon="5.73349">
        <ele>491</ele>
        <time>2026-08-12T18:48:33.000Z</time>
      </trkpt>
      <trkpt lat="45.20997" lon="5.73347">
        <ele>490.79998779297</ele>
        <time>2026-08-12T18:48:34.000Z</time>
      </trkpt>
      <trkpt lat="45.20999" lon="5.73345">
        <ele>490.39999389648</ele>
        <time>2026-08-12T18:48:35.000Z</time>
      </trkpt>
      <trkpt lat="45.21002" lon="5.73344">
        <ele>490.39999389648</ele>
        <time>2026-08-12T18:48:36.000Z</time>
      </trkpt>
      <trkpt lat="45.21004" lon="5.73343">
        <ele>490.20001220703</ele>
        <time>2026-08-12T18:48:37.000Z</time>
      </trkpt>
      <trkpt lat="45.21007" lon="5.73345">
        <ele>490.20001220703</ele>
        <time>2026-08-12T18:48:38.000Z</time>
      </trkpt>
      <trkpt lat="45.21009" lon="5.73346">
        <ele>490.20001220703</ele>
        <time>2026-08-12T18:48:39.000Z</time>
      </trkpt>
      <trkpt lat="45.21011" lon="5.73348">
        <ele>490.39999389648</ele>
        <time>2026-08-12T18:48:40.000Z</time>
      </trkpt>
      <trkpt lat="45.21013" lon="5.7335">
        <ele>490.39999389648</ele>
        <time>2026-08-12T18:48:41.000Z</time>
      </trkpt>
      <trkpt lat="45.21015" lon="5.73351">
        <ele>490.39999389648</ele>
        <time>2026-08-12T18:48:42.000Z</time>
      </trkpt>
      <trkpt lat="45.21018" lon="5.73353">
        <ele>490.39999389648</ele>
        <time>2026-08-12T18:48:43.000Z</time>
      </trkpt>
      <trkpt lat="45.21021" lon="5.73354">
        <ele>490.39999389648</ele>
        <time>2026-08-12T18:48:44.000Z</time>
      </trkpt>
      <trkpt lat="45.21025" lon="5.73355">
        <ele>490.39999389648</ele>
        <time>2026-08-12T18:48:45.000Z</time>
      </trkpt>
      <trkpt lat="45.21027" lon="5.73356">
        <ele>490.39999389648</ele>
        <time>2026-08-12T18:48:46.000Z</time>
      </trkpt>
      <trkpt lat="45.2103" lon="5.73358">
        <ele>490.39999389648</ele>
        <time>2026-08-12T18:48:47.000Z</time>
      </trkpt>
      <trkpt lat="45.21033" lon="5.73359">
        <ele>490.60000610352</ele>
        <time>2026-08-12T18:48:48.000Z</time>
      </trkpt>
      <trkpt lat="45.21036" lon="5.73361">
        <ele>490.60000610352</ele>
        <time>2026-08-12T18:48:49.000Z</time>
      </trkpt>
      <trkpt lat="45.21039" lon="5.73364">
        <ele>490.60000610352</ele>
        <time>2026-08-12T18:48:50.000Z</time>
      </trkpt>
      <trkpt lat="45.21041" lon="5.73365">
        <ele>490.79998779297</ele>
        <time>2026-08-12T18:48:51.000Z</time>
      </trkpt>
      <trkpt lat="45.21042" lon="5.73367">
        <ele>490.79998779297</ele>
        <time>2026-08-12T18:48:52.000Z</time>
      </trkpt>
      <trkpt lat="45.21044" lon="5.73368">
        <ele>490.79998779297</ele>
        <time>2026-08-12T18:48:53.000Z</time>
      </trkpt>
      <trkpt lat="45.21046" lon="5.73369">
        <ele>490.79998779297</ele>
        <time>2026-08-12T18:48:54.000Z</time>
      </trkpt>
      <trkpt lat="45.21048" lon="5.7337">
        <ele>490.79998779297</ele>
        <time>2026-08-12T18:48:55.000Z</time>
      </trkpt>
      <trkpt lat="45.2105" lon="5.73371">
        <ele>490.79998779297</ele>
        <time>2026-08-12T18:48:56.000Z</time>
      </trkpt>
      <trkpt lat="45.21051" lon="5.73371">
        <ele>490.79998779297</ele>
        <time>2026-08-12T18:48:57.000Z</time>
      </trkpt>
      <trkpt lat="45.21053" lon="5.73372">
        <ele>490.79998779297</ele>
        <time>2026-08-12T18:48:58.000Z</time>
      </trkpt>
      <trkpt lat="45.21054" lon="5.73372">
        <ele>490.79998779297</ele>
        <time>2026-08-12T18:48:59.000Z</time>
      </trkpt>
      <trkpt lat="45.21055" lon="5.73373">
        <ele>491</ele>
        <time>2026-08-12T18:49:00.000Z</time>
      </trkpt>
      <trkpt lat="45.21056" lon="5.73375">
        <ele>491.20001220703</ele>
        <time>2026-08-12T18:49:01.000Z</time>
      </trkpt>
      <trkpt lat="45.21057" lon="5.73377">
        <ele>491.39999389648</ele>
        <time>2026-08-12T18:49:02.000Z</time>
      </trkpt>
      <trkpt lat="45.21058" lon="5.7338">
        <ele>491.39999389648</ele>
        <time>2026-08-12T18:49:03.000Z</time>
      </trkpt>
      <trkpt lat="45.21059" lon="5.73382">
        <ele>491.39999389648</ele>
        <time>2026-08-12T18:49:04.000Z</time>
      </trkpt>
      <trkpt lat="45.21059" lon="5.73385">
        <ele>491.20001220703</ele>
        <time>2026-08-12T18:49:05.000Z</time>
      </trkpt>
      <trkpt lat="45.2106" lon="5.73388">
        <ele>491</ele>
        <time>2026-08-12T18:49:06.000Z</time>
      </trkpt>
      <trkpt lat="45.21059" lon="5.73391">
        <ele>490.79998779297</ele>
        <time>2026-08-12T18:49:07.000Z</time>
      </trkpt>
      <trkpt lat="45.2106" lon="5.73393">
        <ele>490.39999389648</ele>
        <time>2026-08-12T18:49:08.000Z</time>
      </trkpt>
      <trkpt lat="45.2106" lon="5.73394">
        <ele>490.20001220703</ele>
        <time>2026-08-12T18:49:09.000Z</time>
      </trkpt>
      <trkpt lat="45.21061" lon="5.73395">
        <ele>490</ele>
        <time>2026-08-12T18:49:10.000Z</time>
      </trkpt>
      <trkpt lat="45.21062" lon="5.73396">
        <ele>489.79998779297</ele>
        <time>2026-08-12T18:49:11.000Z</time>
      </trkpt>
      <trkpt lat="45.21064" lon="5.73396">
        <ele>489.79998779297</ele>
        <time>2026-08-12T18:49:12.000Z</time>
      </trkpt>
      <trkpt lat="45.21066" lon="5.73397">
        <ele>489.39999389648</ele>
        <time>2026-08-12T18:49:13.000Z</time>
      </trkpt>
      <trkpt lat="45.21067" lon="5.73398">
        <ele>489.20001220703</ele>
        <time>2026-08-12T18:49:14.000Z</time>
      </trkpt>
      <trkpt lat="45.21067" lon="5.734">
        <ele>489</ele>
        <time>2026-08-12T18:49:15.000Z</time>
      </trkpt>
      <trkpt lat="45.21067" lon="5.73403">
        <ele>489</ele>
        <time>2026-08-12T18:49:16.000Z</time>
      </trkpt>
      <trkpt lat="45.21067" lon="5.73405">
        <ele>489</ele>
        <time>2026-08-12T18:49:17.000Z</time>
      </trkpt>
      <trkpt lat="45.21066" lon="5.73408">
        <ele>489</ele>
        <time>2026-08-12T18:49:18.000Z</time>
      </trkpt>
      <trkpt lat="45.21066" lon="5.73411">
        <ele>489</ele>
        <time>2026-08-12T18:49:19.000Z</time>
      </trkpt>
      <trkpt lat="45.21066" lon="5.73414">
        <ele>488.79998779297</ele>
        <time>2026-08-12T18:49:20.000Z</time>
      </trkpt>
      <trkpt lat="45.21066" lon="5.73418">
        <ele>488.39999389648</ele>
        <time>2026-08-12T18:49:21.000Z</time>
      </trkpt>
      <trkpt lat="45.21067" lon="5.73421">
        <ele>488.20001220703</ele>
        <time>2026-08-12T18:49:22.000Z</time>
      </trkpt>
      <trkpt lat="45.21068" lon="5.73425">
        <ele>488</ele>
        <time>2026-08-12T18:49:23.000Z</time>
      </trkpt>
      <trkpt lat="45.21069" lon="5.73427">
        <ele>487.79998779297</ele>
        <time>2026-08-12T18:49:24.000Z</time>
      </trkpt>
      <trkpt lat="45.2107" lon="5.7343">
        <ele>487.79998779297</ele>
        <time>2026-08-12T18:49:25.000Z</time>
      </trkpt>
      <trkpt lat="45.21072" lon="5.73431">
        <ele>487.79998779297</ele>
        <time>2026-08-12T18:49:26.000Z</time>
      </trkpt>
      <trkpt lat="45.21073" lon="5.73433">
        <ele>488</ele>
        <time>2026-08-12T18:49:27.000Z</time>
      </trkpt>
      <trkpt lat="45.21074" lon="5.73434">
        <ele>488.20001220703</ele>
        <time>2026-08-12T18:49:28.000Z</time>
      </trkpt>
      <trkpt lat="45.21076" lon="5.73436">
        <ele>488.39999389648</ele>
        <time>2026-08-12T18:49:29.000Z</time>
      </trkpt>
      <trkpt lat="45.21077" lon="5.73437">
        <ele>488.60000610352</ele>
        <time>2026-08-12T18:49:30.000Z</time>
      </trkpt>
      <trkpt lat="45.21079" lon="5.73438">
        <ele>488.79998779297</ele>
        <time>2026-08-12T18:49:31.000Z</time>
      </trkpt>
      <trkpt lat="45.21081" lon="5.73439">
        <ele>488.79998779297</ele>
        <time>2026-08-12T18:49:32.000Z</time>
      </trkpt>
      <trkpt lat="45.21083" lon="5.7344">
        <ele>488.79998779297</ele>
        <time>2026-08-12T18:49:33.000Z</time>
      </trkpt>
      <trkpt lat="45.21085" lon="5.7344">
        <ele>488.79998779297</ele>
        <time>2026-08-12T18:49:34.000Z</time>
      </trkpt>
      <trkpt lat="45.21088" lon="5.73441">
        <ele>488.60000610352</ele>
        <time>2026-08-12T18:49:35.000Z</time>
      </trkpt>
      <trkpt lat="45.2109" lon="5.73442">
        <ele>488.20001220703</ele>
        <time>2026-08-12T18:49:36.000Z</time>
      </trkpt>
      <trkpt lat="45.21092" lon="5.73443">
        <ele>488</ele>
        <time>2026-08-12T18:49:37.000Z</time>
      </trkpt>
      <trkpt lat="45.21095" lon="5.73444">
        <ele>488</ele>
        <time>2026-08-12T18:49:38.000Z</time>
      </trkpt>
      <trkpt lat="45.21097" lon="5.73446">
        <ele>488</ele>
        <time>2026-08-12T18:49:39.000Z</time>
      </trkpt>
      <trkpt lat="45.21099" lon="5.73448">
        <ele>487.79998779297</ele>
        <time>2026-08-12T18:49:40.000Z</time>
      </trkpt>
      <trkpt lat="45.21101" lon="5.73449">
        <ele>487.79998779297</ele>
        <time>2026-08-12T18:49:41.000Z</time>
      </trkpt>
      <trkpt lat="45.21103" lon="5.73451">
        <ele>487.79998779297</ele>
        <time>2026-08-12T18:49:42.000Z</time>
      </trkpt>
      <trkpt lat="45.21105" lon="5.73451">
        <ele>487.79998779297</ele>
        <time>2026-08-12T18:49:43.000Z</time>
      </trkpt>
      <trkpt lat="45.21106" lon="5.73453">
        <ele>488</ele>
        <time>2026-08-12T18:49:44.000Z</time>
      </trkpt>
      <trkpt lat="45.21108" lon="5.73454">
        <ele>488.20001220703</ele>
        <time>2026-08-12T18:49:45.000Z</time>
      </trkpt>
      <trkpt lat="45.2111" lon="5.73455">
        <ele>488.20001220703</ele>
        <time>2026-08-12T18:49:46.000Z</time>
      </trkpt>
      <trkpt lat="45.21112" lon="5.73456">
        <ele>488.39999389648</ele>
        <time>2026-08-12T18:49:47.000Z</time>
      </trkpt>
      <trkpt lat="45.21114" lon="5.73457">
        <ele>488.20001220703</ele>
        <time>2026-08-12T18:49:48.000Z</time>
      </trkpt>
      <trkpt lat="45.21116" lon="5.73458">
        <ele>488</ele>
        <time>2026-08-12T18:49:49.000Z</time>
      </trkpt>
      <trkpt lat="45.21118" lon="5.7346">
        <ele>488</ele>
        <time>2026-08-12T18:49:50.000Z</time>
      </trkpt>
      <trkpt lat="45.21118" lon="5.73463">
        <ele>488</ele>
        <time>2026-08-12T18:49:51.000Z</time>
      </trkpt>
      <trkpt lat="45.21118" lon="5.73465">
        <ele>488</ele>
        <time>2026-08-12T18:49:52.000Z</time>
      </trkpt>
      <trkpt lat="45.21118" lon="5.73466">
        <ele>487.79998779297</ele>
        <time>2026-08-12T18:49:53.000Z</time>
      </trkpt>
      <trkpt lat="45.21118" lon="5.73469">
        <ele>487.79998779297</ele>
        <time>2026-08-12T18:49:54.000Z</time>
      </trkpt>
      <trkpt lat="45.21119" lon="5.73471">
        <ele>487.60000610352</ele>
        <time>2026-08-12T18:49:55.000Z</time>
      </trkpt>
      <trkpt lat="45.21119" lon="5.73473">
        <ele>487.20001220703</ele>
        <time>2026-08-12T18:49:56.000Z</time>
      </trkpt>
      <trkpt lat="45.21118" lon="5.73474">
        <ele>487.20001220703</ele>
        <time>2026-08-12T18:49:57.000Z</time>
      </trkpt>
      <trkpt lat="45.21117" lon="5.73478">
        <ele>486.79998779297</ele>
        <time>2026-08-12T18:49:58.000Z</time>
      </trkpt>
      <trkpt lat="45.21117" lon="5.73481">
        <ele>486.60000610352</ele>
        <time>2026-08-12T18:49:59.000Z</time>
      </trkpt>
      <trkpt lat="45.21115" lon="5.73484">
        <ele>486.39999389648</ele>
        <time>2026-08-12T18:50:00.000Z</time>
      </trkpt>
      <trkpt lat="45.21114" lon="5.73487">
        <ele>485.79998779297</ele>
        <time>2026-08-12T18:50:01.000Z</time>
      </trkpt>
      <trkpt lat="45.21114" lon="5.7349">
        <ele>485.20001220703</ele>
        <time>2026-08-12T18:50:02.000Z</time>
      </trkpt>
      <trkpt lat="45.21112" lon="5.73493">
        <ele>484.79998779297</ele>
        <time>2026-08-12T18:50:03.000Z</time>
      </trkpt>
      <trkpt lat="45.21112" lon="5.73496">
        <ele>484.39999389648</ele>
        <time>2026-08-12T18:50:04.000Z</time>
      </trkpt>
      <trkpt lat="45.21111" lon="5.735">
        <ele>484.20001220703</ele>
        <time>2026-08-12T18:50:05.000Z</time>
      </trkpt>
      <trkpt lat="45.2111" lon="5.73504">
        <ele>484.20001220703</ele>
        <time>2026-08-12T18:50:06.000Z</time>
      </trkpt>
      <trkpt lat="45.21109" lon="5.73507">
        <ele>484</ele>
        <time>2026-08-12T18:50:07.000Z</time>
      </trkpt>
      <trkpt lat="45.21108" lon="5.73511">
        <ele>484</ele>
        <time>2026-08-12T18:50:08.000Z</time>
      </trkpt>
      <trkpt lat="45.21108" lon="5.73514">
        <ele>483.79998779297</ele>
        <time>2026-08-12T18:50:09.000Z</time>
      </trkpt>
      <trkpt lat="45.21108" lon="5.73518">
        <ele>483.60000610352</ele>
        <time>2026-08-12T18:50:10.000Z</time>
      </trkpt>
      <trkpt lat="45.21108" lon="5.73522">
        <ele>483.39999389648</ele>
        <time>2026-08-12T18:50:11.000Z</time>
      </trkpt>
      <trkpt lat="45.21108" lon="5.73526">
        <ele>483.20001220703</ele>
        <time>2026-08-12T18:50:12.000Z</time>
      </trkpt>
      <trkpt lat="45.21108" lon="5.73529">
        <ele>483</ele>
        <time>2026-08-12T18:50:13.000Z</time>
      </trkpt>
      <trkpt lat="45.21109" lon="5.73532">
        <ele>483</ele>
        <time>2026-08-12T18:50:14.000Z</time>
      </trkpt>
      <trkpt lat="45.2111" lon="5.73536">
        <ele>483</ele>
        <time>2026-08-12T18:50:15.000Z</time>
      </trkpt>
      <trkpt lat="45.21111" lon="5.73538">
        <ele>483</ele>
        <time>2026-08-12T18:50:16.000Z</time>
      </trkpt>
      <trkpt lat="45.21112" lon="5.7354">
        <ele>483</ele>
        <time>2026-08-12T18:50:17.000Z</time>
      </trkpt>
      <trkpt lat="45.21113" lon="5.73543">
        <ele>483</ele>
        <time>2026-08-12T18:50:18.000Z</time>
      </trkpt>
      <trkpt lat="45.21115" lon="5.73546">
        <ele>483.20001220703</ele>
        <time>2026-08-12T18:50:19.000Z</time>
      </trkpt>
      <trkpt lat="45.21116" lon="5.73548">
        <ele>483.20001220703</ele>
        <time>2026-08-12T18:50:20.000Z</time>
      </trkpt>
      <trkpt lat="45.21118" lon="5.7355">
        <ele>483.20001220703</ele>
        <time>2026-08-12T18:50:21.000Z</time>
      </trkpt>
      <trkpt lat="45.2112" lon="5.73552">
        <ele>483</ele>
        <time>2026-08-12T18:50:22.000Z</time>
      </trkpt>
      <trkpt lat="45.21121" lon="5.73554">
        <ele>482.79998779297</ele>
        <time>2026-08-12T18:50:23.000Z</time>
      </trkpt>
      <trkpt lat="45.21123" lon="5.73554">
        <ele>482.60000610352</ele>
        <time>2026-08-12T18:50:24.000Z</time>
      </trkpt>
      <trkpt lat="45.21126" lon="5.73555">
        <ele>482.39999389648</ele>
        <time>2026-08-12T18:50:25.000Z</time>
      </trkpt>
      <trkpt lat="45.21128" lon="5.73556">
        <ele>482.20001220703</ele>
        <time>2026-08-12T18:50:26.000Z</time>
      </trkpt>
      <trkpt lat="45.21131" lon="5.73556">
        <ele>482</ele>
        <time>2026-08-12T18:50:27.000Z</time>
      </trkpt>
      <trkpt lat="45.21133" lon="5.73556">
        <ele>481.79998779297</ele>
        <time>2026-08-12T18:50:28.000Z</time>
      </trkpt>
      <trkpt lat="45.21137" lon="5.73557">
        <ele>481.60000610352</ele>
        <time>2026-08-12T18:50:29.000Z</time>
      </trkpt>
      <trkpt lat="45.2114" lon="5.73557">
        <ele>481.39999389648</ele>
        <time>2026-08-12T18:50:30.000Z</time>
      </trkpt>
      <trkpt lat="45.21143" lon="5.73558">
        <ele>481.39999389648</ele>
        <time>2026-08-12T18:50:31.000Z</time>
      </trkpt>
      <trkpt lat="45.21145" lon="5.7356">
        <ele>481.20001220703</ele>
        <time>2026-08-12T18:50:32.000Z</time>
      </trkpt>
      <trkpt lat="45.21148" lon="5.73561">
        <ele>481.20001220703</ele>
        <time>2026-08-12T18:50:33.000Z</time>
      </trkpt>
      <trkpt lat="45.2115" lon="5.73563">
        <ele>481.20001220703</ele>
        <time>2026-08-12T18:50:34.000Z</time>
      </trkpt>
      <trkpt lat="45.21154" lon="5.73565">
        <ele>481.20001220703</ele>
        <time>2026-08-12T18:50:35.000Z</time>
      </trkpt>
      <trkpt lat="45.21157" lon="5.73567">
        <ele>481</ele>
        <time>2026-08-12T18:50:36.000Z</time>
      </trkpt>
      <trkpt lat="45.21159" lon="5.73569">
        <ele>481</ele>
        <time>2026-08-12T18:50:37.000Z</time>
      </trkpt>
      <trkpt lat="45.21162" lon="5.73572">
        <ele>480.79998779297</ele>
        <time>2026-08-12T18:50:38.000Z</time>
      </trkpt>
      <trkpt lat="45.21164" lon="5.73574">
        <ele>480.60000610352</ele>
        <time>2026-08-12T18:50:39.000Z</time>
      </trkpt>
      <trkpt lat="45.21166" lon="5.73577">
        <ele>480.39999389648</ele>
        <time>2026-08-12T18:50:40.000Z</time>
      </trkpt>
      <trkpt lat="45.21168" lon="5.73581">
        <ele>480.39999389648</ele>
        <time>2026-08-12T18:50:41.000Z</time>
      </trkpt>
      <trkpt lat="45.21169" lon="5.73584">
        <ele>480.39999389648</ele>
        <time>2026-08-12T18:50:42.000Z</time>
      </trkpt>
      <trkpt lat="45.2117" lon="5.73587">
        <ele>480.39999389648</ele>
        <time>2026-08-12T18:50:43.000Z</time>
      </trkpt>
      <trkpt lat="45.21172" lon="5.73591">
        <ele>480.39999389648</ele>
        <time>2026-08-12T18:50:44.000Z</time>
      </trkpt>
      <trkpt lat="45.21174" lon="5.73594">
        <ele>480.39999389648</ele>
        <time>2026-08-12T18:50:45.000Z</time>
      </trkpt>
      <trkpt lat="45.21176" lon="5.73598">
        <ele>480.39999389648</ele>
        <time>2026-08-12T18:50:46.000Z</time>
      </trkpt>
      <trkpt lat="45.21177" lon="5.73601">
        <ele>480.20001220703</ele>
        <time>2026-08-12T18:50:47.000Z</time>
      </trkpt>
      <trkpt lat="45.21179" lon="5.73605">
        <ele>480</ele>
        <time>2026-08-12T18:50:48.000Z</time>
      </trkpt>
      <trkpt lat="45.21181" lon="5.73608">
        <ele>480</ele>
        <time>2026-08-12T18:50:49.000Z</time>
      </trkpt>
      <trkpt lat="45.21182" lon="5.73612">
        <ele>479.79998779297</ele>
        <time>2026-08-12T18:50:50.000Z</time>
      </trkpt>
      <trkpt lat="45.21183" lon="5.73615">
        <ele>479.79998779297</ele>
        <time>2026-08-12T18:50:51.000Z</time>
      </trkpt>
      <trkpt lat="45.21184" lon="5.73618">
        <ele>479.60000610352</ele>
        <time>2026-08-12T18:50:52.000Z</time>
      </trkpt>
      <trkpt lat="45.21186" lon="5.73621">
        <ele>479.60000610352</ele>
        <time>2026-08-12T18:50:53.000Z</time>
      </trkpt>
      <trkpt lat="45.21187" lon="5.73624">
        <ele>479.39999389648</ele>
        <time>2026-08-12T18:50:54.000Z</time>
      </trkpt>
      <trkpt lat="45.21188" lon="5.73628">
        <ele>479.20001220703</ele>
        <time>2026-08-12T18:50:55.000Z</time>
      </trkpt>
      <trkpt lat="45.21189" lon="5.73632">
        <ele>479</ele>
        <time>2026-08-12T18:50:56.000Z</time>
      </trkpt>
      <trkpt lat="45.21189" lon="5.73635">
        <ele>478.79998779297</ele>
        <time>2026-08-12T18:50:57.000Z</time>
      </trkpt>
      <trkpt lat="45.2119" lon="5.73637">
        <ele>478.60000610352</ele>
        <time>2026-08-12T18:50:58.000Z</time>
      </trkpt>
      <trkpt lat="45.21191" lon="5.7364">
        <ele>478.60000610352</ele>
        <time>2026-08-12T18:50:59.000Z</time>
      </trkpt>
      <trkpt lat="45.21193" lon="5.73642">
        <ele>478.60000610352</ele>
        <time>2026-08-12T18:51:00.000Z</time>
      </trkpt>
      <trkpt lat="45.21195" lon="5.73643">
        <ele>478.79998779297</ele>
        <time>2026-08-12T18:51:01.000Z</time>
      </trkpt>
      <trkpt lat="45.21197" lon="5.73645">
        <ele>478.79998779297</ele>
        <time>2026-08-12T18:51:02.000Z</time>
      </trkpt>
      <trkpt lat="45.212" lon="5.73646">
        <ele>479.20001220703</ele>
        <time>2026-08-12T18:51:03.000Z</time>
      </trkpt>
      <trkpt lat="45.21202" lon="5.73648">
        <ele>479.20001220703</ele>
        <time>2026-08-12T18:51:04.000Z</time>
      </trkpt>
      <trkpt lat="45.21202" lon="5.7365">
        <ele>479.39999389648</ele>
        <time>2026-08-12T18:51:05.000Z</time>
      </trkpt>
      <trkpt lat="45.21203" lon="5.73653">
        <ele>479.39999389648</ele>
        <time>2026-08-12T18:51:06.000Z</time>
      </trkpt>
      <trkpt lat="45.21203" lon="5.73656">
        <ele>479.39999389648</ele>
        <time>2026-08-12T18:51:07.000Z</time>
      </trkpt>
      <trkpt lat="45.21203" lon="5.73659">
        <ele>479.39999389648</ele>
        <time>2026-08-12T18:51:08.000Z</time>
      </trkpt>
      <trkpt lat="45.21203" lon="5.73662">
        <ele>479.20001220703</ele>
        <time>2026-08-12T18:51:09.000Z</time>
      </trkpt>
      <trkpt lat="45.21202" lon="5.73665">
        <ele>478.60000610352</ele>
        <time>2026-08-12T18:51:10.000Z</time>
      </trkpt>
      <trkpt lat="45.21201" lon="5.73667">
        <ele>478.39999389648</ele>
        <time>2026-08-12T18:51:11.000Z</time>
      </trkpt>
      <trkpt lat="45.212" lon="5.73668">
        <ele>477.79998779297</ele>
        <time>2026-08-12T18:51:12.000Z</time>
      </trkpt>
      <trkpt lat="45.212" lon="5.73671">
        <ele>477.20001220703</ele>
        <time>2026-08-12T18:51:13.000Z</time>
      </trkpt>
      <trkpt lat="45.212" lon="5.73673">
        <ele>477</ele>
        <time>2026-08-12T18:51:14.000Z</time>
      </trkpt>
      <trkpt lat="45.212" lon="5.73675">
        <ele>476.60000610352</ele>
        <time>2026-08-12T18:51:15.000Z</time>
      </trkpt>
      <trkpt lat="45.21201" lon="5.73677">
        <ele>475.79998779297</ele>
        <time>2026-08-12T18:51:16.000Z</time>
      </trkpt>
      <trkpt lat="45.21202" lon="5.73678">
        <ele>475</ele>
        <time>2026-08-12T18:51:17.000Z</time>
      </trkpt>
      <trkpt lat="45.21202" lon="5.7368">
        <ele>474.20001220703</ele>
        <time>2026-08-12T18:51:18.000Z</time>
      </trkpt>
      <trkpt lat="45.21203" lon="5.73683">
        <ele>474.20001220703</ele>
        <time>2026-08-12T18:51:19.000Z</time>
      </trkpt>
      <trkpt lat="45.21203" lon="5.73685">
        <ele>474</ele>
        <time>2026-08-12T18:51:20.000Z</time>
      </trkpt>
      <trkpt lat="45.21203" lon="5.73688">
        <ele>473.79998779297</ele>
        <time>2026-08-12T18:51:21.000Z</time>
      </trkpt>
      <trkpt lat="45.21204" lon="5.7369">
        <ele>473.39999389648</ele>
        <time>2026-08-12T18:51:22.000Z</time>
      </trkpt>
      <trkpt lat="45.21204" lon="5.73692">
        <ele>473.20001220703</ele>
        <time>2026-08-12T18:51:23.000Z</time>
      </trkpt>
      <trkpt lat="45.21204" lon="5.73695">
        <ele>473</ele>
        <time>2026-08-12T18:51:24.000Z</time>
      </trkpt>
      <trkpt lat="45.21204" lon="5.73697">
        <ele>472.39999389648</ele>
        <time>2026-08-12T18:51:25.000Z</time>
      </trkpt>
      <trkpt lat="45.21205" lon="5.737">
        <ele>472.20001220703</ele>
        <time>2026-08-12T18:51:26.000Z</time>
      </trkpt>
      <trkpt lat="45.21204" lon="5.73702">
        <ele>471.60000610352</ele>
        <time>2026-08-12T18:51:27.000Z</time>
      </trkpt>
      <trkpt lat="45.21205" lon="5.73704">
        <ele>471.20001220703</ele>
        <time>2026-08-12T18:51:28.000Z</time>
      </trkpt>
      <trkpt lat="45.21205" lon="5.73708">
        <ele>470.79998779297</ele>
        <time>2026-08-12T18:51:29.000Z</time>
      </trkpt>
      <trkpt lat="45.21204" lon="5.73711">
        <ele>470.60000610352</ele>
        <time>2026-08-12T18:51:30.000Z</time>
      </trkpt>
      <trkpt lat="45.21203" lon="5.73714">
        <ele>470</ele>
        <time>2026-08-12T18:51:31.000Z</time>
      </trkpt>
      <trkpt lat="45.21203" lon="5.73717">
        <ele>469.39999389648</ele>
        <time>2026-08-12T18:51:32.000Z</time>
      </trkpt>
      <trkpt lat="45.21203" lon="5.73721">
        <ele>469</ele>
        <time>2026-08-12T18:51:33.000Z</time>
      </trkpt>
      <trkpt lat="45.21202" lon="5.73724">
        <ele>468.60000610352</ele>
        <time>2026-08-12T18:51:34.000Z</time>
      </trkpt>
      <trkpt lat="45.21201" lon="5.73726">
        <ele>468</ele>
        <time>2026-08-12T18:51:35.000Z</time>
      </trkpt>
      <trkpt lat="45.212" lon="5.73729">
        <ele>467.20001220703</ele>
        <time>2026-08-12T18:51:36.000Z</time>
      </trkpt>
      <trkpt lat="45.21199" lon="5.73732">
        <ele>466.79998779297</ele>
        <time>2026-08-12T18:51:37.000Z</time>
      </trkpt>
      <trkpt lat="45.21198" lon="5.73736">
        <ele>466.39999389648</ele>
        <time>2026-08-12T18:51:38.000Z</time>
      </trkpt>
      <trkpt lat="45.21198" lon="5.73739">
        <ele>466</ele>
        <time>2026-08-12T18:51:39.000Z</time>
      </trkpt>
      <trkpt lat="45.21198" lon="5.73743">
        <ele>465.39999389648</ele>
        <time>2026-08-12T18:51:40.000Z</time>
      </trkpt>
      <trkpt lat="45.21198" lon="5.73747">
        <ele>464.79998779297</ele>
        <time>2026-08-12T18:51:41.000Z</time>
      </trkpt>
      <trkpt lat="45.21198" lon="5.7375">
        <ele>464.39999389648</ele>
        <time>2026-08-12T18:51:42.000Z</time>
      </trkpt>
      <trkpt lat="45.21199" lon="5.73754">
        <ele>464.20001220703</ele>
        <time>2026-08-12T18:51:43.000Z</time>
      </trkpt>
      <trkpt lat="45.21199" lon="5.73757">
        <ele>463.79998779297</ele>
        <time>2026-08-12T18:51:44.000Z</time>
      </trkpt>
      <trkpt lat="45.212" lon="5.7376">
        <ele>463.60000610352</ele>
        <time>2026-08-12T18:51:45.000Z</time>
      </trkpt>
      <trkpt lat="45.212" lon="5.73762">
        <ele>463.39999389648</ele>
        <time>2026-08-12T18:51:46.000Z</time>
      </trkpt>
      <trkpt lat="45.212" lon="5.73765">
        <ele>463.20001220703</ele>
        <time>2026-08-12T18:51:47.000Z</time>
      </trkpt>
      <trkpt lat="45.21201" lon="5.73767">
        <ele>463</ele>
        <time>2026-08-12T18:51:48.000Z</time>
      </trkpt>
      <trkpt lat="45.21202" lon="5.73769">
        <ele>462.60000610352</ele>
        <time>2026-08-12T18:51:49.000Z</time>
      </trkpt>
      <trkpt lat="45.21203" lon="5.73771">
        <ele>462.39999389648</ele>
        <time>2026-08-12T18:51:50.000Z</time>
      </trkpt>
      <trkpt lat="45.21203" lon="5.73773">
        <ele>462.20001220703</ele>
        <time>2026-08-12T18:51:51.000Z</time>
      </trkpt>
      <trkpt lat="45.21204" lon="5.73775">
        <ele>461.79998779297</ele>
        <time>2026-08-12T18:51:52.000Z</time>
      </trkpt>
      <trkpt lat="45.21204" lon="5.73776">
        <ele>461.39999389648</ele>
        <time>2026-08-12T18:51:53.000Z</time>
      </trkpt>
      <trkpt lat="45.21205" lon="5.73778">
        <ele>461.20001220703</ele>
        <time>2026-08-12T18:51:54.000Z</time>
      </trkpt>
      <trkpt lat="45.21205" lon="5.7378">
        <ele>460.79998779297</ele>
        <time>2026-08-12T18:51:55.000Z</time>
      </trkpt>
      <trkpt lat="45.21205" lon="5.73783">
        <ele>460.79998779297</ele>
        <time>2026-08-12T18:51:56.000Z</time>
      </trkpt>
      <trkpt lat="45.21206" lon="5.73785">
        <ele>459.79998779297</ele>
        <time>2026-08-12T18:51:57.000Z</time>
      </trkpt>
      <trkpt lat="45.21206" lon="5.73787">
        <ele>459.39999389648</ele>
        <time>2026-08-12T18:51:58.000Z</time>
      </trkpt>
      <trkpt lat="45.21206" lon="5.73789">
        <ele>458.79998779297</ele>
        <time>2026-08-12T18:51:59.000Z</time>
      </trkpt>
      <trkpt lat="45.21205" lon="5.73793">
        <ele>458.39999389648</ele>
        <time>2026-08-12T18:52:00.000Z</time>
      </trkpt>
      <trkpt lat="45.21205" lon="5.73795">
        <ele>458</ele>
        <time>2026-08-12T18:52:01.000Z</time>
      </trkpt>
      <trkpt lat="45.21204" lon="5.73798">
        <ele>457.79998779297</ele>
        <time>2026-08-12T18:52:02.000Z</time>
      </trkpt>
      <trkpt lat="45.21204" lon="5.73801">
        <ele>456.79998779297</ele>
        <time>2026-08-12T18:52:03.000Z</time>
      </trkpt>
      <trkpt lat="45.21204" lon="5.73804">
        <ele>455.79998779297</ele>
        <time>2026-08-12T18:52:04.000Z</time>
      </trkpt>
      <trkpt lat="45.21203" lon="5.73807">
        <ele>455.60000610352</ele>
        <time>2026-08-12T18:52:05.000Z</time>
      </trkpt>
      <trkpt lat="45.21203" lon="5.7381">
        <ele>455.20001220703</ele>
        <time>2026-08-12T18:52:06.000Z</time>
      </trkpt>
      <trkpt lat="45.21202" lon="5.73812">
        <ele>455</ele>
        <time>2026-08-12T18:52:07.000Z</time>
      </trkpt>
      <trkpt lat="45.21202" lon="5.73815">
        <ele>454.60000610352</ele>
        <time>2026-08-12T18:52:08.000Z</time>
      </trkpt>
      <trkpt lat="45.21201" lon="5.73816">
        <ele>454.20001220703</ele>
        <time>2026-08-12T18:52:09.000Z</time>
      </trkpt>
      <trkpt lat="45.21201" lon="5.73818">
        <ele>454</ele>
        <time>2026-08-12T18:52:10.000Z</time>
      </trkpt>
      <trkpt lat="45.212" lon="5.7382">
        <ele>453.60000610352</ele>
        <time>2026-08-12T18:52:11.000Z</time>
      </trkpt>
      <trkpt lat="45.21199" lon="5.73821">
        <ele>453.39999389648</ele>
        <time>2026-08-12T18:52:12.000Z</time>
      </trkpt>
      <trkpt lat="45.21198" lon="5.73823">
        <ele>453</ele>
        <time>2026-08-12T18:52:13.000Z</time>
      </trkpt>
      <trkpt lat="45.21197" lon="5.73824">
        <ele>452.39999389648</ele>
        <time>2026-08-12T18:52:14.000Z</time>
      </trkpt>
      <trkpt lat="45.21197" lon="5.73825">
        <ele>452</ele>
        <time>2026-08-12T18:52:15.000Z</time>
      </trkpt>
      <trkpt lat="45.21196" lon="5.73825">
        <ele>451.60000610352</ele>
        <time>2026-08-12T18:52:16.000Z</time>
      </trkpt>
      <trkpt lat="45.21195" lon="5.73826">
        <ele>451.20001220703</ele>
        <time>2026-08-12T18:52:17.000Z</time>
      </trkpt>
      <trkpt lat="45.21194" lon="5.73828">
        <ele>451</ele>
        <time>2026-08-12T18:52:18.000Z</time>
      </trkpt>
      <trkpt lat="45.21194" lon="5.73829">
        <ele>450.39999389648</ele>
        <time>2026-08-12T18:52:19.000Z</time>
      </trkpt>
      <trkpt lat="45.21193" lon="5.7383">
        <ele>450.20001220703</ele>
        <time>2026-08-12T18:52:20.000Z</time>
      </trkpt>
      <trkpt lat="45.21193" lon="5.7383">
        <ele>449.79998779297</ele>
        <time>2026-08-12T18:52:21.000Z</time>
      </trkpt>
      <trkpt lat="45.21192" lon="5.73831">
        <ele>449.39999389648</ele>
        <time>2026-08-12T18:52:22.000Z</time>
      </trkpt>
      <trkpt lat="45.21191" lon="5.73831">
        <ele>449.20001220703</ele>
        <time>2026-08-12T18:52:23.000Z</time>
      </trkpt>
      <trkpt lat="45.21191" lon="5.73832">
        <ele>449</ele>
        <time>2026-08-12T18:52:24.000Z</time>
      </trkpt>
      <trkpt lat="45.21191" lon="5.73832">
        <ele>448.79998779297</ele>
        <time>2026-08-12T18:52:25.000Z</time>
      </trkpt>
      <trkpt lat="45.21192" lon="5.73833">
        <ele>448.60000610352</ele>
        <time>2026-08-12T18:52:26.000Z</time>
      </trkpt>
      <trkpt lat="45.21192" lon="5.73834">
        <ele>448.20001220703</ele>
        <time>2026-08-12T18:52:27.000Z</time>
      </trkpt>
      <trkpt lat="45.21191" lon="5.73835">
        <ele>448</ele>
        <time>2026-08-12T18:52:28.000Z</time>
      </trkpt>
      <trkpt lat="45.2119" lon="5.73836">
        <ele>447.60000610352</ele>
        <time>2026-08-12T18:52:29.000Z</time>
      </trkpt>
      <trkpt lat="45.21189" lon="5.73838">
        <ele>447.60000610352</ele>
        <time>2026-08-12T18:52:30.000Z</time>
      </trkpt>
      <trkpt lat="45.21189" lon="5.73839">
        <ele>447.39999389648</ele>
        <time>2026-08-12T18:52:31.000Z</time>
      </trkpt>
      <trkpt lat="45.21188" lon="5.7384">
        <ele>447</ele>
        <time>2026-08-12T18:52:32.000Z</time>
      </trkpt>
      <trkpt lat="45.21187" lon="5.73841">
        <ele>446.60000610352</ele>
        <time>2026-08-12T18:52:33.000Z</time>
      </trkpt>
      <trkpt lat="45.21187" lon="5.73843">
        <ele>446</ele>
        <time>2026-08-12T18:52:34.000Z</time>
      </trkpt>
      <trkpt lat="45.21186" lon="5.73844">
        <ele>445.79998779297</ele>
        <time>2026-08-12T18:52:35.000Z</time>
      </trkpt>
      <trkpt lat="45.21186" lon="5.73846">
        <ele>445.39999389648</ele>
        <time>2026-08-12T18:52:36.000Z</time>
      </trkpt>
      <trkpt lat="45.21186" lon="5.73846">
        <ele>445</ele>
        <time>2026-08-12T18:52:37.000Z</time>
      </trkpt>
      <trkpt lat="45.21185" lon="5.73848">
        <ele>444.79998779297</ele>
        <time>2026-08-12T18:52:38.000Z</time>
      </trkpt>
      <trkpt lat="45.21184" lon="5.7385">
        <ele>444.20001220703</ele>
        <time>2026-08-12T18:52:39.000Z</time>
      </trkpt>
      <trkpt lat="45.21183" lon="5.73851">
        <ele>443.60000610352</ele>
        <time>2026-08-12T18:52:40.000Z</time>
      </trkpt>
      <trkpt lat="45.21182" lon="5.73851">
        <ele>443.39999389648</ele>
        <time>2026-08-12T18:52:41.000Z</time>
      </trkpt>
      <trkpt lat="45.21181" lon="5.73852">
        <ele>443</ele>
        <time>2026-08-12T18:52:42.000Z</time>
      </trkpt>
      <trkpt lat="45.21179" lon="5.73852">
        <ele>442.60000610352</ele>
        <time>2026-08-12T18:52:43.000Z</time>
      </trkpt>
      <trkpt lat="45.21178" lon="5.73852">
        <ele>442.39999389648</ele>
        <time>2026-08-12T18:52:44.000Z</time>
      </trkpt>
      <trkpt lat="45.21177" lon="5.73852">
        <ele>442.20001220703</ele>
        <time>2026-08-12T18:52:45.000Z</time>
      </trkpt>
      <trkpt lat="45.21176" lon="5.73853">
        <ele>441.79998779297</ele>
        <time>2026-08-12T18:52:46.000Z</time>
      </trkpt>
      <trkpt lat="45.21175" lon="5.73853">
        <ele>441.60000610352</ele>
        <time>2026-08-12T18:52:47.000Z</time>
      </trkpt>
      <trkpt lat="45.21173" lon="5.73852">
        <ele>441.20001220703</ele>
        <time>2026-08-12T18:52:48.000Z</time>
      </trkpt>
      <trkpt lat="45.21171" lon="5.73851">
        <ele>440.79998779297</ele>
        <time>2026-08-12T18:52:49.000Z</time>
      </trkpt>
      <trkpt lat="45.2117" lon="5.7385">
        <ele>440.20001220703</ele>
        <time>2026-08-12T18:52:50.000Z</time>
      </trkpt>
      <trkpt lat="45.21169" lon="5.73848">
        <ele>440.20001220703</ele>
        <time>2026-08-12T18:52:51.000Z</time>
      </trkpt>
      <trkpt lat="45.21168" lon="5.73846">
        <ele>439.39999389648</ele>
        <time>2026-08-12T18:52:52.000Z</time>
      </trkpt>
      <trkpt lat="45.21168" lon="5.73845">
        <ele>439</ele>
        <time>2026-08-12T18:52:53.000Z</time>
      </trkpt>
      <trkpt lat="45.21168" lon="5.73843">
        <ele>438.39999389648</ele>
        <time>2026-08-12T18:52:54.000Z</time>
      </trkpt>
      <trkpt lat="45.21168" lon="5.73842">
        <ele>438</ele>
        <time>2026-08-12T18:52:55.000Z</time>
      </trkpt>
      <trkpt lat="45.21167" lon="5.73841">
        <ele>437.79998779297</ele>
        <time>2026-08-12T18:52:56.000Z</time>
      </trkpt>
      <trkpt lat="45.21167" lon="5.73841">
        <ele>437.39999389648</ele>
        <time>2026-08-12T18:52:57.000Z</time>
      </trkpt>
      <trkpt lat="45.21166" lon="5.73841">
        <ele>437</ele>
        <time>2026-08-12T18:52:58.000Z</time>
      </trkpt>
      <trkpt lat="45.21166" lon="5.73842">
        <ele>436.60000610352</ele>
        <time>2026-08-12T18:52:59.000Z</time>
      </trkpt>
      <trkpt lat="45.21166" lon="5.73843">
        <ele>436.20001220703</ele>
        <time>2026-08-12T18:53:00.000Z</time>
      </trkpt>
      <trkpt lat="45.21165" lon="5.73844">
        <ele>435.79998779297</ele>
        <time>2026-08-12T18:53:01.000Z</time>
      </trkpt>
      <trkpt lat="45.21165" lon="5.73844">
        <ele>435.39999389648</ele>
        <time>2026-08-12T18:53:02.000Z</time>
      </trkpt>
      <trkpt lat="45.21164" lon="5.73844">
        <ele>435</ele>
        <time>2026-08-12T18:53:03.000Z</time>
      </trkpt>
      <trkpt lat="45.21164" lon="5.73845">
        <ele>434.79998779297</ele>
        <time>2026-08-12T18:53:04.000Z</time>
      </trkpt>
      <trkpt lat="45.21163" lon="5.73846">
        <ele>434.60000610352</ele>
        <time>2026-08-12T18:53:05.000Z</time>
      </trkpt>
      <trkpt lat="45.21163" lon="5.73847">
        <ele>434.20001220703</ele>
        <time>2026-08-12T18:53:06.000Z</time>
      </trkpt>
      <trkpt lat="45.21162" lon="5.73848">
        <ele>433.79998779297</ele>
        <time>2026-08-12T18:53:07.000Z</time>
      </trkpt>
      <trkpt lat="45.21162" lon="5.73849">
        <ele>433.20001220703</ele>
        <time>2026-08-12T18:53:08.000Z</time>
      </trkpt>
      <trkpt lat="45.21161" lon="5.7385">
        <ele>432.79998779297</ele>
        <time>2026-08-12T18:53:09.000Z</time>
      </trkpt>
      <trkpt lat="45.2116" lon="5.73851">
        <ele>432.39999389648</ele>
        <time>2026-08-12T18:53:10.000Z</time>
      </trkpt>
      <trkpt lat="45.2116" lon="5.73852">
        <ele>432</ele>
        <time>2026-08-12T18:53:11.000Z</time>
      </trkpt>
      <trkpt lat="45.21161" lon="5.73853">
        <ele>431.79998779297</ele>
        <time>2026-08-12T18:53:12.000Z</time>
      </trkpt>
      <trkpt lat="45.21161" lon="5.73854">
        <ele>431.39999389648</ele>
        <time>2026-08-12T18:53:13.000Z</time>
      </trkpt>
      <trkpt lat="45.2116" lon="5.73856">
        <ele>431.20001220703</ele>
        <time>2026-08-12T18:53:14.000Z</time>
      </trkpt>
      <trkpt lat="45.2116" lon="5.73857">
        <ele>430.79998779297</ele>
        <time>2026-08-12T18:53:15.000Z</time>
      </trkpt>
      <trkpt lat="45.2116" lon="5.73859">
        <ele>430.39999389648</ele>
        <time>2026-08-12T18:53:16.000Z</time>
      </trkpt>
      <trkpt lat="45.2116" lon="5.73861">
        <ele>430.39999389648</ele>
        <time>2026-08-12T18:53:17.000Z</time>
      </trkpt>
      <trkpt lat="45.2116" lon="5.73863">
        <ele>429.79998779297</ele>
        <time>2026-08-12T18:53:18.000Z</time>
      </trkpt>
      <trkpt lat="45.2116" lon="5.73864">
        <ele>429.39999389648</ele>
        <time>2026-08-12T18:53:19.000Z</time>
      </trkpt>
      <trkpt lat="45.2116" lon="5.73866">
        <ele>429</ele>
        <time>2026-08-12T18:53:20.000Z</time>
      </trkpt>
      <trkpt lat="45.21161" lon="5.73868">
        <ele>428.60000610352</ele>
        <time>2026-08-12T18:53:21.000Z</time>
      </trkpt>
      <trkpt lat="45.21161" lon="5.73869">
        <ele>428.39999389648</ele>
        <time>2026-08-12T18:53:22.000Z</time>
      </trkpt>
      <trkpt lat="45.21162" lon="5.73871">
        <ele>428.20001220703</ele>
        <time>2026-08-12T18:53:23.000Z</time>
      </trkpt>
      <trkpt lat="45.21162" lon="5.73873">
        <ele>428</ele>
        <time>2026-08-12T18:53:24.000Z</time>
      </trkpt>
      <trkpt lat="45.21163" lon="5.73875">
        <ele>427.60000610352</ele>
        <time>2026-08-12T18:53:25.000Z</time>
      </trkpt>
      <trkpt lat="45.21163" lon="5.73876">
        <ele>427</ele>
        <time>2026-08-12T18:53:26.000Z</time>
      </trkpt>
      <trkpt lat="45.21163" lon="5.73877">
        <ele>426.79998779297</ele>
        <time>2026-08-12T18:53:27.000Z</time>
      </trkpt>
      <trkpt lat="45.21163" lon="5.73879">
        <ele>426.20001220703</ele>
        <time>2026-08-12T18:53:28.000Z</time>
      </trkpt>
      <trkpt lat="45.21163" lon="5.7388">
        <ele>426</ele>
        <time>2026-08-12T18:53:29.000Z</time>
      </trkpt>
      <trkpt lat="45.21164" lon="5.73882">
        <ele>425.39999389648</ele>
        <time>2026-08-12T18:53:30.000Z</time>
      </trkpt>
      <trkpt lat="45.21164" lon="5.73884">
        <ele>425</ele>
        <time>2026-08-12T18:53:31.000Z</time>
      </trkpt>
      <trkpt lat="45.21164" lon="5.73886">
        <ele>424.79998779297</ele>
        <time>2026-08-12T18:53:32.000Z</time>
      </trkpt>
      <trkpt lat="45.21164" lon="5.73887">
        <ele>424.60000610352</ele>
        <time>2026-08-12T18:53:33.000Z</time>
      </trkpt>
      <trkpt lat="45.21164" lon="5.7389">
        <ele>424.20001220703</ele>
        <time>2026-08-12T18:53:34.000Z</time>
      </trkpt>
      <trkpt lat="45.21164" lon="5.73892">
        <ele>423.79998779297</ele>
        <time>2026-08-12T18:53:35.000Z</time>
      </trkpt>
      <trkpt lat="45.21165" lon="5.73893">
        <ele>423.39999389648</ele>
        <time>2026-08-12T18:53:36.000Z</time>
      </trkpt>
      <trkpt lat="45.21165" lon="5.73895">
        <ele>423</ele>
        <time>2026-08-12T18:53:37.000Z</time>
      </trkpt>
      <trkpt lat="45.21165" lon="5.73896">
        <ele>422.60000610352</ele>
        <time>2026-08-12T18:53:38.000Z</time>
      </trkpt>
      <trkpt lat="45.21165" lon="5.73898">
        <ele>422.20001220703</ele>
        <time>2026-08-12T18:53:39.000Z</time>
      </trkpt>
      <trkpt lat="45.21165" lon="5.739">
        <ele>422</ele>
        <time>2026-08-12T18:53:40.000Z</time>
      </trkpt>
      <trkpt lat="45.21165" lon="5.73901">
        <ele>421.60000610352</ele>
        <time>2026-08-12T18:53:41.000Z</time>
      </trkpt>
      <trkpt lat="45.21165" lon="5.73902">
        <ele>421.39999389648</ele>
        <time>2026-08-12T18:53:42.000Z</time>
      </trkpt>
      <trkpt lat="45.21165" lon="5.73904">
        <ele>421.20001220703</ele>
        <time>2026-08-12T18:53:43.000Z</time>
      </trkpt>
      <trkpt lat="45.21165" lon="5.73905">
        <ele>420.79998779297</ele>
        <time>2026-08-12T18:53:44.000Z</time>
      </trkpt>
      <trkpt lat="45.21165" lon="5.73907">
        <ele>420.39999389648</ele>
        <time>2026-08-12T18:53:45.000Z</time>
      </trkpt>
      <trkpt lat="45.21165" lon="5.73908">
        <ele>420.20001220703</ele>
        <time>2026-08-12T18:53:46.000Z</time>
      </trkpt>
      <trkpt lat="45.21165" lon="5.7391">
        <ele>419.79998779297</ele>
        <time>2026-08-12T18:53:47.000Z</time>
      </trkpt>
      <trkpt lat="45.21165" lon="5.73912">
        <ele>419.39999389648</ele>
        <time>2026-08-12T18:53:48.000Z</time>
      </trkpt>
      <trkpt lat="45.21165" lon="5.73914">
        <ele>419</ele>
        <time>2026-08-12T18:53:49.000Z</time>
      </trkpt>
      <trkpt lat="45.21165" lon="5.73916">
        <ele>418.60000610352</ele>
        <time>2026-08-12T18:53:50.000Z</time>
      </trkpt>
      <trkpt lat="45.21165" lon="5.73919">
        <ele>418</ele>
        <time>2026-08-12T18:53:51.000Z</time>
      </trkpt>
      <trkpt lat="45.21165" lon="5.7392">
        <ele>417.39999389648</ele>
        <time>2026-08-12T18:53:52.000Z</time>
      </trkpt>
      <trkpt lat="45.21165" lon="5.73922">
        <ele>417</ele>
        <time>2026-08-12T18:53:53.000Z</time>
      </trkpt>
      <trkpt lat="45.21165" lon="5.73924">
        <ele>416.60000610352</ele>
        <time>2026-08-12T18:53:54.000Z</time>
      </trkpt>
      <trkpt lat="45.21165" lon="5.73926">
        <ele>416.39999389648</ele>
        <time>2026-08-12T18:53:55.000Z</time>
      </trkpt>
      <trkpt lat="45.21166" lon="5.73928">
        <ele>416</ele>
        <time>2026-08-12T18:53:56.000Z</time>
      </trkpt>
      <trkpt lat="45.21166" lon="5.7393">
        <ele>415.79998779297</ele>
        <time>2026-08-12T18:53:57.000Z</time>
      </trkpt>
      <trkpt lat="45.21167" lon="5.73932">
        <ele>415.39999389648</ele>
        <time>2026-08-12T18:53:58.000Z</time>
      </trkpt>
      <trkpt lat="45.21168" lon="5.73934">
        <ele>415.20001220703</ele>
        <time>2026-08-12T18:53:59.000Z</time>
      </trkpt>
      <trkpt lat="45.21169" lon="5.73936">
        <ele>415</ele>
        <time>2026-08-12T18:54:00.000Z</time>
      </trkpt>
      <trkpt lat="45.2117" lon="5.73938">
        <ele>414.39999389648</ele>
        <time>2026-08-12T18:54:01.000Z</time>
      </trkpt>
      <trkpt lat="45.2117" lon="5.7394">
        <ele>414.20001220703</ele>
        <time>2026-08-12T18:54:02.000Z</time>
      </trkpt>
      <trkpt lat="45.21171" lon="5.73942">
        <ele>413.79998779297</ele>
        <time>2026-08-12T18:54:03.000Z</time>
      </trkpt>
      <trkpt lat="45.21172" lon="5.73944">
        <ele>413.79998779297</ele>
        <time>2026-08-12T18:54:04.000Z</time>
      </trkpt>
      <trkpt lat="45.21173" lon="5.73947">
        <ele>413.20001220703</ele>
        <time>2026-08-12T18:54:05.000Z</time>
      </trkpt>
      <trkpt lat="45.21174" lon="5.7395">
        <ele>412.60000610352</ele>
        <time>2026-08-12T18:54:06.000Z</time>
      </trkpt>
      <trkpt lat="45.21174" lon="5.73952">
        <ele>412.20001220703</ele>
        <time>2026-08-12T18:54:07.000Z</time>
      </trkpt>
      <trkpt lat="45.21176" lon="5.73955">
        <ele>411.79998779297</ele>
        <time>2026-08-12T18:54:08.000Z</time>
      </trkpt>
      <trkpt lat="45.21176" lon="5.73958">
        <ele>411.60000610352</ele>
        <time>2026-08-12T18:54:09.000Z</time>
      </trkpt>
      <trkpt lat="45.21177" lon="5.73961">
        <ele>411.20001220703</ele>
        <time>2026-08-12T18:54:10.000Z</time>
      </trkpt>
      <trkpt lat="45.21178" lon="5.73964">
        <ele>410.79998779297</ele>
        <time>2026-08-12T18:54:11.000Z</time>
      </trkpt>
      <trkpt lat="45.21178" lon="5.73967">
        <ele>410.60000610352</ele>
        <time>2026-08-12T18:54:12.000Z</time>
      </trkpt>
      <trkpt lat="45.21178" lon="5.7397">
        <ele>410.39999389648</ele>
        <time>2026-08-12T18:54:13.000Z</time>
      </trkpt>
      <trkpt lat="45.21178" lon="5.73972">
        <ele>410.20001220703</ele>
        <time>2026-08-12T18:54:14.000Z</time>
      </trkpt>
      <trkpt lat="45.21178" lon="5.73975">
        <ele>410</ele>
        <time>2026-08-12T18:54:15.000Z</time>
      </trkpt>
      <trkpt lat="45.21178" lon="5.73979">
        <ele>410</ele>
        <time>2026-08-12T18:54:16.000Z</time>
      </trkpt>
      <trkpt lat="45.21178" lon="5.73982">
        <ele>410</ele>
        <time>2026-08-12T18:54:17.000Z</time>
      </trkpt>
      <trkpt lat="45.21178" lon="5.73985">
        <ele>409.79998779297</ele>
        <time>2026-08-12T18:54:18.000Z</time>
      </trkpt>
      <trkpt lat="45.21177" lon="5.73987">
        <ele>409.79998779297</ele>
        <time>2026-08-12T18:54:19.000Z</time>
      </trkpt>
      <trkpt lat="45.21177" lon="5.73989">
        <ele>409.60000610352</ele>
        <time>2026-08-12T18:54:20.000Z</time>
      </trkpt>
      <trkpt lat="45.21178" lon="5.73991">
        <ele>409.20001220703</ele>
        <time>2026-08-12T18:54:21.000Z</time>
      </trkpt>
      <trkpt lat="45.21178" lon="5.73993">
        <ele>409</ele>
        <time>2026-08-12T18:54:22.000Z</time>
      </trkpt>
      <trkpt lat="45.21179" lon="5.73995">
        <ele>409</ele>
        <time>2026-08-12T18:54:23.000Z</time>
      </trkpt>
      <trkpt lat="45.2118" lon="5.73998">
        <ele>408.79998779297</ele>
        <time>2026-08-12T18:54:24.000Z</time>
      </trkpt>
      <trkpt lat="45.21182" lon="5.74001">
        <ele>408.79998779297</ele>
        <time>2026-08-12T18:54:25.000Z</time>
      </trkpt>
      <trkpt lat="45.21183" lon="5.74004">
        <ele>408.79998779297</ele>
        <time>2026-08-12T18:54:26.000Z</time>
      </trkpt>
      <trkpt lat="45.21185" lon="5.74007">
        <ele>408.79998779297</ele>
        <time>2026-08-12T18:54:27.000Z</time>
      </trkpt>
      <trkpt lat="45.21186" lon="5.7401">
        <ele>408.60000610352</ele>
        <time>2026-08-12T18:54:28.000Z</time>
      </trkpt>
      <trkpt lat="45.21187" lon="5.74013">
        <ele>408.60000610352</ele>
        <time>2026-08-12T18:54:29.000Z</time>
      </trkpt>
      <trkpt lat="45.21188" lon="5.74015">
        <ele>408.39999389648</ele>
        <time>2026-08-12T18:54:30.000Z</time>
      </trkpt>
      <trkpt lat="45.2119" lon="5.74017">
        <ele>408.39999389648</ele>
        <time>2026-08-12T18:54:31.000Z</time>
      </trkpt>
      <trkpt lat="45.21191" lon="5.7402">
        <ele>408.39999389648</ele>
        <time>2026-08-12T18:54:32.000Z</time>
      </trkpt>
      <trkpt lat="45.21192" lon="5.74023">
        <ele>408.20001220703</ele>
        <time>2026-08-12T18:54:33.000Z</time>
      </trkpt>
      <trkpt lat="45.21193" lon="5.74025">
        <ele>408</ele>
        <time>2026-08-12T18:54:34.000Z</time>
      </trkpt>
      <trkpt lat="45.21194" lon="5.74028">
        <ele>407.79998779297</ele>
        <time>2026-08-12T18:54:35.000Z</time>
      </trkpt>
      <trkpt lat="45.21194" lon="5.74031">
        <ele>407.60000610352</ele>
        <time>2026-08-12T18:54:36.000Z</time>
      </trkpt>
      <trkpt lat="45.21194" lon="5.74033">
        <ele>407.39999389648</ele>
        <time>2026-08-12T18:54:37.000Z</time>
      </trkpt>
      <trkpt lat="45.21194" lon="5.74036">
        <ele>407.20001220703</ele>
        <time>2026-08-12T18:54:38.000Z</time>
      </trkpt>
      <trkpt lat="45.21194" lon="5.74038">
        <ele>407</ele>
        <time>2026-08-12T18:54:39.000Z</time>
      </trkpt>
      <trkpt lat="45.21194" lon="5.7404">
        <ele>407</ele>
        <time>2026-08-12T18:54:40.000Z</time>
      </trkpt>
      <trkpt lat="45.21194" lon="5.74042">
        <ele>406.79998779297</ele>
        <time>2026-08-12T18:54:41.000Z</time>
      </trkpt>
      <trkpt lat="45.21193" lon="5.74043">
        <ele>406.60000610352</ele>
        <time>2026-08-12T18:54:42.000Z</time>
      </trkpt>
      <trkpt lat="45.21192" lon="5.74044">
        <ele>406.39999389648</ele>
        <time>2026-08-12T18:54:43.000Z</time>
      </trkpt>
      <trkpt lat="45.21191" lon="5.74046">
        <ele>406.20001220703</ele>
        <time>2026-08-12T18:54:44.000Z</time>
      </trkpt>
      <trkpt lat="45.2119" lon="5.74048">
        <ele>406</ele>
        <time>2026-08-12T18:54:45.000Z</time>
      </trkpt>
      <trkpt lat="45.21189" lon="5.7405">
        <ele>405.60000610352</ele>
        <time>2026-08-12T18:54:46.000Z</time>
      </trkpt>
      <trkpt lat="45.21188" lon="5.74052">
        <ele>405.20001220703</ele>
        <time>2026-08-12T18:54:47.000Z</time>
      </trkpt>
      <trkpt lat="45.21188" lon="5.74054">
        <ele>404.60000610352</ele>
        <time>2026-08-12T18:54:48.000Z</time>
      </trkpt>
      <trkpt lat="45.21187" lon="5.74056">
        <ele>404</ele>
        <time>2026-08-12T18:54:49.000Z</time>
      </trkpt>
      <trkpt lat="45.21187" lon="5.74058">
        <ele>403.20001220703</ele>
        <time>2026-08-12T18:54:50.000Z</time>
      </trkpt>
      <trkpt lat="45.21186" lon="5.74059">
        <ele>402.79998779297</ele>
        <time>2026-08-12T18:54:51.000Z</time>
      </trkpt>
      <trkpt lat="45.21186" lon="5.74061">
        <ele>402.20001220703</ele>
        <time>2026-08-12T18:54:52.000Z</time>
      </trkpt>
      <trkpt lat="45.21187" lon="5.74063">
        <ele>401.79998779297</ele>
        <time>2026-08-12T18:54:53.000Z</time>
      </trkpt>
      <trkpt lat="45.21186" lon="5.74065">
        <ele>401.39999389648</ele>
        <time>2026-08-12T18:54:54.000Z</time>
      </trkpt>
      <trkpt lat="45.21186" lon="5.74067">
        <ele>401.20001220703</ele>
        <time>2026-08-12T18:54:55.000Z</time>
      </trkpt>
      <trkpt lat="45.21186" lon="5.74069">
        <ele>400.79998779297</ele>
        <time>2026-08-12T18:54:56.000Z</time>
      </trkpt>
      <trkpt lat="45.21186" lon="5.74072">
        <ele>400.60000610352</ele>
        <time>2026-08-12T18:54:57.000Z</time>
      </trkpt>
      <trkpt lat="45.21186" lon="5.74073">
        <ele>400.39999389648</ele>
        <time>2026-08-12T18:54:58.000Z</time>
      </trkpt>
      <trkpt lat="45.21186" lon="5.74075">
        <ele>399.79998779297</ele>
        <time>2026-08-12T18:54:59.000Z</time>
      </trkpt>
      <trkpt lat="45.21186" lon="5.74077">
        <ele>399.39999389648</ele>
        <time>2026-08-12T18:55:00.000Z</time>
      </trkpt>
      <trkpt lat="45.21186" lon="5.74079">
        <ele>398.79998779297</ele>
        <time>2026-08-12T18:55:01.000Z</time>
      </trkpt>
      <trkpt lat="45.21186" lon="5.74081">
        <ele>398.60000610352</ele>
        <time>2026-08-12T18:55:02.000Z</time>
      </trkpt>
      <trkpt lat="45.21186" lon="5.74083">
        <ele>398.39999389648</ele>
        <time>2026-08-12T18:55:03.000Z</time>
      </trkpt>
      <trkpt lat="45.21185" lon="5.74084">
        <ele>398</ele>
        <time>2026-08-12T18:55:04.000Z</time>
      </trkpt>
      <trkpt lat="45.21185" lon="5.74086">
        <ele>397.79998779297</ele>
        <time>2026-08-12T18:55:05.000Z</time>
      </trkpt>
      <trkpt lat="45.21185" lon="5.74088">
        <ele>397.60000610352</ele>
        <time>2026-08-12T18:55:06.000Z</time>
      </trkpt>
      <trkpt lat="45.21185" lon="5.7409">
        <ele>397</ele>
        <time>2026-08-12T18:55:07.000Z</time>
      </trkpt>
      <trkpt lat="45.21185" lon="5.74092">
        <ele>396.60000610352</ele>
        <time>2026-08-12T18:55:08.000Z</time>
      </trkpt>
      <trkpt lat="45.21184" lon="5.74094">
        <ele>396</ele>
        <time>2026-08-12T18:55:09.000Z</time>
      </trkpt>
      <trkpt lat="45.21184" lon="5.74096">
        <ele>395.79998779297</ele>
        <time>2026-08-12T18:55:10.000Z</time>
      </trkpt>
      <trkpt lat="45.21184" lon="5.74097">
        <ele>395.39999389648</ele>
        <time>2026-08-12T18:55:11.000Z</time>
      </trkpt>
      <trkpt lat="45.21183" lon="5.74099">
        <ele>395.20001220703</ele>
        <time>2026-08-12T18:55:12.000Z</time>
      </trkpt>
      <trkpt lat="45.21183" lon="5.74101">
        <ele>395</ele>
        <time>2026-08-12T18:55:13.000Z</time>
      </trkpt>
      <trkpt lat="45.21182" lon="5.74102">
        <ele>394.39999389648</ele>
        <time>2026-08-12T18:55:14.000Z</time>
      </trkpt>
      <trkpt lat="45.21182" lon="5.74104">
        <ele>394</ele>
        <time>2026-08-12T18:55:15.000Z</time>
      </trkpt>
      <trkpt lat="45.21182" lon="5.74106">
        <ele>393.60000610352</ele>
        <time>2026-08-12T18:55:16.000Z</time>
      </trkpt>
      <trkpt lat="45.21182" lon="5.74107">
        <ele>393.60000610352</ele>
        <time>2026-08-12T18:55:17.000Z</time>
      </trkpt>
      <trkpt lat="45.21181" lon="5.74109">
        <ele>393.20001220703</ele>
        <time>2026-08-12T18:55:18.000Z</time>
      </trkpt>
      <trkpt lat="45.2118" lon="5.74112">
        <ele>392.79998779297</ele>
        <time>2026-08-12T18:55:19.000Z</time>
      </trkpt>
      <trkpt lat="45.2118" lon="5.74114">
        <ele>392.60000610352</ele>
        <time>2026-08-12T18:55:20.000Z</time>
      </trkpt>
      <trkpt lat="45.21179" lon="5.74117">
        <ele>392</ele>
        <time>2026-08-12T18:55:21.000Z</time>
      </trkpt>
      <trkpt lat="45.21179" lon="5.7412">
        <ele>391.79998779297</ele>
        <time>2026-08-12T18:55:22.000Z</time>
      </trkpt>
      <trkpt lat="45.21178" lon="5.74123">
        <ele>391.20001220703</ele>
        <time>2026-08-12T18:55:23.000Z</time>
      </trkpt>
      <trkpt lat="45.21179" lon="5.74126">
        <ele>390.79998779297</ele>
        <time>2026-08-12T18:55:24.000Z</time>
      </trkpt>
      <trkpt lat="45.2118" lon="5.74129">
        <ele>390.60000610352</ele>
        <time>2026-08-12T18:55:25.000Z</time>
      </trkpt>
      <trkpt lat="45.21181" lon="5.74132">
        <ele>390.39999389648</ele>
        <time>2026-08-12T18:55:26.000Z</time>
      </trkpt>
      <trkpt lat="45.21182" lon="5.74135">
        <ele>390.20001220703</ele>
        <time>2026-08-12T18:55:27.000Z</time>
      </trkpt>
      <trkpt lat="45.21184" lon="5.74138">
        <ele>390</ele>
        <time>2026-08-12T18:55:28.000Z</time>
      </trkpt>
      <trkpt lat="45.21186" lon="5.74141">
        <ele>389.79998779297</ele>
        <time>2026-08-12T18:55:29.000Z</time>
      </trkpt>
      <trkpt lat="45.21188" lon="5.74143">
        <ele>389.79998779297</ele>
        <time>2026-08-12T18:55:30.000Z</time>
      </trkpt>
      <trkpt lat="45.2119" lon="5.74145">
        <ele>389.60000610352</ele>
        <time>2026-08-12T18:55:31.000Z</time>
      </trkpt>
      <trkpt lat="45.21192" lon="5.74147">
        <ele>389.39999389648</ele>
        <time>2026-08-12T18:55:32.000Z</time>
      </trkpt>
      <trkpt lat="45.21193" lon="5.7415">
        <ele>389.39999389648</ele>
        <time>2026-08-12T18:55:33.000Z</time>
      </trkpt>
      <trkpt lat="45.21195" lon="5.74152">
        <ele>389.39999389648</ele>
        <time>2026-08-12T18:55:34.000Z</time>
      </trkpt>
      <trkpt lat="45.21196" lon="5.74154">
        <ele>389.20001220703</ele>
        <time>2026-08-12T18:55:35.000Z</time>
      </trkpt>
      <trkpt lat="45.21198" lon="5.74156">
        <ele>389</ele>
        <time>2026-08-12T18:55:36.000Z</time>
      </trkpt>
      <trkpt lat="45.21199" lon="5.74158">
        <ele>388.79998779297</ele>
        <time>2026-08-12T18:55:37.000Z</time>
      </trkpt>
      <trkpt lat="45.212" lon="5.7416">
        <ele>388.60000610352</ele>
        <time>2026-08-12T18:55:38.000Z</time>
      </trkpt>
      <trkpt lat="45.21202" lon="5.74162">
        <ele>388.39999389648</ele>
        <time>2026-08-12T18:55:39.000Z</time>
      </trkpt>
      <trkpt lat="45.21204" lon="5.74164">
        <ele>388</ele>
        <time>2026-08-12T18:55:40.000Z</time>
      </trkpt>
      <trkpt lat="45.21205" lon="5.74166">
        <ele>387.79998779297</ele>
        <time>2026-08-12T18:55:41.000Z</time>
      </trkpt>
      <trkpt lat="45.21207" lon="5.74167">
        <ele>387.39999389648</ele>
        <time>2026-08-12T18:55:42.000Z</time>
      </trkpt>
      <trkpt lat="45.21209" lon="5.74169">
        <ele>387</ele>
        <time>2026-08-12T18:55:43.000Z</time>
      </trkpt>
      <trkpt lat="45.21211" lon="5.74171">
        <ele>386.79998779297</ele>
        <time>2026-08-12T18:55:44.000Z</time>
      </trkpt>
      <trkpt lat="45.21214" lon="5.74173">
        <ele>386.39999389648</ele>
        <time>2026-08-12T18:55:45.000Z</time>
      </trkpt>
      <trkpt lat="45.21216" lon="5.74175">
        <ele>386</ele>
        <time>2026-08-12T18:55:46.000Z</time>
      </trkpt>
      <trkpt lat="45.21218" lon="5.74177">
        <ele>385.60000610352</ele>
        <time>2026-08-12T18:55:47.000Z</time>
      </trkpt>
      <trkpt lat="45.2122" lon="5.74179">
        <ele>385.20001220703</ele>
        <time>2026-08-12T18:55:48.000Z</time>
      </trkpt>
      <trkpt lat="45.21222" lon="5.7418">
        <ele>384.79998779297</ele>
        <time>2026-08-12T18:55:49.000Z</time>
      </trkpt>
      <trkpt lat="45.21225" lon="5.74181">
        <ele>384.60000610352</ele>
        <time>2026-08-12T18:55:50.000Z</time>
      </trkpt>
      <trkpt lat="45.21227" lon="5.74182">
        <ele>384.39999389648</ele>
        <time>2026-08-12T18:55:51.000Z</time>
      </trkpt>
      <trkpt lat="45.21229" lon="5.74183">
        <ele>384.39999389648</ele>
        <time>2026-08-12T18:55:52.000Z</time>
      </trkpt>
      <trkpt lat="45.21231" lon="5.74183">
        <ele>384.39999389648</ele>
        <time>2026-08-12T18:55:53.000Z</time>
      </trkpt>
      <trkpt lat="45.21233" lon="5.74184">
        <ele>384.20001220703</ele>
        <time>2026-08-12T18:55:54.000Z</time>
      </trkpt>
      <trkpt lat="45.21235" lon="5.74185">
        <ele>384.20001220703</ele>
        <time>2026-08-12T18:55:55.000Z</time>
      </trkpt>
      <trkpt lat="45.21238" lon="5.74187">
        <ele>384</ele>
        <time>2026-08-12T18:55:56.000Z</time>
      </trkpt>
      <trkpt lat="45.2124" lon="5.74188">
        <ele>384</ele>
        <time>2026-08-12T18:55:57.000Z</time>
      </trkpt>
      <trkpt lat="45.21243" lon="5.74189">
        <ele>383.79998779297</ele>
        <time>2026-08-12T18:55:58.000Z</time>
      </trkpt>
      <trkpt lat="45.21245" lon="5.74189">
        <ele>383.79998779297</ele>
        <time>2026-08-12T18:55:59.000Z</time>
      </trkpt>
      <trkpt lat="45.21249" lon="5.74189">
        <ele>383.60000610352</ele>
        <time>2026-08-12T18:56:00.000Z</time>
      </trkpt>
      <trkpt lat="45.21251" lon="5.74189">
        <ele>383.39999389648</ele>
        <time>2026-08-12T18:56:01.000Z</time>
      </trkpt>
      <trkpt lat="45.21254" lon="5.7419">
        <ele>383.39999389648</ele>
        <time>2026-08-12T18:56:02.000Z</time>
      </trkpt>
      <trkpt lat="45.21256" lon="5.7419">
        <ele>383.39999389648</ele>
        <time>2026-08-12T18:56:03.000Z</time>
      </trkpt>
      <trkpt lat="45.21259" lon="5.7419">
        <ele>383.39999389648</ele>
        <time>2026-08-12T18:56:04.000Z</time>
      </trkpt>
      <trkpt lat="45.21262" lon="5.74192">
        <ele>383.39999389648</ele>
        <time>2026-08-12T18:56:05.000Z</time>
      </trkpt>
      <trkpt lat="45.21265" lon="5.74192">
        <ele>383.39999389648</ele>
        <time>2026-08-12T18:56:06.000Z</time>
      </trkpt>
      <trkpt lat="45.21267" lon="5.74193">
        <ele>383.39999389648</ele>
        <time>2026-08-12T18:56:07.000Z</time>
      </trkpt>
      <trkpt lat="45.21269" lon="5.74194">
        <ele>383.39999389648</ele>
        <time>2026-08-12T18:56:08.000Z</time>
      </trkpt>
      <trkpt lat="45.21272" lon="5.74195">
        <ele>383.60000610352</ele>
        <time>2026-08-12T18:56:09.000Z</time>
      </trkpt>
      <trkpt lat="45.21274" lon="5.74196">
        <ele>383.60000610352</ele>
        <time>2026-08-12T18:56:10.000Z</time>
      </trkpt>
      <trkpt lat="45.21276" lon="5.74198">
        <ele>383.79998779297</ele>
        <time>2026-08-12T18:56:11.000Z</time>
      </trkpt>
      <trkpt lat="45.21279" lon="5.742">
        <ele>384</ele>
        <time>2026-08-12T18:56:12.000Z</time>
      </trkpt>
      <trkpt lat="45.21281" lon="5.74202">
        <ele>384.20001220703</ele>
        <time>2026-08-12T18:56:13.000Z</time>
      </trkpt>
      <trkpt lat="45.21283" lon="5.74203">
        <ele>384.20001220703</ele>
        <time>2026-08-12T18:56:14.000Z</time>
      </trkpt>
      <trkpt lat="45.21285" lon="5.74206">
        <ele>384.20001220703</ele>
        <time>2026-08-12T18:56:15.000Z</time>
      </trkpt>
      <trkpt lat="45.21288" lon="5.74208">
        <ele>384.20001220703</ele>
        <time>2026-08-12T18:56:16.000Z</time>
      </trkpt>
      <trkpt lat="45.2129" lon="5.7421">
        <ele>384.39999389648</ele>
        <time>2026-08-12T18:56:17.000Z</time>
      </trkpt>
      <trkpt lat="45.21292" lon="5.74212">
        <ele>384.39999389648</ele>
        <time>2026-08-12T18:56:18.000Z</time>
      </trkpt>
      <trkpt lat="45.21294" lon="5.74214">
        <ele>384.60000610352</ele>
        <time>2026-08-12T18:56:19.000Z</time>
      </trkpt>
      <trkpt lat="45.21296" lon="5.74217">
        <ele>384.79998779297</ele>
        <time>2026-08-12T18:56:20.000Z</time>
      </trkpt>
      <trkpt lat="45.21298" lon="5.7422">
        <ele>384.79998779297</ele>
        <time>2026-08-12T18:56:21.000Z</time>
      </trkpt>
      <trkpt lat="45.213" lon="5.74224">
        <ele>384.79998779297</ele>
        <time>2026-08-12T18:56:22.000Z</time>
      </trkpt>
      <trkpt lat="45.21302" lon="5.74227">
        <ele>384.79998779297</ele>
        <time>2026-08-12T18:56:23.000Z</time>
      </trkpt>
      <trkpt lat="45.21304" lon="5.7423">
        <ele>384.79998779297</ele>
        <time>2026-08-12T18:56:24.000Z</time>
      </trkpt>
      <trkpt lat="45.21306" lon="5.74235">
        <ele>384.79998779297</ele>
        <time>2026-08-12T18:56:25.000Z</time>
      </trkpt>
      <trkpt lat="45.21307" lon="5.74238">
        <ele>384.79998779297</ele>
        <time>2026-08-12T18:56:26.000Z</time>
      </trkpt>
      <trkpt lat="45.21308" lon="5.74242">
        <ele>384.79998779297</ele>
        <time>2026-08-12T18:56:27.000Z</time>
      </trkpt>
      <trkpt lat="45.21309" lon="5.74245">
        <ele>384.79998779297</ele>
        <time>2026-08-12T18:56:28.000Z</time>
      </trkpt>
      <trkpt lat="45.2131" lon="5.74248">
        <ele>384.79998779297</ele>
        <time>2026-08-12T18:56:29.000Z</time>
      </trkpt>
      <trkpt lat="45.21311" lon="5.74251">
        <ele>384.79998779297</ele>
        <time>2026-08-12T18:56:30.000Z</time>
      </trkpt>
      <trkpt lat="45.21312" lon="5.74254">
        <ele>384.79998779297</ele>
        <time>2026-08-12T18:56:31.000Z</time>
      </trkpt>
      <trkpt lat="45.21314" lon="5.74258">
        <ele>384.79998779297</ele>
        <time>2026-08-12T18:56:32.000Z</time>
      </trkpt>
      <trkpt lat="45.21314" lon="5.74262">
        <ele>384.60000610352</ele>
        <time>2026-08-12T18:56:33.000Z</time>
      </trkpt>
      <trkpt lat="45.21314" lon="5.74266">
        <ele>384.39999389648</ele>
        <time>2026-08-12T18:56:34.000Z</time>
      </trkpt>
      <trkpt lat="45.21314" lon="5.7427">
        <ele>384.39999389648</ele>
        <time>2026-08-12T18:56:35.000Z</time>
      </trkpt>
      <trkpt lat="45.21315" lon="5.74273">
        <ele>384.20001220703</ele>
        <time>2026-08-12T18:56:36.000Z</time>
      </trkpt>
      <trkpt lat="45.21316" lon="5.74277">
        <ele>384.20001220703</ele>
        <time>2026-08-12T18:56:37.000Z</time>
      </trkpt>
      <trkpt lat="45.21316" lon="5.7428">
        <ele>384.20001220703</ele>
        <time>2026-08-12T18:56:38.000Z</time>
      </trkpt>
      <trkpt lat="45.21317" lon="5.74284">
        <ele>384</ele>
        <time>2026-08-12T18:56:39.000Z</time>
      </trkpt>
      <trkpt lat="45.21318" lon="5.74288">
        <ele>384</ele>
        <time>2026-08-12T18:56:40.000Z</time>
      </trkpt>
      <trkpt lat="45.21319" lon="5.7429">
        <ele>383.79998779297</ele>
        <time>2026-08-12T18:56:41.000Z</time>
      </trkpt>
      <trkpt lat="45.2132" lon="5.74294">
        <ele>383.60000610352</ele>
        <time>2026-08-12T18:56:42.000Z</time>
      </trkpt>
      <trkpt lat="45.21321" lon="5.74297">
        <ele>383.39999389648</ele>
        <time>2026-08-12T18:56:43.000Z</time>
      </trkpt>
      <trkpt lat="45.21322" lon="5.743">
        <ele>383.39999389648</ele>
        <time>2026-08-12T18:56:44.000Z</time>
      </trkpt>
      <trkpt lat="45.21323" lon="5.74303">
        <ele>383.39999389648</ele>
        <time>2026-08-12T18:56:45.000Z</time>
      </trkpt>
      <trkpt lat="45.21324" lon="5.74306">
        <ele>383.39999389648</ele>
        <time>2026-08-12T18:56:46.000Z</time>
      </trkpt>
      <trkpt lat="45.21325" lon="5.74309">
        <ele>383.39999389648</ele>
        <time>2026-08-12T18:56:47.000Z</time>
      </trkpt>
      <trkpt lat="45.21326" lon="5.74312">
        <ele>383.39999389648</ele>
        <time>2026-08-12T18:56:48.000Z</time>
      </trkpt>
      <trkpt lat="45.21327" lon="5.74315">
        <ele>383.39999389648</ele>
        <time>2026-08-12T18:56:49.000Z</time>
      </trkpt>
      <trkpt lat="45.21328" lon="5.74318">
        <ele>383.20001220703</ele>
        <time>2026-08-12T18:56:50.000Z</time>
      </trkpt>
      <trkpt lat="45.21329" lon="5.74321">
        <ele>383</ele>
        <time>2026-08-12T18:56:51.000Z</time>
      </trkpt>
      <trkpt lat="45.21329" lon="5.74324">
        <ele>383</ele>
        <time>2026-08-12T18:56:52.000Z</time>
      </trkpt>
      <trkpt lat="45.2133" lon="5.74327">
        <ele>383.20001220703</ele>
        <time>2026-08-12T18:56:53.000Z</time>
      </trkpt>
      <trkpt lat="45.21331" lon="5.7433">
        <ele>383.20001220703</ele>
        <time>2026-08-12T18:56:54.000Z</time>
      </trkpt>
      <trkpt lat="45.21332" lon="5.74334">
        <ele>383.20001220703</ele>
        <time>2026-08-12T18:56:55.000Z</time>
      </trkpt>
      <trkpt lat="45.21333" lon="5.74337">
        <ele>383.20001220703</ele>
        <time>2026-08-12T18:56:56.000Z</time>
      </trkpt>
      <trkpt lat="45.21334" lon="5.7434">
        <ele>383</ele>
        <time>2026-08-12T18:56:57.000Z</time>
      </trkpt>
      <trkpt lat="45.21335" lon="5.74344">
        <ele>383</ele>
        <time>2026-08-12T18:56:58.000Z</time>
      </trkpt>
      <trkpt lat="45.21336" lon="5.74346">
        <ele>382.60000610352</ele>
        <time>2026-08-12T18:56:59.000Z</time>
      </trkpt>
      <trkpt lat="45.21337" lon="5.7435">
        <ele>382.20001220703</ele>
        <time>2026-08-12T18:57:00.000Z</time>
      </trkpt>
      <trkpt lat="45.21338" lon="5.74353">
        <ele>382</ele>
        <time>2026-08-12T18:57:01.000Z</time>
      </trkpt>
      <trkpt lat="45.21339" lon="5.74356">
        <ele>381.79998779297</ele>
        <time>2026-08-12T18:57:02.000Z</time>
      </trkpt>
      <trkpt lat="45.2134" lon="5.74359">
        <ele>381.79998779297</ele>
        <time>2026-08-12T18:57:03.000Z</time>
      </trkpt>
      <trkpt lat="45.21341" lon="5.74362">
        <ele>381.60000610352</ele>
        <time>2026-08-12T18:57:04.000Z</time>
      </trkpt>
      <trkpt lat="45.21342" lon="5.74365">
        <ele>381.39999389648</ele>
        <time>2026-08-12T18:57:05.000Z</time>
      </trkpt>
      <trkpt lat="45.21343" lon="5.74368">
        <ele>381.39999389648</ele>
        <time>2026-08-12T18:57:06.000Z</time>
      </trkpt>
      <trkpt lat="45.21344" lon="5.74372">
        <ele>381</ele>
        <time>2026-08-12T18:57:07.000Z</time>
      </trkpt>
      <trkpt lat="45.21345" lon="5.74374">
        <ele>381</ele>
        <time>2026-08-12T18:57:08.000Z</time>
      </trkpt>
      <trkpt lat="45.21346" lon="5.74377">
        <ele>380.60000610352</ele>
        <time>2026-08-12T18:57:09.000Z</time>
      </trkpt>
      <trkpt lat="45.21347" lon="5.74381">
        <ele>380.20001220703</ele>
        <time>2026-08-12T18:57:10.000Z</time>
      </trkpt>
      <trkpt lat="45.21346" lon="5.74384">
        <ele>380</ele>
        <time>2026-08-12T18:57:11.000Z</time>
      </trkpt>
      <trkpt lat="45.21344" lon="5.74387">
        <ele>379.79998779297</ele>
        <time>2026-08-12T18:57:12.000Z</time>
      </trkpt>
      <trkpt lat="45.21341" lon="5.74387">
        <ele>379.79998779297</ele>
        <time>2026-08-12T18:57:13.000Z</time>
      </trkpt>
      <trkpt lat="45.21338" lon="5.74386">
        <ele>379.39999389648</ele>
        <time>2026-08-12T18:57:14.000Z</time>
      </trkpt>
      <trkpt lat="45.21337" lon="5.74383">
        <ele>379</ele>
        <time>2026-08-12T18:57:15.000Z</time>
      </trkpt>
      <trkpt lat="45.21336" lon="5.7438">
        <ele>378.39999389648</ele>
        <time>2026-08-12T18:57:16.000Z</time>
      </trkpt>
      <trkpt lat="45.21336" lon="5.74378">
        <ele>378</ele>
        <time>2026-08-12T18:57:17.000Z</time>
      </trkpt>
      <trkpt lat="45.21337" lon="5.74377">
        <ele>377.79998779297</ele>
        <time>2026-08-12T18:57:18.000Z</time>
      </trkpt>
      <trkpt lat="45.21337" lon="5.74376">
        <ele>377.60000610352</ele>
        <time>2026-08-12T18:57:19.000Z</time>
      </trkpt>
      <trkpt lat="45.21337" lon="5.74376">
        <ele>377.39999389648</ele>
        <time>2026-08-12T18:57:20.000Z</time>
      </trkpt>
      <trkpt lat="45.21337" lon="5.74376">
        <ele>377.39999389648</ele>
        <time>2026-08-12T18:57:21.000Z</time>
      </trkpt>
      <trkpt lat="45.21337" lon="5.74376">
        <ele>377.60000610352</ele>
        <time>2026-08-12T18:57:22.000Z</time>
      </trkpt>
      <trkpt lat="45.21337" lon="5.74376">
        <ele>377.60000610352</ele>
        <time>2026-08-12T18:57:23.000Z</time>
      </trkpt>
      <trkpt lat="45.21337" lon="5.74376">
        <ele>377.60000610352</ele>
        <time>2026-08-12T18:57:24.000Z</time>
      </trkpt>
      <trkpt lat="45.21337" lon="5.74376">
        <ele>377.60000610352</ele>
        <time>2026-08-12T18:57:25.000Z</time>
      </trkpt>
      <trkpt lat="45.21337" lon="5.74376">
        <ele>377.60000610352</ele>
        <time>2026-08-12T18:57:26.000Z</time>
      </trkpt>
      <trkpt lat="45.21337" lon="5.74376">
        <ele>377.60000610352</ele>
        <time>2026-08-12T18:57:27.000Z</time>
      </trkpt>
      <trkpt lat="45.21337" lon="5.74376">
        <ele>377.60000610352</ele>
        <time>2026-08-12T18:57:28.000Z</time>
      </trkpt>
      <trkpt lat="45.21337" lon="5.74376">
        <ele>377.60000610352</ele>
        <time>2026-08-12T18:57:29.000Z</time>
      </trkpt>
      <trkpt lat="45.21337" lon="5.74376">
        <ele>377.39999389648</ele>
        <time>2026-08-12T18:57:30.000Z</time>
      </trkpt>
      <trkpt lat="45.21337" lon="5.74376">
        <ele>377.39999389648</ele>
        <time>2026-08-12T18:57:31.000Z</time>
      </trkpt>
      <trkpt lat="45.21337" lon="5.74376">
        <ele>377.39999389648</ele>
        <time>2026-08-12T18:57:32.000Z</time>
      </trkpt>
      <trkpt lat="45.21337" lon="5.74376">
        <ele>377.39999389648</ele>
        <time>2026-08-12T18:57:33.000Z</time>
      </trkpt>
      <trkpt lat="45.21337" lon="5.74376">
        <ele>377.39999389648</ele>
        <time>2026-08-12T18:57:34.000Z</time>
      </trkpt>
      <trkpt lat="45.21337" lon="5.74376">
        <ele>377.39999389648</ele>
        <time>2026-08-12T18:57:35.000Z</time>
      </trkpt>
      <trkpt lat="45.21337" lon="5.74376">
        <ele>377.39999389648</ele>
        <time>2026-08-12T18:57:36.000Z</time>
      </trkpt>
      <trkpt lat="45.21337" lon="5.74376">
        <ele>377.39999389648</ele>
        <time>2026-08-12T18:57:37.000Z</time>
      </trkpt>
      <trkpt lat="45.21336" lon="5.74376">
        <ele>377.39999389648</ele>
        <time>2026-08-12T18:57:38.000Z</time>
      </trkpt>
      <trkpt lat="45.21336" lon="5.74376">
        <ele>377.39999389648</ele>
        <time>2026-08-12T18:57:39.000Z</time>
      </trkpt>
      <trkpt lat="45.21336" lon="5.74376">
        <ele>377.39999389648</ele>
        <time>2026-08-12T18:57:40.000Z</time>
      </trkpt>
      <trkpt lat="45.21336" lon="5.74376">
        <ele>377.39999389648</ele>
        <time>2026-08-12T18:57:41.000Z</time>
      </trkpt>
      <trkpt lat="45.21336" lon="5.74376">
        <ele>377.20001220703</ele>
        <time>2026-08-12T18:57:42.000Z</time>
      </trkpt>
      <trkpt lat="45.21336" lon="5.74376">
        <ele>377.20001220703</ele>
        <time>2026-08-12T18:57:43.000Z</time>
      </trkpt>
      <trkpt lat="45.21336" lon="5.74376">
        <ele>377.20001220703</ele>
        <time>2026-08-12T18:57:44.000Z</time>
      </trkpt>
      <trkpt lat="45.21336" lon="5.74376">
        <ele>377.20001220703</ele>
        <time>2026-08-12T18:57:45.000Z</time>
      </trkpt>
      <trkpt lat="45.21336" lon="5.74376">
        <ele>377.20001220703</ele>
        <time>2026-08-12T18:57:46.000Z</time>
      </trkpt>
      <trkpt lat="45.21336" lon="5.74377">
        <ele>377.20001220703</ele>
        <time>2026-08-12T18:57:47.000Z</time>
      </trkpt>
      <trkpt lat="45.21337" lon="5.74376">
        <ele>377.20001220703</ele>
        <time>2026-08-12T18:57:48.000Z</time>
      </trkpt>
      <trkpt lat="45.21336" lon="5.74376">
        <ele>377.20001220703</ele>
        <time>2026-08-12T18:57:49.000Z</time>
      </trkpt>
      <trkpt lat="45.21337" lon="5.74377">
        <ele>377.20001220703</ele>
        <time>2026-08-12T18:57:50.000Z</time>
      </trkpt>
      <trkpt lat="45.21337" lon="5.74377">
        <ele>377.39999389648</ele>
        <time>2026-08-12T18:57:51.000Z</time>
      </trkpt>
      <trkpt lat="45.21337" lon="5.74377">
        <ele>377.39999389648</ele>
        <time>2026-08-12T18:57:52.000Z</time>
      </trkpt>
      <trkpt lat="45.21337" lon="5.74378">
        <ele>377.20001220703</ele>
        <time>2026-08-12T18:57:53.000Z</time>
      </trkpt>
      <trkpt lat="45.21336" lon="5.74376">
        <ele>377.20001220703</ele>
        <time>2026-08-12T18:57:54.000Z</time>
      </trkpt>
      <trkpt lat="45.21336" lon="5.74376">
        <ele>377.20001220703</ele>
        <time>2026-08-12T18:57:55.000Z</time>
      </trkpt>
      <trkpt lat="45.21336" lon="5.74376">
        <ele>377</ele>
        <time>2026-08-12T18:57:56.000Z</time>
      </trkpt>
      <trkpt lat="45.21336" lon="5.74376">
        <ele>377</ele>
        <time>2026-08-12T18:57:57.000Z</time>
      </trkpt>
      <trkpt lat="45.21336" lon="5.74376">
        <ele>377</ele>
        <time>2026-08-12T18:57:58.000Z</time>
      </trkpt>
      <trkpt lat="45.21336" lon="5.74376">
        <ele>377</ele>
        <time>2026-08-12T18:57:59.000Z</time>
      </trkpt>
      <trkpt lat="45.21336" lon="5.74376">
        <ele>377</ele>
        <time>2026-08-12T18:58:00.000Z</time>
      </trkpt>
      <trkpt lat="45.21336" lon="5.74376">
        <ele>377</ele>
        <time>2026-08-12T18:58:01.000Z</time>
      </trkpt>
      <trkpt lat="45.21337" lon="5.74377">
        <ele>377.20001220703</ele>
        <time>2026-08-12T18:58:02.000Z</time>
      </trkpt>
      <trkpt lat="45.21337" lon="5.74377">
        <ele>377</ele>
        <time>2026-08-12T18:58:03.000Z</time>
      </trkpt>
      <trkpt lat="45.21337" lon="5.74377">
        <ele>377</ele>
        <time>2026-08-12T18:58:04.000Z</time>
      </trkpt>
      <trkpt lat="45.21337" lon="5.74377">
        <ele>377</ele>
        <time>2026-08-12T18:58:05.000Z</time>
      </trkpt>
      <trkpt lat="45.21337" lon="5.74377">
        <ele>377</ele>
        <time>2026-08-12T18:58:06.000Z</time>
      </trkpt>
      <trkpt lat="45.21337" lon="5.74377">
        <ele>377</ele>
        <time>2026-08-12T18:58:07.000Z</time>
      </trkpt>
      <trkpt lat="45.21337" lon="5.74377">
        <ele>377.20001220703</ele>
        <time>2026-08-12T18:58:08.000Z</time>
      </trkpt>
      <trkpt lat="45.21338" lon="5.74378">
        <ele>377.20001220703</ele>
        <time>2026-08-12T18:58:09.000Z</time>
      </trkpt>
      <trkpt lat="45.21338" lon="5.74378">
        <ele>377.39999389648</ele>
        <time>2026-08-12T18:58:10.000Z</time>
      </trkpt>
      <trkpt lat="45.21338" lon="5.74379">
        <ele>377.39999389648</ele>
        <time>2026-08-12T18:58:11.000Z</time>
      </trkpt>
      <trkpt lat="45.21338" lon="5.7438">
        <ele>377.39999389648</ele>
        <time>2026-08-12T18:58:12.000Z</time>
      </trkpt>
      <trkpt lat="45.21337" lon="5.7438">
        <ele>377.39999389648</ele>
        <time>2026-08-12T18:58:13.000Z</time>
      </trkpt>
      <trkpt lat="45.21335" lon="5.74379">
        <ele>377.39999389648</ele>
        <time>2026-08-12T18:58:14.000Z</time>
      </trkpt>
      <trkpt lat="45.21334" lon="5.74377">
        <ele>377.39999389648</ele>
        <time>2026-08-12T18:58:15.000Z</time>
      </trkpt>
      <trkpt lat="45.21333" lon="5.74375">
        <ele>377.20001220703</ele>
        <time>2026-08-12T18:58:16.000Z</time>
      </trkpt>
      <trkpt lat="45.21332" lon="5.74372">
        <ele>377.20001220703</ele>
        <time>2026-08-12T18:58:17.000Z</time>
      </trkpt>
      <trkpt lat="45.21331" lon="5.74371">
        <ele>377</ele>
        <time>2026-08-12T18:58:18.000Z</time>
      </trkpt>
      <trkpt lat="45.2133" lon="5.74369">
        <ele>376.79998779297</ele>
        <time>2026-08-12T18:58:19.000Z</time>
      </trkpt>
      <trkpt lat="45.21328" lon="5.74367">
        <ele>376.79998779297</ele>
        <time>2026-08-12T18:58:20.000Z</time>
      </trkpt>
      <trkpt lat="45.21327" lon="5.74365">
        <ele>376.79998779297</ele>
        <time>2026-08-12T18:58:21.000Z</time>
      </trkpt>
      <trkpt lat="45.21326" lon="5.74362">
        <ele>376.79998779297</ele>
        <time>2026-08-12T18:58:22.000Z</time>
      </trkpt>
      <trkpt lat="45.21324" lon="5.7436">
        <ele>376.79998779297</ele>
        <time>2026-08-12T18:58:23.000Z</time>
      </trkpt>
      <trkpt lat="45.21322" lon="5.74357">
        <ele>376.60000610352</ele>
        <time>2026-08-12T18:58:24.000Z</time>
      </trkpt>
      <trkpt lat="45.21321" lon="5.74355">
        <ele>376.39999389648</ele>
        <time>2026-08-12T18:58:25.000Z</time>
      </trkpt>
      <trkpt lat="45.21319" lon="5.74353">
        <ele>376.20001220703</ele>
        <time>2026-08-12T18:58:26.000Z</time>
      </trkpt>
      <trkpt lat="45.21318" lon="5.74351">
        <ele>376</ele>
        <time>2026-08-12T18:58:27.000Z</time>
      </trkpt>
      <trkpt lat="45.21316" lon="5.74348">
        <ele>375.20001220703</ele>
        <time>2026-08-12T18:58:28.000Z</time>
      </trkpt>
      <trkpt lat="45.21314" lon="5.74346">
        <ele>374.79998779297</ele>
        <time>2026-08-12T18:58:29.000Z</time>
      </trkpt>
      <trkpt lat="45.21313" lon="5.74343">
        <ele>374.60000610352</ele>
        <time>2026-08-12T18:58:30.000Z</time>
      </trkpt>
      <trkpt lat="45.21311" lon="5.7434">
        <ele>374.39999389648</ele>
        <time>2026-08-12T18:58:31.000Z</time>
      </trkpt>
      <trkpt lat="45.21309" lon="5.74338">
        <ele>374.20001220703</ele>
        <time>2026-08-12T18:58:32.000Z</time>
      </trkpt>
      <trkpt lat="45.21308" lon="5.74336">
        <ele>374.20001220703</ele>
        <time>2026-08-12T18:58:33.000Z</time>
      </trkpt>
      <trkpt lat="45.21306" lon="5.74333">
        <ele>374.20001220703</ele>
        <time>2026-08-12T18:58:34.000Z</time>
      </trkpt>
      <trkpt lat="45.21305" lon="5.74331">
        <ele>374.20001220703</ele>
        <time>2026-08-12T18:58:35.000Z</time>
      </trkpt>
      <trkpt lat="45.21303" lon="5.74329">
        <ele>374.39999389648</ele>
        <time>2026-08-12T18:58:36.000Z</time>
      </trkpt>
      <trkpt lat="45.21301" lon="5.74326">
        <ele>374.39999389648</ele>
        <time>2026-08-12T18:58:37.000Z</time>
      </trkpt>
      <trkpt lat="45.213" lon="5.74323">
        <ele>374.39999389648</ele>
        <time>2026-08-12T18:58:38.000Z</time>
      </trkpt>
      <trkpt lat="45.21298" lon="5.74321">
        <ele>374.39999389648</ele>
        <time>2026-08-12T18:58:39.000Z</time>
      </trkpt>
      <trkpt lat="45.21297" lon="5.74318">
        <ele>374.39999389648</ele>
        <time>2026-08-12T18:58:40.000Z</time>
      </trkpt>
      <trkpt lat="45.21295" lon="5.74315">
        <ele>374.39999389648</ele>
        <time>2026-08-12T18:58:41.000Z</time>
      </trkpt>
      <trkpt lat="45.21294" lon="5.74312">
        <ele>374.39999389648</ele>
        <time>2026-08-12T18:58:42.000Z</time>
      </trkpt>
      <trkpt lat="45.21292" lon="5.7431">
        <ele>374.39999389648</ele>
        <time>2026-08-12T18:58:43.000Z</time>
      </trkpt>
      <trkpt lat="45.2129" lon="5.74307">
        <ele>374.39999389648</ele>
        <time>2026-08-12T18:58:44.000Z</time>
      </trkpt>
      <trkpt lat="45.21289" lon="5.74304">
        <ele>374.39999389648</ele>
        <time>2026-08-12T18:58:45.000Z</time>
      </trkpt>
      <trkpt lat="45.21287" lon="5.74301">
        <ele>374.39999389648</ele>
        <time>2026-08-12T18:58:46.000Z</time>
      </trkpt>
      <trkpt lat="45.21286" lon="5.74298">
        <ele>374.39999389648</ele>
        <time>2026-08-12T18:58:47.000Z</time>
      </trkpt>
      <trkpt lat="45.21284" lon="5.74295">
        <ele>374.60000610352</ele>
        <time>2026-08-12T18:58:48.000Z</time>
      </trkpt>
      <trkpt lat="45.21283" lon="5.74292">
        <ele>374.39999389648</ele>
        <time>2026-08-12T18:58:49.000Z</time>
      </trkpt>
      <trkpt lat="45.21281" lon="5.74289">
        <ele>374.20001220703</ele>
        <time>2026-08-12T18:58:50.000Z</time>
      </trkpt>
      <trkpt lat="45.2128" lon="5.74287">
        <ele>374.20001220703</ele>
        <time>2026-08-12T18:58:51.000Z</time>
      </trkpt>
      <trkpt lat="45.21279" lon="5.74284">
        <ele>374</ele>
        <time>2026-08-12T18:58:52.000Z</time>
      </trkpt>
      <trkpt lat="45.21278" lon="5.74282">
        <ele>373.79998779297</ele>
        <time>2026-08-12T18:58:53.000Z</time>
      </trkpt>
      <trkpt lat="45.21276" lon="5.74279">
        <ele>373.79998779297</ele>
        <time>2026-08-12T18:58:54.000Z</time>
      </trkpt>
      <trkpt lat="45.21274" lon="5.74277">
        <ele>373.60000610352</ele>
        <time>2026-08-12T18:58:55.000Z</time>
      </trkpt>
      <trkpt lat="45.21272" lon="5.74275">
        <ele>373.39999389648</ele>
        <time>2026-08-12T18:58:56.000Z</time>
      </trkpt>
      <trkpt lat="45.2127" lon="5.74273">
        <ele>373.39999389648</ele>
        <time>2026-08-12T18:58:57.000Z</time>
      </trkpt>
      <trkpt lat="45.21269" lon="5.7427">
        <ele>373.39999389648</ele>
        <time>2026-08-12T18:58:58.000Z</time>
      </trkpt>
      <trkpt lat="45.21266" lon="5.74268">
        <ele>373.39999389648</ele>
        <time>2026-08-12T18:58:59.000Z</time>
      </trkpt>
      <trkpt lat="45.21264" lon="5.74266">
        <ele>373.39999389648</ele>
        <time>2026-08-12T18:59:00.000Z</time>
      </trkpt>
      <trkpt lat="45.21262" lon="5.74264">
        <ele>373.20001220703</ele>
        <time>2026-08-12T18:59:01.000Z</time>
      </trkpt>
      <trkpt lat="45.2126" lon="5.74262">
        <ele>373.20001220703</ele>
        <time>2026-08-12T18:59:02.000Z</time>
      </trkpt>
      <trkpt lat="45.21258" lon="5.74261">
        <ele>373.20001220703</ele>
        <time>2026-08-12T18:59:03.000Z</time>
      </trkpt>
      <trkpt lat="45.21256" lon="5.74259">
        <ele>373.20001220703</ele>
        <time>2026-08-12T18:59:04.000Z</time>
      </trkpt>
      <trkpt lat="45.21254" lon="5.74257">
        <ele>373.20001220703</ele>
        <time>2026-08-12T18:59:05.000Z</time>
      </trkpt>
      <trkpt lat="45.21251" lon="5.74256">
        <ele>373</ele>
        <time>2026-08-12T18:59:06.000Z</time>
      </trkpt>
      <trkpt lat="45.21249" lon="5.74254">
        <ele>373</ele>
        <time>2026-08-12T18:59:07.000Z</time>
      </trkpt>
      <trkpt lat="45.21247" lon="5.74253">
        <ele>373</ele>
        <time>2026-08-12T18:59:08.000Z</time>
      </trkpt>
      <trkpt lat="45.21244" lon="5.74252">
        <ele>373.20001220703</ele>
        <time>2026-08-12T18:59:09.000Z</time>
      </trkpt>
      <trkpt lat="45.21242" lon="5.74251">
        <ele>373.20001220703</ele>
        <time>2026-08-12T18:59:10.000Z</time>
      </trkpt>
      <trkpt lat="45.2124" lon="5.74249">
        <ele>373.20001220703</ele>
        <time>2026-08-12T18:59:11.000Z</time>
      </trkpt>
      <trkpt lat="45.21238" lon="5.74248">
        <ele>373.20001220703</ele>
        <time>2026-08-12T18:59:12.000Z</time>
      </trkpt>
      <trkpt lat="45.21235" lon="5.74246">
        <ele>373</ele>
        <time>2026-08-12T18:59:13.000Z</time>
      </trkpt>
      <trkpt lat="45.21233" lon="5.74245">
        <ele>372.79998779297</ele>
        <time>2026-08-12T18:59:14.000Z</time>
      </trkpt>
      <trkpt lat="45.21231" lon="5.74244">
        <ele>372.60000610352</ele>
        <time>2026-08-12T18:59:15.000Z</time>
      </trkpt>
      <trkpt lat="45.21228" lon="5.74243">
        <ele>372.20001220703</ele>
        <time>2026-08-12T18:59:16.000Z</time>
      </trkpt>
      <trkpt lat="45.21226" lon="5.74242">
        <ele>371.60000610352</ele>
        <time>2026-08-12T18:59:17.000Z</time>
      </trkpt>
      <trkpt lat="45.21224" lon="5.7424">
        <ele>371.39999389648</ele>
        <time>2026-08-12T18:59:18.000Z</time>
      </trkpt>
      <trkpt lat="45.21221" lon="5.74239">
        <ele>371.20001220703</ele>
        <time>2026-08-12T18:59:19.000Z</time>
      </trkpt>
      <trkpt lat="45.21219" lon="5.74238">
        <ele>370.79998779297</ele>
        <time>2026-08-12T18:59:20.000Z</time>
      </trkpt>
      <trkpt lat="45.21217" lon="5.74237">
        <ele>370.60000610352</ele>
        <time>2026-08-12T18:59:21.000Z</time>
      </trkpt>
      <trkpt lat="45.21214" lon="5.74235">
        <ele>370.20001220703</ele>
        <time>2026-08-12T18:59:22.000Z</time>
      </trkpt>
      <trkpt lat="45.21212" lon="5.74234">
        <ele>369.60000610352</ele>
        <time>2026-08-12T18:59:23.000Z</time>
      </trkpt>
      <trkpt lat="45.21209" lon="5.74233">
        <ele>369.20001220703</ele>
        <time>2026-08-12T18:59:24.000Z</time>
      </trkpt>
      <trkpt lat="45.21207" lon="5.74232">
        <ele>368.79998779297</ele>
        <time>2026-08-12T18:59:25.000Z</time>
      </trkpt>
      <trkpt lat="45.21204" lon="5.74231">
        <ele>368.20001220703</ele>
        <time>2026-08-12T18:59:26.000Z</time>
      </trkpt>
      <trkpt lat="45.21202" lon="5.7423">
        <ele>368.20001220703</ele>
        <time>2026-08-12T18:59:27.000Z</time>
      </trkpt>
      <trkpt lat="45.21199" lon="5.74229">
        <ele>368.20001220703</ele>
        <time>2026-08-12T18:59:28.000Z</time>
      </trkpt>
      <trkpt lat="45.21197" lon="5.74227">
        <ele>367.79998779297</ele>
        <time>2026-08-12T18:59:29.000Z</time>
      </trkpt>
      <trkpt lat="45.21195" lon="5.74226">
        <ele>367.79998779297</ele>
        <time>2026-08-12T18:59:30.000Z</time>
      </trkpt>
      <trkpt lat="45.21192" lon="5.74225">
        <ele>368</ele>
        <time>2026-08-12T18:59:31.000Z</time>
      </trkpt>
      <trkpt lat="45.2119" lon="5.74224">
        <ele>368</ele>
        <time>2026-08-12T18:59:32.000Z</time>
      </trkpt>
      <trkpt lat="45.21187" lon="5.74222">
        <ele>368.39999389648</ele>
        <time>2026-08-12T18:59:33.000Z</time>
      </trkpt>
      <trkpt lat="45.21185" lon="5.74221">
        <ele>368.39999389648</ele>
        <time>2026-08-12T18:59:34.000Z</time>
      </trkpt>
      <trkpt lat="45.21183" lon="5.74219">
        <ele>368.20001220703</ele>
        <time>2026-08-12T18:59:35.000Z</time>
      </trkpt>
      <trkpt lat="45.2118" lon="5.74218">
        <ele>367.79998779297</ele>
        <time>2026-08-12T18:59:36.000Z</time>
      </trkpt>
      <trkpt lat="45.21178" lon="5.74217">
        <ele>367.60000610352</ele>
        <time>2026-08-12T18:59:37.000Z</time>
      </trkpt>
      <trkpt lat="45.21175" lon="5.74215">
        <ele>367.39999389648</ele>
        <time>2026-08-12T18:59:38.000Z</time>
      </trkpt>
      <trkpt lat="45.21173" lon="5.74214">
        <ele>367.20001220703</ele>
        <time>2026-08-12T18:59:39.000Z</time>
      </trkpt>
      <trkpt lat="45.2117" lon="5.74212">
        <ele>367.20001220703</ele>
        <time>2026-08-12T18:59:40.000Z</time>
      </trkpt>
      <trkpt lat="45.21168" lon="5.74211">
        <ele>367.20001220703</ele>
        <time>2026-08-12T18:59:41.000Z</time>
      </trkpt>
      <trkpt lat="45.21166" lon="5.74209">
        <ele>367</ele>
        <time>2026-08-12T18:59:42.000Z</time>
      </trkpt>
      <trkpt lat="45.21163" lon="5.74208">
        <ele>367</ele>
        <time>2026-08-12T18:59:43.000Z</time>
      </trkpt>
      <trkpt lat="45.2116" lon="5.74206">
        <ele>367</ele>
        <time>2026-08-12T18:59:44.000Z</time>
      </trkpt>
      <trkpt lat="45.21157" lon="5.74205">
        <ele>367.20001220703</ele>
        <time>2026-08-12T18:59:45.000Z</time>
      </trkpt>
      <trkpt lat="45.21154" lon="5.74203">
        <ele>367.20001220703</ele>
        <time>2026-08-12T18:59:46.000Z</time>
      </trkpt>
      <trkpt lat="45.21152" lon="5.74201">
        <ele>367.39999389648</ele>
        <time>2026-08-12T18:59:47.000Z</time>
      </trkpt>
      <trkpt lat="45.21149" lon="5.742">
        <ele>367</ele>
        <time>2026-08-12T18:59:48.000Z</time>
      </trkpt>
      <trkpt lat="45.21146" lon="5.74198">
        <ele>366.79998779297</ele>
        <time>2026-08-12T18:59:49.000Z</time>
      </trkpt>
      <trkpt lat="45.21144" lon="5.74197">
        <ele>366.60000610352</ele>
        <time>2026-08-12T18:59:50.000Z</time>
      </trkpt>
      <trkpt lat="45.21141" lon="5.74196">
        <ele>366.39999389648</ele>
        <time>2026-08-12T18:59:51.000Z</time>
      </trkpt>
      <trkpt lat="45.21138" lon="5.74194">
        <ele>365.79998779297</ele>
        <time>2026-08-12T18:59:52.000Z</time>
      </trkpt>
      <trkpt lat="45.21136" lon="5.74192">
        <ele>365.79998779297</ele>
        <time>2026-08-12T18:59:53.000Z</time>
      </trkpt>
      <trkpt lat="45.21133" lon="5.7419">
        <ele>365.79998779297</ele>
        <time>2026-08-12T18:59:54.000Z</time>
      </trkpt>
      <trkpt lat="45.21131" lon="5.74188">
        <ele>365.79998779297</ele>
        <time>2026-08-12T18:59:55.000Z</time>
      </trkpt>
      <trkpt lat="45.21129" lon="5.74185">
        <ele>365.79998779297</ele>
        <time>2026-08-12T18:59:56.000Z</time>
      </trkpt>
      <trkpt lat="45.21127" lon="5.74182">
        <ele>365.79998779297</ele>
        <time>2026-08-12T18:59:57.000Z</time>
      </trkpt>
      <trkpt lat="45.21125" lon="5.74178">
        <ele>365.79998779297</ele>
        <time>2026-08-12T18:59:58.000Z</time>
      </trkpt>
      <trkpt lat="45.21123" lon="5.74175">
        <ele>365.79998779297</ele>
        <time>2026-08-12T18:59:59.000Z</time>
      </trkpt>
      <trkpt lat="45.21121" lon="5.74171">
        <ele>365.79998779297</ele>
        <time>2026-08-12T19:00:00.000Z</time>
      </trkpt>
      <trkpt lat="45.21119" lon="5.74167">
        <ele>365.60000610352</ele>
        <time>2026-08-12T19:00:01.000Z</time>
      </trkpt>
      <trkpt lat="45.21118" lon="5.74163">
        <ele>365.39999389648</ele>
        <time>2026-08-12T19:00:02.000Z</time>
      </trkpt>
      <trkpt lat="45.21116" lon="5.74159">
        <ele>365.39999389648</ele>
        <time>2026-08-12T19:00:03.000Z</time>
      </trkpt>
      <trkpt lat="45.21116" lon="5.74154">
        <ele>365.39999389648</ele>
        <time>2026-08-12T19:00:04.000Z</time>
      </trkpt>
      <trkpt lat="45.21115" lon="5.74149">
        <ele>365.20001220703</ele>
        <time>2026-08-12T19:00:05.000Z</time>
      </trkpt>
      <trkpt lat="45.21115" lon="5.74144">
        <ele>365</ele>
        <time>2026-08-12T19:00:06.000Z</time>
      </trkpt>
      <trkpt lat="45.21115" lon="5.74138">
        <ele>364.60000610352</ele>
        <time>2026-08-12T19:00:07.000Z</time>
      </trkpt>
      <trkpt lat="45.21115" lon="5.74133">
        <ele>364.60000610352</ele>
        <time>2026-08-12T19:00:08.000Z</time>
      </trkpt>
      <trkpt lat="45.21115" lon="5.74128">
        <ele>364.39999389648</ele>
        <time>2026-08-12T19:00:09.000Z</time>
      </trkpt>
      <trkpt lat="45.21115" lon="5.74124">
        <ele>363.79998779297</ele>
        <time>2026-08-12T19:00:10.000Z</time>
      </trkpt>
      <trkpt lat="45.21116" lon="5.74119">
        <ele>363.60000610352</ele>
        <time>2026-08-12T19:00:11.000Z</time>
      </trkpt>
      <trkpt lat="45.21116" lon="5.74116">
        <ele>363.39999389648</ele>
        <time>2026-08-12T19:00:12.000Z</time>
      </trkpt>
      <trkpt lat="45.21116" lon="5.74112">
        <ele>362.39999389648</ele>
        <time>2026-08-12T19:00:13.000Z</time>
      </trkpt>
      <trkpt lat="45.21115" lon="5.74107">
        <ele>361.79998779297</ele>
        <time>2026-08-12T19:00:14.000Z</time>
      </trkpt>
      <trkpt lat="45.21115" lon="5.74103">
        <ele>361</ele>
        <time>2026-08-12T19:00:15.000Z</time>
      </trkpt>
      <trkpt lat="45.21115" lon="5.74098">
        <ele>360.79998779297</ele>
        <time>2026-08-12T19:00:16.000Z</time>
      </trkpt>
      <trkpt lat="45.21115" lon="5.74094">
        <ele>360.39999389648</ele>
        <time>2026-08-12T19:00:17.000Z</time>
      </trkpt>
      <trkpt lat="45.21115" lon="5.7409">
        <ele>359.79998779297</ele>
        <time>2026-08-12T19:00:18.000Z</time>
      </trkpt>
      <trkpt lat="45.21115" lon="5.74086">
        <ele>359.60000610352</ele>
        <time>2026-08-12T19:00:19.000Z</time>
      </trkpt>
      <trkpt lat="45.21115" lon="5.74082">
        <ele>359.39999389648</ele>
        <time>2026-08-12T19:00:20.000Z</time>
      </trkpt>
      <trkpt lat="45.21115" lon="5.74078">
        <ele>359.20001220703</ele>
        <time>2026-08-12T19:00:21.000Z</time>
      </trkpt>
      <trkpt lat="45.21115" lon="5.74074">
        <ele>359</ele>
        <time>2026-08-12T19:00:22.000Z</time>
      </trkpt>
      <trkpt lat="45.21115" lon="5.74071">
        <ele>358.79998779297</ele>
        <time>2026-08-12T19:00:23.000Z</time>
      </trkpt>
      <trkpt lat="45.21115" lon="5.74067">
        <ele>358.79998779297</ele>
        <time>2026-08-12T19:00:24.000Z</time>
      </trkpt>
      <trkpt lat="45.21115" lon="5.74063">
        <ele>358.60000610352</ele>
        <time>2026-08-12T19:00:25.000Z</time>
      </trkpt>
      <trkpt lat="45.21114" lon="5.74059">
        <ele>358.60000610352</ele>
        <time>2026-08-12T19:00:26.000Z</time>
      </trkpt>
      <trkpt lat="45.21114" lon="5.74055">
        <ele>358.39999389648</ele>
        <time>2026-08-12T19:00:27.000Z</time>
      </trkpt>
      <trkpt lat="45.21114" lon="5.74052">
        <ele>357.79998779297</ele>
        <time>2026-08-12T19:00:28.000Z</time>
      </trkpt>
      <trkpt lat="45.21113" lon="5.74048">
        <ele>357</ele>
        <time>2026-08-12T19:00:29.000Z</time>
      </trkpt>
      <trkpt lat="45.21113" lon="5.74044">
        <ele>356.39999389648</ele>
        <time>2026-08-12T19:00:30.000Z</time>
      </trkpt>
      <trkpt lat="45.21112" lon="5.7404">
        <ele>356.20001220703</ele>
        <time>2026-08-12T19:00:31.000Z</time>
      </trkpt>
      <trkpt lat="45.21111" lon="5.74037">
        <ele>356.20001220703</ele>
        <time>2026-08-12T19:00:32.000Z</time>
      </trkpt>
      <trkpt lat="45.2111" lon="5.74033">
        <ele>356.20001220703</ele>
        <time>2026-08-12T19:00:33.000Z</time>
      </trkpt>
      <trkpt lat="45.21109" lon="5.7403">
        <ele>356.20001220703</ele>
        <time>2026-08-12T19:00:34.000Z</time>
      </trkpt>
      <trkpt lat="45.21109" lon="5.74026">
        <ele>356.20001220703</ele>
        <time>2026-08-12T19:00:35.000Z</time>
      </trkpt>
      <trkpt lat="45.21108" lon="5.74023">
        <ele>356.20001220703</ele>
        <time>2026-08-12T19:00:36.000Z</time>
      </trkpt>
      <trkpt lat="45.21107" lon="5.7402">
        <ele>355.79998779297</ele>
        <time>2026-08-12T19:00:37.000Z</time>
      </trkpt>
      <trkpt lat="45.21106" lon="5.74016">
        <ele>355.60000610352</ele>
        <time>2026-08-12T19:00:38.000Z</time>
      </trkpt>
      <trkpt lat="45.21105" lon="5.74013">
        <ele>355.39999389648</ele>
        <time>2026-08-12T19:00:39.000Z</time>
      </trkpt>
      <trkpt lat="45.21103" lon="5.7401">
        <ele>355.39999389648</ele>
        <time>2026-08-12T19:00:40.000Z</time>
      </trkpt>
      <trkpt lat="45.21102" lon="5.74007">
        <ele>355.20001220703</ele>
        <time>2026-08-12T19:00:41.000Z</time>
      </trkpt>
      <trkpt lat="45.21101" lon="5.74004">
        <ele>355.20001220703</ele>
        <time>2026-08-12T19:00:42.000Z</time>
      </trkpt>
      <trkpt lat="45.211" lon="5.74001">
        <ele>355.20001220703</ele>
        <time>2026-08-12T19:00:43.000Z</time>
      </trkpt>
      <trkpt lat="45.21099" lon="5.73998">
        <ele>355.20001220703</ele>
        <time>2026-08-12T19:00:44.000Z</time>
      </trkpt>
      <trkpt lat="45.21098" lon="5.73994">
        <ele>355</ele>
        <time>2026-08-12T19:00:45.000Z</time>
      </trkpt>
      <trkpt lat="45.21096" lon="5.73991">
        <ele>353.60000610352</ele>
        <time>2026-08-12T19:00:46.000Z</time>
      </trkpt>
      <trkpt lat="45.21095" lon="5.73988">
        <ele>353.20001220703</ele>
        <time>2026-08-12T19:00:47.000Z</time>
      </trkpt>
      <trkpt lat="45.21093" lon="5.73985">
        <ele>352.60000610352</ele>
        <time>2026-08-12T19:00:48.000Z</time>
      </trkpt>
      <trkpt lat="45.21091" lon="5.73982">
        <ele>351.60000610352</ele>
        <time>2026-08-12T19:00:49.000Z</time>
      </trkpt>
      <trkpt lat="45.2109" lon="5.73979">
        <ele>351.20001220703</ele>
        <time>2026-08-12T19:00:50.000Z</time>
      </trkpt>
      <trkpt lat="45.21088" lon="5.73976">
        <ele>350.20001220703</ele>
        <time>2026-08-12T19:00:51.000Z</time>
      </trkpt>
      <trkpt lat="45.21086" lon="5.73974">
        <ele>350</ele>
        <time>2026-08-12T19:00:52.000Z</time>
      </trkpt>
      <trkpt lat="45.21085" lon="5.73971">
        <ele>349.60000610352</ele>
        <time>2026-08-12T19:00:53.000Z</time>
      </trkpt>
      <trkpt lat="45.21083" lon="5.73968">
        <ele>349.39999389648</ele>
        <time>2026-08-12T19:00:54.000Z</time>
      </trkpt>
      <trkpt lat="45.21081" lon="5.73965">
        <ele>349.60000610352</ele>
        <time>2026-08-12T19:00:55.000Z</time>
      </trkpt>
      <trkpt lat="45.21079" lon="5.73962">
        <ele>349.79998779297</ele>
        <time>2026-08-12T19:00:56.000Z</time>
      </trkpt>
      <trkpt lat="45.21077" lon="5.73959">
        <ele>350.39999389648</ele>
        <time>2026-08-12T19:00:57.000Z</time>
      </trkpt>
      <trkpt lat="45.21076" lon="5.73956">
        <ele>350.60000610352</ele>
        <time>2026-08-12T19:00:58.000Z</time>
      </trkpt>
      <trkpt lat="45.21074" lon="5.73954">
        <ele>351.39999389648</ele>
        <time>2026-08-12T19:00:59.000Z</time>
      </trkpt>
      <trkpt lat="45.21072" lon="5.73952">
        <ele>351.60000610352</ele>
        <time>2026-08-12T19:01:00.000Z</time>
      </trkpt>
      <trkpt lat="45.2107" lon="5.73949">
        <ele>351.79998779297</ele>
        <time>2026-08-12T19:01:01.000Z</time>
      </trkpt>
      <trkpt lat="45.21067" lon="5.73947">
        <ele>351.79998779297</ele>
        <time>2026-08-12T19:01:02.000Z</time>
      </trkpt>
      <trkpt lat="45.21065" lon="5.73946">
        <ele>351.79998779297</ele>
        <time>2026-08-12T19:01:03.000Z</time>
      </trkpt>
      <trkpt lat="45.21062" lon="5.73944">
        <ele>351.60000610352</ele>
        <time>2026-08-12T19:01:04.000Z</time>
      </trkpt>
      <trkpt lat="45.2106" lon="5.73943">
        <ele>350.60000610352</ele>
        <time>2026-08-12T19:01:05.000Z</time>
      </trkpt>
      <trkpt lat="45.21058" lon="5.73941">
        <ele>350.20001220703</ele>
        <time>2026-08-12T19:01:06.000Z</time>
      </trkpt>
      <trkpt lat="45.21055" lon="5.73939">
        <ele>349.60000610352</ele>
        <time>2026-08-12T19:01:07.000Z</time>
      </trkpt>
      <trkpt lat="45.21053" lon="5.73938">
        <ele>349</ele>
        <time>2026-08-12T19:01:08.000Z</time>
      </trkpt>
      <trkpt lat="45.2105" lon="5.73935">
        <ele>348.39999389648</ele>
        <time>2026-08-12T19:01:09.000Z</time>
      </trkpt>
      <trkpt lat="45.21048" lon="5.73934">
        <ele>347.79998779297</ele>
        <time>2026-08-12T19:01:10.000Z</time>
      </trkpt>
      <trkpt lat="45.21045" lon="5.73933">
        <ele>347.20001220703</ele>
        <time>2026-08-12T19:01:11.000Z</time>
      </trkpt>
      <trkpt lat="45.21043" lon="5.73932">
        <ele>346.20001220703</ele>
        <time>2026-08-12T19:01:12.000Z</time>
      </trkpt>
      <trkpt lat="45.2104" lon="5.73931">
        <ele>345.60000610352</ele>
        <time>2026-08-12T19:01:13.000Z</time>
      </trkpt>
      <trkpt lat="45.21038" lon="5.7393">
        <ele>345.39999389648</ele>
        <time>2026-08-12T19:01:14.000Z</time>
      </trkpt>
      <trkpt lat="45.21036" lon="5.73929">
        <ele>345</ele>
        <time>2026-08-12T19:01:15.000Z</time>
      </trkpt>
      <trkpt lat="45.21033" lon="5.73927">
        <ele>344.60000610352</ele>
        <time>2026-08-12T19:01:16.000Z</time>
      </trkpt>
      <trkpt lat="45.2103" lon="5.73925">
        <ele>344.20001220703</ele>
        <time>2026-08-12T19:01:17.000Z</time>
      </trkpt>
      <trkpt lat="45.21028" lon="5.73924">
        <ele>344.39999389648</ele>
        <time>2026-08-12T19:01:18.000Z</time>
      </trkpt>
      <trkpt lat="45.21025" lon="5.73924">
        <ele>344.60000610352</ele>
        <time>2026-08-12T19:01:19.000Z</time>
      </trkpt>
      <trkpt lat="45.21023" lon="5.73923">
        <ele>344.79998779297</ele>
        <time>2026-08-12T19:01:20.000Z</time>
      </trkpt>
      <trkpt lat="45.2102" lon="5.73922">
        <ele>344.60000610352</ele>
        <time>2026-08-12T19:01:21.000Z</time>
      </trkpt>
      <trkpt lat="45.21017" lon="5.73921">
        <ele>344.60000610352</ele>
        <time>2026-08-12T19:01:22.000Z</time>
      </trkpt>
      <trkpt lat="45.21014" lon="5.7392">
        <ele>344.60000610352</ele>
        <time>2026-08-12T19:01:23.000Z</time>
      </trkpt>
      <trkpt lat="45.21012" lon="5.73919">
        <ele>344.60000610352</ele>
        <time>2026-08-12T19:01:24.000Z</time>
      </trkpt>
      <trkpt lat="45.21009" lon="5.73917">
        <ele>344.39999389648</ele>
        <time>2026-08-12T19:01:25.000Z</time>
      </trkpt>
      <trkpt lat="45.21007" lon="5.73916">
        <ele>344.20001220703</ele>
        <time>2026-08-12T19:01:26.000Z</time>
      </trkpt>
      <trkpt lat="45.21004" lon="5.73915">
        <ele>344</ele>
        <time>2026-08-12T19:01:27.000Z</time>
      </trkpt>
      <trkpt lat="45.21002" lon="5.73914">
        <ele>343.60000610352</ele>
        <time>2026-08-12T19:01:28.000Z</time>
      </trkpt>
      <trkpt lat="45.21" lon="5.73914">
        <ele>343.39999389648</ele>
        <time>2026-08-12T19:01:29.000Z</time>
      </trkpt>
      <trkpt lat="45.20997" lon="5.73913">
        <ele>343.20001220703</ele>
        <time>2026-08-12T19:01:30.000Z</time>
      </trkpt>
      <trkpt lat="45.20994" lon="5.73912">
        <ele>343</ele>
        <time>2026-08-12T19:01:31.000Z</time>
      </trkpt>
      <trkpt lat="45.20992" lon="5.73911">
        <ele>342.79998779297</ele>
        <time>2026-08-12T19:01:32.000Z</time>
      </trkpt>
      <trkpt lat="45.20989" lon="5.73909">
        <ele>342.60000610352</ele>
        <time>2026-08-12T19:01:33.000Z</time>
      </trkpt>
      <trkpt lat="45.20987" lon="5.73907">
        <ele>342.60000610352</ele>
        <time>2026-08-12T19:01:34.000Z</time>
      </trkpt>
      <trkpt lat="45.20985" lon="5.73905">
        <ele>342.39999389648</ele>
        <time>2026-08-12T19:01:35.000Z</time>
      </trkpt>
      <trkpt lat="45.20982" lon="5.73903">
        <ele>342.20001220703</ele>
        <time>2026-08-12T19:01:36.000Z</time>
      </trkpt>
      <trkpt lat="45.2098" lon="5.73901">
        <ele>342.39999389648</ele>
        <time>2026-08-12T19:01:37.000Z</time>
      </trkpt>
      <trkpt lat="45.20977" lon="5.73899">
        <ele>342.39999389648</ele>
        <time>2026-08-12T19:01:38.000Z</time>
      </trkpt>
      <trkpt lat="45.20975" lon="5.73897">
        <ele>342.39999389648</ele>
        <time>2026-08-12T19:01:39.000Z</time>
      </trkpt>
      <trkpt lat="45.20973" lon="5.73895">
        <ele>342</ele>
        <time>2026-08-12T19:01:40.000Z</time>
      </trkpt>
      <trkpt lat="45.20971" lon="5.73892">
        <ele>342</ele>
        <time>2026-08-12T19:01:41.000Z</time>
      </trkpt>
      <trkpt lat="45.20969" lon="5.73889">
        <ele>341.39999389648</ele>
        <time>2026-08-12T19:01:42.000Z</time>
      </trkpt>
      <trkpt lat="45.20966" lon="5.73886">
        <ele>341.20001220703</ele>
        <time>2026-08-12T19:01:43.000Z</time>
      </trkpt>
      <trkpt lat="45.20965" lon="5.73884">
        <ele>341.20001220703</ele>
        <time>2026-08-12T19:01:44.000Z</time>
      </trkpt>
      <trkpt lat="45.20962" lon="5.73881">
        <ele>341</ele>
        <time>2026-08-12T19:01:45.000Z</time>
      </trkpt>
      <trkpt lat="45.2096" lon="5.73879">
        <ele>340.79998779297</ele>
        <time>2026-08-12T19:01:46.000Z</time>
      </trkpt>
      <trkpt lat="45.20958" lon="5.73876">
        <ele>340.39999389648</ele>
        <time>2026-08-12T19:01:47.000Z</time>
      </trkpt>
      <trkpt lat="45.20956" lon="5.73874">
        <ele>340</ele>
        <time>2026-08-12T19:01:48.000Z</time>
      </trkpt>
      <trkpt lat="45.20954" lon="5.73872">
        <ele>339.39999389648</ele>
        <time>2026-08-12T19:01:49.000Z</time>
      </trkpt>
      <trkpt lat="45.20951" lon="5.7387">
        <ele>339.39999389648</ele>
        <time>2026-08-12T19:01:50.000Z</time>
      </trkpt>
      <trkpt lat="45.20949" lon="5.7387">
        <ele>339.39999389648</ele>
        <time>2026-08-12T19:01:51.000Z</time>
      </trkpt>
      <trkpt lat="45.20947" lon="5.7387">
        <ele>339.20001220703</ele>
        <time>2026-08-12T19:01:52.000Z</time>
      </trkpt>
      <trkpt lat="45.20945" lon="5.73871">
        <ele>339</ele>
        <time>2026-08-12T19:01:53.000Z</time>
      </trkpt>
      <trkpt lat="45.20944" lon="5.73873">
        <ele>339</ele>
        <time>2026-08-12T19:01:54.000Z</time>
      </trkpt>
      <trkpt lat="45.20944" lon="5.73875">
        <ele>338.60000610352</ele>
        <time>2026-08-12T19:01:55.000Z</time>
      </trkpt>
      <trkpt lat="45.20944" lon="5.73877">
        <ele>338.20001220703</ele>
        <time>2026-08-12T19:01:56.000Z</time>
      </trkpt>
      <trkpt lat="45.20944" lon="5.73881">
        <ele>337.79998779297</ele>
        <time>2026-08-12T19:01:57.000Z</time>
      </trkpt>
      <trkpt lat="45.20944" lon="5.73884">
        <ele>336.39999389648</ele>
        <time>2026-08-12T19:01:58.000Z</time>
      </trkpt>
      <trkpt lat="45.20944" lon="5.73888">
        <ele>334.20001220703</ele>
        <time>2026-08-12T19:01:59.000Z</time>
      </trkpt>
      <trkpt lat="45.20945" lon="5.73891">
        <ele>333.39999389648</ele>
        <time>2026-08-12T19:02:00.000Z</time>
      </trkpt>
      <trkpt lat="45.20945" lon="5.73895">
        <ele>332.60000610352</ele>
        <time>2026-08-12T19:02:01.000Z</time>
      </trkpt>
      <trkpt lat="45.20945" lon="5.73898">
        <ele>331.79998779297</ele>
        <time>2026-08-12T19:02:02.000Z</time>
      </trkpt>
      <trkpt lat="45.20946" lon="5.73903">
        <ele>330.79998779297</ele>
        <time>2026-08-12T19:02:03.000Z</time>
      </trkpt>
      <trkpt lat="45.20946" lon="5.73907">
        <ele>330</ele>
        <time>2026-08-12T19:02:04.000Z</time>
      </trkpt>
      <trkpt lat="45.20946" lon="5.73911">
        <ele>329.20001220703</ele>
        <time>2026-08-12T19:02:05.000Z</time>
      </trkpt>
      <trkpt lat="45.20947" lon="5.73916">
        <ele>329</ele>
        <time>2026-08-12T19:02:06.000Z</time>
      </trkpt>
      <trkpt lat="45.20947" lon="5.7392">
        <ele>328</ele>
        <time>2026-08-12T19:02:07.000Z</time>
      </trkpt>
      <trkpt lat="45.20947" lon="5.73924">
        <ele>327</ele>
        <time>2026-08-12T19:02:08.000Z</time>
      </trkpt>
      <trkpt lat="45.20948" lon="5.73929">
        <ele>326.20001220703</ele>
        <time>2026-08-12T19:02:09.000Z</time>
      </trkpt>
      <trkpt lat="45.20948" lon="5.73933">
        <ele>325.20001220703</ele>
        <time>2026-08-12T19:02:10.000Z</time>
      </trkpt>
      <trkpt lat="45.20948" lon="5.73937">
        <ele>324.20001220703</ele>
        <time>2026-08-12T19:02:11.000Z</time>
      </trkpt>
      <trkpt lat="45.20948" lon="5.73942">
        <ele>323.79998779297</ele>
        <time>2026-08-12T19:02:12.000Z</time>
      </trkpt>
      <trkpt lat="45.20949" lon="5.73946">
        <ele>323.60000610352</ele>
        <time>2026-08-12T19:02:13.000Z</time>
      </trkpt>
      <trkpt lat="45.20949" lon="5.7395">
        <ele>323.20001220703</ele>
        <time>2026-08-12T19:02:14.000Z</time>
      </trkpt>
      <trkpt lat="45.20949" lon="5.73955">
        <ele>322.79998779297</ele>
        <time>2026-08-12T19:02:15.000Z</time>
      </trkpt>
      <trkpt lat="45.20949" lon="5.73959">
        <ele>322.60000610352</ele>
        <time>2026-08-12T19:02:16.000Z</time>
      </trkpt>
      <trkpt lat="45.20949" lon="5.73965">
        <ele>322.20001220703</ele>
        <time>2026-08-12T19:02:17.000Z</time>
      </trkpt>
      <trkpt lat="45.20949" lon="5.73969">
        <ele>322.60000610352</ele>
        <time>2026-08-12T19:02:18.000Z</time>
      </trkpt>
      <trkpt lat="45.2095" lon="5.73974">
        <ele>323.39999389648</ele>
        <time>2026-08-12T19:02:19.000Z</time>
      </trkpt>
      <trkpt lat="45.2095" lon="5.73978">
        <ele>323.60000610352</ele>
        <time>2026-08-12T19:02:20.000Z</time>
      </trkpt>
      <trkpt lat="45.20952" lon="5.73982">
        <ele>323.79998779297</ele>
        <time>2026-08-12T19:02:21.000Z</time>
      </trkpt>
      <trkpt lat="45.20953" lon="5.73986">
        <ele>324.20001220703</ele>
        <time>2026-08-12T19:02:22.000Z</time>
      </trkpt>
      <trkpt lat="45.20955" lon="5.73989">
        <ele>324.60000610352</ele>
        <time>2026-08-12T19:02:23.000Z</time>
      </trkpt>
      <trkpt lat="45.20957" lon="5.73992">
        <ele>324.79998779297</ele>
        <time>2026-08-12T19:02:24.000Z</time>
      </trkpt>
      <trkpt lat="45.20959" lon="5.73996">
        <ele>324.79998779297</ele>
        <time>2026-08-12T19:02:25.000Z</time>
      </trkpt>
      <trkpt lat="45.20962" lon="5.73999">
        <ele>324.79998779297</ele>
        <time>2026-08-12T19:02:26.000Z</time>
      </trkpt>
      <trkpt lat="45.20964" lon="5.74002">
        <ele>324.60000610352</ele>
        <time>2026-08-12T19:02:27.000Z</time>
      </trkpt>
      <trkpt lat="45.20966" lon="5.74004">
        <ele>324.39999389648</ele>
        <time>2026-08-12T19:02:28.000Z</time>
      </trkpt>
      <trkpt lat="45.20968" lon="5.74007">
        <ele>324</ele>
        <time>2026-08-12T19:02:29.000Z</time>
      </trkpt>
      <trkpt lat="45.20971" lon="5.74011">
        <ele>323.39999389648</ele>
        <time>2026-08-12T19:02:30.000Z</time>
      </trkpt>
      <trkpt lat="45.20973" lon="5.74013">
        <ele>323</ele>
        <time>2026-08-12T19:02:31.000Z</time>
      </trkpt>
      <trkpt lat="45.20975" lon="5.74016">
        <ele>322.60000610352</ele>
        <time>2026-08-12T19:02:32.000Z</time>
      </trkpt>
      <trkpt lat="45.20978" lon="5.74019">
        <ele>322.39999389648</ele>
        <time>2026-08-12T19:02:33.000Z</time>
      </trkpt>
      <trkpt lat="45.2098" lon="5.74023">
        <ele>322</ele>
        <time>2026-08-12T19:02:34.000Z</time>
      </trkpt>
      <trkpt lat="45.20983" lon="5.74027">
        <ele>322</ele>
        <time>2026-08-12T19:02:35.000Z</time>
      </trkpt>
      <trkpt lat="45.20985" lon="5.7403">
        <ele>321.79998779297</ele>
        <time>2026-08-12T19:02:36.000Z</time>
      </trkpt>
      <trkpt lat="45.20987" lon="5.74034">
        <ele>321.39999389648</ele>
        <time>2026-08-12T19:02:37.000Z</time>
      </trkpt>
      <trkpt lat="45.20989" lon="5.74038">
        <ele>321.20001220703</ele>
        <time>2026-08-12T19:02:38.000Z</time>
      </trkpt>
      <trkpt lat="45.20991" lon="5.74041">
        <ele>321</ele>
        <time>2026-08-12T19:02:39.000Z</time>
      </trkpt>
      <trkpt lat="45.20994" lon="5.74045">
        <ele>320.79998779297</ele>
        <time>2026-08-12T19:02:40.000Z</time>
      </trkpt>
      <trkpt lat="45.20996" lon="5.74048">
        <ele>320.60000610352</ele>
        <time>2026-08-12T19:02:41.000Z</time>
      </trkpt>
      <trkpt lat="45.20997" lon="5.74052">
        <ele>320.20001220703</ele>
        <time>2026-08-12T19:02:42.000Z</time>
      </trkpt>
      <trkpt lat="45.20998" lon="5.74057">
        <ele>319.79998779297</ele>
        <time>2026-08-12T19:02:43.000Z</time>
      </trkpt>
      <trkpt lat="45.21" lon="5.74061">
        <ele>319.20001220703</ele>
        <time>2026-08-12T19:02:44.000Z</time>
      </trkpt>
      <trkpt lat="45.21" lon="5.74066">
        <ele>318.79998779297</ele>
        <time>2026-08-12T19:02:45.000Z</time>
      </trkpt>
      <trkpt lat="45.21001" lon="5.74071">
        <ele>318.60000610352</ele>
        <time>2026-08-12T19:02:46.000Z</time>
      </trkpt>
      <trkpt lat="45.21001" lon="5.74076">
        <ele>318.39999389648</ele>
        <time>2026-08-12T19:02:47.000Z</time>
      </trkpt>
      <trkpt lat="45.21001" lon="5.7408">
        <ele>318.20001220703</ele>
        <time>2026-08-12T19:02:48.000Z</time>
      </trkpt>
      <trkpt lat="45.21001" lon="5.74083">
        <ele>318</ele>
        <time>2026-08-12T19:02:49.000Z</time>
      </trkpt>
      <trkpt lat="45.21" lon="5.74085">
        <ele>317.20001220703</ele>
        <time>2026-08-12T19:02:50.000Z</time>
      </trkpt>
      <trkpt lat="45.21" lon="5.74087">
        <ele>316.79998779297</ele>
        <time>2026-08-12T19:02:51.000Z</time>
      </trkpt>
      <trkpt lat="45.20999" lon="5.74089">
        <ele>316.39999389648</ele>
        <time>2026-08-12T19:02:52.000Z</time>
      </trkpt>
      <trkpt lat="45.20999" lon="5.74092">
        <ele>316.20001220703</ele>
        <time>2026-08-12T19:02:53.000Z</time>
      </trkpt>
      <trkpt lat="45.20998" lon="5.74093">
        <ele>315.79998779297</ele>
        <time>2026-08-12T19:02:54.000Z</time>
      </trkpt>
      <trkpt lat="45.20997" lon="5.74095">
        <ele>315.39999389648</ele>
        <time>2026-08-12T19:02:55.000Z</time>
      </trkpt>
      <trkpt lat="45.20995" lon="5.74097">
        <ele>314.79998779297</ele>
        <time>2026-08-12T19:02:56.000Z</time>
      </trkpt>
      <trkpt lat="45.20994" lon="5.74099">
        <ele>314.39999389648</ele>
        <time>2026-08-12T19:02:57.000Z</time>
      </trkpt>
      <trkpt lat="45.20992" lon="5.74102">
        <ele>314</ele>
        <time>2026-08-12T19:02:58.000Z</time>
      </trkpt>
      <trkpt lat="45.2099" lon="5.74106">
        <ele>313.60000610352</ele>
        <time>2026-08-12T19:02:59.000Z</time>
      </trkpt>
      <trkpt lat="45.20989" lon="5.7411">
        <ele>312.79998779297</ele>
        <time>2026-08-12T19:03:00.000Z</time>
      </trkpt>
      <trkpt lat="45.20987" lon="5.74112">
        <ele>311.60000610352</ele>
        <time>2026-08-12T19:03:01.000Z</time>
      </trkpt>
      <trkpt lat="45.20987" lon="5.74115">
        <ele>311.20001220703</ele>
        <time>2026-08-12T19:03:02.000Z</time>
      </trkpt>
      <trkpt lat="45.20985" lon="5.74116">
        <ele>310.39999389648</ele>
        <time>2026-08-12T19:03:03.000Z</time>
      </trkpt>
      <trkpt lat="45.20984" lon="5.74116">
        <ele>309.39999389648</ele>
        <time>2026-08-12T19:03:04.000Z</time>
      </trkpt>
      <trkpt lat="45.20982" lon="5.74115">
        <ele>309</ele>
        <time>2026-08-12T19:03:05.000Z</time>
      </trkpt>
      <trkpt lat="45.2098" lon="5.74115">
        <ele>308.60000610352</ele>
        <time>2026-08-12T19:03:06.000Z</time>
      </trkpt>
      <trkpt lat="45.20978" lon="5.74114">
        <ele>308.20001220703</ele>
        <time>2026-08-12T19:03:07.000Z</time>
      </trkpt>
      <trkpt lat="45.20975" lon="5.74113">
        <ele>307.79998779297</ele>
        <time>2026-08-12T19:03:08.000Z</time>
      </trkpt>
      <trkpt lat="45.20972" lon="5.7411">
        <ele>307.39999389648</ele>
        <time>2026-08-12T19:03:09.000Z</time>
      </trkpt>
      <trkpt lat="45.2097" lon="5.74109">
        <ele>307</ele>
        <time>2026-08-12T19:03:10.000Z</time>
      </trkpt>
      <trkpt lat="45.20969" lon="5.74108">
        <ele>307</ele>
        <time>2026-08-12T19:03:11.000Z</time>
      </trkpt>
      <trkpt lat="45.20967" lon="5.74107">
        <ele>307</ele>
        <time>2026-08-12T19:03:12.000Z</time>
      </trkpt>
      <trkpt lat="45.20966" lon="5.74106">
        <ele>307.20001220703</ele>
        <time>2026-08-12T19:03:13.000Z</time>
      </trkpt>
      <trkpt lat="45.20966" lon="5.74106">
        <ele>307.39999389648</ele>
        <time>2026-08-12T19:03:14.000Z</time>
      </trkpt>
      <trkpt lat="45.20964" lon="5.74106">
        <ele>307.60000610352</ele>
        <time>2026-08-12T19:03:15.000Z</time>
      </trkpt>
      <trkpt lat="45.20963" lon="5.74106">
        <ele>307.60000610352</ele>
        <time>2026-08-12T19:03:16.000Z</time>
      </trkpt>
      <trkpt lat="45.20961" lon="5.74105">
        <ele>307.60000610352</ele>
        <time>2026-08-12T19:03:17.000Z</time>
      </trkpt>
      <trkpt lat="45.2096" lon="5.74105">
        <ele>307.20001220703</ele>
        <time>2026-08-12T19:03:18.000Z</time>
      </trkpt>
      <trkpt lat="45.20959" lon="5.74105">
        <ele>306.79998779297</ele>
        <time>2026-08-12T19:03:19.000Z</time>
      </trkpt>
      <trkpt lat="45.20958" lon="5.74105">
        <ele>306.20001220703</ele>
        <time>2026-08-12T19:03:20.000Z</time>
      </trkpt>
      <trkpt lat="45.20957" lon="5.74105">
        <ele>305.79998779297</ele>
        <time>2026-08-12T19:03:21.000Z</time>
      </trkpt>
      <trkpt lat="45.20956" lon="5.74105">
        <ele>305.60000610352</ele>
        <time>2026-08-12T19:03:22.000Z</time>
      </trkpt>
      <trkpt lat="45.20955" lon="5.74105">
        <ele>304.79998779297</ele>
        <time>2026-08-12T19:03:23.000Z</time>
      </trkpt>
      <trkpt lat="45.20954" lon="5.74106">
        <ele>304.60000610352</ele>
        <time>2026-08-12T19:03:24.000Z</time>
      </trkpt>
      <trkpt lat="45.20952" lon="5.74106">
        <ele>303.79998779297</ele>
        <time>2026-08-12T19:03:25.000Z</time>
      </trkpt>
      <trkpt lat="45.20951" lon="5.74107">
        <ele>303.20001220703</ele>
        <time>2026-08-12T19:03:26.000Z</time>
      </trkpt>
      <trkpt lat="45.2095" lon="5.74108">
        <ele>302.79998779297</ele>
        <time>2026-08-12T19:03:27.000Z</time>
      </trkpt>
      <trkpt lat="45.20949" lon="5.74108">
        <ele>302.20001220703</ele>
        <time>2026-08-12T19:03:28.000Z</time>
      </trkpt>
      <trkpt lat="45.20948" lon="5.74109">
        <ele>302</ele>
        <time>2026-08-12T19:03:29.000Z</time>
      </trkpt>
      <trkpt lat="45.20947" lon="5.7411">
        <ele>301.60000610352</ele>
        <time>2026-08-12T19:03:30.000Z</time>
      </trkpt>
      <trkpt lat="45.20946" lon="5.74112">
        <ele>301.39999389648</ele>
        <time>2026-08-12T19:03:31.000Z</time>
      </trkpt>
      <trkpt lat="45.20944" lon="5.74113">
        <ele>301.39999389648</ele>
        <time>2026-08-12T19:03:32.000Z</time>
      </trkpt>
      <trkpt lat="45.20943" lon="5.74115">
        <ele>301</ele>
        <time>2026-08-12T19:03:33.000Z</time>
      </trkpt>
      <trkpt lat="45.20942" lon="5.74116">
        <ele>300.60000610352</ele>
        <time>2026-08-12T19:03:34.000Z</time>
      </trkpt>
      <trkpt lat="45.20941" lon="5.74118">
        <ele>300.20001220703</ele>
        <time>2026-08-12T19:03:35.000Z</time>
      </trkpt>
      <trkpt lat="45.20939" lon="5.7412">
        <ele>300</ele>
        <time>2026-08-12T19:03:36.000Z</time>
      </trkpt>
      <trkpt lat="45.20938" lon="5.74121">
        <ele>299.60000610352</ele>
        <time>2026-08-12T19:03:37.000Z</time>
      </trkpt>
      <trkpt lat="45.20937" lon="5.74122">
        <ele>299</ele>
        <time>2026-08-12T19:03:38.000Z</time>
      </trkpt>
      <trkpt lat="45.20936" lon="5.74124">
        <ele>298.60000610352</ele>
        <time>2026-08-12T19:03:39.000Z</time>
      </trkpt>
      <trkpt lat="45.20935" lon="5.74126">
        <ele>298.20001220703</ele>
        <time>2026-08-12T19:03:40.000Z</time>
      </trkpt>
      <trkpt lat="45.20934" lon="5.74127">
        <ele>297.79998779297</ele>
        <time>2026-08-12T19:03:41.000Z</time>
      </trkpt>
      <trkpt lat="45.20933" lon="5.74128">
        <ele>297.60000610352</ele>
        <time>2026-08-12T19:03:42.000Z</time>
      </trkpt>
      <trkpt lat="45.20932" lon="5.74129">
        <ele>297.39999389648</ele>
        <time>2026-08-12T19:03:43.000Z</time>
      </trkpt>
      <trkpt lat="45.20931" lon="5.74131">
        <ele>297.20001220703</ele>
        <time>2026-08-12T19:03:44.000Z</time>
      </trkpt>
      <trkpt lat="45.2093" lon="5.74133">
        <ele>297</ele>
        <time>2026-08-12T19:03:45.000Z</time>
      </trkpt>
      <trkpt lat="45.20929" lon="5.74134">
        <ele>297</ele>
        <time>2026-08-12T19:03:46.000Z</time>
      </trkpt>
      <trkpt lat="45.20928" lon="5.74135">
        <ele>297</ele>
        <time>2026-08-12T19:03:47.000Z</time>
      </trkpt>
      <trkpt lat="45.20927" lon="5.74137">
        <ele>296.79998779297</ele>
        <time>2026-08-12T19:03:48.000Z</time>
      </trkpt>
      <trkpt lat="45.20926" lon="5.74138">
        <ele>296.79998779297</ele>
        <time>2026-08-12T19:03:49.000Z</time>
      </trkpt>
      <trkpt lat="45.20925" lon="5.7414">
        <ele>296.60000610352</ele>
        <time>2026-08-12T19:03:50.000Z</time>
      </trkpt>
      <trkpt lat="45.20924" lon="5.74142">
        <ele>296.39999389648</ele>
        <time>2026-08-12T19:03:51.000Z</time>
      </trkpt>
      <trkpt lat="45.20923" lon="5.74143">
        <ele>296.39999389648</ele>
        <time>2026-08-12T19:03:52.000Z</time>
      </trkpt>
      <trkpt lat="45.20922" lon="5.74146">
        <ele>296.39999389648</ele>
        <time>2026-08-12T19:03:53.000Z</time>
      </trkpt>
      <trkpt lat="45.20921" lon="5.74148">
        <ele>296.20001220703</ele>
        <time>2026-08-12T19:03:54.000Z</time>
      </trkpt>
      <trkpt lat="45.2092" lon="5.7415">
        <ele>296</ele>
        <time>2026-08-12T19:03:55.000Z</time>
      </trkpt>
      <trkpt lat="45.20919" lon="5.74152">
        <ele>295.39999389648</ele>
        <time>2026-08-12T19:03:56.000Z</time>
      </trkpt>
      <trkpt lat="45.20918" lon="5.74154">
        <ele>295.20001220703</ele>
        <time>2026-08-12T19:03:57.000Z</time>
      </trkpt>
      <trkpt lat="45.20917" lon="5.74156">
        <ele>295</ele>
        <time>2026-08-12T19:03:58.000Z</time>
      </trkpt>
      <trkpt lat="45.20917" lon="5.74159">
        <ele>294.60000610352</ele>
        <time>2026-08-12T19:03:59.000Z</time>
      </trkpt>
      <trkpt lat="45.20916" lon="5.74162">
        <ele>294.60000610352</ele>
        <time>2026-08-12T19:04:00.000Z</time>
      </trkpt>
      <trkpt lat="45.20915" lon="5.74165">
        <ele>294</ele>
        <time>2026-08-12T19:04:01.000Z</time>
      </trkpt>
      <trkpt lat="45.20914" lon="5.74167">
        <ele>293.39999389648</ele>
        <time>2026-08-12T19:04:02.000Z</time>
      </trkpt>
      <trkpt lat="45.20912" lon="5.7417">
        <ele>293</ele>
        <time>2026-08-12T19:04:03.000Z</time>
      </trkpt>
      <trkpt lat="45.20911" lon="5.74172">
        <ele>292.60000610352</ele>
        <time>2026-08-12T19:04:04.000Z</time>
      </trkpt>
      <trkpt lat="45.20908" lon="5.74174">
        <ele>291.79998779297</ele>
        <time>2026-08-12T19:04:05.000Z</time>
      </trkpt>
      <trkpt lat="45.20906" lon="5.74176">
        <ele>291.39999389648</ele>
        <time>2026-08-12T19:04:06.000Z</time>
      </trkpt>
      <trkpt lat="45.20904" lon="5.74178">
        <ele>290.79998779297</ele>
        <time>2026-08-12T19:04:07.000Z</time>
      </trkpt>
      <trkpt lat="45.20903" lon="5.7418">
        <ele>290.39999389648</ele>
        <time>2026-08-12T19:04:08.000Z</time>
      </trkpt>
      <trkpt lat="45.20901" lon="5.74183">
        <ele>289.79998779297</ele>
        <time>2026-08-12T19:04:09.000Z</time>
      </trkpt>
      <trkpt lat="45.20899" lon="5.74184">
        <ele>289.60000610352</ele>
        <time>2026-08-12T19:04:10.000Z</time>
      </trkpt>
      <trkpt lat="45.20897" lon="5.74185">
        <ele>289.20001220703</ele>
        <time>2026-08-12T19:04:11.000Z</time>
      </trkpt>
      <trkpt lat="45.20895" lon="5.74186">
        <ele>288.79998779297</ele>
        <time>2026-08-12T19:04:12.000Z</time>
      </trkpt>
      <trkpt lat="45.20894" lon="5.74187">
        <ele>288.60000610352</ele>
        <time>2026-08-12T19:04:13.000Z</time>
      </trkpt>
      <trkpt lat="45.20892" lon="5.74187">
        <ele>287.79998779297</ele>
        <time>2026-08-12T19:04:14.000Z</time>
      </trkpt>
      <trkpt lat="45.2089" lon="5.74188">
        <ele>287.60000610352</ele>
        <time>2026-08-12T19:04:15.000Z</time>
      </trkpt>
      <trkpt lat="45.20889" lon="5.74189">
        <ele>287.39999389648</ele>
        <time>2026-08-12T19:04:16.000Z</time>
      </trkpt>
      <trkpt lat="45.20888" lon="5.74191">
        <ele>287</ele>
        <time>2026-08-12T19:04:17.000Z</time>
      </trkpt>
      <trkpt lat="45.20888" lon="5.74192">
        <ele>286.79998779297</ele>
        <time>2026-08-12T19:04:18.000Z</time>
      </trkpt>
      <trkpt lat="45.20887" lon="5.74193">
        <ele>286.60000610352</ele>
        <time>2026-08-12T19:04:19.000Z</time>
      </trkpt>
      <trkpt lat="45.20887" lon="5.74195">
        <ele>286.20001220703</ele>
        <time>2026-08-12T19:04:20.000Z</time>
      </trkpt>
      <trkpt lat="45.20885" lon="5.74197">
        <ele>286</ele>
        <time>2026-08-12T19:04:21.000Z</time>
      </trkpt>
      <trkpt lat="45.20884" lon="5.74198">
        <ele>286</ele>
        <time>2026-08-12T19:04:22.000Z</time>
      </trkpt>
      <trkpt lat="45.20883" lon="5.742">
        <ele>285.79998779297</ele>
        <time>2026-08-12T19:04:23.000Z</time>
      </trkpt>
      <trkpt lat="45.20881" lon="5.74202">
        <ele>285.60000610352</ele>
        <time>2026-08-12T19:04:24.000Z</time>
      </trkpt>
      <trkpt lat="45.2088" lon="5.74203">
        <ele>285.20001220703</ele>
        <time>2026-08-12T19:04:25.000Z</time>
      </trkpt>
      <trkpt lat="45.20877" lon="5.74205">
        <ele>284.60000610352</ele>
        <time>2026-08-12T19:04:26.000Z</time>
      </trkpt>
      <trkpt lat="45.20875" lon="5.74206">
        <ele>284.20001220703</ele>
        <time>2026-08-12T19:04:27.000Z</time>
      </trkpt>
      <trkpt lat="45.20874" lon="5.74207">
        <ele>284</ele>
        <time>2026-08-12T19:04:28.000Z</time>
      </trkpt>
      <trkpt lat="45.20872" lon="5.74209">
        <ele>283.79998779297</ele>
        <time>2026-08-12T19:04:29.000Z</time>
      </trkpt>
      <trkpt lat="45.2087" lon="5.74211">
        <ele>283.39999389648</ele>
        <time>2026-08-12T19:04:30.000Z</time>
      </trkpt>
      <trkpt lat="45.20867" lon="5.74213">
        <ele>283.39999389648</ele>
        <time>2026-08-12T19:04:31.000Z</time>
      </trkpt>
      <trkpt lat="45.20865" lon="5.74215">
        <ele>282.79998779297</ele>
        <time>2026-08-12T19:04:32.000Z</time>
      </trkpt>
      <trkpt lat="45.20863" lon="5.74218">
        <ele>282.60000610352</ele>
        <time>2026-08-12T19:04:33.000Z</time>
      </trkpt>
      <trkpt lat="45.20861" lon="5.7422">
        <ele>281.79998779297</ele>
        <time>2026-08-12T19:04:34.000Z</time>
      </trkpt>
      <trkpt lat="45.20858" lon="5.74222">
        <ele>281.60000610352</ele>
        <time>2026-08-12T19:04:35.000Z</time>
      </trkpt>
      <trkpt lat="45.20856" lon="5.74224">
        <ele>281.20001220703</ele>
        <time>2026-08-12T19:04:36.000Z</time>
      </trkpt>
      <trkpt lat="45.20854" lon="5.74226">
        <ele>281</ele>
        <time>2026-08-12T19:04:37.000Z</time>
      </trkpt>
      <trkpt lat="45.20852" lon="5.74228">
        <ele>280.79998779297</ele>
        <time>2026-08-12T19:04:38.000Z</time>
      </trkpt>
      <trkpt lat="45.2085" lon="5.7423">
        <ele>280.60000610352</ele>
        <time>2026-08-12T19:04:39.000Z</time>
      </trkpt>
      <trkpt lat="45.20848" lon="5.74233">
        <ele>280.39999389648</ele>
        <time>2026-08-12T19:04:40.000Z</time>
      </trkpt>
      <trkpt lat="45.20845" lon="5.74235">
        <ele>280.20001220703</ele>
        <time>2026-08-12T19:04:41.000Z</time>
      </trkpt>
      <trkpt lat="45.20843" lon="5.74237">
        <ele>280</ele>
        <time>2026-08-12T19:04:42.000Z</time>
      </trkpt>
      <trkpt lat="45.20841" lon="5.74238">
        <ele>279.60000610352</ele>
        <time>2026-08-12T19:04:43.000Z</time>
      </trkpt>
      <trkpt lat="45.20839" lon="5.74239">
        <ele>278.79998779297</ele>
        <time>2026-08-12T19:04:44.000Z</time>
      </trkpt>
      <trkpt lat="45.20836" lon="5.74239">
        <ele>277.60000610352</ele>
        <time>2026-08-12T19:04:45.000Z</time>
      </trkpt>
      <trkpt lat="45.20834" lon="5.74239">
        <ele>277.20001220703</ele>
        <time>2026-08-12T19:04:46.000Z</time>
      </trkpt>
      <trkpt lat="45.20831" lon="5.7424">
        <ele>276.79998779297</ele>
        <time>2026-08-12T19:04:47.000Z</time>
      </trkpt>
      <trkpt lat="45.20828" lon="5.7424">
        <ele>276.60000610352</ele>
        <time>2026-08-12T19:04:48.000Z</time>
      </trkpt>
      <trkpt lat="45.20825" lon="5.74241">
        <ele>276.39999389648</ele>
        <time>2026-08-12T19:04:49.000Z</time>
      </trkpt>
      <trkpt lat="45.20823" lon="5.74241">
        <ele>275.79998779297</ele>
        <time>2026-08-12T19:04:50.000Z</time>
      </trkpt>
      <trkpt lat="45.2082" lon="5.74241">
        <ele>275.39999389648</ele>
        <time>2026-08-12T19:04:51.000Z</time>
      </trkpt>
      <trkpt lat="45.20818" lon="5.74241">
        <ele>274.79998779297</ele>
        <time>2026-08-12T19:04:52.000Z</time>
      </trkpt>
      <trkpt lat="45.20816" lon="5.74242">
        <ele>274.60000610352</ele>
        <time>2026-08-12T19:04:53.000Z</time>
      </trkpt>
      <trkpt lat="45.20814" lon="5.74242">
        <ele>274</ele>
        <time>2026-08-12T19:04:54.000Z</time>
      </trkpt>
      <trkpt lat="45.20811" lon="5.74242">
        <ele>273.79998779297</ele>
        <time>2026-08-12T19:04:55.000Z</time>
      </trkpt>
      <trkpt lat="45.20808" lon="5.74242">
        <ele>273.60000610352</ele>
        <time>2026-08-12T19:04:56.000Z</time>
      </trkpt>
      <trkpt lat="45.20806" lon="5.74242">
        <ele>273.39999389648</ele>
        <time>2026-08-12T19:04:57.000Z</time>
      </trkpt>
      <trkpt lat="45.20803" lon="5.74242">
        <ele>273</ele>
        <time>2026-08-12T19:04:58.000Z</time>
      </trkpt>
      <trkpt lat="45.208" lon="5.74242">
        <ele>272.60000610352</ele>
        <time>2026-08-12T19:04:59.000Z</time>
      </trkpt>
      <trkpt lat="45.20797" lon="5.74243">
        <ele>272.39999389648</ele>
        <time>2026-08-12T19:05:00.000Z</time>
      </trkpt>
      <trkpt lat="45.20795" lon="5.74243">
        <ele>271.79998779297</ele>
        <time>2026-08-12T19:05:01.000Z</time>
      </trkpt>
      <trkpt lat="45.20792" lon="5.74242">
        <ele>271.20001220703</ele>
        <time>2026-08-12T19:05:02.000Z</time>
      </trkpt>
      <trkpt lat="45.20789" lon="5.74242">
        <ele>270.79998779297</ele>
        <time>2026-08-12T19:05:03.000Z</time>
      </trkpt>
      <trkpt lat="45.20787" lon="5.74242">
        <ele>270.60000610352</ele>
        <time>2026-08-12T19:05:04.000Z</time>
      </trkpt>
      <trkpt lat="45.20785" lon="5.74242">
        <ele>269.79998779297</ele>
        <time>2026-08-12T19:05:05.000Z</time>
      </trkpt>
      <trkpt lat="45.20782" lon="5.74242">
        <ele>269.60000610352</ele>
        <time>2026-08-12T19:05:06.000Z</time>
      </trkpt>
      <trkpt lat="45.20779" lon="5.74243">
        <ele>269.20001220703</ele>
        <time>2026-08-12T19:05:07.000Z</time>
      </trkpt>
      <trkpt lat="45.20777" lon="5.74243">
        <ele>268.79998779297</ele>
        <time>2026-08-12T19:05:08.000Z</time>
      </trkpt>
      <trkpt lat="45.20774" lon="5.74244">
        <ele>268.60000610352</ele>
        <time>2026-08-12T19:05:09.000Z</time>
      </trkpt>
      <trkpt lat="45.20772" lon="5.74244">
        <ele>268.39999389648</ele>
        <time>2026-08-12T19:05:10.000Z</time>
      </trkpt>
      <trkpt lat="45.20769" lon="5.74245">
        <ele>268.20001220703</ele>
        <time>2026-08-12T19:05:11.000Z</time>
      </trkpt>
      <trkpt lat="45.20766" lon="5.74247">
        <ele>268</ele>
        <time>2026-08-12T19:05:12.000Z</time>
      </trkpt>
      <trkpt lat="45.20763" lon="5.74248">
        <ele>267.79998779297</ele>
        <time>2026-08-12T19:05:13.000Z</time>
      </trkpt>
      <trkpt lat="45.20761" lon="5.74248">
        <ele>267.60000610352</ele>
        <time>2026-08-12T19:05:14.000Z</time>
      </trkpt>
      <trkpt lat="45.20758" lon="5.74249">
        <ele>267.20001220703</ele>
        <time>2026-08-12T19:05:15.000Z</time>
      </trkpt>
      <trkpt lat="45.20755" lon="5.74249">
        <ele>267</ele>
        <time>2026-08-12T19:05:16.000Z</time>
      </trkpt>
      <trkpt lat="45.20753" lon="5.74249">
        <ele>266.79998779297</ele>
        <time>2026-08-12T19:05:17.000Z</time>
      </trkpt>
      <trkpt lat="45.2075" lon="5.7425">
        <ele>266.60000610352</ele>
        <time>2026-08-12T19:05:18.000Z</time>
      </trkpt>
      <trkpt lat="45.20747" lon="5.74251">
        <ele>266.60000610352</ele>
        <time>2026-08-12T19:05:19.000Z</time>
      </trkpt>
      <trkpt lat="45.20745" lon="5.74252">
        <ele>266.39999389648</ele>
        <time>2026-08-12T19:05:20.000Z</time>
      </trkpt>
      <trkpt lat="45.20742" lon="5.74253">
        <ele>266.20001220703</ele>
        <time>2026-08-12T19:05:21.000Z</time>
      </trkpt>
      <trkpt lat="45.2074" lon="5.74254">
        <ele>265.79998779297</ele>
        <time>2026-08-12T19:05:22.000Z</time>
      </trkpt>
      <trkpt lat="45.20737" lon="5.74255">
        <ele>265.60000610352</ele>
        <time>2026-08-12T19:05:23.000Z</time>
      </trkpt>
      <trkpt lat="45.20735" lon="5.74256">
        <ele>265.39999389648</ele>
        <time>2026-08-12T19:05:24.000Z</time>
      </trkpt>
      <trkpt lat="45.20733" lon="5.74257">
        <ele>265.20001220703</ele>
        <time>2026-08-12T19:05:25.000Z</time>
      </trkpt>
      <trkpt lat="45.2073" lon="5.74258">
        <ele>264.60000610352</ele>
        <time>2026-08-12T19:05:26.000Z</time>
      </trkpt>
      <trkpt lat="45.20727" lon="5.74259">
        <ele>264.39999389648</ele>
        <time>2026-08-12T19:05:27.000Z</time>
      </trkpt>
      <trkpt lat="45.20724" lon="5.7426">
        <ele>264</ele>
        <time>2026-08-12T19:05:28.000Z</time>
      </trkpt>
      <trkpt lat="45.20721" lon="5.74261">
        <ele>263.60000610352</ele>
        <time>2026-08-12T19:05:29.000Z</time>
      </trkpt>
      <trkpt lat="45.20718" lon="5.74262">
        <ele>263.60000610352</ele>
        <time>2026-08-12T19:05:30.000Z</time>
      </trkpt>
      <trkpt lat="45.20716" lon="5.74263">
        <ele>263.39999389648</ele>
        <time>2026-08-12T19:05:31.000Z</time>
      </trkpt>
      <trkpt lat="45.20713" lon="5.74265">
        <ele>263.20001220703</ele>
        <time>2026-08-12T19:05:32.000Z</time>
      </trkpt>
      <trkpt lat="45.20711" lon="5.74266">
        <ele>263</ele>
        <time>2026-08-12T19:05:33.000Z</time>
      </trkpt>
      <trkpt lat="45.20709" lon="5.74268">
        <ele>262.79998779297</ele>
        <time>2026-08-12T19:05:34.000Z</time>
      </trkpt>
      <trkpt lat="45.20706" lon="5.74269">
        <ele>262.39999389648</ele>
        <time>2026-08-12T19:05:35.000Z</time>
      </trkpt>
      <trkpt lat="45.20704" lon="5.74271">
        <ele>262.39999389648</ele>
        <time>2026-08-12T19:05:36.000Z</time>
      </trkpt>
      <trkpt lat="45.20702" lon="5.74272">
        <ele>262.20001220703</ele>
        <time>2026-08-12T19:05:37.000Z</time>
      </trkpt>
      <trkpt lat="45.20699" lon="5.74273">
        <ele>262.20001220703</ele>
        <time>2026-08-12T19:05:38.000Z</time>
      </trkpt>
      <trkpt lat="45.20696" lon="5.74274">
        <ele>262</ele>
        <time>2026-08-12T19:05:39.000Z</time>
      </trkpt>
      <trkpt lat="45.20694" lon="5.74275">
        <ele>261.79998779297</ele>
        <time>2026-08-12T19:05:40.000Z</time>
      </trkpt>
      <trkpt lat="45.20692" lon="5.74276">
        <ele>261.79998779297</ele>
        <time>2026-08-12T19:05:41.000Z</time>
      </trkpt>
      <trkpt lat="45.2069" lon="5.74277">
        <ele>261.79998779297</ele>
        <time>2026-08-12T19:05:42.000Z</time>
      </trkpt>
      <trkpt lat="45.20687" lon="5.74278">
        <ele>261.60000610352</ele>
        <time>2026-08-12T19:05:43.000Z</time>
      </trkpt>
      <trkpt lat="45.20684" lon="5.74279">
        <ele>261.20001220703</ele>
        <time>2026-08-12T19:05:44.000Z</time>
      </trkpt>
      <trkpt lat="45.20681" lon="5.7428">
        <ele>261</ele>
        <time>2026-08-12T19:05:45.000Z</time>
      </trkpt>
      <trkpt lat="45.20679" lon="5.74281">
        <ele>260.79998779297</ele>
        <time>2026-08-12T19:05:46.000Z</time>
      </trkpt>
      <trkpt lat="45.20676" lon="5.74282">
        <ele>260.60000610352</ele>
        <time>2026-08-12T19:05:47.000Z</time>
      </trkpt>
      <trkpt lat="45.20673" lon="5.74283">
        <ele>260.20001220703</ele>
        <time>2026-08-12T19:05:48.000Z</time>
      </trkpt>
      <trkpt lat="45.2067" lon="5.74284">
        <ele>260.20001220703</ele>
        <time>2026-08-12T19:05:49.000Z</time>
      </trkpt>
      <trkpt lat="45.20667" lon="5.74286">
        <ele>260</ele>
        <time>2026-08-12T19:05:50.000Z</time>
      </trkpt>
      <trkpt lat="45.20665" lon="5.74287">
        <ele>259.60000610352</ele>
        <time>2026-08-12T19:05:51.000Z</time>
      </trkpt>
      <trkpt lat="45.20663" lon="5.74286">
        <ele>259</ele>
        <time>2026-08-12T19:05:52.000Z</time>
      </trkpt>
      <trkpt lat="45.20662" lon="5.74288">
        <ele>258.60000610352</ele>
        <time>2026-08-12T19:05:53.000Z</time>
      </trkpt>
      <trkpt lat="45.20661" lon="5.74291">
        <ele>258.39999389648</ele>
        <time>2026-08-12T19:05:54.000Z</time>
      </trkpt>
      <trkpt lat="45.2066" lon="5.74293">
        <ele>258.20001220703</ele>
        <time>2026-08-12T19:05:55.000Z</time>
      </trkpt>
      <trkpt lat="45.20658" lon="5.74296">
        <ele>258.20001220703</ele>
        <time>2026-08-12T19:05:56.000Z</time>
      </trkpt>
      <trkpt lat="45.20657" lon="5.74297">
        <ele>258</ele>
        <time>2026-08-12T19:05:57.000Z</time>
      </trkpt>
      <trkpt lat="45.20656" lon="5.74299">
        <ele>258</ele>
        <time>2026-08-12T19:05:58.000Z</time>
      </trkpt>
      <trkpt lat="45.20654" lon="5.743">
        <ele>258</ele>
        <time>2026-08-12T19:05:59.000Z</time>
      </trkpt>
      <trkpt lat="45.20651" lon="5.74302">
        <ele>258</ele>
        <time>2026-08-12T19:06:00.000Z</time>
      </trkpt>
      <trkpt lat="45.20649" lon="5.74303">
        <ele>257.79998779297</ele>
        <time>2026-08-12T19:06:01.000Z</time>
      </trkpt>
      <trkpt lat="45.20647" lon="5.74305">
        <ele>257.60000610352</ele>
        <time>2026-08-12T19:06:02.000Z</time>
      </trkpt>
      <trkpt lat="45.20645" lon="5.74307">
        <ele>257.39999389648</ele>
        <time>2026-08-12T19:06:03.000Z</time>
      </trkpt>
      <trkpt lat="45.20643" lon="5.7431">
        <ele>257.39999389648</ele>
        <time>2026-08-12T19:06:04.000Z</time>
      </trkpt>
      <trkpt lat="45.20641" lon="5.74312">
        <ele>257.39999389648</ele>
        <time>2026-08-12T19:06:05.000Z</time>
      </trkpt>
      <trkpt lat="45.20639" lon="5.74315">
        <ele>257.39999389648</ele>
        <time>2026-08-12T19:06:06.000Z</time>
      </trkpt>
      <trkpt lat="45.20637" lon="5.74318">
        <ele>257.39999389648</ele>
        <time>2026-08-12T19:06:07.000Z</time>
      </trkpt>
      <trkpt lat="45.20635" lon="5.7432">
        <ele>257.39999389648</ele>
        <time>2026-08-12T19:06:08.000Z</time>
      </trkpt>
      <trkpt lat="45.20633" lon="5.74323">
        <ele>257.39999389648</ele>
        <time>2026-08-12T19:06:09.000Z</time>
      </trkpt>
      <trkpt lat="45.2063" lon="5.74325">
        <ele>257.20001220703</ele>
        <time>2026-08-12T19:06:10.000Z</time>
      </trkpt>
      <trkpt lat="45.20629" lon="5.74328">
        <ele>257</ele>
        <time>2026-08-12T19:06:11.000Z</time>
      </trkpt>
      <trkpt lat="45.20627" lon="5.7433">
        <ele>257</ele>
        <time>2026-08-12T19:06:12.000Z</time>
      </trkpt>
      <trkpt lat="45.20625" lon="5.74331">
        <ele>257</ele>
        <time>2026-08-12T19:06:13.000Z</time>
      </trkpt>
      <trkpt lat="45.20623" lon="5.74333">
        <ele>256.79998779297</ele>
        <time>2026-08-12T19:06:14.000Z</time>
      </trkpt>
      <trkpt lat="45.20621" lon="5.74335">
        <ele>256.79998779297</ele>
        <time>2026-08-12T19:06:15.000Z</time>
      </trkpt>
      <trkpt lat="45.20619" lon="5.74337">
        <ele>256.79998779297</ele>
        <time>2026-08-12T19:06:16.000Z</time>
      </trkpt>
      <trkpt lat="45.20617" lon="5.74339">
        <ele>256.60000610352</ele>
        <time>2026-08-12T19:06:17.000Z</time>
      </trkpt>
      <trkpt lat="45.20614" lon="5.7434">
        <ele>256.39999389648</ele>
        <time>2026-08-12T19:06:18.000Z</time>
      </trkpt>
      <trkpt lat="45.20612" lon="5.74343">
        <ele>256.20001220703</ele>
        <time>2026-08-12T19:06:19.000Z</time>
      </trkpt>
      <trkpt lat="45.2061" lon="5.74345">
        <ele>256</ele>
        <time>2026-08-12T19:06:20.000Z</time>
      </trkpt>
      <trkpt lat="45.20607" lon="5.74347">
        <ele>256</ele>
        <time>2026-08-12T19:06:21.000Z</time>
      </trkpt>
      <trkpt lat="45.20605" lon="5.7435">
        <ele>255.60000610352</ele>
        <time>2026-08-12T19:06:22.000Z</time>
      </trkpt>
      <trkpt lat="45.20603" lon="5.74352">
        <ele>255.39999389648</ele>
        <time>2026-08-12T19:06:23.000Z</time>
      </trkpt>
      <trkpt lat="45.20601" lon="5.74355">
        <ele>255.39999389648</ele>
        <time>2026-08-12T19:06:24.000Z</time>
      </trkpt>
      <trkpt lat="45.20599" lon="5.74356">
        <ele>255.19999694824</ele>
        <time>2026-08-12T19:06:25.000Z</time>
      </trkpt>
      <trkpt lat="45.20596" lon="5.74357">
        <ele>255.19999694824</ele>
        <time>2026-08-12T19:06:26.000Z</time>
      </trkpt>
      <trkpt lat="45.20594" lon="5.74359">
        <ele>255.19999694824</ele>
        <time>2026-08-12T19:06:27.000Z</time>
      </trkpt>
      <trkpt lat="45.20592" lon="5.74361">
        <ele>255.19999694824</ele>
        <time>2026-08-12T19:06:28.000Z</time>
      </trkpt>
      <trkpt lat="45.20589" lon="5.74363">
        <ele>255.19999694824</ele>
        <time>2026-08-12T19:06:29.000Z</time>
      </trkpt>
      <trkpt lat="45.20588" lon="5.74365">
        <ele>255.19999694824</ele>
        <time>2026-08-12T19:06:30.000Z</time>
      </trkpt>
      <trkpt lat="45.20586" lon="5.74367">
        <ele>255.19999694824</ele>
        <time>2026-08-12T19:06:31.000Z</time>
      </trkpt>
      <trkpt lat="45.20584" lon="5.74369">
        <ele>255.19999694824</ele>
        <time>2026-08-12T19:06:32.000Z</time>
      </trkpt>
      <trkpt lat="45.20582" lon="5.74371">
        <ele>255.39999389648</ele>
        <time>2026-08-12T19:06:33.000Z</time>
      </trkpt>
      <trkpt lat="45.2058" lon="5.74374">
        <ele>255.39999389648</ele>
        <time>2026-08-12T19:06:34.000Z</time>
      </trkpt>
      <trkpt lat="45.20579" lon="5.74377">
        <ele>255.39999389648</ele>
        <time>2026-08-12T19:06:35.000Z</time>
      </trkpt>
      <trkpt lat="45.20576" lon="5.7438">
        <ele>255.19999694824</ele>
        <time>2026-08-12T19:06:36.000Z</time>
      </trkpt>
      <trkpt lat="45.20575" lon="5.74383">
        <ele>255</ele>
        <time>2026-08-12T19:06:37.000Z</time>
      </trkpt>
      <trkpt lat="45.20573" lon="5.74386">
        <ele>254.60000610352</ele>
        <time>2026-08-12T19:06:38.000Z</time>
      </trkpt>
      <trkpt lat="45.20571" lon="5.74388">
        <ele>254.60000610352</ele>
        <time>2026-08-12T19:06:39.000Z</time>
      </trkpt>
      <trkpt lat="45.20568" lon="5.74391">
        <ele>254.60000610352</ele>
        <time>2026-08-12T19:06:40.000Z</time>
      </trkpt>
      <trkpt lat="45.20567" lon="5.74393">
        <ele>254.39999389648</ele>
        <time>2026-08-12T19:06:41.000Z</time>
      </trkpt>
      <trkpt lat="45.20565" lon="5.74396">
        <ele>254.39999389648</ele>
        <time>2026-08-12T19:06:42.000Z</time>
      </trkpt>
      <trkpt lat="45.20563" lon="5.74398">
        <ele>254.39999389648</ele>
        <time>2026-08-12T19:06:43.000Z</time>
      </trkpt>
      <trkpt lat="45.20561" lon="5.74401">
        <ele>254.19999694824</ele>
        <time>2026-08-12T19:06:44.000Z</time>
      </trkpt>
      <trkpt lat="45.20559" lon="5.74403">
        <ele>254.19999694824</ele>
        <time>2026-08-12T19:06:45.000Z</time>
      </trkpt>
      <trkpt lat="45.20557" lon="5.74405">
        <ele>254</ele>
        <time>2026-08-12T19:06:46.000Z</time>
      </trkpt>
      <trkpt lat="45.20554" lon="5.74406">
        <ele>254</ele>
        <time>2026-08-12T19:06:47.000Z</time>
      </trkpt>
      <trkpt lat="45.20551" lon="5.74407">
        <ele>253.80000305176</ele>
        <time>2026-08-12T19:06:48.000Z</time>
      </trkpt>
      <trkpt lat="45.20547" lon="5.74407">
        <ele>253.39999389648</ele>
        <time>2026-08-12T19:06:49.000Z</time>
      </trkpt>
      <trkpt lat="45.20544" lon="5.74406">
        <ele>253.19999694824</ele>
        <time>2026-08-12T19:06:50.000Z</time>
      </trkpt>
      <trkpt lat="45.20541" lon="5.74404">
        <ele>252.60000610352</ele>
        <time>2026-08-12T19:06:51.000Z</time>
      </trkpt>
      <trkpt lat="45.20538" lon="5.74403">
        <ele>252.60000610352</ele>
        <time>2026-08-12T19:06:52.000Z</time>
      </trkpt>
      <trkpt lat="45.20535" lon="5.74401">
        <ele>252.39999389648</ele>
        <time>2026-08-12T19:06:53.000Z</time>
      </trkpt>
      <trkpt lat="45.20532" lon="5.74399">
        <ele>252.39999389648</ele>
        <time>2026-08-12T19:06:54.000Z</time>
      </trkpt>
      <trkpt lat="45.2053" lon="5.74398">
        <ele>252.19999694824</ele>
        <time>2026-08-12T19:06:55.000Z</time>
      </trkpt>
      <trkpt lat="45.20528" lon="5.74396">
        <ele>252.19999694824</ele>
        <time>2026-08-12T19:06:56.000Z</time>
      </trkpt>
      <trkpt lat="45.20525" lon="5.74395">
        <ele>252.19999694824</ele>
        <time>2026-08-12T19:06:57.000Z</time>
      </trkpt>
      <trkpt lat="45.20522" lon="5.74393">
        <ele>251.80000305176</ele>
        <time>2026-08-12T19:06:58.000Z</time>
      </trkpt>
      <trkpt lat="45.2052" lon="5.74393">
        <ele>251.39999389648</ele>
        <time>2026-08-12T19:06:59.000Z</time>
      </trkpt>
      <trkpt lat="45.20518" lon="5.74392">
        <ele>251.19999694824</ele>
        <time>2026-08-12T19:07:00.000Z</time>
      </trkpt>
      <trkpt lat="45.20515" lon="5.74392">
        <ele>250.80000305176</ele>
        <time>2026-08-12T19:07:01.000Z</time>
      </trkpt>
      <trkpt lat="45.20513" lon="5.74393">
        <ele>250.60000610352</ele>
        <time>2026-08-12T19:07:02.000Z</time>
      </trkpt>
      <trkpt lat="45.20511" lon="5.74394">
        <ele>250.39999389648</ele>
        <time>2026-08-12T19:07:03.000Z</time>
      </trkpt>
      <trkpt lat="45.20509" lon="5.74395">
        <ele>250.39999389648</ele>
        <time>2026-08-12T19:07:04.000Z</time>
      </trkpt>
      <trkpt lat="45.20508" lon="5.74397">
        <ele>250</ele>
        <time>2026-08-12T19:07:05.000Z</time>
      </trkpt>
      <trkpt lat="45.20506" lon="5.74399">
        <ele>250</ele>
        <time>2026-08-12T19:07:06.000Z</time>
      </trkpt>
      <trkpt lat="45.20505" lon="5.744">
        <ele>250</ele>
        <time>2026-08-12T19:07:07.000Z</time>
      </trkpt>
      <trkpt lat="45.20503" lon="5.74403">
        <ele>250</ele>
        <time>2026-08-12T19:07:08.000Z</time>
      </trkpt>
      <trkpt lat="45.20502" lon="5.74404">
        <ele>250</ele>
        <time>2026-08-12T19:07:09.000Z</time>
      </trkpt>
      <trkpt lat="45.205" lon="5.74407">
        <ele>250</ele>
        <time>2026-08-12T19:07:10.000Z</time>
      </trkpt>
      <trkpt lat="45.20499" lon="5.74409">
        <ele>250</ele>
        <time>2026-08-12T19:07:11.000Z</time>
      </trkpt>
      <trkpt lat="45.20497" lon="5.74412">
        <ele>249.60000610352</ele>
        <time>2026-08-12T19:07:12.000Z</time>
      </trkpt>
      <trkpt lat="45.20496" lon="5.74415">
        <ele>249.39999389648</ele>
        <time>2026-08-12T19:07:13.000Z</time>
      </trkpt>
      <trkpt lat="45.20494" lon="5.74418">
        <ele>249.39999389648</ele>
        <time>2026-08-12T19:07:14.000Z</time>
      </trkpt>
      <trkpt lat="45.20493" lon="5.7442">
        <ele>249.19999694824</ele>
        <time>2026-08-12T19:07:15.000Z</time>
      </trkpt>
      <trkpt lat="45.20491" lon="5.74423">
        <ele>249.19999694824</ele>
        <time>2026-08-12T19:07:16.000Z</time>
      </trkpt>
      <trkpt lat="45.20489" lon="5.74426">
        <ele>249</ele>
        <time>2026-08-12T19:07:17.000Z</time>
      </trkpt>
      <trkpt lat="45.20487" lon="5.74428">
        <ele>249</ele>
        <time>2026-08-12T19:07:18.000Z</time>
      </trkpt>
      <trkpt lat="45.20485" lon="5.74431">
        <ele>249.19999694824</ele>
        <time>2026-08-12T19:07:19.000Z</time>
      </trkpt>
      <trkpt lat="45.20483" lon="5.74433">
        <ele>249.19999694824</ele>
        <time>2026-08-12T19:07:20.000Z</time>
      </trkpt>
      <trkpt lat="45.20481" lon="5.74436">
        <ele>249</ele>
        <time>2026-08-12T19:07:21.000Z</time>
      </trkpt>
      <trkpt lat="45.20479" lon="5.74438">
        <ele>249</ele>
        <time>2026-08-12T19:07:22.000Z</time>
      </trkpt>
      <trkpt lat="45.20476" lon="5.7444">
        <ele>249</ele>
        <time>2026-08-12T19:07:23.000Z</time>
      </trkpt>
      <trkpt lat="45.20475" lon="5.74443">
        <ele>248.80000305176</ele>
        <time>2026-08-12T19:07:24.000Z</time>
      </trkpt>
      <trkpt lat="45.20472" lon="5.74446">
        <ele>248.80000305176</ele>
        <time>2026-08-12T19:07:25.000Z</time>
      </trkpt>
      <trkpt lat="45.2047" lon="5.74448">
        <ele>248.60000610352</ele>
        <time>2026-08-12T19:07:26.000Z</time>
      </trkpt>
      <trkpt lat="45.20468" lon="5.74451">
        <ele>248.39999389648</ele>
        <time>2026-08-12T19:07:27.000Z</time>
      </trkpt>
      <trkpt lat="45.20464" lon="5.74453">
        <ele>248.19999694824</ele>
        <time>2026-08-12T19:07:28.000Z</time>
      </trkpt>
      <trkpt lat="45.20461" lon="5.74454">
        <ele>248</ele>
        <time>2026-08-12T19:07:29.000Z</time>
      </trkpt>
      <trkpt lat="45.20456" lon="5.74453">
        <ele>248</ele>
        <time>2026-08-12T19:07:30.000Z</time>
      </trkpt>
      <trkpt lat="45.20453" lon="5.74451">
        <ele>247.80000305176</ele>
        <time>2026-08-12T19:07:31.000Z</time>
      </trkpt>
      <trkpt lat="45.20451" lon="5.74448">
        <ele>247.39999389648</ele>
        <time>2026-08-12T19:07:32.000Z</time>
      </trkpt>
      <trkpt lat="45.20449" lon="5.74446">
        <ele>247.39999389648</ele>
        <time>2026-08-12T19:07:33.000Z</time>
      </trkpt>
      <trkpt lat="45.20447" lon="5.74443">
        <ele>247.39999389648</ele>
        <time>2026-08-12T19:07:34.000Z</time>
      </trkpt>
      <trkpt lat="45.20445" lon="5.7444">
        <ele>247.39999389648</ele>
        <time>2026-08-12T19:07:35.000Z</time>
      </trkpt>
      <trkpt lat="45.20445" lon="5.74436">
        <ele>247.39999389648</ele>
        <time>2026-08-12T19:07:36.000Z</time>
      </trkpt>
      <trkpt lat="45.20443" lon="5.74432">
        <ele>247.39999389648</ele>
        <time>2026-08-12T19:07:37.000Z</time>
      </trkpt>
      <trkpt lat="45.20441" lon="5.74429">
        <ele>247.19999694824</ele>
        <time>2026-08-12T19:07:38.000Z</time>
      </trkpt>
      <trkpt lat="45.20439" lon="5.74427">
        <ele>247.19999694824</ele>
        <time>2026-08-12T19:07:39.000Z</time>
      </trkpt>
      <trkpt lat="45.20437" lon="5.74424">
        <ele>247</ele>
        <time>2026-08-12T19:07:40.000Z</time>
      </trkpt>
      <trkpt lat="45.20435" lon="5.74423">
        <ele>247</ele>
        <time>2026-08-12T19:07:41.000Z</time>
      </trkpt>
      <trkpt lat="45.20433" lon="5.74423">
        <ele>246.80000305176</ele>
        <time>2026-08-12T19:07:42.000Z</time>
      </trkpt>
      <trkpt lat="45.2043" lon="5.74421">
        <ele>246.60000610352</ele>
        <time>2026-08-12T19:07:43.000Z</time>
      </trkpt>
      <trkpt lat="45.20428" lon="5.74419">
        <ele>246.39999389648</ele>
        <time>2026-08-12T19:07:44.000Z</time>
      </trkpt>
      <trkpt lat="45.20426" lon="5.74416">
        <ele>246.19999694824</ele>
        <time>2026-08-12T19:07:45.000Z</time>
      </trkpt>
      <trkpt lat="45.20424" lon="5.74414">
        <ele>246</ele>
        <time>2026-08-12T19:07:46.000Z</time>
      </trkpt>
      <trkpt lat="45.20422" lon="5.7441">
        <ele>245.60000610352</ele>
        <time>2026-08-12T19:07:47.000Z</time>
      </trkpt>
      <trkpt lat="45.2042" lon="5.74408">
        <ele>245.39999389648</ele>
        <time>2026-08-12T19:07:48.000Z</time>
      </trkpt>
      <trkpt lat="45.20417" lon="5.74405">
        <ele>245.19999694824</ele>
        <time>2026-08-12T19:07:49.000Z</time>
      </trkpt>
      <trkpt lat="45.20415" lon="5.74402">
        <ele>245</ele>
        <time>2026-08-12T19:07:50.000Z</time>
      </trkpt>
      <trkpt lat="45.20413" lon="5.744">
        <ele>244.60000610352</ele>
        <time>2026-08-12T19:07:51.000Z</time>
      </trkpt>
      <trkpt lat="45.20411" lon="5.74397">
        <ele>244.60000610352</ele>
        <time>2026-08-12T19:07:52.000Z</time>
      </trkpt>
      <trkpt lat="45.20409" lon="5.74395">
        <ele>244.19999694824</ele>
        <time>2026-08-12T19:07:53.000Z</time>
      </trkpt>
      <trkpt lat="45.20407" lon="5.74392">
        <ele>244.19999694824</ele>
        <time>2026-08-12T19:07:54.000Z</time>
      </trkpt>
      <trkpt lat="45.20405" lon="5.74389">
        <ele>244.39999389648</ele>
        <time>2026-08-12T19:07:55.000Z</time>
      </trkpt>
      <trkpt lat="45.20403" lon="5.74386">
        <ele>244.60000610352</ele>
        <time>2026-08-12T19:07:56.000Z</time>
      </trkpt>
      <trkpt lat="45.204" lon="5.74383">
        <ele>244.19999694824</ele>
        <time>2026-08-12T19:07:57.000Z</time>
      </trkpt>
      <trkpt lat="45.20398" lon="5.74381">
        <ele>244</ele>
        <time>2026-08-12T19:07:58.000Z</time>
      </trkpt>
      <trkpt lat="45.20396" lon="5.74378">
        <ele>243.80000305176</ele>
        <time>2026-08-12T19:07:59.000Z</time>
      </trkpt>
      <trkpt lat="45.20393" lon="5.74376">
        <ele>242.80000305176</ele>
        <time>2026-08-12T19:08:00.000Z</time>
      </trkpt>
      <trkpt lat="45.20391" lon="5.74374">
        <ele>242.39999389648</ele>
        <time>2026-08-12T19:08:01.000Z</time>
      </trkpt>
      <trkpt lat="45.20389" lon="5.74371">
        <ele>242.39999389648</ele>
        <time>2026-08-12T19:08:02.000Z</time>
      </trkpt>
      <trkpt lat="45.20387" lon="5.74367">
        <ele>241.80000305176</ele>
        <time>2026-08-12T19:08:03.000Z</time>
      </trkpt>
      <trkpt lat="45.20385" lon="5.74365">
        <ele>241.60000610352</ele>
        <time>2026-08-12T19:08:04.000Z</time>
      </trkpt>
      <trkpt lat="45.20383" lon="5.74362">
        <ele>241.80000305176</ele>
        <time>2026-08-12T19:08:05.000Z</time>
      </trkpt>
      <trkpt lat="45.20381" lon="5.74359">
        <ele>241.80000305176</ele>
        <time>2026-08-12T19:08:06.000Z</time>
      </trkpt>
      <trkpt lat="45.20379" lon="5.74356">
        <ele>241.80000305176</ele>
        <time>2026-08-12T19:08:07.000Z</time>
      </trkpt>
      <trkpt lat="45.20377" lon="5.74351">
        <ele>241.80000305176</ele>
        <time>2026-08-12T19:08:08.000Z</time>
      </trkpt>
      <trkpt lat="45.20375" lon="5.74348">
        <ele>241.80000305176</ele>
        <time>2026-08-12T19:08:09.000Z</time>
      </trkpt>
      <trkpt lat="45.20373" lon="5.74345">
        <ele>241.60000610352</ele>
        <time>2026-08-12T19:08:10.000Z</time>
      </trkpt>
      <trkpt lat="45.20371" lon="5.74342">
        <ele>241.39999389648</ele>
        <time>2026-08-12T19:08:11.000Z</time>
      </trkpt>
      <trkpt lat="45.20369" lon="5.74339">
        <ele>241.19999694824</ele>
        <time>2026-08-12T19:08:12.000Z</time>
      </trkpt>
      <trkpt lat="45.20367" lon="5.74336">
        <ele>241</ele>
        <time>2026-08-12T19:08:13.000Z</time>
      </trkpt>
      <trkpt lat="45.20365" lon="5.74333">
        <ele>240.60000610352</ele>
        <time>2026-08-12T19:08:14.000Z</time>
      </trkpt>
      <trkpt lat="45.20363" lon="5.7433">
        <ele>240.39999389648</ele>
        <time>2026-08-12T19:08:15.000Z</time>
      </trkpt>
      <trkpt lat="45.20361" lon="5.74326">
        <ele>240.39999389648</ele>
        <time>2026-08-12T19:08:16.000Z</time>
      </trkpt>
      <trkpt lat="45.20358" lon="5.74324">
        <ele>240</ele>
        <time>2026-08-12T19:08:17.000Z</time>
      </trkpt>
      <trkpt lat="45.20355" lon="5.74321">
        <ele>239.80000305176</ele>
        <time>2026-08-12T19:08:18.000Z</time>
      </trkpt>
      <trkpt lat="45.20353" lon="5.74317">
        <ele>239.60000610352</ele>
        <time>2026-08-12T19:08:19.000Z</time>
      </trkpt>
      <trkpt lat="45.2035" lon="5.74314">
        <ele>239.39999389648</ele>
        <time>2026-08-12T19:08:20.000Z</time>
      </trkpt>
      <trkpt lat="45.20347" lon="5.74311">
        <ele>239.19999694824</ele>
        <time>2026-08-12T19:08:21.000Z</time>
      </trkpt>
      <trkpt lat="45.20345" lon="5.74307">
        <ele>239.19999694824</ele>
        <time>2026-08-12T19:08:22.000Z</time>
      </trkpt>
      <trkpt lat="45.20342" lon="5.74305">
        <ele>238.80000305176</ele>
        <time>2026-08-12T19:08:23.000Z</time>
      </trkpt>
      <trkpt lat="45.20339" lon="5.74302">
        <ele>238.80000305176</ele>
        <time>2026-08-12T19:08:24.000Z</time>
      </trkpt>
      <trkpt lat="45.20337" lon="5.74299">
        <ele>239</ele>
        <time>2026-08-12T19:08:25.000Z</time>
      </trkpt>
      <trkpt lat="45.20334" lon="5.74297">
        <ele>239</ele>
        <time>2026-08-12T19:08:26.000Z</time>
      </trkpt>
      <trkpt lat="45.20331" lon="5.74296">
        <ele>239.19999694824</ele>
        <time>2026-08-12T19:08:27.000Z</time>
      </trkpt>
      <trkpt lat="45.20329" lon="5.74296">
        <ele>239.39999389648</ele>
        <time>2026-08-12T19:08:28.000Z</time>
      </trkpt>
      <trkpt lat="45.20325" lon="5.74298">
        <ele>239.39999389648</ele>
        <time>2026-08-12T19:08:29.000Z</time>
      </trkpt>
      <trkpt lat="45.20324" lon="5.743">
        <ele>239.19999694824</ele>
        <time>2026-08-12T19:08:30.000Z</time>
      </trkpt>
      <trkpt lat="45.20322" lon="5.74303">
        <ele>239.19999694824</ele>
        <time>2026-08-12T19:08:31.000Z</time>
      </trkpt>
      <trkpt lat="45.2032" lon="5.74304">
        <ele>239.19999694824</ele>
        <time>2026-08-12T19:08:32.000Z</time>
      </trkpt>
      <trkpt lat="45.20318" lon="5.74306">
        <ele>239.19999694824</ele>
        <time>2026-08-12T19:08:33.000Z</time>
      </trkpt>
      <trkpt lat="45.20316" lon="5.74308">
        <ele>239</ele>
        <time>2026-08-12T19:08:34.000Z</time>
      </trkpt>
      <trkpt lat="45.20315" lon="5.7431">
        <ele>239.19999694824</ele>
        <time>2026-08-12T19:08:35.000Z</time>
      </trkpt>
      <trkpt lat="45.20313" lon="5.74312">
        <ele>239.19999694824</ele>
        <time>2026-08-12T19:08:36.000Z</time>
      </trkpt>
      <trkpt lat="45.20311" lon="5.74314">
        <ele>239.19999694824</ele>
        <time>2026-08-12T19:08:37.000Z</time>
      </trkpt>
      <trkpt lat="45.2031" lon="5.74317">
        <ele>239.19999694824</ele>
        <time>2026-08-12T19:08:38.000Z</time>
      </trkpt>
      <trkpt lat="45.20308" lon="5.74319">
        <ele>239.19999694824</ele>
        <time>2026-08-12T19:08:39.000Z</time>
      </trkpt>
      <trkpt lat="45.20306" lon="5.7432">
        <ele>239</ele>
        <time>2026-08-12T19:08:40.000Z</time>
      </trkpt>
      <trkpt lat="45.20305" lon="5.74322">
        <ele>239</ele>
        <time>2026-08-12T19:08:41.000Z</time>
      </trkpt>
      <trkpt lat="45.20303" lon="5.74324">
        <ele>239</ele>
        <time>2026-08-12T19:08:42.000Z</time>
      </trkpt>
      <trkpt lat="45.20301" lon="5.74326">
        <ele>239</ele>
        <time>2026-08-12T19:08:43.000Z</time>
      </trkpt>
      <trkpt lat="45.20298" lon="5.74329">
        <ele>239.19999694824</ele>
        <time>2026-08-12T19:08:44.000Z</time>
      </trkpt>
      <trkpt lat="45.20296" lon="5.74331">
        <ele>239.39999389648</ele>
        <time>2026-08-12T19:08:45.000Z</time>
      </trkpt>
      <trkpt lat="45.20294" lon="5.74334">
        <ele>239.39999389648</ele>
        <time>2026-08-12T19:08:46.000Z</time>
      </trkpt>
      <trkpt lat="45.20293" lon="5.74336">
        <ele>239.39999389648</ele>
        <time>2026-08-12T19:08:47.000Z</time>
      </trkpt>
      <trkpt lat="45.20291" lon="5.74339">
        <ele>239.60000610352</ele>
        <time>2026-08-12T19:08:48.000Z</time>
      </trkpt>
      <trkpt lat="45.2029" lon="5.74343">
        <ele>239.60000610352</ele>
        <time>2026-08-12T19:08:49.000Z</time>
      </trkpt>
      <trkpt lat="45.20289" lon="5.74346">
        <ele>239.60000610352</ele>
        <time>2026-08-12T19:08:50.000Z</time>
      </trkpt>
      <trkpt lat="45.20288" lon="5.7435">
        <ele>239.60000610352</ele>
        <time>2026-08-12T19:08:51.000Z</time>
      </trkpt>
      <trkpt lat="45.20286" lon="5.74354">
        <ele>239.39999389648</ele>
        <time>2026-08-12T19:08:52.000Z</time>
      </trkpt>
      <trkpt lat="45.20285" lon="5.74358">
        <ele>239.19999694824</ele>
        <time>2026-08-12T19:08:53.000Z</time>
      </trkpt>
      <trkpt lat="45.20283" lon="5.74361">
        <ele>239.19999694824</ele>
        <time>2026-08-12T19:08:54.000Z</time>
      </trkpt>
      <trkpt lat="45.20282" lon="5.74365">
        <ele>239</ele>
        <time>2026-08-12T19:08:55.000Z</time>
      </trkpt>
      <trkpt lat="45.2028" lon="5.74368">
        <ele>238.80000305176</ele>
        <time>2026-08-12T19:08:56.000Z</time>
      </trkpt>
      <trkpt lat="45.20278" lon="5.74372">
        <ele>238.60000610352</ele>
        <time>2026-08-12T19:08:57.000Z</time>
      </trkpt>
      <trkpt lat="45.20277" lon="5.74375">
        <ele>238.19999694824</ele>
        <time>2026-08-12T19:08:58.000Z</time>
      </trkpt>
      <trkpt lat="45.20275" lon="5.74378">
        <ele>238</ele>
        <time>2026-08-12T19:08:59.000Z</time>
      </trkpt>
      <trkpt lat="45.20273" lon="5.74381">
        <ele>238</ele>
        <time>2026-08-12T19:09:00.000Z</time>
      </trkpt>
      <trkpt lat="45.20271" lon="5.74384">
        <ele>238</ele>
        <time>2026-08-12T19:09:01.000Z</time>
      </trkpt>
      <trkpt lat="45.20269" lon="5.74388">
        <ele>237.80000305176</ele>
        <time>2026-08-12T19:09:02.000Z</time>
      </trkpt>
      <trkpt lat="45.20267" lon="5.74391">
        <ele>237.80000305176</ele>
        <time>2026-08-12T19:09:03.000Z</time>
      </trkpt>
      <trkpt lat="45.20264" lon="5.74394">
        <ele>237.80000305176</ele>
        <time>2026-08-12T19:09:04.000Z</time>
      </trkpt>
      <trkpt lat="45.20262" lon="5.74397">
        <ele>238</ele>
        <time>2026-08-12T19:09:05.000Z</time>
      </trkpt>
      <trkpt lat="45.2026" lon="5.74399">
        <ele>237.80000305176</ele>
        <time>2026-08-12T19:09:06.000Z</time>
      </trkpt>
      <trkpt lat="45.20258" lon="5.74402">
        <ele>238</ele>
        <time>2026-08-12T19:09:07.000Z</time>
      </trkpt>
      <trkpt lat="45.20255" lon="5.74402">
        <ele>238.19999694824</ele>
        <time>2026-08-12T19:09:08.000Z</time>
      </trkpt>
      <trkpt lat="45.20253" lon="5.74401">
        <ele>238.39999389648</ele>
        <time>2026-08-12T19:09:09.000Z</time>
      </trkpt>
      <trkpt lat="45.20251" lon="5.74399">
        <ele>238.60000610352</ele>
        <time>2026-08-12T19:09:10.000Z</time>
      </trkpt>
      <trkpt lat="45.20249" lon="5.74397">
        <ele>238.60000610352</ele>
        <time>2026-08-12T19:09:11.000Z</time>
      </trkpt>
      <trkpt lat="45.20247" lon="5.74394">
        <ele>238.60000610352</ele>
        <time>2026-08-12T19:09:12.000Z</time>
      </trkpt>
      <trkpt lat="45.20245" lon="5.74391">
        <ele>238.60000610352</ele>
        <time>2026-08-12T19:09:13.000Z</time>
      </trkpt>
      <trkpt lat="45.20243" lon="5.74388">
        <ele>238.39999389648</ele>
        <time>2026-08-12T19:09:14.000Z</time>
      </trkpt>
      <trkpt lat="45.20241" lon="5.74385">
        <ele>238</ele>
        <time>2026-08-12T19:09:15.000Z</time>
      </trkpt>
      <trkpt lat="45.20239" lon="5.74382">
        <ele>237.80000305176</ele>
        <time>2026-08-12T19:09:16.000Z</time>
      </trkpt>
      <trkpt lat="45.20238" lon="5.74379">
        <ele>237.39999389648</ele>
        <time>2026-08-12T19:09:17.000Z</time>
      </trkpt>
      <trkpt lat="45.20236" lon="5.74378">
        <ele>237.19999694824</ele>
        <time>2026-08-12T19:09:18.000Z</time>
      </trkpt>
      <trkpt lat="45.20235" lon="5.74378">
        <ele>237.19999694824</ele>
        <time>2026-08-12T19:09:19.000Z</time>
      </trkpt>
      <trkpt lat="45.20233" lon="5.74379">
        <ele>237.19999694824</ele>
        <time>2026-08-12T19:09:20.000Z</time>
      </trkpt>
      <trkpt lat="45.20231" lon="5.7438">
        <ele>237.39999389648</ele>
        <time>2026-08-12T19:09:21.000Z</time>
      </trkpt>
      <trkpt lat="45.20229" lon="5.7438">
        <ele>237.39999389648</ele>
        <time>2026-08-12T19:09:22.000Z</time>
      </trkpt>
      <trkpt lat="45.20226" lon="5.74379">
        <ele>237.39999389648</ele>
        <time>2026-08-12T19:09:23.000Z</time>
      </trkpt>
      <trkpt lat="45.20224" lon="5.74377">
        <ele>237.19999694824</ele>
        <time>2026-08-12T19:09:24.000Z</time>
      </trkpt>
      <trkpt lat="45.20222" lon="5.74374">
        <ele>237.19999694824</ele>
        <time>2026-08-12T19:09:25.000Z</time>
      </trkpt>
      <trkpt lat="45.2022" lon="5.7437">
        <ele>237.19999694824</ele>
        <time>2026-08-12T19:09:26.000Z</time>
      </trkpt>
      <trkpt lat="45.20218" lon="5.74367">
        <ele>237.19999694824</ele>
        <time>2026-08-12T19:09:27.000Z</time>
      </trkpt>
      <trkpt lat="45.20216" lon="5.74364">
        <ele>237.19999694824</ele>
        <time>2026-08-12T19:09:28.000Z</time>
      </trkpt>
      <trkpt lat="45.20216" lon="5.74361">
        <ele>237</ele>
        <time>2026-08-12T19:09:29.000Z</time>
      </trkpt>
      <trkpt lat="45.20215" lon="5.74357">
        <ele>237</ele>
        <time>2026-08-12T19:09:30.000Z</time>
      </trkpt>
      <trkpt lat="45.20214" lon="5.74353">
        <ele>237</ele>
        <time>2026-08-12T19:09:31.000Z</time>
      </trkpt>
      <trkpt lat="45.20213" lon="5.7435">
        <ele>236.80000305176</ele>
        <time>2026-08-12T19:09:32.000Z</time>
      </trkpt>
      <trkpt lat="45.20211" lon="5.74347">
        <ele>236.80000305176</ele>
        <time>2026-08-12T19:09:33.000Z</time>
      </trkpt>
      <trkpt lat="45.20209" lon="5.74343">
        <ele>236.60000610352</ele>
        <time>2026-08-12T19:09:34.000Z</time>
      </trkpt>
      <trkpt lat="45.20208" lon="5.74339">
        <ele>236.39999389648</ele>
        <time>2026-08-12T19:09:35.000Z</time>
      </trkpt>
      <trkpt lat="45.20207" lon="5.74335">
        <ele>236.19999694824</ele>
        <time>2026-08-12T19:09:36.000Z</time>
      </trkpt>
      <trkpt lat="45.20207" lon="5.74331">
        <ele>235.80000305176</ele>
        <time>2026-08-12T19:09:37.000Z</time>
      </trkpt>
      <trkpt lat="45.20206" lon="5.74327">
        <ele>235.60000610352</ele>
        <time>2026-08-12T19:09:38.000Z</time>
      </trkpt>
      <trkpt lat="45.20205" lon="5.74324">
        <ele>235.19999694824</ele>
        <time>2026-08-12T19:09:39.000Z</time>
      </trkpt>
      <trkpt lat="45.20204" lon="5.74321">
        <ele>235.39999389648</ele>
        <time>2026-08-12T19:09:40.000Z</time>
      </trkpt>
      <trkpt lat="45.20202" lon="5.74317">
        <ele>235.60000610352</ele>
        <time>2026-08-12T19:09:41.000Z</time>
      </trkpt>
      <trkpt lat="45.20201" lon="5.74314">
        <ele>235.60000610352</ele>
        <time>2026-08-12T19:09:42.000Z</time>
      </trkpt>
      <trkpt lat="45.202" lon="5.74311">
        <ele>236.19999694824</ele>
        <time>2026-08-12T19:09:43.000Z</time>
      </trkpt>
      <trkpt lat="45.20198" lon="5.74309">
        <ele>236.39999389648</ele>
        <time>2026-08-12T19:09:44.000Z</time>
      </trkpt>
      <trkpt lat="45.20196" lon="5.74306">
        <ele>236.60000610352</ele>
        <time>2026-08-12T19:09:45.000Z</time>
      </trkpt>
      <trkpt lat="45.20195" lon="5.74304">
        <ele>236.60000610352</ele>
        <time>2026-08-12T19:09:46.000Z</time>
      </trkpt>
      <trkpt lat="45.20193" lon="5.74301">
        <ele>236.60000610352</ele>
        <time>2026-08-12T19:09:47.000Z</time>
      </trkpt>
      <trkpt lat="45.20191" lon="5.74298">
        <ele>236.60000610352</ele>
        <time>2026-08-12T19:09:48.000Z</time>
      </trkpt>
      <trkpt lat="45.20189" lon="5.74295">
        <ele>236.60000610352</ele>
        <time>2026-08-12T19:09:49.000Z</time>
      </trkpt>
      <trkpt lat="45.20187" lon="5.74292">
        <ele>236.39999389648</ele>
        <time>2026-08-12T19:09:50.000Z</time>
      </trkpt>
      <trkpt lat="45.20186" lon="5.74289">
        <ele>236</ele>
        <time>2026-08-12T19:09:51.000Z</time>
      </trkpt>
      <trkpt lat="45.20184" lon="5.74286">
        <ele>235.60000610352</ele>
        <time>2026-08-12T19:09:52.000Z</time>
      </trkpt>
      <trkpt lat="45.20182" lon="5.74284">
        <ele>235.39999389648</ele>
        <time>2026-08-12T19:09:53.000Z</time>
      </trkpt>
      <trkpt lat="45.2018" lon="5.74281">
        <ele>235.19999694824</ele>
        <time>2026-08-12T19:09:54.000Z</time>
      </trkpt>
      <trkpt lat="45.20179" lon="5.74278">
        <ele>235</ele>
        <time>2026-08-12T19:09:55.000Z</time>
      </trkpt>
      <trkpt lat="45.20177" lon="5.74276">
        <ele>234.60000610352</ele>
        <time>2026-08-12T19:09:56.000Z</time>
      </trkpt>
      <trkpt lat="45.20174" lon="5.74275">
        <ele>234.19999694824</ele>
        <time>2026-08-12T19:09:57.000Z</time>
      </trkpt>
      <trkpt lat="45.20172" lon="5.74273">
        <ele>234.19999694824</ele>
        <time>2026-08-12T19:09:58.000Z</time>
      </trkpt>
      <trkpt lat="45.2017" lon="5.74271">
        <ele>234</ele>
        <time>2026-08-12T19:09:59.000Z</time>
      </trkpt>
      <trkpt lat="45.20168" lon="5.74269">
        <ele>234</ele>
        <time>2026-08-12T19:10:00.000Z</time>
      </trkpt>
      <trkpt lat="45.20166" lon="5.74267">
        <ele>233.80000305176</ele>
        <time>2026-08-12T19:10:01.000Z</time>
      </trkpt>
      <trkpt lat="45.20164" lon="5.74265">
        <ele>233.60000610352</ele>
        <time>2026-08-12T19:10:02.000Z</time>
      </trkpt>
      <trkpt lat="45.20162" lon="5.74263">
        <ele>233.39999389648</ele>
        <time>2026-08-12T19:10:03.000Z</time>
      </trkpt>
      <trkpt lat="45.20159" lon="5.7426">
        <ele>233.39999389648</ele>
        <time>2026-08-12T19:10:04.000Z</time>
      </trkpt>
      <trkpt lat="45.20157" lon="5.74258">
        <ele>233.19999694824</ele>
        <time>2026-08-12T19:10:05.000Z</time>
      </trkpt>
      <trkpt lat="45.20155" lon="5.74255">
        <ele>233</ele>
        <time>2026-08-12T19:10:06.000Z</time>
      </trkpt>
      <trkpt lat="45.20153" lon="5.74253">
        <ele>233</ele>
        <time>2026-08-12T19:10:07.000Z</time>
      </trkpt>
      <trkpt lat="45.20151" lon="5.74251">
        <ele>233.19999694824</ele>
        <time>2026-08-12T19:10:08.000Z</time>
      </trkpt>
      <trkpt lat="45.20149" lon="5.74249">
        <ele>233.19999694824</ele>
        <time>2026-08-12T19:10:09.000Z</time>
      </trkpt>
      <trkpt lat="45.20147" lon="5.74248">
        <ele>233.19999694824</ele>
        <time>2026-08-12T19:10:10.000Z</time>
      </trkpt>
      <trkpt lat="45.20145" lon="5.74245">
        <ele>233.39999389648</ele>
        <time>2026-08-12T19:10:11.000Z</time>
      </trkpt>
      <trkpt lat="45.20142" lon="5.74243">
        <ele>233.39999389648</ele>
        <time>2026-08-12T19:10:12.000Z</time>
      </trkpt>
      <trkpt lat="45.2014" lon="5.74241">
        <ele>233.39999389648</ele>
        <time>2026-08-12T19:10:13.000Z</time>
      </trkpt>
      <trkpt lat="45.20137" lon="5.74238">
        <ele>233.19999694824</ele>
        <time>2026-08-12T19:10:14.000Z</time>
      </trkpt>
      <trkpt lat="45.20135" lon="5.74237">
        <ele>233.19999694824</ele>
        <time>2026-08-12T19:10:15.000Z</time>
      </trkpt>
      <trkpt lat="45.20132" lon="5.74235">
        <ele>232.39999389648</ele>
        <time>2026-08-12T19:10:16.000Z</time>
      </trkpt>
      <trkpt lat="45.2013" lon="5.74233">
        <ele>232</ele>
        <time>2026-08-12T19:10:17.000Z</time>
      </trkpt>
      <trkpt lat="45.20127" lon="5.74232">
        <ele>231.39999389648</ele>
        <time>2026-08-12T19:10:18.000Z</time>
      </trkpt>
      <trkpt lat="45.20125" lon="5.7423">
        <ele>230.80000305176</ele>
        <time>2026-08-12T19:10:19.000Z</time>
      </trkpt>
      <trkpt lat="45.20123" lon="5.74229">
        <ele>230.39999389648</ele>
        <time>2026-08-12T19:10:20.000Z</time>
      </trkpt>
      <trkpt lat="45.20121" lon="5.74229">
        <ele>229.19999694824</ele>
        <time>2026-08-12T19:10:21.000Z</time>
      </trkpt>
      <trkpt lat="45.20118" lon="5.74228">
        <ele>229</ele>
        <time>2026-08-12T19:10:22.000Z</time>
      </trkpt>
      <trkpt lat="45.20116" lon="5.74228">
        <ele>229.19999694824</ele>
        <time>2026-08-12T19:10:23.000Z</time>
      </trkpt>
      <trkpt lat="45.20113" lon="5.74229">
        <ele>229.19999694824</ele>
        <time>2026-08-12T19:10:24.000Z</time>
      </trkpt>
      <trkpt lat="45.20111" lon="5.74231">
        <ele>229</ele>
        <time>2026-08-12T19:10:25.000Z</time>
      </trkpt>
      <trkpt lat="45.20109" lon="5.74233">
        <ele>229.19999694824</ele>
        <time>2026-08-12T19:10:26.000Z</time>
      </trkpt>
      <trkpt lat="45.20106" lon="5.74233">
        <ele>229.19999694824</ele>
        <time>2026-08-12T19:10:27.000Z</time>
      </trkpt>
      <trkpt lat="45.20103" lon="5.74234">
        <ele>229.19999694824</ele>
        <time>2026-08-12T19:10:28.000Z</time>
      </trkpt>
      <trkpt lat="45.201" lon="5.74234">
        <ele>229.39999389648</ele>
        <time>2026-08-12T19:10:29.000Z</time>
      </trkpt>
      <trkpt lat="45.20096" lon="5.74233">
        <ele>229.39999389648</ele>
        <time>2026-08-12T19:10:30.000Z</time>
      </trkpt>
      <trkpt lat="45.20093" lon="5.74231">
        <ele>229.39999389648</ele>
        <time>2026-08-12T19:10:31.000Z</time>
      </trkpt>
      <trkpt lat="45.20091" lon="5.74228">
        <ele>229.60000610352</ele>
        <time>2026-08-12T19:10:32.000Z</time>
      </trkpt>
      <trkpt lat="45.20089" lon="5.74224">
        <ele>229.80000305176</ele>
        <time>2026-08-12T19:10:33.000Z</time>
      </trkpt>
      <trkpt lat="45.20088" lon="5.74221">
        <ele>229.60000610352</ele>
        <time>2026-08-12T19:10:34.000Z</time>
      </trkpt>
      <trkpt lat="45.20086" lon="5.74217">
        <ele>229.60000610352</ele>
        <time>2026-08-12T19:10:35.000Z</time>
      </trkpt>
      <trkpt lat="45.20086" lon="5.74213">
        <ele>229.60000610352</ele>
        <time>2026-08-12T19:10:36.000Z</time>
      </trkpt>
      <trkpt lat="45.20085" lon="5.74209">
        <ele>229.60000610352</ele>
        <time>2026-08-12T19:10:37.000Z</time>
      </trkpt>
      <trkpt lat="45.20085" lon="5.74203">
        <ele>229.60000610352</ele>
        <time>2026-08-12T19:10:38.000Z</time>
      </trkpt>
      <trkpt lat="45.20086" lon="5.74199">
        <ele>229.80000305176</ele>
        <time>2026-08-12T19:10:39.000Z</time>
      </trkpt>
      <trkpt lat="45.20088" lon="5.74195">
        <ele>230</ele>
        <time>2026-08-12T19:10:40.000Z</time>
      </trkpt>
      <trkpt lat="45.20088" lon="5.74192">
        <ele>230</ele>
        <time>2026-08-12T19:10:41.000Z</time>
      </trkpt>
      <trkpt lat="45.20088" lon="5.74189">
        <ele>230.19999694824</ele>
        <time>2026-08-12T19:10:42.000Z</time>
      </trkpt>
      <trkpt lat="45.20088" lon="5.74186">
        <ele>230.39999389648</ele>
        <time>2026-08-12T19:10:43.000Z</time>
      </trkpt>
      <trkpt lat="45.20087" lon="5.74184">
        <ele>230.39999389648</ele>
        <time>2026-08-12T19:10:44.000Z</time>
      </trkpt>
      <trkpt lat="45.20086" lon="5.74181">
        <ele>230.39999389648</ele>
        <time>2026-08-12T19:10:45.000Z</time>
      </trkpt>
      <trkpt lat="45.20084" lon="5.74179">
        <ele>230.39999389648</ele>
        <time>2026-08-12T19:10:46.000Z</time>
      </trkpt>
      <trkpt lat="45.20083" lon="5.74177">
        <ele>230.60000610352</ele>
        <time>2026-08-12T19:10:47.000Z</time>
      </trkpt>
      <trkpt lat="45.20081" lon="5.74174">
        <ele>230.60000610352</ele>
        <time>2026-08-12T19:10:48.000Z</time>
      </trkpt>
      <trkpt lat="45.20079" lon="5.74172">
        <ele>230.80000305176</ele>
        <time>2026-08-12T19:10:49.000Z</time>
      </trkpt>
      <trkpt lat="45.20077" lon="5.7417">
        <ele>231</ele>
        <time>2026-08-12T19:10:50.000Z</time>
      </trkpt>
      <trkpt lat="45.20075" lon="5.74167">
        <ele>231</ele>
        <time>2026-08-12T19:10:51.000Z</time>
      </trkpt>
      <trkpt lat="45.20073" lon="5.74165">
        <ele>231</ele>
        <time>2026-08-12T19:10:52.000Z</time>
      </trkpt>
      <trkpt lat="45.20071" lon="5.74162">
        <ele>231</ele>
        <time>2026-08-12T19:10:53.000Z</time>
      </trkpt>
      <trkpt lat="45.2007" lon="5.74161">
        <ele>231.19999694824</ele>
        <time>2026-08-12T19:10:54.000Z</time>
      </trkpt>
      <trkpt lat="45.20068" lon="5.74158">
        <ele>231.19999694824</ele>
        <time>2026-08-12T19:10:55.000Z</time>
      </trkpt>
      <trkpt lat="45.20066" lon="5.74155">
        <ele>231.39999389648</ele>
        <time>2026-08-12T19:10:56.000Z</time>
      </trkpt>
      <trkpt lat="45.20064" lon="5.74153">
        <ele>231.39999389648</ele>
        <time>2026-08-12T19:10:57.000Z</time>
      </trkpt>
      <trkpt lat="45.20062" lon="5.7415">
        <ele>231.39999389648</ele>
        <time>2026-08-12T19:10:58.000Z</time>
      </trkpt>
      <trkpt lat="45.2006" lon="5.74148">
        <ele>231.80000305176</ele>
        <time>2026-08-12T19:10:59.000Z</time>
      </trkpt>
      <trkpt lat="45.20058" lon="5.74145">
        <ele>231.80000305176</ele>
        <time>2026-08-12T19:11:00.000Z</time>
      </trkpt>
      <trkpt lat="45.20056" lon="5.74142">
        <ele>231.80000305176</ele>
        <time>2026-08-12T19:11:01.000Z</time>
      </trkpt>
      <trkpt lat="45.20054" lon="5.7414">
        <ele>232</ele>
        <time>2026-08-12T19:11:02.000Z</time>
      </trkpt>
      <trkpt lat="45.20052" lon="5.74137">
        <ele>232</ele>
        <time>2026-08-12T19:11:03.000Z</time>
      </trkpt>
      <trkpt lat="45.2005" lon="5.74135">
        <ele>232</ele>
        <time>2026-08-12T19:11:04.000Z</time>
      </trkpt>
      <trkpt lat="45.20048" lon="5.74132">
        <ele>232</ele>
        <time>2026-08-12T19:11:05.000Z</time>
      </trkpt>
      <trkpt lat="45.20046" lon="5.7413">
        <ele>232</ele>
        <time>2026-08-12T19:11:06.000Z</time>
      </trkpt>
      <trkpt lat="45.20044" lon="5.74128">
        <ele>232.19999694824</ele>
        <time>2026-08-12T19:11:07.000Z</time>
      </trkpt>
      <trkpt lat="45.20042" lon="5.74124">
        <ele>232.19999694824</ele>
        <time>2026-08-12T19:11:08.000Z</time>
      </trkpt>
      <trkpt lat="45.2004" lon="5.74122">
        <ele>232.19999694824</ele>
        <time>2026-08-12T19:11:09.000Z</time>
      </trkpt>
      <trkpt lat="45.20038" lon="5.74119">
        <ele>232.19999694824</ele>
        <time>2026-08-12T19:11:10.000Z</time>
      </trkpt>
      <trkpt lat="45.20036" lon="5.74117">
        <ele>232.19999694824</ele>
        <time>2026-08-12T19:11:11.000Z</time>
      </trkpt>
      <trkpt lat="45.20034" lon="5.74115">
        <ele>232.39999389648</ele>
        <time>2026-08-12T19:11:12.000Z</time>
      </trkpt>
      <trkpt lat="45.20032" lon="5.74112">
        <ele>232.39999389648</ele>
        <time>2026-08-12T19:11:13.000Z</time>
      </trkpt>
      <trkpt lat="45.2003" lon="5.74109">
        <ele>232.60000610352</ele>
        <time>2026-08-12T19:11:14.000Z</time>
      </trkpt>
      <trkpt lat="45.20027" lon="5.74105">
        <ele>232.80000305176</ele>
        <time>2026-08-12T19:11:15.000Z</time>
      </trkpt>
      <trkpt lat="45.20025" lon="5.74103">
        <ele>232.80000305176</ele>
        <time>2026-08-12T19:11:16.000Z</time>
      </trkpt>
      <trkpt lat="45.20023" lon="5.741">
        <ele>232.80000305176</ele>
        <time>2026-08-12T19:11:17.000Z</time>
      </trkpt>
      <trkpt lat="45.20021" lon="5.74098">
        <ele>232.80000305176</ele>
        <time>2026-08-12T19:11:18.000Z</time>
      </trkpt>
      <trkpt lat="45.20019" lon="5.74096">
        <ele>232.19999694824</ele>
        <time>2026-08-12T19:11:19.000Z</time>
      </trkpt>
      <trkpt lat="45.20017" lon="5.74093">
        <ele>231.60000610352</ele>
        <time>2026-08-12T19:11:20.000Z</time>
      </trkpt>
      <trkpt lat="45.20014" lon="5.7409">
        <ele>231.19999694824</ele>
        <time>2026-08-12T19:11:21.000Z</time>
      </trkpt>
      <trkpt lat="45.20012" lon="5.74088">
        <ele>231</ele>
        <time>2026-08-12T19:11:22.000Z</time>
      </trkpt>
      <trkpt lat="45.2001" lon="5.74087">
        <ele>230.80000305176</ele>
        <time>2026-08-12T19:11:23.000Z</time>
      </trkpt>
      <trkpt lat="45.20008" lon="5.74087">
        <ele>230.80000305176</ele>
        <time>2026-08-12T19:11:24.000Z</time>
      </trkpt>
      <trkpt lat="45.20007" lon="5.74089">
        <ele>231</ele>
        <time>2026-08-12T19:11:25.000Z</time>
      </trkpt>
      <trkpt lat="45.20006" lon="5.74091">
        <ele>231</ele>
        <time>2026-08-12T19:11:26.000Z</time>
      </trkpt>
      <trkpt lat="45.20005" lon="5.74093">
        <ele>230.80000305176</ele>
        <time>2026-08-12T19:11:27.000Z</time>
      </trkpt>
      <trkpt lat="45.20003" lon="5.74096">
        <ele>230.80000305176</ele>
        <time>2026-08-12T19:11:28.000Z</time>
      </trkpt>
      <trkpt lat="45.20002" lon="5.74098">
        <ele>230.60000610352</ele>
        <time>2026-08-12T19:11:29.000Z</time>
      </trkpt>
      <trkpt lat="45.2" lon="5.74102">
        <ele>230.19999694824</ele>
        <time>2026-08-12T19:11:30.000Z</time>
      </trkpt>
      <trkpt lat="45.19999" lon="5.74104">
        <ele>230</ele>
        <time>2026-08-12T19:11:31.000Z</time>
      </trkpt>
      <trkpt lat="45.19997" lon="5.74107">
        <ele>230</ele>
        <time>2026-08-12T19:11:32.000Z</time>
      </trkpt>
      <trkpt lat="45.19996" lon="5.7411">
        <ele>230</ele>
        <time>2026-08-12T19:11:33.000Z</time>
      </trkpt>
      <trkpt lat="45.19994" lon="5.74114">
        <ele>229.80000305176</ele>
        <time>2026-08-12T19:11:34.000Z</time>
      </trkpt>
      <trkpt lat="45.19992" lon="5.74117">
        <ele>229.80000305176</ele>
        <time>2026-08-12T19:11:35.000Z</time>
      </trkpt>
      <trkpt lat="45.1999" lon="5.7412">
        <ele>229.80000305176</ele>
        <time>2026-08-12T19:11:36.000Z</time>
      </trkpt>
      <trkpt lat="45.19989" lon="5.74123">
        <ele>229.39999389648</ele>
        <time>2026-08-12T19:11:37.000Z</time>
      </trkpt>
      <trkpt lat="45.19987" lon="5.74126">
        <ele>229.19999694824</ele>
        <time>2026-08-12T19:11:38.000Z</time>
      </trkpt>
      <trkpt lat="45.19985" lon="5.74129">
        <ele>229.19999694824</ele>
        <time>2026-08-12T19:11:39.000Z</time>
      </trkpt>
      <trkpt lat="45.19982" lon="5.74132">
        <ele>229</ele>
        <time>2026-08-12T19:11:40.000Z</time>
      </trkpt>
      <trkpt lat="45.1998" lon="5.74135">
        <ele>229</ele>
        <time>2026-08-12T19:11:41.000Z</time>
      </trkpt>
      <trkpt lat="45.19978" lon="5.74138">
        <ele>228.80000305176</ele>
        <time>2026-08-12T19:11:42.000Z</time>
      </trkpt>
      <trkpt lat="45.19976" lon="5.74141">
        <ele>228.60000610352</ele>
        <time>2026-08-12T19:11:43.000Z</time>
      </trkpt>
      <trkpt lat="45.19974" lon="5.74144">
        <ele>228.19999694824</ele>
        <time>2026-08-12T19:11:44.000Z</time>
      </trkpt>
      <trkpt lat="45.19971" lon="5.74147">
        <ele>227.80000305176</ele>
        <time>2026-08-12T19:11:45.000Z</time>
      </trkpt>
      <trkpt lat="45.19969" lon="5.7415">
        <ele>227.60000610352</ele>
        <time>2026-08-12T19:11:46.000Z</time>
      </trkpt>
      <trkpt lat="45.19967" lon="5.74153">
        <ele>227.60000610352</ele>
        <time>2026-08-12T19:11:47.000Z</time>
      </trkpt>
      <trkpt lat="45.19965" lon="5.74155">
        <ele>227.80000305176</ele>
        <time>2026-08-12T19:11:48.000Z</time>
      </trkpt>
      <trkpt lat="45.19962" lon="5.74157">
        <ele>228.39999389648</ele>
        <time>2026-08-12T19:11:49.000Z</time>
      </trkpt>
      <trkpt lat="45.1996" lon="5.74159">
        <ele>228.80000305176</ele>
        <time>2026-08-12T19:11:50.000Z</time>
      </trkpt>
      <trkpt lat="45.19958" lon="5.74161">
        <ele>228.80000305176</ele>
        <time>2026-08-12T19:11:51.000Z</time>
      </trkpt>
      <trkpt lat="45.19956" lon="5.74163">
        <ele>229.19999694824</ele>
        <time>2026-08-12T19:11:52.000Z</time>
      </trkpt>
      <trkpt lat="45.19954" lon="5.74165">
        <ele>229.19999694824</ele>
        <time>2026-08-12T19:11:53.000Z</time>
      </trkpt>
      <trkpt lat="45.19951" lon="5.74167">
        <ele>229.19999694824</ele>
        <time>2026-08-12T19:11:54.000Z</time>
      </trkpt>
      <trkpt lat="45.19948" lon="5.74169">
        <ele>229.19999694824</ele>
        <time>2026-08-12T19:11:55.000Z</time>
      </trkpt>
      <trkpt lat="45.19946" lon="5.7417">
        <ele>229.19999694824</ele>
        <time>2026-08-12T19:11:56.000Z</time>
      </trkpt>
      <trkpt lat="45.19943" lon="5.74172">
        <ele>228.80000305176</ele>
        <time>2026-08-12T19:11:57.000Z</time>
      </trkpt>
      <trkpt lat="45.1994" lon="5.74175">
        <ele>228.60000610352</ele>
        <time>2026-08-12T19:11:58.000Z</time>
      </trkpt>
      <trkpt lat="45.19937" lon="5.74177">
        <ele>228.60000610352</ele>
        <time>2026-08-12T19:11:59.000Z</time>
      </trkpt>
      <trkpt lat="45.19935" lon="5.74179">
        <ele>228.80000305176</ele>
        <time>2026-08-12T19:12:00.000Z</time>
      </trkpt>
      <trkpt lat="45.19932" lon="5.74181">
        <ele>228.80000305176</ele>
        <time>2026-08-12T19:12:01.000Z</time>
      </trkpt>
      <trkpt lat="45.1993" lon="5.74183">
        <ele>228.80000305176</ele>
        <time>2026-08-12T19:12:02.000Z</time>
      </trkpt>
      <trkpt lat="45.19927" lon="5.74185">
        <ele>229</ele>
        <time>2026-08-12T19:12:03.000Z</time>
      </trkpt>
      <trkpt lat="45.19925" lon="5.74186">
        <ele>229</ele>
        <time>2026-08-12T19:12:04.000Z</time>
      </trkpt>
      <trkpt lat="45.19922" lon="5.74188">
        <ele>229</ele>
        <time>2026-08-12T19:12:05.000Z</time>
      </trkpt>
      <trkpt lat="45.1992" lon="5.74189">
        <ele>229</ele>
        <time>2026-08-12T19:12:06.000Z</time>
      </trkpt>
      <trkpt lat="45.19918" lon="5.74191">
        <ele>229.19999694824</ele>
        <time>2026-08-12T19:12:07.000Z</time>
      </trkpt>
      <trkpt lat="45.19915" lon="5.74193">
        <ele>229.39999389648</ele>
        <time>2026-08-12T19:12:08.000Z</time>
      </trkpt>
      <trkpt lat="45.19913" lon="5.74194">
        <ele>229.39999389648</ele>
        <time>2026-08-12T19:12:09.000Z</time>
      </trkpt>
      <trkpt lat="45.1991" lon="5.74196">
        <ele>229.39999389648</ele>
        <time>2026-08-12T19:12:10.000Z</time>
      </trkpt>
      <trkpt lat="45.19908" lon="5.74198">
        <ele>229.19999694824</ele>
        <time>2026-08-12T19:12:11.000Z</time>
      </trkpt>
      <trkpt lat="45.19905" lon="5.742">
        <ele>229.19999694824</ele>
        <time>2026-08-12T19:12:12.000Z</time>
      </trkpt>
      <trkpt lat="45.19903" lon="5.74201">
        <ele>229</ele>
        <time>2026-08-12T19:12:13.000Z</time>
      </trkpt>
      <trkpt lat="45.199" lon="5.74203">
        <ele>228.80000305176</ele>
        <time>2026-08-12T19:12:14.000Z</time>
      </trkpt>
      <trkpt lat="45.19898" lon="5.74204">
        <ele>228.19999694824</ele>
        <time>2026-08-12T19:12:15.000Z</time>
      </trkpt>
      <trkpt lat="45.19895" lon="5.74205">
        <ele>228</ele>
        <time>2026-08-12T19:12:16.000Z</time>
      </trkpt>
      <trkpt lat="45.19892" lon="5.74207">
        <ele>227.60000610352</ele>
        <time>2026-08-12T19:12:17.000Z</time>
      </trkpt>
      <trkpt lat="45.19889" lon="5.74208">
        <ele>227.19999694824</ele>
        <time>2026-08-12T19:12:18.000Z</time>
      </trkpt>
      <trkpt lat="45.19887" lon="5.74209">
        <ele>227</ele>
        <time>2026-08-12T19:12:19.000Z</time>
      </trkpt>
      <trkpt lat="45.19884" lon="5.74211">
        <ele>226.60000610352</ele>
        <time>2026-08-12T19:12:20.000Z</time>
      </trkpt>
      <trkpt lat="45.19881" lon="5.74212">
        <ele>226.19999694824</ele>
        <time>2026-08-12T19:12:21.000Z</time>
      </trkpt>
      <trkpt lat="45.19878" lon="5.74213">
        <ele>226</ele>
        <time>2026-08-12T19:12:22.000Z</time>
      </trkpt>
      <trkpt lat="45.19876" lon="5.74214">
        <ele>225.39999389648</ele>
        <time>2026-08-12T19:12:23.000Z</time>
      </trkpt>
      <trkpt lat="45.19873" lon="5.74215">
        <ele>224.80000305176</ele>
        <time>2026-08-12T19:12:24.000Z</time>
      </trkpt>
      <trkpt lat="45.19871" lon="5.74216">
        <ele>224.80000305176</ele>
        <time>2026-08-12T19:12:25.000Z</time>
      </trkpt>
      <trkpt lat="45.19868" lon="5.74217">
        <ele>225</ele>
        <time>2026-08-12T19:12:26.000Z</time>
      </trkpt>
      <trkpt lat="45.19865" lon="5.74218">
        <ele>225</ele>
        <time>2026-08-12T19:12:27.000Z</time>
      </trkpt>
      <trkpt lat="45.19863" lon="5.74219">
        <ele>225.39999389648</ele>
        <time>2026-08-12T19:12:28.000Z</time>
      </trkpt>
      <trkpt lat="45.1986" lon="5.7422">
        <ele>225.60000610352</ele>
        <time>2026-08-12T19:12:29.000Z</time>
      </trkpt>
      <trkpt lat="45.19857" lon="5.74221">
        <ele>226</ele>
        <time>2026-08-12T19:12:30.000Z</time>
      </trkpt>
      <trkpt lat="45.19854" lon="5.74223">
        <ele>226.19999694824</ele>
        <time>2026-08-12T19:12:31.000Z</time>
      </trkpt>
      <trkpt lat="45.19851" lon="5.74224">
        <ele>226.19999694824</ele>
        <time>2026-08-12T19:12:32.000Z</time>
      </trkpt>
      <trkpt lat="45.19848" lon="5.74225">
        <ele>226.39999389648</ele>
        <time>2026-08-12T19:12:33.000Z</time>
      </trkpt>
      <trkpt lat="45.19845" lon="5.74226">
        <ele>226.60000610352</ele>
        <time>2026-08-12T19:12:34.000Z</time>
      </trkpt>
      <trkpt lat="45.19842" lon="5.74228">
        <ele>226.80000305176</ele>
        <time>2026-08-12T19:12:35.000Z</time>
      </trkpt>
      <trkpt lat="45.19839" lon="5.74229">
        <ele>227</ele>
        <time>2026-08-12T19:12:36.000Z</time>
      </trkpt>
      <trkpt lat="45.19836" lon="5.7423">
        <ele>227</ele>
        <time>2026-08-12T19:12:37.000Z</time>
      </trkpt>
      <trkpt lat="45.19834" lon="5.74231">
        <ele>227</ele>
        <time>2026-08-12T19:12:38.000Z</time>
      </trkpt>
      <trkpt lat="45.19831" lon="5.74232">
        <ele>227</ele>
        <time>2026-08-12T19:12:39.000Z</time>
      </trkpt>
      <trkpt lat="45.19828" lon="5.74234">
        <ele>227</ele>
        <time>2026-08-12T19:12:40.000Z</time>
      </trkpt>
      <trkpt lat="45.19826" lon="5.74235">
        <ele>227</ele>
        <time>2026-08-12T19:12:41.000Z</time>
      </trkpt>
      <trkpt lat="45.19823" lon="5.74236">
        <ele>227</ele>
        <time>2026-08-12T19:12:42.000Z</time>
      </trkpt>
      <trkpt lat="45.1982" lon="5.74237">
        <ele>227.19999694824</ele>
        <time>2026-08-12T19:12:43.000Z</time>
      </trkpt>
      <trkpt lat="45.19817" lon="5.74238">
        <ele>227.19999694824</ele>
        <time>2026-08-12T19:12:44.000Z</time>
      </trkpt>
      <trkpt lat="45.19814" lon="5.74239">
        <ele>227</ele>
        <time>2026-08-12T19:12:45.000Z</time>
      </trkpt>
      <trkpt lat="45.19811" lon="5.7424">
        <ele>227.19999694824</ele>
        <time>2026-08-12T19:12:46.000Z</time>
      </trkpt>
      <trkpt lat="45.19808" lon="5.74241">
        <ele>227.60000610352</ele>
        <time>2026-08-12T19:12:47.000Z</time>
      </trkpt>
      <trkpt lat="45.19805" lon="5.74242">
        <ele>227.60000610352</ele>
        <time>2026-08-12T19:12:48.000Z</time>
      </trkpt>
      <trkpt lat="45.19801" lon="5.74243">
        <ele>227.80000305176</ele>
        <time>2026-08-12T19:12:49.000Z</time>
      </trkpt>
      <trkpt lat="45.19798" lon="5.74243">
        <ele>228</ele>
        <time>2026-08-12T19:12:50.000Z</time>
      </trkpt>
      <trkpt lat="45.19795" lon="5.74244">
        <ele>228.19999694824</ele>
        <time>2026-08-12T19:12:51.000Z</time>
      </trkpt>
      <trkpt lat="45.19792" lon="5.74245">
        <ele>228.39999389648</ele>
        <time>2026-08-12T19:12:52.000Z</time>
      </trkpt>
      <trkpt lat="45.19789" lon="5.74245">
        <ele>228.39999389648</ele>
        <time>2026-08-12T19:12:53.000Z</time>
      </trkpt>
      <trkpt lat="45.19786" lon="5.74246">
        <ele>228.60000610352</ele>
        <time>2026-08-12T19:12:54.000Z</time>
      </trkpt>
      <trkpt lat="45.19783" lon="5.74247">
        <ele>228.60000610352</ele>
        <time>2026-08-12T19:12:55.000Z</time>
      </trkpt>
      <trkpt lat="45.1978" lon="5.74247">
        <ele>229</ele>
        <time>2026-08-12T19:12:56.000Z</time>
      </trkpt>
      <trkpt lat="45.19777" lon="5.74247">
        <ele>228.80000305176</ele>
        <time>2026-08-12T19:12:57.000Z</time>
      </trkpt>
      <trkpt lat="45.19774" lon="5.74248">
        <ele>229</ele>
        <time>2026-08-12T19:12:58.000Z</time>
      </trkpt>
      <trkpt lat="45.19771" lon="5.74248">
        <ele>229.19999694824</ele>
        <time>2026-08-12T19:12:59.000Z</time>
      </trkpt>
      <trkpt lat="45.19769" lon="5.74248">
        <ele>229</ele>
        <time>2026-08-12T19:13:00.000Z</time>
      </trkpt>
      <trkpt lat="45.19765" lon="5.74249">
        <ele>228.80000305176</ele>
        <time>2026-08-12T19:13:01.000Z</time>
      </trkpt>
      <trkpt lat="45.19763" lon="5.74249">
        <ele>229</ele>
        <time>2026-08-12T19:13:02.000Z</time>
      </trkpt>
      <trkpt lat="45.1976" lon="5.74249">
        <ele>229</ele>
        <time>2026-08-12T19:13:03.000Z</time>
      </trkpt>
      <trkpt lat="45.19757" lon="5.74249">
        <ele>229</ele>
        <time>2026-08-12T19:13:04.000Z</time>
      </trkpt>
      <trkpt lat="45.19754" lon="5.7425">
        <ele>229.60000610352</ele>
        <time>2026-08-12T19:13:05.000Z</time>
      </trkpt>
      <trkpt lat="45.19751" lon="5.7425">
        <ele>230</ele>
        <time>2026-08-12T19:13:06.000Z</time>
      </trkpt>
      <trkpt lat="45.19748" lon="5.7425">
        <ele>229.80000305176</ele>
        <time>2026-08-12T19:13:07.000Z</time>
      </trkpt>
      <trkpt lat="45.19744" lon="5.7425">
        <ele>230</ele>
        <time>2026-08-12T19:13:08.000Z</time>
      </trkpt>
      <trkpt lat="45.19741" lon="5.74251">
        <ele>230.19999694824</ele>
        <time>2026-08-12T19:13:09.000Z</time>
      </trkpt>
      <trkpt lat="45.19738" lon="5.74251">
        <ele>229.80000305176</ele>
        <time>2026-08-12T19:13:10.000Z</time>
      </trkpt>
      <trkpt lat="45.19735" lon="5.74251">
        <ele>229.19999694824</ele>
        <time>2026-08-12T19:13:11.000Z</time>
      </trkpt>
      <trkpt lat="45.19732" lon="5.7425">
        <ele>228.80000305176</ele>
        <time>2026-08-12T19:13:12.000Z</time>
      </trkpt>
      <trkpt lat="45.1973" lon="5.74248">
        <ele>228.39999389648</ele>
        <time>2026-08-12T19:13:13.000Z</time>
      </trkpt>
      <trkpt lat="45.1973" lon="5.74246">
        <ele>228</ele>
        <time>2026-08-12T19:13:14.000Z</time>
      </trkpt>
      <trkpt lat="45.19729" lon="5.74245">
        <ele>227.80000305176</ele>
        <time>2026-08-12T19:13:15.000Z</time>
      </trkpt>
      <trkpt lat="45.19728" lon="5.74243">
        <ele>227.60000610352</ele>
        <time>2026-08-12T19:13:16.000Z</time>
      </trkpt>
      <trkpt lat="45.19727" lon="5.74241">
        <ele>227.39999389648</ele>
        <time>2026-08-12T19:13:17.000Z</time>
      </trkpt>
      <trkpt lat="45.19726" lon="5.74238">
        <ele>227.39999389648</ele>
        <time>2026-08-12T19:13:18.000Z</time>
      </trkpt>
      <trkpt lat="45.19725" lon="5.74236">
        <ele>227.19999694824</ele>
        <time>2026-08-12T19:13:19.000Z</time>
      </trkpt>
      <trkpt lat="45.19724" lon="5.74233">
        <ele>227</ele>
        <time>2026-08-12T19:13:20.000Z</time>
      </trkpt>
      <trkpt lat="45.19724" lon="5.7423">
        <ele>226.39999389648</ele>
        <time>2026-08-12T19:13:21.000Z</time>
      </trkpt>
      <trkpt lat="45.19724" lon="5.74228">
        <ele>226.39999389648</ele>
        <time>2026-08-12T19:13:22.000Z</time>
      </trkpt>
      <trkpt lat="45.19724" lon="5.74226">
        <ele>226.39999389648</ele>
        <time>2026-08-12T19:13:23.000Z</time>
      </trkpt>
      <trkpt lat="45.19724" lon="5.74223">
        <ele>226.39999389648</ele>
        <time>2026-08-12T19:13:24.000Z</time>
      </trkpt>
      <trkpt lat="45.19724" lon="5.7422">
        <ele>226.39999389648</ele>
        <time>2026-08-12T19:13:25.000Z</time>
      </trkpt>
      <trkpt lat="45.19724" lon="5.74218">
        <ele>226.60000610352</ele>
        <time>2026-08-12T19:13:26.000Z</time>
      </trkpt>
      <trkpt lat="45.19724" lon="5.74216">
        <ele>226.39999389648</ele>
        <time>2026-08-12T19:13:27.000Z</time>
      </trkpt>
      <trkpt lat="45.19723" lon="5.74213">
        <ele>226.19999694824</ele>
        <time>2026-08-12T19:13:28.000Z</time>
      </trkpt>
      <trkpt lat="45.19723" lon="5.74211">
        <ele>225.80000305176</ele>
        <time>2026-08-12T19:13:29.000Z</time>
      </trkpt>
      <trkpt lat="45.19722" lon="5.74208">
        <ele>225.60000610352</ele>
        <time>2026-08-12T19:13:30.000Z</time>
      </trkpt>
      <trkpt lat="45.19722" lon="5.74206">
        <ele>225.19999694824</ele>
        <time>2026-08-12T19:13:31.000Z</time>
      </trkpt>
      <trkpt lat="45.19721" lon="5.74204">
        <ele>225</ele>
        <time>2026-08-12T19:13:32.000Z</time>
      </trkpt>
      <trkpt lat="45.19721" lon="5.74201">
        <ele>225</ele>
        <time>2026-08-12T19:13:33.000Z</time>
      </trkpt>
      <trkpt lat="45.1972" lon="5.74198">
        <ele>225</ele>
        <time>2026-08-12T19:13:34.000Z</time>
      </trkpt>
      <trkpt lat="45.19719" lon="5.74194">
        <ele>225.19999694824</ele>
        <time>2026-08-12T19:13:35.000Z</time>
      </trkpt>
      <trkpt lat="45.19719" lon="5.74191">
        <ele>225</ele>
        <time>2026-08-12T19:13:36.000Z</time>
      </trkpt>
      <trkpt lat="45.19719" lon="5.74187">
        <ele>225.19999694824</ele>
        <time>2026-08-12T19:13:37.000Z</time>
      </trkpt>
      <trkpt lat="45.19718" lon="5.74184">
        <ele>225.19999694824</ele>
        <time>2026-08-12T19:13:38.000Z</time>
      </trkpt>
      <trkpt lat="45.19718" lon="5.74182">
        <ele>225.19999694824</ele>
        <time>2026-08-12T19:13:39.000Z</time>
      </trkpt>
      <trkpt lat="45.19717" lon="5.74179">
        <ele>225.39999389648</ele>
        <time>2026-08-12T19:13:40.000Z</time>
      </trkpt>
      <trkpt lat="45.19716" lon="5.74176">
        <ele>225.60000610352</ele>
        <time>2026-08-12T19:13:41.000Z</time>
      </trkpt>
      <trkpt lat="45.19715" lon="5.74173">
        <ele>225.60000610352</ele>
        <time>2026-08-12T19:13:42.000Z</time>
      </trkpt>
      <trkpt lat="45.19714" lon="5.7417">
        <ele>225.80000305176</ele>
        <time>2026-08-12T19:13:43.000Z</time>
      </trkpt>
      <trkpt lat="45.19714" lon="5.74167">
        <ele>226.19999694824</ele>
        <time>2026-08-12T19:13:44.000Z</time>
      </trkpt>
      <trkpt lat="45.19713" lon="5.74164">
        <ele>226.19999694824</ele>
        <time>2026-08-12T19:13:45.000Z</time>
      </trkpt>
      <trkpt lat="45.19713" lon="5.7416">
        <ele>226.39999389648</ele>
        <time>2026-08-12T19:13:46.000Z</time>
      </trkpt>
      <trkpt lat="45.19712" lon="5.74157">
        <ele>226.60000610352</ele>
        <time>2026-08-12T19:13:47.000Z</time>
      </trkpt>
      <trkpt lat="45.19711" lon="5.74155">
        <ele>226.80000305176</ele>
        <time>2026-08-12T19:13:48.000Z</time>
      </trkpt>
      <trkpt lat="45.19711" lon="5.74151">
        <ele>226.80000305176</ele>
        <time>2026-08-12T19:13:49.000Z</time>
      </trkpt>
      <trkpt lat="45.1971" lon="5.74149">
        <ele>226.80000305176</ele>
        <time>2026-08-12T19:13:50.000Z</time>
      </trkpt>
      <trkpt lat="45.1971" lon="5.74145">
        <ele>227</ele>
        <time>2026-08-12T19:13:51.000Z</time>
      </trkpt>
      <trkpt lat="45.19709" lon="5.74141">
        <ele>227</ele>
        <time>2026-08-12T19:13:52.000Z</time>
      </trkpt>
      <trkpt lat="45.19709" lon="5.74138">
        <ele>227.19999694824</ele>
        <time>2026-08-12T19:13:53.000Z</time>
      </trkpt>
      <trkpt lat="45.19708" lon="5.74135">
        <ele>227.39999389648</ele>
        <time>2026-08-12T19:13:54.000Z</time>
      </trkpt>
      <trkpt lat="45.19707" lon="5.74132">
        <ele>227.60000610352</ele>
        <time>2026-08-12T19:13:55.000Z</time>
      </trkpt>
      <trkpt lat="45.19706" lon="5.74129">
        <ele>227.39999389648</ele>
        <time>2026-08-12T19:13:56.000Z</time>
      </trkpt>
      <trkpt lat="45.19706" lon="5.74126">
        <ele>227.60000610352</ele>
        <time>2026-08-12T19:13:57.000Z</time>
      </trkpt>
      <trkpt lat="45.19705" lon="5.74123">
        <ele>227.60000610352</ele>
        <time>2026-08-12T19:13:58.000Z</time>
      </trkpt>
      <trkpt lat="45.19704" lon="5.7412">
        <ele>227.60000610352</ele>
        <time>2026-08-12T19:13:59.000Z</time>
      </trkpt>
      <trkpt lat="45.19703" lon="5.74117">
        <ele>227.80000305176</ele>
        <time>2026-08-12T19:14:00.000Z</time>
      </trkpt>
      <trkpt lat="45.19703" lon="5.74113">
        <ele>227.80000305176</ele>
        <time>2026-08-12T19:14:01.000Z</time>
      </trkpt>
      <trkpt lat="45.19702" lon="5.74109">
        <ele>227.80000305176</ele>
        <time>2026-08-12T19:14:02.000Z</time>
      </trkpt>
      <trkpt lat="45.19701" lon="5.74106">
        <ele>227.80000305176</ele>
        <time>2026-08-12T19:14:03.000Z</time>
      </trkpt>
      <trkpt lat="45.19701" lon="5.74103">
        <ele>227.80000305176</ele>
        <time>2026-08-12T19:14:04.000Z</time>
      </trkpt>
      <trkpt lat="45.197" lon="5.741">
        <ele>227.80000305176</ele>
        <time>2026-08-12T19:14:05.000Z</time>
      </trkpt>
      <trkpt lat="45.19699" lon="5.74096">
        <ele>227.80000305176</ele>
        <time>2026-08-12T19:14:06.000Z</time>
      </trkpt>
      <trkpt lat="45.19699" lon="5.74093">
        <ele>228</ele>
        <time>2026-08-12T19:14:07.000Z</time>
      </trkpt>
      <trkpt lat="45.19698" lon="5.74089">
        <ele>228</ele>
        <time>2026-08-12T19:14:08.000Z</time>
      </trkpt>
      <trkpt lat="45.19697" lon="5.74086">
        <ele>228</ele>
        <time>2026-08-12T19:14:09.000Z</time>
      </trkpt>
      <trkpt lat="45.19697" lon="5.74083">
        <ele>228</ele>
        <time>2026-08-12T19:14:10.000Z</time>
      </trkpt>
      <trkpt lat="45.19696" lon="5.7408">
        <ele>227.80000305176</ele>
        <time>2026-08-12T19:14:11.000Z</time>
      </trkpt>
      <trkpt lat="45.19696" lon="5.74076">
        <ele>227.39999389648</ele>
        <time>2026-08-12T19:14:12.000Z</time>
      </trkpt>
      <trkpt lat="45.19695" lon="5.74074">
        <ele>227.19999694824</ele>
        <time>2026-08-12T19:14:13.000Z</time>
      </trkpt>
      <trkpt lat="45.19694" lon="5.7407">
        <ele>227</ele>
        <time>2026-08-12T19:14:14.000Z</time>
      </trkpt>
      <trkpt lat="45.19693" lon="5.74067">
        <ele>226.80000305176</ele>
        <time>2026-08-12T19:14:15.000Z</time>
      </trkpt>
      <trkpt lat="45.19693" lon="5.74064">
        <ele>226.80000305176</ele>
        <time>2026-08-12T19:14:16.000Z</time>
      </trkpt>
      <trkpt lat="45.19692" lon="5.7406">
        <ele>226.60000610352</ele>
        <time>2026-08-12T19:14:17.000Z</time>
      </trkpt>
      <trkpt lat="45.19692" lon="5.74057">
        <ele>226.60000610352</ele>
        <time>2026-08-12T19:14:18.000Z</time>
      </trkpt>
      <trkpt lat="45.19692" lon="5.74053">
        <ele>226.39999389648</ele>
        <time>2026-08-12T19:14:19.000Z</time>
      </trkpt>
      <trkpt lat="45.19692" lon="5.74049">
        <ele>226</ele>
        <time>2026-08-12T19:14:20.000Z</time>
      </trkpt>
      <trkpt lat="45.19691" lon="5.74046">
        <ele>226</ele>
        <time>2026-08-12T19:14:21.000Z</time>
      </trkpt>
      <trkpt lat="45.19691" lon="5.74043">
        <ele>225.80000305176</ele>
        <time>2026-08-12T19:14:22.000Z</time>
      </trkpt>
      <trkpt lat="45.1969" lon="5.74039">
        <ele>225.39999389648</ele>
        <time>2026-08-12T19:14:23.000Z</time>
      </trkpt>
      <trkpt lat="45.19689" lon="5.74036">
        <ele>225</ele>
        <time>2026-08-12T19:14:24.000Z</time>
      </trkpt>
      <trkpt lat="45.19689" lon="5.74033">
        <ele>224.80000305176</ele>
        <time>2026-08-12T19:14:25.000Z</time>
      </trkpt>
      <trkpt lat="45.19688" lon="5.7403">
        <ele>224.60000610352</ele>
        <time>2026-08-12T19:14:26.000Z</time>
      </trkpt>
      <trkpt lat="45.19687" lon="5.74026">
        <ele>224.19999694824</ele>
        <time>2026-08-12T19:14:27.000Z</time>
      </trkpt>
      <trkpt lat="45.19687" lon="5.74022">
        <ele>224</ele>
        <time>2026-08-12T19:14:28.000Z</time>
      </trkpt>
      <trkpt lat="45.19687" lon="5.74019">
        <ele>223.80000305176</ele>
        <time>2026-08-12T19:14:29.000Z</time>
      </trkpt>
      <trkpt lat="45.19686" lon="5.74016">
        <ele>223.60000610352</ele>
        <time>2026-08-12T19:14:30.000Z</time>
      </trkpt>
      <trkpt lat="45.19685" lon="5.74013">
        <ele>223.80000305176</ele>
        <time>2026-08-12T19:14:31.000Z</time>
      </trkpt>
      <trkpt lat="45.19684" lon="5.74011">
        <ele>223.80000305176</ele>
        <time>2026-08-12T19:14:32.000Z</time>
      </trkpt>
      <trkpt lat="45.19683" lon="5.74008">
        <ele>224</ele>
        <time>2026-08-12T19:14:33.000Z</time>
      </trkpt>
      <trkpt lat="45.19681" lon="5.74005">
        <ele>223.80000305176</ele>
        <time>2026-08-12T19:14:34.000Z</time>
      </trkpt>
      <trkpt lat="45.1968" lon="5.74001">
        <ele>224</ele>
        <time>2026-08-12T19:14:35.000Z</time>
      </trkpt>
      <trkpt lat="45.1968" lon="5.73997">
        <ele>224</ele>
        <time>2026-08-12T19:14:36.000Z</time>
      </trkpt>
      <trkpt lat="45.19679" lon="5.73993">
        <ele>224</ele>
        <time>2026-08-12T19:14:37.000Z</time>
      </trkpt>
      <trkpt lat="45.19678" lon="5.73989">
        <ele>224</ele>
        <time>2026-08-12T19:14:38.000Z</time>
      </trkpt>
      <trkpt lat="45.19677" lon="5.73985">
        <ele>224</ele>
        <time>2026-08-12T19:14:39.000Z</time>
      </trkpt>
      <trkpt lat="45.19676" lon="5.73982">
        <ele>224.19999694824</ele>
        <time>2026-08-12T19:14:40.000Z</time>
      </trkpt>
      <trkpt lat="45.19676" lon="5.73979">
        <ele>224.19999694824</ele>
        <time>2026-08-12T19:14:41.000Z</time>
      </trkpt>
      <trkpt lat="45.19675" lon="5.73976">
        <ele>224.60000610352</ele>
        <time>2026-08-12T19:14:42.000Z</time>
      </trkpt>
      <trkpt lat="45.19674" lon="5.73973">
        <ele>224.80000305176</ele>
        <time>2026-08-12T19:14:43.000Z</time>
      </trkpt>
      <trkpt lat="45.19674" lon="5.7397">
        <ele>225</ele>
        <time>2026-08-12T19:14:44.000Z</time>
      </trkpt>
      <trkpt lat="45.19673" lon="5.73966">
        <ele>225</ele>
        <time>2026-08-12T19:14:45.000Z</time>
      </trkpt>
      <trkpt lat="45.19672" lon="5.73963">
        <ele>225.19999694824</ele>
        <time>2026-08-12T19:14:46.000Z</time>
      </trkpt>
      <trkpt lat="45.19671" lon="5.73959">
        <ele>225.39999389648</ele>
        <time>2026-08-12T19:14:47.000Z</time>
      </trkpt>
      <trkpt lat="45.1967" lon="5.73955">
        <ele>225.39999389648</ele>
        <time>2026-08-12T19:14:48.000Z</time>
      </trkpt>
      <trkpt lat="45.19669" lon="5.73952">
        <ele>225.39999389648</ele>
        <time>2026-08-12T19:14:49.000Z</time>
      </trkpt>
      <trkpt lat="45.19668" lon="5.73949">
        <ele>225.39999389648</ele>
        <time>2026-08-12T19:14:50.000Z</time>
      </trkpt>
      <trkpt lat="45.19668" lon="5.73946">
        <ele>225.19999694824</ele>
        <time>2026-08-12T19:14:51.000Z</time>
      </trkpt>
      <trkpt lat="45.19668" lon="5.73943">
        <ele>225</ele>
        <time>2026-08-12T19:14:52.000Z</time>
      </trkpt>
      <trkpt lat="45.19668" lon="5.73943">
        <ele>225</ele>
        <time>2026-08-12T19:14:53.000Z</time>
      </trkpt>
      <trkpt lat="45.19668" lon="5.73943">
        <ele>225</ele>
        <time>2026-08-12T19:14:54.000Z</time>
      </trkpt>
      <trkpt lat="45.19668" lon="5.73944">
        <ele>225.19999694824</ele>
        <time>2026-08-12T19:14:55.000Z</time>
      </trkpt>
      <trkpt lat="45.19668" lon="5.73945">
        <ele>225.19999694824</ele>
        <time>2026-08-12T19:14:56.000Z</time>
      </trkpt>
      <trkpt lat="45.19667" lon="5.73945">
        <ele>225.19999694824</ele>
        <time>2026-08-12T19:14:57.000Z</time>
      </trkpt>
      <trkpt lat="45.19665" lon="5.73945">
        <ele>225.19999694824</ele>
        <time>2026-08-12T19:14:58.000Z</time>
      </trkpt>
      <trkpt lat="45.19662" lon="5.73946">
        <ele>225</ele>
        <time>2026-08-12T19:14:59.000Z</time>
      </trkpt>
      <trkpt lat="45.1966" lon="5.73947">
        <ele>224.80000305176</ele>
        <time>2026-08-12T19:15:00.000Z</time>
      </trkpt>
      <trkpt lat="45.19658" lon="5.73947">
        <ele>224.60000610352</ele>
        <time>2026-08-12T19:15:01.000Z</time>
      </trkpt>
      <trkpt lat="45.19655" lon="5.73948">
        <ele>224.39999389648</ele>
        <time>2026-08-12T19:15:02.000Z</time>
      </trkpt>
      <trkpt lat="45.19653" lon="5.73949">
        <ele>224.39999389648</ele>
        <time>2026-08-12T19:15:03.000Z</time>
      </trkpt>
      <trkpt lat="45.1965" lon="5.7395">
        <ele>224.39999389648</ele>
        <time>2026-08-12T19:15:04.000Z</time>
      </trkpt>
      <trkpt lat="45.19648" lon="5.73951">
        <ele>224.39999389648</ele>
        <time>2026-08-12T19:15:05.000Z</time>
      </trkpt>
      <trkpt lat="45.19646" lon="5.73953">
        <ele>224.39999389648</ele>
        <time>2026-08-12T19:15:06.000Z</time>
      </trkpt>
      <trkpt lat="45.19644" lon="5.73954">
        <ele>224.60000610352</ele>
        <time>2026-08-12T19:15:07.000Z</time>
      </trkpt>
      <trkpt lat="45.19641" lon="5.73955">
        <ele>224.60000610352</ele>
        <time>2026-08-12T19:15:08.000Z</time>
      </trkpt>
      <trkpt lat="45.19638" lon="5.73956">
        <ele>224.39999389648</ele>
        <time>2026-08-12T19:15:09.000Z</time>
      </trkpt>
      <trkpt lat="45.19636" lon="5.73956">
        <ele>224.39999389648</ele>
        <time>2026-08-12T19:15:10.000Z</time>
      </trkpt>
      <trkpt lat="45.19635" lon="5.73955">
        <ele>224.19999694824</ele>
        <time>2026-08-12T19:15:11.000Z</time>
      </trkpt>
      <trkpt lat="45.19635" lon="5.73956">
        <ele>224</ele>
        <time>2026-08-12T19:15:12.000Z</time>
      </trkpt>
      <trkpt lat="45.19635" lon="5.73957">
        <ele>224</ele>
        <time>2026-08-12T19:15:13.000Z</time>
      </trkpt>
      <trkpt lat="45.19635" lon="5.73957">
        <ele>224</ele>
        <time>2026-08-12T19:15:14.000Z</time>
      </trkpt>
      <trkpt lat="45.19635" lon="5.73957">
        <ele>224</ele>
        <time>2026-08-12T19:15:15.000Z</time>
      </trkpt>
      <trkpt lat="45.19635" lon="5.73957">
        <ele>224</ele>
        <time>2026-08-12T19:15:16.000Z</time>
      </trkpt>
      <trkpt lat="45.19635" lon="5.73957">
        <ele>224</ele>
        <time>2026-08-12T19:15:17.000Z</time>
      </trkpt>
      <trkpt lat="45.19635" lon="5.73959">
        <ele>224</ele>
        <time>2026-08-12T19:15:18.000Z</time>
      </trkpt>
      <trkpt lat="45.19637" lon="5.73962">
        <ele>223.80000305176</ele>
        <time>2026-08-12T19:15:19.000Z</time>
      </trkpt>
      <trkpt lat="45.19637" lon="5.73962">
        <ele>223.60000610352</ele>
        <time>2026-08-12T19:15:20.000Z</time>
      </trkpt>
      <trkpt lat="45.19637" lon="5.73962">
        <ele>223.39999389648</ele>
        <time>2026-08-12T19:15:21.000Z</time>
      </trkpt>
      <trkpt lat="45.19637" lon="5.73962">
        <ele>223</ele>
        <time>2026-08-12T19:15:22.000Z</time>
      </trkpt>
      <trkpt lat="45.19638" lon="5.73965">
        <ele>222.60000610352</ele>
        <time>2026-08-12T19:15:23.000Z</time>
      </trkpt>
      <trkpt lat="45.19638" lon="5.73969">
        <ele>222.60000610352</ele>
        <time>2026-08-12T19:15:24.000Z</time>
      </trkpt>
      <trkpt lat="45.19639" lon="5.73969">
        <ele>222.60000610352</ele>
        <time>2026-08-12T19:15:25.000Z</time>
      </trkpt>
      <trkpt lat="45.19639" lon="5.73969">
        <ele>222.60000610352</ele>
        <time>2026-08-12T19:15:26.000Z</time>
      </trkpt>
      <trkpt lat="45.19639" lon="5.73968">
        <ele>222.60000610352</ele>
        <time>2026-08-12T19:15:27.000Z</time>
      </trkpt>
      <trkpt lat="45.19639" lon="5.73968">
        <ele>223</ele>
        <time>2026-08-12T19:15:28.000Z</time>
      </trkpt>
      <trkpt lat="45.19638" lon="5.73967">
        <ele>223.19999694824</ele>
        <time>2026-08-12T19:15:29.000Z</time>
      </trkpt>
      <trkpt lat="45.19637" lon="5.73967">
        <ele>223.39999389648</ele>
        <time>2026-08-12T19:15:30.000Z</time>
      </trkpt>
      <trkpt lat="45.19637" lon="5.73966">
        <ele>223.60000610352</ele>
        <time>2026-08-12T19:15:31.000Z</time>
      </trkpt>
      <trkpt lat="45.19637" lon="5.73966">
        <ele>223.60000610352</ele>
        <time>2026-08-12T19:15:32.000Z</time>
      </trkpt>
      <trkpt lat="45.19637" lon="5.73966">
        <ele>223.80000305176</ele>
        <time>2026-08-12T19:15:33.000Z</time>
      </trkpt>
      <trkpt lat="45.19637" lon="5.73966">
        <ele>223.80000305176</ele>
        <time>2026-08-12T19:15:34.000Z</time>
      </trkpt>
      <trkpt lat="45.19637" lon="5.73965">
        <ele>224.19999694824</ele>
        <time>2026-08-12T19:15:35.000Z</time>
      </trkpt>
      <trkpt lat="45.19637" lon="5.73964">
        <ele>224.80000305176</ele>
        <time>2026-08-12T19:15:36.000Z</time>
      </trkpt>
      <trkpt lat="45.19637" lon="5.73963">
        <ele>225.19999694824</ele>
        <time>2026-08-12T19:15:37.000Z</time>
      </trkpt>
      <trkpt lat="45.19636" lon="5.7396">
        <ele>225.19999694824</ele>
        <time>2026-08-12T19:15:38.000Z</time>
      </trkpt>
      <trkpt lat="45.19635" lon="5.73959">
        <ele>225.39999389648</ele>
        <time>2026-08-12T19:15:39.000Z</time>
      </trkpt>
      <trkpt lat="45.19635" lon="5.73958">
        <ele>225.39999389648</ele>
        <time>2026-08-12T19:15:40.000Z</time>
      </trkpt>
      <trkpt lat="45.19635" lon="5.73958">
        <ele>225.39999389648</ele>
        <time>2026-08-12T19:15:41.000Z</time>
      </trkpt>
      <trkpt lat="45.19635" lon="5.73956">
        <ele>225.39999389648</ele>
        <time>2026-08-12T19:15:42.000Z</time>
      </trkpt>
      <trkpt lat="45.19635" lon="5.73955">
        <ele>225.39999389648</ele>
        <time>2026-08-12T19:15:43.000Z</time>
      </trkpt>
      <trkpt lat="45.19636" lon="5.73955">
        <ele>225.60000610352</ele>
        <time>2026-08-12T19:15:44.000Z</time>
      </trkpt>
      <trkpt lat="45.19636" lon="5.73954">
        <ele>225.60000610352</ele>
        <time>2026-08-12T19:15:45.000Z</time>
      </trkpt>
      <trkpt lat="45.19636" lon="5.73953">
        <ele>226</ele>
        <time>2026-08-12T19:15:46.000Z</time>
      </trkpt>
      <trkpt lat="45.19636" lon="5.73952">
        <ele>227</ele>
        <time>2026-08-12T19:15:47.000Z</time>
      </trkpt>
      <trkpt lat="45.19636" lon="5.7395">
        <ele>227.80000305176</ele>
        <time>2026-08-12T19:15:48.000Z</time>
      </trkpt>
      <trkpt lat="45.19637" lon="5.73949">
        <ele>228.39999389648</ele>
        <time>2026-08-12T19:15:49.000Z</time>
      </trkpt>
      <trkpt lat="45.19637" lon="5.73948">
        <ele>228.60000610352</ele>
        <time>2026-08-12T19:15:50.000Z</time>
      </trkpt>
      <trkpt lat="45.19638" lon="5.7395">
        <ele>229</ele>
        <time>2026-08-12T19:15:51.000Z</time>
      </trkpt>
      <trkpt lat="45.19639" lon="5.7395">
        <ele>229.19999694824</ele>
        <time>2026-08-12T19:15:52.000Z</time>
      </trkpt>
      <trkpt lat="45.19641" lon="5.73949">
        <ele>229.80000305176</ele>
        <time>2026-08-12T19:15:53.000Z</time>
      </trkpt>
      <trkpt lat="45.19643" lon="5.73947">
        <ele>231.19999694824</ele>
        <time>2026-08-12T19:15:54.000Z</time>
      </trkpt>
      <trkpt lat="45.19645" lon="5.73946">
        <ele>231.19999694824</ele>
        <time>2026-08-12T19:15:55.000Z</time>
      </trkpt>
      <trkpt lat="45.19647" lon="5.73946">
        <ele>231.39999389648</ele>
        <time>2026-08-12T19:15:56.000Z</time>
      </trkpt>
      <trkpt lat="45.19649" lon="5.73945">
        <ele>231.60000610352</ele>
        <time>2026-08-12T19:15:57.000Z</time>
      </trkpt>
      <trkpt lat="45.19651" lon="5.73944">
        <ele>231.60000610352</ele>
        <time>2026-08-12T19:15:58.000Z</time>
      </trkpt>
      <trkpt lat="45.19653" lon="5.73944">
        <ele>231.80000305176</ele>
        <time>2026-08-12T19:15:59.000Z</time>
      </trkpt>
      <trkpt lat="45.19655" lon="5.73943">
        <ele>231.60000610352</ele>
        <time>2026-08-12T19:16:00.000Z</time>
      </trkpt>
      <trkpt lat="45.19657" lon="5.73942">
        <ele>231.19999694824</ele>
        <time>2026-08-12T19:16:01.000Z</time>
      </trkpt>
      <trkpt lat="45.19657" lon="5.73941">
        <ele>231</ele>
        <time>2026-08-12T19:16:02.000Z</time>
      </trkpt>
      <trkpt lat="45.19657" lon="5.73941">
        <ele>230.80000305176</ele>
        <time>2026-08-12T19:16:03.000Z</time>
      </trkpt>
    </trkseg>
  </trk>
</gpx>